<?xml version="1.0" encoding="UTF-8"?>
<gpx version="1.1" creator="https://www.youtrack.es" xsi:schemaLocation="http://www.topografix.com/GPX/1/1 http://www.topografix.com/GPX/1/1/gpx.xsd http://www.garmin.com/xmlschemas/GpxExtensions/v3 http://www.garmin.com/xmlschemas/GpxExtensionsv3.xsd http://www.garmin.com/xmlschemas/TrackPointExtension/v1 http://www.garmin.com/xmlschemas/TrackPointExtensionv1.xsd" xmlns:gpxtpx="http://www.garmin.com/xmlschemas/TrackPointExtension/v1" xmlns:gpxx="http://www.garmin.com/xmlschemas/GpxExtensions/v3" xmlns:xsi="http://www.w3.org/2001/XMLSchema-instance">
  <metadata>
    <link href="https://www.youtrack.es">
      <text>YouTrack.es</text>
    </link>
    <time>2026-05-10T15:52:16Z</time>
  </metadata>
  <trk>
    <src>https://www.youtrack.es</src>
    <link href="https://www.youtrack.es/ruta/33816-leon-santiago">
      <text>YouTrack.es</text>
    </link>
    <trkseg>
      <trkpt lat="42.596494" lon="-5.577559">
        <ele>829.664</ele>
        <time>2015-08-17T08:35:35Z</time>
      </trkpt>
      <trkpt lat="42.596577" lon="-5.577668">
        <ele>829.506</ele>
        <time>2015-08-17T08:35:39Z</time>
      </trkpt>
      <trkpt lat="42.596511" lon="-5.577563">
        <ele>828.616</ele>
        <time>2015-08-17T08:35:41Z</time>
      </trkpt>
      <trkpt lat="42.596653" lon="-5.577380">
        <ele>828.608</ele>
        <time>2015-08-17T08:35:45Z</time>
      </trkpt>
      <trkpt lat="42.596539" lon="-5.577323">
        <ele>828.967</ele>
        <time>2015-08-17T08:35:47Z</time>
      </trkpt>
      <trkpt lat="42.597174" lon="-5.578344">
        <ele>828.796</ele>
        <time>2015-08-17T08:38:07Z</time>
      </trkpt>
      <trkpt lat="42.597443" lon="-5.578394">
        <ele>829.931</ele>
        <time>2015-08-17T08:38:34Z</time>
      </trkpt>
      <trkpt lat="42.598887" lon="-5.579589">
        <ele>831.216</ele>
        <time>2015-08-17T08:41:11Z</time>
      </trkpt>
      <trkpt lat="42.599335" lon="-5.580063">
        <ele>829.594</ele>
        <time>2015-08-17T08:42:00Z</time>
      </trkpt>
      <trkpt lat="42.599529" lon="-5.580494">
        <ele>829.375</ele>
        <time>2015-08-17T08:42:33Z</time>
      </trkpt>
      <trkpt lat="42.599805" lon="-5.580561">
        <ele>830.154</ele>
        <time>2015-08-17T08:42:57Z</time>
      </trkpt>
      <trkpt lat="42.600739" lon="-5.581449">
        <ele>829.098</ele>
        <time>2015-08-17T08:44:27Z</time>
      </trkpt>
      <trkpt lat="42.601465" lon="-5.582632">
        <ele>829.258</ele>
        <time>2015-08-17T08:46:32Z</time>
      </trkpt>
      <trkpt lat="42.600574" lon="-5.585298">
        <ele>844.752</ele>
        <time>2015-08-17T08:49:51Z</time>
      </trkpt>
      <trkpt lat="42.600121" lon="-5.585772">
        <ele>839.417</ele>
        <time>2015-08-17T08:50:44Z</time>
      </trkpt>
      <trkpt lat="42.599838" lon="-5.587411">
        <ele>826.508</ele>
        <time>2015-08-17T08:53:19Z</time>
      </trkpt>
      <trkpt lat="42.599276" lon="-5.588483">
        <ele>828.986</ele>
        <time>2015-08-17T08:54:38Z</time>
      </trkpt>
      <trkpt lat="42.599223" lon="-5.589137">
        <ele>826.535</ele>
        <time>2015-08-17T08:55:15Z</time>
      </trkpt>
      <trkpt lat="42.598855" lon="-5.589890">
        <ele>827.650</ele>
        <time>2015-08-17T08:55:59Z</time>
      </trkpt>
      <trkpt lat="42.598911" lon="-5.590907">
        <ele>827.765</ele>
        <time>2015-08-17T08:57:12Z</time>
      </trkpt>
      <trkpt lat="42.598638" lon="-5.593314">
        <ele>827.773</ele>
        <time>2015-08-17T08:59:41Z</time>
      </trkpt>
      <trkpt lat="42.598856" lon="-5.593999">
        <ele>827.234</ele>
        <time>2015-08-17T09:00:37Z</time>
      </trkpt>
      <trkpt lat="42.598709" lon="-5.594164">
        <ele>826.283</ele>
        <time>2015-08-17T09:00:45Z</time>
      </trkpt>
      <trkpt lat="42.598565" lon="-5.594928">
        <ele>827.287</ele>
        <time>2015-08-17T09:01:24Z</time>
      </trkpt>
      <trkpt lat="42.598439" lon="-5.596867">
        <ele>828.234</ele>
        <time>2015-08-17T09:03:21Z</time>
      </trkpt>
      <trkpt lat="42.598617" lon="-5.597875">
        <ele>825.955</ele>
        <time>2015-08-17T09:04:26Z</time>
      </trkpt>
      <trkpt lat="42.598366" lon="-5.598134">
        <ele>826.810</ele>
        <time>2015-08-17T09:04:40Z</time>
      </trkpt>
      <trkpt lat="42.598444" lon="-5.598379">
        <ele>830.008</ele>
        <time>2015-08-17T09:04:59Z</time>
      </trkpt>
      <trkpt lat="42.598058" lon="-5.600222">
        <ele>825.794</ele>
        <time>2015-08-17T09:07:17Z</time>
      </trkpt>
      <trkpt lat="42.598098" lon="-5.600994">
        <ele>826.753</ele>
        <time>2015-08-17T09:08:08Z</time>
      </trkpt>
      <trkpt lat="42.597871" lon="-5.601392">
        <ele>826.168</ele>
        <time>2015-08-17T09:08:37Z</time>
      </trkpt>
      <trkpt lat="42.597718" lon="-5.602462">
        <ele>828.573</ele>
        <time>2015-08-17T09:09:50Z</time>
      </trkpt>
      <trkpt lat="42.596530" lon="-5.605839">
        <ele>838.381</ele>
        <time>2015-08-17T09:13:45Z</time>
      </trkpt>
      <trkpt lat="42.596299" lon="-5.608265">
        <ele>838.662</ele>
        <time>2015-08-17T09:16:19Z</time>
      </trkpt>
      <trkpt lat="42.596004" lon="-5.608727">
        <ele>836.961</ele>
        <time>2015-08-17T09:16:59Z</time>
      </trkpt>
      <trkpt lat="42.595879" lon="-5.609506">
        <ele>840.845</ele>
        <time>2015-08-17T09:17:46Z</time>
      </trkpt>
      <trkpt lat="42.595054" lon="-5.611238">
        <ele>843.861</ele>
        <time>2015-08-17T09:19:49Z</time>
      </trkpt>
      <trkpt lat="42.594965" lon="-5.611881">
        <ele>848.721</ele>
        <time>2015-08-17T09:20:31Z</time>
      </trkpt>
      <trkpt lat="42.594537" lon="-5.612103">
        <ele>852.613</ele>
        <time>2015-08-17T09:20:59Z</time>
      </trkpt>
      <trkpt lat="42.594280" lon="-5.611897">
        <ele>851.508</ele>
        <time>2015-08-17T09:21:36Z</time>
      </trkpt>
      <trkpt lat="42.594419" lon="-5.613373">
        <ele>860.617</ele>
        <time>2015-08-17T09:24:16Z</time>
      </trkpt>
      <trkpt lat="42.594019" lon="-5.613863">
        <ele>865.556</ele>
        <time>2015-08-17T09:31:36Z</time>
      </trkpt>
      <trkpt lat="42.593337" lon="-5.615520">
        <ele>868.251</ele>
        <time>2015-08-17T09:35:08Z</time>
      </trkpt>
      <trkpt lat="42.593298" lon="-5.615915">
        <ele>868.936</ele>
        <time>2015-08-17T09:35:30Z</time>
      </trkpt>
      <trkpt lat="42.591952" lon="-5.618663">
        <ele>864.824</ele>
        <time>2015-08-17T09:38:27Z</time>
      </trkpt>
      <trkpt lat="42.591773" lon="-5.619539">
        <ele>869.635</ele>
        <time>2015-08-17T09:39:23Z</time>
      </trkpt>
      <trkpt lat="42.591411" lon="-5.619924">
        <ele>871.774</ele>
        <time>2015-08-17T09:40:01Z</time>
      </trkpt>
      <trkpt lat="42.591407" lon="-5.620387">
        <ele>868.128</ele>
        <time>2015-08-17T09:40:15Z</time>
      </trkpt>
      <trkpt lat="42.591029" lon="-5.620942">
        <ele>869.057</ele>
        <time>2015-08-17T09:40:55Z</time>
      </trkpt>
      <trkpt lat="42.591016" lon="-5.621298">
        <ele>870.400</ele>
        <time>2015-08-17T09:41:20Z</time>
      </trkpt>
      <trkpt lat="42.590365" lon="-5.622270">
        <ele>870.320</ele>
        <time>2015-08-17T09:42:34Z</time>
      </trkpt>
      <trkpt lat="42.590154" lon="-5.622917">
        <ele>869.408</ele>
        <time>2015-08-17T09:43:12Z</time>
      </trkpt>
      <trkpt lat="42.589880" lon="-5.623149">
        <ele>870.926</ele>
        <time>2015-08-17T09:43:28Z</time>
      </trkpt>
      <trkpt lat="42.589817" lon="-5.623520">
        <ele>869.065</ele>
        <time>2015-08-17T09:43:47Z</time>
      </trkpt>
      <trkpt lat="42.589339" lon="-5.624133">
        <ele>871.490</ele>
        <time>2015-08-17T09:44:35Z</time>
      </trkpt>
      <trkpt lat="42.588487" lon="-5.626083">
        <ele>875.535</ele>
        <time>2015-08-17T09:46:53Z</time>
      </trkpt>
      <trkpt lat="42.587659" lon="-5.626689">
        <ele>880.073</ele>
        <time>2015-08-17T09:48:17Z</time>
      </trkpt>
      <trkpt lat="42.586834" lon="-5.627773">
        <ele>885.364</ele>
        <time>2015-08-17T09:49:49Z</time>
      </trkpt>
      <trkpt lat="42.586391" lon="-5.628748">
        <ele>888.473</ele>
        <time>2015-08-17T09:50:57Z</time>
      </trkpt>
      <trkpt lat="42.586025" lon="-5.628855">
        <ele>887.477</ele>
        <time>2015-08-17T09:51:26Z</time>
      </trkpt>
      <trkpt lat="42.585705" lon="-5.629667">
        <ele>894.923</ele>
        <time>2015-08-17T09:52:21Z</time>
      </trkpt>
      <trkpt lat="42.585733" lon="-5.629908">
        <ele>893.183</ele>
        <time>2015-08-17T09:52:33Z</time>
      </trkpt>
      <trkpt lat="42.585054" lon="-5.631409">
        <ele>893.211</ele>
        <time>2015-08-17T09:54:22Z</time>
      </trkpt>
      <trkpt lat="42.584883" lon="-5.632245">
        <ele>897.908</ele>
        <time>2015-08-17T09:55:12Z</time>
      </trkpt>
      <trkpt lat="42.584516" lon="-5.632720">
        <ele>894.173</ele>
        <time>2015-08-17T09:55:48Z</time>
      </trkpt>
      <trkpt lat="42.584086" lon="-5.634129">
        <ele>896.892</ele>
        <time>2015-08-17T09:57:09Z</time>
      </trkpt>
      <trkpt lat="42.583269" lon="-5.635979">
        <ele>905.167</ele>
        <time>2015-08-17T09:59:36Z</time>
      </trkpt>
      <trkpt lat="42.582899" lon="-5.636374">
        <ele>909.352</ele>
        <time>2015-08-17T10:00:16Z</time>
      </trkpt>
      <trkpt lat="42.582872" lon="-5.636640">
        <ele>910.210</ele>
        <time>2015-08-17T10:00:27Z</time>
      </trkpt>
      <trkpt lat="42.581690" lon="-5.638590">
        <ele>908.331</ele>
        <time>2015-08-17T10:03:48Z</time>
      </trkpt>
      <trkpt lat="42.581437" lon="-5.638771">
        <ele>908.050</ele>
        <time>2015-08-17T10:04:12Z</time>
      </trkpt>
      <trkpt lat="42.581284" lon="-5.639263">
        <ele>908.144</ele>
        <time>2015-08-17T10:04:41Z</time>
      </trkpt>
      <trkpt lat="42.580944" lon="-5.639547">
        <ele>908.224</ele>
        <time>2015-08-17T10:05:11Z</time>
      </trkpt>
      <trkpt lat="42.580859" lon="-5.639910">
        <ele>905.404</ele>
        <time>2015-08-17T10:05:30Z</time>
      </trkpt>
      <trkpt lat="42.580568" lon="-5.640244">
        <ele>905.414</ele>
        <time>2015-08-17T10:06:38Z</time>
      </trkpt>
      <trkpt lat="42.580308" lon="-5.640078">
        <ele>905.508</ele>
        <time>2015-08-17T10:07:18Z</time>
      </trkpt>
      <trkpt lat="42.580442" lon="-5.640323">
        <ele>906.453</ele>
        <time>2015-08-17T10:10:35Z</time>
      </trkpt>
      <trkpt lat="42.580196" lon="-5.640868">
        <ele>904.392</ele>
        <time>2015-08-17T10:11:27Z</time>
      </trkpt>
      <trkpt lat="42.579888" lon="-5.641123">
        <ele>904.587</ele>
        <time>2015-08-17T10:11:59Z</time>
      </trkpt>
      <trkpt lat="42.579902" lon="-5.641660">
        <ele>905.182</ele>
        <time>2015-08-17T10:12:25Z</time>
      </trkpt>
      <trkpt lat="42.579513" lon="-5.641647">
        <ele>902.520</ele>
        <time>2015-08-17T10:13:27Z</time>
      </trkpt>
      <trkpt lat="42.579359" lon="-5.641776">
        <ele>902.071</ele>
        <time>2015-08-17T10:13:48Z</time>
      </trkpt>
      <trkpt lat="42.578150" lon="-5.643579">
        <ele>890.250</ele>
        <time>2015-08-17T10:16:24Z</time>
      </trkpt>
      <trkpt lat="42.577736" lon="-5.645355">
        <ele>889.464</ele>
        <time>2015-08-17T10:18:10Z</time>
      </trkpt>
      <trkpt lat="42.577698" lon="-5.646376">
        <ele>896.755</ele>
        <time>2015-08-17T10:19:24Z</time>
      </trkpt>
      <trkpt lat="42.577390" lon="-5.647138">
        <ele>899.407</ele>
        <time>2015-08-17T10:20:24Z</time>
      </trkpt>
      <trkpt lat="42.577352" lon="-5.647884">
        <ele>900.717</ele>
        <time>2015-08-17T10:21:07Z</time>
      </trkpt>
      <trkpt lat="42.576876" lon="-5.648446">
        <ele>902.308</ele>
        <time>2015-08-17T10:21:59Z</time>
      </trkpt>
      <trkpt lat="42.576998" lon="-5.648609">
        <ele>903.786</ele>
        <time>2015-08-17T10:22:09Z</time>
      </trkpt>
      <trkpt lat="42.576769" lon="-5.648899">
        <ele>900.345</ele>
        <time>2015-08-17T10:22:24Z</time>
      </trkpt>
      <trkpt lat="42.576709" lon="-5.650158">
        <ele>904.120</ele>
        <time>2015-08-17T10:23:48Z</time>
      </trkpt>
      <trkpt lat="42.576605" lon="-5.650374">
        <ele>903.835</ele>
        <time>2015-08-17T10:24:00Z</time>
      </trkpt>
      <trkpt lat="42.576407" lon="-5.650407">
        <ele>904.073</ele>
        <time>2015-08-17T10:24:13Z</time>
      </trkpt>
      <trkpt lat="42.576209" lon="-5.651292">
        <ele>906.334</ele>
        <time>2015-08-17T10:25:08Z</time>
      </trkpt>
      <trkpt lat="42.575809" lon="-5.651695">
        <ele>906.373</ele>
        <time>2015-08-17T10:25:40Z</time>
      </trkpt>
      <trkpt lat="42.575931" lon="-5.651950">
        <ele>907.587</ele>
        <time>2015-08-17T10:26:01Z</time>
      </trkpt>
      <trkpt lat="42.574957" lon="-5.653675">
        <ele>909.088</ele>
        <time>2015-08-17T10:28:05Z</time>
      </trkpt>
      <trkpt lat="42.574504" lon="-5.654206">
        <ele>903.724</ele>
        <time>2015-08-17T10:28:45Z</time>
      </trkpt>
      <trkpt lat="42.573739" lon="-5.656814">
        <ele>892.026</ele>
        <time>2015-08-17T10:31:53Z</time>
      </trkpt>
      <trkpt lat="42.573441" lon="-5.657102">
        <ele>885.108</ele>
        <time>2015-08-17T10:33:37Z</time>
      </trkpt>
      <trkpt lat="42.573223" lon="-5.657950">
        <ele>882.499</ele>
        <time>2015-08-17T10:34:37Z</time>
      </trkpt>
      <trkpt lat="42.572691" lon="-5.658466">
        <ele>881.368</ele>
        <time>2015-08-17T10:35:32Z</time>
      </trkpt>
      <trkpt lat="42.571352" lon="-5.658586">
        <ele>888.753</ele>
        <time>2015-08-17T10:37:22Z</time>
      </trkpt>
      <trkpt lat="42.571090" lon="-5.658421">
        <ele>887.058</ele>
        <time>2015-08-17T10:37:42Z</time>
      </trkpt>
      <trkpt lat="42.570825" lon="-5.657767">
        <ele>882.896</ele>
        <time>2015-08-17T10:38:30Z</time>
      </trkpt>
      <trkpt lat="42.570190" lon="-5.658356">
        <ele>887.167</ele>
        <time>2015-08-17T10:39:34Z</time>
      </trkpt>
      <trkpt lat="42.570497" lon="-5.659091">
        <ele>889.786</ele>
        <time>2015-08-17T10:40:38Z</time>
      </trkpt>
      <trkpt lat="42.570758" lon="-5.659244">
        <ele>891.090</ele>
        <time>2015-08-17T10:40:56Z</time>
      </trkpt>
      <trkpt lat="42.571567" lon="-5.660568">
        <ele>897.251</ele>
        <time>2015-08-17T10:42:44Z</time>
      </trkpt>
      <trkpt lat="42.572080" lon="-5.661125">
        <ele>899.101</ele>
        <time>2015-08-17T10:43:44Z</time>
      </trkpt>
      <trkpt lat="42.572254" lon="-5.661744">
        <ele>905.511</ele>
        <time>2015-08-17T10:44:32Z</time>
      </trkpt>
      <trkpt lat="42.571903" lon="-5.662178">
        <ele>907.808</ele>
        <time>2015-08-17T10:45:11Z</time>
      </trkpt>
      <trkpt lat="42.571762" lon="-5.664004">
        <ele>913.446</ele>
        <time>2015-08-17T10:47:08Z</time>
      </trkpt>
      <trkpt lat="42.571553" lon="-5.664437">
        <ele>911.775</ele>
        <time>2015-08-17T10:47:34Z</time>
      </trkpt>
      <trkpt lat="42.571623" lon="-5.665078">
        <ele>913.320</ele>
        <time>2015-08-17T10:48:15Z</time>
      </trkpt>
      <trkpt lat="42.571448" lon="-5.666351">
        <ele>910.085</ele>
        <time>2015-08-17T10:49:41Z</time>
      </trkpt>
      <trkpt lat="42.571561" lon="-5.667261">
        <ele>906.793</ele>
        <time>2015-08-17T10:50:39Z</time>
      </trkpt>
      <trkpt lat="42.571379" lon="-5.667996">
        <ele>906.014</ele>
        <time>2015-08-17T10:51:19Z</time>
      </trkpt>
      <trkpt lat="42.571396" lon="-5.668273">
        <ele>904.833</ele>
        <time>2015-08-17T10:51:27Z</time>
      </trkpt>
      <trkpt lat="42.571610" lon="-5.668542">
        <ele>903.357</ele>
        <time>2015-08-17T10:51:55Z</time>
      </trkpt>
      <trkpt lat="42.571396" lon="-5.670627">
        <ele>899.212</ele>
        <time>2015-08-17T10:54:05Z</time>
      </trkpt>
      <trkpt lat="42.571599" lon="-5.671185">
        <ele>902.532</ele>
        <time>2015-08-17T10:54:35Z</time>
      </trkpt>
      <trkpt lat="42.571451" lon="-5.671662">
        <ele>901.105</ele>
        <time>2015-08-17T10:55:06Z</time>
      </trkpt>
      <trkpt lat="42.571579" lon="-5.673279">
        <ele>901.308</ele>
        <time>2015-08-17T10:56:44Z</time>
      </trkpt>
      <trkpt lat="42.571492" lon="-5.674443">
        <ele>901.192</ele>
        <time>2015-08-17T10:57:54Z</time>
      </trkpt>
      <trkpt lat="42.571144" lon="-5.675385">
        <ele>902.041</ele>
        <time>2015-08-17T10:58:52Z</time>
      </trkpt>
      <trkpt lat="42.570794" lon="-5.677302">
        <ele>900.796</ele>
        <time>2015-08-17T11:00:45Z</time>
      </trkpt>
      <trkpt lat="42.570530" lon="-5.677857">
        <ele>900.611</ele>
        <time>2015-08-17T11:01:29Z</time>
      </trkpt>
      <trkpt lat="42.570584" lon="-5.678086">
        <ele>898.149</ele>
        <time>2015-08-17T11:01:48Z</time>
      </trkpt>
      <trkpt lat="42.570284" lon="-5.678648">
        <ele>898.470</ele>
        <time>2015-08-17T11:02:23Z</time>
      </trkpt>
      <trkpt lat="42.570075" lon="-5.680081">
        <ele>893.869</ele>
        <time>2015-08-17T11:03:50Z</time>
      </trkpt>
      <trkpt lat="42.569607" lon="-5.681241">
        <ele>888.473</ele>
        <time>2015-08-17T11:05:01Z</time>
      </trkpt>
      <trkpt lat="42.569285" lon="-5.681584">
        <ele>884.916</ele>
        <time>2015-08-17T11:05:18Z</time>
      </trkpt>
      <trkpt lat="42.569466" lon="-5.681693">
        <ele>885.676</ele>
        <time>2015-08-17T11:05:29Z</time>
      </trkpt>
      <trkpt lat="42.569211" lon="-5.682524">
        <ele>886.813</ele>
        <time>2015-08-17T11:06:38Z</time>
      </trkpt>
      <trkpt lat="42.569040" lon="-5.682656">
        <ele>887.308</ele>
        <time>2015-08-17T11:06:51Z</time>
      </trkpt>
      <trkpt lat="42.569082" lon="-5.683240">
        <ele>888.232</ele>
        <time>2015-08-17T11:10:35Z</time>
      </trkpt>
      <trkpt lat="42.568669" lon="-5.683698">
        <ele>889.921</ele>
        <time>2015-08-17T11:37:43Z</time>
      </trkpt>
      <trkpt lat="42.566782" lon="-5.687949">
        <ele>905.776</ele>
        <time>2015-08-17T11:43:31Z</time>
      </trkpt>
      <trkpt lat="42.565477" lon="-5.690120">
        <ele>909.261</ele>
        <time>2015-08-17T11:46:11Z</time>
      </trkpt>
      <trkpt lat="42.565245" lon="-5.690822">
        <ele>908.849</ele>
        <time>2015-08-17T11:47:02Z</time>
      </trkpt>
      <trkpt lat="42.564591" lon="-5.691761">
        <ele>903.010</ele>
        <time>2015-08-17T11:48:15Z</time>
      </trkpt>
      <trkpt lat="42.564531" lon="-5.692125">
        <ele>903.479</ele>
        <time>2015-08-17T11:48:39Z</time>
      </trkpt>
      <trkpt lat="42.564011" lon="-5.692902">
        <ele>902.273</ele>
        <time>2015-08-17T11:49:41Z</time>
      </trkpt>
      <trkpt lat="42.562330" lon="-5.696417">
        <ele>898.939</ele>
        <time>2015-08-17T11:54:09Z</time>
      </trkpt>
      <trkpt lat="42.562048" lon="-5.696734">
        <ele>897.001</ele>
        <time>2015-08-17T11:56:51Z</time>
      </trkpt>
      <trkpt lat="42.561808" lon="-5.697447">
        <ele>897.921</ele>
        <time>2015-08-17T11:57:51Z</time>
      </trkpt>
      <trkpt lat="42.559735" lon="-5.700970">
        <ele>900.508</ele>
        <time>2015-08-17T12:02:12Z</time>
      </trkpt>
      <trkpt lat="42.558985" lon="-5.702637">
        <ele>902.354</ele>
        <time>2015-08-17T12:04:10Z</time>
      </trkpt>
      <trkpt lat="42.558247" lon="-5.703418">
        <ele>902.683</ele>
        <time>2015-08-17T12:05:25Z</time>
      </trkpt>
      <trkpt lat="42.556930" lon="-5.705757">
        <ele>912.238</ele>
        <time>2015-08-17T12:08:28Z</time>
      </trkpt>
      <trkpt lat="42.557105" lon="-5.705842">
        <ele>918.273</ele>
        <time>2015-08-17T12:08:50Z</time>
      </trkpt>
      <trkpt lat="42.557087" lon="-5.705974">
        <ele>919.291</ele>
        <time>2015-08-17T12:08:58Z</time>
      </trkpt>
      <trkpt lat="42.556080" lon="-5.707930">
        <ele>922.062</ele>
        <time>2015-08-17T12:11:17Z</time>
      </trkpt>
      <trkpt lat="42.555947" lon="-5.708522">
        <ele>921.941</ele>
        <time>2015-08-17T12:11:59Z</time>
      </trkpt>
      <trkpt lat="42.554505" lon="-5.711631">
        <ele>914.895</ele>
        <time>2015-08-17T12:15:26Z</time>
      </trkpt>
      <trkpt lat="42.554528" lon="-5.711878">
        <ele>918.547</ele>
        <time>2015-08-17T12:15:41Z</time>
      </trkpt>
      <trkpt lat="42.553789" lon="-5.713008">
        <ele>914.329</ele>
        <time>2015-08-17T12:17:02Z</time>
      </trkpt>
      <trkpt lat="42.553647" lon="-5.713648">
        <ele>917.921</ele>
        <time>2015-08-17T12:17:39Z</time>
      </trkpt>
      <trkpt lat="42.553055" lon="-5.714674">
        <ele>918.308</ele>
        <time>2015-08-17T12:18:55Z</time>
      </trkpt>
      <trkpt lat="42.552352" lon="-5.716490">
        <ele>921.965</ele>
        <time>2015-08-17T12:20:47Z</time>
      </trkpt>
      <trkpt lat="42.551634" lon="-5.717798">
        <ele>919.144</ele>
        <time>2015-08-17T12:22:16Z</time>
      </trkpt>
      <trkpt lat="42.551538" lon="-5.718270">
        <ele>921.929</ele>
        <time>2015-08-17T12:22:41Z</time>
      </trkpt>
      <trkpt lat="42.551250" lon="-5.718772">
        <ele>921.864</ele>
        <time>2015-08-17T12:23:08Z</time>
      </trkpt>
      <trkpt lat="42.550995" lon="-5.718929">
        <ele>920.042</ele>
        <time>2015-08-17T12:23:24Z</time>
      </trkpt>
      <trkpt lat="42.550936" lon="-5.719297">
        <ele>920.973</ele>
        <time>2015-08-17T12:24:00Z</time>
      </trkpt>
      <trkpt lat="42.550613" lon="-5.719593">
        <ele>919.922</ele>
        <time>2015-08-17T12:24:21Z</time>
      </trkpt>
      <trkpt lat="42.550324" lon="-5.720471">
        <ele>919.886</ele>
        <time>2015-08-17T12:25:21Z</time>
      </trkpt>
      <trkpt lat="42.549323" lon="-5.721876">
        <ele>912.419</ele>
        <time>2015-08-17T12:27:12Z</time>
      </trkpt>
      <trkpt lat="42.548318" lon="-5.722935">
        <ele>911.709</ele>
        <time>2015-08-17T12:28:51Z</time>
      </trkpt>
      <trkpt lat="42.547860" lon="-5.723810">
        <ele>916.319</ele>
        <time>2015-08-17T12:29:52Z</time>
      </trkpt>
      <trkpt lat="42.547140" lon="-5.724623">
        <ele>914.108</ele>
        <time>2015-08-17T12:31:04Z</time>
      </trkpt>
      <trkpt lat="42.545502" lon="-5.727142">
        <ele>911.592</ele>
        <time>2015-08-17T12:34:04Z</time>
      </trkpt>
      <trkpt lat="42.544468" lon="-5.728293">
        <ele>910.211</ele>
        <time>2015-08-17T12:35:55Z</time>
      </trkpt>
      <trkpt lat="42.544310" lon="-5.728871">
        <ele>914.856</ele>
        <time>2015-08-17T12:36:31Z</time>
      </trkpt>
      <trkpt lat="42.543949" lon="-5.729105">
        <ele>912.341</ele>
        <time>2015-08-17T12:36:51Z</time>
      </trkpt>
      <trkpt lat="42.542905" lon="-5.730732">
        <ele>910.979</ele>
        <time>2015-08-17T12:38:56Z</time>
      </trkpt>
      <trkpt lat="42.542596" lon="-5.730895">
        <ele>912.140</ele>
        <time>2015-08-17T12:39:07Z</time>
      </trkpt>
      <trkpt lat="42.542032" lon="-5.732083">
        <ele>909.099</ele>
        <time>2015-08-17T12:40:46Z</time>
      </trkpt>
      <trkpt lat="42.541371" lon="-5.732686">
        <ele>910.783</ele>
        <time>2015-08-17T12:41:24Z</time>
      </trkpt>
      <trkpt lat="42.541407" lon="-5.732879">
        <ele>909.856</ele>
        <time>2015-08-17T12:41:49Z</time>
      </trkpt>
      <trkpt lat="42.541192" lon="-5.733127">
        <ele>907.259</ele>
        <time>2015-08-17T12:42:07Z</time>
      </trkpt>
      <trkpt lat="42.540225" lon="-5.734041">
        <ele>904.214</ele>
        <time>2015-08-17T12:43:52Z</time>
      </trkpt>
      <trkpt lat="42.538648" lon="-5.736969">
        <ele>905.108</ele>
        <time>2015-08-17T12:47:39Z</time>
      </trkpt>
      <trkpt lat="42.537181" lon="-5.738530">
        <ele>905.186</ele>
        <time>2015-08-17T12:50:02Z</time>
      </trkpt>
      <trkpt lat="42.537072" lon="-5.738992">
        <ele>903.595</ele>
        <time>2015-08-17T12:50:42Z</time>
      </trkpt>
      <trkpt lat="42.536545" lon="-5.739682">
        <ele>905.090</ele>
        <time>2015-08-17T12:51:31Z</time>
      </trkpt>
      <trkpt lat="42.536615" lon="-5.739773">
        <ele>905.565</ele>
        <time>2015-08-17T12:51:45Z</time>
      </trkpt>
      <trkpt lat="42.535937" lon="-5.740500">
        <ele>901.073</ele>
        <time>2015-08-17T12:52:44Z</time>
      </trkpt>
      <trkpt lat="42.535875" lon="-5.740757">
        <ele>905.324</ele>
        <time>2015-08-17T12:52:59Z</time>
      </trkpt>
      <trkpt lat="42.535513" lon="-5.740969">
        <ele>900.333</ele>
        <time>2015-08-17T12:53:35Z</time>
      </trkpt>
      <trkpt lat="42.535201" lon="-5.741925">
        <ele>904.457</ele>
        <time>2015-08-17T12:54:30Z</time>
      </trkpt>
      <trkpt lat="42.534927" lon="-5.741959">
        <ele>902.916</ele>
        <time>2015-08-17T12:54:46Z</time>
      </trkpt>
      <trkpt lat="42.534725" lon="-5.742550">
        <ele>903.576</ele>
        <time>2015-08-17T12:55:20Z</time>
      </trkpt>
      <trkpt lat="42.534048" lon="-5.743195">
        <ele>899.913</ele>
        <time>2015-08-17T12:56:28Z</time>
      </trkpt>
      <trkpt lat="42.533695" lon="-5.743947">
        <ele>907.008</ele>
        <time>2015-08-17T12:57:21Z</time>
      </trkpt>
      <trkpt lat="42.533288" lon="-5.744272">
        <ele>904.512</ele>
        <time>2015-08-17T12:58:03Z</time>
      </trkpt>
      <trkpt lat="42.532250" lon="-5.745655">
        <ele>902.331</ele>
        <time>2015-08-17T13:00:05Z</time>
      </trkpt>
      <trkpt lat="42.532006" lon="-5.745776">
        <ele>900.796</ele>
        <time>2015-08-17T13:00:29Z</time>
      </trkpt>
      <trkpt lat="42.531719" lon="-5.746430">
        <ele>900.381</ele>
        <time>2015-08-17T13:01:13Z</time>
      </trkpt>
      <trkpt lat="42.531378" lon="-5.746682">
        <ele>898.389</ele>
        <time>2015-08-17T13:01:51Z</time>
      </trkpt>
      <trkpt lat="42.530877" lon="-5.747647">
        <ele>898.610</ele>
        <time>2015-08-17T13:03:05Z</time>
      </trkpt>
      <trkpt lat="42.529975" lon="-5.748731">
        <ele>902.199</ele>
        <time>2015-08-17T13:04:50Z</time>
      </trkpt>
      <trkpt lat="42.529684" lon="-5.749412">
        <ele>900.843</ele>
        <time>2015-08-17T13:05:32Z</time>
      </trkpt>
      <trkpt lat="42.528275" lon="-5.751105">
        <ele>903.241</ele>
        <time>2015-08-17T13:08:36Z</time>
      </trkpt>
      <trkpt lat="42.527654" lon="-5.752207">
        <ele>902.181</ele>
        <time>2015-08-17T13:10:18Z</time>
      </trkpt>
      <trkpt lat="42.527254" lon="-5.752625">
        <ele>897.909</ele>
        <time>2015-08-17T13:10:52Z</time>
      </trkpt>
      <trkpt lat="42.527289" lon="-5.752745">
        <ele>900.408</ele>
        <time>2015-08-17T13:11:00Z</time>
      </trkpt>
      <trkpt lat="42.526046" lon="-5.754320">
        <ele>904.415</ele>
        <time>2015-08-17T13:13:19Z</time>
      </trkpt>
      <trkpt lat="42.525175" lon="-5.755851">
        <ele>898.784</ele>
        <time>2015-08-17T13:15:08Z</time>
      </trkpt>
      <trkpt lat="42.524575" lon="-5.756451">
        <ele>900.899</ele>
        <time>2015-08-17T13:16:04Z</time>
      </trkpt>
      <trkpt lat="42.524473" lon="-5.756823">
        <ele>900.444</ele>
        <time>2015-08-17T13:16:18Z</time>
      </trkpt>
      <trkpt lat="42.524132" lon="-5.757088">
        <ele>897.762</ele>
        <time>2015-08-17T13:16:52Z</time>
      </trkpt>
      <trkpt lat="42.523788" lon="-5.757870">
        <ele>902.363</ele>
        <time>2015-08-17T13:17:43Z</time>
      </trkpt>
      <trkpt lat="42.523440" lon="-5.758103">
        <ele>896.232</ele>
        <time>2015-08-17T13:18:18Z</time>
      </trkpt>
      <trkpt lat="42.522695" lon="-5.759403">
        <ele>900.646</ele>
        <time>2015-08-17T13:20:01Z</time>
      </trkpt>
      <trkpt lat="42.521483" lon="-5.760958">
        <ele>896.776</ele>
        <time>2015-08-17T13:22:19Z</time>
      </trkpt>
      <trkpt lat="42.521381" lon="-5.761322">
        <ele>895.890</ele>
        <time>2015-08-17T13:22:38Z</time>
      </trkpt>
      <trkpt lat="42.521029" lon="-5.761593">
        <ele>899.819</ele>
        <time>2015-08-17T13:22:57Z</time>
      </trkpt>
      <trkpt lat="42.520142" lon="-5.763978">
        <ele>892.808</ele>
        <time>2015-08-17T13:25:37Z</time>
      </trkpt>
      <trkpt lat="42.519380" lon="-5.764984">
        <ele>890.738</ele>
        <time>2015-08-17T13:27:03Z</time>
      </trkpt>
      <trkpt lat="42.519375" lon="-5.765232">
        <ele>889.777</ele>
        <time>2015-08-17T13:27:35Z</time>
      </trkpt>
      <trkpt lat="42.519532" lon="-5.765219">
        <ele>893.952</ele>
        <time>2015-08-17T13:28:06Z</time>
      </trkpt>
      <trkpt lat="42.517297" lon="-5.766537">
        <ele>895.151</ele>
        <time>2013-06-26T04:28:18Z</time>
      </trkpt>
      <trkpt lat="42.517274" lon="-5.766525">
        <ele>895.101</ele>
        <time>2013-06-26T04:28:30Z</time>
      </trkpt>
      <trkpt lat="42.517257" lon="-5.766509">
        <ele>894.211</ele>
        <time>2013-06-26T04:28:37Z</time>
      </trkpt>
      <trkpt lat="42.517245" lon="-5.766503">
        <ele>895.607</ele>
        <time>2013-06-26T04:28:48Z</time>
      </trkpt>
      <trkpt lat="42.517230" lon="-5.766494">
        <ele>895.679</ele>
        <time>2013-06-26T04:28:58Z</time>
      </trkpt>
      <trkpt lat="42.517200" lon="-5.766489">
        <ele>895.612</ele>
        <time>2013-06-26T04:29:09Z</time>
      </trkpt>
      <trkpt lat="42.517209" lon="-5.766488">
        <ele>895.641</ele>
        <time>2013-06-26T04:29:21Z</time>
      </trkpt>
      <trkpt lat="42.517216" lon="-5.766477">
        <ele>896.176</ele>
        <time>2013-06-26T04:29:37Z</time>
      </trkpt>
      <trkpt lat="42.517224" lon="-5.766475">
        <ele>895.652</ele>
        <time>2013-06-26T04:29:52Z</time>
      </trkpt>
      <trkpt lat="42.517202" lon="-5.766487">
        <ele>896.630</ele>
        <time>2013-06-26T04:30:06Z</time>
      </trkpt>
      <trkpt lat="42.517165" lon="-5.766477">
        <ele>896.656</ele>
        <time>2013-06-26T04:30:22Z</time>
      </trkpt>
      <trkpt lat="42.517163" lon="-5.766479">
        <ele>896.113</ele>
        <time>2013-06-26T04:30:32Z</time>
      </trkpt>
      <trkpt lat="42.517181" lon="-5.766450">
        <ele>897.143</ele>
        <time>2013-06-26T04:30:44Z</time>
      </trkpt>
      <trkpt lat="42.517199" lon="-5.766485">
        <ele>896.607</ele>
        <time>2013-06-26T04:30:53Z</time>
      </trkpt>
      <trkpt lat="42.517212" lon="-5.766520">
        <ele>897.107</ele>
        <time>2013-06-26T04:31:06Z</time>
      </trkpt>
      <trkpt lat="42.517193" lon="-5.766536">
        <ele>896.695</ele>
        <time>2013-06-26T04:31:19Z</time>
      </trkpt>
      <trkpt lat="42.517122" lon="-5.766557">
        <ele>897.178</ele>
        <time>2013-06-26T04:31:37Z</time>
      </trkpt>
      <trkpt lat="42.517109" lon="-5.766556">
        <ele>897.117</ele>
        <time>2013-06-26T04:31:48Z</time>
      </trkpt>
      <trkpt lat="42.517094" lon="-5.766557">
        <ele>897.542</ele>
        <time>2013-06-26T04:31:57Z</time>
      </trkpt>
      <trkpt lat="42.517095" lon="-5.766552">
        <ele>897.548</ele>
        <time>2013-06-26T04:32:10Z</time>
      </trkpt>
      <trkpt lat="42.517088" lon="-5.766559">
        <ele>897.116</ele>
        <time>2013-06-26T04:32:26Z</time>
      </trkpt>
      <trkpt lat="42.517083" lon="-5.766566">
        <ele>897.542</ele>
        <time>2013-06-26T04:32:33Z</time>
      </trkpt>
      <trkpt lat="42.517041" lon="-5.766600">
        <ele>897.112</ele>
        <time>2013-06-26T04:32:41Z</time>
      </trkpt>
      <trkpt lat="42.516946" lon="-5.766627">
        <ele>897.132</ele>
        <time>2013-06-26T04:32:52Z</time>
      </trkpt>
      <trkpt lat="42.516903" lon="-5.766691">
        <ele>897.505</ele>
        <time>2013-06-26T04:33:00Z</time>
      </trkpt>
      <trkpt lat="42.516842" lon="-5.766811">
        <ele>897.107</ele>
        <time>2013-06-26T04:33:10Z</time>
      </trkpt>
      <trkpt lat="42.516827" lon="-5.766915">
        <ele>897.135</ele>
        <time>2013-06-26T04:33:16Z</time>
      </trkpt>
      <trkpt lat="42.516786" lon="-5.767071">
        <ele>896.668</ele>
        <time>2013-06-26T04:33:27Z</time>
      </trkpt>
      <trkpt lat="42.516819" lon="-5.767125">
        <ele>896.617</ele>
        <time>2013-06-26T04:33:32Z</time>
      </trkpt>
      <trkpt lat="42.516887" lon="-5.767233">
        <ele>896.652</ele>
        <time>2013-06-26T04:33:41Z</time>
      </trkpt>
      <trkpt lat="42.516926" lon="-5.767272">
        <ele>897.128</ele>
        <time>2013-06-26T04:33:47Z</time>
      </trkpt>
      <trkpt lat="42.516963" lon="-5.767358">
        <ele>896.696</ele>
        <time>2013-06-26T04:33:55Z</time>
      </trkpt>
      <trkpt lat="42.517025" lon="-5.767464">
        <ele>897.162</ele>
        <time>2013-06-26T04:34:04Z</time>
      </trkpt>
      <trkpt lat="42.517047" lon="-5.767584">
        <ele>897.524</ele>
        <time>2013-06-26T04:34:12Z</time>
      </trkpt>
      <trkpt lat="42.516969" lon="-5.767686">
        <ele>897.504</ele>
        <time>2013-06-26T04:34:21Z</time>
      </trkpt>
      <trkpt lat="42.516889" lon="-5.767778">
        <ele>897.114</ele>
        <time>2013-06-26T04:34:30Z</time>
      </trkpt>
      <trkpt lat="42.516787" lon="-5.767959">
        <ele>895.107</ele>
        <time>2013-06-26T04:34:43Z</time>
      </trkpt>
      <trkpt lat="42.516701" lon="-5.768083">
        <ele>894.246</ele>
        <time>2013-06-26T04:34:52Z</time>
      </trkpt>
      <trkpt lat="42.516699" lon="-5.768143">
        <ele>893.779</ele>
        <time>2013-06-26T04:35:00Z</time>
      </trkpt>
      <trkpt lat="42.516634" lon="-5.768217">
        <ele>892.748</ele>
        <time>2013-06-26T04:35:06Z</time>
      </trkpt>
      <trkpt lat="42.516579" lon="-5.768298">
        <ele>892.743</ele>
        <time>2013-06-26T04:35:14Z</time>
      </trkpt>
      <trkpt lat="42.516510" lon="-5.768414">
        <ele>890.899</ele>
        <time>2013-06-26T04:35:24Z</time>
      </trkpt>
      <trkpt lat="42.516459" lon="-5.768485">
        <ele>890.897</ele>
        <time>2013-06-26T04:35:31Z</time>
      </trkpt>
      <trkpt lat="42.516388" lon="-5.768667">
        <ele>889.463</ele>
        <time>2013-06-26T04:35:43Z</time>
      </trkpt>
      <trkpt lat="42.516318" lon="-5.768823">
        <ele>887.432</ele>
        <time>2013-06-26T04:35:55Z</time>
      </trkpt>
      <trkpt lat="42.516277" lon="-5.768901">
        <ele>886.592</ele>
        <time>2013-06-26T04:36:04Z</time>
      </trkpt>
      <trkpt lat="42.516236" lon="-5.769069">
        <ele>886.011</ele>
        <time>2013-06-26T04:36:15Z</time>
      </trkpt>
      <trkpt lat="42.516197" lon="-5.769232">
        <ele>885.007</ele>
        <time>2013-06-26T04:36:25Z</time>
      </trkpt>
      <trkpt lat="42.516201" lon="-5.769392">
        <ele>884.177</ele>
        <time>2013-06-26T04:36:35Z</time>
      </trkpt>
      <trkpt lat="42.516197" lon="-5.769465">
        <ele>884.170</ele>
        <time>2013-06-26T04:36:40Z</time>
      </trkpt>
      <trkpt lat="42.516183" lon="-5.769633">
        <ele>884.179</ele>
        <time>2013-06-26T04:36:51Z</time>
      </trkpt>
      <trkpt lat="42.516158" lon="-5.769765">
        <ele>883.644</ele>
        <time>2013-06-26T04:37:01Z</time>
      </trkpt>
      <trkpt lat="42.516141" lon="-5.769869">
        <ele>883.120</ele>
        <time>2013-06-26T04:37:08Z</time>
      </trkpt>
      <trkpt lat="42.516115" lon="-5.770020">
        <ele>883.178</ele>
        <time>2013-06-26T04:37:17Z</time>
      </trkpt>
      <trkpt lat="42.516086" lon="-5.770209">
        <ele>882.624</ele>
        <time>2013-06-26T04:37:28Z</time>
      </trkpt>
      <trkpt lat="42.516063" lon="-5.770333">
        <ele>882.666</ele>
        <time>2013-06-26T04:37:36Z</time>
      </trkpt>
      <trkpt lat="42.515999" lon="-5.770492">
        <ele>882.629</ele>
        <time>2013-06-26T04:37:47Z</time>
      </trkpt>
      <trkpt lat="42.515978" lon="-5.770566">
        <ele>882.621</ele>
        <time>2013-06-26T04:37:55Z</time>
      </trkpt>
      <trkpt lat="42.515966" lon="-5.770643">
        <ele>882.207</ele>
        <time>2013-06-26T04:38:01Z</time>
      </trkpt>
      <trkpt lat="42.515909" lon="-5.770776">
        <ele>882.270</ele>
        <time>2013-06-26T04:38:11Z</time>
      </trkpt>
      <trkpt lat="42.515852" lon="-5.770891">
        <ele>881.263</ele>
        <time>2013-06-26T04:38:21Z</time>
      </trkpt>
      <trkpt lat="42.515783" lon="-5.771000">
        <ele>881.232</ele>
        <time>2013-06-26T04:38:30Z</time>
      </trkpt>
      <trkpt lat="42.515690" lon="-5.771139">
        <ele>881.237</ele>
        <time>2013-06-26T04:38:41Z</time>
      </trkpt>
      <trkpt lat="42.515646" lon="-5.771217">
        <ele>880.713</ele>
        <time>2013-06-26T04:38:50Z</time>
      </trkpt>
      <trkpt lat="42.515555" lon="-5.771367">
        <ele>881.221</ele>
        <time>2013-06-26T04:39:00Z</time>
      </trkpt>
      <trkpt lat="42.515473" lon="-5.771506">
        <ele>880.757</ele>
        <time>2013-06-26T04:39:10Z</time>
      </trkpt>
      <trkpt lat="42.515393" lon="-5.771632">
        <ele>880.728</ele>
        <time>2013-06-26T04:39:20Z</time>
      </trkpt>
      <trkpt lat="42.515320" lon="-5.771764">
        <ele>881.289</ele>
        <time>2013-06-26T04:39:31Z</time>
      </trkpt>
      <trkpt lat="42.515269" lon="-5.771851">
        <ele>881.217</ele>
        <time>2013-06-26T04:39:38Z</time>
      </trkpt>
      <trkpt lat="42.515195" lon="-5.771962">
        <ele>881.207</ele>
        <time>2013-06-26T04:39:47Z</time>
      </trkpt>
      <trkpt lat="42.515116" lon="-5.772104">
        <ele>881.276</ele>
        <time>2013-06-26T04:39:57Z</time>
      </trkpt>
      <trkpt lat="42.515032" lon="-5.772249">
        <ele>880.759</ele>
        <time>2013-06-26T04:40:09Z</time>
      </trkpt>
      <trkpt lat="42.514959" lon="-5.772366">
        <ele>880.288</ele>
        <time>2013-06-26T04:40:18Z</time>
      </trkpt>
      <trkpt lat="42.514897" lon="-5.772489">
        <ele>880.763</ele>
        <time>2013-06-26T04:40:26Z</time>
      </trkpt>
      <trkpt lat="42.514823" lon="-5.772620">
        <ele>880.779</ele>
        <time>2013-06-26T04:40:36Z</time>
      </trkpt>
      <trkpt lat="42.514799" lon="-5.772662">
        <ele>881.267</ele>
        <time>2013-06-26T04:40:40Z</time>
      </trkpt>
      <trkpt lat="42.514725" lon="-5.772812">
        <ele>880.753</ele>
        <time>2013-06-26T04:40:51Z</time>
      </trkpt>
      <trkpt lat="42.514651" lon="-5.772942">
        <ele>880.766</ele>
        <time>2013-06-26T04:41:01Z</time>
      </trkpt>
      <trkpt lat="42.514591" lon="-5.773077">
        <ele>880.729</ele>
        <time>2013-06-26T04:41:11Z</time>
      </trkpt>
      <trkpt lat="42.514545" lon="-5.773158">
        <ele>880.721</ele>
        <time>2013-06-26T04:41:17Z</time>
      </trkpt>
      <trkpt lat="42.514569" lon="-5.773242">
        <ele>881.207</ele>
        <time>2013-06-26T04:41:27Z</time>
      </trkpt>
      <trkpt lat="42.514553" lon="-5.773231">
        <ele>880.760</ele>
        <time>2013-06-26T04:41:41Z</time>
      </trkpt>
      <trkpt lat="42.514521" lon="-5.773226">
        <ele>880.283</ele>
        <time>2013-06-26T04:41:59Z</time>
      </trkpt>
      <trkpt lat="42.514503" lon="-5.773231">
        <ele>880.282</ele>
        <time>2013-06-26T04:42:09Z</time>
      </trkpt>
      <trkpt lat="42.514506" lon="-5.773156">
        <ele>881.257</ele>
        <time>2013-06-26T04:42:15Z</time>
      </trkpt>
      <trkpt lat="42.514524" lon="-5.773176">
        <ele>880.783</ele>
        <time>2013-06-26T04:42:19Z</time>
      </trkpt>
      <trkpt lat="42.514545" lon="-5.773260">
        <ele>880.731</ele>
        <time>2013-06-26T04:42:27Z</time>
      </trkpt>
      <trkpt lat="42.514529" lon="-5.773254">
        <ele>880.747</ele>
        <time>2013-06-26T04:42:29Z</time>
      </trkpt>
      <trkpt lat="42.514435" lon="-5.773349">
        <ele>880.768</ele>
        <time>2013-06-26T04:42:40Z</time>
      </trkpt>
      <trkpt lat="42.514372" lon="-5.773473">
        <ele>880.742</ele>
        <time>2013-06-26T04:42:49Z</time>
      </trkpt>
      <trkpt lat="42.514293" lon="-5.773620">
        <ele>880.726</ele>
        <time>2013-06-26T04:43:00Z</time>
      </trkpt>
      <trkpt lat="42.514238" lon="-5.773739">
        <ele>880.707</ele>
        <time>2013-06-26T04:43:08Z</time>
      </trkpt>
      <trkpt lat="42.514208" lon="-5.773789">
        <ele>880.750</ele>
        <time>2013-06-26T04:43:12Z</time>
      </trkpt>
      <trkpt lat="42.514088" lon="-5.773951">
        <ele>880.773</ele>
        <time>2013-06-26T04:43:26Z</time>
      </trkpt>
      <trkpt lat="42.513975" lon="-5.774012">
        <ele>880.782</ele>
        <time>2013-06-26T04:43:36Z</time>
      </trkpt>
      <trkpt lat="42.513875" lon="-5.773964">
        <ele>880.777</ele>
        <time>2013-06-26T04:43:44Z</time>
      </trkpt>
      <trkpt lat="42.513757" lon="-5.773871">
        <ele>880.773</ele>
        <time>2013-06-26T04:43:55Z</time>
      </trkpt>
      <trkpt lat="42.513625" lon="-5.773806">
        <ele>880.771</ele>
        <time>2013-06-26T04:44:07Z</time>
      </trkpt>
      <trkpt lat="42.513512" lon="-5.773722">
        <ele>881.217</ele>
        <time>2013-06-26T04:44:17Z</time>
      </trkpt>
      <trkpt lat="42.513493" lon="-5.773674">
        <ele>880.745</ele>
        <time>2013-06-26T04:44:20Z</time>
      </trkpt>
      <trkpt lat="42.513455" lon="-5.773661">
        <ele>880.247</ele>
        <time>2013-06-26T04:44:24Z</time>
      </trkpt>
      <trkpt lat="42.513420" lon="-5.773706">
        <ele>881.211</ele>
        <time>2013-06-26T04:44:28Z</time>
      </trkpt>
      <trkpt lat="42.513410" lon="-5.773733">
        <ele>880.707</ele>
        <time>2013-06-26T04:44:30Z</time>
      </trkpt>
      <trkpt lat="42.513381" lon="-5.773845">
        <ele>880.718</ele>
        <time>2013-06-26T04:44:38Z</time>
      </trkpt>
      <trkpt lat="42.513330" lon="-5.773996">
        <ele>881.251</ele>
        <time>2013-06-26T04:44:48Z</time>
      </trkpt>
      <trkpt lat="42.513275" lon="-5.774147">
        <ele>880.760</ele>
        <time>2013-06-26T04:44:59Z</time>
      </trkpt>
      <trkpt lat="42.513247" lon="-5.774223">
        <ele>881.245</ele>
        <time>2013-06-26T04:45:04Z</time>
      </trkpt>
      <trkpt lat="42.513198" lon="-5.774375">
        <ele>880.751</ele>
        <time>2013-06-26T04:45:14Z</time>
      </trkpt>
      <trkpt lat="42.513154" lon="-5.774533">
        <ele>881.249</ele>
        <time>2013-06-26T04:45:25Z</time>
      </trkpt>
      <trkpt lat="42.513097" lon="-5.774675">
        <ele>881.245</ele>
        <time>2013-06-26T04:45:35Z</time>
      </trkpt>
      <trkpt lat="42.513039" lon="-5.774861">
        <ele>881.243</ele>
        <time>2013-06-26T04:45:47Z</time>
      </trkpt>
      <trkpt lat="42.512983" lon="-5.775027">
        <ele>881.264</ele>
        <time>2013-06-26T04:45:58Z</time>
      </trkpt>
      <trkpt lat="42.512922" lon="-5.775205">
        <ele>881.210</ele>
        <time>2013-06-26T04:46:10Z</time>
      </trkpt>
      <trkpt lat="42.512855" lon="-5.775401">
        <ele>881.207</ele>
        <time>2013-06-26T04:46:23Z</time>
      </trkpt>
      <trkpt lat="42.512792" lon="-5.775594">
        <ele>880.718</ele>
        <time>2013-06-26T04:46:36Z</time>
      </trkpt>
      <trkpt lat="42.512725" lon="-5.775785">
        <ele>880.731</ele>
        <time>2013-06-26T04:46:49Z</time>
      </trkpt>
      <trkpt lat="42.512680" lon="-5.775921">
        <ele>881.240</ele>
        <time>2013-06-26T04:46:58Z</time>
      </trkpt>
      <trkpt lat="42.512621" lon="-5.776110">
        <ele>881.295</ele>
        <time>2013-06-26T04:47:11Z</time>
      </trkpt>
      <trkpt lat="42.512572" lon="-5.776257">
        <ele>880.751</ele>
        <time>2013-06-26T04:47:21Z</time>
      </trkpt>
      <trkpt lat="42.512517" lon="-5.776430">
        <ele>881.219</ele>
        <time>2013-06-26T04:47:32Z</time>
      </trkpt>
      <trkpt lat="42.512462" lon="-5.776572">
        <ele>880.755</ele>
        <time>2013-06-26T04:47:43Z</time>
      </trkpt>
      <trkpt lat="42.512429" lon="-5.776671">
        <ele>880.775</ele>
        <time>2013-06-26T04:47:51Z</time>
      </trkpt>
      <trkpt lat="42.512369" lon="-5.776850">
        <ele>880.728</ele>
        <time>2013-06-26T04:48:03Z</time>
      </trkpt>
      <trkpt lat="42.512306" lon="-5.777012">
        <ele>880.220</ele>
        <time>2013-06-26T04:48:14Z</time>
      </trkpt>
      <trkpt lat="42.512245" lon="-5.777151">
        <ele>880.707</ele>
        <time>2013-06-26T04:48:24Z</time>
      </trkpt>
      <trkpt lat="42.512177" lon="-5.777302">
        <ele>880.751</ele>
        <time>2013-06-26T04:48:35Z</time>
      </trkpt>
      <trkpt lat="42.512098" lon="-5.777447">
        <ele>880.224</ele>
        <time>2013-06-26T04:48:46Z</time>
      </trkpt>
      <trkpt lat="42.512012" lon="-5.777617">
        <ele>880.233</ele>
        <time>2013-06-26T04:48:59Z</time>
      </trkpt>
      <trkpt lat="42.511922" lon="-5.777793">
        <ele>880.238</ele>
        <time>2013-06-26T04:49:12Z</time>
      </trkpt>
      <trkpt lat="42.511831" lon="-5.777950">
        <ele>879.774</ele>
        <time>2013-06-26T04:49:24Z</time>
      </trkpt>
      <trkpt lat="42.511746" lon="-5.778101">
        <ele>880.252</ele>
        <time>2013-06-26T04:49:36Z</time>
      </trkpt>
      <trkpt lat="42.511679" lon="-5.778236">
        <ele>879.358</ele>
        <time>2013-06-26T04:49:46Z</time>
      </trkpt>
      <trkpt lat="42.511626" lon="-5.778322">
        <ele>879.745</ele>
        <time>2013-06-26T04:49:54Z</time>
      </trkpt>
      <trkpt lat="42.511602" lon="-5.778383">
        <ele>879.347</ele>
        <time>2013-06-26T04:50:00Z</time>
      </trkpt>
      <trkpt lat="42.511540" lon="-5.778521">
        <ele>879.711</ele>
        <time>2013-06-26T04:50:10Z</time>
      </trkpt>
      <trkpt lat="42.511472" lon="-5.778661">
        <ele>879.307</ele>
        <time>2013-06-26T04:50:20Z</time>
      </trkpt>
      <trkpt lat="42.511390" lon="-5.778804">
        <ele>879.778</ele>
        <time>2013-06-26T04:50:31Z</time>
      </trkpt>
      <trkpt lat="42.511300" lon="-5.778951">
        <ele>879.311</ele>
        <time>2013-06-26T04:50:43Z</time>
      </trkpt>
      <trkpt lat="42.511231" lon="-5.779083">
        <ele>879.350</ele>
        <time>2013-06-26T04:50:53Z</time>
      </trkpt>
      <trkpt lat="42.511160" lon="-5.779216">
        <ele>879.345</ele>
        <time>2013-06-26T04:51:03Z</time>
      </trkpt>
      <trkpt lat="42.511084" lon="-5.779358">
        <ele>879.341</ele>
        <time>2013-06-26T04:51:14Z</time>
      </trkpt>
      <trkpt lat="42.511001" lon="-5.779519">
        <ele>879.359</ele>
        <time>2013-06-26T04:51:26Z</time>
      </trkpt>
      <trkpt lat="42.510929" lon="-5.779652">
        <ele>879.395</ele>
        <time>2013-06-26T04:51:36Z</time>
      </trkpt>
      <trkpt lat="42.510839" lon="-5.779808">
        <ele>879.323</ele>
        <time>2013-06-26T04:51:47Z</time>
      </trkpt>
      <trkpt lat="42.510741" lon="-5.779989">
        <ele>879.383</ele>
        <time>2013-06-26T04:52:00Z</time>
      </trkpt>
      <trkpt lat="42.510663" lon="-5.780134">
        <ele>879.311</ele>
        <time>2013-06-26T04:52:11Z</time>
      </trkpt>
      <trkpt lat="42.510575" lon="-5.780290">
        <ele>879.307</ele>
        <time>2013-06-26T04:52:23Z</time>
      </trkpt>
      <trkpt lat="42.510504" lon="-5.780423">
        <ele>879.326</ele>
        <time>2013-06-26T04:52:33Z</time>
      </trkpt>
      <trkpt lat="42.510433" lon="-5.780560">
        <ele>878.889</ele>
        <time>2013-06-26T04:52:43Z</time>
      </trkpt>
      <trkpt lat="42.510352" lon="-5.780718">
        <ele>878.888</ele>
        <time>2013-06-26T04:52:55Z</time>
      </trkpt>
      <trkpt lat="42.510266" lon="-5.780878">
        <ele>878.863</ele>
        <time>2013-06-26T04:53:07Z</time>
      </trkpt>
      <trkpt lat="42.510192" lon="-5.781011">
        <ele>878.849</ele>
        <time>2013-06-26T04:53:17Z</time>
      </trkpt>
      <trkpt lat="42.510100" lon="-5.781177">
        <ele>878.847</ele>
        <time>2013-06-26T04:53:29Z</time>
      </trkpt>
      <trkpt lat="42.510009" lon="-5.781339">
        <ele>879.353</ele>
        <time>2013-06-26T04:53:42Z</time>
      </trkpt>
      <trkpt lat="42.509918" lon="-5.781505">
        <ele>878.875</ele>
        <time>2013-06-26T04:53:54Z</time>
      </trkpt>
      <trkpt lat="42.509832" lon="-5.781655">
        <ele>878.828</ele>
        <time>2013-06-26T04:54:05Z</time>
      </trkpt>
      <trkpt lat="42.509763" lon="-5.781781">
        <ele>878.320</ele>
        <time>2013-06-26T04:54:15Z</time>
      </trkpt>
      <trkpt lat="42.509676" lon="-5.781950">
        <ele>878.307</ele>
        <time>2013-06-26T04:54:27Z</time>
      </trkpt>
      <trkpt lat="42.509607" lon="-5.782082">
        <ele>878.891</ele>
        <time>2013-06-26T04:54:36Z</time>
      </trkpt>
      <trkpt lat="42.509524" lon="-5.782234">
        <ele>878.394</ele>
        <time>2013-06-26T04:54:47Z</time>
      </trkpt>
      <trkpt lat="42.509446" lon="-5.782388">
        <ele>878.893</ele>
        <time>2013-06-26T04:54:58Z</time>
      </trkpt>
      <trkpt lat="42.509359" lon="-5.782535">
        <ele>878.378</ele>
        <time>2013-06-26T04:55:09Z</time>
      </trkpt>
      <trkpt lat="42.509274" lon="-5.782675">
        <ele>877.814</ele>
        <time>2013-06-26T04:55:20Z</time>
      </trkpt>
      <trkpt lat="42.509201" lon="-5.782800">
        <ele>877.812</ele>
        <time>2013-06-26T04:55:30Z</time>
      </trkpt>
      <trkpt lat="42.509124" lon="-5.782951">
        <ele>877.858</ele>
        <time>2013-06-26T04:55:41Z</time>
      </trkpt>
      <trkpt lat="42.509048" lon="-5.783129">
        <ele>877.839</ele>
        <time>2013-06-26T04:55:53Z</time>
      </trkpt>
      <trkpt lat="42.508981" lon="-5.783250">
        <ele>876.901</ele>
        <time>2013-06-26T04:56:02Z</time>
      </trkpt>
      <trkpt lat="42.508895" lon="-5.783411">
        <ele>877.321</ele>
        <time>2013-06-26T04:56:13Z</time>
      </trkpt>
      <trkpt lat="42.508812" lon="-5.783551">
        <ele>877.307</ele>
        <time>2013-06-26T04:56:24Z</time>
      </trkpt>
      <trkpt lat="42.508731" lon="-5.783694">
        <ele>877.337</ele>
        <time>2013-06-26T04:56:35Z</time>
      </trkpt>
      <trkpt lat="42.508633" lon="-5.783871">
        <ele>877.330</ele>
        <time>2013-06-26T04:56:48Z</time>
      </trkpt>
      <trkpt lat="42.508558" lon="-5.784001">
        <ele>876.989</ele>
        <time>2013-06-26T04:56:58Z</time>
      </trkpt>
      <trkpt lat="42.508480" lon="-5.784147">
        <ele>876.484</ele>
        <time>2013-06-26T04:57:09Z</time>
      </trkpt>
      <trkpt lat="42.508445" lon="-5.784246">
        <ele>876.970</ele>
        <time>2013-06-26T04:57:17Z</time>
      </trkpt>
      <trkpt lat="42.508432" lon="-5.784281">
        <ele>876.968</ele>
        <time>2013-06-26T04:57:19Z</time>
      </trkpt>
      <trkpt lat="42.508357" lon="-5.784389">
        <ele>876.964</ele>
        <time>2013-06-26T04:57:29Z</time>
      </trkpt>
      <trkpt lat="42.508312" lon="-5.784497">
        <ele>877.336</ele>
        <time>2013-06-26T04:57:37Z</time>
      </trkpt>
      <trkpt lat="42.508224" lon="-5.784629">
        <ele>876.917</ele>
        <time>2013-06-26T04:57:47Z</time>
      </trkpt>
      <trkpt lat="42.508163" lon="-5.784737">
        <ele>876.918</ele>
        <time>2013-06-26T04:57:55Z</time>
      </trkpt>
      <trkpt lat="42.508082" lon="-5.784894">
        <ele>876.907</ele>
        <time>2013-06-26T04:58:06Z</time>
      </trkpt>
      <trkpt lat="42.507994" lon="-5.785046">
        <ele>877.387</ele>
        <time>2013-06-26T04:58:17Z</time>
      </trkpt>
      <trkpt lat="42.507899" lon="-5.785230">
        <ele>876.920</ele>
        <time>2013-06-26T04:58:30Z</time>
      </trkpt>
      <trkpt lat="42.507815" lon="-5.785375">
        <ele>876.959</ele>
        <time>2013-06-26T04:58:41Z</time>
      </trkpt>
      <trkpt lat="42.507715" lon="-5.785553">
        <ele>876.974</ele>
        <time>2013-06-26T04:58:54Z</time>
      </trkpt>
      <trkpt lat="42.507643" lon="-5.785695">
        <ele>876.420</ele>
        <time>2013-06-26T04:59:04Z</time>
      </trkpt>
      <trkpt lat="42.507552" lon="-5.785855">
        <ele>876.988</ele>
        <time>2013-06-26T04:59:16Z</time>
      </trkpt>
      <trkpt lat="42.507468" lon="-5.786007">
        <ele>876.494</ele>
        <time>2013-06-26T04:59:27Z</time>
      </trkpt>
      <trkpt lat="42.507402" lon="-5.786138">
        <ele>876.499</ele>
        <time>2013-06-26T04:59:36Z</time>
      </trkpt>
      <trkpt lat="42.507296" lon="-5.786326">
        <ele>876.907</ele>
        <time>2013-06-26T04:59:50Z</time>
      </trkpt>
      <trkpt lat="42.507212" lon="-5.786494">
        <ele>877.327</ele>
        <time>2013-06-26T05:00:02Z</time>
      </trkpt>
      <trkpt lat="42.507123" lon="-5.786650">
        <ele>876.907</ele>
        <time>2013-06-26T05:00:13Z</time>
      </trkpt>
      <trkpt lat="42.507052" lon="-5.786778">
        <ele>876.923</ele>
        <time>2013-06-26T05:00:23Z</time>
      </trkpt>
      <trkpt lat="42.506968" lon="-5.786940">
        <ele>877.386</ele>
        <time>2013-06-26T05:00:35Z</time>
      </trkpt>
      <trkpt lat="42.506882" lon="-5.787109">
        <ele>876.945</ele>
        <time>2013-06-26T05:00:47Z</time>
      </trkpt>
      <trkpt lat="42.506806" lon="-5.787247">
        <ele>876.960</ele>
        <time>2013-06-26T05:00:57Z</time>
      </trkpt>
      <trkpt lat="42.506721" lon="-5.787391">
        <ele>876.936</ele>
        <time>2013-06-26T05:01:08Z</time>
      </trkpt>
      <trkpt lat="42.506641" lon="-5.787549">
        <ele>875.924</ele>
        <time>2013-06-26T05:01:20Z</time>
      </trkpt>
      <trkpt lat="42.506555" lon="-5.787721">
        <ele>876.930</ele>
        <time>2013-06-26T05:01:32Z</time>
      </trkpt>
      <trkpt lat="42.506498" lon="-5.787828">
        <ele>876.951</ele>
        <time>2013-06-26T05:01:42Z</time>
      </trkpt>
      <trkpt lat="42.506494" lon="-5.787798">
        <ele>876.401</ele>
        <time>2013-06-26T05:01:48Z</time>
      </trkpt>
      <trkpt lat="42.506485" lon="-5.787856">
        <ele>875.911</ele>
        <time>2013-06-26T05:01:54Z</time>
      </trkpt>
      <trkpt lat="42.506386" lon="-5.788032">
        <ele>875.907</ele>
        <time>2013-06-26T05:02:05Z</time>
      </trkpt>
      <trkpt lat="42.506273" lon="-5.788204">
        <ele>875.919</ele>
        <time>2013-06-26T05:02:16Z</time>
      </trkpt>
      <trkpt lat="42.506138" lon="-5.788442">
        <ele>875.962</ele>
        <time>2013-06-26T05:02:30Z</time>
      </trkpt>
      <trkpt lat="42.506039" lon="-5.788630">
        <ele>875.961</ele>
        <time>2013-06-26T05:02:41Z</time>
      </trkpt>
      <trkpt lat="42.505965" lon="-5.788763">
        <ele>875.966</ele>
        <time>2013-06-26T05:02:50Z</time>
      </trkpt>
      <trkpt lat="42.505872" lon="-5.788961">
        <ele>875.952</ele>
        <time>2013-06-26T05:03:03Z</time>
      </trkpt>
      <trkpt lat="42.505781" lon="-5.789130">
        <ele>875.940</ele>
        <time>2013-06-26T05:03:15Z</time>
      </trkpt>
      <trkpt lat="42.505694" lon="-5.789284">
        <ele>875.916</ele>
        <time>2013-06-26T05:03:26Z</time>
      </trkpt>
      <trkpt lat="42.505625" lon="-5.789409">
        <ele>875.989</ele>
        <time>2013-06-26T05:03:35Z</time>
      </trkpt>
      <trkpt lat="42.505556" lon="-5.789550">
        <ele>875.906</ele>
        <time>2013-06-26T05:03:45Z</time>
      </trkpt>
      <trkpt lat="42.505488" lon="-5.789689">
        <ele>875.426</ele>
        <time>2013-06-26T05:03:55Z</time>
      </trkpt>
      <trkpt lat="42.505407" lon="-5.789833">
        <ele>875.407</ele>
        <time>2013-06-26T05:04:06Z</time>
      </trkpt>
      <trkpt lat="42.505348" lon="-5.789938">
        <ele>875.442</ele>
        <time>2013-06-26T05:04:15Z</time>
      </trkpt>
      <trkpt lat="42.505272" lon="-5.790080">
        <ele>875.915</ele>
        <time>2013-06-26T05:04:25Z</time>
      </trkpt>
      <trkpt lat="42.505211" lon="-5.790187">
        <ele>875.924</ele>
        <time>2013-06-26T05:04:33Z</time>
      </trkpt>
      <trkpt lat="42.505107" lon="-5.790372">
        <ele>875.949</ele>
        <time>2013-06-26T05:04:46Z</time>
      </trkpt>
      <trkpt lat="42.505049" lon="-5.790511">
        <ele>875.965</ele>
        <time>2013-06-26T05:04:55Z</time>
      </trkpt>
      <trkpt lat="42.504972" lon="-5.790653">
        <ele>874.993</ele>
        <time>2013-06-26T05:05:06Z</time>
      </trkpt>
      <trkpt lat="42.504901" lon="-5.790788">
        <ele>875.469</ele>
        <time>2013-06-26T05:05:16Z</time>
      </trkpt>
      <trkpt lat="42.504817" lon="-5.790927">
        <ele>875.415</ele>
        <time>2013-06-26T05:05:27Z</time>
      </trkpt>
      <trkpt lat="42.504740" lon="-5.791070">
        <ele>875.465</ele>
        <time>2013-06-26T05:05:36Z</time>
      </trkpt>
      <trkpt lat="42.504657" lon="-5.791243">
        <ele>875.411</ele>
        <time>2013-06-26T05:05:47Z</time>
      </trkpt>
      <trkpt lat="42.504573" lon="-5.791420">
        <ele>875.407</ele>
        <time>2013-06-26T05:05:58Z</time>
      </trkpt>
      <trkpt lat="42.504478" lon="-5.791562">
        <ele>875.495</ele>
        <time>2013-06-26T05:06:08Z</time>
      </trkpt>
      <trkpt lat="42.504407" lon="-5.791702">
        <ele>875.478</ele>
        <time>2013-06-26T05:06:18Z</time>
      </trkpt>
      <trkpt lat="42.504323" lon="-5.791855">
        <ele>875.937</ele>
        <time>2013-06-26T05:06:29Z</time>
      </trkpt>
      <trkpt lat="42.504248" lon="-5.791980">
        <ele>875.482</ele>
        <time>2013-06-26T05:06:38Z</time>
      </trkpt>
      <trkpt lat="42.504184" lon="-5.792103">
        <ele>875.428</ele>
        <time>2013-06-26T05:06:47Z</time>
      </trkpt>
      <trkpt lat="42.504089" lon="-5.792287">
        <ele>875.416</ele>
        <time>2013-06-26T05:07:00Z</time>
      </trkpt>
      <trkpt lat="42.504003" lon="-5.792440">
        <ele>875.422</ele>
        <time>2013-06-26T05:07:11Z</time>
      </trkpt>
      <trkpt lat="42.503923" lon="-5.792587">
        <ele>875.498</ele>
        <time>2013-06-26T05:07:22Z</time>
      </trkpt>
      <trkpt lat="42.503861" lon="-5.792714">
        <ele>875.415</ele>
        <time>2013-06-26T05:07:31Z</time>
      </trkpt>
      <trkpt lat="42.503789" lon="-5.792836">
        <ele>874.926</ele>
        <time>2013-06-26T05:07:40Z</time>
      </trkpt>
      <trkpt lat="42.503689" lon="-5.793022">
        <ele>874.907</ele>
        <time>2013-06-26T05:07:53Z</time>
      </trkpt>
      <trkpt lat="42.503600" lon="-5.793193">
        <ele>875.473</ele>
        <time>2013-06-26T05:08:05Z</time>
      </trkpt>
      <trkpt lat="42.503503" lon="-5.793373">
        <ele>874.946</ele>
        <time>2013-06-26T05:08:18Z</time>
      </trkpt>
      <trkpt lat="42.503420" lon="-5.793524">
        <ele>874.935</ele>
        <time>2013-06-26T05:08:29Z</time>
      </trkpt>
      <trkpt lat="42.503332" lon="-5.793674">
        <ele>874.960</ele>
        <time>2013-06-26T05:08:40Z</time>
      </trkpt>
      <trkpt lat="42.503253" lon="-5.793829">
        <ele>874.986</ele>
        <time>2013-06-26T05:08:51Z</time>
      </trkpt>
      <trkpt lat="42.503173" lon="-5.793977">
        <ele>875.454</ele>
        <time>2013-06-26T05:09:02Z</time>
      </trkpt>
      <trkpt lat="42.503091" lon="-5.794126">
        <ele>875.480</ele>
        <time>2013-06-26T05:09:13Z</time>
      </trkpt>
      <trkpt lat="42.503000" lon="-5.794297">
        <ele>875.466</ele>
        <time>2013-06-26T05:09:25Z</time>
      </trkpt>
      <trkpt lat="42.502907" lon="-5.794478">
        <ele>875.429</ele>
        <time>2013-06-26T05:09:38Z</time>
      </trkpt>
      <trkpt lat="42.502839" lon="-5.794619">
        <ele>874.921</ele>
        <time>2013-06-26T05:09:47Z</time>
      </trkpt>
      <trkpt lat="42.502776" lon="-5.794738">
        <ele>874.507</ele>
        <time>2013-06-26T05:09:55Z</time>
      </trkpt>
      <trkpt lat="42.502689" lon="-5.794896">
        <ele>874.520</ele>
        <time>2013-06-26T05:10:07Z</time>
      </trkpt>
      <trkpt lat="42.502596" lon="-5.795054">
        <ele>874.553</ele>
        <time>2013-06-26T05:10:19Z</time>
      </trkpt>
      <trkpt lat="42.502498" lon="-5.795239">
        <ele>874.552</ele>
        <time>2013-06-26T05:10:32Z</time>
      </trkpt>
      <trkpt lat="42.502407" lon="-5.795398">
        <ele>874.977</ele>
        <time>2013-06-26T05:10:44Z</time>
      </trkpt>
      <trkpt lat="42.502313" lon="-5.795563">
        <ele>874.513</ele>
        <time>2013-06-26T05:10:56Z</time>
      </trkpt>
      <trkpt lat="42.502223" lon="-5.795732">
        <ele>874.571</ele>
        <time>2013-06-26T05:11:08Z</time>
      </trkpt>
      <trkpt lat="42.502140" lon="-5.795888">
        <ele>874.547</ele>
        <time>2013-06-26T05:11:19Z</time>
      </trkpt>
      <trkpt lat="42.502061" lon="-5.796036">
        <ele>874.967</ele>
        <time>2013-06-26T05:11:30Z</time>
      </trkpt>
      <trkpt lat="42.501969" lon="-5.796211">
        <ele>874.581</ele>
        <time>2013-06-26T05:11:42Z</time>
      </trkpt>
      <trkpt lat="42.501884" lon="-5.796360">
        <ele>874.519</ele>
        <time>2013-06-26T05:11:53Z</time>
      </trkpt>
      <trkpt lat="42.501811" lon="-5.796501">
        <ele>874.507</ele>
        <time>2013-06-26T05:12:03Z</time>
      </trkpt>
      <trkpt lat="42.501724" lon="-5.796674">
        <ele>874.910</ele>
        <time>2013-06-26T05:12:15Z</time>
      </trkpt>
      <trkpt lat="42.501646" lon="-5.796827">
        <ele>874.913</ele>
        <time>2013-06-26T05:12:26Z</time>
      </trkpt>
      <trkpt lat="42.501562" lon="-5.796979">
        <ele>874.562</ele>
        <time>2013-06-26T05:12:37Z</time>
      </trkpt>
      <trkpt lat="42.501486" lon="-5.797116">
        <ele>874.997</ele>
        <time>2013-06-26T05:12:47Z</time>
      </trkpt>
      <trkpt lat="42.501407" lon="-5.797266">
        <ele>874.533</ele>
        <time>2013-06-26T05:12:58Z</time>
      </trkpt>
      <trkpt lat="42.501344" lon="-5.797379">
        <ele>874.581</ele>
        <time>2013-06-26T05:13:07Z</time>
      </trkpt>
      <trkpt lat="42.501260" lon="-5.797537">
        <ele>874.537</ele>
        <time>2013-06-26T05:13:18Z</time>
      </trkpt>
      <trkpt lat="42.501169" lon="-5.797710">
        <ele>874.015</ele>
        <time>2013-06-26T05:13:30Z</time>
      </trkpt>
      <trkpt lat="42.501093" lon="-5.797855">
        <ele>874.065</ele>
        <time>2013-06-26T05:13:40Z</time>
      </trkpt>
      <trkpt lat="42.501000" lon="-5.798027">
        <ele>874.511</ele>
        <time>2013-06-26T05:13:52Z</time>
      </trkpt>
      <trkpt lat="42.500897" lon="-5.798202">
        <ele>873.507</ele>
        <time>2013-06-26T05:14:05Z</time>
      </trkpt>
      <trkpt lat="42.500803" lon="-5.798388">
        <ele>874.545</ele>
        <time>2013-06-26T05:14:18Z</time>
      </trkpt>
      <trkpt lat="42.500783" lon="-5.798415">
        <ele>874.558</ele>
        <time>2013-06-26T05:14:25Z</time>
      </trkpt>
      <trkpt lat="42.500784" lon="-5.798427">
        <ele>874.097</ele>
        <time>2013-06-26T05:14:29Z</time>
      </trkpt>
      <trkpt lat="42.500729" lon="-5.798505">
        <ele>874.532</ele>
        <time>2013-06-26T05:14:35Z</time>
      </trkpt>
      <trkpt lat="42.500649" lon="-5.798673">
        <ele>874.538</ele>
        <time>2013-06-26T05:14:45Z</time>
      </trkpt>
      <trkpt lat="42.500547" lon="-5.798842">
        <ele>874.576</ele>
        <time>2013-06-26T05:14:57Z</time>
      </trkpt>
      <trkpt lat="42.500464" lon="-5.798990">
        <ele>874.562</ele>
        <time>2013-06-26T05:15:07Z</time>
      </trkpt>
      <trkpt lat="42.500407" lon="-5.799086">
        <ele>874.551</ele>
        <time>2013-06-26T05:15:14Z</time>
      </trkpt>
      <trkpt lat="42.500323" lon="-5.799271">
        <ele>874.001</ele>
        <time>2013-06-26T05:15:25Z</time>
      </trkpt>
      <trkpt lat="42.500258" lon="-5.799405">
        <ele>874.011</ele>
        <time>2013-06-26T05:15:34Z</time>
      </trkpt>
      <trkpt lat="42.500149" lon="-5.799583">
        <ele>874.507</ele>
        <time>2013-06-26T05:15:47Z</time>
      </trkpt>
      <trkpt lat="42.500067" lon="-5.799765">
        <ele>873.589</ele>
        <time>2013-06-26T05:15:58Z</time>
      </trkpt>
      <trkpt lat="42.500010" lon="-5.799862">
        <ele>874.062</ele>
        <time>2013-06-26T05:16:04Z</time>
      </trkpt>
      <trkpt lat="42.499977" lon="-5.799915">
        <ele>873.531</ele>
        <time>2013-06-26T05:16:10Z</time>
      </trkpt>
      <trkpt lat="42.499898" lon="-5.800081">
        <ele>873.566</ele>
        <time>2013-06-26T05:16:19Z</time>
      </trkpt>
      <trkpt lat="42.499831" lon="-5.800186">
        <ele>873.572</ele>
        <time>2013-06-26T05:16:28Z</time>
      </trkpt>
      <trkpt lat="42.499771" lon="-5.800328">
        <ele>873.510</ele>
        <time>2013-06-26T05:16:36Z</time>
      </trkpt>
      <trkpt lat="42.499721" lon="-5.800416">
        <ele>873.016</ele>
        <time>2013-06-26T05:16:44Z</time>
      </trkpt>
      <trkpt lat="42.499656" lon="-5.800552">
        <ele>873.056</ele>
        <time>2013-06-26T05:16:52Z</time>
      </trkpt>
      <trkpt lat="42.499600" lon="-5.800640">
        <ele>873.559</ele>
        <time>2013-06-26T05:17:00Z</time>
      </trkpt>
      <trkpt lat="42.499534" lon="-5.800766">
        <ele>873.014</ele>
        <time>2013-06-26T05:17:08Z</time>
      </trkpt>
      <trkpt lat="42.499468" lon="-5.800896">
        <ele>873.007</ele>
        <time>2013-06-26T05:17:17Z</time>
      </trkpt>
      <trkpt lat="42.499416" lon="-5.800991">
        <ele>873.519</ele>
        <time>2013-06-26T05:17:25Z</time>
      </trkpt>
      <trkpt lat="42.499348" lon="-5.801128">
        <ele>873.022</ele>
        <time>2013-06-26T05:17:34Z</time>
      </trkpt>
      <trkpt lat="42.499338" lon="-5.801145">
        <ele>873.011</ele>
        <time>2013-06-26T05:17:36Z</time>
      </trkpt>
      <trkpt lat="42.499283" lon="-5.801259">
        <ele>873.046</ele>
        <time>2013-06-26T05:17:43Z</time>
      </trkpt>
      <trkpt lat="42.499228" lon="-5.801319">
        <ele>872.572</ele>
        <time>2013-06-26T05:17:50Z</time>
      </trkpt>
      <trkpt lat="42.499172" lon="-5.801446">
        <ele>873.090</ele>
        <time>2013-06-26T05:17:57Z</time>
      </trkpt>
      <trkpt lat="42.499088" lon="-5.801546">
        <ele>873.096</ele>
        <time>2013-06-26T05:18:07Z</time>
      </trkpt>
      <trkpt lat="42.499026" lon="-5.801698">
        <ele>873.065</ele>
        <time>2013-06-26T05:18:15Z</time>
      </trkpt>
      <trkpt lat="42.498968" lon="-5.801814">
        <ele>873.068</ele>
        <time>2013-06-26T05:18:24Z</time>
      </trkpt>
      <trkpt lat="42.498897" lon="-5.801953">
        <ele>873.014</ele>
        <time>2013-06-26T05:18:34Z</time>
      </trkpt>
      <trkpt lat="42.498821" lon="-5.802098">
        <ele>873.007</ele>
        <time>2013-06-26T05:18:43Z</time>
      </trkpt>
      <trkpt lat="42.498756" lon="-5.802219">
        <ele>873.050</ele>
        <time>2013-06-26T05:18:53Z</time>
      </trkpt>
      <trkpt lat="42.498679" lon="-5.802376">
        <ele>873.063</ele>
        <time>2013-06-26T05:19:04Z</time>
      </trkpt>
      <trkpt lat="42.498602" lon="-5.802527">
        <ele>873.032</ele>
        <time>2013-06-26T05:19:14Z</time>
      </trkpt>
      <trkpt lat="42.498508" lon="-5.802678">
        <ele>873.047</ele>
        <time>2013-06-26T05:19:24Z</time>
      </trkpt>
      <trkpt lat="42.498451" lon="-5.802784">
        <ele>873.053</ele>
        <time>2013-06-26T05:19:33Z</time>
      </trkpt>
      <trkpt lat="42.498378" lon="-5.802918">
        <ele>873.031</ele>
        <time>2013-06-26T05:19:44Z</time>
      </trkpt>
      <trkpt lat="42.498299" lon="-5.803048">
        <ele>873.017</ele>
        <time>2013-06-26T05:19:54Z</time>
      </trkpt>
      <trkpt lat="42.498229" lon="-5.803175">
        <ele>873.031</ele>
        <time>2013-06-26T05:20:04Z</time>
      </trkpt>
      <trkpt lat="42.498161" lon="-5.803301">
        <ele>873.561</ele>
        <time>2013-06-26T05:20:14Z</time>
      </trkpt>
      <trkpt lat="42.498110" lon="-5.803380">
        <ele>873.007</ele>
        <time>2013-06-26T05:20:21Z</time>
      </trkpt>
      <trkpt lat="42.498065" lon="-5.803446">
        <ele>873.507</ele>
        <time>2013-06-26T05:20:30Z</time>
      </trkpt>
      <trkpt lat="42.497987" lon="-5.803568">
        <ele>873.597</ele>
        <time>2013-06-26T05:20:39Z</time>
      </trkpt>
      <trkpt lat="42.497880" lon="-5.803764">
        <ele>870.690</ele>
        <time>2013-06-26T05:20:50Z</time>
      </trkpt>
      <trkpt lat="42.497871" lon="-5.803782">
        <ele>876.469</ele>
        <time>2013-06-26T05:20:51Z</time>
      </trkpt>
      <trkpt lat="42.497846" lon="-5.803826">
        <ele>873.544</ele>
        <time>2013-06-26T05:20:54Z</time>
      </trkpt>
      <trkpt lat="42.497822" lon="-5.803867">
        <ele>869.250</ele>
        <time>2013-06-26T05:20:57Z</time>
      </trkpt>
      <trkpt lat="42.497812" lon="-5.803882">
        <ele>869.268</ele>
        <time>2013-06-26T05:20:58Z</time>
      </trkpt>
      <trkpt lat="42.497805" lon="-5.803899">
        <ele>877.344</ele>
        <time>2013-06-26T05:20:59Z</time>
      </trkpt>
      <trkpt lat="42.497798" lon="-5.803914">
        <ele>873.075</ele>
        <time>2013-06-26T05:21:00Z</time>
      </trkpt>
      <trkpt lat="42.497715" lon="-5.804066">
        <ele>873.528</ele>
        <time>2013-06-26T05:21:11Z</time>
      </trkpt>
      <trkpt lat="42.497629" lon="-5.804203">
        <ele>873.020</ele>
        <time>2013-06-26T05:21:22Z</time>
      </trkpt>
      <trkpt lat="42.497587" lon="-5.804289">
        <ele>874.007</ele>
        <time>2013-06-26T05:21:28Z</time>
      </trkpt>
      <trkpt lat="42.497511" lon="-5.804419">
        <ele>874.511</ele>
        <time>2013-06-26T05:21:38Z</time>
      </trkpt>
      <trkpt lat="42.497446" lon="-5.804531">
        <ele>873.024</ele>
        <time>2013-06-26T05:21:46Z</time>
      </trkpt>
      <trkpt lat="42.497365" lon="-5.804704">
        <ele>874.083</ele>
        <time>2013-06-26T05:21:57Z</time>
      </trkpt>
      <trkpt lat="42.497302" lon="-5.804810">
        <ele>873.078</ele>
        <time>2013-06-26T05:22:05Z</time>
      </trkpt>
      <trkpt lat="42.497235" lon="-5.804918">
        <ele>873.554</ele>
        <time>2013-06-26T05:22:14Z</time>
      </trkpt>
      <trkpt lat="42.497174" lon="-5.805039">
        <ele>873.552</ele>
        <time>2013-06-26T05:22:23Z</time>
      </trkpt>
      <trkpt lat="42.497097" lon="-5.805166">
        <ele>873.538</ele>
        <time>2013-06-26T05:22:32Z</time>
      </trkpt>
      <trkpt lat="42.497017" lon="-5.805276">
        <ele>874.936</ele>
        <time>2013-06-26T05:22:41Z</time>
      </trkpt>
      <trkpt lat="42.496926" lon="-5.805410">
        <ele>874.517</ele>
        <time>2013-06-26T05:22:53Z</time>
      </trkpt>
      <trkpt lat="42.496879" lon="-5.805543">
        <ele>874.518</ele>
        <time>2013-06-26T05:23:03Z</time>
      </trkpt>
      <trkpt lat="42.496843" lon="-5.805605">
        <ele>874.507</ele>
        <time>2013-06-26T05:23:11Z</time>
      </trkpt>
      <trkpt lat="42.496729" lon="-5.805779">
        <ele>874.017</ele>
        <time>2013-06-26T05:23:24Z</time>
      </trkpt>
      <trkpt lat="42.496638" lon="-5.805933">
        <ele>874.530</ele>
        <time>2013-06-26T05:23:35Z</time>
      </trkpt>
      <trkpt lat="42.496551" lon="-5.806090">
        <ele>874.589</ele>
        <time>2013-06-26T05:23:46Z</time>
      </trkpt>
      <trkpt lat="42.496469" lon="-5.806225">
        <ele>874.534</ele>
        <time>2013-06-26T05:23:57Z</time>
      </trkpt>
      <trkpt lat="42.496425" lon="-5.806309">
        <ele>874.930</ele>
        <time>2013-06-26T05:24:04Z</time>
      </trkpt>
      <trkpt lat="42.496388" lon="-5.806401">
        <ele>874.538</ele>
        <time>2013-06-26T05:24:11Z</time>
      </trkpt>
      <trkpt lat="42.496315" lon="-5.806490">
        <ele>874.574</ele>
        <time>2013-06-26T05:24:19Z</time>
      </trkpt>
      <trkpt lat="42.496273" lon="-5.806539">
        <ele>874.996</ele>
        <time>2013-06-26T05:24:26Z</time>
      </trkpt>
      <trkpt lat="42.496258" lon="-5.806508">
        <ele>874.931</ele>
        <time>2013-06-26T05:24:37Z</time>
      </trkpt>
      <trkpt lat="42.496211" lon="-5.806480">
        <ele>874.524</ele>
        <time>2013-06-26T05:24:46Z</time>
      </trkpt>
      <trkpt lat="42.496211" lon="-5.806462">
        <ele>874.507</ele>
        <time>2013-06-26T05:24:57Z</time>
      </trkpt>
      <trkpt lat="42.496197" lon="-5.806473">
        <ele>874.593</ele>
        <time>2013-06-26T05:25:09Z</time>
      </trkpt>
      <trkpt lat="42.496196" lon="-5.806455">
        <ele>874.546</ele>
        <time>2013-06-26T05:25:23Z</time>
      </trkpt>
      <trkpt lat="42.496189" lon="-5.806477">
        <ele>874.515</ele>
        <time>2013-06-26T05:25:37Z</time>
      </trkpt>
      <trkpt lat="42.496165" lon="-5.806494">
        <ele>874.970</ele>
        <time>2013-06-26T05:25:49Z</time>
      </trkpt>
      <trkpt lat="42.496198" lon="-5.806459">
        <ele>874.536</ele>
        <time>2013-06-26T05:26:04Z</time>
      </trkpt>
      <trkpt lat="42.496189" lon="-5.806485">
        <ele>874.544</ele>
        <time>2013-06-26T05:26:26Z</time>
      </trkpt>
      <trkpt lat="42.496186" lon="-5.806481">
        <ele>874.550</ele>
        <time>2013-06-26T05:26:40Z</time>
      </trkpt>
      <trkpt lat="42.496188" lon="-5.806461">
        <ele>874.565</ele>
        <time>2013-06-26T05:26:55Z</time>
      </trkpt>
      <trkpt lat="42.496174" lon="-5.806454">
        <ele>874.568</ele>
        <time>2013-06-26T05:27:05Z</time>
      </trkpt>
      <trkpt lat="42.496162" lon="-5.806467">
        <ele>874.014</ele>
        <time>2013-06-26T05:27:21Z</time>
      </trkpt>
      <trkpt lat="42.496187" lon="-5.806445">
        <ele>874.507</ele>
        <time>2013-06-26T05:27:38Z</time>
      </trkpt>
      <trkpt lat="42.496204" lon="-5.806422">
        <ele>874.910</ele>
        <time>2013-06-26T05:27:53Z</time>
      </trkpt>
      <trkpt lat="42.496171" lon="-5.806469">
        <ele>874.953</ele>
        <time>2013-06-26T05:28:04Z</time>
      </trkpt>
      <trkpt lat="42.496151" lon="-5.806449">
        <ele>874.922</ele>
        <time>2013-06-26T05:28:14Z</time>
      </trkpt>
      <trkpt lat="42.496183" lon="-5.806412">
        <ele>874.957</ele>
        <time>2013-06-26T05:28:26Z</time>
      </trkpt>
      <trkpt lat="42.496157" lon="-5.806477">
        <ele>874.973</ele>
        <time>2013-06-26T05:28:46Z</time>
      </trkpt>
      <trkpt lat="42.496156" lon="-5.806464">
        <ele>874.571</ele>
        <time>2013-06-26T05:28:56Z</time>
      </trkpt>
      <trkpt lat="42.496173" lon="-5.806454">
        <ele>874.037</ele>
        <time>2013-06-26T05:29:16Z</time>
      </trkpt>
      <trkpt lat="42.496166" lon="-5.806440">
        <ele>874.974</ele>
        <time>2013-06-26T05:29:32Z</time>
      </trkpt>
      <trkpt lat="42.496163" lon="-5.806457">
        <ele>874.956</ele>
        <time>2013-06-26T05:29:50Z</time>
      </trkpt>
      <trkpt lat="42.496155" lon="-5.806452">
        <ele>874.921</ele>
        <time>2013-06-26T05:30:14Z</time>
      </trkpt>
      <trkpt lat="42.496150" lon="-5.806447">
        <ele>874.907</ele>
        <time>2013-06-26T05:30:36Z</time>
      </trkpt>
      <trkpt lat="42.496149" lon="-5.806427">
        <ele>874.971</ele>
        <time>2013-06-26T05:31:00Z</time>
      </trkpt>
      <trkpt lat="42.496149" lon="-5.806427">
        <ele>874.944</ele>
        <time>2013-06-26T05:31:26Z</time>
      </trkpt>
      <trkpt lat="42.496147" lon="-5.806422">
        <ele>874.973</ele>
        <time>2013-06-26T05:31:51Z</time>
      </trkpt>
      <trkpt lat="42.496160" lon="-5.806432">
        <ele>874.988</ele>
        <time>2013-06-26T05:32:18Z</time>
      </trkpt>
      <trkpt lat="42.496163" lon="-5.806461">
        <ele>874.964</ele>
        <time>2013-06-26T05:32:44Z</time>
      </trkpt>
      <trkpt lat="42.496167" lon="-5.806467">
        <ele>874.932</ele>
        <time>2013-06-26T05:33:02Z</time>
      </trkpt>
      <trkpt lat="42.496171" lon="-5.806454">
        <ele>875.488</ele>
        <time>2013-06-26T05:33:24Z</time>
      </trkpt>
      <trkpt lat="42.496175" lon="-5.806463">
        <ele>875.439</ele>
        <time>2013-06-26T05:33:48Z</time>
      </trkpt>
      <trkpt lat="42.496162" lon="-5.806458">
        <ele>874.901</ele>
        <time>2013-06-26T05:34:07Z</time>
      </trkpt>
      <trkpt lat="42.496146" lon="-5.806436">
        <ele>875.421</ele>
        <time>2013-06-26T05:34:28Z</time>
      </trkpt>
      <trkpt lat="42.496122" lon="-5.806439">
        <ele>875.407</ele>
        <time>2013-06-26T05:34:52Z</time>
      </trkpt>
      <trkpt lat="42.496125" lon="-5.806426">
        <ele>875.477</ele>
        <time>2013-06-26T05:35:11Z</time>
      </trkpt>
      <trkpt lat="42.496126" lon="-5.806429">
        <ele>875.470</ele>
        <time>2013-06-26T05:35:29Z</time>
      </trkpt>
      <trkpt lat="42.496129" lon="-5.806444">
        <ele>875.499</ele>
        <time>2013-06-26T05:35:50Z</time>
      </trkpt>
      <trkpt lat="42.496155" lon="-5.806456">
        <ele>875.944</ele>
        <time>2013-06-26T05:36:09Z</time>
      </trkpt>
      <trkpt lat="42.496164" lon="-5.806460">
        <ele>875.960</ele>
        <time>2013-06-26T05:36:32Z</time>
      </trkpt>
      <trkpt lat="42.496162" lon="-5.806472">
        <ele>874.928</ele>
        <time>2013-06-26T05:36:56Z</time>
      </trkpt>
      <trkpt lat="42.496153" lon="-5.806477">
        <ele>875.494</ele>
        <time>2013-06-26T05:37:14Z</time>
      </trkpt>
      <trkpt lat="42.496171" lon="-5.806441">
        <ele>874.927</ele>
        <time>2013-06-26T05:37:32Z</time>
      </trkpt>
      <trkpt lat="42.496167" lon="-5.806438">
        <ele>874.968</ele>
        <time>2013-06-26T05:37:51Z</time>
      </trkpt>
      <trkpt lat="42.496160" lon="-5.806439">
        <ele>875.414</ele>
        <time>2013-06-26T05:38:11Z</time>
      </trkpt>
      <trkpt lat="42.496144" lon="-5.806444">
        <ele>875.407</ele>
        <time>2013-06-26T05:38:31Z</time>
      </trkpt>
      <trkpt lat="42.496132" lon="-5.806470">
        <ele>875.456</ele>
        <time>2013-06-26T05:38:55Z</time>
      </trkpt>
      <trkpt lat="42.496129" lon="-5.806491">
        <ele>875.439</ele>
        <time>2013-06-26T05:39:17Z</time>
      </trkpt>
      <trkpt lat="42.496138" lon="-5.806476">
        <ele>875.478</ele>
        <time>2013-06-26T05:39:42Z</time>
      </trkpt>
      <trkpt lat="42.496141" lon="-5.806468">
        <ele>875.453</ele>
        <time>2013-06-26T05:40:03Z</time>
      </trkpt>
      <trkpt lat="42.496138" lon="-5.806480">
        <ele>875.989</ele>
        <time>2013-06-26T05:40:27Z</time>
      </trkpt>
      <trkpt lat="42.496147" lon="-5.806478">
        <ele>875.927</ele>
        <time>2013-06-26T05:40:44Z</time>
      </trkpt>
      <trkpt lat="42.496151" lon="-5.806470">
        <ele>875.953</ele>
        <time>2013-06-26T05:41:03Z</time>
      </trkpt>
      <trkpt lat="42.496147" lon="-5.806494">
        <ele>875.467</ele>
        <time>2013-06-26T05:41:17Z</time>
      </trkpt>
      <trkpt lat="42.496137" lon="-5.806493">
        <ele>875.981</ele>
        <time>2013-06-26T05:41:36Z</time>
      </trkpt>
      <trkpt lat="42.496149" lon="-5.806472">
        <ele>875.919</ele>
        <time>2013-06-26T05:41:55Z</time>
      </trkpt>
      <trkpt lat="42.496155" lon="-5.806451">
        <ele>875.907</ele>
        <time>2013-06-26T05:42:18Z</time>
      </trkpt>
      <trkpt lat="42.496154" lon="-5.806405">
        <ele>875.960</ele>
        <time>2013-06-26T05:42:39Z</time>
      </trkpt>
      <trkpt lat="42.496174" lon="-5.806401">
        <ele>875.953</ele>
        <time>2013-06-26T05:42:54Z</time>
      </trkpt>
      <trkpt lat="42.496195" lon="-5.806365">
        <ele>875.952</ele>
        <time>2013-06-26T05:43:17Z</time>
      </trkpt>
      <trkpt lat="42.496186" lon="-5.806389">
        <ele>876.437</ele>
        <time>2013-06-26T05:43:42Z</time>
      </trkpt>
      <trkpt lat="42.496171" lon="-5.806409">
        <ele>876.423</ele>
        <time>2013-06-26T05:43:54Z</time>
      </trkpt>
      <trkpt lat="42.496149" lon="-5.806444">
        <ele>876.481</ele>
        <time>2013-06-26T05:44:07Z</time>
      </trkpt>
      <trkpt lat="42.496147" lon="-5.806437">
        <ele>875.997</ele>
        <time>2013-06-26T05:44:26Z</time>
      </trkpt>
      <trkpt lat="42.496149" lon="-5.806431">
        <ele>876.476</ele>
        <time>2013-06-26T05:44:47Z</time>
      </trkpt>
      <trkpt lat="42.496149" lon="-5.806433">
        <ele>876.490</ele>
        <time>2013-06-26T05:45:11Z</time>
      </trkpt>
      <trkpt lat="42.496141" lon="-5.806438">
        <ele>876.419</ele>
        <time>2013-06-26T05:45:28Z</time>
      </trkpt>
      <trkpt lat="42.496137" lon="-5.806442">
        <ele>877.307</ele>
        <time>2013-06-26T05:45:46Z</time>
      </trkpt>
      <trkpt lat="42.496140" lon="-5.806465">
        <ele>876.991</ele>
        <time>2013-06-26T05:45:57Z</time>
      </trkpt>
      <trkpt lat="42.496139" lon="-5.806463">
        <ele>874.544</ele>
        <time>2013-06-26T05:45:59Z</time>
      </trkpt>
      <trkpt lat="42.496149" lon="-5.806479">
        <ele>877.313</ele>
        <time>2013-06-26T05:46:01Z</time>
      </trkpt>
      <trkpt lat="42.496195" lon="-5.806501">
        <ele>876.978</ele>
        <time>2013-06-26T05:46:06Z</time>
      </trkpt>
      <trkpt lat="42.496207" lon="-5.806511">
        <ele>876.924</ele>
        <time>2013-06-26T05:46:13Z</time>
      </trkpt>
      <trkpt lat="42.496204" lon="-5.806509">
        <ele>876.982</ele>
        <time>2013-06-26T05:46:28Z</time>
      </trkpt>
      <trkpt lat="42.496202" lon="-5.806514">
        <ele>876.918</ele>
        <time>2013-06-26T05:46:44Z</time>
      </trkpt>
      <trkpt lat="42.496197" lon="-5.806517">
        <ele>876.956</ele>
        <time>2013-06-26T05:47:02Z</time>
      </trkpt>
      <trkpt lat="42.496192" lon="-5.806523">
        <ele>876.959</ele>
        <time>2013-06-26T05:47:15Z</time>
      </trkpt>
      <trkpt lat="42.496195" lon="-5.806535">
        <ele>876.914</ele>
        <time>2013-06-26T05:47:35Z</time>
      </trkpt>
      <trkpt lat="42.496227" lon="-5.806556">
        <ele>876.907</ele>
        <time>2013-06-26T05:47:40Z</time>
      </trkpt>
      <trkpt lat="42.496206" lon="-5.806631">
        <ele>877.329</ele>
        <time>2013-06-26T05:47:50Z</time>
      </trkpt>
      <trkpt lat="42.496196" lon="-5.806639">
        <ele>877.372</ele>
        <time>2013-06-26T05:47:52Z</time>
      </trkpt>
      <trkpt lat="42.496121" lon="-5.806728">
        <ele>877.891</ele>
        <time>2013-06-26T05:48:02Z</time>
      </trkpt>
      <trkpt lat="42.496110" lon="-5.806746">
        <ele>877.366</ele>
        <time>2013-06-26T05:48:04Z</time>
      </trkpt>
      <trkpt lat="42.496069" lon="-5.806825">
        <ele>877.822</ele>
        <time>2013-06-26T05:48:13Z</time>
      </trkpt>
      <trkpt lat="42.496040" lon="-5.806882">
        <ele>877.310</ele>
        <time>2013-06-26T05:48:18Z</time>
      </trkpt>
      <trkpt lat="42.495991" lon="-5.806948">
        <ele>877.856</ele>
        <time>2013-06-26T05:48:25Z</time>
      </trkpt>
      <trkpt lat="42.495938" lon="-5.807031">
        <ele>877.846</ele>
        <time>2013-06-26T05:48:33Z</time>
      </trkpt>
      <trkpt lat="42.495856" lon="-5.807141">
        <ele>876.988</ele>
        <time>2013-06-26T05:48:44Z</time>
      </trkpt>
      <trkpt lat="42.495785" lon="-5.807262">
        <ele>877.316</ele>
        <time>2013-06-26T05:48:54Z</time>
      </trkpt>
      <trkpt lat="42.495723" lon="-5.807391">
        <ele>876.907</ele>
        <time>2013-06-26T05:49:04Z</time>
      </trkpt>
      <trkpt lat="42.495644" lon="-5.807510">
        <ele>876.988</ele>
        <time>2013-06-26T05:49:15Z</time>
      </trkpt>
      <trkpt lat="42.495566" lon="-5.807633">
        <ele>876.911</ele>
        <time>2013-06-26T05:49:27Z</time>
      </trkpt>
      <trkpt lat="42.495498" lon="-5.807738">
        <ele>876.950</ele>
        <time>2013-06-26T05:49:37Z</time>
      </trkpt>
      <trkpt lat="42.495437" lon="-5.807847">
        <ele>876.485</ele>
        <time>2013-06-26T05:49:46Z</time>
      </trkpt>
      <trkpt lat="42.495410" lon="-5.807887">
        <ele>876.481</ele>
        <time>2013-06-26T05:49:50Z</time>
      </trkpt>
      <trkpt lat="42.495388" lon="-5.807954">
        <ele>876.459</ele>
        <time>2013-06-26T05:49:57Z</time>
      </trkpt>
      <trkpt lat="42.495331" lon="-5.808049">
        <ele>876.935</ele>
        <time>2013-06-26T05:50:07Z</time>
      </trkpt>
      <trkpt lat="42.495265" lon="-5.808164">
        <ele>876.483</ele>
        <time>2013-06-26T05:50:16Z</time>
      </trkpt>
      <trkpt lat="42.495206" lon="-5.808249">
        <ele>876.425</ele>
        <time>2013-06-26T05:50:22Z</time>
      </trkpt>
      <trkpt lat="42.495158" lon="-5.808298">
        <ele>876.417</ele>
        <time>2013-06-26T05:50:27Z</time>
      </trkpt>
      <trkpt lat="42.495123" lon="-5.808349">
        <ele>875.907</ele>
        <time>2013-06-26T05:50:32Z</time>
      </trkpt>
      <trkpt lat="42.495091" lon="-5.808401">
        <ele>875.962</ele>
        <time>2013-06-26T05:50:37Z</time>
      </trkpt>
      <trkpt lat="42.495015" lon="-5.808544">
        <ele>876.425</ele>
        <time>2013-06-26T05:50:49Z</time>
      </trkpt>
      <trkpt lat="42.494945" lon="-5.808646">
        <ele>875.954</ele>
        <time>2013-06-26T05:50:58Z</time>
      </trkpt>
      <trkpt lat="42.494881" lon="-5.808752">
        <ele>875.939</ele>
        <time>2013-06-26T05:51:07Z</time>
      </trkpt>
      <trkpt lat="42.494860" lon="-5.808790">
        <ele>876.435</ele>
        <time>2013-06-26T05:51:10Z</time>
      </trkpt>
      <trkpt lat="42.494812" lon="-5.808888">
        <ele>875.923</ele>
        <time>2013-06-26T05:51:19Z</time>
      </trkpt>
      <trkpt lat="42.494731" lon="-5.809025">
        <ele>875.489</ele>
        <time>2013-06-26T05:51:31Z</time>
      </trkpt>
      <trkpt lat="42.494708" lon="-5.809062">
        <ele>874.982</ele>
        <time>2013-06-26T05:51:37Z</time>
      </trkpt>
      <trkpt lat="42.494710" lon="-5.809082">
        <ele>874.943</ele>
        <time>2013-06-26T05:51:39Z</time>
      </trkpt>
      <trkpt lat="42.494664" lon="-5.809211">
        <ele>875.417</ele>
        <time>2013-06-26T05:51:49Z</time>
      </trkpt>
      <trkpt lat="42.494605" lon="-5.809288">
        <ele>874.907</ele>
        <time>2013-06-26T05:51:59Z</time>
      </trkpt>
      <trkpt lat="42.494520" lon="-5.809420">
        <ele>874.982</ele>
        <time>2013-06-26T05:52:08Z</time>
      </trkpt>
      <trkpt lat="42.494417" lon="-5.809555">
        <ele>874.055</ele>
        <time>2013-06-26T05:52:19Z</time>
      </trkpt>
      <trkpt lat="42.494387" lon="-5.809584">
        <ele>874.044</ele>
        <time>2013-06-26T05:52:22Z</time>
      </trkpt>
      <trkpt lat="42.494314" lon="-5.809688">
        <ele>874.049</ele>
        <time>2013-06-26T05:52:31Z</time>
      </trkpt>
      <trkpt lat="42.494259" lon="-5.809773">
        <ele>873.535</ele>
        <time>2013-06-26T05:52:39Z</time>
      </trkpt>
      <trkpt lat="42.494237" lon="-5.809829">
        <ele>873.563</ele>
        <time>2013-06-26T05:52:43Z</time>
      </trkpt>
      <trkpt lat="42.494235" lon="-5.809881">
        <ele>873.519</ele>
        <time>2013-06-26T05:52:46Z</time>
      </trkpt>
      <trkpt lat="42.494156" lon="-5.810038">
        <ele>873.039</ele>
        <time>2013-06-26T05:52:57Z</time>
      </trkpt>
      <trkpt lat="42.494057" lon="-5.810186">
        <ele>872.501</ele>
        <time>2013-06-26T05:53:09Z</time>
      </trkpt>
      <trkpt lat="42.493997" lon="-5.810279">
        <ele>872.121</ele>
        <time>2013-06-26T05:53:17Z</time>
      </trkpt>
      <trkpt lat="42.493945" lon="-5.810428">
        <ele>871.607</ele>
        <time>2013-06-26T05:53:27Z</time>
      </trkpt>
      <trkpt lat="42.493891" lon="-5.810555">
        <ele>871.117</ele>
        <time>2013-06-26T05:53:36Z</time>
      </trkpt>
      <trkpt lat="42.493854" lon="-5.810679">
        <ele>870.680</ele>
        <time>2013-06-26T05:53:45Z</time>
      </trkpt>
      <trkpt lat="42.493831" lon="-5.810744">
        <ele>870.149</ele>
        <time>2013-06-26T05:53:49Z</time>
      </trkpt>
      <trkpt lat="42.493755" lon="-5.810858">
        <ele>869.794</ele>
        <time>2013-06-26T05:53:58Z</time>
      </trkpt>
      <trkpt lat="42.493681" lon="-5.810962">
        <ele>869.210</ele>
        <time>2013-06-26T05:54:07Z</time>
      </trkpt>
      <trkpt lat="42.493683" lon="-5.810999">
        <ele>869.738</ele>
        <time>2013-06-26T05:54:10Z</time>
      </trkpt>
      <trkpt lat="42.493627" lon="-5.811084">
        <ele>869.294</ele>
        <time>2013-06-26T05:54:17Z</time>
      </trkpt>
      <trkpt lat="42.493539" lon="-5.811228">
        <ele>868.231</ele>
        <time>2013-06-26T05:54:27Z</time>
      </trkpt>
      <trkpt lat="42.493507" lon="-5.811298">
        <ele>868.261</ele>
        <time>2013-06-26T05:54:32Z</time>
      </trkpt>
      <trkpt lat="42.493536" lon="-5.811413">
        <ele>868.207</ele>
        <time>2013-06-26T05:54:39Z</time>
      </trkpt>
      <trkpt lat="42.493479" lon="-5.811526">
        <ele>868.207</ele>
        <time>2013-06-26T05:54:49Z</time>
      </trkpt>
      <trkpt lat="42.493404" lon="-5.811676">
        <ele>867.767</ele>
        <time>2013-06-26T05:55:00Z</time>
      </trkpt>
      <trkpt lat="42.493366" lon="-5.811799">
        <ele>866.320</ele>
        <time>2013-06-26T05:55:08Z</time>
      </trkpt>
      <trkpt lat="42.493343" lon="-5.811869">
        <ele>866.349</ele>
        <time>2013-06-26T05:55:13Z</time>
      </trkpt>
      <trkpt lat="42.493284" lon="-5.811994">
        <ele>865.844</ele>
        <time>2013-06-26T05:55:23Z</time>
      </trkpt>
      <trkpt lat="42.493207" lon="-5.812132">
        <ele>865.360</ele>
        <time>2013-06-26T05:55:34Z</time>
      </trkpt>
      <trkpt lat="42.493132" lon="-5.812256">
        <ele>864.488</ele>
        <time>2013-06-26T05:55:44Z</time>
      </trkpt>
      <trkpt lat="42.493067" lon="-5.812356">
        <ele>863.954</ele>
        <time>2013-06-26T05:55:51Z</time>
      </trkpt>
      <trkpt lat="42.493014" lon="-5.812504">
        <ele>863.923</ele>
        <time>2013-06-26T05:56:00Z</time>
      </trkpt>
      <trkpt lat="42.492950" lon="-5.812660">
        <ele>863.483</ele>
        <time>2013-06-26T05:56:10Z</time>
      </trkpt>
      <trkpt lat="42.492855" lon="-5.812849">
        <ele>862.411</ele>
        <time>2013-06-26T05:56:23Z</time>
      </trkpt>
      <trkpt lat="42.492788" lon="-5.812989">
        <ele>862.007</ele>
        <time>2013-06-26T05:56:33Z</time>
      </trkpt>
      <trkpt lat="42.492686" lon="-5.813201">
        <ele>861.056</ele>
        <time>2013-06-26T05:56:47Z</time>
      </trkpt>
      <trkpt lat="42.492627" lon="-5.813366">
        <ele>860.019</ele>
        <time>2013-06-26T05:56:59Z</time>
      </trkpt>
      <trkpt lat="42.492682" lon="-5.813495">
        <ele>860.018</ele>
        <time>2013-06-26T05:57:08Z</time>
      </trkpt>
      <trkpt lat="42.492771" lon="-5.813632">
        <ele>860.073</ele>
        <time>2013-06-26T05:57:19Z</time>
      </trkpt>
      <trkpt lat="42.492810" lon="-5.813803">
        <ele>859.629</ele>
        <time>2013-06-26T05:57:30Z</time>
      </trkpt>
      <trkpt lat="42.492734" lon="-5.813974">
        <ele>859.137</ele>
        <time>2013-06-26T05:57:42Z</time>
      </trkpt>
      <trkpt lat="42.492650" lon="-5.814157">
        <ele>858.173</ele>
        <time>2013-06-26T05:57:55Z</time>
      </trkpt>
      <trkpt lat="42.492567" lon="-5.814306">
        <ele>857.659</ele>
        <time>2013-06-26T05:58:06Z</time>
      </trkpt>
      <trkpt lat="42.492494" lon="-5.814409">
        <ele>857.203</ele>
        <time>2013-06-26T05:58:16Z</time>
      </trkpt>
      <trkpt lat="42.492461" lon="-5.814492">
        <ele>857.223</ele>
        <time>2013-06-26T05:58:24Z</time>
      </trkpt>
      <trkpt lat="42.492398" lon="-5.814612">
        <ele>857.207</ele>
        <time>2013-06-26T05:58:31Z</time>
      </trkpt>
      <trkpt lat="42.492366" lon="-5.814697">
        <ele>857.689</ele>
        <time>2013-06-26T05:58:38Z</time>
      </trkpt>
      <trkpt lat="42.492325" lon="-5.814784">
        <ele>857.292</ele>
        <time>2013-06-26T05:58:45Z</time>
      </trkpt>
      <trkpt lat="42.492267" lon="-5.814890">
        <ele>856.791</ele>
        <time>2013-06-26T05:58:53Z</time>
      </trkpt>
      <trkpt lat="42.492203" lon="-5.815026">
        <ele>856.296</ele>
        <time>2013-06-26T05:59:03Z</time>
      </trkpt>
      <trkpt lat="42.492191" lon="-5.815056">
        <ele>856.762</ele>
        <time>2013-06-26T05:59:11Z</time>
      </trkpt>
      <trkpt lat="42.492178" lon="-5.815086">
        <ele>856.750</ele>
        <time>2013-06-26T05:59:28Z</time>
      </trkpt>
      <trkpt lat="42.492127" lon="-5.815252">
        <ele>856.246</ele>
        <time>2013-06-26T05:59:36Z</time>
      </trkpt>
      <trkpt lat="42.492061" lon="-5.815397">
        <ele>855.776</ele>
        <time>2013-06-26T05:59:44Z</time>
      </trkpt>
      <trkpt lat="42.491958" lon="-5.815529">
        <ele>855.790</ele>
        <time>2013-06-26T05:59:52Z</time>
      </trkpt>
      <trkpt lat="42.491884" lon="-5.815657">
        <ele>855.219</ele>
        <time>2013-06-26T06:00:00Z</time>
      </trkpt>
      <trkpt lat="42.491812" lon="-5.815748">
        <ele>855.707</ele>
        <time>2013-06-26T06:00:08Z</time>
      </trkpt>
      <trkpt lat="42.491682" lon="-5.815854">
        <ele>855.781</ele>
        <time>2013-06-26T06:00:19Z</time>
      </trkpt>
      <trkpt lat="42.491516" lon="-5.815976">
        <ele>855.224</ele>
        <time>2013-06-26T06:00:30Z</time>
      </trkpt>
      <trkpt lat="42.491349" lon="-5.816136">
        <ele>855.283</ele>
        <time>2013-06-26T06:00:42Z</time>
      </trkpt>
      <trkpt lat="42.491238" lon="-5.816323">
        <ele>855.288</ele>
        <time>2013-06-26T06:00:53Z</time>
      </trkpt>
      <trkpt lat="42.491135" lon="-5.816490">
        <ele>854.824</ele>
        <time>2013-06-26T06:01:04Z</time>
      </trkpt>
      <trkpt lat="42.491057" lon="-5.816679">
        <ele>854.892</ele>
        <time>2013-06-26T06:01:15Z</time>
      </trkpt>
      <trkpt lat="42.490977" lon="-5.816848">
        <ele>854.838</ele>
        <time>2013-06-26T06:01:26Z</time>
      </trkpt>
      <trkpt lat="42.490897" lon="-5.817000">
        <ele>854.341</ele>
        <time>2013-06-26T06:01:37Z</time>
      </trkpt>
      <trkpt lat="42.490820" lon="-5.817154">
        <ele>854.881</ele>
        <time>2013-06-26T06:01:48Z</time>
      </trkpt>
      <trkpt lat="42.490733" lon="-5.817307">
        <ele>854.809</ele>
        <time>2013-06-26T06:02:00Z</time>
      </trkpt>
      <trkpt lat="42.490648" lon="-5.817457">
        <ele>854.807</ele>
        <time>2013-06-26T06:02:11Z</time>
      </trkpt>
      <trkpt lat="42.490557" lon="-5.817644">
        <ele>854.838</ele>
        <time>2013-06-26T06:02:24Z</time>
      </trkpt>
      <trkpt lat="42.490451" lon="-5.817835">
        <ele>854.851</ele>
        <time>2013-06-26T06:02:37Z</time>
      </trkpt>
      <trkpt lat="42.490378" lon="-5.817968">
        <ele>854.880</ele>
        <time>2013-06-26T06:02:47Z</time>
      </trkpt>
      <trkpt lat="42.490272" lon="-5.818156">
        <ele>854.875</ele>
        <time>2013-06-26T06:03:01Z</time>
      </trkpt>
      <trkpt lat="42.490192" lon="-5.818311">
        <ele>854.861</ele>
        <time>2013-06-26T06:03:12Z</time>
      </trkpt>
      <trkpt lat="42.490104" lon="-5.818476">
        <ele>854.859</ele>
        <time>2013-06-26T06:03:24Z</time>
      </trkpt>
      <trkpt lat="42.489997" lon="-5.818672">
        <ele>854.845</ele>
        <time>2013-06-26T06:03:38Z</time>
      </trkpt>
      <trkpt lat="42.489902" lon="-5.818850">
        <ele>854.327</ele>
        <time>2013-06-26T06:03:51Z</time>
      </trkpt>
      <trkpt lat="42.489808" lon="-5.819027">
        <ele>854.368</ele>
        <time>2013-06-26T06:04:04Z</time>
      </trkpt>
      <trkpt lat="42.489719" lon="-5.819194">
        <ele>854.814</ele>
        <time>2013-06-26T06:04:16Z</time>
      </trkpt>
      <trkpt lat="42.489638" lon="-5.819342">
        <ele>854.807</ele>
        <time>2013-06-26T06:04:27Z</time>
      </trkpt>
      <trkpt lat="42.489543" lon="-5.819523">
        <ele>854.856</ele>
        <time>2013-06-26T06:04:40Z</time>
      </trkpt>
      <trkpt lat="42.489444" lon="-5.819705">
        <ele>854.379</ele>
        <time>2013-06-26T06:04:53Z</time>
      </trkpt>
      <trkpt lat="42.489342" lon="-5.819885">
        <ele>855.238</ele>
        <time>2013-06-26T06:05:06Z</time>
      </trkpt>
      <trkpt lat="42.489253" lon="-5.820044">
        <ele>854.843</ele>
        <time>2013-06-26T06:05:18Z</time>
      </trkpt>
      <trkpt lat="42.489184" lon="-5.820189">
        <ele>854.359</ele>
        <time>2013-06-26T06:05:28Z</time>
      </trkpt>
      <trkpt lat="42.489101" lon="-5.820351">
        <ele>854.887</ele>
        <time>2013-06-26T06:05:40Z</time>
      </trkpt>
      <trkpt lat="42.489031" lon="-5.820468">
        <ele>854.313</ele>
        <time>2013-06-26T06:05:48Z</time>
      </trkpt>
      <trkpt lat="42.488940" lon="-5.820626">
        <ele>854.374</ele>
        <time>2013-06-26T06:06:00Z</time>
      </trkpt>
      <trkpt lat="42.488852" lon="-5.820782">
        <ele>854.356</ele>
        <time>2013-06-26T06:06:12Z</time>
      </trkpt>
      <trkpt lat="42.488778" lon="-5.820937">
        <ele>853.821</ele>
        <time>2013-06-26T06:06:23Z</time>
      </trkpt>
      <trkpt lat="42.488682" lon="-5.821121">
        <ele>853.807</ele>
        <time>2013-06-26T06:06:36Z</time>
      </trkpt>
      <trkpt lat="42.488601" lon="-5.821282">
        <ele>853.841</ele>
        <time>2013-06-26T06:06:48Z</time>
      </trkpt>
      <trkpt lat="42.488500" lon="-5.821462">
        <ele>853.864</ele>
        <time>2013-06-26T06:07:02Z</time>
      </trkpt>
      <trkpt lat="42.488409" lon="-5.821618">
        <ele>853.853</ele>
        <time>2013-06-26T06:07:13Z</time>
      </trkpt>
      <trkpt lat="42.488311" lon="-5.821804">
        <ele>853.828</ele>
        <time>2013-06-26T06:07:26Z</time>
      </trkpt>
      <trkpt lat="42.488239" lon="-5.821949">
        <ele>853.894</ele>
        <time>2013-06-26T06:07:37Z</time>
      </trkpt>
      <trkpt lat="42.488192" lon="-5.822044">
        <ele>853.832</ele>
        <time>2013-06-26T06:07:44Z</time>
      </trkpt>
      <trkpt lat="42.488130" lon="-5.822161">
        <ele>854.338</ele>
        <time>2013-06-26T06:07:53Z</time>
      </trkpt>
      <trkpt lat="42.488057" lon="-5.822306">
        <ele>853.828</ele>
        <time>2013-06-26T06:08:04Z</time>
      </trkpt>
      <trkpt lat="42.487984" lon="-5.822460">
        <ele>853.889</ele>
        <time>2013-06-26T06:08:15Z</time>
      </trkpt>
      <trkpt lat="42.487899" lon="-5.822603">
        <ele>853.817</ele>
        <time>2013-06-26T06:08:26Z</time>
      </trkpt>
      <trkpt lat="42.487822" lon="-5.822750">
        <ele>853.307</ele>
        <time>2013-06-26T06:08:36Z</time>
      </trkpt>
      <trkpt lat="42.487745" lon="-5.822888">
        <ele>853.826</ele>
        <time>2013-06-26T06:08:46Z</time>
      </trkpt>
      <trkpt lat="42.487678" lon="-5.823037">
        <ele>853.829</ele>
        <time>2013-06-26T06:08:56Z</time>
      </trkpt>
      <trkpt lat="42.487588" lon="-5.823199">
        <ele>853.888</ele>
        <time>2013-06-26T06:09:08Z</time>
      </trkpt>
      <trkpt lat="42.487502" lon="-5.823371">
        <ele>853.813</ele>
        <time>2013-06-26T06:09:20Z</time>
      </trkpt>
      <trkpt lat="42.487415" lon="-5.823515">
        <ele>853.389</ele>
        <time>2013-06-26T06:09:31Z</time>
      </trkpt>
      <trkpt lat="42.487337" lon="-5.823670">
        <ele>853.397</ele>
        <time>2013-06-26T06:09:42Z</time>
      </trkpt>
      <trkpt lat="42.487252" lon="-5.823815">
        <ele>853.363</ele>
        <time>2013-06-26T06:09:52Z</time>
      </trkpt>
      <trkpt lat="42.487166" lon="-5.824010">
        <ele>853.389</ele>
        <time>2013-06-26T06:10:05Z</time>
      </trkpt>
      <trkpt lat="42.487091" lon="-5.824144">
        <ele>853.306</ele>
        <time>2013-06-26T06:10:15Z</time>
      </trkpt>
      <trkpt lat="42.487026" lon="-5.824273">
        <ele>853.326</ele>
        <time>2013-06-26T06:10:24Z</time>
      </trkpt>
      <trkpt lat="42.486935" lon="-5.824438">
        <ele>853.307</ele>
        <time>2013-06-26T06:10:36Z</time>
      </trkpt>
      <trkpt lat="42.486864" lon="-5.824572">
        <ele>852.872</ele>
        <time>2013-06-26T06:10:46Z</time>
      </trkpt>
      <trkpt lat="42.486788" lon="-5.824720">
        <ele>853.365</ele>
        <time>2013-06-26T06:10:56Z</time>
      </trkpt>
      <trkpt lat="42.486707" lon="-5.824863">
        <ele>852.884</ele>
        <time>2013-06-26T06:11:07Z</time>
      </trkpt>
      <trkpt lat="42.486625" lon="-5.825028">
        <ele>852.829</ele>
        <time>2013-06-26T06:11:19Z</time>
      </trkpt>
      <trkpt lat="42.486548" lon="-5.825167">
        <ele>852.875</ele>
        <time>2013-06-26T06:11:29Z</time>
      </trkpt>
      <trkpt lat="42.486469" lon="-5.825306">
        <ele>852.853</ele>
        <time>2013-06-26T06:11:39Z</time>
      </trkpt>
      <trkpt lat="42.486394" lon="-5.825466">
        <ele>852.829</ele>
        <time>2013-06-26T06:11:50Z</time>
      </trkpt>
      <trkpt lat="42.486352" lon="-5.825641">
        <ele>852.852</ele>
        <time>2013-06-26T06:12:01Z</time>
      </trkpt>
      <trkpt lat="42.486360" lon="-5.825779">
        <ele>853.353</ele>
        <time>2013-06-26T06:12:10Z</time>
      </trkpt>
      <trkpt lat="42.486360" lon="-5.825796">
        <ele>852.808</ele>
        <time>2013-06-26T06:12:11Z</time>
      </trkpt>
      <trkpt lat="42.486295" lon="-5.825953">
        <ele>852.407</ele>
        <time>2013-06-26T06:12:21Z</time>
      </trkpt>
      <trkpt lat="42.486230" lon="-5.826051">
        <ele>852.459</ele>
        <time>2013-06-26T06:12:29Z</time>
      </trkpt>
      <trkpt lat="42.486158" lon="-5.826168">
        <ele>852.882</ele>
        <time>2013-06-26T06:12:38Z</time>
      </trkpt>
      <trkpt lat="42.486085" lon="-5.826316">
        <ele>852.821</ele>
        <time>2013-06-26T06:12:48Z</time>
      </trkpt>
      <trkpt lat="42.486057" lon="-5.826364">
        <ele>852.876</ele>
        <time>2013-06-26T06:12:52Z</time>
      </trkpt>
      <trkpt lat="42.486003" lon="-5.826542">
        <ele>852.822</ele>
        <time>2013-06-26T06:13:03Z</time>
      </trkpt>
      <trkpt lat="42.485938" lon="-5.826711">
        <ele>852.810</ele>
        <time>2013-06-26T06:13:14Z</time>
      </trkpt>
      <trkpt lat="42.485855" lon="-5.826899">
        <ele>852.856</ele>
        <time>2013-06-26T06:13:27Z</time>
      </trkpt>
      <trkpt lat="42.485805" lon="-5.827056">
        <ele>853.341</ele>
        <time>2013-06-26T06:13:37Z</time>
      </trkpt>
      <trkpt lat="42.485748" lon="-5.827237">
        <ele>852.881</ele>
        <time>2013-06-26T06:13:49Z</time>
      </trkpt>
      <trkpt lat="42.485705" lon="-5.827418">
        <ele>852.809</ele>
        <time>2013-06-26T06:14:00Z</time>
      </trkpt>
      <trkpt lat="42.485659" lon="-5.827546">
        <ele>853.307</ele>
        <time>2013-06-26T06:14:09Z</time>
      </trkpt>
      <trkpt lat="42.485597" lon="-5.827746">
        <ele>852.828</ele>
        <time>2013-06-26T06:14:21Z</time>
      </trkpt>
      <trkpt lat="42.485533" lon="-5.827959">
        <ele>852.861</ele>
        <time>2013-06-26T06:14:34Z</time>
      </trkpt>
      <trkpt lat="42.485506" lon="-5.828088">
        <ele>852.850</ele>
        <time>2013-06-26T06:14:42Z</time>
      </trkpt>
      <trkpt lat="42.485499" lon="-5.828228">
        <ele>852.845</ele>
        <time>2013-06-26T06:14:51Z</time>
      </trkpt>
      <trkpt lat="42.485420" lon="-5.828377">
        <ele>852.881</ele>
        <time>2013-06-26T06:15:02Z</time>
      </trkpt>
      <trkpt lat="42.485386" lon="-5.828580">
        <ele>852.819</ele>
        <time>2013-06-26T06:15:14Z</time>
      </trkpt>
      <trkpt lat="42.485370" lon="-5.828708">
        <ele>852.845</ele>
        <time>2013-06-26T06:15:22Z</time>
      </trkpt>
      <trkpt lat="42.485344" lon="-5.828797">
        <ele>852.892</ele>
        <time>2013-06-26T06:15:28Z</time>
      </trkpt>
      <trkpt lat="42.485299" lon="-5.829034">
        <ele>852.473</ele>
        <time>2013-06-26T06:15:42Z</time>
      </trkpt>
      <trkpt lat="42.485254" lon="-5.829203">
        <ele>852.420</ele>
        <time>2013-06-26T06:15:53Z</time>
      </trkpt>
      <trkpt lat="42.485238" lon="-5.829225">
        <ele>852.407</ele>
        <time>2013-06-26T06:15:55Z</time>
      </trkpt>
      <trkpt lat="42.485186" lon="-5.829243">
        <ele>852.463</ele>
        <time>2013-06-26T06:15:59Z</time>
      </trkpt>
      <trkpt lat="42.484216" lon="-5.829441">
        <ele>834.616</ele>
        <time>2013-06-26T06:17:28Z</time>
      </trkpt>
      <trkpt lat="42.484189" lon="-5.829514">
        <ele>835.035</ele>
        <time>2013-06-26T06:17:35Z</time>
      </trkpt>
      <trkpt lat="42.484156" lon="-5.829577">
        <ele>835.040</ele>
        <time>2013-06-26T06:17:39Z</time>
      </trkpt>
      <trkpt lat="42.484131" lon="-5.829622">
        <ele>836.566</ele>
        <time>2013-06-26T06:17:42Z</time>
      </trkpt>
      <trkpt lat="42.484092" lon="-5.829714">
        <ele>838.984</ele>
        <time>2013-06-26T06:17:48Z</time>
      </trkpt>
      <trkpt lat="42.484051" lon="-5.829783">
        <ele>840.810</ele>
        <time>2013-06-26T06:17:53Z</time>
      </trkpt>
      <trkpt lat="42.483977" lon="-5.829927">
        <ele>844.294</ele>
        <time>2013-06-26T06:18:03Z</time>
      </trkpt>
      <trkpt lat="42.483906" lon="-5.830054">
        <ele>847.557</ele>
        <time>2013-06-26T06:18:12Z</time>
      </trkpt>
      <trkpt lat="42.483899" lon="-5.830070">
        <ele>847.522</ele>
        <time>2013-06-26T06:18:13Z</time>
      </trkpt>
      <trkpt lat="42.483831" lon="-5.830189">
        <ele>848.507</ele>
        <time>2013-06-26T06:18:22Z</time>
      </trkpt>
      <trkpt lat="42.483759" lon="-5.830339">
        <ele>849.563</ele>
        <time>2013-06-26T06:18:32Z</time>
      </trkpt>
      <trkpt lat="42.483682" lon="-5.830483">
        <ele>849.566</ele>
        <time>2013-06-26T06:18:42Z</time>
      </trkpt>
      <trkpt lat="42.483599" lon="-5.830662">
        <ele>849.595</ele>
        <time>2013-06-26T06:18:54Z</time>
      </trkpt>
      <trkpt lat="42.483509" lon="-5.830812">
        <ele>849.980</ele>
        <time>2013-06-26T06:19:05Z</time>
      </trkpt>
      <trkpt lat="42.483415" lon="-5.830976">
        <ele>849.556</ele>
        <time>2013-06-26T06:19:17Z</time>
      </trkpt>
      <trkpt lat="42.483310" lon="-5.831176">
        <ele>849.094</ele>
        <time>2013-06-26T06:19:31Z</time>
      </trkpt>
      <trkpt lat="42.483195" lon="-5.831391">
        <ele>849.010</ele>
        <time>2013-06-26T06:19:46Z</time>
      </trkpt>
      <trkpt lat="42.483122" lon="-5.831554">
        <ele>849.532</ele>
        <time>2013-06-26T06:19:58Z</time>
      </trkpt>
      <trkpt lat="42.483046" lon="-5.831709">
        <ele>849.092</ele>
        <time>2013-06-26T06:20:09Z</time>
      </trkpt>
      <trkpt lat="42.482941" lon="-5.831912">
        <ele>848.511</ele>
        <time>2013-06-26T06:20:23Z</time>
      </trkpt>
      <trkpt lat="42.482838" lon="-5.832111">
        <ele>848.507</ele>
        <time>2013-06-26T06:20:37Z</time>
      </trkpt>
      <trkpt lat="42.482747" lon="-5.832285">
        <ele>847.527</ele>
        <time>2013-06-26T06:20:49Z</time>
      </trkpt>
      <trkpt lat="42.482651" lon="-5.832484">
        <ele>847.550</ele>
        <time>2013-06-26T06:21:02Z</time>
      </trkpt>
      <trkpt lat="42.482573" lon="-5.832623">
        <ele>847.179</ele>
        <time>2013-06-26T06:21:12Z</time>
      </trkpt>
      <trkpt lat="42.482491" lon="-5.832780">
        <ele>846.644</ele>
        <time>2013-06-26T06:21:23Z</time>
      </trkpt>
      <trkpt lat="42.482399" lon="-5.832951">
        <ele>846.610</ele>
        <time>2013-06-26T06:21:35Z</time>
      </trkpt>
      <trkpt lat="42.482316" lon="-5.833103">
        <ele>846.628</ele>
        <time>2013-06-26T06:21:46Z</time>
      </trkpt>
      <trkpt lat="42.482227" lon="-5.833267">
        <ele>846.164</ele>
        <time>2013-06-26T06:21:58Z</time>
      </trkpt>
      <trkpt lat="42.482132" lon="-5.833451">
        <ele>846.665</ele>
        <time>2013-06-26T06:22:11Z</time>
      </trkpt>
      <trkpt lat="42.482028" lon="-5.833633">
        <ele>846.168</ele>
        <time>2013-06-26T06:22:24Z</time>
      </trkpt>
      <trkpt lat="42.481911" lon="-5.833839">
        <ele>845.614</ele>
        <time>2013-06-26T06:22:39Z</time>
      </trkpt>
      <trkpt lat="42.481812" lon="-5.834018">
        <ele>846.607</ele>
        <time>2013-06-26T06:22:52Z</time>
      </trkpt>
      <trkpt lat="42.481716" lon="-5.834189">
        <ele>846.670</ele>
        <time>2013-06-26T06:23:04Z</time>
      </trkpt>
      <trkpt lat="42.481628" lon="-5.834349">
        <ele>846.183</ele>
        <time>2013-06-26T06:23:16Z</time>
      </trkpt>
      <trkpt lat="42.481541" lon="-5.834518">
        <ele>846.182</ele>
        <time>2013-06-26T06:23:28Z</time>
      </trkpt>
      <trkpt lat="42.481460" lon="-5.834681">
        <ele>846.187</ele>
        <time>2013-06-26T06:23:39Z</time>
      </trkpt>
      <trkpt lat="42.481374" lon="-5.834837">
        <ele>845.693</ele>
        <time>2013-06-26T06:23:50Z</time>
      </trkpt>
      <trkpt lat="42.481276" lon="-5.835020">
        <ele>846.131</ele>
        <time>2013-06-26T06:24:03Z</time>
      </trkpt>
      <trkpt lat="42.481190" lon="-5.835161">
        <ele>846.687</ele>
        <time>2013-06-26T06:24:14Z</time>
      </trkpt>
      <trkpt lat="42.481097" lon="-5.835316">
        <ele>845.699</ele>
        <time>2013-06-26T06:24:26Z</time>
      </trkpt>
      <trkpt lat="42.480994" lon="-5.835528">
        <ele>846.107</ele>
        <time>2013-06-26T06:24:40Z</time>
      </trkpt>
      <trkpt lat="42.480913" lon="-5.835730">
        <ele>846.627</ele>
        <time>2013-06-26T06:24:53Z</time>
      </trkpt>
      <trkpt lat="42.480830" lon="-5.835849">
        <ele>846.607</ele>
        <time>2013-06-26T06:25:03Z</time>
      </trkpt>
      <trkpt lat="42.480735" lon="-5.836061">
        <ele>846.693</ele>
        <time>2013-06-26T06:25:17Z</time>
      </trkpt>
      <trkpt lat="42.480651" lon="-5.836243">
        <ele>846.196</ele>
        <time>2013-06-26T06:25:30Z</time>
      </trkpt>
      <trkpt lat="42.480572" lon="-5.836372">
        <ele>846.185</ele>
        <time>2013-06-26T06:25:40Z</time>
      </trkpt>
      <trkpt lat="42.480451" lon="-5.836566">
        <ele>846.120</ele>
        <time>2013-06-26T06:25:54Z</time>
      </trkpt>
      <trkpt lat="42.480356" lon="-5.836749">
        <ele>845.696</ele>
        <time>2013-06-26T06:26:06Z</time>
      </trkpt>
      <trkpt lat="42.480286" lon="-5.836887">
        <ele>846.134</ele>
        <time>2013-06-26T06:26:16Z</time>
      </trkpt>
      <trkpt lat="42.480201" lon="-5.837043">
        <ele>846.160</ele>
        <time>2013-06-26T06:26:27Z</time>
      </trkpt>
      <trkpt lat="42.480106" lon="-5.837211">
        <ele>845.643</ele>
        <time>2013-06-26T06:26:39Z</time>
      </trkpt>
      <trkpt lat="42.480033" lon="-5.837350">
        <ele>845.664</ele>
        <time>2013-06-26T06:26:49Z</time>
      </trkpt>
      <trkpt lat="42.479942" lon="-5.837499">
        <ele>846.110</ele>
        <time>2013-06-26T06:27:01Z</time>
      </trkpt>
      <trkpt lat="42.479851" lon="-5.837658">
        <ele>845.607</ele>
        <time>2013-06-26T06:27:12Z</time>
      </trkpt>
      <trkpt lat="42.479757" lon="-5.837843">
        <ele>846.198</ele>
        <time>2013-06-26T06:27:24Z</time>
      </trkpt>
      <trkpt lat="42.479683" lon="-5.837993">
        <ele>846.181</ele>
        <time>2013-06-26T06:27:35Z</time>
      </trkpt>
      <trkpt lat="42.479594" lon="-5.838152">
        <ele>845.610</ele>
        <time>2013-06-26T06:27:46Z</time>
      </trkpt>
      <trkpt lat="42.479509" lon="-5.838296">
        <ele>845.665</ele>
        <time>2013-06-26T06:27:57Z</time>
      </trkpt>
      <trkpt lat="42.479425" lon="-5.838462">
        <ele>845.651</ele>
        <time>2013-06-26T06:28:08Z</time>
      </trkpt>
      <trkpt lat="42.479315" lon="-5.838652">
        <ele>846.189</ele>
        <time>2013-06-26T06:28:21Z</time>
      </trkpt>
      <trkpt lat="42.479226" lon="-5.838813">
        <ele>846.125</ele>
        <time>2013-06-26T06:28:32Z</time>
      </trkpt>
      <trkpt lat="42.479142" lon="-5.838985">
        <ele>846.146</ele>
        <time>2013-06-26T06:28:44Z</time>
      </trkpt>
      <trkpt lat="42.479056" lon="-5.839142">
        <ele>846.188</ele>
        <time>2013-06-26T06:28:55Z</time>
      </trkpt>
      <trkpt lat="42.478976" lon="-5.839274">
        <ele>846.116</ele>
        <time>2013-06-26T06:29:05Z</time>
      </trkpt>
      <trkpt lat="42.478913" lon="-5.839405">
        <ele>846.107</ele>
        <time>2013-06-26T06:29:14Z</time>
      </trkpt>
      <trkpt lat="42.478833" lon="-5.839562">
        <ele>846.158</ele>
        <time>2013-06-26T06:29:25Z</time>
      </trkpt>
      <trkpt lat="42.478800" lon="-5.839629">
        <ele>846.641</ele>
        <time>2013-06-26T06:29:33Z</time>
      </trkpt>
      <trkpt lat="42.478758" lon="-5.839684">
        <ele>846.660</ele>
        <time>2013-06-26T06:29:40Z</time>
      </trkpt>
      <trkpt lat="42.478711" lon="-5.839768">
        <ele>846.635</ele>
        <time>2013-06-26T06:29:48Z</time>
      </trkpt>
      <trkpt lat="42.478626" lon="-5.839904">
        <ele>847.151</ele>
        <time>2013-06-26T06:29:58Z</time>
      </trkpt>
      <trkpt lat="42.478549" lon="-5.840089">
        <ele>846.659</ele>
        <time>2013-06-26T06:30:10Z</time>
      </trkpt>
      <trkpt lat="42.478462" lon="-5.840249">
        <ele>846.645</ele>
        <time>2013-06-26T06:30:22Z</time>
      </trkpt>
      <trkpt lat="42.478392" lon="-5.840388">
        <ele>846.174</ele>
        <time>2013-06-26T06:30:32Z</time>
      </trkpt>
      <trkpt lat="42.478299" lon="-5.840562">
        <ele>846.156</ele>
        <time>2013-06-26T06:30:44Z</time>
      </trkpt>
      <trkpt lat="42.478207" lon="-5.840734">
        <ele>845.621</ele>
        <time>2013-06-26T06:30:55Z</time>
      </trkpt>
      <trkpt lat="42.478114" lon="-5.840895">
        <ele>846.107</ele>
        <time>2013-06-26T06:31:06Z</time>
      </trkpt>
      <trkpt lat="42.478024" lon="-5.841074">
        <ele>845.651</ele>
        <time>2013-06-26T06:31:18Z</time>
      </trkpt>
      <trkpt lat="42.477947" lon="-5.841223">
        <ele>845.624</ele>
        <time>2013-06-26T06:31:28Z</time>
      </trkpt>
      <trkpt lat="42.477879" lon="-5.841346">
        <ele>845.653</ele>
        <time>2013-06-26T06:31:37Z</time>
      </trkpt>
      <trkpt lat="42.477807" lon="-5.841463">
        <ele>845.668</ele>
        <time>2013-06-26T06:31:46Z</time>
      </trkpt>
      <trkpt lat="42.477719" lon="-5.841627">
        <ele>845.694</ele>
        <time>2013-06-26T06:31:58Z</time>
      </trkpt>
      <trkpt lat="42.477624" lon="-5.841803">
        <ele>845.622</ele>
        <time>2013-06-26T06:32:10Z</time>
      </trkpt>
      <trkpt lat="42.477528" lon="-5.841961">
        <ele>845.138</ele>
        <time>2013-06-26T06:32:22Z</time>
      </trkpt>
      <trkpt lat="42.477462" lon="-5.842082">
        <ele>845.178</ele>
        <time>2013-06-26T06:32:31Z</time>
      </trkpt>
      <trkpt lat="42.477375" lon="-5.842239">
        <ele>845.133</ele>
        <time>2013-06-26T06:32:42Z</time>
      </trkpt>
      <trkpt lat="42.477296" lon="-5.842387">
        <ele>845.126</ele>
        <time>2013-06-26T06:32:52Z</time>
      </trkpt>
      <trkpt lat="42.477212" lon="-5.842552">
        <ele>845.107</ele>
        <time>2013-06-26T06:33:02Z</time>
      </trkpt>
      <trkpt lat="42.477164" lon="-5.842639">
        <ele>845.141</ele>
        <time>2013-06-26T06:33:10Z</time>
      </trkpt>
      <trkpt lat="42.477097" lon="-5.842773">
        <ele>844.724</ele>
        <time>2013-06-26T06:33:20Z</time>
      </trkpt>
      <trkpt lat="42.477015" lon="-5.842941">
        <ele>844.723</ele>
        <time>2013-06-26T06:33:30Z</time>
      </trkpt>
      <trkpt lat="42.476931" lon="-5.843100">
        <ele>844.278</ele>
        <time>2013-06-26T06:33:41Z</time>
      </trkpt>
      <trkpt lat="42.476872" lon="-5.843226">
        <ele>843.724</ele>
        <time>2013-06-26T06:33:49Z</time>
      </trkpt>
      <trkpt lat="42.476804" lon="-5.843362">
        <ele>843.282</ele>
        <time>2013-06-26T06:33:58Z</time>
      </trkpt>
      <trkpt lat="42.476746" lon="-5.843493">
        <ele>842.758</ele>
        <time>2013-06-26T06:34:08Z</time>
      </trkpt>
      <trkpt lat="42.476699" lon="-5.843598">
        <ele>842.716</ele>
        <time>2013-06-26T06:34:16Z</time>
      </trkpt>
      <trkpt lat="42.476621" lon="-5.843734">
        <ele>841.876</ele>
        <time>2013-06-26T06:34:26Z</time>
      </trkpt>
      <trkpt lat="42.476569" lon="-5.843831">
        <ele>841.313</ele>
        <time>2013-06-26T06:34:34Z</time>
      </trkpt>
      <trkpt lat="42.476531" lon="-5.843910">
        <ele>841.807</ele>
        <time>2013-06-26T06:34:41Z</time>
      </trkpt>
      <trkpt lat="42.476475" lon="-5.844032">
        <ele>840.815</ele>
        <time>2013-06-26T06:34:50Z</time>
      </trkpt>
      <trkpt lat="42.476395" lon="-5.844157">
        <ele>840.388</ele>
        <time>2013-06-26T06:34:59Z</time>
      </trkpt>
      <trkpt lat="42.476323" lon="-5.844301">
        <ele>840.337</ele>
        <time>2013-06-26T06:35:09Z</time>
      </trkpt>
      <trkpt lat="42.476252" lon="-5.844433">
        <ele>840.882</ele>
        <time>2013-06-26T06:35:18Z</time>
      </trkpt>
      <trkpt lat="42.476217" lon="-5.844493">
        <ele>840.378</ele>
        <time>2013-06-26T06:35:22Z</time>
      </trkpt>
      <trkpt lat="42.476124" lon="-5.844634">
        <ele>840.336</ele>
        <time>2013-06-26T06:35:32Z</time>
      </trkpt>
      <trkpt lat="42.476061" lon="-5.844787">
        <ele>840.362</ele>
        <time>2013-06-26T06:35:43Z</time>
      </trkpt>
      <trkpt lat="42.475980" lon="-5.844934">
        <ele>839.956</ele>
        <time>2013-06-26T06:35:54Z</time>
      </trkpt>
      <trkpt lat="42.475911" lon="-5.845062">
        <ele>838.959</ele>
        <time>2013-06-26T06:36:03Z</time>
      </trkpt>
      <trkpt lat="42.475854" lon="-5.845200">
        <ele>838.914</ele>
        <time>2013-06-26T06:36:14Z</time>
      </trkpt>
      <trkpt lat="42.475827" lon="-5.845247">
        <ele>838.907</ele>
        <time>2013-06-26T06:36:18Z</time>
      </trkpt>
      <trkpt lat="42.475778" lon="-5.845326">
        <ele>839.419</ele>
        <time>2013-06-26T06:36:26Z</time>
      </trkpt>
      <trkpt lat="42.475666" lon="-5.845513">
        <ele>838.442</ele>
        <time>2013-06-26T06:36:37Z</time>
      </trkpt>
      <trkpt lat="42.475590" lon="-5.845649">
        <ele>838.951</ele>
        <time>2013-06-26T06:36:46Z</time>
      </trkpt>
      <trkpt lat="42.475542" lon="-5.845776">
        <ele>839.466</ele>
        <time>2013-06-26T06:36:55Z</time>
      </trkpt>
      <trkpt lat="42.475464" lon="-5.845916">
        <ele>838.922</ele>
        <time>2013-06-26T06:37:05Z</time>
      </trkpt>
      <trkpt lat="42.475398" lon="-5.846033">
        <ele>838.990</ele>
        <time>2013-06-26T06:37:13Z</time>
      </trkpt>
      <trkpt lat="42.475300" lon="-5.846207">
        <ele>838.436</ele>
        <time>2013-06-26T06:37:25Z</time>
      </trkpt>
      <trkpt lat="42.475214" lon="-5.846363">
        <ele>838.414</ele>
        <time>2013-06-26T06:37:36Z</time>
      </trkpt>
      <trkpt lat="42.475146" lon="-5.846495">
        <ele>838.954</ele>
        <time>2013-06-26T06:37:45Z</time>
      </trkpt>
      <trkpt lat="42.475063" lon="-5.846666">
        <ele>838.909</ele>
        <time>2013-06-26T06:37:57Z</time>
      </trkpt>
      <trkpt lat="42.474996" lon="-5.846781">
        <ele>837.907</ele>
        <time>2013-06-26T06:38:06Z</time>
      </trkpt>
      <trkpt lat="42.474992" lon="-5.846791">
        <ele>837.995</ele>
        <time>2013-06-26T06:38:07Z</time>
      </trkpt>
      <trkpt lat="42.474978" lon="-5.846818">
        <ele>838.488</ele>
        <time>2013-06-26T06:38:09Z</time>
      </trkpt>
      <trkpt lat="42.474903" lon="-5.846953">
        <ele>838.437</ele>
        <time>2013-06-26T06:38:18Z</time>
      </trkpt>
      <trkpt lat="42.474818" lon="-5.847089">
        <ele>838.472</ele>
        <time>2013-06-26T06:38:27Z</time>
      </trkpt>
      <trkpt lat="42.474751" lon="-5.847232">
        <ele>837.998</ele>
        <time>2013-06-26T06:38:36Z</time>
      </trkpt>
      <trkpt lat="42.474668" lon="-5.847368">
        <ele>838.476</ele>
        <time>2013-06-26T06:38:45Z</time>
      </trkpt>
      <trkpt lat="42.474610" lon="-5.847521">
        <ele>838.972</ele>
        <time>2013-06-26T06:38:55Z</time>
      </trkpt>
      <trkpt lat="42.474536" lon="-5.847631">
        <ele>839.419</ele>
        <time>2013-06-26T06:39:05Z</time>
      </trkpt>
      <trkpt lat="42.474494" lon="-5.847690">
        <ele>839.409</ele>
        <time>2013-06-26T06:39:12Z</time>
      </trkpt>
      <trkpt lat="42.474429" lon="-5.847804">
        <ele>838.919</ele>
        <time>2013-06-26T06:39:20Z</time>
      </trkpt>
      <trkpt lat="42.474323" lon="-5.847996">
        <ele>838.407</ele>
        <time>2013-06-26T06:39:33Z</time>
      </trkpt>
      <trkpt lat="42.474264" lon="-5.848080">
        <ele>837.995</ele>
        <time>2013-06-26T06:39:41Z</time>
      </trkpt>
      <trkpt lat="42.474190" lon="-5.848244">
        <ele>837.948</ele>
        <time>2013-06-26T06:39:51Z</time>
      </trkpt>
      <trkpt lat="42.474084" lon="-5.848434">
        <ele>838.447</ele>
        <time>2013-06-26T06:40:04Z</time>
      </trkpt>
      <trkpt lat="42.473981" lon="-5.848622">
        <ele>837.922</ele>
        <time>2013-06-26T06:40:17Z</time>
      </trkpt>
      <trkpt lat="42.473890" lon="-5.848797">
        <ele>837.988</ele>
        <time>2013-06-26T06:40:29Z</time>
      </trkpt>
      <trkpt lat="42.473800" lon="-5.848964">
        <ele>837.536</ele>
        <time>2013-06-26T06:40:40Z</time>
      </trkpt>
      <trkpt lat="42.473747" lon="-5.849100">
        <ele>837.562</ele>
        <time>2013-06-26T06:40:50Z</time>
      </trkpt>
      <trkpt lat="42.473711" lon="-5.849163">
        <ele>837.523</ele>
        <time>2013-06-26T06:40:56Z</time>
      </trkpt>
      <trkpt lat="42.473647" lon="-5.849275">
        <ele>837.583</ele>
        <time>2013-06-26T06:41:03Z</time>
      </trkpt>
      <trkpt lat="42.473555" lon="-5.849424">
        <ele>837.511</ele>
        <time>2013-06-26T06:41:13Z</time>
      </trkpt>
      <trkpt lat="42.473417" lon="-5.849648">
        <ele>837.507</ele>
        <time>2013-06-26T06:41:28Z</time>
      </trkpt>
      <trkpt lat="42.473335" lon="-5.849813">
        <ele>837.586</ele>
        <time>2013-06-26T06:41:39Z</time>
      </trkpt>
      <trkpt lat="42.473266" lon="-5.849957">
        <ele>837.589</ele>
        <time>2013-06-26T06:41:49Z</time>
      </trkpt>
      <trkpt lat="42.473183" lon="-5.850111">
        <ele>837.518</ele>
        <time>2013-06-26T06:42:00Z</time>
      </trkpt>
      <trkpt lat="42.473104" lon="-5.850261">
        <ele>837.513</ele>
        <time>2013-06-26T06:42:11Z</time>
      </trkpt>
      <trkpt lat="42.473017" lon="-5.850412">
        <ele>837.569</ele>
        <time>2013-06-26T06:42:22Z</time>
      </trkpt>
      <trkpt lat="42.472942" lon="-5.850565">
        <ele>837.597</ele>
        <time>2013-06-26T06:42:32Z</time>
      </trkpt>
      <trkpt lat="42.472852" lon="-5.850721">
        <ele>837.063</ele>
        <time>2013-06-26T06:42:43Z</time>
      </trkpt>
      <trkpt lat="42.472782" lon="-5.850852">
        <ele>837.554</ele>
        <time>2013-06-26T06:42:52Z</time>
      </trkpt>
      <trkpt lat="42.472690" lon="-5.851015">
        <ele>837.556</ele>
        <time>2013-06-26T06:43:04Z</time>
      </trkpt>
      <trkpt lat="42.472607" lon="-5.851171">
        <ele>837.011</ele>
        <time>2013-06-26T06:43:15Z</time>
      </trkpt>
      <trkpt lat="42.472539" lon="-5.851319">
        <ele>837.007</ele>
        <time>2013-06-26T06:43:25Z</time>
      </trkpt>
      <trkpt lat="42.472479" lon="-5.851419">
        <ele>837.089</ele>
        <time>2013-06-26T06:43:33Z</time>
      </trkpt>
      <trkpt lat="42.472398" lon="-5.851560">
        <ele>837.042</ele>
        <time>2013-06-26T06:43:43Z</time>
      </trkpt>
      <trkpt lat="42.472296" lon="-5.851756">
        <ele>837.951</ele>
        <time>2013-06-26T06:43:56Z</time>
      </trkpt>
      <trkpt lat="42.472201" lon="-5.851909">
        <ele>837.586</ele>
        <time>2013-06-26T06:44:07Z</time>
      </trkpt>
      <trkpt lat="42.472097" lon="-5.852102">
        <ele>837.532</ele>
        <time>2013-06-26T06:44:20Z</time>
      </trkpt>
      <trkpt lat="42.472008" lon="-5.852267">
        <ele>837.070</ele>
        <time>2013-06-26T06:44:32Z</time>
      </trkpt>
      <trkpt lat="42.471937" lon="-5.852404">
        <ele>837.076</ele>
        <time>2013-06-26T06:44:42Z</time>
      </trkpt>
      <trkpt lat="42.471863" lon="-5.852559">
        <ele>837.096</ele>
        <time>2013-06-26T06:44:52Z</time>
      </trkpt>
      <trkpt lat="42.471783" lon="-5.852700">
        <ele>837.531</ele>
        <time>2013-06-26T06:45:02Z</time>
      </trkpt>
      <trkpt lat="42.471748" lon="-5.852807">
        <ele>837.024</ele>
        <time>2013-06-26T06:45:10Z</time>
      </trkpt>
      <trkpt lat="42.471727" lon="-5.852827">
        <ele>837.507</ele>
        <time>2013-06-26T06:45:12Z</time>
      </trkpt>
      <trkpt lat="42.471630" lon="-5.852967">
        <ele>837.563</ele>
        <time>2013-06-26T06:45:22Z</time>
      </trkpt>
      <trkpt lat="42.471564" lon="-5.853098">
        <ele>837.526</ele>
        <time>2013-06-26T06:45:31Z</time>
      </trkpt>
      <trkpt lat="42.471494" lon="-5.853240">
        <ele>837.025</ele>
        <time>2013-06-26T06:45:41Z</time>
      </trkpt>
      <trkpt lat="42.471422" lon="-5.853381">
        <ele>837.530</ele>
        <time>2013-06-26T06:45:51Z</time>
      </trkpt>
      <trkpt lat="42.471359" lon="-5.853500">
        <ele>837.576</ele>
        <time>2013-06-26T06:45:59Z</time>
      </trkpt>
      <trkpt lat="42.471254" lon="-5.853685">
        <ele>837.514</ele>
        <time>2013-06-26T06:46:12Z</time>
      </trkpt>
      <trkpt lat="42.471178" lon="-5.853839">
        <ele>837.550</ele>
        <time>2013-06-26T06:46:22Z</time>
      </trkpt>
      <trkpt lat="42.471094" lon="-5.853995">
        <ele>837.513</ele>
        <time>2013-06-26T06:46:33Z</time>
      </trkpt>
      <trkpt lat="42.471003" lon="-5.854158">
        <ele>837.543</ele>
        <time>2013-06-26T06:46:44Z</time>
      </trkpt>
      <trkpt lat="42.470906" lon="-5.854347">
        <ele>837.007</ele>
        <time>2013-06-26T06:46:58Z</time>
      </trkpt>
      <trkpt lat="42.470814" lon="-5.854527">
        <ele>837.507</ele>
        <time>2013-06-26T06:47:11Z</time>
      </trkpt>
      <trkpt lat="42.470732" lon="-5.854677">
        <ele>837.535</ele>
        <time>2013-06-26T06:47:21Z</time>
      </trkpt>
      <trkpt lat="42.470628" lon="-5.854868">
        <ele>837.068</ele>
        <time>2013-06-26T06:47:34Z</time>
      </trkpt>
      <trkpt lat="42.470544" lon="-5.855008">
        <ele>837.527</ele>
        <time>2013-06-26T06:47:44Z</time>
      </trkpt>
      <trkpt lat="42.470475" lon="-5.855132">
        <ele>837.592</ele>
        <time>2013-06-26T06:47:53Z</time>
      </trkpt>
      <trkpt lat="42.470379" lon="-5.855310">
        <ele>837.558</ele>
        <time>2013-06-26T06:48:05Z</time>
      </trkpt>
      <trkpt lat="42.470276" lon="-5.855529">
        <ele>837.096</ele>
        <time>2013-06-26T06:48:19Z</time>
      </trkpt>
      <trkpt lat="42.470175" lon="-5.855696">
        <ele>837.032</ele>
        <time>2013-06-26T06:48:31Z</time>
      </trkpt>
      <trkpt lat="42.470073" lon="-5.855889">
        <ele>837.047</ele>
        <time>2013-06-26T06:48:44Z</time>
      </trkpt>
      <trkpt lat="42.469980" lon="-5.856060">
        <ele>837.029</ele>
        <time>2013-06-26T06:48:56Z</time>
      </trkpt>
      <trkpt lat="42.469892" lon="-5.856232">
        <ele>837.021</ele>
        <time>2013-06-26T06:49:08Z</time>
      </trkpt>
      <trkpt lat="42.469795" lon="-5.856422">
        <ele>837.007</ele>
        <time>2013-06-26T06:49:21Z</time>
      </trkpt>
      <trkpt lat="42.469710" lon="-5.856581">
        <ele>837.028</ele>
        <time>2013-06-26T06:49:32Z</time>
      </trkpt>
      <trkpt lat="42.469620" lon="-5.856744">
        <ele>836.591</ele>
        <time>2013-06-26T06:49:44Z</time>
      </trkpt>
      <trkpt lat="42.469557" lon="-5.856860">
        <ele>836.530</ele>
        <time>2013-06-26T06:49:53Z</time>
      </trkpt>
      <trkpt lat="42.469512" lon="-5.856973">
        <ele>836.565</ele>
        <time>2013-06-26T06:50:01Z</time>
      </trkpt>
      <trkpt lat="42.469440" lon="-5.857112">
        <ele>836.571</ele>
        <time>2013-06-26T06:50:12Z</time>
      </trkpt>
      <trkpt lat="42.469351" lon="-5.857280">
        <ele>836.539</ele>
        <time>2013-06-26T06:50:24Z</time>
      </trkpt>
      <trkpt lat="42.469252" lon="-5.857465">
        <ele>836.585</ele>
        <time>2013-06-26T06:50:36Z</time>
      </trkpt>
      <trkpt lat="42.469155" lon="-5.857627">
        <ele>836.552</ele>
        <time>2013-06-26T06:50:47Z</time>
      </trkpt>
      <trkpt lat="42.469072" lon="-5.857792">
        <ele>837.053</ele>
        <time>2013-06-26T06:50:59Z</time>
      </trkpt>
      <trkpt lat="42.468972" lon="-5.857971">
        <ele>837.008</ele>
        <time>2013-06-26T06:51:11Z</time>
      </trkpt>
      <trkpt lat="42.468870" lon="-5.858177">
        <ele>836.007</ele>
        <time>2013-06-26T06:51:24Z</time>
      </trkpt>
      <trkpt lat="42.468768" lon="-5.858368">
        <ele>837.099</ele>
        <time>2013-06-26T06:51:36Z</time>
      </trkpt>
      <trkpt lat="42.468692" lon="-5.858508">
        <ele>836.562</ele>
        <time>2013-06-26T06:51:46Z</time>
      </trkpt>
      <trkpt lat="42.468588" lon="-5.858671">
        <ele>836.561</ele>
        <time>2013-06-26T06:51:57Z</time>
      </trkpt>
      <trkpt lat="42.468494" lon="-5.858842">
        <ele>837.046</ele>
        <time>2013-06-26T06:52:09Z</time>
      </trkpt>
      <trkpt lat="42.468406" lon="-5.858994">
        <ele>836.572</ele>
        <time>2013-06-26T06:52:20Z</time>
      </trkpt>
      <trkpt lat="42.468325" lon="-5.859150">
        <ele>837.010</ele>
        <time>2013-06-26T06:52:30Z</time>
      </trkpt>
      <trkpt lat="42.468227" lon="-5.859307">
        <ele>836.586</ele>
        <time>2013-06-26T06:52:41Z</time>
      </trkpt>
      <trkpt lat="42.468154" lon="-5.859460">
        <ele>837.076</ele>
        <time>2013-06-26T06:52:52Z</time>
      </trkpt>
      <trkpt lat="42.468154" lon="-5.859461">
        <ele>836.590</ele>
        <time>2013-06-26T06:52:54Z</time>
      </trkpt>
      <trkpt lat="42.468079" lon="-5.859623">
        <ele>836.519</ele>
        <time>2013-06-26T06:53:03Z</time>
      </trkpt>
      <trkpt lat="42.467988" lon="-5.859802">
        <ele>836.507</ele>
        <time>2013-06-26T06:53:14Z</time>
      </trkpt>
      <trkpt lat="42.467927" lon="-5.859939">
        <ele>836.581</ele>
        <time>2013-06-26T06:53:23Z</time>
      </trkpt>
      <trkpt lat="42.467835" lon="-5.860092">
        <ele>836.574</ele>
        <time>2013-06-26T06:53:33Z</time>
      </trkpt>
      <trkpt lat="42.467809" lon="-5.860142">
        <ele>837.053</ele>
        <time>2013-06-26T06:53:36Z</time>
      </trkpt>
      <trkpt lat="42.467727" lon="-5.860308">
        <ele>836.018</ele>
        <time>2013-06-26T06:53:47Z</time>
      </trkpt>
      <trkpt lat="42.467631" lon="-5.860458">
        <ele>836.084</ele>
        <time>2013-06-26T06:53:58Z</time>
      </trkpt>
      <trkpt lat="42.467537" lon="-5.860596">
        <ele>836.082</ele>
        <time>2013-06-26T06:54:08Z</time>
      </trkpt>
      <trkpt lat="42.467473" lon="-5.860727">
        <ele>836.558</ele>
        <time>2013-06-26T06:54:17Z</time>
      </trkpt>
      <trkpt lat="42.467415" lon="-5.860840">
        <ele>836.589</ele>
        <time>2013-06-26T06:54:25Z</time>
      </trkpt>
      <trkpt lat="42.467317" lon="-5.861013">
        <ele>836.006</ele>
        <time>2013-06-26T06:54:36Z</time>
      </trkpt>
      <trkpt lat="42.467214" lon="-5.861179">
        <ele>836.526</ele>
        <time>2013-06-26T06:54:47Z</time>
      </trkpt>
      <trkpt lat="42.467145" lon="-5.861322">
        <ele>836.507</ele>
        <time>2013-06-26T06:54:57Z</time>
      </trkpt>
      <trkpt lat="42.467087" lon="-5.861433">
        <ele>836.082</ele>
        <time>2013-06-26T06:55:05Z</time>
      </trkpt>
      <trkpt lat="42.467012" lon="-5.861582">
        <ele>836.575</ele>
        <time>2013-06-26T06:55:15Z</time>
      </trkpt>
      <trkpt lat="42.466956" lon="-5.861696">
        <ele>837.064</ele>
        <time>2013-06-26T06:55:23Z</time>
      </trkpt>
      <trkpt lat="42.466901" lon="-5.861813">
        <ele>836.599</ele>
        <time>2013-06-26T06:55:31Z</time>
      </trkpt>
      <trkpt lat="42.466814" lon="-5.861979">
        <ele>836.545</ele>
        <time>2013-06-26T06:55:42Z</time>
      </trkpt>
      <trkpt lat="42.466761" lon="-5.862100">
        <ele>836.023</ele>
        <time>2013-06-26T06:55:49Z</time>
      </trkpt>
      <trkpt lat="42.466756" lon="-5.862119">
        <ele>836.569</ele>
        <time>2013-06-26T06:55:50Z</time>
      </trkpt>
      <trkpt lat="42.466646" lon="-5.862287">
        <ele>836.518</ele>
        <time>2013-06-26T06:56:01Z</time>
      </trkpt>
      <trkpt lat="42.466581" lon="-5.862397">
        <ele>837.098</ele>
        <time>2013-06-26T06:56:09Z</time>
      </trkpt>
      <trkpt lat="42.466553" lon="-5.862457">
        <ele>837.017</ele>
        <time>2013-06-26T06:56:13Z</time>
      </trkpt>
      <trkpt lat="42.466469" lon="-5.862584">
        <ele>837.007</ele>
        <time>2013-06-26T06:56:22Z</time>
      </trkpt>
      <trkpt lat="42.466385" lon="-5.862730">
        <ele>836.575</ele>
        <time>2013-06-26T06:56:32Z</time>
      </trkpt>
      <trkpt lat="42.466286" lon="-5.862915">
        <ele>836.538</ele>
        <time>2013-06-26T06:56:44Z</time>
      </trkpt>
      <trkpt lat="42.466214" lon="-5.863070">
        <ele>837.097</ele>
        <time>2013-06-26T06:56:55Z</time>
      </trkpt>
      <trkpt lat="42.466142" lon="-5.863203">
        <ele>836.532</ele>
        <time>2013-06-26T06:57:04Z</time>
      </trkpt>
      <trkpt lat="42.466057" lon="-5.863350">
        <ele>837.058</ele>
        <time>2013-06-26T06:57:14Z</time>
      </trkpt>
      <trkpt lat="42.465968" lon="-5.863489">
        <ele>837.026</ele>
        <time>2013-06-26T06:57:25Z</time>
      </trkpt>
      <trkpt lat="42.465875" lon="-5.863653">
        <ele>837.042</ele>
        <time>2013-06-26T06:57:37Z</time>
      </trkpt>
      <trkpt lat="42.465777" lon="-5.863862">
        <ele>837.062</ele>
        <time>2013-06-26T06:57:50Z</time>
      </trkpt>
      <trkpt lat="42.465699" lon="-5.864037">
        <ele>837.083</ele>
        <time>2013-06-26T06:58:01Z</time>
      </trkpt>
      <trkpt lat="42.465600" lon="-5.864181">
        <ele>837.011</ele>
        <time>2013-06-26T06:58:12Z</time>
      </trkpt>
      <trkpt lat="42.465520" lon="-5.864335">
        <ele>837.007</ele>
        <time>2013-06-26T06:58:23Z</time>
      </trkpt>
      <trkpt lat="42.465442" lon="-5.864475">
        <ele>837.040</ele>
        <time>2013-06-26T06:58:32Z</time>
      </trkpt>
      <trkpt lat="42.465367" lon="-5.864632">
        <ele>836.523</ele>
        <time>2013-06-26T06:58:42Z</time>
      </trkpt>
      <trkpt lat="42.465292" lon="-5.864763">
        <ele>837.062</ele>
        <time>2013-06-26T06:58:50Z</time>
      </trkpt>
      <trkpt lat="42.465206" lon="-5.864923">
        <ele>836.567</ele>
        <time>2013-06-26T06:59:01Z</time>
      </trkpt>
      <trkpt lat="42.465124" lon="-5.865088">
        <ele>837.013</ele>
        <time>2013-06-26T06:59:13Z</time>
      </trkpt>
      <trkpt lat="42.465036" lon="-5.865249">
        <ele>836.521</ele>
        <time>2013-06-26T06:59:24Z</time>
      </trkpt>
      <trkpt lat="42.464942" lon="-5.865443">
        <ele>836.547</ele>
        <time>2013-06-26T06:59:37Z</time>
      </trkpt>
      <trkpt lat="42.464843" lon="-5.865625">
        <ele>836.573</ele>
        <time>2013-06-26T06:59:49Z</time>
      </trkpt>
      <trkpt lat="42.464771" lon="-5.865755">
        <ele>837.085</ele>
        <time>2013-06-26T06:59:58Z</time>
      </trkpt>
      <trkpt lat="42.464695" lon="-5.865893">
        <ele>837.013</ele>
        <time>2013-06-26T07:00:08Z</time>
      </trkpt>
      <trkpt lat="42.464619" lon="-5.866066">
        <ele>837.007</ele>
        <time>2013-06-26T07:00:19Z</time>
      </trkpt>
      <trkpt lat="42.464551" lon="-5.866275">
        <ele>837.561</ele>
        <time>2013-06-26T07:00:31Z</time>
      </trkpt>
      <trkpt lat="42.464568" lon="-5.866444">
        <ele>837.084</ele>
        <time>2013-06-26T07:00:41Z</time>
      </trkpt>
      <trkpt lat="42.464599" lon="-5.866619">
        <ele>837.063</ele>
        <time>2013-06-26T07:00:51Z</time>
      </trkpt>
      <trkpt lat="42.464630" lon="-5.866788">
        <ele>837.098</ele>
        <time>2013-06-26T07:01:01Z</time>
      </trkpt>
      <trkpt lat="42.464639" lon="-5.866911">
        <ele>837.074</ele>
        <time>2013-06-26T07:01:12Z</time>
      </trkpt>
      <trkpt lat="42.464653" lon="-5.866951">
        <ele>837.032</ele>
        <time>2013-06-26T07:01:17Z</time>
      </trkpt>
      <trkpt lat="42.464698" lon="-5.866987">
        <ele>837.028</ele>
        <time>2013-06-26T07:01:24Z</time>
      </trkpt>
      <trkpt lat="42.464765" lon="-5.866950">
        <ele>837.068</ele>
        <time>2013-06-26T07:01:32Z</time>
      </trkpt>
      <trkpt lat="42.464767" lon="-5.866937">
        <ele>836.542</ele>
        <time>2013-06-26T07:01:41Z</time>
      </trkpt>
      <trkpt lat="42.464757" lon="-5.866922">
        <ele>835.526</ele>
        <time>2013-06-26T07:01:47Z</time>
      </trkpt>
      <trkpt lat="42.464758" lon="-5.866934">
        <ele>835.507</ele>
        <time>2013-06-26T07:02:08Z</time>
      </trkpt>
      <trkpt lat="42.464759" lon="-5.866921">
        <ele>835.510</ele>
        <time>2013-06-26T07:02:29Z</time>
      </trkpt>
      <trkpt lat="42.464743" lon="-5.866938">
        <ele>835.543</ele>
        <time>2013-06-26T07:02:45Z</time>
      </trkpt>
      <trkpt lat="42.464750" lon="-5.866956">
        <ele>835.582</ele>
        <time>2013-06-26T07:03:03Z</time>
      </trkpt>
      <trkpt lat="42.464748" lon="-5.866942">
        <ele>835.557</ele>
        <time>2013-06-26T07:03:21Z</time>
      </trkpt>
      <trkpt lat="42.464737" lon="-5.866928">
        <ele>835.543</ele>
        <time>2013-06-26T07:03:40Z</time>
      </trkpt>
      <trkpt lat="42.464735" lon="-5.866932">
        <ele>836.041</ele>
        <time>2013-06-26T07:03:56Z</time>
      </trkpt>
      <trkpt lat="42.464735" lon="-5.866925">
        <ele>835.587</ele>
        <time>2013-06-26T07:04:16Z</time>
      </trkpt>
      <trkpt lat="42.464736" lon="-5.866921">
        <ele>836.051</ele>
        <time>2013-06-26T07:04:38Z</time>
      </trkpt>
      <trkpt lat="42.464728" lon="-5.866903">
        <ele>836.001</ele>
        <time>2013-06-26T07:04:58Z</time>
      </trkpt>
      <trkpt lat="42.464731" lon="-5.866913">
        <ele>836.011</ele>
        <time>2013-06-26T07:05:19Z</time>
      </trkpt>
      <trkpt lat="42.464755" lon="-5.866932">
        <ele>836.007</ele>
        <time>2013-06-26T07:05:41Z</time>
      </trkpt>
      <trkpt lat="42.464765" lon="-5.866923">
        <ele>836.569</ele>
        <time>2013-06-26T07:05:57Z</time>
      </trkpt>
      <trkpt lat="42.464747" lon="-5.866971">
        <ele>837.042</ele>
        <time>2013-06-26T07:06:10Z</time>
      </trkpt>
      <trkpt lat="42.464739" lon="-5.866968">
        <ele>837.031</ele>
        <time>2013-06-26T07:06:18Z</time>
      </trkpt>
      <trkpt lat="42.464735" lon="-5.866992">
        <ele>837.016</ele>
        <time>2013-06-26T07:06:29Z</time>
      </trkpt>
      <trkpt lat="42.464740" lon="-5.866969">
        <ele>836.012</ele>
        <time>2013-06-26T07:06:38Z</time>
      </trkpt>
      <trkpt lat="42.464750" lon="-5.866967">
        <ele>836.540</ele>
        <time>2013-06-26T07:06:58Z</time>
      </trkpt>
      <trkpt lat="42.464750" lon="-5.866920">
        <ele>836.086</ele>
        <time>2013-06-26T07:07:18Z</time>
      </trkpt>
      <trkpt lat="42.464744" lon="-5.866907">
        <ele>836.555</ele>
        <time>2013-06-26T07:07:40Z</time>
      </trkpt>
      <trkpt lat="42.464753" lon="-5.866942">
        <ele>836.507</ele>
        <time>2013-06-26T07:08:07Z</time>
      </trkpt>
      <trkpt lat="42.464765" lon="-5.866952">
        <ele>837.017</ele>
        <time>2013-06-26T07:08:32Z</time>
      </trkpt>
      <trkpt lat="42.464784" lon="-5.866911">
        <ele>837.007</ele>
        <time>2013-06-26T07:08:59Z</time>
      </trkpt>
      <trkpt lat="42.464731" lon="-5.866927">
        <ele>837.079</ele>
        <time>2013-06-26T07:09:28Z</time>
      </trkpt>
      <trkpt lat="42.464739" lon="-5.866925">
        <ele>837.052</ele>
        <time>2013-06-26T07:09:59Z</time>
      </trkpt>
      <trkpt lat="42.464769" lon="-5.866913">
        <ele>837.011</ele>
        <time>2013-06-26T07:10:25Z</time>
      </trkpt>
      <trkpt lat="42.464773" lon="-5.866924">
        <ele>837.076</ele>
        <time>2013-06-26T07:10:52Z</time>
      </trkpt>
      <trkpt lat="42.464723" lon="-5.866954">
        <ele>836.562</ele>
        <time>2013-06-26T07:11:19Z</time>
      </trkpt>
      <trkpt lat="42.464776" lon="-5.866937">
        <ele>837.050</ele>
        <time>2013-06-26T07:11:51Z</time>
      </trkpt>
      <trkpt lat="42.464775" lon="-5.866916">
        <ele>837.016</ele>
        <time>2013-06-26T07:12:12Z</time>
      </trkpt>
      <trkpt lat="42.464785" lon="-5.866926">
        <ele>837.082</ele>
        <time>2013-06-26T07:12:39Z</time>
      </trkpt>
      <trkpt lat="42.464781" lon="-5.866945">
        <ele>837.943</ele>
        <time>2013-06-26T07:12:45Z</time>
      </trkpt>
      <trkpt lat="42.464776" lon="-5.866952">
        <ele>837.917</ele>
        <time>2013-06-26T07:12:55Z</time>
      </trkpt>
      <trkpt lat="42.464763" lon="-5.866955">
        <ele>837.907</ele>
        <time>2013-06-26T07:13:06Z</time>
      </trkpt>
      <trkpt lat="42.464756" lon="-5.866983">
        <ele>837.992</ele>
        <time>2013-06-26T07:13:17Z</time>
      </trkpt>
      <trkpt lat="42.464748" lon="-5.867030">
        <ele>837.945</ele>
        <time>2013-06-26T07:13:25Z</time>
      </trkpt>
      <trkpt lat="42.464711" lon="-5.867043">
        <ele>837.954</ele>
        <time>2013-06-26T07:13:35Z</time>
      </trkpt>
      <trkpt lat="42.464684" lon="-5.867096">
        <ele>837.519</ele>
        <time>2013-06-26T07:13:44Z</time>
      </trkpt>
      <trkpt lat="42.464709" lon="-5.867183">
        <ele>837.575</ele>
        <time>2013-06-26T07:13:53Z</time>
      </trkpt>
      <trkpt lat="42.464703" lon="-5.867249">
        <ele>837.993</ele>
        <time>2013-06-26T07:14:01Z</time>
      </trkpt>
      <trkpt lat="42.464704" lon="-5.867261">
        <ele>837.589</ele>
        <time>2013-06-26T07:14:02Z</time>
      </trkpt>
      <trkpt lat="42.464696" lon="-5.867400">
        <ele>837.954</ele>
        <time>2013-06-26T07:14:12Z</time>
      </trkpt>
      <trkpt lat="42.464693" lon="-5.867563">
        <ele>837.956</ele>
        <time>2013-06-26T07:14:24Z</time>
      </trkpt>
      <trkpt lat="42.464670" lon="-5.867661">
        <ele>837.911</ele>
        <time>2013-06-26T07:14:31Z</time>
      </trkpt>
      <trkpt lat="42.464659" lon="-5.867778">
        <ele>837.507</ele>
        <time>2013-06-26T07:14:40Z</time>
      </trkpt>
      <trkpt lat="42.464644" lon="-5.867917">
        <ele>837.549</ele>
        <time>2013-06-26T07:14:50Z</time>
      </trkpt>
      <trkpt lat="42.464624" lon="-5.868046">
        <ele>837.562</ele>
        <time>2013-06-26T07:14:59Z</time>
      </trkpt>
      <trkpt lat="42.464604" lon="-5.868173">
        <ele>837.921</ele>
        <time>2013-06-26T07:15:07Z</time>
      </trkpt>
      <trkpt lat="42.464593" lon="-5.868312">
        <ele>837.586</ele>
        <time>2013-06-26T07:15:17Z</time>
      </trkpt>
      <trkpt lat="42.464565" lon="-5.868457">
        <ele>837.952</ele>
        <time>2013-06-26T07:15:27Z</time>
      </trkpt>
      <trkpt lat="42.464554" lon="-5.868604">
        <ele>837.960</ele>
        <time>2013-06-26T07:15:37Z</time>
      </trkpt>
      <trkpt lat="42.464533" lon="-5.868760">
        <ele>837.596</ele>
        <time>2013-06-26T07:15:47Z</time>
      </trkpt>
      <trkpt lat="42.464512" lon="-5.868921">
        <ele>837.521</ele>
        <time>2013-06-26T07:15:57Z</time>
      </trkpt>
      <trkpt lat="42.464496" lon="-5.869066">
        <ele>837.541</ele>
        <time>2013-06-26T07:16:06Z</time>
      </trkpt>
      <trkpt lat="42.464475" lon="-5.869212">
        <ele>837.505</ele>
        <time>2013-06-26T07:16:15Z</time>
      </trkpt>
      <trkpt lat="42.464460" lon="-5.869345">
        <ele>837.907</ele>
        <time>2013-06-26T07:16:24Z</time>
      </trkpt>
      <trkpt lat="42.464438" lon="-5.869496">
        <ele>837.536</ele>
        <time>2013-06-26T07:16:34Z</time>
      </trkpt>
      <trkpt lat="42.464426" lon="-5.869666">
        <ele>837.559</ele>
        <time>2013-06-26T07:16:44Z</time>
      </trkpt>
      <trkpt lat="42.464409" lon="-5.869780">
        <ele>837.538</ele>
        <time>2013-06-26T07:16:51Z</time>
      </trkpt>
      <trkpt lat="42.464389" lon="-5.869938">
        <ele>837.543</ele>
        <time>2013-06-26T07:17:01Z</time>
      </trkpt>
      <trkpt lat="42.464380" lon="-5.870060">
        <ele>837.959</ele>
        <time>2013-06-26T07:17:09Z</time>
      </trkpt>
      <trkpt lat="42.464361" lon="-5.870218">
        <ele>837.097</ele>
        <time>2013-06-26T07:17:19Z</time>
      </trkpt>
      <trkpt lat="42.464338" lon="-5.870371">
        <ele>837.543</ele>
        <time>2013-06-26T07:17:28Z</time>
      </trkpt>
      <trkpt lat="42.464309" lon="-5.870524">
        <ele>837.079</ele>
        <time>2013-06-26T07:17:38Z</time>
      </trkpt>
      <trkpt lat="42.464308" lon="-5.870532">
        <ele>837.505</ele>
        <time>2013-06-26T07:17:40Z</time>
      </trkpt>
      <trkpt lat="42.464293" lon="-5.870711">
        <ele>837.025</ele>
        <time>2013-06-26T07:17:51Z</time>
      </trkpt>
      <trkpt lat="42.464280" lon="-5.870850">
        <ele>836.507</ele>
        <time>2013-06-26T07:18:00Z</time>
      </trkpt>
      <trkpt lat="42.464254" lon="-5.870999">
        <ele>836.571</ele>
        <time>2013-06-26T07:18:09Z</time>
      </trkpt>
      <trkpt lat="42.464226" lon="-5.871162">
        <ele>836.554</ele>
        <time>2013-06-26T07:18:19Z</time>
      </trkpt>
      <trkpt lat="42.464202" lon="-5.871339">
        <ele>836.573</ele>
        <time>2013-06-26T07:18:30Z</time>
      </trkpt>
      <trkpt lat="42.464207" lon="-5.871356">
        <ele>837.048</ele>
        <time>2013-06-26T07:18:37Z</time>
      </trkpt>
      <trkpt lat="42.464188" lon="-5.871473">
        <ele>836.574</ele>
        <time>2013-06-26T07:18:45Z</time>
      </trkpt>
      <trkpt lat="42.464175" lon="-5.871570">
        <ele>837.072</ele>
        <time>2013-06-26T07:18:53Z</time>
      </trkpt>
      <trkpt lat="42.464152" lon="-5.871800">
        <ele>836.528</ele>
        <time>2013-06-26T07:19:04Z</time>
      </trkpt>
      <trkpt lat="42.464135" lon="-5.871941">
        <ele>836.527</ele>
        <time>2013-06-26T07:19:11Z</time>
      </trkpt>
      <trkpt lat="42.464102" lon="-5.872109">
        <ele>836.068</ele>
        <time>2013-06-26T07:19:20Z</time>
      </trkpt>
      <trkpt lat="42.464098" lon="-5.872203">
        <ele>831.214</ele>
        <time>2013-06-26T07:19:25Z</time>
      </trkpt>
      <trkpt lat="42.464097" lon="-5.872225">
        <ele>839.407</ele>
        <time>2013-06-26T07:19:26Z</time>
      </trkpt>
      <trkpt lat="42.464097" lon="-5.872245">
        <ele>834.656</ele>
        <time>2013-06-26T07:19:27Z</time>
      </trkpt>
      <trkpt lat="42.464082" lon="-5.872433">
        <ele>833.699</ele>
        <time>2013-06-26T07:19:39Z</time>
      </trkpt>
      <trkpt lat="42.464081" lon="-5.872449">
        <ele>837.098</ele>
        <time>2013-06-26T07:19:40Z</time>
      </trkpt>
      <trkpt lat="42.464072" lon="-5.872549">
        <ele>835.593</ele>
        <time>2013-06-26T07:19:48Z</time>
      </trkpt>
      <trkpt lat="42.464031" lon="-5.872685">
        <ele>835.569</ele>
        <time>2013-06-26T07:19:57Z</time>
      </trkpt>
      <trkpt lat="42.464016" lon="-5.872819">
        <ele>835.577</ele>
        <time>2013-06-26T07:20:05Z</time>
      </trkpt>
      <trkpt lat="42.463999" lon="-5.873001">
        <ele>835.073</ele>
        <time>2013-06-26T07:20:17Z</time>
      </trkpt>
      <trkpt lat="42.463979" lon="-5.873129">
        <ele>835.525</ele>
        <time>2013-06-26T07:20:27Z</time>
      </trkpt>
      <trkpt lat="42.463999" lon="-5.873120">
        <ele>834.626</ele>
        <time>2013-06-26T07:20:39Z</time>
      </trkpt>
      <trkpt lat="42.463968" lon="-5.873143">
        <ele>835.008</ele>
        <time>2013-06-26T07:20:46Z</time>
      </trkpt>
      <trkpt lat="42.463958" lon="-5.873184">
        <ele>834.107</ele>
        <time>2013-06-26T07:21:05Z</time>
      </trkpt>
      <trkpt lat="42.463945" lon="-5.873290">
        <ele>835.596</ele>
        <time>2013-06-26T07:21:11Z</time>
      </trkpt>
      <trkpt lat="42.463933" lon="-5.873458">
        <ele>834.649</ele>
        <time>2013-06-26T07:21:21Z</time>
      </trkpt>
      <trkpt lat="42.463923" lon="-5.873621">
        <ele>835.048</ele>
        <time>2013-06-26T07:21:30Z</time>
      </trkpt>
      <trkpt lat="42.463924" lon="-5.873814">
        <ele>834.633</ele>
        <time>2013-06-26T07:21:41Z</time>
      </trkpt>
      <trkpt lat="42.463917" lon="-5.873944">
        <ele>834.619</ele>
        <time>2013-06-26T07:21:49Z</time>
      </trkpt>
      <trkpt lat="42.463929" lon="-5.874144">
        <ele>835.097</ele>
        <time>2013-06-26T07:22:00Z</time>
      </trkpt>
      <trkpt lat="42.463934" lon="-5.874300">
        <ele>835.063</ele>
        <time>2013-06-26T07:22:10Z</time>
      </trkpt>
      <trkpt lat="42.463931" lon="-5.874467">
        <ele>835.523</ele>
        <time>2013-06-26T07:22:20Z</time>
      </trkpt>
      <trkpt lat="42.463928" lon="-5.874620">
        <ele>835.083</ele>
        <time>2013-06-26T07:22:29Z</time>
      </trkpt>
      <trkpt lat="42.463921" lon="-5.874728">
        <ele>835.511</ele>
        <time>2013-06-26T07:22:37Z</time>
      </trkpt>
      <trkpt lat="42.463925" lon="-5.874892">
        <ele>835.007</ele>
        <time>2013-06-26T07:22:49Z</time>
      </trkpt>
      <trkpt lat="42.463941" lon="-5.874889">
        <ele>835.096</ele>
        <time>2013-06-26T07:22:53Z</time>
      </trkpt>
      <trkpt lat="42.463942" lon="-5.875006">
        <ele>835.519</ele>
        <time>2013-06-26T07:23:02Z</time>
      </trkpt>
      <trkpt lat="42.463944" lon="-5.875017">
        <ele>835.058</ele>
        <time>2013-06-26T07:23:22Z</time>
      </trkpt>
      <trkpt lat="42.463936" lon="-5.875180">
        <ele>835.583</ele>
        <time>2013-06-26T07:23:32Z</time>
      </trkpt>
      <trkpt lat="42.463926" lon="-5.875257">
        <ele>834.619</ele>
        <time>2013-06-26T07:23:41Z</time>
      </trkpt>
      <trkpt lat="42.463925" lon="-5.875400">
        <ele>835.547</ele>
        <time>2013-06-26T07:23:49Z</time>
      </trkpt>
      <trkpt lat="42.463923" lon="-5.875581">
        <ele>835.033</ele>
        <time>2013-06-26T07:23:59Z</time>
      </trkpt>
      <trkpt lat="42.463942" lon="-5.875708">
        <ele>835.578</ele>
        <time>2013-06-26T07:24:10Z</time>
      </trkpt>
      <trkpt lat="42.463943" lon="-5.875801">
        <ele>835.033</ele>
        <time>2013-06-26T07:24:17Z</time>
      </trkpt>
      <trkpt lat="42.463957" lon="-5.875985">
        <ele>835.526</ele>
        <time>2013-06-26T07:24:28Z</time>
      </trkpt>
      <trkpt lat="42.463962" lon="-5.876161">
        <ele>835.507</ele>
        <time>2013-06-26T07:24:39Z</time>
      </trkpt>
      <trkpt lat="42.463947" lon="-5.876382">
        <ele>835.531</ele>
        <time>2013-06-26T07:24:49Z</time>
      </trkpt>
      <trkpt lat="42.463928" lon="-5.876554">
        <ele>835.594</ele>
        <time>2013-06-26T07:24:58Z</time>
      </trkpt>
      <trkpt lat="42.463926" lon="-5.876738">
        <ele>835.583</ele>
        <time>2013-06-26T07:25:09Z</time>
      </trkpt>
      <trkpt lat="42.463925" lon="-5.876773">
        <ele>835.538</ele>
        <time>2013-06-26T07:25:11Z</time>
      </trkpt>
      <trkpt lat="42.463926" lon="-5.876902">
        <ele>835.514</ele>
        <time>2013-06-26T07:25:21Z</time>
      </trkpt>
      <trkpt lat="42.463921" lon="-5.876918">
        <ele>835.032</ele>
        <time>2013-06-26T07:25:29Z</time>
      </trkpt>
      <trkpt lat="42.463910" lon="-5.876941">
        <ele>835.088</ele>
        <time>2013-06-26T07:25:33Z</time>
      </trkpt>
      <trkpt lat="42.463901" lon="-5.876972">
        <ele>835.083</ele>
        <time>2013-06-26T07:25:35Z</time>
      </trkpt>
      <trkpt lat="42.463910" lon="-5.877146">
        <ele>834.125</ele>
        <time>2013-06-26T07:25:45Z</time>
      </trkpt>
      <trkpt lat="42.463936" lon="-5.877270">
        <ele>833.617</ele>
        <time>2013-06-26T07:25:54Z</time>
      </trkpt>
      <trkpt lat="42.463924" lon="-5.877368">
        <ele>833.607</ele>
        <time>2013-06-26T07:26:03Z</time>
      </trkpt>
      <trkpt lat="42.463912" lon="-5.877430">
        <ele>833.122</ele>
        <time>2013-06-26T07:26:11Z</time>
      </trkpt>
      <trkpt lat="42.463857" lon="-5.877522">
        <ele>833.115</ele>
        <time>2013-06-26T07:26:19Z</time>
      </trkpt>
      <trkpt lat="42.463876" lon="-5.877545">
        <ele>832.654</ele>
        <time>2013-06-26T07:26:22Z</time>
      </trkpt>
      <trkpt lat="42.463918" lon="-5.877596">
        <ele>832.299</ele>
        <time>2013-06-26T07:26:30Z</time>
      </trkpt>
      <trkpt lat="42.463947" lon="-5.877636">
        <ele>832.615</ele>
        <time>2013-06-26T07:26:38Z</time>
      </trkpt>
      <trkpt lat="42.463952" lon="-5.877639">
        <ele>832.623</ele>
        <time>2013-06-26T07:26:46Z</time>
      </trkpt>
      <trkpt lat="42.463957" lon="-5.877632">
        <ele>832.279</ele>
        <time>2013-06-26T07:27:04Z</time>
      </trkpt>
      <trkpt lat="42.463922" lon="-5.877643">
        <ele>833.179</ele>
        <time>2013-06-26T07:27:16Z</time>
      </trkpt>
      <trkpt lat="42.463928" lon="-5.877667">
        <ele>832.205</ele>
        <time>2013-06-26T07:27:27Z</time>
      </trkpt>
      <trkpt lat="42.463934" lon="-5.877645">
        <ele>832.625</ele>
        <time>2013-06-26T07:27:39Z</time>
      </trkpt>
      <trkpt lat="42.463938" lon="-5.877638">
        <ele>832.607</ele>
        <time>2013-06-26T07:27:53Z</time>
      </trkpt>
      <trkpt lat="42.463984" lon="-5.877694">
        <ele>832.681</ele>
        <time>2013-06-26T07:27:58Z</time>
      </trkpt>
      <trkpt lat="42.463963" lon="-5.877618">
        <ele>832.684</ele>
        <time>2013-06-26T07:28:08Z</time>
      </trkpt>
      <trkpt lat="42.463972" lon="-5.877673">
        <ele>832.633</ele>
        <time>2013-06-26T07:28:14Z</time>
      </trkpt>
      <trkpt lat="42.463977" lon="-5.877739">
        <ele>832.648</ele>
        <time>2013-06-26T07:28:22Z</time>
      </trkpt>
      <trkpt lat="42.463967" lon="-5.877859">
        <ele>833.114</ele>
        <time>2013-06-26T07:28:31Z</time>
      </trkpt>
      <trkpt lat="42.463973" lon="-5.877957">
        <ele>832.642</ele>
        <time>2013-06-26T07:28:42Z</time>
      </trkpt>
      <trkpt lat="42.463987" lon="-5.878072">
        <ele>833.178</ele>
        <time>2013-06-26T07:28:51Z</time>
      </trkpt>
      <trkpt lat="42.464001" lon="-5.878140">
        <ele>833.688</ele>
        <time>2013-06-26T07:28:59Z</time>
      </trkpt>
      <trkpt lat="42.464011" lon="-5.878122">
        <ele>833.624</ele>
        <time>2013-06-26T07:29:05Z</time>
      </trkpt>
      <trkpt lat="42.464010" lon="-5.878135">
        <ele>833.126</ele>
        <time>2013-06-26T07:29:15Z</time>
      </trkpt>
      <trkpt lat="42.464007" lon="-5.878111">
        <ele>833.107</ele>
        <time>2013-06-26T07:29:23Z</time>
      </trkpt>
      <trkpt lat="42.463996" lon="-5.878111">
        <ele>833.192</ele>
        <time>2013-06-26T07:29:31Z</time>
      </trkpt>
      <trkpt lat="42.463990" lon="-5.878125">
        <ele>833.185</ele>
        <time>2013-06-26T07:29:38Z</time>
      </trkpt>
      <trkpt lat="42.463983" lon="-5.878116">
        <ele>833.124</ele>
        <time>2013-06-26T07:29:48Z</time>
      </trkpt>
      <trkpt lat="42.463986" lon="-5.878183">
        <ele>833.159</ele>
        <time>2013-06-26T07:29:55Z</time>
      </trkpt>
      <trkpt lat="42.463997" lon="-5.878254">
        <ele>833.115</ele>
        <time>2013-06-26T07:30:03Z</time>
      </trkpt>
      <trkpt lat="42.464006" lon="-5.878363">
        <ele>833.673</ele>
        <time>2013-06-26T07:30:13Z</time>
      </trkpt>
      <trkpt lat="42.464027" lon="-5.878443">
        <ele>834.189</ele>
        <time>2013-06-26T07:30:21Z</time>
      </trkpt>
      <trkpt lat="42.464042" lon="-5.878532">
        <ele>833.625</ele>
        <time>2013-06-26T07:30:30Z</time>
      </trkpt>
      <trkpt lat="42.464044" lon="-5.878671">
        <ele>834.126</ele>
        <time>2013-06-26T07:30:41Z</time>
      </trkpt>
      <trkpt lat="42.464047" lon="-5.878800">
        <ele>833.108</ele>
        <time>2013-06-26T07:30:52Z</time>
      </trkpt>
      <trkpt lat="42.464053" lon="-5.878927">
        <ele>832.207</ele>
        <time>2013-06-26T07:31:01Z</time>
      </trkpt>
      <trkpt lat="42.464058" lon="-5.879088">
        <ele>831.266</ele>
        <time>2013-06-26T07:31:12Z</time>
      </trkpt>
      <trkpt lat="42.464061" lon="-5.879230">
        <ele>830.729</ele>
        <time>2013-06-26T07:31:22Z</time>
      </trkpt>
      <trkpt lat="42.464029" lon="-5.879419">
        <ele>830.298</ele>
        <time>2013-06-26T07:31:34Z</time>
      </trkpt>
      <trkpt lat="42.464023" lon="-5.879489">
        <ele>830.273</ele>
        <time>2013-06-26T07:31:41Z</time>
      </trkpt>
      <trkpt lat="42.464000" lon="-5.879642">
        <ele>829.839</ele>
        <time>2013-06-26T07:31:51Z</time>
      </trkpt>
      <trkpt lat="42.463980" lon="-5.879800">
        <ele>829.357</ele>
        <time>2013-06-26T07:32:02Z</time>
      </trkpt>
      <trkpt lat="42.463967" lon="-5.879893">
        <ele>829.363</ele>
        <time>2013-06-26T07:32:08Z</time>
      </trkpt>
      <trkpt lat="42.463967" lon="-5.879947">
        <ele>829.373</ele>
        <time>2013-06-26T07:32:12Z</time>
      </trkpt>
      <trkpt lat="42.463945" lon="-5.880079">
        <ele>828.885</ele>
        <time>2013-06-26T07:32:23Z</time>
      </trkpt>
      <trkpt lat="42.463951" lon="-5.880139">
        <ele>829.313</ele>
        <time>2013-06-26T07:32:32Z</time>
      </trkpt>
      <trkpt lat="42.463954" lon="-5.880156">
        <ele>829.807</ele>
        <time>2013-06-26T07:32:53Z</time>
      </trkpt>
      <trkpt lat="42.463948" lon="-5.880161">
        <ele>829.341</ele>
        <time>2013-06-26T07:33:05Z</time>
      </trkpt>
      <trkpt lat="42.463953" lon="-5.880169">
        <ele>829.394</ele>
        <time>2013-06-26T07:33:26Z</time>
      </trkpt>
      <trkpt lat="42.463940" lon="-5.880153">
        <ele>829.373</ele>
        <time>2013-06-26T07:33:42Z</time>
      </trkpt>
      <trkpt lat="42.463925" lon="-5.880154">
        <ele>829.348</ele>
        <time>2013-06-26T07:33:52Z</time>
      </trkpt>
      <trkpt lat="42.463915" lon="-5.880160">
        <ele>828.874</ele>
        <time>2013-06-26T07:34:01Z</time>
      </trkpt>
      <trkpt lat="42.463917" lon="-5.880217">
        <ele>828.892</ele>
        <time>2013-06-26T07:34:09Z</time>
      </trkpt>
      <trkpt lat="42.463901" lon="-5.880287">
        <ele>829.818</ele>
        <time>2013-06-26T07:34:16Z</time>
      </trkpt>
      <trkpt lat="42.463890" lon="-5.880330">
        <ele>829.875</ele>
        <time>2013-06-26T07:34:19Z</time>
      </trkpt>
      <trkpt lat="42.463856" lon="-5.880481">
        <ele>830.228</ele>
        <time>2013-06-26T07:34:29Z</time>
      </trkpt>
      <trkpt lat="42.463850" lon="-5.880597">
        <ele>830.220</ele>
        <time>2013-06-26T07:34:37Z</time>
      </trkpt>
      <trkpt lat="42.463821" lon="-5.880772">
        <ele>830.207</ele>
        <time>2013-06-26T07:34:47Z</time>
      </trkpt>
      <trkpt lat="42.463804" lon="-5.880884">
        <ele>829.831</ele>
        <time>2013-06-26T07:34:55Z</time>
      </trkpt>
      <trkpt lat="42.463786" lon="-5.880947">
        <ele>829.814</ele>
        <time>2013-06-26T07:35:03Z</time>
      </trkpt>
      <trkpt lat="42.463772" lon="-5.881049">
        <ele>829.873</ele>
        <time>2013-06-26T07:35:12Z</time>
      </trkpt>
      <trkpt lat="42.463750" lon="-5.881137">
        <ele>829.318</ele>
        <time>2013-06-26T07:35:20Z</time>
      </trkpt>
      <trkpt lat="42.463738" lon="-5.881238">
        <ele>829.314</ele>
        <time>2013-06-26T07:35:32Z</time>
      </trkpt>
      <trkpt lat="42.463685" lon="-5.881379">
        <ele>828.822</ele>
        <time>2013-06-26T07:35:42Z</time>
      </trkpt>
      <trkpt lat="42.463673" lon="-5.881511">
        <ele>827.828</ele>
        <time>2013-06-26T07:35:52Z</time>
      </trkpt>
      <trkpt lat="42.463656" lon="-5.881631">
        <ele>827.488</ele>
        <time>2013-06-26T07:36:03Z</time>
      </trkpt>
      <trkpt lat="42.463645" lon="-5.881741">
        <ele>827.424</ele>
        <time>2013-06-26T07:36:12Z</time>
      </trkpt>
      <trkpt lat="42.463660" lon="-5.881802">
        <ele>827.426</ele>
        <time>2013-06-26T07:36:21Z</time>
      </trkpt>
      <trkpt lat="42.463641" lon="-5.881874">
        <ele>827.407</ele>
        <time>2013-06-26T07:36:32Z</time>
      </trkpt>
      <trkpt lat="42.463641" lon="-5.881924">
        <ele>827.452</ele>
        <time>2013-06-26T07:36:39Z</time>
      </trkpt>
      <trkpt lat="42.463600" lon="-5.882011">
        <ele>826.945</ele>
        <time>2013-06-26T07:36:50Z</time>
      </trkpt>
      <trkpt lat="42.463563" lon="-5.882078">
        <ele>827.424</ele>
        <time>2013-06-26T07:36:59Z</time>
      </trkpt>
      <trkpt lat="42.463557" lon="-5.882144">
        <ele>827.489</ele>
        <time>2013-06-26T07:37:07Z</time>
      </trkpt>
      <trkpt lat="42.463562" lon="-5.882202">
        <ele>827.495</ele>
        <time>2013-06-26T07:37:16Z</time>
      </trkpt>
      <trkpt lat="42.463559" lon="-5.882328">
        <ele>827.483</ele>
        <time>2013-06-26T07:37:26Z</time>
      </trkpt>
      <trkpt lat="42.463540" lon="-5.882435">
        <ele>827.889</ele>
        <time>2013-06-26T07:37:35Z</time>
      </trkpt>
      <trkpt lat="42.463518" lon="-5.882551">
        <ele>827.895</ele>
        <time>2013-06-26T07:37:42Z</time>
      </trkpt>
      <trkpt lat="42.463543" lon="-5.882657">
        <ele>828.349</ele>
        <time>2013-06-26T07:37:50Z</time>
      </trkpt>
      <trkpt lat="42.463578" lon="-5.882721">
        <ele>827.823</ele>
        <time>2013-06-26T07:38:00Z</time>
      </trkpt>
      <trkpt lat="42.463581" lon="-5.882765">
        <ele>827.807</ele>
        <time>2013-06-26T07:38:09Z</time>
      </trkpt>
      <trkpt lat="42.463594" lon="-5.882751">
        <ele>827.833</ele>
        <time>2013-06-26T07:38:22Z</time>
      </trkpt>
      <trkpt lat="42.463594" lon="-5.882810">
        <ele>827.856</ele>
        <time>2013-06-26T07:38:32Z</time>
      </trkpt>
      <trkpt lat="42.463583" lon="-5.882807">
        <ele>828.335</ele>
        <time>2013-06-26T07:38:45Z</time>
      </trkpt>
      <trkpt lat="42.463569" lon="-5.882818">
        <ele>827.820</ele>
        <time>2013-06-26T07:38:56Z</time>
      </trkpt>
      <trkpt lat="42.463569" lon="-5.882919">
        <ele>827.836</ele>
        <time>2013-06-26T07:39:04Z</time>
      </trkpt>
      <trkpt lat="42.463568" lon="-5.883009">
        <ele>827.834</ele>
        <time>2013-06-26T07:39:13Z</time>
      </trkpt>
      <trkpt lat="42.463554" lon="-5.883093">
        <ele>827.850</ele>
        <time>2013-06-26T07:39:20Z</time>
      </trkpt>
      <trkpt lat="42.463577" lon="-5.883170">
        <ele>827.848</ele>
        <time>2013-06-26T07:39:28Z</time>
      </trkpt>
      <trkpt lat="42.463551" lon="-5.883293">
        <ele>828.361</ele>
        <time>2013-06-26T07:39:38Z</time>
      </trkpt>
      <trkpt lat="42.463564" lon="-5.883327">
        <ele>827.417</ele>
        <time>2013-06-26T07:39:46Z</time>
      </trkpt>
      <trkpt lat="42.463553" lon="-5.883473">
        <ele>827.807</ele>
        <time>2013-06-26T07:39:57Z</time>
      </trkpt>
      <trkpt lat="42.463566" lon="-5.883605">
        <ele>827.848</ele>
        <time>2013-06-26T07:40:06Z</time>
      </trkpt>
      <trkpt lat="42.463581" lon="-5.883693">
        <ele>827.891</ele>
        <time>2013-06-26T07:40:13Z</time>
      </trkpt>
      <trkpt lat="42.463561" lon="-5.883797">
        <ele>827.880</ele>
        <time>2013-06-26T07:40:23Z</time>
      </trkpt>
      <trkpt lat="42.463559" lon="-5.883829">
        <ele>827.825</ele>
        <time>2013-06-26T07:40:25Z</time>
      </trkpt>
      <trkpt lat="42.463555" lon="-5.883957">
        <ele>827.811</ele>
        <time>2013-06-26T07:40:34Z</time>
      </trkpt>
      <trkpt lat="42.463565" lon="-5.884056">
        <ele>827.829</ele>
        <time>2013-06-26T07:40:44Z</time>
      </trkpt>
      <trkpt lat="42.463533" lon="-5.884107">
        <ele>827.825</ele>
        <time>2013-06-26T07:40:48Z</time>
      </trkpt>
      <trkpt lat="42.463478" lon="-5.884243">
        <ele>827.819</ele>
        <time>2013-06-26T07:40:58Z</time>
      </trkpt>
      <trkpt lat="42.463489" lon="-5.884398">
        <ele>828.309</ele>
        <time>2013-06-26T07:41:08Z</time>
      </trkpt>
      <trkpt lat="42.463456" lon="-5.884447">
        <ele>828.319</ele>
        <time>2013-06-26T07:41:16Z</time>
      </trkpt>
      <trkpt lat="42.463448" lon="-5.884477">
        <ele>828.307</ele>
        <time>2013-06-26T07:41:29Z</time>
      </trkpt>
      <trkpt lat="42.463468" lon="-5.884575">
        <ele>827.825</ele>
        <time>2013-06-26T07:41:36Z</time>
      </trkpt>
      <trkpt lat="42.463460" lon="-5.884671">
        <ele>827.828</ele>
        <time>2013-06-26T07:41:45Z</time>
      </trkpt>
      <trkpt lat="42.463458" lon="-5.884846">
        <ele>827.887</ele>
        <time>2013-06-26T07:41:56Z</time>
      </trkpt>
      <trkpt lat="42.463455" lon="-5.884974">
        <ele>827.872</ele>
        <time>2013-06-26T07:42:05Z</time>
      </trkpt>
      <trkpt lat="42.463466" lon="-5.885101">
        <ele>827.868</ele>
        <time>2013-06-26T07:42:15Z</time>
      </trkpt>
      <trkpt lat="42.463448" lon="-5.885174">
        <ele>827.476</ele>
        <time>2013-06-26T07:42:20Z</time>
      </trkpt>
      <trkpt lat="42.463380" lon="-5.885333">
        <ele>827.872</ele>
        <time>2013-06-26T07:42:30Z</time>
      </trkpt>
      <trkpt lat="42.463330" lon="-5.885413">
        <ele>827.428</ele>
        <time>2013-06-26T07:42:36Z</time>
      </trkpt>
      <trkpt lat="42.463347" lon="-5.885577">
        <ele>827.889</ele>
        <time>2013-06-26T07:42:47Z</time>
      </trkpt>
      <trkpt lat="42.463326" lon="-5.885694">
        <ele>827.417</ele>
        <time>2013-06-26T07:42:55Z</time>
      </trkpt>
      <trkpt lat="42.463320" lon="-5.885773">
        <ele>827.807</ele>
        <time>2013-06-26T07:42:59Z</time>
      </trkpt>
      <trkpt lat="42.463308" lon="-5.885903">
        <ele>827.846</ele>
        <time>2013-06-26T07:43:08Z</time>
      </trkpt>
      <trkpt lat="42.463305" lon="-5.885951">
        <ele>827.849</ele>
        <time>2013-06-26T07:43:11Z</time>
      </trkpt>
      <trkpt lat="42.463310" lon="-5.886123">
        <ele>827.818</ele>
        <time>2013-06-26T07:43:22Z</time>
      </trkpt>
      <trkpt lat="42.463310" lon="-5.886293">
        <ele>827.883</ele>
        <time>2013-06-26T07:43:33Z</time>
      </trkpt>
      <trkpt lat="42.463301" lon="-5.886475">
        <ele>827.889</ele>
        <time>2013-06-26T07:43:45Z</time>
      </trkpt>
      <trkpt lat="42.463287" lon="-5.886610">
        <ele>827.877</ele>
        <time>2013-06-26T07:43:54Z</time>
      </trkpt>
      <trkpt lat="42.463247" lon="-5.886765">
        <ele>827.463</ele>
        <time>2013-06-26T07:44:05Z</time>
      </trkpt>
      <trkpt lat="42.463232" lon="-5.886916">
        <ele>827.463</ele>
        <time>2013-06-26T07:44:15Z</time>
      </trkpt>
      <trkpt lat="42.463224" lon="-5.887097">
        <ele>828.344</ele>
        <time>2013-06-26T07:44:26Z</time>
      </trkpt>
      <trkpt lat="42.463206" lon="-5.887231">
        <ele>827.818</ele>
        <time>2013-06-26T07:44:35Z</time>
      </trkpt>
      <trkpt lat="42.463175" lon="-5.887404">
        <ele>827.807</ele>
        <time>2013-06-26T07:44:47Z</time>
      </trkpt>
      <trkpt lat="42.463170" lon="-5.887428">
        <ele>827.840</ele>
        <time>2013-06-26T07:44:49Z</time>
      </trkpt>
      <trkpt lat="42.463139" lon="-5.887603">
        <ele>827.813</ele>
        <time>2013-06-26T07:45:01Z</time>
      </trkpt>
      <trkpt lat="42.463079" lon="-5.887780">
        <ele>827.892</ele>
        <time>2013-06-26T07:45:11Z</time>
      </trkpt>
      <trkpt lat="42.463035" lon="-5.887919">
        <ele>828.347</ele>
        <time>2013-06-26T07:45:21Z</time>
      </trkpt>
      <trkpt lat="42.463056" lon="-5.888028">
        <ele>828.373</ele>
        <time>2013-06-26T07:45:30Z</time>
      </trkpt>
      <trkpt lat="42.463060" lon="-5.888067">
        <ele>828.331</ele>
        <time>2013-06-26T07:45:42Z</time>
      </trkpt>
      <trkpt lat="42.463169" lon="-5.888123">
        <ele>828.317</ele>
        <time>2013-06-26T07:45:53Z</time>
      </trkpt>
      <trkpt lat="42.463236" lon="-5.888184">
        <ele>828.382</ele>
        <time>2013-06-26T07:46:02Z</time>
      </trkpt>
      <trkpt lat="42.463323" lon="-5.888202">
        <ele>828.343</ele>
        <time>2013-06-26T07:46:11Z</time>
      </trkpt>
      <trkpt lat="42.463412" lon="-5.888252">
        <ele>828.317</ele>
        <time>2013-06-26T07:46:19Z</time>
      </trkpt>
      <trkpt lat="42.463506" lon="-5.888290">
        <ele>828.307</ele>
        <time>2013-06-26T07:46:27Z</time>
      </trkpt>
      <trkpt lat="42.463631" lon="-5.888366">
        <ele>828.312</ele>
        <time>2013-06-26T07:46:39Z</time>
      </trkpt>
      <trkpt lat="42.463637" lon="-5.888373">
        <ele>827.815</ele>
        <time>2013-06-26T07:46:41Z</time>
      </trkpt>
      <trkpt lat="42.463752" lon="-5.888446">
        <ele>827.874</ele>
        <time>2013-06-26T07:46:52Z</time>
      </trkpt>
      <trkpt lat="42.463761" lon="-5.888452">
        <ele>828.319</ele>
        <time>2013-06-26T07:46:59Z</time>
      </trkpt>
      <trkpt lat="42.463836" lon="-5.888491">
        <ele>828.335</ele>
        <time>2013-06-26T07:47:07Z</time>
      </trkpt>
      <trkpt lat="42.463935" lon="-5.888582">
        <ele>828.313</ele>
        <time>2013-06-26T07:47:18Z</time>
      </trkpt>
      <trkpt lat="42.464023" lon="-5.888701">
        <ele>828.869</ele>
        <time>2013-06-26T07:47:29Z</time>
      </trkpt>
      <trkpt lat="42.464109" lon="-5.888832">
        <ele>828.342</ele>
        <time>2013-06-26T07:47:40Z</time>
      </trkpt>
      <trkpt lat="42.464200" lon="-5.888991">
        <ele>828.322</ele>
        <time>2013-06-26T07:47:52Z</time>
      </trkpt>
      <trkpt lat="42.464290" lon="-5.889144">
        <ele>828.814</ele>
        <time>2013-06-26T07:48:03Z</time>
      </trkpt>
      <trkpt lat="42.464356" lon="-5.889271">
        <ele>828.807</ele>
        <time>2013-06-26T07:48:13Z</time>
      </trkpt>
      <trkpt lat="42.464421" lon="-5.889344">
        <ele>828.338</ele>
        <time>2013-06-26T07:48:22Z</time>
      </trkpt>
      <trkpt lat="42.464457" lon="-5.889439">
        <ele>828.361</ele>
        <time>2013-06-26T07:48:29Z</time>
      </trkpt>
      <trkpt lat="42.464540" lon="-5.889578">
        <ele>828.370</ele>
        <time>2013-06-26T07:48:39Z</time>
      </trkpt>
      <trkpt lat="42.464633" lon="-5.889734">
        <ele>828.355</ele>
        <time>2013-06-26T07:48:51Z</time>
      </trkpt>
      <trkpt lat="42.464700" lon="-5.889863">
        <ele>828.851</ele>
        <time>2013-06-26T07:49:01Z</time>
      </trkpt>
      <trkpt lat="42.464779" lon="-5.890001">
        <ele>828.319</ele>
        <time>2013-06-26T07:49:11Z</time>
      </trkpt>
      <trkpt lat="42.464875" lon="-5.890168">
        <ele>829.385</ele>
        <time>2013-06-26T07:49:23Z</time>
      </trkpt>
      <trkpt lat="42.464959" lon="-5.890313">
        <ele>828.376</ele>
        <time>2013-06-26T07:49:34Z</time>
      </trkpt>
      <trkpt lat="42.465035" lon="-5.890453">
        <ele>828.890</ele>
        <time>2013-06-26T07:49:45Z</time>
      </trkpt>
      <trkpt lat="42.465112" lon="-5.890593">
        <ele>828.819</ele>
        <time>2013-06-26T07:49:56Z</time>
      </trkpt>
      <trkpt lat="42.465162" lon="-5.890685">
        <ele>828.807</ele>
        <time>2013-06-26T07:50:03Z</time>
      </trkpt>
      <trkpt lat="42.465167" lon="-5.890692">
        <ele>828.831</ele>
        <time>2013-06-26T07:50:04Z</time>
      </trkpt>
      <trkpt lat="42.465260" lon="-5.890873">
        <ele>828.384</ele>
        <time>2013-06-26T07:50:17Z</time>
      </trkpt>
      <trkpt lat="42.465333" lon="-5.891000">
        <ele>828.893</ele>
        <time>2013-06-26T07:50:26Z</time>
      </trkpt>
      <trkpt lat="42.465414" lon="-5.891116">
        <ele>828.828</ele>
        <time>2013-06-26T07:50:36Z</time>
      </trkpt>
      <trkpt lat="42.465493" lon="-5.891238">
        <ele>828.834</ele>
        <time>2013-06-26T07:50:46Z</time>
      </trkpt>
      <trkpt lat="42.465574" lon="-5.891359">
        <ele>828.832</ele>
        <time>2013-06-26T07:50:56Z</time>
      </trkpt>
      <trkpt lat="42.465676" lon="-5.891515">
        <ele>828.858</ele>
        <time>2013-06-26T07:51:08Z</time>
      </trkpt>
      <trkpt lat="42.465749" lon="-5.891657">
        <ele>828.845</ele>
        <time>2013-06-26T07:51:18Z</time>
      </trkpt>
      <trkpt lat="42.465824" lon="-5.891785">
        <ele>828.847</ele>
        <time>2013-06-26T07:51:28Z</time>
      </trkpt>
      <trkpt lat="42.465903" lon="-5.891918">
        <ele>828.811</ele>
        <time>2013-06-26T07:51:38Z</time>
      </trkpt>
      <trkpt lat="42.465986" lon="-5.892084">
        <ele>828.807</ele>
        <time>2013-06-26T07:51:50Z</time>
      </trkpt>
      <trkpt lat="42.466049" lon="-5.892194">
        <ele>828.868</ele>
        <time>2013-06-26T07:51:59Z</time>
      </trkpt>
      <trkpt lat="42.466118" lon="-5.892306">
        <ele>828.881</ele>
        <time>2013-06-26T07:52:08Z</time>
      </trkpt>
      <trkpt lat="42.466200" lon="-5.892471">
        <ele>828.820</ele>
        <time>2013-06-26T07:52:20Z</time>
      </trkpt>
      <trkpt lat="42.466269" lon="-5.892608">
        <ele>828.395</ele>
        <time>2013-06-26T07:52:30Z</time>
      </trkpt>
      <trkpt lat="42.466344" lon="-5.892747">
        <ele>828.891</ele>
        <time>2013-06-26T07:52:40Z</time>
      </trkpt>
      <trkpt lat="42.466422" lon="-5.892899">
        <ele>828.389</ele>
        <time>2013-06-26T07:52:51Z</time>
      </trkpt>
      <trkpt lat="42.466498" lon="-5.893056">
        <ele>828.815</ele>
        <time>2013-06-26T07:53:02Z</time>
      </trkpt>
      <trkpt lat="42.466559" lon="-5.893177">
        <ele>828.841</ele>
        <time>2013-06-26T07:53:11Z</time>
      </trkpt>
      <trkpt lat="42.466623" lon="-5.893291">
        <ele>828.881</ele>
        <time>2013-06-26T07:53:20Z</time>
      </trkpt>
      <trkpt lat="42.466656" lon="-5.893374">
        <ele>828.309</ele>
        <time>2013-06-26T07:53:27Z</time>
      </trkpt>
      <trkpt lat="42.466724" lon="-5.893504">
        <ele>828.807</ele>
        <time>2013-06-26T07:53:37Z</time>
      </trkpt>
      <trkpt lat="42.466792" lon="-5.893634">
        <ele>828.838</ele>
        <time>2013-06-26T07:53:47Z</time>
      </trkpt>
      <trkpt lat="42.466860" lon="-5.893763">
        <ele>828.811</ele>
        <time>2013-06-26T07:53:57Z</time>
      </trkpt>
      <trkpt lat="42.466946" lon="-5.893923">
        <ele>828.850</ele>
        <time>2013-06-26T07:54:08Z</time>
      </trkpt>
      <trkpt lat="42.467028" lon="-5.894076">
        <ele>829.365</ele>
        <time>2013-06-26T07:54:19Z</time>
      </trkpt>
      <trkpt lat="42.467103" lon="-5.894229">
        <ele>829.311</ele>
        <time>2013-06-26T07:54:30Z</time>
      </trkpt>
      <trkpt lat="42.467177" lon="-5.894389">
        <ele>829.889</ele>
        <time>2013-06-26T07:54:41Z</time>
      </trkpt>
      <trkpt lat="42.467216" lon="-5.894536">
        <ele>828.865</ele>
        <time>2013-06-26T07:54:51Z</time>
      </trkpt>
      <trkpt lat="42.467220" lon="-5.894552">
        <ele>829.825</ele>
        <time>2013-06-26T07:54:53Z</time>
      </trkpt>
      <trkpt lat="42.467223" lon="-5.894638">
        <ele>829.826</ele>
        <time>2013-06-26T07:54:58Z</time>
      </trkpt>
      <trkpt lat="42.467230" lon="-5.894847">
        <ele>829.808</ele>
        <time>2013-06-26T07:55:10Z</time>
      </trkpt>
      <trkpt lat="42.467209" lon="-5.895045">
        <ele>829.307</ele>
        <time>2013-06-26T07:55:22Z</time>
      </trkpt>
      <trkpt lat="42.467194" lon="-5.895179">
        <ele>829.856</ele>
        <time>2013-06-26T07:55:30Z</time>
      </trkpt>
      <trkpt lat="42.467172" lon="-5.895354">
        <ele>829.359</ele>
        <time>2013-06-26T07:55:41Z</time>
      </trkpt>
      <trkpt lat="42.467156" lon="-5.895439">
        <ele>829.828</ele>
        <time>2013-06-26T07:55:47Z</time>
      </trkpt>
      <trkpt lat="42.467150" lon="-5.895473">
        <ele>829.833</ele>
        <time>2013-06-26T07:55:49Z</time>
      </trkpt>
      <trkpt lat="42.467133" lon="-5.895689">
        <ele>829.819</ele>
        <time>2013-06-26T07:56:02Z</time>
      </trkpt>
      <trkpt lat="42.467122" lon="-5.895799">
        <ele>829.847</ele>
        <time>2013-06-26T07:56:09Z</time>
      </trkpt>
      <trkpt lat="42.467116" lon="-5.895971">
        <ele>829.863</ele>
        <time>2013-06-26T07:56:20Z</time>
      </trkpt>
      <trkpt lat="42.467127" lon="-5.896128">
        <ele>829.382</ele>
        <time>2013-06-26T07:56:30Z</time>
      </trkpt>
      <trkpt lat="42.467149" lon="-5.896270">
        <ele>829.843</ele>
        <time>2013-06-26T07:56:39Z</time>
      </trkpt>
      <trkpt lat="42.467177" lon="-5.896420">
        <ele>830.217</ele>
        <time>2013-06-26T07:56:48Z</time>
      </trkpt>
      <trkpt lat="42.467197" lon="-5.896573">
        <ele>829.807</ele>
        <time>2013-06-26T07:56:58Z</time>
      </trkpt>
      <trkpt lat="42.467222" lon="-5.896749">
        <ele>830.262</ele>
        <time>2013-06-26T07:57:09Z</time>
      </trkpt>
      <trkpt lat="42.467243" lon="-5.896910">
        <ele>829.815</ele>
        <time>2013-06-26T07:57:19Z</time>
      </trkpt>
      <trkpt lat="42.467245" lon="-5.896938">
        <ele>829.814</ele>
        <time>2013-06-26T07:57:21Z</time>
      </trkpt>
      <trkpt lat="42.467243" lon="-5.897006">
        <ele>829.869</ele>
        <time>2013-06-26T07:57:25Z</time>
      </trkpt>
      <trkpt lat="42.467260" lon="-5.897189">
        <ele>829.865</ele>
        <time>2013-06-26T07:57:37Z</time>
      </trkpt>
      <trkpt lat="42.467263" lon="-5.897263">
        <ele>830.243</ele>
        <time>2013-06-26T07:57:43Z</time>
      </trkpt>
      <trkpt lat="42.467274" lon="-5.897461">
        <ele>829.879</ele>
        <time>2013-06-26T07:57:55Z</time>
      </trkpt>
      <trkpt lat="42.467290" lon="-5.897638">
        <ele>830.255</ele>
        <time>2013-06-26T07:58:06Z</time>
      </trkpt>
      <trkpt lat="42.467306" lon="-5.897813">
        <ele>829.807</ele>
        <time>2013-06-26T07:58:17Z</time>
      </trkpt>
      <trkpt lat="42.467328" lon="-5.897981">
        <ele>829.817</ele>
        <time>2013-06-26T07:58:28Z</time>
      </trkpt>
      <trkpt lat="42.467356" lon="-5.898193">
        <ele>829.807</ele>
        <time>2013-06-26T07:58:41Z</time>
      </trkpt>
      <trkpt lat="42.467374" lon="-5.898344">
        <ele>830.289</ele>
        <time>2013-06-26T07:58:50Z</time>
      </trkpt>
      <trkpt lat="42.467397" lon="-5.898562">
        <ele>830.242</ele>
        <time>2013-06-26T07:59:03Z</time>
      </trkpt>
      <trkpt lat="42.467418" lon="-5.898747">
        <ele>830.791</ele>
        <time>2013-06-26T07:59:14Z</time>
      </trkpt>
      <trkpt lat="42.467442" lon="-5.898903">
        <ele>830.236</ele>
        <time>2013-06-26T07:59:24Z</time>
      </trkpt>
      <trkpt lat="42.467459" lon="-5.899061">
        <ele>830.232</ele>
        <time>2013-06-26T07:59:34Z</time>
      </trkpt>
      <trkpt lat="42.467477" lon="-5.899221">
        <ele>830.770</ele>
        <time>2013-06-26T07:59:44Z</time>
      </trkpt>
      <trkpt lat="42.467498" lon="-5.899367">
        <ele>830.256</ele>
        <time>2013-06-26T07:59:53Z</time>
      </trkpt>
      <trkpt lat="42.467513" lon="-5.899539">
        <ele>830.762</ele>
        <time>2013-06-26T08:00:04Z</time>
      </trkpt>
      <trkpt lat="42.467530" lon="-5.899729">
        <ele>830.783</ele>
        <time>2013-06-26T08:00:16Z</time>
      </trkpt>
      <trkpt lat="42.467570" lon="-5.899833">
        <ele>830.711</ele>
        <time>2013-06-26T08:00:24Z</time>
      </trkpt>
      <trkpt lat="42.467591" lon="-5.900005">
        <ele>830.207</ele>
        <time>2013-06-26T08:00:35Z</time>
      </trkpt>
      <trkpt lat="42.467610" lon="-5.900144">
        <ele>830.750</ele>
        <time>2013-06-26T08:00:44Z</time>
      </trkpt>
      <trkpt lat="42.467621" lon="-5.900214">
        <ele>830.753</ele>
        <time>2013-06-26T08:00:52Z</time>
      </trkpt>
      <trkpt lat="42.467630" lon="-5.900350">
        <ele>830.762</ele>
        <time>2013-06-26T08:01:02Z</time>
      </trkpt>
      <trkpt lat="42.467645" lon="-5.900537">
        <ele>830.787</ele>
        <time>2013-06-26T08:01:13Z</time>
      </trkpt>
      <trkpt lat="42.467675" lon="-5.900760">
        <ele>830.733</ele>
        <time>2013-06-26T08:01:25Z</time>
      </trkpt>
      <trkpt lat="42.467712" lon="-5.900944">
        <ele>830.721</ele>
        <time>2013-06-26T08:01:37Z</time>
      </trkpt>
      <trkpt lat="42.467730" lon="-5.901110">
        <ele>830.297</ele>
        <time>2013-06-26T08:01:48Z</time>
      </trkpt>
      <trkpt lat="42.467750" lon="-5.901304">
        <ele>830.222</ele>
        <time>2013-06-26T08:02:00Z</time>
      </trkpt>
      <trkpt lat="42.467771" lon="-5.901498">
        <ele>830.762</ele>
        <time>2013-06-26T08:02:12Z</time>
      </trkpt>
      <trkpt lat="42.467787" lon="-5.901636">
        <ele>830.708</ele>
        <time>2013-06-26T08:02:21Z</time>
      </trkpt>
      <trkpt lat="42.467813" lon="-5.901817">
        <ele>830.707</ele>
        <time>2013-06-26T08:02:32Z</time>
      </trkpt>
      <trkpt lat="42.467837" lon="-5.902036">
        <ele>830.756</ele>
        <time>2013-06-26T08:02:45Z</time>
      </trkpt>
      <trkpt lat="42.467859" lon="-5.902223">
        <ele>830.729</ele>
        <time>2013-06-26T08:02:56Z</time>
      </trkpt>
      <trkpt lat="42.467881" lon="-5.902430">
        <ele>830.718</ele>
        <time>2013-06-26T08:03:09Z</time>
      </trkpt>
      <trkpt lat="42.467897" lon="-5.902621">
        <ele>831.213</ele>
        <time>2013-06-26T08:03:20Z</time>
      </trkpt>
      <trkpt lat="42.467918" lon="-5.902822">
        <ele>830.779</ele>
        <time>2013-06-26T08:03:32Z</time>
      </trkpt>
      <trkpt lat="42.467939" lon="-5.903009">
        <ele>830.727</ele>
        <time>2013-06-26T08:03:44Z</time>
      </trkpt>
      <trkpt lat="42.467959" lon="-5.903210">
        <ele>830.713</ele>
        <time>2013-06-26T08:03:56Z</time>
      </trkpt>
      <trkpt lat="42.467980" lon="-5.903367">
        <ele>830.765</ele>
        <time>2013-06-26T08:04:06Z</time>
      </trkpt>
      <trkpt lat="42.468012" lon="-5.903533">
        <ele>831.268</ele>
        <time>2013-06-26T08:04:17Z</time>
      </trkpt>
      <trkpt lat="42.468036" lon="-5.903674">
        <ele>831.714</ele>
        <time>2013-06-26T08:04:27Z</time>
      </trkpt>
      <trkpt lat="42.468050" lon="-5.903808">
        <ele>831.707</ele>
        <time>2013-06-26T08:04:36Z</time>
      </trkpt>
      <trkpt lat="42.468045" lon="-5.903928">
        <ele>831.750</ele>
        <time>2013-06-26T08:04:45Z</time>
      </trkpt>
      <trkpt lat="42.468054" lon="-5.904053">
        <ele>831.733</ele>
        <time>2013-06-26T08:04:54Z</time>
      </trkpt>
      <trkpt lat="42.468075" lon="-5.904171">
        <ele>831.712</ele>
        <time>2013-06-26T08:05:04Z</time>
      </trkpt>
      <trkpt lat="42.468092" lon="-5.904307">
        <ele>831.747</ele>
        <time>2013-06-26T08:05:14Z</time>
      </trkpt>
      <trkpt lat="42.468097" lon="-5.904477">
        <ele>831.763</ele>
        <time>2013-06-26T08:05:23Z</time>
      </trkpt>
      <trkpt lat="42.468103" lon="-5.904632">
        <ele>832.281</ele>
        <time>2013-06-26T08:05:32Z</time>
      </trkpt>
      <trkpt lat="42.468135" lon="-5.904806">
        <ele>832.297</ele>
        <time>2013-06-26T08:05:43Z</time>
      </trkpt>
      <trkpt lat="42.468147" lon="-5.904980">
        <ele>832.252</ele>
        <time>2013-06-26T08:05:54Z</time>
      </trkpt>
      <trkpt lat="42.468161" lon="-5.905120">
        <ele>832.653</ele>
        <time>2013-06-26T08:06:03Z</time>
      </trkpt>
      <trkpt lat="42.468159" lon="-5.905283">
        <ele>833.108</ele>
        <time>2013-06-26T08:06:13Z</time>
      </trkpt>
      <trkpt lat="42.468164" lon="-5.905431">
        <ele>833.107</ele>
        <time>2013-06-26T08:06:22Z</time>
      </trkpt>
      <trkpt lat="42.468193" lon="-5.905637">
        <ele>833.119</ele>
        <time>2013-06-26T08:06:34Z</time>
      </trkpt>
      <trkpt lat="42.468214" lon="-5.905815">
        <ele>833.132</ele>
        <time>2013-06-26T08:06:46Z</time>
      </trkpt>
      <trkpt lat="42.468203" lon="-5.905895">
        <ele>833.131</ele>
        <time>2013-06-26T08:06:52Z</time>
      </trkpt>
      <trkpt lat="42.468220" lon="-5.906059">
        <ele>833.636</ele>
        <time>2013-06-26T08:07:02Z</time>
      </trkpt>
      <trkpt lat="42.468234" lon="-5.906287">
        <ele>833.662</ele>
        <time>2013-06-26T08:07:16Z</time>
      </trkpt>
      <trkpt lat="42.468250" lon="-5.906450">
        <ele>833.120</ele>
        <time>2013-06-26T08:07:26Z</time>
      </trkpt>
      <trkpt lat="42.468260" lon="-5.906630">
        <ele>833.146</ele>
        <time>2013-06-26T08:07:37Z</time>
      </trkpt>
      <trkpt lat="42.468274" lon="-5.906800">
        <ele>833.152</ele>
        <time>2013-06-26T08:07:48Z</time>
      </trkpt>
      <trkpt lat="42.468296" lon="-5.906964">
        <ele>833.153</ele>
        <time>2013-06-26T08:07:58Z</time>
      </trkpt>
      <trkpt lat="42.468308" lon="-5.907112">
        <ele>833.108</ele>
        <time>2013-06-26T08:08:08Z</time>
      </trkpt>
      <trkpt lat="42.468317" lon="-5.907283">
        <ele>833.107</ele>
        <time>2013-06-26T08:08:19Z</time>
      </trkpt>
      <trkpt lat="42.468341" lon="-5.907409">
        <ele>833.639</ele>
        <time>2013-06-26T08:08:28Z</time>
      </trkpt>
      <trkpt lat="42.468352" lon="-5.907556">
        <ele>833.662</ele>
        <time>2013-06-26T08:08:37Z</time>
      </trkpt>
      <trkpt lat="42.468372" lon="-5.907731">
        <ele>833.691</ele>
        <time>2013-06-26T08:08:48Z</time>
      </trkpt>
      <trkpt lat="42.468379" lon="-5.907884">
        <ele>833.676</ele>
        <time>2013-06-26T08:08:58Z</time>
      </trkpt>
      <trkpt lat="42.468401" lon="-5.908013">
        <ele>833.642</ele>
        <time>2013-06-26T08:09:07Z</time>
      </trkpt>
      <trkpt lat="42.468418" lon="-5.908133">
        <ele>833.630</ele>
        <time>2013-06-26T08:09:15Z</time>
      </trkpt>
      <trkpt lat="42.468418" lon="-5.908266">
        <ele>833.696</ele>
        <time>2013-06-26T08:09:24Z</time>
      </trkpt>
      <trkpt lat="42.468423" lon="-5.908430">
        <ele>833.612</ele>
        <time>2013-06-26T08:09:34Z</time>
      </trkpt>
      <trkpt lat="42.468444" lon="-5.908544">
        <ele>830.232</ele>
        <time>2013-06-26T08:09:42Z</time>
      </trkpt>
      <trkpt lat="42.468448" lon="-5.908558">
        <ele>834.105</ele>
        <time>2013-06-26T08:09:43Z</time>
      </trkpt>
      <trkpt lat="42.468452" lon="-5.908573">
        <ele>837.907</ele>
        <time>2013-06-26T08:09:44Z</time>
      </trkpt>
      <trkpt lat="42.468456" lon="-5.908587">
        <ele>833.125</ele>
        <time>2013-06-26T08:09:45Z</time>
      </trkpt>
      <trkpt lat="42.468498" lon="-5.908766">
        <ele>832.658</ele>
        <time>2013-06-26T08:09:57Z</time>
      </trkpt>
      <trkpt lat="42.468517" lon="-5.908853">
        <ele>837.947</ele>
        <time>2013-06-26T08:10:03Z</time>
      </trkpt>
      <trkpt lat="42.468518" lon="-5.908867">
        <ele>830.222</ele>
        <time>2013-06-26T08:10:04Z</time>
      </trkpt>
      <trkpt lat="42.468520" lon="-5.908882">
        <ele>836.598</ele>
        <time>2013-06-26T08:10:05Z</time>
      </trkpt>
      <trkpt lat="42.468523" lon="-5.908898">
        <ele>833.146</ele>
        <time>2013-06-26T08:10:06Z</time>
      </trkpt>
      <trkpt lat="42.468526" lon="-5.908927">
        <ele>827.822</ele>
        <time>2013-06-26T08:10:08Z</time>
      </trkpt>
      <trkpt lat="42.468530" lon="-5.908941">
        <ele>834.175</ele>
        <time>2013-06-26T08:10:09Z</time>
      </trkpt>
      <trkpt lat="42.468535" lon="-5.908957">
        <ele>840.328</ele>
        <time>2013-06-26T08:10:10Z</time>
      </trkpt>
      <trkpt lat="42.468540" lon="-5.908970">
        <ele>832.220</ele>
        <time>2013-06-26T08:10:11Z</time>
      </trkpt>
      <trkpt lat="42.468562" lon="-5.909020">
        <ele>837.907</ele>
        <time>2013-06-26T08:10:15Z</time>
      </trkpt>
      <trkpt lat="42.468568" lon="-5.909034">
        <ele>831.271</ele>
        <time>2013-06-26T08:10:16Z</time>
      </trkpt>
      <trkpt lat="42.468574" lon="-5.909051">
        <ele>831.254</ele>
        <time>2013-06-26T08:10:17Z</time>
      </trkpt>
      <trkpt lat="42.468578" lon="-5.909069">
        <ele>836.583</ele>
        <time>2013-06-26T08:10:18Z</time>
      </trkpt>
      <trkpt lat="42.468582" lon="-5.909085">
        <ele>829.848</ele>
        <time>2013-06-26T08:10:19Z</time>
      </trkpt>
      <trkpt lat="42.468585" lon="-5.909100">
        <ele>830.294</ele>
        <time>2013-06-26T08:10:20Z</time>
      </trkpt>
      <trkpt lat="42.468589" lon="-5.909115">
        <ele>837.082</ele>
        <time>2013-06-26T08:10:21Z</time>
      </trkpt>
      <trkpt lat="42.468594" lon="-5.909130">
        <ele>834.638</ele>
        <time>2013-06-26T08:10:22Z</time>
      </trkpt>
      <trkpt lat="42.468638" lon="-5.909294">
        <ele>833.611</ele>
        <time>2013-06-26T08:10:32Z</time>
      </trkpt>
      <trkpt lat="42.468668" lon="-5.909384">
        <ele>834.121</ele>
        <time>2013-06-26T08:10:38Z</time>
      </trkpt>
      <trkpt lat="42.468695" lon="-5.909489">
        <ele>834.103</ele>
        <time>2013-06-26T08:10:46Z</time>
      </trkpt>
      <trkpt lat="42.468722" lon="-5.909593">
        <ele>834.607</ele>
        <time>2013-06-26T08:10:55Z</time>
      </trkpt>
      <trkpt lat="42.468756" lon="-5.909717">
        <ele>834.655</ele>
        <time>2013-06-26T08:11:03Z</time>
      </trkpt>
      <trkpt lat="42.468798" lon="-5.909848">
        <ele>834.158</ele>
        <time>2013-06-26T08:11:11Z</time>
      </trkpt>
      <trkpt lat="42.468835" lon="-5.909981">
        <ele>834.167</ele>
        <time>2013-06-26T08:11:19Z</time>
      </trkpt>
      <trkpt lat="42.468874" lon="-5.910081">
        <ele>834.642</ele>
        <time>2013-06-26T08:11:26Z</time>
      </trkpt>
      <trkpt lat="42.468901" lon="-5.910144">
        <ele>834.668</ele>
        <time>2013-06-26T08:11:30Z</time>
      </trkpt>
      <trkpt lat="42.469006" lon="-5.910257">
        <ele>835.526</ele>
        <time>2013-06-26T08:11:41Z</time>
      </trkpt>
      <trkpt lat="42.469090" lon="-5.910330">
        <ele>835.042</ele>
        <time>2013-06-26T08:11:50Z</time>
      </trkpt>
      <trkpt lat="42.469164" lon="-5.910397">
        <ele>835.016</ele>
        <time>2013-06-26T08:11:58Z</time>
      </trkpt>
      <trkpt lat="42.469255" lon="-5.910467">
        <ele>835.076</ele>
        <time>2013-06-26T08:12:07Z</time>
      </trkpt>
      <trkpt lat="42.469352" lon="-5.910486">
        <ele>835.013</ele>
        <time>2013-06-26T08:12:16Z</time>
      </trkpt>
      <trkpt lat="42.469423" lon="-5.910465">
        <ele>835.507</ele>
        <time>2013-06-26T08:12:24Z</time>
      </trkpt>
      <trkpt lat="42.469442" lon="-5.910471">
        <ele>835.555</ele>
        <time>2013-06-26T08:12:26Z</time>
      </trkpt>
      <trkpt lat="42.469474" lon="-5.910465">
        <ele>835.528</ele>
        <time>2013-06-26T08:12:29Z</time>
      </trkpt>
      <trkpt lat="42.469586" lon="-5.910374">
        <ele>835.537</ele>
        <time>2013-06-26T08:12:40Z</time>
      </trkpt>
      <trkpt lat="42.469657" lon="-5.910304">
        <ele>836.042</ele>
        <time>2013-06-26T08:12:49Z</time>
      </trkpt>
      <trkpt lat="42.469675" lon="-5.910284">
        <ele>836.018</ele>
        <time>2013-06-26T08:12:51Z</time>
      </trkpt>
      <trkpt lat="42.469709" lon="-5.910246">
        <ele>835.546</ele>
        <time>2013-06-26T08:12:55Z</time>
      </trkpt>
      <trkpt lat="42.469788" lon="-5.910181">
        <ele>836.022</ele>
        <time>2013-06-26T08:13:03Z</time>
      </trkpt>
      <trkpt lat="42.469820" lon="-5.910162">
        <ele>835.528</ele>
        <time>2013-06-26T08:13:06Z</time>
      </trkpt>
      <trkpt lat="42.469897" lon="-5.910146">
        <ele>836.589</ele>
        <time>2013-06-26T08:13:15Z</time>
      </trkpt>
      <trkpt lat="42.469912" lon="-5.910168">
        <ele>836.517</ele>
        <time>2013-06-26T08:13:25Z</time>
      </trkpt>
      <trkpt lat="42.469973" lon="-5.910251">
        <ele>836.507</ele>
        <time>2013-06-26T08:13:40Z</time>
      </trkpt>
      <trkpt lat="42.469985" lon="-5.910324">
        <ele>836.546</ele>
        <time>2013-06-26T08:13:54Z</time>
      </trkpt>
      <trkpt lat="42.469925" lon="-5.910408">
        <ele>836.599</ele>
        <time>2013-06-26T08:14:07Z</time>
      </trkpt>
      <trkpt lat="42.469930" lon="-5.910401">
        <ele>836.538</ele>
        <time>2013-06-26T08:14:20Z</time>
      </trkpt>
      <trkpt lat="42.469905" lon="-5.910315">
        <ele>836.553</ele>
        <time>2013-06-26T08:14:33Z</time>
      </trkpt>
      <trkpt lat="42.469949" lon="-5.910278">
        <ele>836.069</ele>
        <time>2013-06-26T08:14:47Z</time>
      </trkpt>
      <trkpt lat="42.469961" lon="-5.910281">
        <ele>836.517</ele>
        <time>2013-06-26T08:14:57Z</time>
      </trkpt>
      <trkpt lat="42.469959" lon="-5.910320">
        <ele>837.033</ele>
        <time>2013-06-26T08:15:10Z</time>
      </trkpt>
      <trkpt lat="42.469964" lon="-5.910349">
        <ele>837.069</ele>
        <time>2013-06-26T08:15:23Z</time>
      </trkpt>
      <trkpt lat="42.469984" lon="-5.910271">
        <ele>837.004</ele>
        <time>2013-06-26T08:15:36Z</time>
      </trkpt>
      <trkpt lat="42.469949" lon="-5.910303">
        <ele>836.524</ele>
        <time>2013-06-26T08:15:52Z</time>
      </trkpt>
      <trkpt lat="42.469909" lon="-5.910327">
        <ele>837.007</ele>
        <time>2013-06-26T08:15:59Z</time>
      </trkpt>
      <trkpt lat="42.469866" lon="-5.910213">
        <ele>837.030</ele>
        <time>2013-06-26T08:16:27Z</time>
      </trkpt>
      <trkpt lat="42.469890" lon="-5.910214">
        <ele>837.073</ele>
        <time>2013-06-26T08:16:39Z</time>
      </trkpt>
      <trkpt lat="42.469929" lon="-5.910222">
        <ele>837.012</ele>
        <time>2013-06-26T08:16:45Z</time>
      </trkpt>
      <trkpt lat="42.470006" lon="-5.910097">
        <ele>837.597</ele>
        <time>2013-06-26T08:16:58Z</time>
      </trkpt>
      <trkpt lat="42.469937" lon="-5.910215">
        <ele>837.093</ele>
        <time>2013-06-26T08:17:16Z</time>
      </trkpt>
      <trkpt lat="42.469920" lon="-5.910218">
        <ele>836.581</ele>
        <time>2013-06-26T08:17:32Z</time>
      </trkpt>
      <trkpt lat="42.469892" lon="-5.910211">
        <ele>836.557</ele>
        <time>2013-06-26T08:17:58Z</time>
      </trkpt>
      <trkpt lat="42.469885" lon="-5.910215">
        <ele>837.064</ele>
        <time>2013-06-26T08:18:14Z</time>
      </trkpt>
      <trkpt lat="42.469886" lon="-5.910228">
        <ele>837.006</ele>
        <time>2013-06-26T08:18:28Z</time>
      </trkpt>
      <trkpt lat="42.469919" lon="-5.910181">
        <ele>837.016</ele>
        <time>2013-06-26T08:18:45Z</time>
      </trkpt>
      <trkpt lat="42.469920" lon="-5.910173">
        <ele>837.507</ele>
        <time>2013-06-26T08:19:06Z</time>
      </trkpt>
      <trkpt lat="42.469895" lon="-5.910198">
        <ele>837.580</ele>
        <time>2013-06-26T08:19:26Z</time>
      </trkpt>
      <trkpt lat="42.469878" lon="-5.910206">
        <ele>835.043</ele>
        <time>2013-06-26T08:19:43Z</time>
      </trkpt>
      <trkpt lat="42.469868" lon="-5.910196">
        <ele>833.162</ele>
        <time>2013-06-26T09:04:38Z</time>
      </trkpt>
      <trkpt lat="42.470074" lon="-5.910453">
        <ele>833.147</ele>
        <time>2013-06-26T09:04:39Z</time>
      </trkpt>
      <trkpt lat="42.469873" lon="-5.910129">
        <ele>833.633</ele>
        <time>2013-06-26T09:04:48Z</time>
      </trkpt>
      <trkpt lat="42.469851" lon="-5.910125">
        <ele>834.671</ele>
        <time>2013-06-26T09:04:55Z</time>
      </trkpt>
      <trkpt lat="42.469856" lon="-5.910140">
        <ele>835.597</ele>
        <time>2013-06-26T09:05:02Z</time>
      </trkpt>
      <trkpt lat="42.469847" lon="-5.910157">
        <ele>838.966</ele>
        <time>2013-06-26T09:05:13Z</time>
      </trkpt>
      <trkpt lat="42.469836" lon="-5.910182">
        <ele>840.329</ele>
        <time>2013-06-26T09:05:21Z</time>
      </trkpt>
      <trkpt lat="42.469838" lon="-5.910159">
        <ele>840.821</ele>
        <time>2013-06-26T09:05:27Z</time>
      </trkpt>
      <trkpt lat="42.469845" lon="-5.910136">
        <ele>842.307</ele>
        <time>2013-06-26T09:05:40Z</time>
      </trkpt>
      <trkpt lat="42.469837" lon="-5.910102">
        <ele>845.160</ele>
        <time>2013-06-26T09:05:59Z</time>
      </trkpt>
      <trkpt lat="42.469830" lon="-5.910093">
        <ele>846.673</ele>
        <time>2013-06-26T09:06:06Z</time>
      </trkpt>
      <trkpt lat="42.469797" lon="-5.910132">
        <ele>847.132</ele>
        <time>2013-06-26T09:06:15Z</time>
      </trkpt>
      <trkpt lat="42.469768" lon="-5.910150">
        <ele>848.037</ele>
        <time>2013-06-26T09:06:25Z</time>
      </trkpt>
      <trkpt lat="42.469771" lon="-5.910141">
        <ele>848.523</ele>
        <time>2013-06-26T09:06:39Z</time>
      </trkpt>
      <trkpt lat="42.469770" lon="-5.910147">
        <ele>848.041</ele>
        <time>2013-06-26T09:06:49Z</time>
      </trkpt>
      <trkpt lat="42.469761" lon="-5.910155">
        <ele>848.067</ele>
        <time>2013-06-26T09:06:57Z</time>
      </trkpt>
      <trkpt lat="42.469772" lon="-5.910164">
        <ele>848.539</ele>
        <time>2013-06-26T09:07:04Z</time>
      </trkpt>
      <trkpt lat="42.469765" lon="-5.910170">
        <ele>848.501</ele>
        <time>2013-06-26T09:07:15Z</time>
      </trkpt>
      <trkpt lat="42.469740" lon="-5.910204">
        <ele>847.521</ele>
        <time>2013-06-26T09:07:23Z</time>
      </trkpt>
      <trkpt lat="42.469686" lon="-5.910262">
        <ele>847.507</ele>
        <time>2013-06-26T09:07:31Z</time>
      </trkpt>
      <trkpt lat="42.469651" lon="-5.910280">
        <ele>847.577</ele>
        <time>2013-06-26T09:07:38Z</time>
      </trkpt>
      <trkpt lat="42.469629" lon="-5.910310">
        <ele>848.020</ele>
        <time>2013-06-26T09:07:45Z</time>
      </trkpt>
      <trkpt lat="42.469588" lon="-5.910346">
        <ele>848.099</ele>
        <time>2013-06-26T09:07:52Z</time>
      </trkpt>
      <trkpt lat="42.469612" lon="-5.910501">
        <ele>848.024</ele>
        <time>2013-06-26T09:08:00Z</time>
      </trkpt>
      <trkpt lat="42.469644" lon="-5.910557">
        <ele>848.510</ele>
        <time>2013-06-26T09:08:08Z</time>
      </trkpt>
      <trkpt lat="42.469711" lon="-5.910638">
        <ele>848.068</ele>
        <time>2013-06-26T09:08:21Z</time>
      </trkpt>
      <trkpt lat="42.469785" lon="-5.910711">
        <ele>848.074</ele>
        <time>2013-06-26T09:08:31Z</time>
      </trkpt>
      <trkpt lat="42.469867" lon="-5.910781">
        <ele>847.526</ele>
        <time>2013-06-26T09:08:40Z</time>
      </trkpt>
      <trkpt lat="42.469870" lon="-5.910883">
        <ele>848.047</ele>
        <time>2013-06-26T09:08:49Z</time>
      </trkpt>
      <trkpt lat="42.469894" lon="-5.910999">
        <ele>847.111</ele>
        <time>2013-06-26T09:08:59Z</time>
      </trkpt>
      <trkpt lat="42.469967" lon="-5.911141">
        <ele>848.007</ele>
        <time>2013-06-26T09:09:11Z</time>
      </trkpt>
      <trkpt lat="42.469989" lon="-5.911179">
        <ele>847.526</ele>
        <time>2013-06-26T09:09:15Z</time>
      </trkpt>
      <trkpt lat="42.470037" lon="-5.911304">
        <ele>847.519</ele>
        <time>2013-06-26T09:09:26Z</time>
      </trkpt>
      <trkpt lat="42.470101" lon="-5.911368">
        <ele>847.558</ele>
        <time>2013-06-26T09:09:36Z</time>
      </trkpt>
      <trkpt lat="42.470186" lon="-5.911418">
        <ele>848.083</ele>
        <time>2013-06-26T09:09:45Z</time>
      </trkpt>
      <trkpt lat="42.470286" lon="-5.911516">
        <ele>848.079</ele>
        <time>2013-06-26T09:09:55Z</time>
      </trkpt>
      <trkpt lat="42.470334" lon="-5.911580">
        <ele>847.547</ele>
        <time>2013-06-26T09:10:03Z</time>
      </trkpt>
      <trkpt lat="42.470318" lon="-5.911697">
        <ele>847.533</ele>
        <time>2013-06-26T09:10:13Z</time>
      </trkpt>
      <trkpt lat="42.470284" lon="-5.911834">
        <ele>847.532</ele>
        <time>2013-06-26T09:10:25Z</time>
      </trkpt>
      <trkpt lat="42.470271" lon="-5.911906">
        <ele>847.592</ele>
        <time>2013-06-26T09:10:31Z</time>
      </trkpt>
      <trkpt lat="42.470253" lon="-5.912035">
        <ele>847.511</ele>
        <time>2013-06-26T09:10:42Z</time>
      </trkpt>
      <trkpt lat="42.470262" lon="-5.912143">
        <ele>846.607</ele>
        <time>2013-06-26T09:10:48Z</time>
      </trkpt>
      <trkpt lat="42.470290" lon="-5.912296">
        <ele>847.597</ele>
        <time>2013-06-26T09:10:59Z</time>
      </trkpt>
      <trkpt lat="42.470292" lon="-5.912450">
        <ele>847.170</ele>
        <time>2013-06-26T09:11:09Z</time>
      </trkpt>
      <trkpt lat="42.470321" lon="-5.912527">
        <ele>846.649</ele>
        <time>2013-06-26T09:11:17Z</time>
      </trkpt>
      <trkpt lat="42.470384" lon="-5.912647">
        <ele>847.554</ele>
        <time>2013-06-26T09:11:28Z</time>
      </trkpt>
      <trkpt lat="42.470441" lon="-5.912748">
        <ele>847.530</ele>
        <time>2013-06-26T09:11:38Z</time>
      </trkpt>
      <trkpt lat="42.470487" lon="-5.912856">
        <ele>847.538</ele>
        <time>2013-06-26T09:11:47Z</time>
      </trkpt>
      <trkpt lat="42.470578" lon="-5.913008">
        <ele>848.044</ele>
        <time>2013-06-26T09:11:59Z</time>
      </trkpt>
      <trkpt lat="42.470678" lon="-5.913141">
        <ele>848.545</ele>
        <time>2013-06-26T09:12:10Z</time>
      </trkpt>
      <trkpt lat="42.470748" lon="-5.913273">
        <ele>849.047</ele>
        <time>2013-06-26T09:12:21Z</time>
      </trkpt>
      <trkpt lat="42.470784" lon="-5.913368">
        <ele>849.511</ele>
        <time>2013-06-26T09:12:29Z</time>
      </trkpt>
      <trkpt lat="42.470772" lon="-5.913481">
        <ele>849.007</ele>
        <time>2013-06-26T09:12:36Z</time>
      </trkpt>
      <trkpt lat="42.470744" lon="-5.913541">
        <ele>848.548</ele>
        <time>2013-06-26T09:12:43Z</time>
      </trkpt>
      <trkpt lat="42.470698" lon="-5.913664">
        <ele>849.061</ele>
        <time>2013-06-26T09:12:53Z</time>
      </trkpt>
      <trkpt lat="42.470686" lon="-5.913725">
        <ele>849.580</ele>
        <time>2013-06-26T09:13:00Z</time>
      </trkpt>
      <trkpt lat="42.470649" lon="-5.913799">
        <ele>849.095</ele>
        <time>2013-06-26T09:13:10Z</time>
      </trkpt>
      <trkpt lat="42.470608" lon="-5.913900">
        <ele>849.031</ele>
        <time>2013-06-26T09:13:18Z</time>
      </trkpt>
      <trkpt lat="42.470560" lon="-5.914053">
        <ele>849.049</ele>
        <time>2013-06-26T09:13:29Z</time>
      </trkpt>
      <trkpt lat="42.470552" lon="-5.914202">
        <ele>849.515</ele>
        <time>2013-06-26T09:13:39Z</time>
      </trkpt>
      <trkpt lat="42.470557" lon="-5.914272">
        <ele>849.038</ele>
        <time>2013-06-26T09:13:44Z</time>
      </trkpt>
      <trkpt lat="42.470571" lon="-5.914345">
        <ele>849.070</ele>
        <time>2013-06-26T09:13:49Z</time>
      </trkpt>
      <trkpt lat="42.470610" lon="-5.914505">
        <ele>849.517</ele>
        <time>2013-06-26T09:14:00Z</time>
      </trkpt>
      <trkpt lat="42.470641" lon="-5.914640">
        <ele>849.007</ele>
        <time>2013-06-26T09:14:09Z</time>
      </trkpt>
      <trkpt lat="42.470690" lon="-5.914768">
        <ele>849.987</ele>
        <time>2013-06-26T09:14:19Z</time>
      </trkpt>
      <trkpt lat="42.470739" lon="-5.914926">
        <ele>849.980</ele>
        <time>2013-06-26T09:14:30Z</time>
      </trkpt>
      <trkpt lat="42.470778" lon="-5.915064">
        <ele>849.989</ele>
        <time>2013-06-26T09:14:39Z</time>
      </trkpt>
      <trkpt lat="42.470759" lon="-5.915186">
        <ele>850.444</ele>
        <time>2013-06-26T09:14:48Z</time>
      </trkpt>
      <trkpt lat="42.470661" lon="-5.915249">
        <ele>850.920</ele>
        <time>2013-06-26T09:14:58Z</time>
      </trkpt>
      <trkpt lat="42.470571" lon="-5.915308">
        <ele>850.938</ele>
        <time>2013-06-26T09:15:07Z</time>
      </trkpt>
      <trkpt lat="42.470466" lon="-5.915373">
        <ele>851.454</ele>
        <time>2013-06-26T09:15:17Z</time>
      </trkpt>
      <trkpt lat="42.470377" lon="-5.915460">
        <ele>851.495</ele>
        <time>2013-06-26T09:15:28Z</time>
      </trkpt>
      <trkpt lat="42.470308" lon="-5.915568">
        <ele>851.949</ele>
        <time>2013-06-26T09:15:38Z</time>
      </trkpt>
      <trkpt lat="42.470249" lon="-5.915686">
        <ele>851.923</ele>
        <time>2013-06-26T09:15:47Z</time>
      </trkpt>
      <trkpt lat="42.470182" lon="-5.915835">
        <ele>852.407</ele>
        <time>2013-06-26T09:15:57Z</time>
      </trkpt>
      <trkpt lat="42.470104" lon="-5.915966">
        <ele>852.463</ele>
        <time>2013-06-26T09:16:08Z</time>
      </trkpt>
      <trkpt lat="42.470016" lon="-5.916039">
        <ele>851.916</ele>
        <time>2013-06-26T09:16:18Z</time>
      </trkpt>
      <trkpt lat="42.469991" lon="-5.916053">
        <ele>851.935</ele>
        <time>2013-06-26T09:16:20Z</time>
      </trkpt>
      <trkpt lat="42.469860" lon="-5.916131">
        <ele>851.990</ele>
        <time>2013-06-26T09:16:31Z</time>
      </trkpt>
      <trkpt lat="42.469750" lon="-5.916208">
        <ele>852.476</ele>
        <time>2013-06-26T09:16:40Z</time>
      </trkpt>
      <trkpt lat="42.469643" lon="-5.916342">
        <ele>851.914</ele>
        <time>2013-06-26T09:16:51Z</time>
      </trkpt>
      <trkpt lat="42.469553" lon="-5.916473">
        <ele>851.920</ele>
        <time>2013-06-26T09:17:02Z</time>
      </trkpt>
      <trkpt lat="42.469463" lon="-5.916581">
        <ele>851.931</ele>
        <time>2013-06-26T09:17:12Z</time>
      </trkpt>
      <trkpt lat="42.469374" lon="-5.916667">
        <ele>851.961</ele>
        <time>2013-06-26T09:17:21Z</time>
      </trkpt>
      <trkpt lat="42.469262" lon="-5.916763">
        <ele>851.907</ele>
        <time>2013-06-26T09:17:32Z</time>
      </trkpt>
      <trkpt lat="42.469153" lon="-5.916863">
        <ele>852.407</ele>
        <time>2013-06-26T09:17:43Z</time>
      </trkpt>
      <trkpt lat="42.469071" lon="-5.916956">
        <ele>852.847</ele>
        <time>2013-06-26T09:17:53Z</time>
      </trkpt>
      <trkpt lat="42.468953" lon="-5.917056">
        <ele>853.810</ele>
        <time>2013-06-26T09:18:05Z</time>
      </trkpt>
      <trkpt lat="42.468856" lon="-5.917164">
        <ele>853.369</ele>
        <time>2013-06-26T09:18:15Z</time>
      </trkpt>
      <trkpt lat="42.468697" lon="-5.917296">
        <ele>853.814</ele>
        <time>2013-06-26T09:18:28Z</time>
      </trkpt>
      <trkpt lat="42.468591" lon="-5.917419">
        <ele>854.820</ele>
        <time>2013-06-26T09:18:39Z</time>
      </trkpt>
      <trkpt lat="42.468503" lon="-5.917532">
        <ele>854.328</ele>
        <time>2013-06-26T09:18:49Z</time>
      </trkpt>
      <trkpt lat="42.468352" lon="-5.917648">
        <ele>855.244</ele>
        <time>2013-06-26T09:19:02Z</time>
      </trkpt>
      <trkpt lat="42.468260" lon="-5.917756">
        <ele>855.236</ele>
        <time>2013-06-26T09:19:11Z</time>
      </trkpt>
      <trkpt lat="42.468197" lon="-5.917888">
        <ele>857.217</ele>
        <time>2013-06-26T09:19:20Z</time>
      </trkpt>
      <trkpt lat="42.468181" lon="-5.917901">
        <ele>857.218</ele>
        <time>2013-06-26T09:19:22Z</time>
      </trkpt>
      <trkpt lat="42.468143" lon="-5.917918">
        <ele>857.607</ele>
        <time>2013-06-26T09:19:26Z</time>
      </trkpt>
      <trkpt lat="42.468086" lon="-5.918040">
        <ele>857.617</ele>
        <time>2013-06-26T09:19:36Z</time>
      </trkpt>
      <trkpt lat="42.468021" lon="-5.918141">
        <ele>858.150</ele>
        <time>2013-06-26T09:19:44Z</time>
      </trkpt>
      <trkpt lat="42.467965" lon="-5.918251">
        <ele>858.619</ele>
        <time>2013-06-26T09:19:52Z</time>
      </trkpt>
      <trkpt lat="42.467929" lon="-5.918306">
        <ele>859.124</ele>
        <time>2013-06-26T09:19:56Z</time>
      </trkpt>
      <trkpt lat="42.467894" lon="-5.918380">
        <ele>859.190</ele>
        <time>2013-06-26T09:20:01Z</time>
      </trkpt>
      <trkpt lat="42.467823" lon="-5.918491">
        <ele>859.698</ele>
        <time>2013-06-26T09:20:10Z</time>
      </trkpt>
      <trkpt lat="42.467750" lon="-5.918574">
        <ele>859.684</ele>
        <time>2013-06-26T09:20:18Z</time>
      </trkpt>
      <trkpt lat="42.467662" lon="-5.918651">
        <ele>860.095</ele>
        <time>2013-06-26T09:20:27Z</time>
      </trkpt>
      <trkpt lat="42.467557" lon="-5.918703">
        <ele>859.649</ele>
        <time>2013-06-26T09:20:36Z</time>
      </trkpt>
      <trkpt lat="42.467461" lon="-5.918744">
        <ele>860.523</ele>
        <time>2013-06-26T09:20:44Z</time>
      </trkpt>
      <trkpt lat="42.467344" lon="-5.918769">
        <ele>861.007</ele>
        <time>2013-06-26T09:20:53Z</time>
      </trkpt>
      <trkpt lat="42.467254" lon="-5.918813">
        <ele>861.583</ele>
        <time>2013-06-26T09:21:01Z</time>
      </trkpt>
      <trkpt lat="42.467144" lon="-5.918882">
        <ele>861.536</ele>
        <time>2013-06-26T09:21:11Z</time>
      </trkpt>
      <trkpt lat="42.467042" lon="-5.918933">
        <ele>861.585</ele>
        <time>2013-06-26T09:21:20Z</time>
      </trkpt>
      <trkpt lat="42.466904" lon="-5.919032">
        <ele>862.440</ele>
        <time>2013-06-26T09:21:33Z</time>
      </trkpt>
      <trkpt lat="42.466788" lon="-5.919121">
        <ele>862.036</ele>
        <time>2013-06-26T09:21:44Z</time>
      </trkpt>
      <trkpt lat="42.466671" lon="-5.919224">
        <ele>862.964</ele>
        <time>2013-06-26T09:21:55Z</time>
      </trkpt>
      <trkpt lat="42.466583" lon="-5.919313">
        <ele>862.990</ele>
        <time>2013-06-26T09:22:04Z</time>
      </trkpt>
      <trkpt lat="42.466496" lon="-5.919431">
        <ele>862.938</ele>
        <time>2013-06-26T09:22:14Z</time>
      </trkpt>
      <trkpt lat="42.466432" lon="-5.919544">
        <ele>863.470</ele>
        <time>2013-06-26T09:22:23Z</time>
      </trkpt>
      <trkpt lat="42.466362" lon="-5.919678">
        <ele>863.917</ele>
        <time>2013-06-26T09:22:33Z</time>
      </trkpt>
      <trkpt lat="42.466295" lon="-5.919810">
        <ele>864.407</ele>
        <time>2013-06-26T09:22:43Z</time>
      </trkpt>
      <trkpt lat="42.466238" lon="-5.919900">
        <ele>864.417</ele>
        <time>2013-06-26T09:22:50Z</time>
      </trkpt>
      <trkpt lat="42.466199" lon="-5.920060">
        <ele>865.370</ele>
        <time>2013-06-26T09:23:00Z</time>
      </trkpt>
      <trkpt lat="42.466169" lon="-5.920199">
        <ele>866.829</ele>
        <time>2013-06-26T09:23:09Z</time>
      </trkpt>
      <trkpt lat="42.466097" lon="-5.920342">
        <ele>867.364</ele>
        <time>2013-06-26T09:23:20Z</time>
      </trkpt>
      <trkpt lat="42.466068" lon="-5.920485">
        <ele>868.710</ele>
        <time>2013-06-26T09:23:30Z</time>
      </trkpt>
      <trkpt lat="42.466064" lon="-5.920513">
        <ele>869.298</ele>
        <time>2013-06-26T09:23:32Z</time>
      </trkpt>
      <trkpt lat="42.465992" lon="-5.920636">
        <ele>869.244</ele>
        <time>2013-06-26T09:23:41Z</time>
      </trkpt>
      <trkpt lat="42.465964" lon="-5.920693">
        <ele>869.758</ele>
        <time>2013-06-26T09:23:45Z</time>
      </trkpt>
      <trkpt lat="42.465870" lon="-5.920817">
        <ele>869.752</ele>
        <time>2013-06-26T09:23:56Z</time>
      </trkpt>
      <trkpt lat="42.465763" lon="-5.920911">
        <ele>869.717</ele>
        <time>2013-06-26T09:24:06Z</time>
      </trkpt>
      <trkpt lat="42.465672" lon="-5.921034">
        <ele>869.707</ele>
        <time>2013-06-26T09:24:16Z</time>
      </trkpt>
      <trkpt lat="42.465573" lon="-5.921187">
        <ele>870.649</ele>
        <time>2013-06-26T09:24:28Z</time>
      </trkpt>
      <trkpt lat="42.465494" lon="-5.921306">
        <ele>870.192</ele>
        <time>2013-06-26T09:24:37Z</time>
      </trkpt>
      <trkpt lat="42.465418" lon="-5.921408">
        <ele>871.111</ele>
        <time>2013-06-26T09:24:46Z</time>
      </trkpt>
      <trkpt lat="42.465331" lon="-5.921523">
        <ele>870.676</ele>
        <time>2013-06-26T09:24:56Z</time>
      </trkpt>
      <trkpt lat="42.465223" lon="-5.921659">
        <ele>871.692</ele>
        <time>2013-06-26T09:25:08Z</time>
      </trkpt>
      <trkpt lat="42.465120" lon="-5.921756">
        <ele>871.630</ele>
        <time>2013-06-26T09:25:18Z</time>
      </trkpt>
      <trkpt lat="42.465030" lon="-5.921845">
        <ele>871.656</ele>
        <time>2013-06-26T09:25:27Z</time>
      </trkpt>
      <trkpt lat="42.464907" lon="-5.921964">
        <ele>872.179</ele>
        <time>2013-06-26T09:25:39Z</time>
      </trkpt>
      <trkpt lat="42.464799" lon="-5.922093">
        <ele>872.505</ele>
        <time>2013-06-26T09:25:50Z</time>
      </trkpt>
      <trkpt lat="42.464756" lon="-5.922222">
        <ele>873.525</ele>
        <time>2013-06-26T09:25:58Z</time>
      </trkpt>
      <trkpt lat="42.464737" lon="-5.922384">
        <ele>874.007</ele>
        <time>2013-06-26T09:26:08Z</time>
      </trkpt>
      <trkpt lat="42.464712" lon="-5.922524">
        <ele>875.421</ele>
        <time>2013-06-26T09:26:17Z</time>
      </trkpt>
      <trkpt lat="42.464696" lon="-5.922661">
        <ele>875.964</ele>
        <time>2013-06-26T09:26:26Z</time>
      </trkpt>
      <trkpt lat="42.464674" lon="-5.922793">
        <ele>876.943</ele>
        <time>2013-06-26T09:26:35Z</time>
      </trkpt>
      <trkpt lat="42.464670" lon="-5.922825">
        <ele>877.878</ele>
        <time>2013-06-26T09:26:37Z</time>
      </trkpt>
      <trkpt lat="42.464645" lon="-5.922983">
        <ele>878.864</ele>
        <time>2013-06-26T09:26:47Z</time>
      </trkpt>
      <trkpt lat="42.464613" lon="-5.923093">
        <ele>880.272</ele>
        <time>2013-06-26T09:26:56Z</time>
      </trkpt>
      <trkpt lat="42.464588" lon="-5.923120">
        <ele>880.728</ele>
        <time>2013-06-26T09:27:03Z</time>
      </trkpt>
      <trkpt lat="42.464581" lon="-5.923136">
        <ele>881.219</ele>
        <time>2013-06-26T09:27:15Z</time>
      </trkpt>
      <trkpt lat="42.464563" lon="-5.923240">
        <ele>881.209</ele>
        <time>2013-06-26T09:27:22Z</time>
      </trkpt>
      <trkpt lat="42.464565" lon="-5.923315">
        <ele>881.719</ele>
        <time>2013-06-26T09:27:26Z</time>
      </trkpt>
      <trkpt lat="42.464549" lon="-5.923402">
        <ele>882.607</ele>
        <time>2013-06-26T09:27:31Z</time>
      </trkpt>
      <trkpt lat="42.464552" lon="-5.923601">
        <ele>884.185</ele>
        <time>2013-06-26T09:27:43Z</time>
      </trkpt>
      <trkpt lat="42.464539" lon="-5.923759">
        <ele>884.658</ele>
        <time>2013-06-26T09:27:53Z</time>
      </trkpt>
      <trkpt lat="42.464528" lon="-5.923918">
        <ele>884.617</ele>
        <time>2013-06-26T09:28:03Z</time>
      </trkpt>
      <trkpt lat="42.464477" lon="-5.924071">
        <ele>885.542</ele>
        <time>2013-06-26T09:28:13Z</time>
      </trkpt>
      <trkpt lat="42.464416" lon="-5.924240">
        <ele>885.038</ele>
        <time>2013-06-26T09:28:24Z</time>
      </trkpt>
      <trkpt lat="42.464356" lon="-5.924382">
        <ele>884.196</ele>
        <time>2013-06-26T09:28:34Z</time>
      </trkpt>
      <trkpt lat="42.464290" lon="-5.924549">
        <ele>883.182</ele>
        <time>2013-06-26T09:28:45Z</time>
      </trkpt>
      <trkpt lat="42.464220" lon="-5.924738">
        <ele>881.771</ele>
        <time>2013-06-26T09:28:57Z</time>
      </trkpt>
      <trkpt lat="42.464185" lon="-5.924882">
        <ele>881.241</ele>
        <time>2013-06-26T09:29:06Z</time>
      </trkpt>
      <trkpt lat="42.464147" lon="-5.925037">
        <ele>880.215</ele>
        <time>2013-06-26T09:29:16Z</time>
      </trkpt>
      <trkpt lat="42.464104" lon="-5.925197">
        <ele>879.307</ele>
        <time>2013-06-26T09:29:26Z</time>
      </trkpt>
      <trkpt lat="42.464041" lon="-5.925385">
        <ele>877.321</ele>
        <time>2013-06-26T09:29:38Z</time>
      </trkpt>
      <trkpt lat="42.464003" lon="-5.925523">
        <ele>876.424</ele>
        <time>2013-06-26T09:29:47Z</time>
      </trkpt>
      <trkpt lat="42.463940" lon="-5.925694">
        <ele>874.973</ele>
        <time>2013-06-26T09:29:58Z</time>
      </trkpt>
      <trkpt lat="42.463889" lon="-5.925792">
        <ele>873.568</ele>
        <time>2013-06-26T09:30:07Z</time>
      </trkpt>
      <trkpt lat="42.463825" lon="-5.925952">
        <ele>873.054</ele>
        <time>2013-06-26T09:30:17Z</time>
      </trkpt>
      <trkpt lat="42.463752" lon="-5.926117">
        <ele>871.162</ele>
        <time>2013-06-26T09:30:28Z</time>
      </trkpt>
      <trkpt lat="42.463683" lon="-5.926290">
        <ele>870.118</ele>
        <time>2013-06-26T09:30:39Z</time>
      </trkpt>
      <trkpt lat="42.463602" lon="-5.926462">
        <ele>869.282</ele>
        <time>2013-06-26T09:30:51Z</time>
      </trkpt>
      <trkpt lat="42.463516" lon="-5.926626">
        <ele>868.743</ele>
        <time>2013-06-26T09:31:03Z</time>
      </trkpt>
      <trkpt lat="42.463427" lon="-5.926810">
        <ele>867.717</ele>
        <time>2013-06-26T09:31:16Z</time>
      </trkpt>
      <trkpt lat="42.463344" lon="-5.926984">
        <ele>866.807</ele>
        <time>2013-06-26T09:31:28Z</time>
      </trkpt>
      <trkpt lat="42.463268" lon="-5.927135">
        <ele>865.322</ele>
        <time>2013-06-26T09:31:39Z</time>
      </trkpt>
      <trkpt lat="42.463195" lon="-5.927275">
        <ele>864.825</ele>
        <time>2013-06-26T09:31:49Z</time>
      </trkpt>
      <trkpt lat="42.463120" lon="-5.927412">
        <ele>864.464</ele>
        <time>2013-06-26T09:31:59Z</time>
      </trkpt>
      <trkpt lat="42.463049" lon="-5.927553">
        <ele>863.939</ele>
        <time>2013-06-26T09:32:09Z</time>
      </trkpt>
      <trkpt lat="42.462963" lon="-5.927717">
        <ele>863.475</ele>
        <time>2013-06-26T09:32:21Z</time>
      </trkpt>
      <trkpt lat="42.462884" lon="-5.927874">
        <ele>862.483</ele>
        <time>2013-06-26T09:32:32Z</time>
      </trkpt>
      <trkpt lat="42.462800" lon="-5.928026">
        <ele>862.419</ele>
        <time>2013-06-26T09:32:43Z</time>
      </trkpt>
      <trkpt lat="42.462725" lon="-5.928181">
        <ele>862.019</ele>
        <time>2013-06-26T09:32:54Z</time>
      </trkpt>
      <trkpt lat="42.462632" lon="-5.928348">
        <ele>861.509</ele>
        <time>2013-06-26T09:33:06Z</time>
      </trkpt>
      <trkpt lat="42.462533" lon="-5.928501">
        <ele>861.019</ele>
        <time>2013-06-26T09:33:18Z</time>
      </trkpt>
      <trkpt lat="42.462502" lon="-5.928537">
        <ele>861.007</ele>
        <time>2013-06-26T09:33:21Z</time>
      </trkpt>
      <trkpt lat="42.462441" lon="-5.928587">
        <ele>860.085</ele>
        <time>2013-06-26T09:33:28Z</time>
      </trkpt>
      <trkpt lat="42.462442" lon="-5.928612">
        <ele>860.528</ele>
        <time>2013-06-26T09:33:31Z</time>
      </trkpt>
      <trkpt lat="42.462403" lon="-5.928666">
        <ele>860.047</ele>
        <time>2013-06-26T09:33:36Z</time>
      </trkpt>
      <trkpt lat="42.462280" lon="-5.928710">
        <ele>859.622</ele>
        <time>2013-06-26T09:33:46Z</time>
      </trkpt>
      <trkpt lat="42.462175" lon="-5.928723">
        <ele>860.098</ele>
        <time>2013-06-26T09:33:55Z</time>
      </trkpt>
      <trkpt lat="42.462052" lon="-5.928732">
        <ele>859.666</ele>
        <time>2013-06-26T09:34:04Z</time>
      </trkpt>
      <trkpt lat="42.461878" lon="-5.928762">
        <ele>859.162</ele>
        <time>2013-06-26T09:34:17Z</time>
      </trkpt>
      <trkpt lat="42.461810" lon="-5.928775">
        <ele>855.255</ele>
        <time>2013-06-26T09:34:22Z</time>
      </trkpt>
      <trkpt lat="42.461795" lon="-5.928782">
        <ele>861.507</ele>
        <time>2013-06-26T09:34:23Z</time>
      </trkpt>
      <trkpt lat="42.461731" lon="-5.928793">
        <ele>852.417</ele>
        <time>2013-06-26T09:34:28Z</time>
      </trkpt>
      <trkpt lat="42.461718" lon="-5.928794">
        <ele>852.407</ele>
        <time>2013-06-26T09:34:29Z</time>
      </trkpt>
      <trkpt lat="42.461706" lon="-5.928797">
        <ele>863.499</ele>
        <time>2013-06-26T09:34:30Z</time>
      </trkpt>
      <trkpt lat="42.461696" lon="-5.928799">
        <ele>849.922</ele>
        <time>2013-06-26T09:34:31Z</time>
      </trkpt>
      <trkpt lat="42.461685" lon="-5.928802">
        <ele>867.331</ele>
        <time>2013-06-26T09:34:32Z</time>
      </trkpt>
      <trkpt lat="42.461674" lon="-5.928806">
        <ele>854.326</ele>
        <time>2013-06-26T09:34:33Z</time>
      </trkpt>
      <trkpt lat="42.461662" lon="-5.928811">
        <ele>862.092</ele>
        <time>2013-06-26T09:34:34Z</time>
      </trkpt>
      <trkpt lat="42.461649" lon="-5.928817">
        <ele>859.170</ele>
        <time>2013-06-26T09:34:35Z</time>
      </trkpt>
      <trkpt lat="42.461533" lon="-5.928848">
        <ele>858.656</ele>
        <time>2013-06-26T09:34:44Z</time>
      </trkpt>
      <trkpt lat="42.461408" lon="-5.928863">
        <ele>858.194</ele>
        <time>2013-06-26T09:34:54Z</time>
      </trkpt>
      <trkpt lat="42.461318" lon="-5.928891">
        <ele>857.657</ele>
        <time>2013-06-26T09:35:02Z</time>
      </trkpt>
      <trkpt lat="42.461233" lon="-5.928918">
        <ele>857.622</ele>
        <time>2013-06-26T09:35:10Z</time>
      </trkpt>
      <trkpt lat="42.461172" lon="-5.928937">
        <ele>857.607</ele>
        <time>2013-06-26T09:35:18Z</time>
      </trkpt>
      <trkpt lat="42.461010" lon="-5.928967">
        <ele>857.243</ele>
        <time>2013-06-26T09:35:30Z</time>
      </trkpt>
      <trkpt lat="42.460885" lon="-5.928997">
        <ele>857.686</ele>
        <time>2013-06-26T09:35:40Z</time>
      </trkpt>
      <trkpt lat="42.460814" lon="-5.929025">
        <ele>856.225</ele>
        <time>2013-06-26T09:35:46Z</time>
      </trkpt>
      <trkpt lat="42.460772" lon="-5.929039">
        <ele>856.760</ele>
        <time>2013-06-26T09:35:52Z</time>
      </trkpt>
      <trkpt lat="42.460668" lon="-5.929076">
        <ele>853.816</ele>
        <time>2013-06-26T09:36:00Z</time>
      </trkpt>
      <trkpt lat="42.460656" lon="-5.929079">
        <ele>860.084</ele>
        <time>2013-06-26T09:36:01Z</time>
      </trkpt>
      <trkpt lat="42.460642" lon="-5.929081">
        <ele>855.710</ele>
        <time>2013-06-26T09:36:02Z</time>
      </trkpt>
      <trkpt lat="42.460536" lon="-5.929168">
        <ele>857.674</ele>
        <time>2013-06-26T09:36:11Z</time>
      </trkpt>
      <trkpt lat="42.460438" lon="-5.929334">
        <ele>855.256</ele>
        <time>2013-06-26T09:36:23Z</time>
      </trkpt>
      <trkpt lat="42.460421" lon="-5.929365">
        <ele>860.521</ele>
        <time>2013-06-26T09:36:25Z</time>
      </trkpt>
      <trkpt lat="42.460396" lon="-5.929422">
        <ele>853.307</ele>
        <time>2013-06-26T09:36:29Z</time>
      </trkpt>
      <trkpt lat="42.460387" lon="-5.929438">
        <ele>859.121</ele>
        <time>2013-06-26T09:36:30Z</time>
      </trkpt>
      <trkpt lat="42.460283" lon="-5.929551">
        <ele>857.624</ele>
        <time>2013-06-26T09:36:40Z</time>
      </trkpt>
      <trkpt lat="42.460178" lon="-5.929638">
        <ele>857.683</ele>
        <time>2013-06-26T09:36:48Z</time>
      </trkpt>
      <trkpt lat="42.460066" lon="-5.929734">
        <ele>857.698</ele>
        <time>2013-06-26T09:36:59Z</time>
      </trkpt>
      <trkpt lat="42.459946" lon="-5.929827">
        <ele>858.624</ele>
        <time>2013-06-26T09:37:10Z</time>
      </trkpt>
      <trkpt lat="42.459851" lon="-5.929918">
        <ele>859.132</ele>
        <time>2013-06-26T09:37:19Z</time>
      </trkpt>
      <trkpt lat="42.459756" lon="-5.930031">
        <ele>858.618</ele>
        <time>2013-06-26T09:37:30Z</time>
      </trkpt>
      <trkpt lat="42.459672" lon="-5.930119">
        <ele>858.647</ele>
        <time>2013-06-26T09:37:39Z</time>
      </trkpt>
      <trkpt lat="42.459563" lon="-5.930134">
        <ele>858.629</ele>
        <time>2013-06-26T09:37:48Z</time>
      </trkpt>
      <trkpt lat="42.459435" lon="-5.930189">
        <ele>859.121</ele>
        <time>2013-06-26T09:37:59Z</time>
      </trkpt>
      <trkpt lat="42.459337" lon="-5.930217">
        <ele>859.107</ele>
        <time>2013-06-26T09:38:07Z</time>
      </trkpt>
      <trkpt lat="42.459231" lon="-5.930206">
        <ele>858.168</ele>
        <time>2013-06-26T09:38:16Z</time>
      </trkpt>
      <trkpt lat="42.459130" lon="-5.930171">
        <ele>858.191</ele>
        <time>2013-06-26T09:38:26Z</time>
      </trkpt>
      <trkpt lat="42.459026" lon="-5.930181">
        <ele>858.180</ele>
        <time>2013-06-26T09:38:31Z</time>
      </trkpt>
      <trkpt lat="42.459011" lon="-5.930178">
        <ele>858.195</ele>
        <time>2013-06-26T09:38:32Z</time>
      </trkpt>
      <trkpt lat="42.458840" lon="-5.930189">
        <ele>858.171</ele>
        <time>2013-06-26T09:38:43Z</time>
      </trkpt>
      <trkpt lat="42.458802" lon="-5.930218">
        <ele>858.659</ele>
        <time>2013-06-26T09:38:46Z</time>
      </trkpt>
      <trkpt lat="42.458703" lon="-5.930261">
        <ele>858.685</ele>
        <time>2013-06-26T09:38:55Z</time>
      </trkpt>
      <trkpt lat="42.458599" lon="-5.930292">
        <ele>858.688</ele>
        <time>2013-06-26T09:39:05Z</time>
      </trkpt>
      <trkpt lat="42.458446" lon="-5.930324">
        <ele>858.624</ele>
        <time>2013-06-26T09:39:16Z</time>
      </trkpt>
      <trkpt lat="42.458427" lon="-5.930398">
        <ele>859.126</ele>
        <time>2013-06-26T09:39:23Z</time>
      </trkpt>
      <trkpt lat="42.458452" lon="-5.930529">
        <ele>860.007</ele>
        <time>2013-06-26T09:39:32Z</time>
      </trkpt>
      <trkpt lat="42.458467" lon="-5.930600">
        <ele>860.532</ele>
        <time>2013-06-26T09:39:36Z</time>
      </trkpt>
      <trkpt lat="42.458482" lon="-5.930658">
        <ele>860.545</ele>
        <time>2013-06-26T09:39:40Z</time>
      </trkpt>
      <trkpt lat="42.458467" lon="-5.930732">
        <ele>861.064</ele>
        <time>2013-06-26T09:39:45Z</time>
      </trkpt>
      <trkpt lat="42.458470" lon="-5.930765">
        <ele>861.549</ele>
        <time>2013-06-26T09:39:47Z</time>
      </trkpt>
      <trkpt lat="42.458457" lon="-5.930914">
        <ele>861.595</ele>
        <time>2013-06-26T09:39:54Z</time>
      </trkpt>
      <trkpt lat="42.458531" lon="-5.931033">
        <ele>862.483</ele>
        <time>2013-06-26T09:40:03Z</time>
      </trkpt>
      <trkpt lat="42.458553" lon="-5.931094">
        <ele>862.949</ele>
        <time>2013-06-26T09:40:08Z</time>
      </trkpt>
      <trkpt lat="42.458605" lon="-5.931243">
        <ele>863.449</ele>
        <time>2013-06-26T09:40:20Z</time>
      </trkpt>
      <trkpt lat="42.458658" lon="-5.931367">
        <ele>863.902</ele>
        <time>2013-06-26T09:40:28Z</time>
      </trkpt>
      <trkpt lat="42.458736" lon="-5.931486">
        <ele>864.822</ele>
        <time>2013-06-26T09:40:36Z</time>
      </trkpt>
      <trkpt lat="42.458780" lon="-5.931629">
        <ele>865.807</ele>
        <time>2013-06-26T09:40:45Z</time>
      </trkpt>
      <trkpt lat="42.458836" lon="-5.931735">
        <ele>865.848</ele>
        <time>2013-06-26T09:40:53Z</time>
      </trkpt>
      <trkpt lat="42.458850" lon="-5.931805">
        <ele>866.391</ele>
        <time>2013-06-26T09:40:58Z</time>
      </trkpt>
      <trkpt lat="42.458830" lon="-5.931941">
        <ele>866.840</ele>
        <time>2013-06-26T09:41:05Z</time>
      </trkpt>
      <trkpt lat="42.458900" lon="-5.932060">
        <ele>866.865</ele>
        <time>2013-06-26T09:41:13Z</time>
      </trkpt>
      <trkpt lat="42.459020" lon="-5.932181">
        <ele>867.741</ele>
        <time>2013-06-26T09:41:24Z</time>
      </trkpt>
      <trkpt lat="42.459028" lon="-5.932191">
        <ele>867.719</ele>
        <time>2013-06-26T09:41:25Z</time>
      </trkpt>
      <trkpt lat="42.459127" lon="-5.932313">
        <ele>868.265</ele>
        <time>2013-06-26T09:41:35Z</time>
      </trkpt>
      <trkpt lat="42.459213" lon="-5.932462">
        <ele>868.737</ele>
        <time>2013-06-26T09:41:46Z</time>
      </trkpt>
      <trkpt lat="42.459318" lon="-5.932617">
        <ele>869.249</ele>
        <time>2013-06-26T09:41:58Z</time>
      </trkpt>
      <trkpt lat="42.459326" lon="-5.932632">
        <ele>869.213</ele>
        <time>2013-06-26T09:41:59Z</time>
      </trkpt>
      <trkpt lat="42.459426" lon="-5.932776">
        <ele>869.707</ele>
        <time>2013-06-26T09:42:10Z</time>
      </trkpt>
      <trkpt lat="42.459504" lon="-5.932897">
        <ele>870.197</ele>
        <time>2013-06-26T09:42:20Z</time>
      </trkpt>
      <trkpt lat="42.459550" lon="-5.932922">
        <ele>870.190</ele>
        <time>2013-06-26T09:42:26Z</time>
      </trkpt>
      <trkpt lat="42.459622" lon="-5.933012">
        <ele>870.619</ele>
        <time>2013-06-26T09:42:35Z</time>
      </trkpt>
      <trkpt lat="42.459697" lon="-5.933097">
        <ele>871.194</ele>
        <time>2013-06-26T09:42:44Z</time>
      </trkpt>
      <trkpt lat="42.459689" lon="-5.933108">
        <ele>871.180</ele>
        <time>2013-06-26T09:42:49Z</time>
      </trkpt>
      <trkpt lat="42.459740" lon="-5.933225">
        <ele>872.148</ele>
        <time>2013-06-26T09:42:58Z</time>
      </trkpt>
      <trkpt lat="42.459800" lon="-5.933328">
        <ele>872.534</ele>
        <time>2013-06-26T09:43:06Z</time>
      </trkpt>
      <trkpt lat="42.459850" lon="-5.933465">
        <ele>873.088</ele>
        <time>2013-06-26T09:43:15Z</time>
      </trkpt>
      <trkpt lat="42.459901" lon="-5.933581">
        <ele>873.524</ele>
        <time>2013-06-26T09:43:23Z</time>
      </trkpt>
      <trkpt lat="42.459925" lon="-5.933633">
        <ele>873.526</ele>
        <time>2013-06-26T09:43:27Z</time>
      </trkpt>
      <trkpt lat="42.459966" lon="-5.933791">
        <ele>873.507</ele>
        <time>2013-06-26T09:43:37Z</time>
      </trkpt>
      <trkpt lat="42.459977" lon="-5.933805">
        <ele>874.012</ele>
        <time>2013-06-26T09:43:39Z</time>
      </trkpt>
      <trkpt lat="42.460040" lon="-5.933978">
        <ele>874.035</ele>
        <time>2013-06-26T09:43:50Z</time>
      </trkpt>
      <trkpt lat="42.460095" lon="-5.934130">
        <ele>874.014</ele>
        <time>2013-06-26T09:43:59Z</time>
      </trkpt>
      <trkpt lat="42.460157" lon="-5.934299">
        <ele>873.579</ele>
        <time>2013-06-26T09:44:09Z</time>
      </trkpt>
      <trkpt lat="42.460222" lon="-5.934426">
        <ele>874.065</ele>
        <time>2013-06-26T09:44:18Z</time>
      </trkpt>
      <trkpt lat="42.460298" lon="-5.934590">
        <ele>874.083</ele>
        <time>2013-06-26T09:44:29Z</time>
      </trkpt>
      <trkpt lat="42.460390" lon="-5.934738">
        <ele>874.099</ele>
        <time>2013-06-26T09:44:40Z</time>
      </trkpt>
      <trkpt lat="42.460498" lon="-5.934860">
        <ele>873.547</ele>
        <time>2013-06-26T09:44:50Z</time>
      </trkpt>
      <trkpt lat="42.460599" lon="-5.934962">
        <ele>874.029</ele>
        <time>2013-06-26T09:45:00Z</time>
      </trkpt>
      <trkpt lat="42.460694" lon="-5.935075">
        <ele>873.521</ele>
        <time>2013-06-26T09:45:09Z</time>
      </trkpt>
      <trkpt lat="42.460784" lon="-5.935161">
        <ele>874.007</ele>
        <time>2013-06-26T09:45:17Z</time>
      </trkpt>
      <trkpt lat="42.460881" lon="-5.935317">
        <ele>874.528</ele>
        <time>2013-06-26T09:45:28Z</time>
      </trkpt>
      <trkpt lat="42.460966" lon="-5.935471">
        <ele>874.941</ele>
        <time>2013-06-26T09:45:38Z</time>
      </trkpt>
      <trkpt lat="42.461040" lon="-5.935599">
        <ele>876.460</ele>
        <time>2013-06-26T09:45:48Z</time>
      </trkpt>
      <trkpt lat="42.461125" lon="-5.935774">
        <ele>876.975</ele>
        <time>2013-06-26T09:46:00Z</time>
      </trkpt>
      <trkpt lat="42.461209" lon="-5.935928">
        <ele>877.321</ele>
        <time>2013-06-26T09:46:11Z</time>
      </trkpt>
      <trkpt lat="42.461286" lon="-5.936048">
        <ele>877.839</ele>
        <time>2013-06-26T09:46:20Z</time>
      </trkpt>
      <trkpt lat="42.461399" lon="-5.936197">
        <ele>878.325</ele>
        <time>2013-06-26T09:46:32Z</time>
      </trkpt>
      <trkpt lat="42.461477" lon="-5.936318">
        <ele>879.376</ele>
        <time>2013-06-26T09:46:41Z</time>
      </trkpt>
      <trkpt lat="42.461541" lon="-5.936445">
        <ele>879.790</ele>
        <time>2013-06-26T09:46:50Z</time>
      </trkpt>
      <trkpt lat="42.461607" lon="-5.936618">
        <ele>879.719</ele>
        <time>2013-06-26T09:47:01Z</time>
      </trkpt>
      <trkpt lat="42.461663" lon="-5.936778">
        <ele>879.707</ele>
        <time>2013-06-26T09:47:11Z</time>
      </trkpt>
      <trkpt lat="42.461710" lon="-5.936916">
        <ele>879.781</ele>
        <time>2013-06-26T09:47:20Z</time>
      </trkpt>
      <trkpt lat="42.461788" lon="-5.937078">
        <ele>880.254</ele>
        <time>2013-06-26T09:47:31Z</time>
      </trkpt>
      <trkpt lat="42.461809" lon="-5.937141">
        <ele>880.293</ele>
        <time>2013-06-26T09:47:35Z</time>
      </trkpt>
      <trkpt lat="42.461895" lon="-5.937344">
        <ele>880.768</ele>
        <time>2013-06-26T09:47:47Z</time>
      </trkpt>
      <trkpt lat="42.461954" lon="-5.937490">
        <ele>881.744</ele>
        <time>2013-06-26T09:47:57Z</time>
      </trkpt>
      <trkpt lat="42.462030" lon="-5.937672">
        <ele>881.232</ele>
        <time>2013-06-26T09:48:08Z</time>
      </trkpt>
      <trkpt lat="42.462113" lon="-5.937830">
        <ele>881.758</ele>
        <time>2013-06-26T09:48:18Z</time>
      </trkpt>
      <trkpt lat="42.462189" lon="-5.937950">
        <ele>882.254</ele>
        <time>2013-06-26T09:48:27Z</time>
      </trkpt>
      <trkpt lat="42.462295" lon="-5.938118">
        <ele>882.656</ele>
        <time>2013-06-26T09:48:38Z</time>
      </trkpt>
      <trkpt lat="42.462380" lon="-5.938230">
        <ele>882.611</ele>
        <time>2013-06-26T09:48:47Z</time>
      </trkpt>
      <trkpt lat="42.462492" lon="-5.938403">
        <ele>883.607</ele>
        <time>2013-06-26T09:48:59Z</time>
      </trkpt>
      <trkpt lat="42.462589" lon="-5.938514">
        <ele>883.699</ele>
        <time>2013-06-26T09:49:08Z</time>
      </trkpt>
      <trkpt lat="42.462605" lon="-5.938533">
        <ele>884.122</ele>
        <time>2013-06-26T09:49:14Z</time>
      </trkpt>
      <trkpt lat="42.462635" lon="-5.938586">
        <ele>884.181</ele>
        <time>2013-06-26T09:49:24Z</time>
      </trkpt>
      <trkpt lat="42.462707" lon="-5.938715">
        <ele>885.556</ele>
        <time>2013-06-26T09:49:33Z</time>
      </trkpt>
      <trkpt lat="42.462813" lon="-5.938816">
        <ele>887.072</ele>
        <time>2013-06-26T09:49:43Z</time>
      </trkpt>
      <trkpt lat="42.462911" lon="-5.938918">
        <ele>887.470</ele>
        <time>2013-06-26T09:49:53Z</time>
      </trkpt>
      <trkpt lat="42.463040" lon="-5.939033">
        <ele>888.926</ele>
        <time>2013-06-26T09:50:05Z</time>
      </trkpt>
      <trkpt lat="42.463135" lon="-5.939103">
        <ele>889.869</ele>
        <time>2013-06-26T09:50:13Z</time>
      </trkpt>
      <trkpt lat="42.463258" lon="-5.939176">
        <ele>890.304</ele>
        <time>2013-06-26T09:50:23Z</time>
      </trkpt>
      <trkpt lat="42.463343" lon="-5.939253">
        <ele>891.324</ele>
        <time>2013-06-26T09:50:31Z</time>
      </trkpt>
      <trkpt lat="42.463478" lon="-5.939383">
        <ele>892.707</ele>
        <time>2013-06-26T09:50:44Z</time>
      </trkpt>
      <trkpt lat="42.463537" lon="-5.939431">
        <ele>893.730</ele>
        <time>2013-06-26T09:50:50Z</time>
      </trkpt>
      <trkpt lat="42.463577" lon="-5.939476">
        <ele>893.793</ele>
        <time>2013-06-26T09:50:58Z</time>
      </trkpt>
      <trkpt lat="42.463589" lon="-5.939496">
        <ele>893.722</ele>
        <time>2013-06-26T09:51:06Z</time>
      </trkpt>
      <trkpt lat="42.463593" lon="-5.939503">
        <ele>894.267</ele>
        <time>2013-06-26T09:51:10Z</time>
      </trkpt>
      <trkpt lat="42.463627" lon="-5.939542">
        <ele>893.763</ele>
        <time>2013-06-26T09:51:14Z</time>
      </trkpt>
      <trkpt lat="42.463731" lon="-5.939663">
        <ele>893.731</ele>
        <time>2013-06-26T09:51:24Z</time>
      </trkpt>
      <trkpt lat="42.463818" lon="-5.939814">
        <ele>893.787</ele>
        <time>2013-06-26T09:51:34Z</time>
      </trkpt>
      <trkpt lat="42.463918" lon="-5.939970">
        <ele>892.749</ele>
        <time>2013-06-26T09:51:45Z</time>
      </trkpt>
      <trkpt lat="42.463993" lon="-5.940096">
        <ele>892.702</ele>
        <time>2013-06-26T09:51:53Z</time>
      </trkpt>
      <trkpt lat="42.464079" lon="-5.940232">
        <ele>892.722</ele>
        <time>2013-06-26T09:52:02Z</time>
      </trkpt>
      <trkpt lat="42.464157" lon="-5.940373">
        <ele>893.207</ele>
        <time>2013-06-26T09:52:11Z</time>
      </trkpt>
      <trkpt lat="42.464249" lon="-5.940548">
        <ele>893.248</ele>
        <time>2013-06-26T09:52:22Z</time>
      </trkpt>
      <trkpt lat="42.464336" lon="-5.940711">
        <ele>893.231</ele>
        <time>2013-06-26T09:52:32Z</time>
      </trkpt>
      <trkpt lat="42.464406" lon="-5.940861">
        <ele>893.760</ele>
        <time>2013-06-26T09:52:42Z</time>
      </trkpt>
      <trkpt lat="42.464459" lon="-5.940997">
        <ele>894.215</ele>
        <time>2013-06-26T09:52:51Z</time>
      </trkpt>
      <trkpt lat="42.464491" lon="-5.941141">
        <ele>895.161</ele>
        <time>2013-06-26T09:53:00Z</time>
      </trkpt>
      <trkpt lat="42.464499" lon="-5.941326">
        <ele>895.169</ele>
        <time>2013-06-26T09:53:11Z</time>
      </trkpt>
      <trkpt lat="42.464487" lon="-5.941499">
        <ele>894.695</ele>
        <time>2013-06-26T09:53:20Z</time>
      </trkpt>
      <trkpt lat="42.464542" lon="-5.941658">
        <ele>895.163</ele>
        <time>2013-06-26T09:53:30Z</time>
      </trkpt>
      <trkpt lat="42.464617" lon="-5.941837">
        <ele>894.644</ele>
        <time>2013-06-26T09:53:41Z</time>
      </trkpt>
      <trkpt lat="42.464692" lon="-5.941964">
        <ele>895.118</ele>
        <time>2013-06-26T09:53:50Z</time>
      </trkpt>
      <trkpt lat="42.464779" lon="-5.942105">
        <ele>895.107</ele>
        <time>2013-06-26T09:54:00Z</time>
      </trkpt>
      <trkpt lat="42.464858" lon="-5.942242">
        <ele>895.690</ele>
        <time>2013-06-26T09:54:10Z</time>
      </trkpt>
      <trkpt lat="42.464919" lon="-5.942354">
        <ele>896.163</ele>
        <time>2013-06-26T09:54:18Z</time>
      </trkpt>
      <trkpt lat="42.465002" lon="-5.942475">
        <ele>896.672</ele>
        <time>2013-06-26T09:54:27Z</time>
      </trkpt>
      <trkpt lat="42.465090" lon="-5.942627">
        <ele>896.637</ele>
        <time>2013-06-26T09:54:37Z</time>
      </trkpt>
      <trkpt lat="42.465160" lon="-5.942742">
        <ele>897.543</ele>
        <time>2013-06-26T09:54:45Z</time>
      </trkpt>
      <trkpt lat="42.465240" lon="-5.942905">
        <ele>898.051</ele>
        <time>2013-06-26T09:54:56Z</time>
      </trkpt>
      <trkpt lat="42.465308" lon="-5.943039">
        <ele>898.587</ele>
        <time>2013-06-26T09:55:05Z</time>
      </trkpt>
      <trkpt lat="42.465383" lon="-5.943169">
        <ele>898.555</ele>
        <time>2013-06-26T09:55:15Z</time>
      </trkpt>
      <trkpt lat="42.465447" lon="-5.943283">
        <ele>898.507</ele>
        <time>2013-06-26T09:55:23Z</time>
      </trkpt>
      <trkpt lat="42.465514" lon="-5.943422">
        <ele>898.017</ele>
        <time>2013-06-26T09:55:32Z</time>
      </trkpt>
      <trkpt lat="42.465553" lon="-5.943624">
        <ele>897.107</ele>
        <time>2013-06-26T09:55:43Z</time>
      </trkpt>
      <trkpt lat="42.465601" lon="-5.943761">
        <ele>897.149</ele>
        <time>2013-06-26T09:55:51Z</time>
      </trkpt>
      <trkpt lat="42.465661" lon="-5.943930">
        <ele>896.132</ele>
        <time>2013-06-26T09:56:00Z</time>
      </trkpt>
      <trkpt lat="42.465716" lon="-5.944117">
        <ele>895.631</ele>
        <time>2013-06-26T09:56:11Z</time>
      </trkpt>
      <trkpt lat="42.465756" lon="-5.944270">
        <ele>895.116</ele>
        <time>2013-06-26T09:56:20Z</time>
      </trkpt>
      <trkpt lat="42.465774" lon="-5.944340">
        <ele>895.122</ele>
        <time>2013-06-26T09:56:25Z</time>
      </trkpt>
      <trkpt lat="42.465802" lon="-5.944559">
        <ele>894.220</ele>
        <time>2013-06-26T09:56:37Z</time>
      </trkpt>
      <trkpt lat="42.465816" lon="-5.944717">
        <ele>893.256</ele>
        <time>2013-06-26T09:56:46Z</time>
      </trkpt>
      <trkpt lat="42.465828" lon="-5.944921">
        <ele>892.212</ele>
        <time>2013-06-26T09:56:57Z</time>
      </trkpt>
      <trkpt lat="42.465851" lon="-5.945048">
        <ele>891.832</ele>
        <time>2013-06-26T09:57:06Z</time>
      </trkpt>
      <trkpt lat="42.465864" lon="-5.945078">
        <ele>891.805</ele>
        <time>2013-06-26T09:57:09Z</time>
      </trkpt>
      <trkpt lat="42.465880" lon="-5.945255">
        <ele>891.307</ele>
        <time>2013-06-26T09:57:18Z</time>
      </trkpt>
      <trkpt lat="42.465892" lon="-5.945462">
        <ele>890.885</ele>
        <time>2013-06-26T09:57:29Z</time>
      </trkpt>
      <trkpt lat="42.465900" lon="-5.945646">
        <ele>889.838</ele>
        <time>2013-06-26T09:57:39Z</time>
      </trkpt>
      <trkpt lat="42.465900" lon="-5.945814">
        <ele>889.457</ele>
        <time>2013-06-26T09:57:48Z</time>
      </trkpt>
      <trkpt lat="42.465809" lon="-5.945866">
        <ele>889.442</ele>
        <time>2013-06-26T09:57:56Z</time>
      </trkpt>
      <trkpt lat="42.465776" lon="-5.945967">
        <ele>889.848</ele>
        <time>2013-06-26T09:58:04Z</time>
      </trkpt>
      <trkpt lat="42.465764" lon="-5.945953">
        <ele>889.836</ele>
        <time>2013-06-26T09:58:17Z</time>
      </trkpt>
      <trkpt lat="42.465831" lon="-5.946078">
        <ele>887.992</ele>
        <time>2013-06-26T09:58:25Z</time>
      </trkpt>
      <trkpt lat="42.465834" lon="-5.946101">
        <ele>887.454</ele>
        <time>2013-06-26T09:58:26Z</time>
      </trkpt>
      <trkpt lat="42.465840" lon="-5.946278">
        <ele>887.056</ele>
        <time>2013-06-26T09:58:35Z</time>
      </trkpt>
      <trkpt lat="42.465810" lon="-5.946456">
        <ele>887.011</ele>
        <time>2013-06-26T09:58:44Z</time>
      </trkpt>
      <trkpt lat="42.465772" lon="-5.946631">
        <ele>886.007</ele>
        <time>2013-06-26T09:58:53Z</time>
      </trkpt>
      <trkpt lat="42.465753" lon="-5.946784">
        <ele>885.549</ele>
        <time>2013-06-26T09:59:01Z</time>
      </trkpt>
      <trkpt lat="42.465724" lon="-5.946977">
        <ele>884.632</ele>
        <time>2013-06-26T09:59:11Z</time>
      </trkpt>
      <trkpt lat="42.465698" lon="-5.947162">
        <ele>884.681</ele>
        <time>2013-06-26T09:59:21Z</time>
      </trkpt>
      <trkpt lat="42.465676" lon="-5.947365">
        <ele>884.186</ele>
        <time>2013-06-26T09:59:32Z</time>
      </trkpt>
      <trkpt lat="42.465664" lon="-5.947508">
        <ele>884.162</ele>
        <time>2013-06-26T09:59:40Z</time>
      </trkpt>
      <trkpt lat="42.465649" lon="-5.947713">
        <ele>883.630</ele>
        <time>2013-06-26T09:59:51Z</time>
      </trkpt>
      <trkpt lat="42.465637" lon="-5.947886">
        <ele>883.626</ele>
        <time>2013-06-26T10:00:00Z</time>
      </trkpt>
      <trkpt lat="42.465623" lon="-5.948088">
        <ele>883.613</ele>
        <time>2013-06-26T10:00:11Z</time>
      </trkpt>
      <trkpt lat="42.465588" lon="-5.948295">
        <ele>883.643</ele>
        <time>2013-06-26T10:00:22Z</time>
      </trkpt>
      <trkpt lat="42.465582" lon="-5.948380">
        <ele>883.107</ele>
        <time>2013-06-26T10:00:27Z</time>
      </trkpt>
      <trkpt lat="42.465561" lon="-5.948449">
        <ele>883.107</ele>
        <time>2013-06-26T10:00:31Z</time>
      </trkpt>
      <trkpt lat="42.465526" lon="-5.948638">
        <ele>883.185</ele>
        <time>2013-06-26T10:00:42Z</time>
      </trkpt>
      <trkpt lat="42.465503" lon="-5.948800">
        <ele>882.638</ele>
        <time>2013-06-26T10:00:51Z</time>
      </trkpt>
      <trkpt lat="42.465498" lon="-5.949023">
        <ele>882.637</ele>
        <time>2013-06-26T10:01:03Z</time>
      </trkpt>
      <trkpt lat="42.465531" lon="-5.949199">
        <ele>883.192</ele>
        <time>2013-06-26T10:01:14Z</time>
      </trkpt>
      <trkpt lat="42.465572" lon="-5.949350">
        <ele>883.118</ele>
        <time>2013-06-26T10:01:24Z</time>
      </trkpt>
      <trkpt lat="42.465616" lon="-5.949508">
        <ele>882.676</ele>
        <time>2013-06-26T10:01:33Z</time>
      </trkpt>
      <trkpt lat="42.465698" lon="-5.949575">
        <ele>882.682</ele>
        <time>2013-06-26T10:01:41Z</time>
      </trkpt>
      <trkpt lat="42.465740" lon="-5.949537">
        <ele>882.291</ele>
        <time>2013-06-26T10:01:49Z</time>
      </trkpt>
      <trkpt lat="42.465757" lon="-5.949546">
        <ele>882.281</ele>
        <time>2013-06-26T10:01:56Z</time>
      </trkpt>
      <trkpt lat="42.465781" lon="-5.949577">
        <ele>881.719</ele>
        <time>2013-06-26T10:02:12Z</time>
      </trkpt>
      <trkpt lat="42.465759" lon="-5.949576">
        <ele>881.707</ele>
        <time>2013-06-26T10:02:36Z</time>
      </trkpt>
      <trkpt lat="42.465751" lon="-5.949572">
        <ele>881.283</ele>
        <time>2013-06-26T10:02:57Z</time>
      </trkpt>
      <trkpt lat="42.465750" lon="-5.949573">
        <ele>881.256</ele>
        <time>2013-06-26T10:03:16Z</time>
      </trkpt>
      <trkpt lat="42.465726" lon="-5.949584">
        <ele>881.795</ele>
        <time>2013-06-26T10:03:44Z</time>
      </trkpt>
      <trkpt lat="42.465744" lon="-5.949601">
        <ele>882.270</ele>
        <time>2013-06-26T10:04:06Z</time>
      </trkpt>
      <trkpt lat="42.465750" lon="-5.949612">
        <ele>882.276</ele>
        <time>2013-06-26T10:04:08Z</time>
      </trkpt>
      <trkpt lat="42.465751" lon="-5.949646">
        <ele>881.734</ele>
        <time>2013-06-26T10:04:14Z</time>
      </trkpt>
      <trkpt lat="42.465741" lon="-5.949641">
        <ele>881.710</ele>
        <time>2013-06-26T10:04:26Z</time>
      </trkpt>
      <trkpt lat="42.465748" lon="-5.949646">
        <ele>881.718</ele>
        <time>2013-06-26T10:04:36Z</time>
      </trkpt>
      <trkpt lat="42.465749" lon="-5.949622">
        <ele>881.798</ele>
        <time>2013-06-26T10:04:58Z</time>
      </trkpt>
      <trkpt lat="42.465790" lon="-5.949634">
        <ele>881.717</ele>
        <time>2013-06-26T10:05:20Z</time>
      </trkpt>
      <trkpt lat="42.465771" lon="-5.949646">
        <ele>881.707</ele>
        <time>2013-06-26T10:05:41Z</time>
      </trkpt>
      <trkpt lat="42.465760" lon="-5.949621">
        <ele>881.715</ele>
        <time>2013-06-26T10:05:52Z</time>
      </trkpt>
      <trkpt lat="42.465753" lon="-5.949616">
        <ele>881.778</ele>
        <time>2013-06-26T10:06:25Z</time>
      </trkpt>
      <trkpt lat="42.465751" lon="-5.949618">
        <ele>881.747</ele>
        <time>2013-06-26T10:06:52Z</time>
      </trkpt>
      <trkpt lat="42.465742" lon="-5.949647">
        <ele>881.722</ele>
        <time>2013-06-26T10:07:11Z</time>
      </trkpt>
      <trkpt lat="42.465750" lon="-5.949637">
        <ele>882.278</ele>
        <time>2013-06-26T10:07:37Z</time>
      </trkpt>
      <trkpt lat="42.465767" lon="-5.949639">
        <ele>881.756</ele>
        <time>2013-06-26T10:08:01Z</time>
      </trkpt>
      <trkpt lat="42.465761" lon="-5.949631">
        <ele>882.232</ele>
        <time>2013-06-26T10:08:25Z</time>
      </trkpt>
      <trkpt lat="42.465773" lon="-5.949643">
        <ele>882.225</ele>
        <time>2013-06-26T10:08:46Z</time>
      </trkpt>
      <trkpt lat="42.465764" lon="-5.949637">
        <ele>881.726</ele>
        <time>2013-06-26T10:09:12Z</time>
      </trkpt>
      <trkpt lat="42.465736" lon="-5.949649">
        <ele>881.208</ele>
        <time>2013-06-26T10:09:37Z</time>
      </trkpt>
      <trkpt lat="42.465760" lon="-5.949661">
        <ele>881.707</ele>
        <time>2013-06-26T10:10:02Z</time>
      </trkpt>
      <trkpt lat="42.465765" lon="-5.949665">
        <ele>881.716</ele>
        <time>2013-06-26T10:10:23Z</time>
      </trkpt>
      <trkpt lat="42.465752" lon="-5.949673">
        <ele>882.689</ele>
        <time>2013-06-26T10:10:38Z</time>
      </trkpt>
      <trkpt lat="42.465772" lon="-5.949642">
        <ele>882.648</ele>
        <time>2013-06-26T10:10:48Z</time>
      </trkpt>
      <trkpt lat="42.465776" lon="-5.949626">
        <ele>882.233</ele>
        <time>2013-06-26T10:10:59Z</time>
      </trkpt>
      <trkpt lat="42.465756" lon="-5.949628">
        <ele>882.219</ele>
        <time>2013-06-26T10:11:08Z</time>
      </trkpt>
      <trkpt lat="42.465696" lon="-5.949701">
        <ele>882.287</ele>
        <time>2013-06-26T10:11:16Z</time>
      </trkpt>
      <trkpt lat="42.465656" lon="-5.949760">
        <ele>882.253</ele>
        <time>2013-06-26T10:11:22Z</time>
      </trkpt>
      <trkpt lat="42.465605" lon="-5.949766">
        <ele>882.611</ele>
        <time>2013-06-26T10:11:28Z</time>
      </trkpt>
      <trkpt lat="42.465497" lon="-5.949760">
        <ele>882.221</ele>
        <time>2013-06-26T10:11:38Z</time>
      </trkpt>
      <trkpt lat="42.465430" lon="-5.949836">
        <ele>882.203</ele>
        <time>2013-06-26T10:11:45Z</time>
      </trkpt>
      <trkpt lat="42.465387" lon="-5.949944">
        <ele>882.207</ele>
        <time>2013-06-26T10:11:52Z</time>
      </trkpt>
      <trkpt lat="42.465350" lon="-5.950055">
        <ele>882.255</ele>
        <time>2013-06-26T10:12:00Z</time>
      </trkpt>
      <trkpt lat="42.465317" lon="-5.950140">
        <ele>881.778</ele>
        <time>2013-06-26T10:12:08Z</time>
      </trkpt>
      <trkpt lat="42.465281" lon="-5.950226">
        <ele>882.677</ele>
        <time>2013-06-26T10:12:14Z</time>
      </trkpt>
      <trkpt lat="42.465231" lon="-5.950359">
        <ele>882.612</ele>
        <time>2013-06-26T10:12:23Z</time>
      </trkpt>
      <trkpt lat="42.465212" lon="-5.950477">
        <ele>882.688</ele>
        <time>2013-06-26T10:12:31Z</time>
      </trkpt>
      <trkpt lat="42.465199" lon="-5.950620">
        <ele>882.636</ele>
        <time>2013-06-26T10:12:40Z</time>
      </trkpt>
      <trkpt lat="42.465201" lon="-5.950770">
        <ele>883.172</ele>
        <time>2013-06-26T10:12:49Z</time>
      </trkpt>
      <trkpt lat="42.465196" lon="-5.950948">
        <ele>883.179</ele>
        <time>2013-06-26T10:13:00Z</time>
      </trkpt>
      <trkpt lat="42.465185" lon="-5.951119">
        <ele>884.105</ele>
        <time>2013-06-26T10:13:11Z</time>
      </trkpt>
      <trkpt lat="42.465184" lon="-5.951303">
        <ele>884.625</ele>
        <time>2013-06-26T10:13:22Z</time>
      </trkpt>
      <trkpt lat="42.465189" lon="-5.951440">
        <ele>884.607</ele>
        <time>2013-06-26T10:13:31Z</time>
      </trkpt>
      <trkpt lat="42.465191" lon="-5.951577">
        <ele>885.031</ele>
        <time>2013-06-26T10:13:39Z</time>
      </trkpt>
      <trkpt lat="42.465195" lon="-5.951736">
        <ele>885.524</ele>
        <time>2013-06-26T10:13:49Z</time>
      </trkpt>
      <trkpt lat="42.465195" lon="-5.951855">
        <ele>885.583</ele>
        <time>2013-06-26T10:13:56Z</time>
      </trkpt>
      <trkpt lat="42.465197" lon="-5.951906">
        <ele>886.078</ele>
        <time>2013-06-26T10:13:59Z</time>
      </trkpt>
      <trkpt lat="42.465197" lon="-5.952045">
        <ele>886.044</ele>
        <time>2013-06-26T10:14:07Z</time>
      </trkpt>
      <trkpt lat="42.465190" lon="-5.952120">
        <ele>886.542</ele>
        <time>2013-06-26T10:14:12Z</time>
      </trkpt>
      <trkpt lat="42.465191" lon="-5.952188">
        <ele>886.038</ele>
        <time>2013-06-26T10:14:16Z</time>
      </trkpt>
      <trkpt lat="42.465182" lon="-5.952378">
        <ele>887.499</ele>
        <time>2013-06-26T10:14:27Z</time>
      </trkpt>
      <trkpt lat="42.465186" lon="-5.952510">
        <ele>887.007</ele>
        <time>2013-06-26T10:14:34Z</time>
      </trkpt>
      <trkpt lat="42.465189" lon="-5.952664">
        <ele>887.927</ele>
        <time>2013-06-26T10:14:43Z</time>
      </trkpt>
      <trkpt lat="42.465182" lon="-5.952841">
        <ele>887.907</ele>
        <time>2013-06-26T10:14:54Z</time>
      </trkpt>
      <trkpt lat="42.465166" lon="-5.952979">
        <ele>888.453</ele>
        <time>2013-06-26T10:15:02Z</time>
      </trkpt>
      <trkpt lat="42.465156" lon="-5.953166">
        <ele>888.996</ele>
        <time>2013-06-26T10:15:13Z</time>
      </trkpt>
      <trkpt lat="42.465157" lon="-5.953315">
        <ele>889.445</ele>
        <time>2013-06-26T10:15:22Z</time>
      </trkpt>
      <trkpt lat="42.465155" lon="-5.953468">
        <ele>889.460</ele>
        <time>2013-06-26T10:15:31Z</time>
      </trkpt>
      <trkpt lat="42.465159" lon="-5.953621">
        <ele>890.396</ele>
        <time>2013-06-26T10:15:40Z</time>
      </trkpt>
      <trkpt lat="42.465182" lon="-5.953786">
        <ele>890.314</ele>
        <time>2013-06-26T10:15:50Z</time>
      </trkpt>
      <trkpt lat="42.465205" lon="-5.953938">
        <ele>891.320</ele>
        <time>2013-06-26T10:15:59Z</time>
      </trkpt>
      <trkpt lat="42.465240" lon="-5.954080">
        <ele>891.385</ele>
        <time>2013-06-26T10:16:08Z</time>
      </trkpt>
      <trkpt lat="42.465282" lon="-5.954237">
        <ele>891.389</ele>
        <time>2013-06-26T10:16:18Z</time>
      </trkpt>
      <trkpt lat="42.465324" lon="-5.954362">
        <ele>891.817</ele>
        <time>2013-06-26T10:16:26Z</time>
      </trkpt>
      <trkpt lat="42.465358" lon="-5.954478">
        <ele>892.207</ele>
        <time>2013-06-26T10:16:33Z</time>
      </trkpt>
      <trkpt lat="42.465406" lon="-5.954633">
        <ele>892.712</ele>
        <time>2013-06-26T10:16:43Z</time>
      </trkpt>
      <trkpt lat="42.465452" lon="-5.954788">
        <ele>892.785</ele>
        <time>2013-06-26T10:16:53Z</time>
      </trkpt>
      <trkpt lat="42.465498" lon="-5.954944">
        <ele>892.234</ele>
        <time>2013-06-26T10:17:03Z</time>
      </trkpt>
      <trkpt lat="42.465548" lon="-5.955108">
        <ele>893.279</ele>
        <time>2013-06-26T10:17:13Z</time>
      </trkpt>
      <trkpt lat="42.465586" lon="-5.955274">
        <ele>893.265</ele>
        <time>2013-06-26T10:17:23Z</time>
      </trkpt>
      <trkpt lat="42.465589" lon="-5.955288">
        <ele>893.253</ele>
        <time>2013-06-26T10:17:24Z</time>
      </trkpt>
      <trkpt lat="42.465614" lon="-5.955446">
        <ele>893.739</ele>
        <time>2013-06-26T10:17:34Z</time>
      </trkpt>
      <trkpt lat="42.465644" lon="-5.955610">
        <ele>894.212</ele>
        <time>2013-06-26T10:17:44Z</time>
      </trkpt>
      <trkpt lat="42.465666" lon="-5.955752">
        <ele>895.132</ele>
        <time>2013-06-26T10:17:53Z</time>
      </trkpt>
      <trkpt lat="42.465686" lon="-5.955887">
        <ele>894.605</ele>
        <time>2013-06-26T10:18:01Z</time>
      </trkpt>
      <trkpt lat="42.465716" lon="-5.956042">
        <ele>895.607</ele>
        <time>2013-06-26T10:18:11Z</time>
      </trkpt>
      <trkpt lat="42.465743" lon="-5.956175">
        <ele>895.635</ele>
        <time>2013-06-26T10:18:19Z</time>
      </trkpt>
      <trkpt lat="42.465778" lon="-5.956325">
        <ele>896.128</ele>
        <time>2013-06-26T10:18:28Z</time>
      </trkpt>
      <trkpt lat="42.465802" lon="-5.956536">
        <ele>896.697</ele>
        <time>2013-06-26T10:18:40Z</time>
      </trkpt>
      <trkpt lat="42.465823" lon="-5.956706">
        <ele>897.142</ele>
        <time>2013-06-26T10:18:50Z</time>
      </trkpt>
      <trkpt lat="42.465848" lon="-5.956865">
        <ele>897.518</ele>
        <time>2013-06-26T10:18:59Z</time>
      </trkpt>
      <trkpt lat="42.465893" lon="-5.957045">
        <ele>898.026</ele>
        <time>2013-06-26T10:19:09Z</time>
      </trkpt>
      <trkpt lat="42.465936" lon="-5.957257">
        <ele>898.532</ele>
        <time>2013-06-26T10:19:19Z</time>
      </trkpt>
      <trkpt lat="42.465963" lon="-5.957442">
        <ele>899.094</ele>
        <time>2013-06-26T10:19:28Z</time>
      </trkpt>
      <trkpt lat="42.465975" lon="-5.957512">
        <ele>899.557</ele>
        <time>2013-06-26T10:19:31Z</time>
      </trkpt>
      <trkpt lat="42.466016" lon="-5.957714">
        <ele>899.522</ele>
        <time>2013-06-26T10:19:41Z</time>
      </trkpt>
      <trkpt lat="42.466045" lon="-5.957941">
        <ele>899.907</ele>
        <time>2013-06-26T10:19:52Z</time>
      </trkpt>
      <trkpt lat="42.466091" lon="-5.958169">
        <ele>900.493</ele>
        <time>2013-06-26T10:20:03Z</time>
      </trkpt>
      <trkpt lat="42.466153" lon="-5.958368">
        <ele>900.986</ele>
        <time>2013-06-26T10:20:12Z</time>
      </trkpt>
      <trkpt lat="42.466209" lon="-5.958561">
        <ele>901.455</ele>
        <time>2013-06-26T10:20:21Z</time>
      </trkpt>
      <trkpt lat="42.466244" lon="-5.958719">
        <ele>901.940</ele>
        <time>2013-06-26T10:20:29Z</time>
      </trkpt>
      <trkpt lat="42.466304" lon="-5.958898">
        <ele>901.976</ele>
        <time>2013-06-26T10:20:37Z</time>
      </trkpt>
      <trkpt lat="42.466369" lon="-5.959073">
        <ele>901.964</ele>
        <time>2013-06-26T10:20:46Z</time>
      </trkpt>
      <trkpt lat="42.466408" lon="-5.959251">
        <ele>902.890</ele>
        <time>2013-06-26T10:20:55Z</time>
      </trkpt>
      <trkpt lat="42.466484" lon="-5.959441">
        <ele>903.873</ele>
        <time>2013-06-26T10:21:04Z</time>
      </trkpt>
      <trkpt lat="42.466504" lon="-5.959629">
        <ele>903.885</ele>
        <time>2013-06-26T10:21:13Z</time>
      </trkpt>
      <trkpt lat="42.466534" lon="-5.959787">
        <ele>904.313</ele>
        <time>2013-06-26T10:21:20Z</time>
      </trkpt>
      <trkpt lat="42.466542" lon="-5.959806">
        <ele>904.707</ele>
        <time>2013-06-26T10:21:21Z</time>
      </trkpt>
      <trkpt lat="42.466556" lon="-5.960002">
        <ele>904.731</ele>
        <time>2013-06-26T10:21:30Z</time>
      </trkpt>
      <trkpt lat="42.466579" lon="-5.960173">
        <ele>905.284</ele>
        <time>2013-06-26T10:21:37Z</time>
      </trkpt>
      <trkpt lat="42.466601" lon="-5.960359">
        <ele>906.293</ele>
        <time>2013-06-26T10:21:46Z</time>
      </trkpt>
      <trkpt lat="42.466622" lon="-5.960518">
        <ele>905.778</ele>
        <time>2013-06-26T10:21:54Z</time>
      </trkpt>
      <trkpt lat="42.466640" lon="-5.960611">
        <ele>906.254</ele>
        <time>2013-06-26T10:21:58Z</time>
      </trkpt>
      <trkpt lat="42.466685" lon="-5.960803">
        <ele>906.242</ele>
        <time>2013-06-26T10:22:08Z</time>
      </trkpt>
      <trkpt lat="42.466686" lon="-5.960966">
        <ele>906.268</ele>
        <time>2013-06-26T10:22:15Z</time>
      </trkpt>
      <trkpt lat="42.466701" lon="-5.961141">
        <ele>906.784</ele>
        <time>2013-06-26T10:22:23Z</time>
      </trkpt>
      <trkpt lat="42.466720" lon="-5.961265">
        <ele>906.707</ele>
        <time>2013-06-26T10:22:29Z</time>
      </trkpt>
      <trkpt lat="42.466728" lon="-5.961407">
        <ele>907.117</ele>
        <time>2013-06-26T10:22:35Z</time>
      </trkpt>
      <trkpt lat="42.466726" lon="-5.961427">
        <ele>907.607</ele>
        <time>2013-06-26T10:22:36Z</time>
      </trkpt>
      <trkpt lat="42.466741" lon="-5.961504">
        <ele>907.662</ele>
        <time>2013-06-26T10:22:40Z</time>
      </trkpt>
      <trkpt lat="42.466784" lon="-5.961682">
        <ele>908.155</ele>
        <time>2013-06-26T10:22:48Z</time>
      </trkpt>
      <trkpt lat="42.466797" lon="-5.961750">
        <ele>907.674</ele>
        <time>2013-06-26T10:22:51Z</time>
      </trkpt>
      <trkpt lat="42.466852" lon="-5.961918">
        <ele>908.179</ele>
        <time>2013-06-26T10:23:00Z</time>
      </trkpt>
      <trkpt lat="42.466856" lon="-5.961936">
        <ele>908.155</ele>
        <time>2013-06-26T10:23:01Z</time>
      </trkpt>
      <trkpt lat="42.466906" lon="-5.962039">
        <ele>908.653</ele>
        <time>2013-06-26T10:23:07Z</time>
      </trkpt>
      <trkpt lat="42.466965" lon="-5.962184">
        <ele>909.129</ele>
        <time>2013-06-26T10:23:15Z</time>
      </trkpt>
      <trkpt lat="42.467010" lon="-5.962327">
        <ele>910.022</ele>
        <time>2013-06-26T10:23:22Z</time>
      </trkpt>
      <trkpt lat="42.467053" lon="-5.962434">
        <ele>910.062</ele>
        <time>2013-06-26T10:23:28Z</time>
      </trkpt>
      <trkpt lat="42.467081" lon="-5.962499">
        <ele>910.508</ele>
        <time>2013-06-26T10:23:32Z</time>
      </trkpt>
      <trkpt lat="42.467113" lon="-5.962649">
        <ele>910.507</ele>
        <time>2013-06-26T10:23:39Z</time>
      </trkpt>
      <trkpt lat="42.467117" lon="-5.962670">
        <ele>910.026</ele>
        <time>2013-06-26T10:23:40Z</time>
      </trkpt>
      <trkpt lat="42.467118" lon="-5.962832">
        <ele>911.079</ele>
        <time>2013-06-26T10:23:48Z</time>
      </trkpt>
      <trkpt lat="42.467103" lon="-5.962864">
        <ele>911.018</ele>
        <time>2013-06-26T10:23:55Z</time>
      </trkpt>
      <trkpt lat="42.467112" lon="-5.962862">
        <ele>910.553</ele>
        <time>2013-06-26T10:24:08Z</time>
      </trkpt>
      <trkpt lat="42.467140" lon="-5.962867">
        <ele>910.569</ele>
        <time>2013-06-26T10:24:28Z</time>
      </trkpt>
      <trkpt lat="42.467144" lon="-5.962865">
        <ele>910.587</ele>
        <time>2013-06-26T10:24:44Z</time>
      </trkpt>
      <trkpt lat="42.467152" lon="-5.962863">
        <ele>910.593</ele>
        <time>2013-06-26T10:25:02Z</time>
      </trkpt>
      <trkpt lat="42.467158" lon="-5.962861">
        <ele>910.546</ele>
        <time>2013-06-26T10:25:20Z</time>
      </trkpt>
      <trkpt lat="42.467136" lon="-5.962859">
        <ele>910.588</ele>
        <time>2013-06-26T10:25:41Z</time>
      </trkpt>
      <trkpt lat="42.467158" lon="-5.962867">
        <ele>911.516</ele>
        <time>2013-06-26T10:25:47Z</time>
      </trkpt>
      <trkpt lat="42.467192" lon="-5.962991">
        <ele>911.507</ele>
        <time>2013-06-26T10:25:54Z</time>
      </trkpt>
      <trkpt lat="42.467218" lon="-5.963090">
        <ele>911.558</ele>
        <time>2013-06-26T10:26:00Z</time>
      </trkpt>
      <trkpt lat="42.467233" lon="-5.963202">
        <ele>912.461</ele>
        <time>2013-06-26T10:26:07Z</time>
      </trkpt>
      <trkpt lat="42.467276" lon="-5.963340">
        <ele>912.980</ele>
        <time>2013-06-26T10:26:15Z</time>
      </trkpt>
      <trkpt lat="42.467293" lon="-5.963423">
        <ele>912.965</ele>
        <time>2013-06-26T10:26:20Z</time>
      </trkpt>
      <trkpt lat="42.467286" lon="-5.963565">
        <ele>913.481</ele>
        <time>2013-06-26T10:26:28Z</time>
      </trkpt>
      <trkpt lat="42.467304" lon="-5.963695">
        <ele>914.819</ele>
        <time>2013-06-26T10:26:37Z</time>
      </trkpt>
      <trkpt lat="42.467301" lon="-5.963785">
        <ele>914.875</ele>
        <time>2013-06-26T10:26:42Z</time>
      </trkpt>
      <trkpt lat="42.467315" lon="-5.963969">
        <ele>915.398</ele>
        <time>2013-06-26T10:26:52Z</time>
      </trkpt>
      <trkpt lat="42.467293" lon="-5.964125">
        <ele>916.815</ele>
        <time>2013-06-26T10:27:02Z</time>
      </trkpt>
      <trkpt lat="42.467263" lon="-5.964271">
        <ele>917.726</ele>
        <time>2013-06-26T10:27:10Z</time>
      </trkpt>
      <trkpt lat="42.467241" lon="-5.964461">
        <ele>917.707</ele>
        <time>2013-06-26T10:27:21Z</time>
      </trkpt>
      <trkpt lat="42.467218" lon="-5.964635">
        <ele>918.283</ele>
        <time>2013-06-26T10:27:31Z</time>
      </trkpt>
      <trkpt lat="42.467200" lon="-5.964779">
        <ele>919.266</ele>
        <time>2013-06-26T10:27:39Z</time>
      </trkpt>
      <trkpt lat="42.467201" lon="-5.964946">
        <ele>920.695</ele>
        <time>2013-06-26T10:27:48Z</time>
      </trkpt>
      <trkpt lat="42.467211" lon="-5.965140">
        <ele>920.630</ele>
        <time>2013-06-26T10:27:58Z</time>
      </trkpt>
      <trkpt lat="42.467233" lon="-5.965291">
        <ele>921.696</ele>
        <time>2013-06-26T10:28:06Z</time>
      </trkpt>
      <trkpt lat="42.467262" lon="-5.965436">
        <ele>921.624</ele>
        <time>2013-06-26T10:28:15Z</time>
      </trkpt>
      <trkpt lat="42.467279" lon="-5.965482">
        <ele>922.530</ele>
        <time>2013-06-26T10:28:22Z</time>
      </trkpt>
      <trkpt lat="42.467277" lon="-5.965471">
        <ele>922.556</ele>
        <time>2013-06-26T10:28:26Z</time>
      </trkpt>
      <trkpt lat="42.467286" lon="-5.965487">
        <ele>922.559</ele>
        <time>2013-06-26T10:28:28Z</time>
      </trkpt>
      <trkpt lat="42.467289" lon="-5.965557">
        <ele>922.514</ele>
        <time>2013-06-26T10:28:32Z</time>
      </trkpt>
      <trkpt lat="42.467288" lon="-5.965728">
        <ele>923.007</ele>
        <time>2013-06-26T10:28:41Z</time>
      </trkpt>
      <trkpt lat="42.467309" lon="-5.965880">
        <ele>924.089</ele>
        <time>2013-06-26T10:28:49Z</time>
      </trkpt>
      <trkpt lat="42.467354" lon="-5.966021">
        <ele>924.072</ele>
        <time>2013-06-26T10:28:57Z</time>
      </trkpt>
      <trkpt lat="42.467403" lon="-5.966170">
        <ele>924.541</ele>
        <time>2013-06-26T10:29:06Z</time>
      </trkpt>
      <trkpt lat="42.467436" lon="-5.966337">
        <ele>925.426</ele>
        <time>2013-06-26T10:29:16Z</time>
      </trkpt>
      <trkpt lat="42.467456" lon="-5.966421">
        <ele>925.972</ele>
        <time>2013-06-26T10:29:21Z</time>
      </trkpt>
      <trkpt lat="42.467471" lon="-5.966604">
        <ele>926.920</ele>
        <time>2013-06-26T10:29:31Z</time>
      </trkpt>
      <trkpt lat="42.467479" lon="-5.966760">
        <ele>927.336</ele>
        <time>2013-06-26T10:29:39Z</time>
      </trkpt>
      <trkpt lat="42.467489" lon="-5.966861">
        <ele>928.321</ele>
        <time>2013-06-26T10:29:45Z</time>
      </trkpt>
      <trkpt lat="42.467503" lon="-5.966982">
        <ele>929.341</ele>
        <time>2013-06-26T10:29:53Z</time>
      </trkpt>
      <trkpt lat="42.467512" lon="-5.967077">
        <ele>929.705</ele>
        <time>2013-06-26T10:29:59Z</time>
      </trkpt>
      <trkpt lat="42.467474" lon="-5.967215">
        <ele>930.707</ele>
        <time>2013-06-26T10:30:09Z</time>
      </trkpt>
      <trkpt lat="42.467470" lon="-5.967234">
        <ele>930.796</ele>
        <time>2013-06-26T10:30:14Z</time>
      </trkpt>
      <trkpt lat="42.467449" lon="-5.967308">
        <ele>931.259</ele>
        <time>2013-06-26T10:30:23Z</time>
      </trkpt>
      <trkpt lat="42.467437" lon="-5.967381">
        <ele>930.248</ele>
        <time>2013-06-26T10:30:31Z</time>
      </trkpt>
      <trkpt lat="42.467417" lon="-5.967554">
        <ele>930.293</ele>
        <time>2013-06-26T10:30:40Z</time>
      </trkpt>
      <trkpt lat="42.467398" lon="-5.967713">
        <ele>930.249</ele>
        <time>2013-06-26T10:30:49Z</time>
      </trkpt>
      <trkpt lat="42.467379" lon="-5.967886">
        <ele>930.277</ele>
        <time>2013-06-26T10:30:59Z</time>
      </trkpt>
      <trkpt lat="42.467355" lon="-5.968057">
        <ele>929.743</ele>
        <time>2013-06-26T10:31:08Z</time>
      </trkpt>
      <trkpt lat="42.467347" lon="-5.968240">
        <ele>929.753</ele>
        <time>2013-06-26T10:31:18Z</time>
      </trkpt>
      <trkpt lat="42.467331" lon="-5.968428">
        <ele>929.304</ele>
        <time>2013-06-26T10:31:28Z</time>
      </trkpt>
      <trkpt lat="42.467306" lon="-5.968604">
        <ele>927.814</ele>
        <time>2013-06-26T10:31:39Z</time>
      </trkpt>
      <trkpt lat="42.467273" lon="-5.968798">
        <ele>925.907</ele>
        <time>2013-06-26T10:31:49Z</time>
      </trkpt>
      <trkpt lat="42.467256" lon="-5.968956">
        <ele>924.049</ele>
        <time>2013-06-26T10:31:59Z</time>
      </trkpt>
      <trkpt lat="42.467260" lon="-5.968961">
        <ele>924.082</ele>
        <time>2013-06-26T10:32:01Z</time>
      </trkpt>
      <trkpt lat="42.467243" lon="-5.969028">
        <ele>924.021</ele>
        <time>2013-06-26T10:32:05Z</time>
      </trkpt>
      <trkpt lat="42.467189" lon="-5.969188">
        <ele>921.116</ele>
        <time>2013-06-26T10:32:14Z</time>
      </trkpt>
      <trkpt lat="42.467118" lon="-5.969372">
        <ele>919.652</ele>
        <time>2013-06-26T10:32:24Z</time>
      </trkpt>
      <trkpt lat="42.467107" lon="-5.969506">
        <ele>920.180</ele>
        <time>2013-06-26T10:32:31Z</time>
      </trkpt>
      <trkpt lat="42.467090" lon="-5.969675">
        <ele>919.656</ele>
        <time>2013-06-26T10:32:41Z</time>
      </trkpt>
      <trkpt lat="42.467095" lon="-5.969704">
        <ele>919.641</ele>
        <time>2013-06-26T10:32:47Z</time>
      </trkpt>
      <trkpt lat="42.467088" lon="-5.969813">
        <ele>919.681</ele>
        <time>2013-06-26T10:32:53Z</time>
      </trkpt>
      <trkpt lat="42.467068" lon="-5.969959">
        <ele>919.609</ele>
        <time>2013-06-26T10:33:01Z</time>
      </trkpt>
      <trkpt lat="42.467046" lon="-5.970151">
        <ele>919.607</ele>
        <time>2013-06-26T10:33:11Z</time>
      </trkpt>
      <trkpt lat="42.467008" lon="-5.970311">
        <ele>919.648</ele>
        <time>2013-06-26T10:33:20Z</time>
      </trkpt>
      <trkpt lat="42.466982" lon="-5.970458">
        <ele>920.671</ele>
        <time>2013-06-26T10:33:28Z</time>
      </trkpt>
      <trkpt lat="42.466953" lon="-5.970586">
        <ele>922.030</ele>
        <time>2013-06-26T10:33:36Z</time>
      </trkpt>
      <trkpt lat="42.466884" lon="-5.970724">
        <ele>923.015</ele>
        <time>2013-06-26T10:33:45Z</time>
      </trkpt>
      <trkpt lat="42.466851" lon="-5.970792">
        <ele>923.541</ele>
        <time>2013-06-26T10:33:49Z</time>
      </trkpt>
      <trkpt lat="42.466803" lon="-5.970918">
        <ele>924.529</ele>
        <time>2013-06-26T10:33:57Z</time>
      </trkpt>
      <trkpt lat="42.466760" lon="-5.971052">
        <ele>925.985</ele>
        <time>2013-06-26T10:34:05Z</time>
      </trkpt>
      <trkpt lat="42.466756" lon="-5.971072">
        <ele>925.913</ele>
        <time>2013-06-26T10:34:06Z</time>
      </trkpt>
      <trkpt lat="42.466710" lon="-5.971192">
        <ele>927.343</ele>
        <time>2013-06-26T10:34:14Z</time>
      </trkpt>
      <trkpt lat="42.466653" lon="-5.971298">
        <ele>928.807</ele>
        <time>2013-06-26T10:34:22Z</time>
      </trkpt>
      <trkpt lat="42.466608" lon="-5.971402">
        <ele>930.207</ele>
        <time>2013-06-26T10:34:29Z</time>
      </trkpt>
      <trkpt lat="42.466514" lon="-5.971512">
        <ele>930.795</ele>
        <time>2013-06-26T10:34:38Z</time>
      </trkpt>
      <trkpt lat="42.466412" lon="-5.971623">
        <ele>931.268</ele>
        <time>2013-06-26T10:34:47Z</time>
      </trkpt>
      <trkpt lat="42.466326" lon="-5.971690">
        <ele>930.757</ele>
        <time>2013-06-26T10:34:55Z</time>
      </trkpt>
      <trkpt lat="42.466252" lon="-5.971878">
        <ele>930.792</ele>
        <time>2013-06-26T10:35:06Z</time>
      </trkpt>
      <trkpt lat="42.466201" lon="-5.972025">
        <ele>931.218</ele>
        <time>2013-06-26T10:35:14Z</time>
      </trkpt>
      <trkpt lat="42.466151" lon="-5.972154">
        <ele>931.716</ele>
        <time>2013-06-26T10:35:22Z</time>
      </trkpt>
      <trkpt lat="42.466108" lon="-5.972315">
        <ele>931.262</ele>
        <time>2013-06-26T10:35:31Z</time>
      </trkpt>
      <trkpt lat="42.466043" lon="-5.972475">
        <ele>931.715</ele>
        <time>2013-06-26T10:35:41Z</time>
      </trkpt>
      <trkpt lat="42.465986" lon="-5.972590">
        <ele>931.765</ele>
        <time>2013-06-26T10:35:49Z</time>
      </trkpt>
      <trkpt lat="42.465982" lon="-5.972600">
        <ele>931.711</ele>
        <time>2013-06-26T10:35:50Z</time>
      </trkpt>
      <trkpt lat="42.465956" lon="-5.972656">
        <ele>931.707</ele>
        <time>2013-06-26T10:35:58Z</time>
      </trkpt>
      <trkpt lat="42.465954" lon="-5.972664">
        <ele>931.785</ele>
        <time>2013-06-26T10:36:00Z</time>
      </trkpt>
      <trkpt lat="42.465909" lon="-5.972759">
        <ele>931.768</ele>
        <time>2013-06-26T10:36:07Z</time>
      </trkpt>
      <trkpt lat="42.465839" lon="-5.972848">
        <ele>932.157</ele>
        <time>2013-06-26T10:36:15Z</time>
      </trkpt>
      <trkpt lat="42.465777" lon="-5.972987">
        <ele>932.112</ele>
        <time>2013-06-26T10:36:26Z</time>
      </trkpt>
      <trkpt lat="42.465712" lon="-5.973150">
        <ele>931.778</ele>
        <time>2013-06-26T10:36:38Z</time>
      </trkpt>
      <trkpt lat="42.465677" lon="-5.973231">
        <ele>931.776</ele>
        <time>2013-06-26T10:36:45Z</time>
      </trkpt>
      <trkpt lat="42.465596" lon="-5.973372">
        <ele>931.282</ele>
        <time>2013-06-26T10:36:56Z</time>
      </trkpt>
      <trkpt lat="42.465570" lon="-5.973428">
        <ele>931.799</ele>
        <time>2013-06-26T10:37:03Z</time>
      </trkpt>
      <trkpt lat="42.465542" lon="-5.973433">
        <ele>932.107</ele>
        <time>2013-06-26T10:37:11Z</time>
      </trkpt>
      <trkpt lat="42.465512" lon="-5.973468">
        <ele>931.727</ele>
        <time>2013-06-26T10:37:25Z</time>
      </trkpt>
      <trkpt lat="42.465508" lon="-5.973481">
        <ele>931.707</ele>
        <time>2013-06-26T10:37:33Z</time>
      </trkpt>
      <trkpt lat="42.465511" lon="-5.973489">
        <ele>931.243</ele>
        <time>2013-06-26T10:37:45Z</time>
      </trkpt>
      <trkpt lat="42.465520" lon="-5.973491">
        <ele>932.186</ele>
        <time>2013-06-26T10:37:56Z</time>
      </trkpt>
      <trkpt lat="42.465501" lon="-5.973493">
        <ele>931.725</ele>
        <time>2013-06-26T10:38:14Z</time>
      </trkpt>
      <trkpt lat="42.465503" lon="-5.973505">
        <ele>931.780</ele>
        <time>2013-06-26T10:38:20Z</time>
      </trkpt>
      <trkpt lat="42.465442" lon="-5.973583">
        <ele>931.256</ele>
        <time>2013-06-26T10:38:28Z</time>
      </trkpt>
      <trkpt lat="42.465367" lon="-5.973731">
        <ele>931.794</ele>
        <time>2013-06-26T10:38:38Z</time>
      </trkpt>
      <trkpt lat="42.465309" lon="-5.973875">
        <ele>931.230</ele>
        <time>2013-06-26T10:38:47Z</time>
      </trkpt>
      <trkpt lat="42.465252" lon="-5.974005">
        <ele>930.776</ele>
        <time>2013-06-26T10:38:55Z</time>
      </trkpt>
      <trkpt lat="42.465168" lon="-5.974126">
        <ele>929.790</ele>
        <time>2013-06-26T10:39:04Z</time>
      </trkpt>
      <trkpt lat="42.465107" lon="-5.974230">
        <ele>928.319</ele>
        <time>2013-06-26T10:39:12Z</time>
      </trkpt>
      <trkpt lat="42.465046" lon="-5.974329">
        <ele>927.807</ele>
        <time>2013-06-26T10:39:20Z</time>
      </trkpt>
      <trkpt lat="42.465011" lon="-5.974412">
        <ele>926.431</ele>
        <time>2013-06-26T10:39:28Z</time>
      </trkpt>
      <trkpt lat="42.464960" lon="-5.974515">
        <ele>924.544</ele>
        <time>2013-06-26T10:39:36Z</time>
      </trkpt>
      <trkpt lat="42.464894" lon="-5.974621">
        <ele>924.083</ele>
        <time>2013-06-26T10:39:44Z</time>
      </trkpt>
      <trkpt lat="42.464800" lon="-5.974774">
        <ele>922.068</ele>
        <time>2013-06-26T10:39:55Z</time>
      </trkpt>
      <trkpt lat="42.464723" lon="-5.974881">
        <ele>920.634</ele>
        <time>2013-06-26T10:40:03Z</time>
      </trkpt>
      <trkpt lat="42.464644" lon="-5.975003">
        <ele>919.622</ele>
        <time>2013-06-26T10:40:12Z</time>
      </trkpt>
      <trkpt lat="42.464567" lon="-5.975083">
        <ele>918.268</ele>
        <time>2013-06-26T10:40:20Z</time>
      </trkpt>
      <trkpt lat="42.464457" lon="-5.975200">
        <ele>916.858</ele>
        <time>2013-06-26T10:40:31Z</time>
      </trkpt>
      <trkpt lat="42.464401" lon="-5.975237">
        <ele>915.852</ele>
        <time>2013-06-26T10:40:37Z</time>
      </trkpt>
      <trkpt lat="42.464296" lon="-5.975312">
        <ele>914.817</ele>
        <time>2013-06-26T10:40:46Z</time>
      </trkpt>
      <trkpt lat="42.464186" lon="-5.975402">
        <ele>913.407</ele>
        <time>2013-06-26T10:40:57Z</time>
      </trkpt>
      <trkpt lat="42.464098" lon="-5.975462">
        <ele>911.539</ele>
        <time>2013-06-26T10:41:06Z</time>
      </trkpt>
      <trkpt lat="42.464017" lon="-5.975542">
        <ele>910.572</ele>
        <time>2013-06-26T10:41:15Z</time>
      </trkpt>
      <trkpt lat="42.463932" lon="-5.975607">
        <ele>909.161</ele>
        <time>2013-06-26T10:41:24Z</time>
      </trkpt>
      <trkpt lat="42.463841" lon="-5.975686">
        <ele>907.626</ele>
        <time>2013-06-26T10:41:33Z</time>
      </trkpt>
      <trkpt lat="42.463768" lon="-5.975719">
        <ele>907.652</ele>
        <time>2013-06-26T10:41:42Z</time>
      </trkpt>
      <trkpt lat="42.463761" lon="-5.975735">
        <ele>907.660</ele>
        <time>2013-06-26T10:41:44Z</time>
      </trkpt>
      <trkpt lat="42.463709" lon="-5.975820">
        <ele>906.726</ele>
        <time>2013-06-26T10:41:50Z</time>
      </trkpt>
      <trkpt lat="42.463698" lon="-5.975875">
        <ele>905.713</ele>
        <time>2013-06-26T10:41:53Z</time>
      </trkpt>
      <trkpt lat="42.463596" lon="-5.975978">
        <ele>904.743</ele>
        <time>2013-06-26T10:42:03Z</time>
      </trkpt>
      <trkpt lat="42.463503" lon="-5.976131">
        <ele>903.307</ele>
        <time>2013-06-26T10:42:13Z</time>
      </trkpt>
      <trkpt lat="42.463419" lon="-5.976303">
        <ele>901.907</ele>
        <time>2013-06-26T10:42:25Z</time>
      </trkpt>
      <trkpt lat="42.463371" lon="-5.976455">
        <ele>900.955</ele>
        <time>2013-06-26T10:42:35Z</time>
      </trkpt>
      <trkpt lat="42.463305" lon="-5.976624">
        <ele>900.448</ele>
        <time>2013-06-26T10:42:45Z</time>
      </trkpt>
      <trkpt lat="42.463250" lon="-5.976760">
        <ele>899.037</ele>
        <time>2013-06-26T10:42:54Z</time>
      </trkpt>
      <trkpt lat="42.463218" lon="-5.976889">
        <ele>898.592</ele>
        <time>2013-06-26T10:43:02Z</time>
      </trkpt>
      <trkpt lat="42.463167" lon="-5.977040">
        <ele>898.018</ele>
        <time>2013-06-26T10:43:12Z</time>
      </trkpt>
      <trkpt lat="42.463113" lon="-5.977190">
        <ele>897.576</ele>
        <time>2013-06-26T10:43:21Z</time>
      </trkpt>
      <trkpt lat="42.463106" lon="-5.977207">
        <ele>898.092</ele>
        <time>2013-06-26T10:43:22Z</time>
      </trkpt>
      <trkpt lat="42.463045" lon="-5.977391">
        <ele>898.021</ele>
        <time>2013-06-26T10:43:32Z</time>
      </trkpt>
      <trkpt lat="42.462997" lon="-5.977536">
        <ele>898.041</ele>
        <time>2013-06-26T10:43:41Z</time>
      </trkpt>
      <trkpt lat="42.462944" lon="-5.977676">
        <ele>899.505</ele>
        <time>2013-06-26T10:43:50Z</time>
      </trkpt>
      <trkpt lat="42.462882" lon="-5.977803">
        <ele>899.907</ele>
        <time>2013-06-26T10:43:59Z</time>
      </trkpt>
      <trkpt lat="42.462833" lon="-5.977923">
        <ele>900.946</ele>
        <time>2013-06-26T10:44:07Z</time>
      </trkpt>
      <trkpt lat="42.462783" lon="-5.978073">
        <ele>901.459</ele>
        <time>2013-06-26T10:44:16Z</time>
      </trkpt>
      <trkpt lat="42.462731" lon="-5.978203">
        <ele>901.938</ele>
        <time>2013-06-26T10:44:24Z</time>
      </trkpt>
      <trkpt lat="42.462671" lon="-5.978354">
        <ele>902.393</ele>
        <time>2013-06-26T10:44:34Z</time>
      </trkpt>
      <trkpt lat="42.462645" lon="-5.978408">
        <ele>902.849</ele>
        <time>2013-06-26T10:44:38Z</time>
      </trkpt>
      <trkpt lat="42.462567" lon="-5.978546">
        <ele>904.367</ele>
        <time>2013-06-26T10:44:49Z</time>
      </trkpt>
      <trkpt lat="42.462561" lon="-5.978560">
        <ele>904.753</ele>
        <time>2013-06-26T10:44:50Z</time>
      </trkpt>
      <trkpt lat="42.462523" lon="-5.978607">
        <ele>904.736</ele>
        <time>2013-06-26T10:44:55Z</time>
      </trkpt>
      <trkpt lat="42.462484" lon="-5.978761">
        <ele>905.717</ele>
        <time>2013-06-26T10:45:04Z</time>
      </trkpt>
      <trkpt lat="42.462404" lon="-5.978871">
        <ele>906.218</ele>
        <time>2013-06-26T10:45:13Z</time>
      </trkpt>
      <trkpt lat="42.462318" lon="-5.978979">
        <ele>906.707</ele>
        <time>2013-06-26T10:45:22Z</time>
      </trkpt>
      <trkpt lat="42.462250" lon="-5.979099">
        <ele>908.667</ele>
        <time>2013-06-26T10:45:31Z</time>
      </trkpt>
      <trkpt lat="42.462200" lon="-5.979216">
        <ele>909.110</ele>
        <time>2013-06-26T10:45:39Z</time>
      </trkpt>
      <trkpt lat="42.462141" lon="-5.979329">
        <ele>910.079</ele>
        <time>2013-06-26T10:45:47Z</time>
      </trkpt>
      <trkpt lat="42.462101" lon="-5.979406">
        <ele>911.044</ele>
        <time>2013-06-26T10:45:52Z</time>
      </trkpt>
      <trkpt lat="42.462003" lon="-5.979592">
        <ele>911.570</ele>
        <time>2013-06-26T10:46:04Z</time>
      </trkpt>
      <trkpt lat="42.461911" lon="-5.979758">
        <ele>911.548</ele>
        <time>2013-06-26T10:46:15Z</time>
      </trkpt>
      <trkpt lat="42.461827" lon="-5.979896">
        <ele>913.414</ele>
        <time>2013-06-26T10:46:25Z</time>
      </trkpt>
      <trkpt lat="42.461703" lon="-5.980071">
        <ele>914.851</ele>
        <time>2013-06-26T10:46:37Z</time>
      </trkpt>
      <trkpt lat="42.461617" lon="-5.980183">
        <ele>915.801</ele>
        <time>2013-06-26T10:46:46Z</time>
      </trkpt>
      <trkpt lat="42.461543" lon="-5.980296">
        <ele>915.811</ele>
        <time>2013-06-26T10:46:54Z</time>
      </trkpt>
      <trkpt lat="42.461446" lon="-5.980420">
        <ele>916.307</ele>
        <time>2013-06-26T10:47:04Z</time>
      </trkpt>
      <trkpt lat="42.461374" lon="-5.980539">
        <ele>917.259</ele>
        <time>2013-06-26T10:47:12Z</time>
      </trkpt>
      <trkpt lat="42.461290" lon="-5.980651">
        <ele>918.262</ele>
        <time>2013-06-26T10:47:20Z</time>
      </trkpt>
      <trkpt lat="42.461218" lon="-5.980783">
        <ele>919.661</ele>
        <time>2013-06-26T10:47:29Z</time>
      </trkpt>
      <trkpt lat="42.461172" lon="-5.980916">
        <ele>920.646</ele>
        <time>2013-06-26T10:47:36Z</time>
      </trkpt>
      <trkpt lat="42.461121" lon="-5.981040">
        <ele>921.682</ele>
        <time>2013-06-26T10:47:43Z</time>
      </trkpt>
      <trkpt lat="42.461059" lon="-5.981149">
        <ele>922.510</ele>
        <time>2013-06-26T10:47:50Z</time>
      </trkpt>
      <trkpt lat="42.460974" lon="-5.981306">
        <ele>924.956</ele>
        <time>2013-06-26T10:48:00Z</time>
      </trkpt>
      <trkpt lat="42.460942" lon="-5.981362">
        <ele>925.482</ele>
        <time>2013-06-26T10:48:05Z</time>
      </trkpt>
      <trkpt lat="42.460900" lon="-5.981443">
        <ele>925.943</ele>
        <time>2013-06-26T10:48:10Z</time>
      </trkpt>
      <trkpt lat="42.460861" lon="-5.981618">
        <ele>926.917</ele>
        <time>2013-06-26T10:48:19Z</time>
      </trkpt>
      <trkpt lat="42.460843" lon="-5.981792">
        <ele>927.807</ele>
        <time>2013-06-26T10:48:28Z</time>
      </trkpt>
      <trkpt lat="42.460836" lon="-5.981896">
        <ele>928.812</ele>
        <time>2013-06-26T10:48:35Z</time>
      </trkpt>
      <trkpt lat="42.460830" lon="-5.981936">
        <ele>928.895</ele>
        <time>2013-06-26T10:48:39Z</time>
      </trkpt>
      <trkpt lat="42.460760" lon="-5.982126">
        <ele>929.324</ele>
        <time>2013-06-26T10:48:50Z</time>
      </trkpt>
      <trkpt lat="42.460716" lon="-5.982293">
        <ele>929.729</ele>
        <time>2013-06-26T10:49:00Z</time>
      </trkpt>
      <trkpt lat="42.460673" lon="-5.982476">
        <ele>929.795</ele>
        <time>2013-06-26T10:49:10Z</time>
      </trkpt>
      <trkpt lat="42.460626" lon="-5.982654">
        <ele>929.713</ele>
        <time>2013-06-26T10:49:20Z</time>
      </trkpt>
      <trkpt lat="42.460595" lon="-5.982806">
        <ele>929.789</ele>
        <time>2013-06-26T10:49:29Z</time>
      </trkpt>
      <trkpt lat="42.460541" lon="-5.982988">
        <ele>930.248</ele>
        <time>2013-06-26T10:49:42Z</time>
      </trkpt>
      <trkpt lat="42.460528" lon="-5.983025">
        <ele>930.261</ele>
        <time>2013-06-26T10:49:48Z</time>
      </trkpt>
      <trkpt lat="42.460498" lon="-5.983214">
        <ele>930.217</ele>
        <time>2013-06-26T10:49:59Z</time>
      </trkpt>
      <trkpt lat="42.460452" lon="-5.983400">
        <ele>930.207</ele>
        <time>2013-06-26T10:50:10Z</time>
      </trkpt>
      <trkpt lat="42.460406" lon="-5.983582">
        <ele>930.258</ele>
        <time>2013-06-26T10:50:21Z</time>
      </trkpt>
      <trkpt lat="42.460392" lon="-5.983645">
        <ele>929.771</ele>
        <time>2013-06-26T10:50:28Z</time>
      </trkpt>
      <trkpt lat="42.460356" lon="-5.983657">
        <ele>930.270</ele>
        <time>2013-06-26T10:50:35Z</time>
      </trkpt>
      <trkpt lat="42.460359" lon="-5.983689">
        <ele>930.225</ele>
        <time>2013-06-26T10:50:47Z</time>
      </trkpt>
      <trkpt lat="42.460321" lon="-5.983861">
        <ele>929.731</ele>
        <time>2013-06-26T10:50:57Z</time>
      </trkpt>
      <trkpt lat="42.460294" lon="-5.984049">
        <ele>929.749</ele>
        <time>2013-06-26T10:51:07Z</time>
      </trkpt>
      <trkpt lat="42.460265" lon="-5.984217">
        <ele>929.775</ele>
        <time>2013-06-26T10:51:17Z</time>
      </trkpt>
      <trkpt lat="42.460250" lon="-5.984291">
        <ele>929.778</ele>
        <time>2013-06-26T10:51:24Z</time>
      </trkpt>
      <trkpt lat="42.460235" lon="-5.984370">
        <ele>929.733</ele>
        <time>2013-06-26T10:51:29Z</time>
      </trkpt>
      <trkpt lat="42.460185" lon="-5.984578">
        <ele>929.726</ele>
        <time>2013-06-26T10:51:42Z</time>
      </trkpt>
      <trkpt lat="42.460139" lon="-5.984769">
        <ele>929.707</ele>
        <time>2013-06-26T10:51:53Z</time>
      </trkpt>
      <trkpt lat="42.460116" lon="-5.984872">
        <ele>930.211</ele>
        <time>2013-06-26T10:52:00Z</time>
      </trkpt>
      <trkpt lat="42.460067" lon="-5.985070">
        <ele>929.794</ele>
        <time>2013-06-26T10:52:12Z</time>
      </trkpt>
      <trkpt lat="42.460021" lon="-5.985247">
        <ele>930.273</ele>
        <time>2013-06-26T10:52:23Z</time>
      </trkpt>
      <trkpt lat="42.459984" lon="-5.985389">
        <ele>930.728</ele>
        <time>2013-06-26T10:52:32Z</time>
      </trkpt>
      <trkpt lat="42.459960" lon="-5.985526">
        <ele>930.724</ele>
        <time>2013-06-26T10:52:42Z</time>
      </trkpt>
      <trkpt lat="42.459923" lon="-5.985665">
        <ele>929.772</ele>
        <time>2013-06-26T10:52:51Z</time>
      </trkpt>
      <trkpt lat="42.459890" lon="-5.985832">
        <ele>929.788</ele>
        <time>2013-06-26T10:53:01Z</time>
      </trkpt>
      <trkpt lat="42.459858" lon="-5.985989">
        <ele>929.785</ele>
        <time>2013-06-26T10:53:10Z</time>
      </trkpt>
      <trkpt lat="42.459830" lon="-5.986128">
        <ele>929.789</ele>
        <time>2013-06-26T10:53:19Z</time>
      </trkpt>
      <trkpt lat="42.459827" lon="-5.986151">
        <ele>929.717</ele>
        <time>2013-06-26T10:53:25Z</time>
      </trkpt>
      <trkpt lat="42.459831" lon="-5.986159">
        <ele>929.707</ele>
        <time>2013-06-26T10:53:27Z</time>
      </trkpt>
      <trkpt lat="42.459790" lon="-5.986333">
        <ele>929.312</ele>
        <time>2013-06-26T10:53:38Z</time>
      </trkpt>
      <trkpt lat="42.459778" lon="-5.986446">
        <ele>929.725</ele>
        <time>2013-06-26T10:53:47Z</time>
      </trkpt>
      <trkpt lat="42.459768" lon="-5.986517">
        <ele>929.724</ele>
        <time>2013-06-26T10:53:55Z</time>
      </trkpt>
      <trkpt lat="42.459742" lon="-5.986684">
        <ele>929.739</ele>
        <time>2013-06-26T10:54:05Z</time>
      </trkpt>
      <trkpt lat="42.459716" lon="-5.986817">
        <ele>929.315</ele>
        <time>2013-06-26T10:54:14Z</time>
      </trkpt>
      <trkpt lat="42.459692" lon="-5.986948">
        <ele>929.393</ele>
        <time>2013-06-26T10:54:22Z</time>
      </trkpt>
      <trkpt lat="42.459691" lon="-5.987037">
        <ele>929.779</ele>
        <time>2013-06-26T10:54:29Z</time>
      </trkpt>
      <trkpt lat="42.459712" lon="-5.987053">
        <ele>929.794</ele>
        <time>2013-06-26T10:54:37Z</time>
      </trkpt>
      <trkpt lat="42.459700" lon="-5.987063">
        <ele>929.757</ele>
        <time>2013-06-26T10:54:51Z</time>
      </trkpt>
      <trkpt lat="42.459686" lon="-5.987152">
        <ele>929.322</ele>
        <time>2013-06-26T10:54:57Z</time>
      </trkpt>
      <trkpt lat="42.459662" lon="-5.987309">
        <ele>929.307</ele>
        <time>2013-06-26T10:55:06Z</time>
      </trkpt>
      <trkpt lat="42.459622" lon="-5.987520">
        <ele>929.383</ele>
        <time>2013-06-26T10:55:17Z</time>
      </trkpt>
      <trkpt lat="42.459597" lon="-5.987672">
        <ele>929.346</ele>
        <time>2013-06-26T10:55:26Z</time>
      </trkpt>
      <trkpt lat="42.459549" lon="-5.987909">
        <ele>929.345</ele>
        <time>2013-06-26T10:55:38Z</time>
      </trkpt>
      <trkpt lat="42.459524" lon="-5.988088">
        <ele>929.740</ele>
        <time>2013-06-26T10:55:47Z</time>
      </trkpt>
      <trkpt lat="42.459495" lon="-5.988320">
        <ele>929.726</ele>
        <time>2013-06-26T10:55:59Z</time>
      </trkpt>
      <trkpt lat="42.459460" lon="-5.988555">
        <ele>929.364</ele>
        <time>2013-06-26T10:56:11Z</time>
      </trkpt>
      <trkpt lat="42.459413" lon="-5.988776">
        <ele>929.750</ele>
        <time>2013-06-26T10:56:22Z</time>
      </trkpt>
      <trkpt lat="42.459378" lon="-5.988929">
        <ele>929.315</ele>
        <time>2013-06-26T10:56:31Z</time>
      </trkpt>
      <trkpt lat="42.459348" lon="-5.989086">
        <ele>929.765</ele>
        <time>2013-06-26T10:56:40Z</time>
      </trkpt>
      <trkpt lat="42.459322" lon="-5.989257">
        <ele>929.711</ele>
        <time>2013-06-26T10:56:51Z</time>
      </trkpt>
      <trkpt lat="42.459317" lon="-5.989322">
        <ele>929.707</ele>
        <time>2013-06-26T10:56:55Z</time>
      </trkpt>
      <trkpt lat="42.459279" lon="-5.989505">
        <ele>929.395</ele>
        <time>2013-06-26T10:57:06Z</time>
      </trkpt>
      <trkpt lat="42.459253" lon="-5.989676">
        <ele>929.338</ele>
        <time>2013-06-26T10:57:16Z</time>
      </trkpt>
      <trkpt lat="42.459220" lon="-5.989847">
        <ele>929.797</ele>
        <time>2013-06-26T10:57:26Z</time>
      </trkpt>
      <trkpt lat="42.459194" lon="-5.990016">
        <ele>929.372</ele>
        <time>2013-06-26T10:57:36Z</time>
      </trkpt>
      <trkpt lat="42.459159" lon="-5.990233">
        <ele>929.328</ele>
        <time>2013-06-26T10:57:49Z</time>
      </trkpt>
      <trkpt lat="42.459135" lon="-5.990396">
        <ele>929.356</ele>
        <time>2013-06-26T10:57:59Z</time>
      </trkpt>
      <trkpt lat="42.459114" lon="-5.990545">
        <ele>928.882</ele>
        <time>2013-06-26T10:58:08Z</time>
      </trkpt>
      <trkpt lat="42.459077" lon="-5.990759">
        <ele>929.365</ele>
        <time>2013-06-26T10:58:21Z</time>
      </trkpt>
      <trkpt lat="42.459031" lon="-5.990968">
        <ele>928.868</ele>
        <time>2013-06-26T10:58:33Z</time>
      </trkpt>
      <trkpt lat="42.458987" lon="-5.991165">
        <ele>929.314</ele>
        <time>2013-06-26T10:58:44Z</time>
      </trkpt>
      <trkpt lat="42.458973" lon="-5.991350">
        <ele>929.707</ele>
        <time>2013-06-26T10:58:54Z</time>
      </trkpt>
      <trkpt lat="42.458927" lon="-5.991575">
        <ele>929.780</ele>
        <time>2013-06-26T10:59:07Z</time>
      </trkpt>
      <trkpt lat="42.458894" lon="-5.991724">
        <ele>929.323</ele>
        <time>2013-06-26T10:59:16Z</time>
      </trkpt>
      <trkpt lat="42.458898" lon="-5.991835">
        <ele>929.392</ele>
        <time>2013-06-26T10:59:24Z</time>
      </trkpt>
      <trkpt lat="42.458842" lon="-5.991974">
        <ele>929.367</ele>
        <time>2013-06-26T10:59:33Z</time>
      </trkpt>
      <trkpt lat="42.458738" lon="-5.992102">
        <ele>929.313</ele>
        <time>2013-06-26T10:59:43Z</time>
      </trkpt>
      <trkpt lat="42.458654" lon="-5.992212">
        <ele>929.751</ele>
        <time>2013-06-26T10:59:52Z</time>
      </trkpt>
      <trkpt lat="42.458531" lon="-5.992364">
        <ele>929.377</ele>
        <time>2013-06-26T11:00:05Z</time>
      </trkpt>
      <trkpt lat="42.458476" lon="-5.992433">
        <ele>929.394</ele>
        <time>2013-06-26T11:00:12Z</time>
      </trkpt>
      <trkpt lat="42.458367" lon="-5.992570">
        <ele>929.757</ele>
        <time>2013-06-26T11:00:24Z</time>
      </trkpt>
      <trkpt lat="42.458360" lon="-5.992577">
        <ele>930.222</ele>
        <time>2013-06-26T11:00:25Z</time>
      </trkpt>
      <trkpt lat="42.458297" lon="-5.992665">
        <ele>929.307</ele>
        <time>2013-06-26T11:00:33Z</time>
      </trkpt>
      <trkpt lat="42.458205" lon="-5.992773">
        <ele>929.333</ele>
        <time>2013-06-26T11:00:42Z</time>
      </trkpt>
      <trkpt lat="42.458096" lon="-5.992905">
        <ele>929.396</ele>
        <time>2013-06-26T11:00:53Z</time>
      </trkpt>
      <trkpt lat="42.458000" lon="-5.993024">
        <ele>929.315</ele>
        <time>2013-06-26T11:01:04Z</time>
      </trkpt>
      <trkpt lat="42.457914" lon="-5.993146">
        <ele>929.340</ele>
        <time>2013-06-26T11:01:14Z</time>
      </trkpt>
      <trkpt lat="42.457822" lon="-5.993261">
        <ele>928.826</ele>
        <time>2013-06-26T11:01:24Z</time>
      </trkpt>
      <trkpt lat="42.457710" lon="-5.993403">
        <ele>928.814</ele>
        <time>2013-06-26T11:01:36Z</time>
      </trkpt>
      <trkpt lat="42.457623" lon="-5.993517">
        <ele>927.820</ele>
        <time>2013-06-26T11:01:46Z</time>
      </trkpt>
      <trkpt lat="42.457535" lon="-5.993624">
        <ele>928.382</ele>
        <time>2013-06-26T11:01:56Z</time>
      </trkpt>
      <trkpt lat="42.457457" lon="-5.993729">
        <ele>927.343</ele>
        <time>2013-06-26T11:02:04Z</time>
      </trkpt>
      <trkpt lat="42.457378" lon="-5.993829">
        <ele>926.417</ele>
        <time>2013-06-26T11:02:13Z</time>
      </trkpt>
      <trkpt lat="42.457293" lon="-5.993936">
        <ele>927.307</ele>
        <time>2013-06-26T11:02:22Z</time>
      </trkpt>
      <trkpt lat="42.457176" lon="-5.994078">
        <ele>927.832</ele>
        <time>2013-06-26T11:02:34Z</time>
      </trkpt>
      <trkpt lat="42.457086" lon="-5.994194">
        <ele>927.355</ele>
        <time>2013-06-26T11:02:44Z</time>
      </trkpt>
      <trkpt lat="42.456987" lon="-5.994325">
        <ele>927.894</ele>
        <time>2013-06-26T11:02:55Z</time>
      </trkpt>
      <trkpt lat="42.456889" lon="-5.994436">
        <ele>927.319</ele>
        <time>2013-06-26T11:03:05Z</time>
      </trkpt>
      <trkpt lat="42.456780" lon="-5.994572">
        <ele>927.315</ele>
        <time>2013-06-26T11:03:17Z</time>
      </trkpt>
      <trkpt lat="42.456687" lon="-5.994696">
        <ele>927.393</ele>
        <time>2013-06-26T11:03:27Z</time>
      </trkpt>
      <trkpt lat="42.456601" lon="-5.994803">
        <ele>927.879</ele>
        <time>2013-06-26T11:03:36Z</time>
      </trkpt>
      <trkpt lat="42.456571" lon="-5.994843">
        <ele>926.984</ele>
        <time>2013-06-26T11:03:39Z</time>
      </trkpt>
      <trkpt lat="42.456559" lon="-5.994863">
        <ele>926.907</ele>
        <time>2013-06-26T11:03:41Z</time>
      </trkpt>
      <trkpt lat="42.456478" lon="-5.994943">
        <ele>927.317</ele>
        <time>2013-06-26T11:03:49Z</time>
      </trkpt>
      <trkpt lat="42.456445" lon="-5.995000">
        <ele>927.307</ele>
        <time>2013-06-26T11:03:53Z</time>
      </trkpt>
      <trkpt lat="42.456345" lon="-5.995138">
        <ele>926.952</ele>
        <time>2013-06-26T11:04:04Z</time>
      </trkpt>
      <trkpt lat="42.456290" lon="-5.995208">
        <ele>927.335</ele>
        <time>2013-06-26T11:04:14Z</time>
      </trkpt>
      <trkpt lat="42.456250" lon="-5.995279">
        <ele>926.954</ele>
        <time>2013-06-26T11:04:23Z</time>
      </trkpt>
      <trkpt lat="42.456150" lon="-5.995430">
        <ele>926.419</ele>
        <time>2013-06-26T11:04:33Z</time>
      </trkpt>
      <trkpt lat="42.456057" lon="-5.995570">
        <ele>926.485</ele>
        <time>2013-06-26T11:04:42Z</time>
      </trkpt>
      <trkpt lat="42.455969" lon="-5.995724">
        <ele>925.943</ele>
        <time>2013-06-26T11:04:52Z</time>
      </trkpt>
      <trkpt lat="42.455862" lon="-5.995889">
        <ele>926.439</ele>
        <time>2013-06-26T11:05:03Z</time>
      </trkpt>
      <trkpt lat="42.455778" lon="-5.996035">
        <ele>926.447</ele>
        <time>2013-06-26T11:05:12Z</time>
      </trkpt>
      <trkpt lat="42.455698" lon="-5.996169">
        <ele>925.929</ele>
        <time>2013-06-26T11:05:22Z</time>
      </trkpt>
      <trkpt lat="42.455602" lon="-5.996335">
        <ele>926.421</ele>
        <time>2013-06-26T11:05:34Z</time>
      </trkpt>
      <trkpt lat="42.455513" lon="-5.996477">
        <ele>926.407</ele>
        <time>2013-06-26T11:05:44Z</time>
      </trkpt>
      <trkpt lat="42.455442" lon="-5.996602">
        <ele>925.938</ele>
        <time>2013-06-26T11:05:53Z</time>
      </trkpt>
      <trkpt lat="42.455356" lon="-5.996735">
        <ele>926.491</ele>
        <time>2013-06-26T11:06:03Z</time>
      </trkpt>
      <trkpt lat="42.455263" lon="-5.996901">
        <ele>926.910</ele>
        <time>2013-06-26T11:06:15Z</time>
      </trkpt>
      <trkpt lat="42.455197" lon="-5.997012">
        <ele>926.965</ele>
        <time>2013-06-26T11:06:23Z</time>
      </trkpt>
      <trkpt lat="42.455114" lon="-5.997166">
        <ele>926.471</ele>
        <time>2013-06-26T11:06:33Z</time>
      </trkpt>
      <trkpt lat="42.455043" lon="-5.997289">
        <ele>926.949</ele>
        <time>2013-06-26T11:06:42Z</time>
      </trkpt>
      <trkpt lat="42.454965" lon="-5.997407">
        <ele>926.435</ele>
        <time>2013-06-26T11:06:51Z</time>
      </trkpt>
      <trkpt lat="42.454910" lon="-5.997488">
        <ele>926.944</ele>
        <time>2013-06-26T11:06:57Z</time>
      </trkpt>
      <trkpt lat="42.454886" lon="-5.997544">
        <ele>926.905</ele>
        <time>2013-06-26T11:07:02Z</time>
      </trkpt>
      <trkpt lat="42.454856" lon="-5.997597">
        <ele>927.315</ele>
        <time>2013-06-26T11:07:06Z</time>
      </trkpt>
      <trkpt lat="42.454757" lon="-5.997758">
        <ele>926.907</ele>
        <time>2013-06-26T11:07:18Z</time>
      </trkpt>
      <trkpt lat="42.454672" lon="-5.997900">
        <ele>927.368</ele>
        <time>2013-06-26T11:07:28Z</time>
      </trkpt>
      <trkpt lat="42.454591" lon="-5.998039">
        <ele>926.451</ele>
        <time>2013-06-26T11:07:38Z</time>
      </trkpt>
      <trkpt lat="42.454492" lon="-5.998205">
        <ele>926.920</ele>
        <time>2013-06-26T11:07:50Z</time>
      </trkpt>
      <trkpt lat="42.454399" lon="-5.998343">
        <ele>926.975</ele>
        <time>2013-06-26T11:08:01Z</time>
      </trkpt>
      <trkpt lat="42.454339" lon="-5.998457">
        <ele>927.381</ele>
        <time>2013-06-26T11:08:09Z</time>
      </trkpt>
      <trkpt lat="42.454253" lon="-5.998586">
        <ele>925.969</ele>
        <time>2013-06-26T11:08:19Z</time>
      </trkpt>
      <trkpt lat="42.454153" lon="-5.998753">
        <ele>926.995</ele>
        <time>2013-06-26T11:08:31Z</time>
      </trkpt>
      <trkpt lat="42.454079" lon="-5.998887">
        <ele>926.469</ele>
        <time>2013-06-26T11:08:41Z</time>
      </trkpt>
      <trkpt lat="42.454017" lon="-5.999077">
        <ele>926.404</ele>
        <time>2013-06-26T11:08:53Z</time>
      </trkpt>
      <trkpt lat="42.453980" lon="-5.999246">
        <ele>926.424</ele>
        <time>2013-06-26T11:09:03Z</time>
      </trkpt>
      <trkpt lat="42.453958" lon="-5.999426">
        <ele>926.407</ele>
        <time>2013-06-26T11:09:14Z</time>
      </trkpt>
      <trkpt lat="42.453941" lon="-5.999610">
        <ele>926.450</ele>
        <time>2013-06-26T11:09:25Z</time>
      </trkpt>
      <trkpt lat="42.453933" lon="-5.999776">
        <ele>926.413</ele>
        <time>2013-06-26T11:09:35Z</time>
      </trkpt>
      <trkpt lat="42.453915" lon="-5.999899">
        <ele>925.972</ele>
        <time>2013-06-26T11:09:44Z</time>
      </trkpt>
      <trkpt lat="42.453907" lon="-5.999925">
        <ele>926.487</ele>
        <time>2013-06-26T11:09:47Z</time>
      </trkpt>
      <trkpt lat="42.453898" lon="-5.999970">
        <ele>925.973</ele>
        <time>2013-06-26T11:09:51Z</time>
      </trkpt>
      <trkpt lat="42.453918" lon="-6.000033">
        <ele>924.971</ele>
        <time>2013-06-26T11:09:58Z</time>
      </trkpt>
      <trkpt lat="42.453936" lon="-6.000160">
        <ele>925.457</ele>
        <time>2013-06-26T11:10:06Z</time>
      </trkpt>
      <trkpt lat="42.453932" lon="-6.000280">
        <ele>924.552</ele>
        <time>2013-06-26T11:10:15Z</time>
      </trkpt>
      <trkpt lat="42.453947" lon="-6.000370">
        <ele>924.953</ele>
        <time>2013-06-26T11:10:22Z</time>
      </trkpt>
      <trkpt lat="42.453933" lon="-6.000444">
        <ele>924.508</ele>
        <time>2013-06-26T11:10:29Z</time>
      </trkpt>
      <trkpt lat="42.453979" lon="-6.000616">
        <ele>924.007</ele>
        <time>2013-06-26T11:10:39Z</time>
      </trkpt>
      <trkpt lat="42.453999" lon="-6.000709">
        <ele>923.029</ele>
        <time>2013-06-26T11:10:47Z</time>
      </trkpt>
      <trkpt lat="42.454015" lon="-6.000818">
        <ele>922.542</ele>
        <time>2013-06-26T11:10:54Z</time>
      </trkpt>
      <trkpt lat="42.454079" lon="-6.000976">
        <ele>920.611</ele>
        <time>2013-06-26T11:11:05Z</time>
      </trkpt>
      <trkpt lat="42.454132" lon="-6.001121">
        <ele>918.716</ele>
        <time>2013-06-26T11:11:16Z</time>
      </trkpt>
      <trkpt lat="42.454204" lon="-6.001322">
        <ele>916.312</ele>
        <time>2013-06-26T11:11:29Z</time>
      </trkpt>
      <trkpt lat="42.454264" lon="-6.001486">
        <ele>913.960</ele>
        <time>2013-06-26T11:11:40Z</time>
      </trkpt>
      <trkpt lat="42.454303" lon="-6.001558">
        <ele>912.926</ele>
        <time>2013-06-26T11:11:49Z</time>
      </trkpt>
      <trkpt lat="42.454290" lon="-6.001555">
        <ele>912.476</ele>
        <time>2013-06-26T11:11:57Z</time>
      </trkpt>
      <trkpt lat="42.454278" lon="-6.001678">
        <ele>911.590</ele>
        <time>2013-06-26T11:12:05Z</time>
      </trkpt>
      <trkpt lat="42.454305" lon="-6.001804">
        <ele>910.019</ele>
        <time>2013-06-26T11:12:13Z</time>
      </trkpt>
      <trkpt lat="42.454322" lon="-6.001998">
        <ele>907.607</ele>
        <time>2013-06-26T11:12:24Z</time>
      </trkpt>
      <trkpt lat="42.454349" lon="-6.002220">
        <ele>905.721</ele>
        <time>2013-06-26T11:12:35Z</time>
      </trkpt>
      <trkpt lat="42.454381" lon="-6.002361">
        <ele>904.394</ele>
        <time>2013-06-26T11:12:44Z</time>
      </trkpt>
      <trkpt lat="42.454409" lon="-6.002487">
        <ele>902.853</ele>
        <time>2013-06-26T11:12:52Z</time>
      </trkpt>
      <trkpt lat="42.454445" lon="-6.002663">
        <ele>900.498</ele>
        <time>2013-06-26T11:13:03Z</time>
      </trkpt>
      <trkpt lat="42.454478" lon="-6.002801">
        <ele>898.524</ele>
        <time>2013-06-26T11:13:13Z</time>
      </trkpt>
      <trkpt lat="42.454506" lon="-6.002938">
        <ele>897.112</ele>
        <time>2013-06-26T11:13:22Z</time>
      </trkpt>
      <trkpt lat="42.454521" lon="-6.003023">
        <ele>896.688</ele>
        <time>2013-06-26T11:13:30Z</time>
      </trkpt>
      <trkpt lat="42.454548" lon="-6.003178">
        <ele>894.676</ele>
        <time>2013-06-26T11:13:40Z</time>
      </trkpt>
      <trkpt lat="42.454575" lon="-6.003347">
        <ele>893.290</ele>
        <time>2013-06-26T11:13:50Z</time>
      </trkpt>
      <trkpt lat="42.454564" lon="-6.003510">
        <ele>891.819</ele>
        <time>2013-06-26T11:13:59Z</time>
      </trkpt>
      <trkpt lat="42.454550" lon="-6.003664">
        <ele>890.807</ele>
        <time>2013-06-26T11:14:09Z</time>
      </trkpt>
      <trkpt lat="42.454539" lon="-6.003830">
        <ele>889.821</ele>
        <time>2013-06-26T11:14:19Z</time>
      </trkpt>
      <trkpt lat="42.454517" lon="-6.003996">
        <ele>888.954</ele>
        <time>2013-06-26T11:14:29Z</time>
      </trkpt>
      <trkpt lat="42.454520" lon="-6.004127">
        <ele>887.963</ele>
        <time>2013-06-26T11:14:38Z</time>
      </trkpt>
      <trkpt lat="42.454500" lon="-6.004274">
        <ele>887.098</ele>
        <time>2013-06-26T11:14:48Z</time>
      </trkpt>
      <trkpt lat="42.454492" lon="-6.004316">
        <ele>887.084</ele>
        <time>2013-06-26T11:14:53Z</time>
      </trkpt>
      <trkpt lat="42.454480" lon="-6.004412">
        <ele>886.542</ele>
        <time>2013-06-26T11:14:58Z</time>
      </trkpt>
      <trkpt lat="42.454464" lon="-6.004450">
        <ele>886.578</ele>
        <time>2013-06-26T11:15:01Z</time>
      </trkpt>
      <trkpt lat="42.454461" lon="-6.004533">
        <ele>885.571</ele>
        <time>2013-06-26T11:15:07Z</time>
      </trkpt>
      <trkpt lat="42.454452" lon="-6.004653">
        <ele>884.641</ele>
        <time>2013-06-26T11:15:15Z</time>
      </trkpt>
      <trkpt lat="42.454447" lon="-6.004720">
        <ele>884.615</ele>
        <time>2013-06-26T11:15:20Z</time>
      </trkpt>
      <trkpt lat="42.454419" lon="-6.004909">
        <ele>884.107</ele>
        <time>2013-06-26T11:15:32Z</time>
      </trkpt>
      <trkpt lat="42.454396" lon="-6.005076">
        <ele>883.171</ele>
        <time>2013-06-26T11:15:42Z</time>
      </trkpt>
      <trkpt lat="42.454377" lon="-6.005245">
        <ele>882.224</ele>
        <time>2013-06-26T11:15:53Z</time>
      </trkpt>
      <trkpt lat="42.454352" lon="-6.005384">
        <ele>881.723</ele>
        <time>2013-06-26T11:16:01Z</time>
      </trkpt>
      <trkpt lat="42.454336" lon="-6.005519">
        <ele>881.298</ele>
        <time>2013-06-26T11:16:10Z</time>
      </trkpt>
      <trkpt lat="42.454329" lon="-6.005642">
        <ele>880.774</ele>
        <time>2013-06-26T11:16:19Z</time>
      </trkpt>
      <trkpt lat="42.454319" lon="-6.005794">
        <ele>879.792</ele>
        <time>2013-06-26T11:16:29Z</time>
      </trkpt>
      <trkpt lat="42.454318" lon="-6.005980">
        <ele>879.358</ele>
        <time>2013-06-26T11:16:40Z</time>
      </trkpt>
      <trkpt lat="42.454329" lon="-6.006103">
        <ele>878.833</ele>
        <time>2013-06-26T11:16:48Z</time>
      </trkpt>
      <trkpt lat="42.454363" lon="-6.006261">
        <ele>877.823</ele>
        <time>2013-06-26T11:16:58Z</time>
      </trkpt>
      <trkpt lat="42.454365" lon="-6.006289">
        <ele>878.315</ele>
        <time>2013-06-26T11:17:01Z</time>
      </trkpt>
      <trkpt lat="42.454374" lon="-6.006443">
        <ele>877.307</ele>
        <time>2013-06-26T11:17:11Z</time>
      </trkpt>
      <trkpt lat="42.454373" lon="-6.006598">
        <ele>877.357</ele>
        <time>2013-06-26T11:17:20Z</time>
      </trkpt>
      <trkpt lat="42.454369" lon="-6.006649">
        <ele>876.490</ele>
        <time>2013-06-26T11:17:28Z</time>
      </trkpt>
      <trkpt lat="42.454361" lon="-6.006703">
        <ele>876.999</ele>
        <time>2013-06-26T11:17:36Z</time>
      </trkpt>
      <trkpt lat="42.454361" lon="-6.006708">
        <ele>876.924</ele>
        <time>2013-06-26T11:17:38Z</time>
      </trkpt>
      <trkpt lat="42.454368" lon="-6.006889">
        <ele>876.470</ele>
        <time>2013-06-26T11:17:48Z</time>
      </trkpt>
      <trkpt lat="42.454369" lon="-6.007085">
        <ele>875.418</ele>
        <time>2013-06-26T11:17:59Z</time>
      </trkpt>
      <trkpt lat="42.454369" lon="-6.007227">
        <ele>875.424</ele>
        <time>2013-06-26T11:18:07Z</time>
      </trkpt>
      <trkpt lat="42.454369" lon="-6.007322">
        <ele>874.935</ele>
        <time>2013-06-26T11:18:12Z</time>
      </trkpt>
      <trkpt lat="42.454360" lon="-6.007475">
        <ele>874.586</ele>
        <time>2013-06-26T11:18:22Z</time>
      </trkpt>
      <trkpt lat="42.454356" lon="-6.007507">
        <ele>874.514</ele>
        <time>2013-06-26T11:18:24Z</time>
      </trkpt>
      <trkpt lat="42.454349" lon="-6.007551">
        <ele>874.007</ele>
        <time>2013-06-26T11:18:27Z</time>
      </trkpt>
      <trkpt lat="42.454352" lon="-6.007608">
        <ele>874.027</ele>
        <time>2013-06-26T11:18:31Z</time>
      </trkpt>
      <trkpt lat="42.454357" lon="-6.007814">
        <ele>873.570</ele>
        <time>2013-06-26T11:18:43Z</time>
      </trkpt>
      <trkpt lat="42.454360" lon="-6.007952">
        <ele>872.189</ele>
        <time>2013-06-26T11:18:52Z</time>
      </trkpt>
      <trkpt lat="42.454370" lon="-6.008106">
        <ele>871.664</ele>
        <time>2013-06-26T11:19:02Z</time>
      </trkpt>
      <trkpt lat="42.454378" lon="-6.008208">
        <ele>870.690</ele>
        <time>2013-06-26T11:19:07Z</time>
      </trkpt>
      <trkpt lat="42.454379" lon="-6.008225">
        <ele>871.658</ele>
        <time>2013-06-26T11:19:08Z</time>
      </trkpt>
      <trkpt lat="42.454347" lon="-6.008356">
        <ele>871.164</ele>
        <time>2013-06-26T11:19:18Z</time>
      </trkpt>
      <trkpt lat="42.454364" lon="-6.008524">
        <ele>870.636</ele>
        <time>2013-06-26T11:19:26Z</time>
      </trkpt>
      <trkpt lat="42.454353" lon="-6.008632">
        <ele>870.117</ele>
        <time>2013-06-26T11:19:34Z</time>
      </trkpt>
      <trkpt lat="42.454353" lon="-6.008813">
        <ele>870.118</ele>
        <time>2013-06-26T11:19:43Z</time>
      </trkpt>
      <trkpt lat="42.454351" lon="-6.008861">
        <ele>869.707</ele>
        <time>2013-06-26T11:19:47Z</time>
      </trkpt>
      <trkpt lat="42.454353" lon="-6.009044">
        <ele>870.197</ele>
        <time>2013-06-26T11:19:56Z</time>
      </trkpt>
      <trkpt lat="42.454355" lon="-6.009139">
        <ele>869.770</ele>
        <time>2013-06-26T11:20:04Z</time>
      </trkpt>
      <trkpt lat="42.454345" lon="-6.009272">
        <ele>869.759</ele>
        <time>2013-06-26T11:20:13Z</time>
      </trkpt>
      <trkpt lat="42.454345" lon="-6.009304">
        <ele>869.284</ele>
        <time>2013-06-26T11:20:15Z</time>
      </trkpt>
      <trkpt lat="42.454351" lon="-6.009475">
        <ele>868.710</ele>
        <time>2013-06-26T11:20:26Z</time>
      </trkpt>
      <trkpt lat="42.454362" lon="-6.009524">
        <ele>869.268</ele>
        <time>2013-06-26T11:20:31Z</time>
      </trkpt>
      <trkpt lat="42.454352" lon="-6.009681">
        <ele>868.274</ele>
        <time>2013-06-26T11:20:41Z</time>
      </trkpt>
      <trkpt lat="42.454352" lon="-6.009696">
        <ele>868.728</ele>
        <time>2013-06-26T11:20:42Z</time>
      </trkpt>
      <trkpt lat="42.454334" lon="-6.009877">
        <ele>868.289</ele>
        <time>2013-06-26T11:20:52Z</time>
      </trkpt>
      <trkpt lat="42.454330" lon="-6.009882">
        <ele>868.217</ele>
        <time>2013-06-26T11:20:54Z</time>
      </trkpt>
      <trkpt lat="42.454333" lon="-6.009905">
        <ele>868.207</ele>
        <time>2013-06-26T11:20:56Z</time>
      </trkpt>
      <trkpt lat="42.454339" lon="-6.010029">
        <ele>868.266</ele>
        <time>2013-06-26T11:21:05Z</time>
      </trkpt>
      <trkpt lat="42.454336" lon="-6.010185">
        <ele>868.219</ele>
        <time>2013-06-26T11:21:14Z</time>
      </trkpt>
      <trkpt lat="42.454331" lon="-6.010331">
        <ele>868.798</ele>
        <time>2013-06-26T11:21:22Z</time>
      </trkpt>
      <trkpt lat="42.454329" lon="-6.010494">
        <ele>870.633</ele>
        <time>2013-06-26T11:21:30Z</time>
      </trkpt>
      <trkpt lat="42.454323" lon="-6.010570">
        <ele>861.019</ele>
        <time>2013-06-26T11:21:34Z</time>
      </trkpt>
      <trkpt lat="42.454321" lon="-6.010588">
        <ele>861.047</ele>
        <time>2013-06-26T11:21:35Z</time>
      </trkpt>
      <trkpt lat="42.454320" lon="-6.010603">
        <ele>874.023</ele>
        <time>2013-06-26T11:21:36Z</time>
      </trkpt>
      <trkpt lat="42.454319" lon="-6.010619">
        <ele>867.756</ele>
        <time>2013-06-26T11:21:37Z</time>
      </trkpt>
      <trkpt lat="42.454319" lon="-6.010667">
        <ele>871.659</ele>
        <time>2013-06-26T11:21:40Z</time>
      </trkpt>
      <trkpt lat="42.454319" lon="-6.010682">
        <ele>868.214</ele>
        <time>2013-06-26T11:21:41Z</time>
      </trkpt>
      <trkpt lat="42.454319" lon="-6.010850">
        <ele>867.707</ele>
        <time>2013-06-26T11:21:52Z</time>
      </trkpt>
      <trkpt lat="42.454319" lon="-6.010877">
        <ele>862.959</ele>
        <time>2013-06-26T11:21:54Z</time>
      </trkpt>
      <trkpt lat="42.454318" lon="-6.010889">
        <ele>872.112</ele>
        <time>2013-06-26T11:21:55Z</time>
      </trkpt>
      <trkpt lat="42.454316" lon="-6.010903">
        <ele>867.351</ele>
        <time>2013-06-26T11:21:56Z</time>
      </trkpt>
      <trkpt lat="42.454323" lon="-6.011080">
        <ele>869.296</ele>
        <time>2013-06-26T11:22:06Z</time>
      </trkpt>
      <trkpt lat="42.454314" lon="-6.011181">
        <ele>865.312</ele>
        <time>2013-06-26T11:22:11Z</time>
      </trkpt>
      <trkpt lat="42.454310" lon="-6.011211">
        <ele>870.110</ele>
        <time>2013-06-26T11:22:13Z</time>
      </trkpt>
      <trkpt lat="42.454310" lon="-6.011225">
        <ele>864.436</ele>
        <time>2013-06-26T11:22:14Z</time>
      </trkpt>
      <trkpt lat="42.454310" lon="-6.011263">
        <ele>868.737</ele>
        <time>2013-06-26T11:22:16Z</time>
      </trkpt>
      <trkpt lat="42.454311" lon="-6.011320">
        <ele>864.849</ele>
        <time>2013-06-26T11:22:19Z</time>
      </trkpt>
      <trkpt lat="42.454308" lon="-6.011357">
        <ele>868.713</ele>
        <time>2013-06-26T11:22:21Z</time>
      </trkpt>
      <trkpt lat="42.454306" lon="-6.011391">
        <ele>865.307</ele>
        <time>2013-06-26T11:22:23Z</time>
      </trkpt>
      <trkpt lat="42.454306" lon="-6.011404">
        <ele>864.837</ele>
        <time>2013-06-26T11:22:24Z</time>
      </trkpt>
      <trkpt lat="42.454308" lon="-6.011426">
        <ele>866.360</ele>
        <time>2013-06-26T11:22:26Z</time>
      </trkpt>
      <trkpt lat="42.454312" lon="-6.011527">
        <ele>866.329</ele>
        <time>2013-06-26T11:22:32Z</time>
      </trkpt>
      <trkpt lat="42.454334" lon="-6.011692">
        <ele>866.334</ele>
        <time>2013-06-26T11:22:40Z</time>
      </trkpt>
      <trkpt lat="42.454317" lon="-6.011832">
        <ele>866.380</ele>
        <time>2013-06-26T11:22:48Z</time>
      </trkpt>
      <trkpt lat="42.454316" lon="-6.011951">
        <ele>866.348</ele>
        <time>2013-06-26T11:22:56Z</time>
      </trkpt>
      <trkpt lat="42.454331" lon="-6.012018">
        <ele>865.394</ele>
        <time>2013-06-26T11:23:00Z</time>
      </trkpt>
      <trkpt lat="42.454300" lon="-6.012127">
        <ele>866.318</ele>
        <time>2013-06-26T11:23:09Z</time>
      </trkpt>
      <trkpt lat="42.454276" lon="-6.012285">
        <ele>865.898</ele>
        <time>2013-06-26T11:23:17Z</time>
      </trkpt>
      <trkpt lat="42.454289" lon="-6.012395">
        <ele>865.317</ele>
        <time>2013-06-26T11:23:23Z</time>
      </trkpt>
      <trkpt lat="42.454220" lon="-6.012512">
        <ele>865.307</ele>
        <time>2013-06-26T11:23:31Z</time>
      </trkpt>
      <trkpt lat="42.454221" lon="-6.012528">
        <ele>865.365</ele>
        <time>2013-06-26T11:23:32Z</time>
      </trkpt>
      <trkpt lat="42.454232" lon="-6.012718">
        <ele>864.868</ele>
        <time>2013-06-26T11:23:43Z</time>
      </trkpt>
      <trkpt lat="42.454199" lon="-6.012815">
        <ele>865.847</ele>
        <time>2013-06-26T11:23:51Z</time>
      </trkpt>
      <trkpt lat="42.454185" lon="-6.012950">
        <ele>865.332</ele>
        <time>2013-06-26T11:23:59Z</time>
      </trkpt>
      <trkpt lat="42.454182" lon="-6.013091">
        <ele>864.888</ele>
        <time>2013-06-26T11:24:06Z</time>
      </trkpt>
      <trkpt lat="42.454203" lon="-6.013229">
        <ele>864.416</ele>
        <time>2013-06-26T11:24:13Z</time>
      </trkpt>
      <trkpt lat="42.454225" lon="-6.013375">
        <ele>863.912</ele>
        <time>2013-06-26T11:24:22Z</time>
      </trkpt>
      <trkpt lat="42.454228" lon="-6.013487">
        <ele>864.823</ele>
        <time>2013-06-26T11:24:29Z</time>
      </trkpt>
      <trkpt lat="42.454202" lon="-6.013609">
        <ele>863.983</ele>
        <time>2013-06-26T11:24:37Z</time>
      </trkpt>
      <trkpt lat="42.454177" lon="-6.013776">
        <ele>864.411</ele>
        <time>2013-06-26T11:24:45Z</time>
      </trkpt>
      <trkpt lat="42.454172" lon="-6.013825">
        <ele>863.907</ele>
        <time>2013-06-26T11:24:49Z</time>
      </trkpt>
      <trkpt lat="42.454196" lon="-6.013896">
        <ele>863.436</ele>
        <time>2013-06-26T11:24:54Z</time>
      </trkpt>
      <trkpt lat="42.454213" lon="-6.014053">
        <ele>864.429</ele>
        <time>2013-06-26T11:25:02Z</time>
      </trkpt>
      <trkpt lat="42.454203" lon="-6.014137">
        <ele>863.948</ele>
        <time>2013-06-26T11:25:08Z</time>
      </trkpt>
      <trkpt lat="42.454206" lon="-6.014305">
        <ele>863.933</ele>
        <time>2013-06-26T11:25:16Z</time>
      </trkpt>
      <trkpt lat="42.454157" lon="-6.014412">
        <ele>862.949</ele>
        <time>2013-06-26T11:25:24Z</time>
      </trkpt>
      <trkpt lat="42.454193" lon="-6.014566">
        <ele>863.497</ele>
        <time>2013-06-26T11:25:32Z</time>
      </trkpt>
      <trkpt lat="42.454192" lon="-6.014689">
        <ele>862.923</ele>
        <time>2013-06-26T11:25:39Z</time>
      </trkpt>
      <trkpt lat="42.454152" lon="-6.014779">
        <ele>862.963</ele>
        <time>2013-06-26T11:25:47Z</time>
      </trkpt>
      <trkpt lat="42.454174" lon="-6.014864">
        <ele>862.944</ele>
        <time>2013-06-26T11:25:52Z</time>
      </trkpt>
      <trkpt lat="42.454179" lon="-6.014897">
        <ele>862.418</ele>
        <time>2013-06-26T11:25:54Z</time>
      </trkpt>
      <trkpt lat="42.454166" lon="-6.014952">
        <ele>862.907</ele>
        <time>2013-06-26T11:25:58Z</time>
      </trkpt>
      <trkpt lat="42.454173" lon="-6.015129">
        <ele>862.080</ele>
        <time>2013-06-26T11:26:06Z</time>
      </trkpt>
      <trkpt lat="42.454185" lon="-6.015197">
        <ele>862.053</ele>
        <time>2013-06-26T11:26:09Z</time>
      </trkpt>
      <trkpt lat="42.454169" lon="-6.015241">
        <ele>862.012</ele>
        <time>2013-06-26T11:26:13Z</time>
      </trkpt>
      <trkpt lat="42.454156" lon="-6.015286">
        <ele>861.567</ele>
        <time>2013-06-26T11:26:16Z</time>
      </trkpt>
      <trkpt lat="42.454192" lon="-6.015403">
        <ele>862.023</ele>
        <time>2013-06-26T11:26:22Z</time>
      </trkpt>
      <trkpt lat="42.454171" lon="-6.015470">
        <ele>862.051</ele>
        <time>2013-06-26T11:26:27Z</time>
      </trkpt>
      <trkpt lat="42.454191" lon="-6.015619">
        <ele>862.447</ele>
        <time>2013-06-26T11:26:34Z</time>
      </trkpt>
      <trkpt lat="42.454228" lon="-6.015715">
        <ele>862.037</ele>
        <time>2013-06-26T11:26:42Z</time>
      </trkpt>
      <trkpt lat="42.454281" lon="-6.015846">
        <ele>862.049</ele>
        <time>2013-06-26T11:26:49Z</time>
      </trkpt>
      <trkpt lat="42.454293" lon="-6.015874">
        <ele>861.513</ele>
        <time>2013-06-26T11:26:52Z</time>
      </trkpt>
      <trkpt lat="42.454303" lon="-6.015911">
        <ele>862.007</ele>
        <time>2013-06-26T11:26:58Z</time>
      </trkpt>
      <trkpt lat="42.454331" lon="-6.016054">
        <ele>861.547</ele>
        <time>2013-06-26T11:27:07Z</time>
      </trkpt>
      <trkpt lat="42.454340" lon="-6.016171">
        <ele>861.010</ele>
        <time>2013-06-26T11:27:14Z</time>
      </trkpt>
      <trkpt lat="42.454339" lon="-6.016314">
        <ele>861.059</ele>
        <time>2013-06-26T11:27:23Z</time>
      </trkpt>
      <trkpt lat="42.454384" lon="-6.016493">
        <ele>861.554</ele>
        <time>2013-06-26T11:27:33Z</time>
      </trkpt>
      <trkpt lat="42.454355" lon="-6.016627">
        <ele>861.090</ele>
        <time>2013-06-26T11:27:42Z</time>
      </trkpt>
      <trkpt lat="42.454319" lon="-6.016639">
        <ele>861.038</ele>
        <time>2013-06-26T11:27:49Z</time>
      </trkpt>
      <trkpt lat="42.454328" lon="-6.016632">
        <ele>861.534</ele>
        <time>2013-06-26T11:27:50Z</time>
      </trkpt>
      <trkpt lat="42.454364" lon="-6.016653">
        <ele>862.099</ele>
        <time>2013-06-26T11:27:53Z</time>
      </trkpt>
      <trkpt lat="42.454396" lon="-6.016823">
        <ele>861.007</ele>
        <time>2013-06-26T11:28:02Z</time>
      </trkpt>
      <trkpt lat="42.454419" lon="-6.017050">
        <ele>860.527</ele>
        <time>2013-06-26T11:28:10Z</time>
      </trkpt>
      <trkpt lat="42.454422" lon="-6.017074">
        <ele>860.507</ele>
        <time>2013-06-26T11:28:11Z</time>
      </trkpt>
      <trkpt lat="42.454347" lon="-6.017200">
        <ele>860.533</ele>
        <time>2013-06-26T11:28:19Z</time>
      </trkpt>
      <trkpt lat="42.454369" lon="-6.017380">
        <ele>860.016</ele>
        <time>2013-06-26T11:28:29Z</time>
      </trkpt>
      <trkpt lat="42.454370" lon="-6.017537">
        <ele>859.175</ele>
        <time>2013-06-26T11:28:38Z</time>
      </trkpt>
      <trkpt lat="42.454372" lon="-6.017618">
        <ele>858.660</ele>
        <time>2013-06-26T11:28:46Z</time>
      </trkpt>
      <trkpt lat="42.454388" lon="-6.017776">
        <ele>858.616</ele>
        <time>2013-06-26T11:28:55Z</time>
      </trkpt>
      <trkpt lat="42.454391" lon="-6.017929">
        <ele>857.264</ele>
        <time>2013-06-26T11:29:03Z</time>
      </trkpt>
      <trkpt lat="42.454383" lon="-6.017945">
        <ele>857.630</ele>
        <time>2013-06-26T11:29:05Z</time>
      </trkpt>
      <trkpt lat="42.454389" lon="-6.018011">
        <ele>857.616</ele>
        <time>2013-06-26T11:29:09Z</time>
      </trkpt>
      <trkpt lat="42.454425" lon="-6.018132">
        <ele>857.676</ele>
        <time>2013-06-26T11:29:15Z</time>
      </trkpt>
      <trkpt lat="42.454455" lon="-6.018323">
        <ele>855.713</ele>
        <time>2013-06-26T11:29:29Z</time>
      </trkpt>
      <trkpt lat="42.454451" lon="-6.018386">
        <ele>856.207</ele>
        <time>2013-06-26T11:29:34Z</time>
      </trkpt>
      <trkpt lat="42.454461" lon="-6.018580">
        <ele>855.765</ele>
        <time>2013-06-26T11:29:45Z</time>
      </trkpt>
      <trkpt lat="42.454457" lon="-6.018777">
        <ele>854.888</ele>
        <time>2013-06-26T11:29:56Z</time>
      </trkpt>
      <trkpt lat="42.454467" lon="-6.018849">
        <ele>854.827</ele>
        <time>2013-06-26T11:30:01Z</time>
      </trkpt>
      <trkpt lat="42.454478" lon="-6.019019">
        <ele>854.812</ele>
        <time>2013-06-26T11:30:11Z</time>
      </trkpt>
      <trkpt lat="42.454504" lon="-6.019145">
        <ele>854.838</ele>
        <time>2013-06-26T11:30:18Z</time>
      </trkpt>
      <trkpt lat="42.454518" lon="-6.019303">
        <ele>854.366</ele>
        <time>2013-06-26T11:30:27Z</time>
      </trkpt>
      <trkpt lat="42.454525" lon="-6.019479">
        <ele>854.372</ele>
        <time>2013-06-26T11:30:36Z</time>
      </trkpt>
      <trkpt lat="42.454548" lon="-6.019644">
        <ele>854.318</ele>
        <time>2013-06-26T11:30:47Z</time>
      </trkpt>
      <trkpt lat="42.454575" lon="-6.019775">
        <ele>854.398</ele>
        <time>2013-06-26T11:30:56Z</time>
      </trkpt>
      <trkpt lat="42.454582" lon="-6.019942">
        <ele>854.317</ele>
        <time>2013-06-26T11:31:05Z</time>
      </trkpt>
      <trkpt lat="42.454569" lon="-6.020122">
        <ele>854.307</ele>
        <time>2013-06-26T11:31:16Z</time>
      </trkpt>
      <trkpt lat="42.454572" lon="-6.020286">
        <ele>854.365</ele>
        <time>2013-06-26T11:31:25Z</time>
      </trkpt>
      <trkpt lat="42.454568" lon="-6.020431">
        <ele>854.318</ele>
        <time>2013-06-26T11:31:33Z</time>
      </trkpt>
      <trkpt lat="42.454595" lon="-6.020593">
        <ele>854.837</ele>
        <time>2013-06-26T11:31:43Z</time>
      </trkpt>
      <trkpt lat="42.454606" lon="-6.020763">
        <ele>854.892</ele>
        <time>2013-06-26T11:31:54Z</time>
      </trkpt>
      <trkpt lat="42.454619" lon="-6.020908">
        <ele>854.838</ele>
        <time>2013-06-26T11:32:02Z</time>
      </trkpt>
      <trkpt lat="42.454601" lon="-6.021010">
        <ele>854.376</ele>
        <time>2013-06-26T11:32:08Z</time>
      </trkpt>
      <trkpt lat="42.454599" lon="-6.021053">
        <ele>854.852</ele>
        <time>2013-06-26T11:32:11Z</time>
      </trkpt>
      <trkpt lat="42.454612" lon="-6.021235">
        <ele>854.812</ele>
        <time>2013-06-26T11:32:22Z</time>
      </trkpt>
      <trkpt lat="42.454622" lon="-6.021388">
        <ele>854.332</ele>
        <time>2013-06-26T11:32:31Z</time>
      </trkpt>
      <trkpt lat="42.454626" lon="-6.021543">
        <ele>855.205</ele>
        <time>2013-06-26T11:32:39Z</time>
      </trkpt>
      <trkpt lat="42.454630" lon="-6.021719">
        <ele>855.707</ele>
        <time>2013-06-26T11:32:49Z</time>
      </trkpt>
      <trkpt lat="42.454638" lon="-6.021864">
        <ele>855.775</ele>
        <time>2013-06-26T11:32:58Z</time>
      </trkpt>
      <trkpt lat="42.454656" lon="-6.022066">
        <ele>856.258</ele>
        <time>2013-06-26T11:33:10Z</time>
      </trkpt>
      <trkpt lat="42.454668" lon="-6.022201">
        <ele>856.787</ele>
        <time>2013-06-26T11:33:18Z</time>
      </trkpt>
      <trkpt lat="42.454661" lon="-6.022378">
        <ele>856.722</ele>
        <time>2013-06-26T11:33:28Z</time>
      </trkpt>
      <trkpt lat="42.454641" lon="-6.022556">
        <ele>856.758</ele>
        <time>2013-06-26T11:33:39Z</time>
      </trkpt>
      <trkpt lat="42.454586" lon="-6.022724">
        <ele>856.736</ele>
        <time>2013-06-26T11:33:50Z</time>
      </trkpt>
      <trkpt lat="42.454481" lon="-6.022880">
        <ele>856.772</ele>
        <time>2013-06-26T11:34:02Z</time>
      </trkpt>
      <trkpt lat="42.454415" lon="-6.022970">
        <ele>856.747</ele>
        <time>2013-06-26T11:34:10Z</time>
      </trkpt>
      <trkpt lat="42.454347" lon="-6.023049">
        <ele>856.729</ele>
        <time>2013-06-26T11:34:18Z</time>
      </trkpt>
      <trkpt lat="42.454278" lon="-6.023143">
        <ele>856.221</ele>
        <time>2013-06-26T11:34:26Z</time>
      </trkpt>
      <trkpt lat="42.454184" lon="-6.023233">
        <ele>856.207</ele>
        <time>2013-06-26T11:34:35Z</time>
      </trkpt>
      <trkpt lat="42.454096" lon="-6.023336">
        <ele>856.718</ele>
        <time>2013-06-26T11:34:44Z</time>
      </trkpt>
      <trkpt lat="42.453990" lon="-6.023441">
        <ele>856.741</ele>
        <time>2013-06-26T11:34:54Z</time>
      </trkpt>
      <trkpt lat="42.453916" lon="-6.023529">
        <ele>856.760</ele>
        <time>2013-06-26T11:35:02Z</time>
      </trkpt>
      <trkpt lat="42.453862" lon="-6.023667">
        <ele>856.255</ele>
        <time>2013-06-26T11:35:11Z</time>
      </trkpt>
      <trkpt lat="42.453862" lon="-6.023695">
        <ele>856.291</ele>
        <time>2013-06-26T11:35:18Z</time>
      </trkpt>
      <trkpt lat="42.453831" lon="-6.023902">
        <ele>855.719</ele>
        <time>2013-06-26T11:35:28Z</time>
      </trkpt>
      <trkpt lat="42.453850" lon="-6.024084">
        <ele>855.715</ele>
        <time>2013-06-26T11:35:38Z</time>
      </trkpt>
      <trkpt lat="42.453856" lon="-6.024266">
        <ele>855.771</ele>
        <time>2013-06-26T11:35:48Z</time>
      </trkpt>
      <trkpt lat="42.453865" lon="-6.024390">
        <ele>855.241</ele>
        <time>2013-06-26T11:35:56Z</time>
      </trkpt>
      <trkpt lat="42.453862" lon="-6.024582">
        <ele>855.215</ele>
        <time>2013-06-26T11:36:06Z</time>
      </trkpt>
      <trkpt lat="42.453875" lon="-6.024721">
        <ele>855.207</ele>
        <time>2013-06-26T11:36:16Z</time>
      </trkpt>
      <trkpt lat="42.453870" lon="-6.024738">
        <ele>855.251</ele>
        <time>2013-06-26T11:36:19Z</time>
      </trkpt>
      <trkpt lat="42.453876" lon="-6.024819">
        <ele>855.754</ele>
        <time>2013-06-26T11:36:23Z</time>
      </trkpt>
      <trkpt lat="42.453894" lon="-6.025028">
        <ele>855.233</ele>
        <time>2013-06-26T11:36:35Z</time>
      </trkpt>
      <trkpt lat="42.453898" lon="-6.025181">
        <ele>855.768</ele>
        <time>2013-06-26T11:36:44Z</time>
      </trkpt>
      <trkpt lat="42.453911" lon="-6.025357">
        <ele>855.284</ele>
        <time>2013-06-26T11:36:54Z</time>
      </trkpt>
      <trkpt lat="42.453933" lon="-6.025424">
        <ele>854.812</ele>
        <time>2013-06-26T11:36:58Z</time>
      </trkpt>
      <trkpt lat="42.454007" lon="-6.025508">
        <ele>854.348</ele>
        <time>2013-06-26T11:37:06Z</time>
      </trkpt>
      <trkpt lat="42.454145" lon="-6.025519">
        <ele>853.323</ele>
        <time>2013-06-26T11:37:17Z</time>
      </trkpt>
      <trkpt lat="42.454270" lon="-6.025591">
        <ele>852.483</ele>
        <time>2013-06-26T11:37:28Z</time>
      </trkpt>
      <trkpt lat="42.454326" lon="-6.025716">
        <ele>852.811</ele>
        <time>2013-06-26T11:37:37Z</time>
      </trkpt>
      <trkpt lat="42.454344" lon="-6.025905">
        <ele>852.807</ele>
        <time>2013-06-26T11:37:48Z</time>
      </trkpt>
      <trkpt lat="42.454332" lon="-6.026083">
        <ele>853.316</ele>
        <time>2013-06-26T11:37:58Z</time>
      </trkpt>
      <trkpt lat="42.454348" lon="-6.026227">
        <ele>852.839</ele>
        <time>2013-06-26T11:38:07Z</time>
      </trkpt>
      <trkpt lat="42.454351" lon="-6.026414">
        <ele>852.898</ele>
        <time>2013-06-26T11:38:18Z</time>
      </trkpt>
      <trkpt lat="42.454359" lon="-6.026612">
        <ele>852.453</ele>
        <time>2013-06-26T11:38:29Z</time>
      </trkpt>
      <trkpt lat="42.454374" lon="-6.026762">
        <ele>852.419</ele>
        <time>2013-06-26T11:38:38Z</time>
      </trkpt>
      <trkpt lat="42.454379" lon="-6.026871">
        <ele>852.877</ele>
        <time>2013-06-26T11:38:45Z</time>
      </trkpt>
      <trkpt lat="42.454394" lon="-6.026974">
        <ele>853.333</ele>
        <time>2013-06-26T11:38:52Z</time>
      </trkpt>
      <trkpt lat="42.454398" lon="-6.027121">
        <ele>852.818</ele>
        <time>2013-06-26T11:39:01Z</time>
      </trkpt>
      <trkpt lat="42.454413" lon="-6.027317">
        <ele>852.898</ele>
        <time>2013-06-26T11:39:13Z</time>
      </trkpt>
      <trkpt lat="42.454435" lon="-6.027525">
        <ele>852.817</ele>
        <time>2013-06-26T11:39:25Z</time>
      </trkpt>
      <trkpt lat="42.454450" lon="-6.027682">
        <ele>853.307</ele>
        <time>2013-06-26T11:39:35Z</time>
      </trkpt>
      <trkpt lat="42.454460" lon="-6.027864">
        <ele>852.875</ele>
        <time>2013-06-26T11:39:46Z</time>
      </trkpt>
      <trkpt lat="42.454473" lon="-6.028045">
        <ele>853.328</ele>
        <time>2013-06-26T11:39:56Z</time>
      </trkpt>
      <trkpt lat="42.454474" lon="-6.028091">
        <ele>852.817</ele>
        <time>2013-06-26T11:39:59Z</time>
      </trkpt>
      <trkpt lat="42.454483" lon="-6.028148">
        <ele>852.882</ele>
        <time>2013-06-26T11:40:03Z</time>
      </trkpt>
      <trkpt lat="42.454491" lon="-6.028333">
        <ele>853.348</ele>
        <time>2013-06-26T11:40:13Z</time>
      </trkpt>
      <trkpt lat="42.454491" lon="-6.028527">
        <ele>852.436</ele>
        <time>2013-06-26T11:40:24Z</time>
      </trkpt>
      <trkpt lat="42.454503" lon="-6.028669">
        <ele>852.822</ele>
        <time>2013-06-26T11:40:33Z</time>
      </trkpt>
      <trkpt lat="42.454513" lon="-6.028819">
        <ele>852.823</ele>
        <time>2013-06-26T11:40:42Z</time>
      </trkpt>
      <trkpt lat="42.454511" lon="-6.029041">
        <ele>852.883</ele>
        <time>2013-06-26T11:40:54Z</time>
      </trkpt>
      <trkpt lat="42.454519" lon="-6.029128">
        <ele>852.811</ele>
        <time>2013-06-26T11:40:59Z</time>
      </trkpt>
      <trkpt lat="42.454545" lon="-6.029323">
        <ele>852.807</ele>
        <time>2013-06-26T11:41:11Z</time>
      </trkpt>
      <trkpt lat="42.454551" lon="-6.029492">
        <ele>853.336</ele>
        <time>2013-06-26T11:41:21Z</time>
      </trkpt>
      <trkpt lat="42.454584" lon="-6.029644">
        <ele>853.389</ele>
        <time>2013-06-26T11:41:31Z</time>
      </trkpt>
      <trkpt lat="42.454588" lon="-6.029691">
        <ele>853.358</ele>
        <time>2013-06-26T11:41:39Z</time>
      </trkpt>
      <trkpt lat="42.454586" lon="-6.029707">
        <ele>853.383</ele>
        <time>2013-06-26T11:41:41Z</time>
      </trkpt>
      <trkpt lat="42.454564" lon="-6.029792">
        <ele>852.879</ele>
        <time>2013-06-26T11:41:46Z</time>
      </trkpt>
      <trkpt lat="42.454565" lon="-6.029827">
        <ele>852.837</ele>
        <time>2013-06-26T11:41:48Z</time>
      </trkpt>
      <trkpt lat="42.454567" lon="-6.030029">
        <ele>852.813</ele>
        <time>2013-06-26T11:41:58Z</time>
      </trkpt>
      <trkpt lat="42.454572" lon="-6.030228">
        <ele>852.855</ele>
        <time>2013-06-26T11:42:09Z</time>
      </trkpt>
      <trkpt lat="42.454583" lon="-6.030416">
        <ele>852.807</ele>
        <time>2013-06-26T11:42:19Z</time>
      </trkpt>
      <trkpt lat="42.454589" lon="-6.030587">
        <ele>853.317</ele>
        <time>2013-06-26T11:42:29Z</time>
      </trkpt>
      <trkpt lat="42.454590" lon="-6.030627">
        <ele>852.807</ele>
        <time>2013-06-26T11:42:33Z</time>
      </trkpt>
      <trkpt lat="42.454595" lon="-6.030743">
        <ele>853.379</ele>
        <time>2013-06-26T11:42:40Z</time>
      </trkpt>
      <trkpt lat="42.454607" lon="-6.030849">
        <ele>853.342</ele>
        <time>2013-06-26T11:42:46Z</time>
      </trkpt>
      <trkpt lat="42.454606" lon="-6.031062">
        <ele>853.371</ele>
        <time>2013-06-26T11:42:58Z</time>
      </trkpt>
      <trkpt lat="42.454626" lon="-6.031258">
        <ele>853.326</ele>
        <time>2013-06-26T11:43:10Z</time>
      </trkpt>
      <trkpt lat="42.454618" lon="-6.031391">
        <ele>853.312</ele>
        <time>2013-06-26T11:43:18Z</time>
      </trkpt>
      <trkpt lat="42.454634" lon="-6.031583">
        <ele>853.840</ele>
        <time>2013-06-26T11:43:29Z</time>
      </trkpt>
      <trkpt lat="42.454641" lon="-6.031802">
        <ele>853.836</ele>
        <time>2013-06-26T11:43:41Z</time>
      </trkpt>
      <trkpt lat="42.454654" lon="-6.031960">
        <ele>853.389</ele>
        <time>2013-06-26T11:43:50Z</time>
      </trkpt>
      <trkpt lat="42.454656" lon="-6.032167">
        <ele>853.306</ele>
        <time>2013-06-26T11:44:01Z</time>
      </trkpt>
      <trkpt lat="42.454668" lon="-6.032326">
        <ele>853.326</ele>
        <time>2013-06-26T11:44:10Z</time>
      </trkpt>
      <trkpt lat="42.454670" lon="-6.032492">
        <ele>853.307</ele>
        <time>2013-06-26T11:44:20Z</time>
      </trkpt>
      <trkpt lat="42.454668" lon="-6.032643">
        <ele>853.882</ele>
        <time>2013-06-26T11:44:29Z</time>
      </trkpt>
      <trkpt lat="42.454672" lon="-6.032838">
        <ele>853.875</ele>
        <time>2013-06-26T11:44:39Z</time>
      </trkpt>
      <trkpt lat="42.454682" lon="-6.032986">
        <ele>853.394</ele>
        <time>2013-06-26T11:44:48Z</time>
      </trkpt>
      <trkpt lat="42.454681" lon="-6.033049">
        <ele>853.849</ele>
        <time>2013-06-26T11:44:52Z</time>
      </trkpt>
      <trkpt lat="42.454688" lon="-6.033216">
        <ele>853.865</ele>
        <time>2013-06-26T11:45:01Z</time>
      </trkpt>
      <trkpt lat="42.454692" lon="-6.033402">
        <ele>854.323</ele>
        <time>2013-06-26T11:45:12Z</time>
      </trkpt>
      <trkpt lat="42.454695" lon="-6.033511">
        <ele>854.339</ele>
        <time>2013-06-26T11:45:19Z</time>
      </trkpt>
      <trkpt lat="42.454730" lon="-6.033636">
        <ele>854.814</ele>
        <time>2013-06-26T11:45:27Z</time>
      </trkpt>
      <trkpt lat="42.454756" lon="-6.033806">
        <ele>854.354</ele>
        <time>2013-06-26T11:45:36Z</time>
      </trkpt>
      <trkpt lat="42.454782" lon="-6.033976">
        <ele>854.309</ele>
        <time>2013-06-26T11:45:46Z</time>
      </trkpt>
      <trkpt lat="42.454816" lon="-6.034137">
        <ele>854.307</ele>
        <time>2013-06-26T11:45:56Z</time>
      </trkpt>
      <trkpt lat="42.454837" lon="-6.034354">
        <ele>854.895</ele>
        <time>2013-06-26T11:46:08Z</time>
      </trkpt>
      <trkpt lat="42.454860" lon="-6.034557">
        <ele>854.398</ele>
        <time>2013-06-26T11:46:20Z</time>
      </trkpt>
      <trkpt lat="42.454910" lon="-6.034731">
        <ele>854.357</ele>
        <time>2013-06-26T11:46:31Z</time>
      </trkpt>
      <trkpt lat="42.454943" lon="-6.034885">
        <ele>853.852</ele>
        <time>2013-06-26T11:46:40Z</time>
      </trkpt>
      <trkpt lat="42.454966" lon="-6.035033">
        <ele>854.358</ele>
        <time>2013-06-26T11:46:49Z</time>
      </trkpt>
      <trkpt lat="42.454975" lon="-6.035171">
        <ele>853.866</ele>
        <time>2013-06-26T11:46:57Z</time>
      </trkpt>
      <trkpt lat="42.454954" lon="-6.035325">
        <ele>853.872</ele>
        <time>2013-06-26T11:47:06Z</time>
      </trkpt>
      <trkpt lat="42.454964" lon="-6.035430">
        <ele>854.354</ele>
        <time>2013-06-26T11:47:12Z</time>
      </trkpt>
      <trkpt lat="42.454979" lon="-6.035614">
        <ele>854.356</ele>
        <time>2013-06-26T11:47:22Z</time>
      </trkpt>
      <trkpt lat="42.455001" lon="-6.035769">
        <ele>854.311</ele>
        <time>2013-06-26T11:47:31Z</time>
      </trkpt>
      <trkpt lat="42.455022" lon="-6.035949">
        <ele>854.807</ele>
        <time>2013-06-26T11:47:41Z</time>
      </trkpt>
      <trkpt lat="42.455039" lon="-6.036141">
        <ele>854.379</ele>
        <time>2013-06-26T11:47:52Z</time>
      </trkpt>
      <trkpt lat="42.455052" lon="-6.036319">
        <ele>854.342</ele>
        <time>2013-06-26T11:48:02Z</time>
      </trkpt>
      <trkpt lat="42.455078" lon="-6.036487">
        <ele>854.321</ele>
        <time>2013-06-26T11:48:12Z</time>
      </trkpt>
      <trkpt lat="42.455101" lon="-6.036644">
        <ele>853.836</ele>
        <time>2013-06-26T11:48:21Z</time>
      </trkpt>
      <trkpt lat="42.455120" lon="-6.036823">
        <ele>853.812</ele>
        <time>2013-06-26T11:48:31Z</time>
      </trkpt>
      <trkpt lat="42.455141" lon="-6.036997">
        <ele>854.350</ele>
        <time>2013-06-26T11:48:40Z</time>
      </trkpt>
      <trkpt lat="42.455166" lon="-6.037149">
        <ele>854.336</ele>
        <time>2013-06-26T11:48:49Z</time>
      </trkpt>
      <trkpt lat="42.455205" lon="-6.037284">
        <ele>854.394</ele>
        <time>2013-06-26T11:48:58Z</time>
      </trkpt>
      <trkpt lat="42.455232" lon="-6.037519">
        <ele>854.357</ele>
        <time>2013-06-26T11:49:11Z</time>
      </trkpt>
      <trkpt lat="42.455262" lon="-6.037701">
        <ele>853.822</ele>
        <time>2013-06-26T11:49:22Z</time>
      </trkpt>
      <trkpt lat="42.455284" lon="-6.037861">
        <ele>854.307</ele>
        <time>2013-06-26T11:49:31Z</time>
      </trkpt>
      <trkpt lat="42.455311" lon="-6.038017">
        <ele>854.383</ele>
        <time>2013-06-26T11:49:41Z</time>
      </trkpt>
      <trkpt lat="42.455334" lon="-6.038132">
        <ele>853.836</ele>
        <time>2013-06-26T11:49:48Z</time>
      </trkpt>
      <trkpt lat="42.455364" lon="-6.038322">
        <ele>853.835</ele>
        <time>2013-06-26T11:49:59Z</time>
      </trkpt>
      <trkpt lat="42.455384" lon="-6.038516">
        <ele>854.330</ele>
        <time>2013-06-26T11:50:10Z</time>
      </trkpt>
      <trkpt lat="42.455398" lon="-6.038708">
        <ele>854.326</ele>
        <time>2013-06-26T11:50:21Z</time>
      </trkpt>
      <trkpt lat="42.455435" lon="-6.038934">
        <ele>853.834</ele>
        <time>2013-06-26T11:50:34Z</time>
      </trkpt>
      <trkpt lat="42.455473" lon="-6.039180">
        <ele>854.380</ele>
        <time>2013-06-26T11:50:48Z</time>
      </trkpt>
      <trkpt lat="42.455499" lon="-6.039393">
        <ele>854.328</ele>
        <time>2013-06-26T11:51:00Z</time>
      </trkpt>
      <trkpt lat="42.455531" lon="-6.039583">
        <ele>854.389</ele>
        <time>2013-06-26T11:51:11Z</time>
      </trkpt>
      <trkpt lat="42.455548" lon="-6.039765">
        <ele>854.317</ele>
        <time>2013-06-26T11:51:21Z</time>
      </trkpt>
      <trkpt lat="42.455560" lon="-6.039947">
        <ele>854.307</ele>
        <time>2013-06-26T11:51:31Z</time>
      </trkpt>
      <trkpt lat="42.455582" lon="-6.040151">
        <ele>854.396</ele>
        <time>2013-06-26T11:51:43Z</time>
      </trkpt>
      <trkpt lat="42.455609" lon="-6.040348">
        <ele>854.399</ele>
        <time>2013-06-26T11:51:54Z</time>
      </trkpt>
      <trkpt lat="42.455648" lon="-6.040532">
        <ele>854.878</ele>
        <time>2013-06-26T11:52:05Z</time>
      </trkpt>
      <trkpt lat="42.455670" lon="-6.040723">
        <ele>854.883</ele>
        <time>2013-06-26T11:52:16Z</time>
      </trkpt>
      <trkpt lat="42.455686" lon="-6.040886">
        <ele>854.819</ele>
        <time>2013-06-26T11:52:26Z</time>
      </trkpt>
      <trkpt lat="42.455698" lon="-6.041031">
        <ele>854.857</ele>
        <time>2013-06-26T11:52:36Z</time>
      </trkpt>
      <trkpt lat="42.455704" lon="-6.041063">
        <ele>855.273</ele>
        <time>2013-06-26T11:52:38Z</time>
      </trkpt>
      <trkpt lat="42.455747" lon="-6.041251">
        <ele>855.252</ele>
        <time>2013-06-26T11:52:49Z</time>
      </trkpt>
      <trkpt lat="42.455777" lon="-6.041439">
        <ele>855.253</ele>
        <time>2013-06-26T11:53:00Z</time>
      </trkpt>
      <trkpt lat="42.455797" lon="-6.041549">
        <ele>855.208</ele>
        <time>2013-06-26T11:53:06Z</time>
      </trkpt>
      <trkpt lat="42.455817" lon="-6.041748">
        <ele>855.207</ele>
        <time>2013-06-26T11:53:17Z</time>
      </trkpt>
      <trkpt lat="42.455857" lon="-6.041928">
        <ele>855.219</ele>
        <time>2013-06-26T11:53:28Z</time>
      </trkpt>
      <trkpt lat="42.455879" lon="-6.042079">
        <ele>854.882</ele>
        <time>2013-06-26T11:53:37Z</time>
      </trkpt>
      <trkpt lat="42.455913" lon="-6.042279">
        <ele>855.211</ele>
        <time>2013-06-26T11:53:48Z</time>
      </trkpt>
      <trkpt lat="42.455929" lon="-6.042461">
        <ele>855.256</ele>
        <time>2013-06-26T11:53:58Z</time>
      </trkpt>
      <trkpt lat="42.455922" lon="-6.042697">
        <ele>855.282</ele>
        <time>2013-06-26T11:54:11Z</time>
      </trkpt>
      <trkpt lat="42.455894" lon="-6.042869">
        <ele>854.820</ele>
        <time>2013-06-26T11:54:21Z</time>
      </trkpt>
      <trkpt lat="42.455849" lon="-6.043050">
        <ele>854.846</ele>
        <time>2013-06-26T11:54:32Z</time>
      </trkpt>
      <trkpt lat="42.455807" lon="-6.043245">
        <ele>854.852</ele>
        <time>2013-06-26T11:54:44Z</time>
      </trkpt>
      <trkpt lat="42.455793" lon="-6.043404">
        <ele>855.253</ele>
        <time>2013-06-26T11:54:54Z</time>
      </trkpt>
      <trkpt lat="42.455811" lon="-6.043580">
        <ele>855.208</ele>
        <time>2013-06-26T11:55:03Z</time>
      </trkpt>
      <trkpt lat="42.455856" lon="-6.043737">
        <ele>856.207</ele>
        <time>2013-06-26T11:55:13Z</time>
      </trkpt>
      <trkpt lat="42.455896" lon="-6.043864">
        <ele>854.849</ele>
        <time>2013-06-26T11:55:23Z</time>
      </trkpt>
      <trkpt lat="42.455871" lon="-6.043882">
        <ele>854.842</ele>
        <time>2013-06-26T11:55:30Z</time>
      </trkpt>
      <trkpt lat="42.455779" lon="-6.043985">
        <ele>854.391</ele>
        <time>2013-06-26T11:55:39Z</time>
      </trkpt>
      <trkpt lat="42.455663" lon="-6.044060">
        <ele>854.336</ele>
        <time>2013-06-26T11:55:49Z</time>
      </trkpt>
      <trkpt lat="42.455574" lon="-6.044125">
        <ele>854.372</ele>
        <time>2013-06-26T11:55:58Z</time>
      </trkpt>
      <trkpt lat="42.455421" lon="-6.044268">
        <ele>854.390</ele>
        <time>2013-06-26T11:56:12Z</time>
      </trkpt>
      <trkpt lat="42.455308" lon="-6.044344">
        <ele>854.386</ele>
        <time>2013-06-26T11:56:21Z</time>
      </trkpt>
      <trkpt lat="42.455175" lon="-6.044378">
        <ele>854.331</ele>
        <time>2013-06-26T11:56:32Z</time>
      </trkpt>
      <trkpt lat="42.455079" lon="-6.044410">
        <ele>854.361</ele>
        <time>2013-06-26T11:56:40Z</time>
      </trkpt>
      <trkpt lat="42.455068" lon="-6.044415">
        <ele>854.807</ele>
        <time>2013-06-26T11:56:41Z</time>
      </trkpt>
      <trkpt lat="42.454923" lon="-6.044414">
        <ele>853.807</ele>
        <time>2013-06-26T11:56:52Z</time>
      </trkpt>
      <trkpt lat="42.454780" lon="-6.044408">
        <ele>854.337</ele>
        <time>2013-06-26T11:57:03Z</time>
      </trkpt>
      <trkpt lat="42.454756" lon="-6.044422">
        <ele>854.870</ele>
        <time>2013-06-26T11:57:05Z</time>
      </trkpt>
      <trkpt lat="42.454737" lon="-6.044473">
        <ele>854.819</ele>
        <time>2013-06-26T11:57:09Z</time>
      </trkpt>
      <trkpt lat="42.454723" lon="-6.044598">
        <ele>854.814</ele>
        <time>2013-06-26T11:57:18Z</time>
      </trkpt>
      <trkpt lat="42.454683" lon="-6.044637">
        <ele>855.220</ele>
        <time>2013-06-26T11:57:22Z</time>
      </trkpt>
      <trkpt lat="42.454586" lon="-6.044616">
        <ele>855.268</ele>
        <time>2013-06-26T11:57:31Z</time>
      </trkpt>
      <trkpt lat="42.454534" lon="-6.044570">
        <ele>856.214</ele>
        <time>2013-06-26T11:57:37Z</time>
      </trkpt>
      <trkpt lat="42.454459" lon="-6.044505">
        <ele>856.758</ele>
        <time>2013-06-26T11:57:46Z</time>
      </trkpt>
      <trkpt lat="42.454480" lon="-6.044498">
        <ele>858.152</ele>
        <time>2013-06-26T11:57:53Z</time>
      </trkpt>
      <trkpt lat="42.454514" lon="-6.044522">
        <ele>857.617</ele>
        <time>2013-06-26T11:58:01Z</time>
      </trkpt>
      <trkpt lat="42.454523" lon="-6.044533">
        <ele>858.107</ele>
        <time>2013-06-26T11:58:03Z</time>
      </trkpt>
      <trkpt lat="42.454556" lon="-6.044597">
        <ele>858.639</ele>
        <time>2013-06-26T11:58:11Z</time>
      </trkpt>
      <trkpt lat="42.454519" lon="-6.044558">
        <ele>858.662</ele>
        <time>2013-06-26T11:58:17Z</time>
      </trkpt>
      <trkpt lat="42.454470" lon="-6.044501">
        <ele>859.611</ele>
        <time>2013-06-26T11:58:25Z</time>
      </trkpt>
      <trkpt lat="42.454466" lon="-6.044470">
        <ele>859.626</ele>
        <time>2013-06-26T11:58:33Z</time>
      </trkpt>
      <trkpt lat="42.454484" lon="-6.044481">
        <ele>860.592</ele>
        <time>2013-06-26T11:58:39Z</time>
      </trkpt>
      <trkpt lat="42.454524" lon="-6.044529">
        <ele>861.010</ele>
        <time>2013-06-26T11:58:44Z</time>
      </trkpt>
      <trkpt lat="42.454560" lon="-6.044583">
        <ele>861.556</ele>
        <time>2013-06-26T11:58:52Z</time>
      </trkpt>
      <trkpt lat="42.454545" lon="-6.044568">
        <ele>860.582</ele>
        <time>2013-06-26T11:59:00Z</time>
      </trkpt>
      <trkpt lat="42.454520" lon="-6.044541">
        <ele>862.443</ele>
        <time>2013-06-26T11:59:04Z</time>
      </trkpt>
      <trkpt lat="42.454488" lon="-6.044599">
        <ele>862.417</ele>
        <time>2013-06-26T11:59:10Z</time>
      </trkpt>
      <trkpt lat="42.454437" lon="-6.044644">
        <ele>862.007</ele>
        <time>2013-06-26T11:59:18Z</time>
      </trkpt>
      <trkpt lat="42.454368" lon="-6.044611">
        <ele>862.032</ele>
        <time>2013-06-26T11:59:26Z</time>
      </trkpt>
      <trkpt lat="42.454391" lon="-6.044645">
        <ele>861.055</ele>
        <time>2013-06-26T11:59:31Z</time>
      </trkpt>
      <trkpt lat="42.454466" lon="-6.044741">
        <ele>860.034</ele>
        <time>2013-06-26T11:59:40Z</time>
      </trkpt>
      <trkpt lat="42.454539" lon="-6.044847">
        <ele>859.199</ele>
        <time>2013-06-26T11:59:49Z</time>
      </trkpt>
      <trkpt lat="42.454569" lon="-6.044838">
        <ele>859.185</ele>
        <time>2013-06-26T11:59:55Z</time>
      </trkpt>
      <trkpt lat="42.454563" lon="-6.044831">
        <ele>859.143</ele>
        <time>2013-06-26T11:59:56Z</time>
      </trkpt>
      <trkpt lat="42.454498" lon="-6.044753">
        <ele>857.669</ele>
        <time>2013-06-26T12:00:05Z</time>
      </trkpt>
      <trkpt lat="42.454426" lon="-6.044661">
        <ele>856.787</ele>
        <time>2013-06-26T12:00:14Z</time>
      </trkpt>
      <trkpt lat="42.454370" lon="-6.044620">
        <ele>856.242</ele>
        <time>2013-06-26T12:00:22Z</time>
      </trkpt>
      <trkpt lat="42.454397" lon="-6.044646">
        <ele>855.726</ele>
        <time>2013-06-26T12:00:28Z</time>
      </trkpt>
      <trkpt lat="42.454439" lon="-6.044722">
        <ele>855.207</ele>
        <time>2013-06-26T12:00:37Z</time>
      </trkpt>
      <trkpt lat="42.454475" lon="-6.044784">
        <ele>854.382</ele>
        <time>2013-06-26T12:00:43Z</time>
      </trkpt>
      <trkpt lat="42.454532" lon="-6.044832">
        <ele>853.875</ele>
        <time>2013-06-26T12:00:49Z</time>
      </trkpt>
      <trkpt lat="42.454526" lon="-6.044803">
        <ele>853.834</ele>
        <time>2013-06-26T12:00:55Z</time>
      </trkpt>
      <trkpt lat="42.454516" lon="-6.044771">
        <ele>854.859</ele>
        <time>2013-06-26T12:00:59Z</time>
      </trkpt>
      <trkpt lat="42.454476" lon="-6.044756">
        <ele>854.315</ele>
        <time>2013-06-26T12:01:08Z</time>
      </trkpt>
      <trkpt lat="42.454434" lon="-6.044804">
        <ele>853.853</ele>
        <time>2013-06-26T12:01:26Z</time>
      </trkpt>
      <trkpt lat="42.454497" lon="-6.044836">
        <ele>854.389</ele>
        <time>2013-06-26T12:01:33Z</time>
      </trkpt>
      <trkpt lat="42.454576" lon="-6.044979">
        <ele>853.833</ele>
        <time>2013-06-26T12:01:42Z</time>
      </trkpt>
      <trkpt lat="42.454653" lon="-6.045121">
        <ele>854.323</ele>
        <time>2013-06-26T12:01:51Z</time>
      </trkpt>
      <trkpt lat="42.454666" lon="-6.045250">
        <ele>854.315</ele>
        <time>2013-06-26T12:01:58Z</time>
      </trkpt>
      <trkpt lat="42.454680" lon="-6.045394">
        <ele>854.307</ele>
        <time>2013-06-26T12:02:06Z</time>
      </trkpt>
      <trkpt lat="42.454679" lon="-6.045409">
        <ele>854.337</ele>
        <time>2013-06-26T12:02:07Z</time>
      </trkpt>
      <trkpt lat="42.454684" lon="-6.045551">
        <ele>854.370</ele>
        <time>2013-06-26T12:02:16Z</time>
      </trkpt>
      <trkpt lat="42.454690" lon="-6.045704">
        <ele>854.399</ele>
        <time>2013-06-26T12:02:25Z</time>
      </trkpt>
      <trkpt lat="42.454705" lon="-6.045860">
        <ele>854.314</ele>
        <time>2013-06-26T12:02:34Z</time>
      </trkpt>
      <trkpt lat="42.454712" lon="-6.046009">
        <ele>854.820</ele>
        <time>2013-06-26T12:02:43Z</time>
      </trkpt>
      <trkpt lat="42.454705" lon="-6.046156">
        <ele>854.868</ele>
        <time>2013-06-26T12:02:52Z</time>
      </trkpt>
      <trkpt lat="42.454702" lon="-6.046321">
        <ele>854.324</ele>
        <time>2013-06-26T12:03:01Z</time>
      </trkpt>
      <trkpt lat="42.454704" lon="-6.046506">
        <ele>853.871</ele>
        <time>2013-06-26T12:03:11Z</time>
      </trkpt>
      <trkpt lat="42.454674" lon="-6.046657">
        <ele>854.841</ele>
        <time>2013-06-26T12:03:21Z</time>
      </trkpt>
      <trkpt lat="42.454605" lon="-6.046792">
        <ele>853.315</ele>
        <time>2013-06-26T12:03:30Z</time>
      </trkpt>
      <trkpt lat="42.454556" lon="-6.046906">
        <ele>852.807</ele>
        <time>2013-06-26T12:03:39Z</time>
      </trkpt>
      <trkpt lat="42.454501" lon="-6.046974">
        <ele>853.351</ele>
        <time>2013-06-26T12:03:47Z</time>
      </trkpt>
      <trkpt lat="42.454502" lon="-6.046974">
        <ele>853.364</ele>
        <time>2013-06-26T12:03:48Z</time>
      </trkpt>
      <trkpt lat="42.454404" lon="-6.046986">
        <ele>853.393</ele>
        <time>2013-06-26T12:03:56Z</time>
      </trkpt>
      <trkpt lat="42.454255" lon="-6.046986">
        <ele>852.818</ele>
        <time>2013-06-26T12:04:06Z</time>
      </trkpt>
      <trkpt lat="42.454137" lon="-6.047002">
        <ele>853.844</ele>
        <time>2013-06-26T12:04:15Z</time>
      </trkpt>
      <trkpt lat="42.454123" lon="-6.047022">
        <ele>853.832</ele>
        <time>2013-06-26T12:04:17Z</time>
      </trkpt>
      <trkpt lat="42.454186" lon="-6.047187">
        <ele>854.348</ele>
        <time>2013-06-26T12:04:28Z</time>
      </trkpt>
      <trkpt lat="42.454207" lon="-6.047256">
        <ele>854.317</ele>
        <time>2013-06-26T12:04:35Z</time>
      </trkpt>
      <trkpt lat="42.454253" lon="-6.047354">
        <ele>854.887</ele>
        <time>2013-06-26T12:04:42Z</time>
      </trkpt>
      <trkpt lat="42.454330" lon="-6.047507">
        <ele>854.315</ele>
        <time>2013-06-26T12:04:53Z</time>
      </trkpt>
      <trkpt lat="42.454389" lon="-6.047622">
        <ele>854.307</ele>
        <time>2013-06-26T12:05:03Z</time>
      </trkpt>
      <trkpt lat="42.454422" lon="-6.047690">
        <ele>854.865</ele>
        <time>2013-06-26T12:05:11Z</time>
      </trkpt>
      <trkpt lat="42.454372" lon="-6.047781">
        <ele>854.398</ele>
        <time>2013-06-26T12:05:20Z</time>
      </trkpt>
      <trkpt lat="42.454372" lon="-6.047774">
        <ele>854.897</ele>
        <time>2013-06-26T12:05:23Z</time>
      </trkpt>
      <trkpt lat="42.454338" lon="-6.047835">
        <ele>854.382</ele>
        <time>2013-06-26T12:05:28Z</time>
      </trkpt>
      <trkpt lat="42.454341" lon="-6.048042">
        <ele>854.888</ele>
        <time>2013-06-26T12:05:41Z</time>
      </trkpt>
      <trkpt lat="42.454332" lon="-6.048185">
        <ele>854.856</ele>
        <time>2013-06-26T12:05:50Z</time>
      </trkpt>
      <trkpt lat="42.454276" lon="-6.048321">
        <ele>854.842</ele>
        <time>2013-06-26T12:06:00Z</time>
      </trkpt>
      <trkpt lat="42.454202" lon="-6.048426">
        <ele>854.856</ele>
        <time>2013-06-26T12:06:10Z</time>
      </trkpt>
      <trkpt lat="42.454157" lon="-6.048487">
        <ele>854.359</ele>
        <time>2013-06-26T12:06:17Z</time>
      </trkpt>
      <trkpt lat="42.454062" lon="-6.048613">
        <ele>853.314</ele>
        <time>2013-06-26T12:06:27Z</time>
      </trkpt>
      <trkpt lat="42.453997" lon="-6.048698">
        <ele>849.907</ele>
        <time>2013-06-26T12:06:34Z</time>
      </trkpt>
      <trkpt lat="42.453988" lon="-6.048709">
        <ele>856.249</ele>
        <time>2013-06-26T12:06:35Z</time>
      </trkpt>
      <trkpt lat="42.453980" lon="-6.048720">
        <ele>850.442</ele>
        <time>2013-06-26T12:06:36Z</time>
      </trkpt>
      <trkpt lat="42.453972" lon="-6.048732">
        <ele>854.381</ele>
        <time>2013-06-26T12:06:37Z</time>
      </trkpt>
      <trkpt lat="42.453882" lon="-6.048923">
        <ele>852.836</ele>
        <time>2013-06-26T12:06:50Z</time>
      </trkpt>
      <trkpt lat="42.453809" lon="-6.049103">
        <ele>852.812</ele>
        <time>2013-06-26T12:07:02Z</time>
      </trkpt>
      <trkpt lat="42.453757" lon="-6.049205">
        <ele>853.370</ele>
        <time>2013-06-26T12:07:11Z</time>
      </trkpt>
      <trkpt lat="42.453716" lon="-6.049370">
        <ele>852.816</ele>
        <time>2013-06-26T12:07:19Z</time>
      </trkpt>
      <trkpt lat="42.453690" lon="-6.049470">
        <ele>852.877</ele>
        <time>2013-06-26T12:07:27Z</time>
      </trkpt>
      <trkpt lat="42.453654" lon="-6.049638">
        <ele>853.861</ele>
        <time>2013-06-26T12:07:34Z</time>
      </trkpt>
      <trkpt lat="42.453619" lon="-6.049737">
        <ele>853.827</ele>
        <time>2013-06-26T12:07:42Z</time>
      </trkpt>
      <trkpt lat="42.453609" lon="-6.049809">
        <ele>854.307</ele>
        <time>2013-06-26T12:07:48Z</time>
      </trkpt>
      <trkpt lat="42.453579" lon="-6.049882">
        <ele>854.361</ele>
        <time>2013-06-26T12:07:55Z</time>
      </trkpt>
      <trkpt lat="42.453547" lon="-6.049992">
        <ele>854.394</ele>
        <time>2013-06-26T12:08:01Z</time>
      </trkpt>
      <trkpt lat="42.453554" lon="-6.050076">
        <ele>855.753</ele>
        <time>2013-06-26T12:08:07Z</time>
      </trkpt>
      <trkpt lat="42.453549" lon="-6.050183">
        <ele>856.778</ele>
        <time>2013-06-26T12:08:14Z</time>
      </trkpt>
      <trkpt lat="42.453549" lon="-6.050189">
        <ele>857.224</ele>
        <time>2013-06-26T12:08:15Z</time>
      </trkpt>
      <trkpt lat="42.453558" lon="-6.050261">
        <ele>858.662</ele>
        <time>2013-06-26T12:08:23Z</time>
      </trkpt>
      <trkpt lat="42.453536" lon="-6.050298">
        <ele>859.118</ele>
        <time>2013-06-26T12:08:45Z</time>
      </trkpt>
      <trkpt lat="42.453554" lon="-6.050294">
        <ele>859.167</ele>
        <time>2013-06-26T12:09:00Z</time>
      </trkpt>
      <trkpt lat="42.453536" lon="-6.050306">
        <ele>858.681</ele>
        <time>2013-06-26T12:09:11Z</time>
      </trkpt>
      <trkpt lat="42.453419" lon="-6.050293">
        <ele>859.119</ele>
        <time>2013-06-26T12:09:21Z</time>
      </trkpt>
      <trkpt lat="42.453311" lon="-6.050272">
        <ele>859.107</ele>
        <time>2013-06-26T12:09:31Z</time>
      </trkpt>
      <trkpt lat="42.453162" lon="-6.050217">
        <ele>858.610</ele>
        <time>2013-06-26T12:09:43Z</time>
      </trkpt>
      <trkpt lat="42.453079" lon="-6.050204">
        <ele>858.693</ele>
        <time>2013-06-26T12:09:53Z</time>
      </trkpt>
      <trkpt lat="42.453074" lon="-6.050208">
        <ele>858.612</ele>
        <time>2013-06-26T12:09:54Z</time>
      </trkpt>
      <trkpt lat="42.452985" lon="-6.050210">
        <ele>859.147</ele>
        <time>2013-06-26T12:10:03Z</time>
      </trkpt>
      <trkpt lat="42.452948" lon="-6.050215">
        <ele>858.613</ele>
        <time>2013-06-26T12:10:09Z</time>
      </trkpt>
      <trkpt lat="42.452956" lon="-6.050233">
        <ele>858.651</ele>
        <time>2013-06-26T12:10:17Z</time>
      </trkpt>
      <trkpt lat="42.452908" lon="-6.050272">
        <ele>858.697</ele>
        <time>2013-06-26T12:10:25Z</time>
      </trkpt>
      <trkpt lat="42.452918" lon="-6.050281">
        <ele>859.613</ele>
        <time>2013-06-26T12:10:31Z</time>
      </trkpt>
      <trkpt lat="42.452935" lon="-6.050301">
        <ele>860.543</ele>
        <time>2013-06-26T12:10:36Z</time>
      </trkpt>
      <trkpt lat="42.452999" lon="-6.050368">
        <ele>862.007</ele>
        <time>2013-06-26T12:10:45Z</time>
      </trkpt>
      <trkpt lat="42.453044" lon="-6.050470">
        <ele>863.407</ele>
        <time>2013-06-26T12:10:53Z</time>
      </trkpt>
      <trkpt lat="42.453100" lon="-6.050537">
        <ele>864.825</ele>
        <time>2013-06-26T12:11:02Z</time>
      </trkpt>
      <trkpt lat="42.453129" lon="-6.050571">
        <ele>865.858</ele>
        <time>2013-06-26T12:11:06Z</time>
      </trkpt>
      <trkpt lat="42.453177" lon="-6.050649">
        <ele>867.387</ele>
        <time>2013-06-26T12:11:14Z</time>
      </trkpt>
      <trkpt lat="42.453173" lon="-6.050705">
        <ele>868.792</ele>
        <time>2013-06-26T12:11:19Z</time>
      </trkpt>
      <trkpt lat="42.453160" lon="-6.050777">
        <ele>869.228</ele>
        <time>2013-06-26T12:11:25Z</time>
      </trkpt>
      <trkpt lat="42.453159" lon="-6.050891">
        <ele>871.186</ele>
        <time>2013-06-26T12:11:34Z</time>
      </trkpt>
      <trkpt lat="42.453139" lon="-6.050936">
        <ele>871.642</ele>
        <time>2013-06-26T12:11:39Z</time>
      </trkpt>
      <trkpt lat="42.453038" lon="-6.051063">
        <ele>872.539</ele>
        <time>2013-06-26T12:11:49Z</time>
      </trkpt>
      <trkpt lat="42.452974" lon="-6.051179">
        <ele>873.501</ele>
        <time>2013-06-26T12:11:58Z</time>
      </trkpt>
      <trkpt lat="42.453020" lon="-6.051288">
        <ele>873.521</ele>
        <time>2013-06-26T12:12:05Z</time>
      </trkpt>
      <trkpt lat="42.453021" lon="-6.051400">
        <ele>874.007</ele>
        <time>2013-06-26T12:12:14Z</time>
      </trkpt>
      <trkpt lat="42.452993" lon="-6.051420">
        <ele>874.557</ele>
        <time>2013-06-26T12:12:21Z</time>
      </trkpt>
      <trkpt lat="42.453010" lon="-6.051432">
        <ele>874.580</ele>
        <time>2013-06-26T12:12:28Z</time>
      </trkpt>
      <trkpt lat="42.453032" lon="-6.051414">
        <ele>874.059</ele>
        <time>2013-06-26T12:12:38Z</time>
      </trkpt>
      <trkpt lat="42.453017" lon="-6.051396">
        <ele>874.094</ele>
        <time>2013-06-26T12:12:44Z</time>
      </trkpt>
      <trkpt lat="42.452999" lon="-6.051398">
        <ele>874.040</ele>
        <time>2013-06-26T12:12:51Z</time>
      </trkpt>
      <trkpt lat="42.453051" lon="-6.051426">
        <ele>874.578</ele>
        <time>2013-06-26T12:13:02Z</time>
      </trkpt>
      <trkpt lat="42.453059" lon="-6.051442">
        <ele>874.914</ele>
        <time>2013-06-26T12:13:04Z</time>
      </trkpt>
      <trkpt lat="42.453112" lon="-6.051502">
        <ele>874.542</ele>
        <time>2013-06-26T12:13:12Z</time>
      </trkpt>
      <trkpt lat="42.453126" lon="-6.051525">
        <ele>874.522</ele>
        <time>2013-06-26T12:13:17Z</time>
      </trkpt>
      <trkpt lat="42.453145" lon="-6.051521">
        <ele>874.514</ele>
        <time>2013-06-26T12:13:26Z</time>
      </trkpt>
      <trkpt lat="42.453173" lon="-6.051483">
        <ele>875.907</ele>
        <time>2013-06-26T12:13:35Z</time>
      </trkpt>
      <trkpt lat="42.453185" lon="-6.051482">
        <ele>874.568</ele>
        <time>2013-06-26T12:13:38Z</time>
      </trkpt>
      <trkpt lat="42.453250" lon="-6.051512">
        <ele>874.961</ele>
        <time>2013-06-26T12:13:47Z</time>
      </trkpt>
      <trkpt lat="42.453251" lon="-6.051530">
        <ele>875.920</ele>
        <time>2013-06-26T12:13:53Z</time>
      </trkpt>
      <trkpt lat="42.453257" lon="-6.051523">
        <ele>874.975</ele>
        <time>2013-06-26T12:14:04Z</time>
      </trkpt>
      <trkpt lat="42.453261" lon="-6.051554">
        <ele>874.981</ele>
        <time>2013-06-26T12:14:15Z</time>
      </trkpt>
      <trkpt lat="42.453358" lon="-6.051642">
        <ele>875.499</ele>
        <time>2013-06-26T12:14:26Z</time>
      </trkpt>
      <trkpt lat="42.453444" lon="-6.051721">
        <ele>875.985</ele>
        <time>2013-06-26T12:14:35Z</time>
      </trkpt>
      <trkpt lat="42.453484" lon="-6.051726">
        <ele>875.474</ele>
        <time>2013-06-26T12:14:41Z</time>
      </trkpt>
      <trkpt lat="42.453551" lon="-6.051747">
        <ele>875.956</ele>
        <time>2013-06-26T12:14:48Z</time>
      </trkpt>
      <trkpt lat="42.453626" lon="-6.051815">
        <ele>875.921</ele>
        <time>2013-06-26T12:14:56Z</time>
      </trkpt>
      <trkpt lat="42.453689" lon="-6.051893">
        <ele>875.907</ele>
        <time>2013-06-26T12:15:04Z</time>
      </trkpt>
      <trkpt lat="42.453780" lon="-6.051985">
        <ele>876.451</ele>
        <time>2013-06-26T12:15:14Z</time>
      </trkpt>
      <trkpt lat="42.453861" lon="-6.052049">
        <ele>876.484</ele>
        <time>2013-06-26T12:15:23Z</time>
      </trkpt>
      <trkpt lat="42.453912" lon="-6.052170">
        <ele>876.483</ele>
        <time>2013-06-26T12:15:34Z</time>
      </trkpt>
      <trkpt lat="42.453976" lon="-6.052309">
        <ele>876.488</ele>
        <time>2013-06-26T12:15:44Z</time>
      </trkpt>
      <trkpt lat="42.454032" lon="-6.052352">
        <ele>876.474</ele>
        <time>2013-06-26T12:15:52Z</time>
      </trkpt>
      <trkpt lat="42.454096" lon="-6.052391">
        <ele>876.912</ele>
        <time>2013-06-26T12:15:58Z</time>
      </trkpt>
      <trkpt lat="42.454108" lon="-6.052469">
        <ele>876.918</ele>
        <time>2013-06-26T12:16:05Z</time>
      </trkpt>
      <trkpt lat="42.454147" lon="-6.052559">
        <ele>877.333</ele>
        <time>2013-06-26T12:16:13Z</time>
      </trkpt>
      <trkpt lat="42.454212" lon="-6.052597">
        <ele>877.323</ele>
        <time>2013-06-26T12:16:17Z</time>
      </trkpt>
      <trkpt lat="42.454291" lon="-6.052685">
        <ele>877.315</ele>
        <time>2013-06-26T12:16:26Z</time>
      </trkpt>
      <trkpt lat="42.454373" lon="-6.052739">
        <ele>876.907</ele>
        <time>2013-06-26T12:16:34Z</time>
      </trkpt>
      <trkpt lat="42.454392" lon="-6.052759">
        <ele>876.457</ele>
        <time>2013-06-26T12:16:37Z</time>
      </trkpt>
      <trkpt lat="42.454414" lon="-6.052794">
        <ele>876.480</ele>
        <time>2013-06-26T12:16:40Z</time>
      </trkpt>
      <trkpt lat="42.454438" lon="-6.052904">
        <ele>876.459</ele>
        <time>2013-06-26T12:16:48Z</time>
      </trkpt>
      <trkpt lat="42.454452" lon="-6.052929">
        <ele>876.494</ele>
        <time>2013-06-26T12:16:51Z</time>
      </trkpt>
      <trkpt lat="42.454542" lon="-6.052945">
        <ele>876.430</ele>
        <time>2013-06-26T12:16:56Z</time>
      </trkpt>
      <trkpt lat="42.454591" lon="-6.053015">
        <ele>876.958</ele>
        <time>2013-06-26T12:17:03Z</time>
      </trkpt>
      <trkpt lat="42.454601" lon="-6.053021">
        <ele>876.954</ele>
        <time>2013-06-26T12:17:04Z</time>
      </trkpt>
      <trkpt lat="42.454677" lon="-6.053014">
        <ele>876.936</ele>
        <time>2013-06-26T12:17:10Z</time>
      </trkpt>
      <trkpt lat="42.454748" lon="-6.053108">
        <ele>876.417</ele>
        <time>2013-06-26T12:17:21Z</time>
      </trkpt>
      <trkpt lat="42.454788" lon="-6.053151">
        <ele>876.918</ele>
        <time>2013-06-26T12:17:26Z</time>
      </trkpt>
      <trkpt lat="42.454788" lon="-6.053186">
        <ele>876.907</ele>
        <time>2013-06-26T12:17:29Z</time>
      </trkpt>
      <trkpt lat="42.454827" lon="-6.053289">
        <ele>876.957</ele>
        <time>2013-06-26T12:17:37Z</time>
      </trkpt>
      <trkpt lat="42.454810" lon="-6.053269">
        <ele>876.930</ele>
        <time>2013-06-26T12:17:48Z</time>
      </trkpt>
      <trkpt lat="42.454914" lon="-6.053368">
        <ele>877.879</ele>
        <time>2013-06-26T12:18:00Z</time>
      </trkpt>
      <trkpt lat="42.454912" lon="-6.053429">
        <ele>877.884</ele>
        <time>2013-06-26T12:18:06Z</time>
      </trkpt>
      <trkpt lat="42.455119" lon="-6.053659">
        <ele>878.310</ele>
        <time>2013-06-26T12:18:15Z</time>
      </trkpt>
      <trkpt lat="42.455235" lon="-6.053689">
        <ele>878.868</ele>
        <time>2013-06-26T12:18:26Z</time>
      </trkpt>
      <trkpt lat="42.455337" lon="-6.053782">
        <ele>878.864</ele>
        <time>2013-06-26T12:18:37Z</time>
      </trkpt>
      <trkpt lat="42.455469" lon="-6.053862">
        <ele>879.718</ele>
        <time>2013-06-26T12:18:49Z</time>
      </trkpt>
      <trkpt lat="42.455561" lon="-6.053805">
        <ele>879.398</ele>
        <time>2013-06-26T12:19:01Z</time>
      </trkpt>
      <trkpt lat="42.455625" lon="-6.053866">
        <ele>879.317</ele>
        <time>2013-06-26T12:19:11Z</time>
      </trkpt>
      <trkpt lat="42.455701" lon="-6.054017">
        <ele>879.307</ele>
        <time>2013-06-26T12:19:21Z</time>
      </trkpt>
      <trkpt lat="42.455735" lon="-6.054031">
        <ele>878.835</ele>
        <time>2013-06-26T12:19:28Z</time>
      </trkpt>
      <trkpt lat="42.455783" lon="-6.054056">
        <ele>878.818</ele>
        <time>2013-06-26T12:19:36Z</time>
      </trkpt>
      <trkpt lat="42.455890" lon="-6.054120">
        <ele>878.857</ele>
        <time>2013-06-26T12:19:46Z</time>
      </trkpt>
      <trkpt lat="42.456003" lon="-6.054194">
        <ele>878.872</ele>
        <time>2013-06-26T12:19:55Z</time>
      </trkpt>
      <trkpt lat="42.456187" lon="-6.054365">
        <ele>878.868</ele>
        <time>2013-06-26T12:20:03Z</time>
      </trkpt>
      <trkpt lat="42.456222" lon="-6.054404">
        <ele>878.856</ele>
        <time>2013-06-26T12:20:06Z</time>
      </trkpt>
      <trkpt lat="42.456315" lon="-6.054505">
        <ele>878.812</ele>
        <time>2013-06-26T12:20:15Z</time>
      </trkpt>
      <trkpt lat="42.456376" lon="-6.054602">
        <ele>879.344</ele>
        <time>2013-06-26T12:20:24Z</time>
      </trkpt>
      <trkpt lat="42.456366" lon="-6.054708">
        <ele>879.705</ele>
        <time>2013-06-26T12:20:32Z</time>
      </trkpt>
      <trkpt lat="42.456349" lon="-6.054855">
        <ele>880.215</ele>
        <time>2013-06-26T12:20:42Z</time>
      </trkpt>
      <trkpt lat="42.456379" lon="-6.055015">
        <ele>880.207</ele>
        <time>2013-06-26T12:20:52Z</time>
      </trkpt>
      <trkpt lat="42.456387" lon="-6.055037">
        <ele>879.798</ele>
        <time>2013-06-26T12:20:53Z</time>
      </trkpt>
      <trkpt lat="42.456388" lon="-6.055175">
        <ele>880.261</ele>
        <time>2013-06-26T12:21:02Z</time>
      </trkpt>
      <trkpt lat="42.456405" lon="-6.055258">
        <ele>879.710</ele>
        <time>2013-06-26T12:21:07Z</time>
      </trkpt>
      <trkpt lat="42.456457" lon="-6.055402">
        <ele>880.245</ele>
        <time>2013-06-26T12:21:18Z</time>
      </trkpt>
      <trkpt lat="42.456536" lon="-6.055502">
        <ele>879.711</ele>
        <time>2013-06-26T12:21:27Z</time>
      </trkpt>
      <trkpt lat="42.456641" lon="-6.055594">
        <ele>879.739</ele>
        <time>2013-06-26T12:21:37Z</time>
      </trkpt>
      <trkpt lat="42.456707" lon="-6.055661">
        <ele>879.775</ele>
        <time>2013-06-26T12:21:45Z</time>
      </trkpt>
      <trkpt lat="42.456794" lon="-6.055754">
        <ele>879.793</ele>
        <time>2013-06-26T12:21:54Z</time>
      </trkpt>
      <trkpt lat="42.456880" lon="-6.055816">
        <ele>878.865</ele>
        <time>2013-06-26T12:22:01Z</time>
      </trkpt>
      <trkpt lat="42.456919" lon="-6.055772">
        <ele>878.821</ele>
        <time>2013-06-26T12:22:09Z</time>
      </trkpt>
      <trkpt lat="42.456945" lon="-6.055716">
        <ele>878.807</ele>
        <time>2013-06-26T12:22:17Z</time>
      </trkpt>
      <trkpt lat="42.457021" lon="-6.055633">
        <ele>878.893</ele>
        <time>2013-06-26T12:22:28Z</time>
      </trkpt>
      <trkpt lat="42.457110" lon="-6.055643">
        <ele>879.356</ele>
        <time>2013-06-26T12:22:37Z</time>
      </trkpt>
      <trkpt lat="42.457150" lon="-6.055659">
        <ele>878.865</ele>
        <time>2013-06-26T12:22:39Z</time>
      </trkpt>
      <trkpt lat="42.457179" lon="-6.055699">
        <ele>878.830</ele>
        <time>2013-06-26T12:22:43Z</time>
      </trkpt>
      <trkpt lat="42.457226" lon="-6.055805">
        <ele>879.716</ele>
        <time>2013-06-26T12:22:50Z</time>
      </trkpt>
      <trkpt lat="42.457249" lon="-6.055938">
        <ele>879.344</ele>
        <time>2013-06-26T12:22:59Z</time>
      </trkpt>
      <trkpt lat="42.457254" lon="-6.056049">
        <ele>880.260</ele>
        <time>2013-06-26T12:23:07Z</time>
      </trkpt>
      <trkpt lat="42.457297" lon="-6.056189">
        <ele>880.227</ele>
        <time>2013-06-26T12:23:16Z</time>
      </trkpt>
      <trkpt lat="42.457294" lon="-6.056205">
        <ele>880.268</ele>
        <time>2013-06-26T12:23:17Z</time>
      </trkpt>
      <trkpt lat="42.457293" lon="-6.056348">
        <ele>880.214</ele>
        <time>2013-06-26T12:23:26Z</time>
      </trkpt>
      <trkpt lat="42.457335" lon="-6.056446">
        <ele>880.707</ele>
        <time>2013-06-26T12:23:34Z</time>
      </trkpt>
      <trkpt lat="42.457338" lon="-6.056466">
        <ele>880.746</ele>
        <time>2013-06-26T12:23:36Z</time>
      </trkpt>
      <trkpt lat="42.457359" lon="-6.056480">
        <ele>880.269</ele>
        <time>2013-06-26T12:23:38Z</time>
      </trkpt>
      <trkpt lat="42.457487" lon="-6.056542">
        <ele>881.228</ele>
        <time>2013-06-26T12:23:48Z</time>
      </trkpt>
      <trkpt lat="42.457516" lon="-6.056696">
        <ele>881.233</ele>
        <time>2013-06-26T12:23:57Z</time>
      </trkpt>
      <trkpt lat="42.457495" lon="-6.056727">
        <ele>881.299</ele>
        <time>2013-06-26T12:23:58Z</time>
      </trkpt>
      <trkpt lat="42.457416" lon="-6.056857">
        <ele>881.277</ele>
        <time>2013-06-26T12:24:05Z</time>
      </trkpt>
      <trkpt lat="42.457378" lon="-6.057004">
        <ele>881.213</ele>
        <time>2013-06-26T12:24:14Z</time>
      </trkpt>
      <trkpt lat="42.457396" lon="-6.057074">
        <ele>881.284</ele>
        <time>2013-06-26T12:24:18Z</time>
      </trkpt>
      <trkpt lat="42.457417" lon="-6.057154">
        <ele>881.207</ele>
        <time>2013-06-26T12:24:24Z</time>
      </trkpt>
      <trkpt lat="42.457382" lon="-6.057193">
        <ele>882.217</ele>
        <time>2013-06-26T12:24:32Z</time>
      </trkpt>
      <trkpt lat="42.457341" lon="-6.057235">
        <ele>881.207</ele>
        <time>2013-06-26T12:24:39Z</time>
      </trkpt>
      <trkpt lat="42.457248" lon="-6.057309">
        <ele>881.732</ele>
        <time>2013-06-26T12:24:47Z</time>
      </trkpt>
      <trkpt lat="42.457160" lon="-6.057460">
        <ele>882.275</ele>
        <time>2013-06-26T12:24:59Z</time>
      </trkpt>
      <trkpt lat="42.457139" lon="-6.057584">
        <ele>882.674</ele>
        <time>2013-06-26T12:25:08Z</time>
      </trkpt>
      <trkpt lat="42.457092" lon="-6.057649">
        <ele>882.219</ele>
        <time>2013-06-26T12:25:15Z</time>
      </trkpt>
      <trkpt lat="42.457086" lon="-6.057661">
        <ele>883.155</ele>
        <time>2013-06-26T12:25:16Z</time>
      </trkpt>
      <trkpt lat="42.456976" lon="-6.057783">
        <ele>882.613</ele>
        <time>2013-06-26T12:25:28Z</time>
      </trkpt>
      <trkpt lat="42.456800" lon="-6.057889">
        <ele>882.679</ele>
        <time>2013-06-26T12:25:40Z</time>
      </trkpt>
      <trkpt lat="42.456652" lon="-6.058024">
        <ele>882.672</ele>
        <time>2013-06-26T12:25:53Z</time>
      </trkpt>
      <trkpt lat="42.456551" lon="-6.058125">
        <ele>882.613</ele>
        <time>2013-06-26T12:26:05Z</time>
      </trkpt>
      <trkpt lat="42.456494" lon="-6.058206">
        <ele>882.614</ele>
        <time>2013-06-26T12:26:13Z</time>
      </trkpt>
      <trkpt lat="42.456483" lon="-6.058303">
        <ele>882.607</ele>
        <time>2013-06-26T12:26:23Z</time>
      </trkpt>
      <trkpt lat="42.456505" lon="-6.058316">
        <ele>882.621</ele>
        <time>2013-06-26T12:26:33Z</time>
      </trkpt>
      <trkpt lat="42.456511" lon="-6.058341">
        <ele>882.624</ele>
        <time>2013-06-26T12:26:44Z</time>
      </trkpt>
      <trkpt lat="42.456519" lon="-6.058357">
        <ele>882.663</ele>
        <time>2013-06-26T12:26:45Z</time>
      </trkpt>
      <trkpt lat="42.456586" lon="-6.058481">
        <ele>883.188</ele>
        <time>2013-06-26T12:26:56Z</time>
      </trkpt>
      <trkpt lat="42.456664" lon="-6.058514">
        <ele>883.154</ele>
        <time>2013-06-26T12:27:04Z</time>
      </trkpt>
      <trkpt lat="42.456723" lon="-6.058542">
        <ele>883.132</ele>
        <time>2013-06-26T12:27:16Z</time>
      </trkpt>
      <trkpt lat="42.456776" lon="-6.058652">
        <ele>883.628</ele>
        <time>2013-06-26T12:27:23Z</time>
      </trkpt>
      <trkpt lat="42.456794" lon="-6.058683">
        <ele>883.678</ele>
        <time>2013-06-26T12:27:26Z</time>
      </trkpt>
      <trkpt lat="42.456825" lon="-6.058714">
        <ele>883.633</ele>
        <time>2013-06-26T12:27:28Z</time>
      </trkpt>
      <trkpt lat="42.456838" lon="-6.058827">
        <ele>883.626</ele>
        <time>2013-06-26T12:27:32Z</time>
      </trkpt>
      <trkpt lat="42.456849" lon="-6.058871">
        <ele>883.607</ele>
        <time>2013-06-26T12:27:34Z</time>
      </trkpt>
      <trkpt lat="42.456881" lon="-6.058941">
        <ele>883.611</ele>
        <time>2013-06-26T12:27:41Z</time>
      </trkpt>
      <trkpt lat="42.456919" lon="-6.059026">
        <ele>884.144</ele>
        <time>2013-06-26T12:27:48Z</time>
      </trkpt>
      <trkpt lat="42.456969" lon="-6.059096">
        <ele>884.663</ele>
        <time>2013-06-26T12:27:55Z</time>
      </trkpt>
      <trkpt lat="42.457009" lon="-6.059159">
        <ele>884.128</ele>
        <time>2013-06-26T12:28:01Z</time>
      </trkpt>
      <trkpt lat="42.457082" lon="-6.059271">
        <ele>884.114</ele>
        <time>2013-06-26T12:28:10Z</time>
      </trkpt>
      <trkpt lat="42.457126" lon="-6.059327">
        <ele>884.192</ele>
        <time>2013-06-26T12:28:17Z</time>
      </trkpt>
      <trkpt lat="42.457112" lon="-6.059366">
        <ele>884.188</ele>
        <time>2013-06-26T12:28:20Z</time>
      </trkpt>
      <trkpt lat="42.457087" lon="-6.059408">
        <ele>884.129</ele>
        <time>2013-06-26T12:28:28Z</time>
      </trkpt>
      <trkpt lat="42.457152" lon="-6.059451">
        <ele>884.100</ele>
        <time>2013-06-26T12:28:35Z</time>
      </trkpt>
      <trkpt lat="42.457170" lon="-6.059462">
        <ele>884.620</ele>
        <time>2013-06-26T12:28:36Z</time>
      </trkpt>
      <trkpt lat="42.457304" lon="-6.059612">
        <ele>885.007</ele>
        <time>2013-06-26T12:28:45Z</time>
      </trkpt>
      <trkpt lat="42.457333" lon="-6.059683">
        <ele>884.676</ele>
        <time>2013-06-26T12:28:49Z</time>
      </trkpt>
      <trkpt lat="42.457408" lon="-6.059650">
        <ele>885.579</ele>
        <time>2013-06-26T12:28:58Z</time>
      </trkpt>
      <trkpt lat="42.457430" lon="-6.059683">
        <ele>885.028</ele>
        <time>2013-06-26T12:29:03Z</time>
      </trkpt>
      <trkpt lat="42.457435" lon="-6.059916">
        <ele>886.093</ele>
        <time>2013-06-26T12:29:14Z</time>
      </trkpt>
      <trkpt lat="42.457462" lon="-6.060021">
        <ele>885.579</ele>
        <time>2013-06-26T12:29:24Z</time>
      </trkpt>
      <trkpt lat="42.457471" lon="-6.060098">
        <ele>886.017</ele>
        <time>2013-06-26T12:29:29Z</time>
      </trkpt>
      <trkpt lat="42.457468" lon="-6.060274">
        <ele>886.573</ele>
        <time>2013-06-26T12:29:42Z</time>
      </trkpt>
      <trkpt lat="42.457527" lon="-6.060394">
        <ele>887.075</ele>
        <time>2013-06-26T12:29:50Z</time>
      </trkpt>
      <trkpt lat="42.457651" lon="-6.060420">
        <ele>887.028</ele>
        <time>2013-06-26T12:29:59Z</time>
      </trkpt>
      <trkpt lat="42.457787" lon="-6.060577">
        <ele>887.020</ele>
        <time>2013-06-26T12:30:10Z</time>
      </trkpt>
      <trkpt lat="42.457802" lon="-6.060585">
        <ele>887.007</ele>
        <time>2013-06-26T12:30:11Z</time>
      </trkpt>
      <trkpt lat="42.457878" lon="-6.060659">
        <ele>887.461</ele>
        <time>2013-06-26T12:30:16Z</time>
      </trkpt>
      <trkpt lat="42.457923" lon="-6.060698">
        <ele>887.434</ele>
        <time>2013-06-26T12:30:20Z</time>
      </trkpt>
      <trkpt lat="42.457978" lon="-6.060743">
        <ele>887.413</ele>
        <time>2013-06-26T12:30:28Z</time>
      </trkpt>
      <trkpt lat="42.458032" lon="-6.060803">
        <ele>887.418</ele>
        <time>2013-06-26T12:30:36Z</time>
      </trkpt>
      <trkpt lat="42.458114" lon="-6.060906">
        <ele>887.434</ele>
        <time>2013-06-26T12:30:47Z</time>
      </trkpt>
      <trkpt lat="42.458162" lon="-6.060942">
        <ele>887.932</ele>
        <time>2013-06-26T12:30:52Z</time>
      </trkpt>
      <trkpt lat="42.458284" lon="-6.061038">
        <ele>887.458</ele>
        <time>2013-06-26T12:31:02Z</time>
      </trkpt>
      <trkpt lat="42.458347" lon="-6.061166">
        <ele>887.933</ele>
        <time>2013-06-26T12:31:12Z</time>
      </trkpt>
      <trkpt lat="42.458396" lon="-6.061270">
        <ele>887.923</ele>
        <time>2013-06-26T12:31:19Z</time>
      </trkpt>
      <trkpt lat="42.458440" lon="-6.061322">
        <ele>887.915</ele>
        <time>2013-06-26T12:31:27Z</time>
      </trkpt>
      <trkpt lat="42.458535" lon="-6.061405">
        <ele>888.407</ele>
        <time>2013-06-26T12:31:37Z</time>
      </trkpt>
      <trkpt lat="42.458598" lon="-6.061519">
        <ele>887.927</ele>
        <time>2013-06-26T12:31:47Z</time>
      </trkpt>
      <trkpt lat="42.458629" lon="-6.061654">
        <ele>888.480</ele>
        <time>2013-06-26T12:31:55Z</time>
      </trkpt>
      <trkpt lat="42.458670" lon="-6.061723">
        <ele>888.949</ele>
        <time>2013-06-26T12:32:02Z</time>
      </trkpt>
      <trkpt lat="42.458756" lon="-6.061908">
        <ele>889.424</ele>
        <time>2013-06-26T12:32:12Z</time>
      </trkpt>
      <trkpt lat="42.458812" lon="-6.062131">
        <ele>889.440</ele>
        <time>2013-06-26T12:32:24Z</time>
      </trkpt>
      <trkpt lat="42.458887" lon="-6.062300">
        <ele>888.968</ele>
        <time>2013-06-26T12:32:32Z</time>
      </trkpt>
      <trkpt lat="42.458935" lon="-6.062361">
        <ele>889.494</ele>
        <time>2013-06-26T12:32:38Z</time>
      </trkpt>
      <trkpt lat="42.458983" lon="-6.062552">
        <ele>889.431</ele>
        <time>2013-06-26T12:32:48Z</time>
      </trkpt>
      <trkpt lat="42.458905" lon="-6.062843">
        <ele>888.961</ele>
        <time>2013-06-26T12:33:02Z</time>
      </trkpt>
      <trkpt lat="42.458906" lon="-6.062999">
        <ele>888.907</ele>
        <time>2013-06-26T12:33:13Z</time>
      </trkpt>
      <trkpt lat="42.458909" lon="-6.063030">
        <ele>888.907</ele>
        <time>2013-06-26T12:33:21Z</time>
      </trkpt>
      <trkpt lat="42.458947" lon="-6.063021">
        <ele>888.987</ele>
        <time>2013-06-26T12:33:30Z</time>
      </trkpt>
      <trkpt lat="42.458989" lon="-6.063220">
        <ele>889.480</ele>
        <time>2013-06-26T12:33:41Z</time>
      </trkpt>
      <trkpt lat="42.458993" lon="-6.063380">
        <ele>889.869</ele>
        <time>2013-06-26T12:33:51Z</time>
      </trkpt>
      <trkpt lat="42.458933" lon="-6.063399">
        <ele>889.884</ele>
        <time>2013-06-26T12:34:01Z</time>
      </trkpt>
      <trkpt lat="42.458900" lon="-6.063488">
        <ele>889.460</ele>
        <time>2013-06-26T12:34:15Z</time>
      </trkpt>
      <trkpt lat="42.458901" lon="-6.063540">
        <ele>889.888</ele>
        <time>2013-06-26T12:34:27Z</time>
      </trkpt>
      <trkpt lat="42.458926" lon="-6.063468">
        <ele>889.444</ele>
        <time>2013-06-26T12:34:32Z</time>
      </trkpt>
      <trkpt lat="42.458918" lon="-6.063472">
        <ele>889.846</ele>
        <time>2013-06-26T12:34:34Z</time>
      </trkpt>
      <trkpt lat="42.458903" lon="-6.063341">
        <ele>889.488</ele>
        <time>2013-06-26T12:34:42Z</time>
      </trkpt>
      <trkpt lat="42.458909" lon="-6.063325">
        <ele>889.816</ele>
        <time>2013-06-26T12:34:43Z</time>
      </trkpt>
      <trkpt lat="42.458976" lon="-6.063228">
        <ele>889.407</ele>
        <time>2013-06-26T12:34:54Z</time>
      </trkpt>
      <trkpt lat="42.458996" lon="-6.063186">
        <ele>889.488</ele>
        <time>2013-06-26T12:34:59Z</time>
      </trkpt>
      <trkpt lat="42.459037" lon="-6.063174">
        <ele>889.891</ele>
        <time>2013-06-26T12:35:08Z</time>
      </trkpt>
      <trkpt lat="42.459095" lon="-6.063119">
        <ele>889.870</ele>
        <time>2013-06-26T12:35:12Z</time>
      </trkpt>
      <trkpt lat="42.459191" lon="-6.063065">
        <ele>889.865</ele>
        <time>2013-06-26T12:35:21Z</time>
      </trkpt>
      <trkpt lat="42.459201" lon="-6.063071">
        <ele>889.871</ele>
        <time>2013-06-26T12:35:22Z</time>
      </trkpt>
      <trkpt lat="42.459284" lon="-6.063119">
        <ele>890.369</ele>
        <time>2013-06-26T12:35:30Z</time>
      </trkpt>
      <trkpt lat="42.459295" lon="-6.063147">
        <ele>890.355</ele>
        <time>2013-06-26T12:35:32Z</time>
      </trkpt>
      <trkpt lat="42.459344" lon="-6.063206">
        <ele>890.815</ele>
        <time>2013-06-26T12:35:36Z</time>
      </trkpt>
      <trkpt lat="42.459403" lon="-6.063254">
        <ele>890.365</ele>
        <time>2013-06-26T12:35:43Z</time>
      </trkpt>
      <trkpt lat="42.459498" lon="-6.063202">
        <ele>890.811</ele>
        <time>2013-06-26T12:35:51Z</time>
      </trkpt>
      <trkpt lat="42.459555" lon="-6.063170">
        <ele>890.807</ele>
        <time>2013-06-26T12:35:58Z</time>
      </trkpt>
      <trkpt lat="42.459639" lon="-6.063159">
        <ele>890.865</ele>
        <time>2013-06-26T12:36:06Z</time>
      </trkpt>
      <trkpt lat="42.459663" lon="-6.063160">
        <ele>890.848</ele>
        <time>2013-06-26T12:36:10Z</time>
      </trkpt>
      <trkpt lat="42.459774" lon="-6.063130">
        <ele>890.887</ele>
        <time>2013-06-26T12:36:19Z</time>
      </trkpt>
      <trkpt lat="42.459860" lon="-6.063102">
        <ele>890.892</ele>
        <time>2013-06-26T12:36:28Z</time>
      </trkpt>
      <trkpt lat="42.459892" lon="-6.063088">
        <ele>891.388</ele>
        <time>2013-06-26T12:36:35Z</time>
      </trkpt>
      <trkpt lat="42.459917" lon="-6.063076">
        <ele>890.896</ele>
        <time>2013-06-26T12:36:45Z</time>
      </trkpt>
      <trkpt lat="42.459973" lon="-6.063081">
        <ele>890.872</ele>
        <time>2013-06-26T12:36:52Z</time>
      </trkpt>
      <trkpt lat="42.456886" lon="-6.057882">
        <ele>874.043</ele>
        <time>2022-07-06T12:40:15Z</time>
      </trkpt>
      <trkpt lat="42.456623" lon="-6.058155">
        <ele>875.064</ele>
        <time>2022-07-06T12:40:55Z</time>
      </trkpt>
      <trkpt lat="42.456482" lon="-6.058295">
        <ele>875.010</ele>
        <time>2022-07-06T12:41:35Z</time>
      </trkpt>
      <trkpt lat="42.457035" lon="-6.059341">
        <ele>875.006</ele>
        <time>2022-07-06T12:42:15Z</time>
      </trkpt>
      <trkpt lat="42.458103" lon="-6.061041">
        <ele>877.078</ele>
        <time>2022-07-06T12:42:55Z</time>
      </trkpt>
      <trkpt lat="42.458466" lon="-6.061567">
        <ele>875.041</ele>
        <time>2022-07-06T12:43:35Z</time>
      </trkpt>
      <trkpt lat="42.458885" lon="-6.062313">
        <ele>877.036</ele>
        <time>2022-07-06T12:44:15Z</time>
      </trkpt>
      <trkpt lat="42.458904" lon="-6.062425">
        <ele>877.011</ele>
        <time>2022-07-06T12:44:55Z</time>
      </trkpt>
      <trkpt lat="42.458935" lon="-6.062688">
        <ele>877.015</ele>
        <time>2022-07-06T12:45:35Z</time>
      </trkpt>
      <trkpt lat="42.458881" lon="-6.063423">
        <ele>879.089</ele>
        <time>2022-07-06T12:46:15Z</time>
      </trkpt>
      <trkpt lat="42.458828" lon="-6.063707">
        <ele>879.051</ele>
        <time>2022-07-06T12:46:55Z</time>
      </trkpt>
      <trkpt lat="42.458656" lon="-6.064915">
        <ele>874.001</ele>
        <time>2022-07-06T12:47:35Z</time>
      </trkpt>
      <trkpt lat="42.458656" lon="-6.065590">
        <ele>870.011</ele>
        <time>2022-07-06T12:48:15Z</time>
      </trkpt>
      <trkpt lat="42.458683" lon="-6.066234">
        <ele>870.006</ele>
        <time>2022-07-06T12:48:55Z</time>
      </trkpt>
      <trkpt lat="42.458687" lon="-6.066692">
        <ele>866.049</ele>
        <time>2022-07-06T12:49:35Z</time>
      </trkpt>
      <trkpt lat="42.458736" lon="-6.068170">
        <ele>862.052</ele>
        <time>2022-07-06T12:50:15Z</time>
      </trkpt>
      <trkpt lat="42.458809" lon="-6.068905">
        <ele>864.097</ele>
        <time>2022-07-06T12:50:55Z</time>
      </trkpt>
      <trkpt lat="42.458935" lon="-6.069968">
        <ele>865.032</ele>
        <time>2022-07-06T12:51:35Z</time>
      </trkpt>
      <trkpt lat="42.458984" lon="-6.070375">
        <ele>865.016</ele>
        <time>2022-07-06T12:52:15Z</time>
      </trkpt>
      <trkpt lat="42.459133" lon="-6.071430">
        <ele>859.020</ele>
        <time>2022-07-06T12:52:55Z</time>
      </trkpt>
      <trkpt lat="42.459213" lon="-6.071857">
        <ele>859.011</ele>
        <time>2022-07-06T12:53:35Z</time>
      </trkpt>
      <trkpt lat="42.459343" lon="-6.072580">
        <ele>859.021</ele>
        <time>2022-07-06T12:54:15Z</time>
      </trkpt>
      <trkpt lat="42.459427" lon="-6.073283">
        <ele>857.003</ele>
        <time>2022-07-06T12:54:55Z</time>
      </trkpt>
      <trkpt lat="42.459427" lon="-6.073895">
        <ele>856.006</ele>
        <time>2022-07-06T12:55:35Z</time>
      </trkpt>
      <trkpt lat="42.459351" lon="-6.074833">
        <ele>856.075</ele>
        <time>2022-07-06T12:56:15Z</time>
      </trkpt>
      <trkpt lat="42.459305" lon="-6.075220">
        <ele>856.028</ele>
        <time>2022-07-06T12:56:55Z</time>
      </trkpt>
      <trkpt lat="42.459229" lon="-6.076295">
        <ele>855.073</ele>
        <time>2022-07-06T12:57:35Z</time>
      </trkpt>
      <trkpt lat="42.459263" lon="-6.078776">
        <ele>860.088</ele>
        <time>2022-07-06T12:58:15Z</time>
      </trkpt>
      <trkpt lat="42.459309" lon="-6.080107">
        <ele>860.032</ele>
        <time>2022-07-06T12:58:55Z</time>
      </trkpt>
      <trkpt lat="42.459320" lon="-6.080473">
        <ele>860.056</ele>
        <time>2022-07-06T12:59:35Z</time>
      </trkpt>
      <trkpt lat="42.459240" lon="-6.081040">
        <ele>860.057</ele>
        <time>2022-07-06T13:00:15Z</time>
      </trkpt>
      <trkpt lat="42.459423" lon="-6.081276">
        <ele>860.000</ele>
        <time>2022-07-06T13:00:55Z</time>
      </trkpt>
      <trkpt lat="42.460056" lon="-6.084597">
        <ele>865.020</ele>
        <time>2022-07-06T13:01:35Z</time>
      </trkpt>
      <trkpt lat="42.460529" lon="-6.086780">
        <ele>864.006</ele>
        <time>2022-07-06T13:02:15Z</time>
      </trkpt>
      <trkpt lat="42.460701" lon="-6.087204">
        <ele>863.029</ele>
        <time>2022-07-06T13:02:55Z</time>
      </trkpt>
      <trkpt lat="42.461636" lon="-6.091600">
        <ele>867.012</ele>
        <time>2022-07-06T13:03:35Z</time>
      </trkpt>
      <trkpt lat="42.461708" lon="-6.093346">
        <ele>867.017</ele>
        <time>2022-07-06T13:04:15Z</time>
      </trkpt>
      <trkpt lat="42.461731" lon="-6.094052">
        <ele>867.082</ele>
        <time>2022-07-06T13:04:55Z</time>
      </trkpt>
      <trkpt lat="42.461750" lon="-6.094381">
        <ele>867.046</ele>
        <time>2022-07-06T13:05:35Z</time>
      </trkpt>
      <trkpt lat="42.461792" lon="-6.095497">
        <ele>869.020</ele>
        <time>2022-07-06T13:06:15Z</time>
      </trkpt>
      <trkpt lat="42.461800" lon="-6.095958">
        <ele>869.067</ele>
        <time>2022-07-06T13:06:55Z</time>
      </trkpt>
      <trkpt lat="42.461781" lon="-6.096377">
        <ele>869.081</ele>
        <time>2022-07-06T13:07:35Z</time>
      </trkpt>
      <trkpt lat="42.461494" lon="-6.096607">
        <ele>869.019</ele>
        <time>2022-07-06T13:08:15Z</time>
      </trkpt>
      <trkpt lat="42.461079" lon="-6.097482">
        <ele>869.006</ele>
        <time>2022-07-06T13:08:55Z</time>
      </trkpt>
      <trkpt lat="42.460575" lon="-6.098608">
        <ele>870.060</ele>
        <time>2022-07-06T13:09:35Z</time>
      </trkpt>
      <trkpt lat="42.460461" lon="-6.100003">
        <ele>872.073</ele>
        <time>2022-07-06T13:10:15Z</time>
      </trkpt>
      <trkpt lat="42.460411" lon="-6.101087">
        <ele>877.078</ele>
        <time>2022-07-06T13:10:55Z</time>
      </trkpt>
      <trkpt lat="42.460381" lon="-6.102042">
        <ele>875.083</ele>
        <time>2022-07-06T13:11:35Z</time>
      </trkpt>
      <trkpt lat="42.460255" lon="-6.102523">
        <ele>875.037</ele>
        <time>2022-07-06T13:12:15Z</time>
      </trkpt>
      <trkpt lat="42.459961" lon="-6.103817">
        <ele>880.011</ele>
        <time>2022-07-06T13:12:55Z</time>
      </trkpt>
      <trkpt lat="42.459721" lon="-6.104810">
        <ele>882.055</ele>
        <time>2022-07-06T13:13:35Z</time>
      </trkpt>
      <trkpt lat="42.459393" lon="-6.106422">
        <ele>884.007</ele>
        <time>2022-07-06T13:14:15Z</time>
      </trkpt>
      <trkpt lat="42.459240" lon="-6.107433">
        <ele>884.017</ele>
        <time>2022-07-06T13:14:55Z</time>
      </trkpt>
      <trkpt lat="42.458832" lon="-6.109772">
        <ele>887.006</ele>
        <time>2022-07-06T13:15:35Z</time>
      </trkpt>
      <trkpt lat="42.458263" lon="-6.113167">
        <ele>891.059</ele>
        <time>2022-07-06T13:16:15Z</time>
      </trkpt>
      <trkpt lat="42.457890" lon="-6.115328">
        <ele>897.092</ele>
        <time>2022-07-06T13:16:55Z</time>
      </trkpt>
      <trkpt lat="42.457722" lon="-6.116392">
        <ele>897.017</ele>
        <time>2022-07-06T13:17:35Z</time>
      </trkpt>
      <trkpt lat="42.457535" lon="-6.117463">
        <ele>902.042</ele>
        <time>2022-07-06T13:18:15Z</time>
      </trkpt>
      <trkpt lat="42.457355" lon="-6.118505">
        <ele>899.086</ele>
        <time>2022-07-06T13:18:55Z</time>
      </trkpt>
      <trkpt lat="42.457241" lon="-6.119175">
        <ele>901.020</ele>
        <time>2022-07-06T13:19:35Z</time>
      </trkpt>
      <trkpt lat="42.456871" lon="-6.120882">
        <ele>908.072</ele>
        <time>2022-07-06T13:20:15Z</time>
      </trkpt>
      <trkpt lat="42.456615" lon="-6.122013">
        <ele>910.013</ele>
        <time>2022-07-06T13:20:55Z</time>
      </trkpt>
      <trkpt lat="42.456272" lon="-6.123601">
        <ele>908.014</ele>
        <time>2022-07-06T13:21:35Z</time>
      </trkpt>
      <trkpt lat="42.456112" lon="-6.124282">
        <ele>912.006</ele>
        <time>2022-07-06T13:22:15Z</time>
      </trkpt>
      <trkpt lat="42.455860" lon="-6.125436">
        <ele>912.031</ele>
        <time>2022-07-06T13:22:55Z</time>
      </trkpt>
      <trkpt lat="42.455521" lon="-6.126954">
        <ele>914.094</ele>
        <time>2022-07-06T13:23:35Z</time>
      </trkpt>
      <trkpt lat="42.455341" lon="-6.128531">
        <ele>917.089</ele>
        <time>2022-07-06T13:24:15Z</time>
      </trkpt>
      <trkpt lat="42.454922" lon="-6.132071">
        <ele>925.014</ele>
        <time>2022-07-06T13:24:55Z</time>
      </trkpt>
      <trkpt lat="42.454941" lon="-6.134625">
        <ele>931.048</ele>
        <time>2022-07-06T13:25:35Z</time>
      </trkpt>
      <trkpt lat="42.454987" lon="-6.135676">
        <ele>936.062</ele>
        <time>2022-07-06T13:26:15Z</time>
      </trkpt>
      <trkpt lat="42.454987" lon="-6.137055">
        <ele>938.032</ele>
        <time>2022-07-06T13:26:55Z</time>
      </trkpt>
      <trkpt lat="42.454994" lon="-6.138831">
        <ele>947.092</ele>
        <time>2022-07-06T13:27:35Z</time>
      </trkpt>
      <trkpt lat="42.455006" lon="-6.142468">
        <ele>954.011</ele>
        <time>2022-07-06T13:28:15Z</time>
      </trkpt>
      <trkpt lat="42.454971" lon="-6.143155">
        <ele>957.006</ele>
        <time>2022-07-06T13:28:55Z</time>
      </trkpt>
      <trkpt lat="42.454845" lon="-6.144844">
        <ele>960.077</ele>
        <time>2022-07-06T13:29:35Z</time>
      </trkpt>
      <trkpt lat="42.454857" lon="-6.145225">
        <ele>960.070</ele>
        <time>2022-07-06T13:30:15Z</time>
      </trkpt>
      <trkpt lat="42.455242" lon="-6.147204">
        <ele>971.065</ele>
        <time>2022-07-06T13:30:55Z</time>
      </trkpt>
      <trkpt lat="42.455322" lon="-6.147676">
        <ele>971.090</ele>
        <time>2022-07-06T13:31:35Z</time>
      </trkpt>
      <trkpt lat="42.455402" lon="-6.148540">
        <ele>971.074</ele>
        <time>2022-07-06T13:32:15Z</time>
      </trkpt>
      <trkpt lat="42.455425" lon="-6.149420">
        <ele>967.058</ele>
        <time>2022-07-06T13:32:55Z</time>
      </trkpt>
      <trkpt lat="42.455364" lon="-6.150294">
        <ele>972.078</ele>
        <time>2022-07-06T13:33:35Z</time>
      </trkpt>
      <trkpt lat="42.455311" lon="-6.152092">
        <ele>976.033</ele>
        <time>2022-07-06T13:34:15Z</time>
      </trkpt>
      <trkpt lat="42.455299" lon="-6.153138">
        <ele>976.026</ele>
        <time>2022-07-06T13:34:55Z</time>
      </trkpt>
      <trkpt lat="42.455250" lon="-6.154608">
        <ele>976.006</ele>
        <time>2022-07-06T13:35:35Z</time>
      </trkpt>
      <trkpt lat="42.455170" lon="-6.155895">
        <ele>977.061</ele>
        <time>2022-07-06T13:36:15Z</time>
      </trkpt>
      <trkpt lat="42.455055" lon="-6.156196">
        <ele>977.064</ele>
        <time>2022-07-06T13:36:55Z</time>
      </trkpt>
      <trkpt lat="42.455101" lon="-6.157510">
        <ele>978.089</ele>
        <time>2022-07-06T13:37:35Z</time>
      </trkpt>
      <trkpt lat="42.455173" lon="-6.158121">
        <ele>981.054</ele>
        <time>2022-07-06T13:38:15Z</time>
      </trkpt>
      <trkpt lat="42.455208" lon="-6.158518">
        <ele>981.098</ele>
        <time>2022-07-06T13:38:55Z</time>
      </trkpt>
      <trkpt lat="42.455334" lon="-6.159265">
        <ele>984.082</ele>
        <time>2022-07-06T13:39:35Z</time>
      </trkpt>
      <trkpt lat="42.455441" lon="-6.159950">
        <ele>985.066</ele>
        <time>2022-07-06T13:40:15Z</time>
      </trkpt>
      <trkpt lat="42.455566" lon="-6.161290">
        <ele>986.029</ele>
        <time>2022-07-06T13:40:55Z</time>
      </trkpt>
      <trkpt lat="42.455593" lon="-6.161721">
        <ele>986.021</ele>
        <time>2022-07-06T13:41:35Z</time>
      </trkpt>
      <trkpt lat="42.455582" lon="-6.162398">
        <ele>985.006</ele>
        <time>2022-07-06T13:42:15Z</time>
      </trkpt>
      <trkpt lat="42.455910" lon="-6.164221">
        <ele>985.010</ele>
        <time>2022-07-06T13:42:55Z</time>
      </trkpt>
      <trkpt lat="42.456177" lon="-6.165664">
        <ele>985.013</ele>
        <time>2022-07-06T13:43:35Z</time>
      </trkpt>
      <trkpt lat="42.456322" lon="-6.165787">
        <ele>990.028</ele>
        <time>2022-07-06T13:44:15Z</time>
      </trkpt>
      <trkpt lat="42.456940" lon="-6.168962">
        <ele>987.083</ele>
        <time>2022-07-06T13:44:55Z</time>
      </trkpt>
      <trkpt lat="42.457287" lon="-6.170851">
        <ele>990.077</ele>
        <time>2022-07-06T13:45:35Z</time>
      </trkpt>
      <trkpt lat="42.457497" lon="-6.171913">
        <ele>990.031</ele>
        <time>2022-07-06T13:46:15Z</time>
      </trkpt>
      <trkpt lat="42.457592" lon="-6.172401">
        <ele>991.061</ele>
        <time>2022-07-06T13:46:55Z</time>
      </trkpt>
      <trkpt lat="42.457855" lon="-6.173791">
        <ele>989.021</ele>
        <time>2022-07-06T13:47:35Z</time>
      </trkpt>
      <trkpt lat="42.458294" lon="-6.176108">
        <ele>998.013</ele>
        <time>2022-07-06T13:48:15Z</time>
      </trkpt>
      <trkpt lat="42.459358" lon="-6.182797">
        <ele>1002.006</ele>
        <time>2022-07-06T13:48:55Z</time>
      </trkpt>
      <trkpt lat="42.459446" lon="-6.183307">
        <ele>1000.030</ele>
        <time>2022-07-06T13:49:35Z</time>
      </trkpt>
      <trkpt lat="42.459545" lon="-6.183640">
        <ele>1000.013</ele>
        <time>2022-07-06T13:50:15Z</time>
      </trkpt>
      <trkpt lat="42.459877" lon="-6.184444">
        <ele>1002.018</ele>
        <time>2022-07-06T13:50:55Z</time>
      </trkpt>
      <trkpt lat="42.460018" lon="-6.184884">
        <ele>998.063</ele>
        <time>2022-07-06T13:51:35Z</time>
      </trkpt>
      <trkpt lat="42.460091" lon="-6.185249">
        <ele>998.037</ele>
        <time>2022-07-06T13:52:15Z</time>
      </trkpt>
      <trkpt lat="42.460438" lon="-6.187813">
        <ele>1008.051</ele>
        <time>2022-07-06T13:52:55Z</time>
      </trkpt>
      <trkpt lat="42.460533" lon="-6.188436">
        <ele>1008.054</ele>
        <time>2022-07-06T13:53:35Z</time>
      </trkpt>
      <trkpt lat="42.460651" lon="-6.189294">
        <ele>1010.056</ele>
        <time>2022-07-06T13:54:15Z</time>
      </trkpt>
      <trkpt lat="42.460762" lon="-6.190061">
        <ele>1011.011</ele>
        <time>2022-07-06T13:54:55Z</time>
      </trkpt>
      <trkpt lat="42.461063" lon="-6.191938">
        <ele>1010.006</ele>
        <time>2022-07-06T13:55:35Z</time>
      </trkpt>
      <trkpt lat="42.461128" lon="-6.192545">
        <ele>1010.069</ele>
        <time>2022-07-06T13:56:15Z</time>
      </trkpt>
      <trkpt lat="42.461040" lon="-6.197834">
        <ele>1016.052</ele>
        <time>2022-07-06T13:56:55Z</time>
      </trkpt>
      <trkpt lat="42.460999" lon="-6.198545">
        <ele>1018.017</ele>
        <time>2022-07-06T13:57:35Z</time>
      </trkpt>
      <trkpt lat="42.461037" lon="-6.198915">
        <ele>1018.082</ele>
        <time>2022-07-06T13:58:15Z</time>
      </trkpt>
      <trkpt lat="42.461094" lon="-6.199287">
        <ele>1018.016</ele>
        <time>2022-07-06T13:58:55Z</time>
      </trkpt>
      <trkpt lat="42.461338" lon="-6.200330">
        <ele>1018.050</ele>
        <time>2022-07-06T13:59:35Z</time>
      </trkpt>
      <trkpt lat="42.461388" lon="-6.201440">
        <ele>1016.044</ele>
        <time>2022-07-06T14:00:15Z</time>
      </trkpt>
      <trkpt lat="42.461563" lon="-6.202502">
        <ele>1017.005</ele>
        <time>2022-07-06T14:00:55Z</time>
      </trkpt>
      <trkpt lat="42.461948" lon="-6.204170">
        <ele>1016.015</ele>
        <time>2022-07-06T14:01:35Z</time>
      </trkpt>
      <trkpt lat="42.462074" lon="-6.204447">
        <ele>1016.006</ele>
        <time>2022-07-06T14:02:15Z</time>
      </trkpt>
      <trkpt lat="42.462238" lon="-6.204690">
        <ele>1015.078</ele>
        <time>2022-07-06T14:02:55Z</time>
      </trkpt>
      <trkpt lat="42.462536" lon="-6.205248">
        <ele>1015.021</ele>
        <time>2022-07-06T14:03:35Z</time>
      </trkpt>
      <trkpt lat="42.462833" lon="-6.206263">
        <ele>1017.096</ele>
        <time>2022-07-06T14:04:15Z</time>
      </trkpt>
      <trkpt lat="42.462807" lon="-6.206935">
        <ele>1017.051</ele>
        <time>2022-07-06T14:04:55Z</time>
      </trkpt>
      <trkpt lat="42.462852" lon="-6.207212">
        <ele>1016.035</ele>
        <time>2022-07-06T14:05:35Z</time>
      </trkpt>
      <trkpt lat="42.462982" lon="-6.207358">
        <ele>1019.029</ele>
        <time>2022-07-06T14:06:15Z</time>
      </trkpt>
      <trkpt lat="42.463081" lon="-6.207655">
        <ele>1019.023</ele>
        <time>2022-07-06T14:06:55Z</time>
      </trkpt>
      <trkpt lat="42.463089" lon="-6.208087">
        <ele>1018.083</ele>
        <time>2022-07-06T14:07:35Z</time>
      </trkpt>
      <trkpt lat="42.462906" lon="-6.208282">
        <ele>1015.011</ele>
        <time>2022-07-06T14:08:15Z</time>
      </trkpt>
      <trkpt lat="42.462673" lon="-6.208410">
        <ele>1015.006</ele>
        <time>2022-07-06T14:08:55Z</time>
      </trkpt>
      <trkpt lat="42.462605" lon="-6.208632">
        <ele>1015.086</ele>
        <time>2022-07-06T14:09:35Z</time>
      </trkpt>
      <trkpt lat="42.462696" lon="-6.209212">
        <ele>1015.019</ele>
        <time>2022-07-06T14:10:15Z</time>
      </trkpt>
      <trkpt lat="42.462795" lon="-6.210500">
        <ele>1013.034</ele>
        <time>2022-07-06T14:10:55Z</time>
      </trkpt>
      <trkpt lat="42.462830" lon="-6.211515">
        <ele>1010.089</ele>
        <time>2022-07-06T14:11:35Z</time>
      </trkpt>
      <trkpt lat="42.463062" lon="-6.215252">
        <ele>1015.093</ele>
        <time>2022-07-06T14:12:15Z</time>
      </trkpt>
      <trkpt lat="42.463474" lon="-6.217223">
        <ele>1010.047</ele>
        <time>2022-07-06T14:12:55Z</time>
      </trkpt>
      <trkpt lat="42.463585" lon="-6.217522">
        <ele>1010.074</ele>
        <time>2022-07-06T14:13:35Z</time>
      </trkpt>
      <trkpt lat="42.464184" lon="-6.218175">
        <ele>1014.056</ele>
        <time>2022-07-06T14:14:15Z</time>
      </trkpt>
      <trkpt lat="42.464348" lon="-6.218422">
        <ele>1014.021</ele>
        <time>2022-07-06T14:14:55Z</time>
      </trkpt>
      <trkpt lat="42.464447" lon="-6.218772">
        <ele>1015.006</ele>
        <time>2022-07-06T14:15:35Z</time>
      </trkpt>
      <trkpt lat="42.464291" lon="-6.219405">
        <ele>1015.081</ele>
        <time>2022-07-06T14:16:15Z</time>
      </trkpt>
      <trkpt lat="42.463940" lon="-6.221632">
        <ele>1027.054</ele>
        <time>2022-07-06T14:16:55Z</time>
      </trkpt>
      <trkpt lat="42.463955" lon="-6.223353">
        <ele>1027.049</ele>
        <time>2022-07-06T14:17:35Z</time>
      </trkpt>
      <trkpt lat="42.464046" lon="-6.224363">
        <ele>1027.014</ele>
        <time>2022-07-06T14:18:15Z</time>
      </trkpt>
      <trkpt lat="42.464104" lon="-6.224700">
        <ele>1028.048</ele>
        <time>2022-07-06T14:18:55Z</time>
      </trkpt>
      <trkpt lat="42.466782" lon="-6.232057">
        <ele>1046.032</ele>
        <time>2022-07-06T14:19:35Z</time>
      </trkpt>
      <trkpt lat="42.468258" lon="-6.236280">
        <ele>1057.037</ele>
        <time>2022-07-06T14:20:15Z</time>
      </trkpt>
      <trkpt lat="42.470432" lon="-6.241692">
        <ele>1069.049</ele>
        <time>2022-07-06T14:20:55Z</time>
      </trkpt>
      <trkpt lat="42.471748" lon="-6.245085">
        <ele>1066.013</ele>
        <time>2022-07-06T14:21:35Z</time>
      </trkpt>
      <trkpt lat="42.473186" lon="-6.250683">
        <ele>1067.006</ele>
        <time>2022-07-06T14:22:15Z</time>
      </trkpt>
      <trkpt lat="42.473732" lon="-6.251798">
        <ele>1062.097</ele>
        <time>2022-07-06T14:22:55Z</time>
      </trkpt>
      <trkpt lat="42.474148" lon="-6.252835">
        <ele>1068.020</ele>
        <time>2022-07-06T14:23:35Z</time>
      </trkpt>
      <trkpt lat="42.474129" lon="-6.253137">
        <ele>1061.095</ele>
        <time>2022-07-06T14:24:15Z</time>
      </trkpt>
      <trkpt lat="42.474163" lon="-6.254082">
        <ele>1062.060</ele>
        <time>2022-07-06T14:24:55Z</time>
      </trkpt>
      <trkpt lat="42.474224" lon="-6.254352">
        <ele>1062.014</ele>
        <time>2022-07-06T14:25:35Z</time>
      </trkpt>
      <trkpt lat="42.474392" lon="-6.254497">
        <ele>1062.068</ele>
        <time>2022-07-06T14:26:15Z</time>
      </trkpt>
      <trkpt lat="42.474529" lon="-6.254708">
        <ele>1067.072</ele>
        <time>2022-07-06T14:26:55Z</time>
      </trkpt>
      <trkpt lat="42.474670" lon="-6.254822">
        <ele>1068.013</ele>
        <time>2022-07-06T14:27:35Z</time>
      </trkpt>
      <trkpt lat="42.474907" lon="-6.255250">
        <ele>1068.014</ele>
        <time>2022-07-06T14:28:15Z</time>
      </trkpt>
      <trkpt lat="42.474998" lon="-6.255525">
        <ele>1072.006</ele>
        <time>2022-07-06T14:28:55Z</time>
      </trkpt>
      <trkpt lat="42.475147" lon="-6.256178">
        <ele>1072.031</ele>
        <time>2022-07-06T14:29:35Z</time>
      </trkpt>
      <trkpt lat="42.475262" lon="-6.257143">
        <ele>1087.044</ele>
        <time>2022-07-06T14:30:15Z</time>
      </trkpt>
      <trkpt lat="42.475582" lon="-6.257542">
        <ele>1085.079</ele>
        <time>2022-07-06T14:30:55Z</time>
      </trkpt>
      <trkpt lat="42.475945" lon="-6.258233">
        <ele>1092.054</ele>
        <time>2022-07-06T14:31:35Z</time>
      </trkpt>
      <trkpt lat="42.476227" lon="-6.258637">
        <ele>1092.098</ele>
        <time>2022-07-06T14:32:15Z</time>
      </trkpt>
      <trkpt lat="42.476376" lon="-6.258793">
        <ele>1099.072</ele>
        <time>2022-07-06T14:32:55Z</time>
      </trkpt>
      <trkpt lat="42.477093" lon="-6.259903">
        <ele>1103.088</ele>
        <time>2022-07-06T14:33:35Z</time>
      </trkpt>
      <trkpt lat="42.477230" lon="-6.260167">
        <ele>1103.024</ele>
        <time>2022-07-06T14:34:15Z</time>
      </trkpt>
      <trkpt lat="42.477718" lon="-6.260753">
        <ele>1103.026</ele>
        <time>2022-07-06T14:34:55Z</time>
      </trkpt>
      <trkpt lat="42.477898" lon="-6.261018">
        <ele>1103.006</ele>
        <time>2022-07-06T14:35:35Z</time>
      </trkpt>
      <trkpt lat="42.478024" lon="-6.261635">
        <ele>1105.052</ele>
        <time>2022-07-06T14:36:15Z</time>
      </trkpt>
      <trkpt lat="42.478153" lon="-6.262863">
        <ele>1104.045</ele>
        <time>2022-07-06T14:36:55Z</time>
      </trkpt>
      <trkpt lat="42.478298" lon="-6.263793">
        <ele>1103.010</ele>
        <time>2022-07-06T14:37:35Z</time>
      </trkpt>
      <trkpt lat="42.478397" lon="-6.264770">
        <ele>1102.015</ele>
        <time>2022-07-06T14:38:15Z</time>
      </trkpt>
      <trkpt lat="42.478539" lon="-6.266077">
        <ele>1100.079</ele>
        <time>2022-07-06T14:38:55Z</time>
      </trkpt>
      <trkpt lat="42.478657" lon="-6.267050">
        <ele>1098.023</ele>
        <time>2022-07-06T14:39:35Z</time>
      </trkpt>
      <trkpt lat="42.478672" lon="-6.267398">
        <ele>1096.082</ele>
        <time>2022-07-06T14:40:15Z</time>
      </trkpt>
      <trkpt lat="42.478851" lon="-6.268797">
        <ele>1100.043</ele>
        <time>2022-07-06T14:40:55Z</time>
      </trkpt>
      <trkpt lat="42.478931" lon="-6.269130">
        <ele>1100.017</ele>
        <time>2022-07-06T14:41:35Z</time>
      </trkpt>
      <trkpt lat="42.479084" lon="-6.270165">
        <ele>1105.006</ele>
        <time>2022-07-06T14:42:15Z</time>
      </trkpt>
      <trkpt lat="42.479149" lon="-6.270858">
        <ele>1103.012</ele>
        <time>2022-07-06T14:42:55Z</time>
      </trkpt>
      <trkpt lat="42.478977" lon="-6.271659">
        <ele>1104.095</ele>
        <time>2022-07-06T14:43:35Z</time>
      </trkpt>
      <trkpt lat="42.478897" lon="-6.272383">
        <ele>1106.030</ele>
        <time>2022-07-06T14:44:15Z</time>
      </trkpt>
      <trkpt lat="42.478882" lon="-6.272603">
        <ele>1106.045</ele>
        <time>2022-07-06T14:44:55Z</time>
      </trkpt>
      <trkpt lat="42.478893" lon="-6.272839">
        <ele>1106.079</ele>
        <time>2022-07-06T14:45:35Z</time>
      </trkpt>
      <trkpt lat="42.479424" lon="-6.274658">
        <ele>1113.043</ele>
        <time>2022-07-06T14:46:15Z</time>
      </trkpt>
      <trkpt lat="42.479755" lon="-6.276289">
        <ele>1119.038</ele>
        <time>2022-07-06T14:46:55Z</time>
      </trkpt>
      <trkpt lat="42.480206" lon="-6.278440">
        <ele>1122.070</ele>
        <time>2022-07-06T14:47:35Z</time>
      </trkpt>
      <trkpt lat="42.480312" lon="-6.278772">
        <ele>1121.017</ele>
        <time>2022-07-06T14:48:15Z</time>
      </trkpt>
      <trkpt lat="42.480579" lon="-6.279244">
        <ele>1127.006</ele>
        <time>2022-07-06T14:48:55Z</time>
      </trkpt>
      <trkpt lat="42.480888" lon="-6.279910">
        <ele>1126.087</ele>
        <time>2022-07-06T14:49:35Z</time>
      </trkpt>
      <trkpt lat="42.481529" lon="-6.281213">
        <ele>1135.090</ele>
        <time>2022-07-06T14:50:15Z</time>
      </trkpt>
      <trkpt lat="42.481625" lon="-6.281728">
        <ele>1135.075</ele>
        <time>2022-07-06T14:50:55Z</time>
      </trkpt>
      <trkpt lat="42.481804" lon="-6.282152">
        <ele>1139.070</ele>
        <time>2022-07-06T14:51:35Z</time>
      </trkpt>
      <trkpt lat="42.481987" lon="-6.282812">
        <ele>1139.084</ele>
        <time>2022-07-06T14:52:15Z</time>
      </trkpt>
      <trkpt lat="42.482174" lon="-6.283563">
        <ele>1148.098</ele>
        <time>2022-07-06T14:52:55Z</time>
      </trkpt>
      <trkpt lat="42.482285" lon="-6.284153">
        <ele>1152.015</ele>
        <time>2022-07-06T14:53:35Z</time>
      </trkpt>
      <trkpt lat="42.482357" lon="-6.284673">
        <ele>1156.065</ele>
        <time>2022-07-06T14:54:15Z</time>
      </trkpt>
      <trkpt lat="42.482185" lon="-6.284735">
        <ele>1156.011</ele>
        <time>2022-07-06T14:54:55Z</time>
      </trkpt>
      <trkpt lat="42.482155" lon="-6.284923">
        <ele>1156.006</ele>
        <time>2022-07-06T14:55:35Z</time>
      </trkpt>
      <trkpt lat="42.481539" lon="-6.285212">
        <ele>468.087</ele>
        <time>2014-08-31T07:22:49Z</time>
      </trkpt>
      <trkpt lat="42.481802" lon="-6.285347">
        <ele>513.042</ele>
        <time>2014-08-31T07:22:50Z</time>
      </trkpt>
      <trkpt lat="42.482517" lon="-6.285891">
        <ele>1240.026</ele>
        <time>2014-08-31T07:23:06Z</time>
      </trkpt>
      <trkpt lat="42.482529" lon="-6.285799">
        <ele>1215.007</ele>
        <time>2014-08-31T07:23:16Z</time>
      </trkpt>
      <trkpt lat="42.482492" lon="-6.285866">
        <ele>1220.015</ele>
        <time>2014-08-31T07:23:26Z</time>
      </trkpt>
      <trkpt lat="42.482516" lon="-6.285937">
        <ele>1213.054</ele>
        <time>2014-08-31T07:23:39Z</time>
      </trkpt>
      <trkpt lat="42.482509" lon="-6.285933">
        <ele>1212.016</ele>
        <time>2014-08-31T07:24:20Z</time>
      </trkpt>
      <trkpt lat="42.482509" lon="-6.285933">
        <ele>1212.081</ele>
        <time>2014-08-31T07:25:00Z</time>
      </trkpt>
      <trkpt lat="42.482512" lon="-6.286099">
        <ele>1211.081</ele>
        <time>2014-08-31T07:25:30Z</time>
      </trkpt>
      <trkpt lat="42.482517" lon="-6.286247">
        <ele>1211.017</ele>
        <time>2014-08-31T07:25:38Z</time>
      </trkpt>
      <trkpt lat="42.482503" lon="-6.286382">
        <ele>1212.084</ele>
        <time>2014-08-31T07:25:45Z</time>
      </trkpt>
      <trkpt lat="42.482528" lon="-6.286507">
        <ele>1213.071</ele>
        <time>2014-08-31T07:25:55Z</time>
      </trkpt>
      <trkpt lat="42.482568" lon="-6.286629">
        <ele>1213.041</ele>
        <time>2014-08-31T07:26:05Z</time>
      </trkpt>
      <trkpt lat="42.482590" lon="-6.286759">
        <ele>1213.015</ele>
        <time>2014-08-31T07:26:13Z</time>
      </trkpt>
      <trkpt lat="42.482625" lon="-6.286872">
        <ele>1213.007</ele>
        <time>2014-08-31T07:26:21Z</time>
      </trkpt>
      <trkpt lat="42.482663" lon="-6.286987">
        <ele>1213.034</ele>
        <time>2014-08-31T07:26:29Z</time>
      </trkpt>
      <trkpt lat="42.482688" lon="-6.287053">
        <ele>1214.073</ele>
        <time>2014-08-31T07:26:39Z</time>
      </trkpt>
      <trkpt lat="42.482727" lon="-6.287165">
        <ele>1215.035</ele>
        <time>2014-08-31T07:26:43Z</time>
      </trkpt>
      <trkpt lat="42.482768" lon="-6.287281">
        <ele>1215.060</ele>
        <time>2014-08-31T07:26:50Z</time>
      </trkpt>
      <trkpt lat="42.482810" lon="-6.287395">
        <ele>1215.020</ele>
        <time>2014-08-31T07:27:00Z</time>
      </trkpt>
      <trkpt lat="42.482828" lon="-6.287524">
        <ele>1216.066</ele>
        <time>2014-08-31T07:27:08Z</time>
      </trkpt>
      <trkpt lat="42.482841" lon="-6.287651">
        <ele>1216.033</ele>
        <time>2014-08-31T07:27:16Z</time>
      </trkpt>
      <trkpt lat="42.482836" lon="-6.287781">
        <ele>1217.047</ele>
        <time>2014-08-31T07:27:25Z</time>
      </trkpt>
      <trkpt lat="42.482846" lon="-6.287915">
        <ele>1218.029</ele>
        <time>2014-08-31T07:27:33Z</time>
      </trkpt>
      <trkpt lat="42.482853" lon="-6.287998">
        <ele>1218.021</ele>
        <time>2014-08-31T07:27:43Z</time>
      </trkpt>
      <trkpt lat="42.482875" lon="-6.288126">
        <ele>1218.007</ele>
        <time>2014-08-31T07:27:50Z</time>
      </trkpt>
      <trkpt lat="42.482892" lon="-6.288254">
        <ele>1218.061</ele>
        <time>2014-08-31T07:27:58Z</time>
      </trkpt>
      <trkpt lat="42.482911" lon="-6.288376">
        <ele>1218.080</ele>
        <time>2014-08-31T07:28:07Z</time>
      </trkpt>
      <trkpt lat="42.482936" lon="-6.288494">
        <ele>1219.092</ele>
        <time>2014-08-31T07:28:14Z</time>
      </trkpt>
      <trkpt lat="42.482954" lon="-6.288615">
        <ele>1219.027</ele>
        <time>2014-08-31T07:28:21Z</time>
      </trkpt>
      <trkpt lat="42.482969" lon="-6.288744">
        <ele>1220.017</ele>
        <time>2014-08-31T07:28:28Z</time>
      </trkpt>
      <trkpt lat="42.482978" lon="-6.288873">
        <ele>1221.023</ele>
        <time>2014-08-31T07:28:37Z</time>
      </trkpt>
      <trkpt lat="42.482990" lon="-6.288995">
        <ele>1221.030</ele>
        <time>2014-08-31T07:28:44Z</time>
      </trkpt>
      <trkpt lat="42.483001" lon="-6.289119">
        <ele>1221.096</ele>
        <time>2014-08-31T07:28:53Z</time>
      </trkpt>
      <trkpt lat="42.482994" lon="-6.289253">
        <ele>1221.031</ele>
        <time>2014-08-31T07:29:02Z</time>
      </trkpt>
      <trkpt lat="42.482994" lon="-6.289281">
        <ele>1221.024</ele>
        <time>2014-08-31T07:29:42Z</time>
      </trkpt>
      <trkpt lat="42.482974" lon="-6.289409">
        <ele>1222.007</ele>
        <time>2014-08-31T07:29:49Z</time>
      </trkpt>
      <trkpt lat="42.482946" lon="-6.289559">
        <ele>1222.056</ele>
        <time>2014-08-31T07:29:56Z</time>
      </trkpt>
      <trkpt lat="42.482917" lon="-6.289673">
        <ele>1222.035</ele>
        <time>2014-08-31T07:30:06Z</time>
      </trkpt>
      <trkpt lat="42.482896" lon="-6.289795">
        <ele>1223.067</ele>
        <time>2014-08-31T07:30:16Z</time>
      </trkpt>
      <trkpt lat="42.482875" lon="-6.289914">
        <ele>1223.092</ele>
        <time>2014-08-31T07:30:24Z</time>
      </trkpt>
      <trkpt lat="42.482831" lon="-6.290029">
        <ele>1223.092</ele>
        <time>2014-08-31T07:30:32Z</time>
      </trkpt>
      <trkpt lat="42.482809" lon="-6.290154">
        <ele>1224.018</ele>
        <time>2014-08-31T07:30:42Z</time>
      </trkpt>
      <trkpt lat="42.482779" lon="-6.290257">
        <ele>1225.045</ele>
        <time>2014-08-31T07:30:53Z</time>
      </trkpt>
      <trkpt lat="42.482796" lon="-6.290323">
        <ele>1226.042</ele>
        <time>2014-08-31T07:31:12Z</time>
      </trkpt>
      <trkpt lat="42.482770" lon="-6.290461">
        <ele>1226.022</ele>
        <time>2014-08-31T07:31:19Z</time>
      </trkpt>
      <trkpt lat="42.482744" lon="-6.290596">
        <ele>1227.014</ele>
        <time>2014-08-31T07:31:27Z</time>
      </trkpt>
      <trkpt lat="42.482702" lon="-6.290709">
        <ele>1227.007</ele>
        <time>2014-08-31T07:31:36Z</time>
      </trkpt>
      <trkpt lat="42.482699" lon="-6.290840">
        <ele>1227.071</ele>
        <time>2014-08-31T07:31:45Z</time>
      </trkpt>
      <trkpt lat="42.482686" lon="-6.290975">
        <ele>1227.030</ele>
        <time>2014-08-31T07:31:55Z</time>
      </trkpt>
      <trkpt lat="42.482679" lon="-6.291099">
        <ele>1228.052</ele>
        <time>2014-08-31T07:32:03Z</time>
      </trkpt>
      <trkpt lat="42.482659" lon="-6.291228">
        <ele>1228.027</ele>
        <time>2014-08-31T07:32:13Z</time>
      </trkpt>
      <trkpt lat="42.482645" lon="-6.291358">
        <ele>1228.067</ele>
        <time>2014-08-31T07:32:21Z</time>
      </trkpt>
      <trkpt lat="42.482629" lon="-6.291490">
        <ele>1228.093</ele>
        <time>2014-08-31T07:32:29Z</time>
      </trkpt>
      <trkpt lat="42.482621" lon="-6.291626">
        <ele>1229.020</ele>
        <time>2014-08-31T07:32:38Z</time>
      </trkpt>
      <trkpt lat="42.482608" lon="-6.291756">
        <ele>1229.065</ele>
        <time>2014-08-31T07:32:47Z</time>
      </trkpt>
      <trkpt lat="42.482591" lon="-6.291846">
        <ele>1230.068</ele>
        <time>2014-08-31T07:32:57Z</time>
      </trkpt>
      <trkpt lat="42.482566" lon="-6.291902">
        <ele>1229.014</ele>
        <time>2014-08-31T07:33:23Z</time>
      </trkpt>
      <trkpt lat="42.482576" lon="-6.292036">
        <ele>1229.007</ele>
        <time>2014-08-31T07:33:28Z</time>
      </trkpt>
      <trkpt lat="42.482568" lon="-6.292157">
        <ele>1229.013</ele>
        <time>2014-08-31T07:33:37Z</time>
      </trkpt>
      <trkpt lat="42.482564" lon="-6.292261">
        <ele>1229.012</ele>
        <time>2014-08-31T07:33:47Z</time>
      </trkpt>
      <trkpt lat="42.482585" lon="-6.292395">
        <ele>1230.014</ele>
        <time>2014-08-31T07:33:55Z</time>
      </trkpt>
      <trkpt lat="42.482585" lon="-6.292519">
        <ele>1231.019</ele>
        <time>2014-08-31T07:34:06Z</time>
      </trkpt>
      <trkpt lat="42.482619" lon="-6.292637">
        <ele>1231.079</ele>
        <time>2014-08-31T07:34:12Z</time>
      </trkpt>
      <trkpt lat="42.482628" lon="-6.292761">
        <ele>1232.015</ele>
        <time>2014-08-31T07:34:20Z</time>
      </trkpt>
      <trkpt lat="42.482623" lon="-6.292890">
        <ele>1231.052</ele>
        <time>2014-08-31T07:34:29Z</time>
      </trkpt>
      <trkpt lat="42.482629" lon="-6.293019">
        <ele>1231.064</ele>
        <time>2014-08-31T07:34:37Z</time>
      </trkpt>
      <trkpt lat="42.482649" lon="-6.293144">
        <ele>1232.006</ele>
        <time>2014-08-31T07:34:46Z</time>
      </trkpt>
      <trkpt lat="42.482674" lon="-6.293273">
        <ele>1232.016</ele>
        <time>2014-08-31T07:34:54Z</time>
      </trkpt>
      <trkpt lat="42.482692" lon="-6.293409">
        <ele>1233.007</ele>
        <time>2014-08-31T07:35:03Z</time>
      </trkpt>
      <trkpt lat="42.482723" lon="-6.293538">
        <ele>1233.033</ele>
        <time>2014-08-31T07:35:11Z</time>
      </trkpt>
      <trkpt lat="42.482746" lon="-6.293661">
        <ele>1234.052</ele>
        <time>2014-08-31T07:35:19Z</time>
      </trkpt>
      <trkpt lat="42.482765" lon="-6.293780">
        <ele>1235.074</ele>
        <time>2014-08-31T07:35:27Z</time>
      </trkpt>
      <trkpt lat="42.482784" lon="-6.293905">
        <ele>1236.019</ele>
        <time>2014-08-31T07:35:35Z</time>
      </trkpt>
      <trkpt lat="42.482804" lon="-6.294029">
        <ele>1236.019</ele>
        <time>2014-08-31T07:35:43Z</time>
      </trkpt>
      <trkpt lat="42.482824" lon="-6.294157">
        <ele>1237.045</ele>
        <time>2014-08-31T07:35:50Z</time>
      </trkpt>
      <trkpt lat="42.482841" lon="-6.294291">
        <ele>1238.032</ele>
        <time>2014-08-31T07:36:00Z</time>
      </trkpt>
      <trkpt lat="42.482854" lon="-6.294423">
        <ele>1238.056</ele>
        <time>2014-08-31T07:36:09Z</time>
      </trkpt>
      <trkpt lat="42.482880" lon="-6.294561">
        <ele>1239.059</ele>
        <time>2014-08-31T07:36:18Z</time>
      </trkpt>
      <trkpt lat="42.482910" lon="-6.294679">
        <ele>1239.014</ele>
        <time>2014-08-31T07:36:27Z</time>
      </trkpt>
      <trkpt lat="42.482946" lon="-6.294795">
        <ele>1240.007</ele>
        <time>2014-08-31T07:36:35Z</time>
      </trkpt>
      <trkpt lat="42.482975" lon="-6.294914">
        <ele>1240.022</ele>
        <time>2014-08-31T07:36:43Z</time>
      </trkpt>
      <trkpt lat="42.482999" lon="-6.295038">
        <ele>1240.041</ele>
        <time>2014-08-31T07:36:51Z</time>
      </trkpt>
      <trkpt lat="42.483010" lon="-6.295177">
        <ele>1240.053</ele>
        <time>2014-08-31T07:37:01Z</time>
      </trkpt>
      <trkpt lat="42.483050" lon="-6.295299">
        <ele>1241.078</ele>
        <time>2014-08-31T07:37:09Z</time>
      </trkpt>
      <trkpt lat="42.483070" lon="-6.295422">
        <ele>1242.078</ele>
        <time>2014-08-31T07:37:17Z</time>
      </trkpt>
      <trkpt lat="42.483098" lon="-6.295553">
        <ele>1243.044</ele>
        <time>2014-08-31T07:37:27Z</time>
      </trkpt>
      <trkpt lat="42.483133" lon="-6.295667">
        <ele>1243.091</ele>
        <time>2014-08-31T07:37:35Z</time>
      </trkpt>
      <trkpt lat="42.483122" lon="-6.295797">
        <ele>1244.064</ele>
        <time>2014-08-31T07:37:44Z</time>
      </trkpt>
      <trkpt lat="42.483124" lon="-6.295923">
        <ele>1244.006</ele>
        <time>2014-08-31T07:37:53Z</time>
      </trkpt>
      <trkpt lat="42.483120" lon="-6.296047">
        <ele>1244.016</ele>
        <time>2014-08-31T07:38:00Z</time>
      </trkpt>
      <trkpt lat="42.483105" lon="-6.296176">
        <ele>1245.007</ele>
        <time>2014-08-31T07:38:09Z</time>
      </trkpt>
      <trkpt lat="42.483101" lon="-6.296299">
        <ele>1245.053</ele>
        <time>2014-08-31T07:38:17Z</time>
      </trkpt>
      <trkpt lat="42.483086" lon="-6.296421">
        <ele>1246.072</ele>
        <time>2014-08-31T07:38:24Z</time>
      </trkpt>
      <trkpt lat="42.483078" lon="-6.296543">
        <ele>1246.014</ele>
        <time>2014-08-31T07:38:32Z</time>
      </trkpt>
      <trkpt lat="42.483096" lon="-6.296663">
        <ele>1246.019</ele>
        <time>2014-08-31T07:38:39Z</time>
      </trkpt>
      <trkpt lat="42.483109" lon="-6.296798">
        <ele>1246.039</ele>
        <time>2014-08-31T07:38:48Z</time>
      </trkpt>
      <trkpt lat="42.483132" lon="-6.296934">
        <ele>1247.015</ele>
        <time>2014-08-31T07:38:57Z</time>
      </trkpt>
      <trkpt lat="42.483169" lon="-6.297064">
        <ele>1247.052</ele>
        <time>2014-08-31T07:39:06Z</time>
      </trkpt>
      <trkpt lat="42.483200" lon="-6.297194">
        <ele>1247.029</ele>
        <time>2014-08-31T07:39:14Z</time>
      </trkpt>
      <trkpt lat="42.483228" lon="-6.297323">
        <ele>1248.000</ele>
        <time>2014-08-31T07:39:23Z</time>
      </trkpt>
      <trkpt lat="42.483263" lon="-6.297448">
        <ele>1248.020</ele>
        <time>2014-08-31T07:39:31Z</time>
      </trkpt>
      <trkpt lat="42.483275" lon="-6.297575">
        <ele>1248.007</ele>
        <time>2014-08-31T07:39:39Z</time>
      </trkpt>
      <trkpt lat="42.483312" lon="-6.297703">
        <ele>1249.019</ele>
        <time>2014-08-31T07:39:48Z</time>
      </trkpt>
      <trkpt lat="42.483345" lon="-6.297825">
        <ele>1249.098</ele>
        <time>2014-08-31T07:39:57Z</time>
      </trkpt>
      <trkpt lat="42.483367" lon="-6.297944">
        <ele>1249.010</ele>
        <time>2014-08-31T07:40:05Z</time>
      </trkpt>
      <trkpt lat="42.483391" lon="-6.298063">
        <ele>1250.045</ele>
        <time>2014-08-31T07:40:12Z</time>
      </trkpt>
      <trkpt lat="42.483433" lon="-6.298174">
        <ele>1251.095</ele>
        <time>2014-08-31T07:40:20Z</time>
      </trkpt>
      <trkpt lat="42.483487" lon="-6.298284">
        <ele>1251.021</ele>
        <time>2014-08-31T07:40:28Z</time>
      </trkpt>
      <trkpt lat="42.483520" lon="-6.298408">
        <ele>1252.048</ele>
        <time>2014-08-31T07:40:38Z</time>
      </trkpt>
      <trkpt lat="42.483562" lon="-6.298536">
        <ele>1252.053</ele>
        <time>2014-08-31T07:40:48Z</time>
      </trkpt>
      <trkpt lat="42.483615" lon="-6.298636">
        <ele>1252.004</ele>
        <time>2014-08-31T07:40:54Z</time>
      </trkpt>
      <trkpt lat="42.483621" lon="-6.298769">
        <ele>1252.014</ele>
        <time>2014-08-31T07:41:01Z</time>
      </trkpt>
      <trkpt lat="42.483593" lon="-6.298904">
        <ele>1253.007</ele>
        <time>2014-08-31T07:41:09Z</time>
      </trkpt>
      <trkpt lat="42.483609" lon="-6.299034">
        <ele>1253.072</ele>
        <time>2014-08-31T07:41:18Z</time>
      </trkpt>
      <trkpt lat="42.483638" lon="-6.299163">
        <ele>1253.031</ele>
        <time>2014-08-31T07:41:27Z</time>
      </trkpt>
      <trkpt lat="42.483678" lon="-6.299285">
        <ele>1253.073</ele>
        <time>2014-08-31T07:41:36Z</time>
      </trkpt>
      <trkpt lat="42.483714" lon="-6.299408">
        <ele>1253.048</ele>
        <time>2014-08-31T07:41:44Z</time>
      </trkpt>
      <trkpt lat="42.483778" lon="-6.299513">
        <ele>1254.088</ele>
        <time>2014-08-31T07:41:53Z</time>
      </trkpt>
      <trkpt lat="42.483842" lon="-6.299600">
        <ele>1254.014</ele>
        <time>2014-08-31T07:42:00Z</time>
      </trkpt>
      <trkpt lat="42.483904" lon="-6.299702">
        <ele>1255.041</ele>
        <time>2014-08-31T07:42:09Z</time>
      </trkpt>
      <trkpt lat="42.483969" lon="-6.299786">
        <ele>1254.041</ele>
        <time>2014-08-31T07:42:19Z</time>
      </trkpt>
      <trkpt lat="42.484040" lon="-6.299882">
        <ele>1255.081</ele>
        <time>2014-08-31T07:42:27Z</time>
      </trkpt>
      <trkpt lat="42.484105" lon="-6.299984">
        <ele>1255.009</ele>
        <time>2014-08-31T07:42:34Z</time>
      </trkpt>
      <trkpt lat="42.484179" lon="-6.300078">
        <ele>1255.007</ele>
        <time>2014-08-31T07:42:44Z</time>
      </trkpt>
      <trkpt lat="42.484225" lon="-6.300195">
        <ele>1255.051</ele>
        <time>2014-08-31T07:42:52Z</time>
      </trkpt>
      <trkpt lat="42.484282" lon="-6.300301">
        <ele>1256.050</ele>
        <time>2014-08-31T07:43:01Z</time>
      </trkpt>
      <trkpt lat="42.484337" lon="-6.300405">
        <ele>1256.032</ele>
        <time>2014-08-31T07:43:09Z</time>
      </trkpt>
      <trkpt lat="42.484396" lon="-6.300519">
        <ele>1256.057</ele>
        <time>2014-08-31T07:43:17Z</time>
      </trkpt>
      <trkpt lat="42.484450" lon="-6.300625">
        <ele>1256.087</ele>
        <time>2014-08-31T07:43:26Z</time>
      </trkpt>
      <trkpt lat="42.484502" lon="-6.300725">
        <ele>1256.063</ele>
        <time>2014-08-31T07:43:36Z</time>
      </trkpt>
      <trkpt lat="42.484542" lon="-6.300835">
        <ele>1257.080</ele>
        <time>2014-08-31T07:43:45Z</time>
      </trkpt>
      <trkpt lat="42.484598" lon="-6.300943">
        <ele>1257.034</ele>
        <time>2014-08-31T07:43:53Z</time>
      </trkpt>
      <trkpt lat="42.484652" lon="-6.301044">
        <ele>1257.055</ele>
        <time>2014-08-31T07:44:00Z</time>
      </trkpt>
      <trkpt lat="42.484716" lon="-6.301142">
        <ele>1257.010</ele>
        <time>2014-08-31T07:44:08Z</time>
      </trkpt>
      <trkpt lat="42.484731" lon="-6.301274">
        <ele>1258.007</ele>
        <time>2014-08-31T07:44:17Z</time>
      </trkpt>
      <trkpt lat="42.484755" lon="-6.301404">
        <ele>1258.060</ele>
        <time>2014-08-31T07:44:26Z</time>
      </trkpt>
      <trkpt lat="42.484806" lon="-6.301508">
        <ele>1259.099</ele>
        <time>2014-08-31T07:44:34Z</time>
      </trkpt>
      <trkpt lat="42.484862" lon="-6.301613">
        <ele>1259.011</ele>
        <time>2014-08-31T07:44:43Z</time>
      </trkpt>
      <trkpt lat="42.484889" lon="-6.301738">
        <ele>1260.096</ele>
        <time>2014-08-31T07:44:52Z</time>
      </trkpt>
      <trkpt lat="42.484917" lon="-6.301863">
        <ele>1260.046</ele>
        <time>2014-08-31T07:45:01Z</time>
      </trkpt>
      <trkpt lat="42.484973" lon="-6.301977">
        <ele>1260.032</ele>
        <time>2014-08-31T07:45:11Z</time>
      </trkpt>
      <trkpt lat="42.485030" lon="-6.302059">
        <ele>1262.089</ele>
        <time>2014-08-31T07:45:21Z</time>
      </trkpt>
      <trkpt lat="42.485079" lon="-6.302155">
        <ele>1262.067</ele>
        <time>2014-08-31T07:45:31Z</time>
      </trkpt>
      <trkpt lat="42.485145" lon="-6.302249">
        <ele>1262.081</ele>
        <time>2014-08-31T07:45:38Z</time>
      </trkpt>
      <trkpt lat="42.485204" lon="-6.302339">
        <ele>1263.019</ele>
        <time>2014-08-31T07:45:48Z</time>
      </trkpt>
      <trkpt lat="42.485230" lon="-6.302460">
        <ele>1263.007</ele>
        <time>2014-08-31T07:45:56Z</time>
      </trkpt>
      <trkpt lat="42.485272" lon="-6.302556">
        <ele>1263.053</ele>
        <time>2014-08-31T07:46:06Z</time>
      </trkpt>
      <trkpt lat="42.485301" lon="-6.302679">
        <ele>1264.062</ele>
        <time>2014-08-31T07:46:16Z</time>
      </trkpt>
      <trkpt lat="42.485331" lon="-6.302807">
        <ele>1265.044</ele>
        <time>2014-08-31T07:46:24Z</time>
      </trkpt>
      <trkpt lat="42.485346" lon="-6.302936">
        <ele>1265.029</ele>
        <time>2014-08-31T07:46:33Z</time>
      </trkpt>
      <trkpt lat="42.485366" lon="-6.303046">
        <ele>1266.029</ele>
        <time>2014-08-31T07:46:43Z</time>
      </trkpt>
      <trkpt lat="42.485385" lon="-6.303175">
        <ele>1267.015</ele>
        <time>2014-08-31T07:46:53Z</time>
      </trkpt>
      <trkpt lat="42.485417" lon="-6.303297">
        <ele>1267.032</ele>
        <time>2014-08-31T07:47:01Z</time>
      </trkpt>
      <trkpt lat="42.485452" lon="-6.303411">
        <ele>1267.075</ele>
        <time>2014-08-31T07:47:08Z</time>
      </trkpt>
      <trkpt lat="42.485495" lon="-6.303535">
        <ele>1268.028</ele>
        <time>2014-08-31T07:47:17Z</time>
      </trkpt>
      <trkpt lat="42.485537" lon="-6.303660">
        <ele>1268.020</ele>
        <time>2014-08-31T07:47:27Z</time>
      </trkpt>
      <trkpt lat="42.485588" lon="-6.303763">
        <ele>1268.007</ele>
        <time>2014-08-31T07:47:35Z</time>
      </trkpt>
      <trkpt lat="42.485637" lon="-6.303875">
        <ele>1269.064</ele>
        <time>2014-08-31T07:47:44Z</time>
      </trkpt>
      <trkpt lat="42.485676" lon="-6.303995">
        <ele>1269.073</ele>
        <time>2014-08-31T07:47:54Z</time>
      </trkpt>
      <trkpt lat="42.485708" lon="-6.304130">
        <ele>1270.025</ele>
        <time>2014-08-31T07:48:04Z</time>
      </trkpt>
      <trkpt lat="42.485734" lon="-6.304257">
        <ele>1271.010</ele>
        <time>2014-08-31T07:48:13Z</time>
      </trkpt>
      <trkpt lat="42.485768" lon="-6.304376">
        <ele>1271.050</ele>
        <time>2014-08-31T07:48:22Z</time>
      </trkpt>
      <trkpt lat="42.485805" lon="-6.304488">
        <ele>1272.026</ele>
        <time>2014-08-31T07:48:29Z</time>
      </trkpt>
      <trkpt lat="42.485848" lon="-6.304604">
        <ele>1272.083</ele>
        <time>2014-08-31T07:48:39Z</time>
      </trkpt>
      <trkpt lat="42.485894" lon="-6.304718">
        <ele>1273.065</ele>
        <time>2014-08-31T07:48:48Z</time>
      </trkpt>
      <trkpt lat="42.485931" lon="-6.304842">
        <ele>1274.068</ele>
        <time>2014-08-31T07:48:57Z</time>
      </trkpt>
      <trkpt lat="42.485979" lon="-6.304961">
        <ele>1274.014</ele>
        <time>2014-08-31T07:49:07Z</time>
      </trkpt>
      <trkpt lat="42.486019" lon="-6.305086">
        <ele>1275.007</ele>
        <time>2014-08-31T07:49:16Z</time>
      </trkpt>
      <trkpt lat="42.486063" lon="-6.305203">
        <ele>1276.063</ele>
        <time>2014-08-31T07:49:26Z</time>
      </trkpt>
      <trkpt lat="42.486112" lon="-6.305307">
        <ele>1276.092</ele>
        <time>2014-08-31T07:49:33Z</time>
      </trkpt>
      <trkpt lat="42.486169" lon="-6.305422">
        <ele>1276.094</ele>
        <time>2014-08-31T07:49:43Z</time>
      </trkpt>
      <trkpt lat="42.486204" lon="-6.305537">
        <ele>1277.069</ele>
        <time>2014-08-31T07:49:51Z</time>
      </trkpt>
      <trkpt lat="42.486256" lon="-6.305637">
        <ele>1277.059</ele>
        <time>2014-08-31T07:49:59Z</time>
      </trkpt>
      <trkpt lat="42.486290" lon="-6.305757">
        <ele>1278.095</ele>
        <time>2014-08-31T07:50:08Z</time>
      </trkpt>
      <trkpt lat="42.486324" lon="-6.305869">
        <ele>1278.092</ele>
        <time>2014-08-31T07:50:16Z</time>
      </trkpt>
      <trkpt lat="42.486372" lon="-6.305985">
        <ele>1279.058</ele>
        <time>2014-08-31T07:50:25Z</time>
      </trkpt>
      <trkpt lat="42.486426" lon="-6.306094">
        <ele>1279.052</ele>
        <time>2014-08-31T07:50:35Z</time>
      </trkpt>
      <trkpt lat="42.486481" lon="-6.306188">
        <ele>1279.017</ele>
        <time>2014-08-31T07:50:45Z</time>
      </trkpt>
      <trkpt lat="42.486537" lon="-6.306266">
        <ele>1280.007</ele>
        <time>2014-08-31T07:50:55Z</time>
      </trkpt>
      <trkpt lat="42.486609" lon="-6.306345">
        <ele>1281.042</ele>
        <time>2014-08-31T07:51:02Z</time>
      </trkpt>
      <trkpt lat="42.486663" lon="-6.306445">
        <ele>1282.071</ele>
        <time>2014-08-31T07:51:11Z</time>
      </trkpt>
      <trkpt lat="42.486709" lon="-6.306559">
        <ele>1282.043</ele>
        <time>2014-08-31T07:51:19Z</time>
      </trkpt>
      <trkpt lat="42.486712" lon="-6.306683">
        <ele>1283.088</ele>
        <time>2014-08-31T07:51:28Z</time>
      </trkpt>
      <trkpt lat="42.486702" lon="-6.306809">
        <ele>1283.048</ele>
        <time>2014-08-31T07:51:36Z</time>
      </trkpt>
      <trkpt lat="42.486676" lon="-6.306935">
        <ele>1283.054</ele>
        <time>2014-08-31T07:51:44Z</time>
      </trkpt>
      <trkpt lat="42.486645" lon="-6.307060">
        <ele>1284.081</ele>
        <time>2014-08-31T07:51:53Z</time>
      </trkpt>
      <trkpt lat="42.486650" lon="-6.307182">
        <ele>1284.067</ele>
        <time>2014-08-31T07:52:02Z</time>
      </trkpt>
      <trkpt lat="42.486664" lon="-6.307251">
        <ele>1285.081</ele>
        <time>2014-08-31T07:52:26Z</time>
      </trkpt>
      <trkpt lat="42.486664" lon="-6.307384">
        <ele>1286.019</ele>
        <time>2014-08-31T07:52:36Z</time>
      </trkpt>
      <trkpt lat="42.486659" lon="-6.307500">
        <ele>1287.007</ele>
        <time>2014-08-31T07:52:46Z</time>
      </trkpt>
      <trkpt lat="42.486656" lon="-6.307623">
        <ele>1288.093</ele>
        <time>2014-08-31T07:52:55Z</time>
      </trkpt>
      <trkpt lat="42.486650" lon="-6.307756">
        <ele>1289.052</ele>
        <time>2014-08-31T07:53:04Z</time>
      </trkpt>
      <trkpt lat="42.486656" lon="-6.307889">
        <ele>1290.034</ele>
        <time>2014-08-31T07:53:14Z</time>
      </trkpt>
      <trkpt lat="42.486655" lon="-6.308019">
        <ele>1290.079</ele>
        <time>2014-08-31T07:53:23Z</time>
      </trkpt>
      <trkpt lat="42.486599" lon="-6.308126">
        <ele>1291.019</ele>
        <time>2014-08-31T07:53:33Z</time>
      </trkpt>
      <trkpt lat="42.486554" lon="-6.308237">
        <ele>1291.025</ele>
        <time>2014-08-31T07:53:42Z</time>
      </trkpt>
      <trkpt lat="42.486544" lon="-6.308345">
        <ele>1292.022</ele>
        <time>2014-08-31T07:53:52Z</time>
      </trkpt>
      <trkpt lat="42.486504" lon="-6.308454">
        <ele>1293.028</ele>
        <time>2014-08-31T07:54:02Z</time>
      </trkpt>
      <trkpt lat="42.486463" lon="-6.308548">
        <ele>1294.089</ele>
        <time>2014-08-31T07:54:12Z</time>
      </trkpt>
      <trkpt lat="42.486416" lon="-6.308621">
        <ele>1294.017</ele>
        <time>2014-08-31T07:54:22Z</time>
      </trkpt>
      <trkpt lat="42.486350" lon="-6.308672">
        <ele>1296.007</ele>
        <time>2014-08-31T07:54:32Z</time>
      </trkpt>
      <trkpt lat="42.486309" lon="-6.308740">
        <ele>1297.039</ele>
        <time>2014-08-31T07:54:42Z</time>
      </trkpt>
      <trkpt lat="42.486283" lon="-6.308850">
        <ele>1297.098</ele>
        <time>2014-08-31T07:54:53Z</time>
      </trkpt>
      <trkpt lat="42.486258" lon="-6.308911">
        <ele>1298.070</ele>
        <time>2014-08-31T07:55:03Z</time>
      </trkpt>
      <trkpt lat="42.486226" lon="-6.308989">
        <ele>1299.045</ele>
        <time>2014-08-31T07:55:13Z</time>
      </trkpt>
      <trkpt lat="42.486196" lon="-6.309038">
        <ele>1302.015</ele>
        <time>2014-08-31T07:55:38Z</time>
      </trkpt>
      <trkpt lat="42.486141" lon="-6.309140">
        <ele>1303.011</ele>
        <time>2014-08-31T07:55:47Z</time>
      </trkpt>
      <trkpt lat="42.486160" lon="-6.309200">
        <ele>1305.028</ele>
        <time>2014-08-31T07:55:57Z</time>
      </trkpt>
      <trkpt lat="42.486218" lon="-6.309312">
        <ele>1307.045</ele>
        <time>2014-08-31T07:56:07Z</time>
      </trkpt>
      <trkpt lat="42.486274" lon="-6.309431">
        <ele>1308.047</ele>
        <time>2014-08-31T07:56:15Z</time>
      </trkpt>
      <trkpt lat="42.486267" lon="-6.309537">
        <ele>1310.011</ele>
        <time>2014-08-31T07:56:25Z</time>
      </trkpt>
      <trkpt lat="42.486227" lon="-6.309650">
        <ele>1310.007</ele>
        <time>2014-08-31T07:56:34Z</time>
      </trkpt>
      <trkpt lat="42.486223" lon="-6.309774">
        <ele>1312.081</ele>
        <time>2014-08-31T07:56:44Z</time>
      </trkpt>
      <trkpt lat="42.486185" lon="-6.309893">
        <ele>1313.080</ele>
        <time>2014-08-31T07:56:53Z</time>
      </trkpt>
      <trkpt lat="42.486179" lon="-6.310015">
        <ele>1313.092</ele>
        <time>2014-08-31T07:57:01Z</time>
      </trkpt>
      <trkpt lat="42.486181" lon="-6.310137">
        <ele>1314.067</ele>
        <time>2014-08-31T07:57:10Z</time>
      </trkpt>
      <trkpt lat="42.486184" lon="-6.310265">
        <ele>1314.087</ele>
        <time>2014-08-31T07:57:21Z</time>
      </trkpt>
      <trkpt lat="42.486161" lon="-6.310390">
        <ele>1315.013</ele>
        <time>2014-08-31T07:57:31Z</time>
      </trkpt>
      <trkpt lat="42.486167" lon="-6.310518">
        <ele>1316.060</ele>
        <time>2014-08-31T07:57:41Z</time>
      </trkpt>
      <trkpt lat="42.486171" lon="-6.310633">
        <ele>1317.031</ele>
        <time>2014-08-31T07:57:51Z</time>
      </trkpt>
      <trkpt lat="42.486187" lon="-6.310753">
        <ele>1317.061</ele>
        <time>2014-08-31T07:57:59Z</time>
      </trkpt>
      <trkpt lat="42.486204" lon="-6.310879">
        <ele>1318.007</ele>
        <time>2014-08-31T07:58:08Z</time>
      </trkpt>
      <trkpt lat="42.486227" lon="-6.311002">
        <ele>1319.007</ele>
        <time>2014-08-31T07:58:16Z</time>
      </trkpt>
      <trkpt lat="42.486238" lon="-6.311131">
        <ele>1320.020</ele>
        <time>2014-08-31T07:58:26Z</time>
      </trkpt>
      <trkpt lat="42.486267" lon="-6.311277">
        <ele>1321.049</ele>
        <time>2014-08-31T07:58:36Z</time>
      </trkpt>
      <trkpt lat="42.486291" lon="-6.311411">
        <ele>1321.041</ele>
        <time>2014-08-31T07:58:45Z</time>
      </trkpt>
      <trkpt lat="42.486317" lon="-6.311529">
        <ele>1322.016</ele>
        <time>2014-08-31T07:58:55Z</time>
      </trkpt>
      <trkpt lat="42.486363" lon="-6.311640">
        <ele>1322.026</ele>
        <time>2014-08-31T07:59:05Z</time>
      </trkpt>
      <trkpt lat="42.486416" lon="-6.311752">
        <ele>1323.022</ele>
        <time>2014-08-31T07:59:14Z</time>
      </trkpt>
      <trkpt lat="42.486467" lon="-6.311856">
        <ele>1324.019</ele>
        <time>2014-08-31T07:59:23Z</time>
      </trkpt>
      <trkpt lat="42.486547" lon="-6.311937">
        <ele>1324.019</ele>
        <time>2014-08-31T07:59:31Z</time>
      </trkpt>
      <trkpt lat="42.486620" lon="-6.312025">
        <ele>1325.009</ele>
        <time>2014-08-31T07:59:39Z</time>
      </trkpt>
      <trkpt lat="42.486677" lon="-6.312124">
        <ele>1326.019</ele>
        <time>2014-08-31T07:59:49Z</time>
      </trkpt>
      <trkpt lat="42.486738" lon="-6.312214">
        <ele>1328.007</ele>
        <time>2014-08-31T07:59:59Z</time>
      </trkpt>
      <trkpt lat="42.486806" lon="-6.312303">
        <ele>1329.088</ele>
        <time>2014-08-31T08:00:09Z</time>
      </trkpt>
      <trkpt lat="42.486881" lon="-6.312396">
        <ele>1330.057</ele>
        <time>2014-08-31T08:00:18Z</time>
      </trkpt>
      <trkpt lat="42.486952" lon="-6.312483">
        <ele>1330.039</ele>
        <time>2014-08-31T08:00:26Z</time>
      </trkpt>
      <trkpt lat="42.487025" lon="-6.312562">
        <ele>1331.054</ele>
        <time>2014-08-31T08:00:34Z</time>
      </trkpt>
      <trkpt lat="42.487076" lon="-6.312664">
        <ele>1333.014</ele>
        <time>2014-08-31T08:00:44Z</time>
      </trkpt>
      <trkpt lat="42.487127" lon="-6.312771">
        <ele>1333.020</ele>
        <time>2014-08-31T08:00:53Z</time>
      </trkpt>
      <trkpt lat="42.487204" lon="-6.312844">
        <ele>1334.087</ele>
        <time>2014-08-31T08:01:03Z</time>
      </trkpt>
      <trkpt lat="42.487286" lon="-6.312908">
        <ele>1335.048</ele>
        <time>2014-08-31T08:01:12Z</time>
      </trkpt>
      <trkpt lat="42.487359" lon="-6.312983">
        <ele>1335.061</ele>
        <time>2014-08-31T08:01:21Z</time>
      </trkpt>
      <trkpt lat="42.487439" lon="-6.313051">
        <ele>1336.017</ele>
        <time>2014-08-31T08:01:29Z</time>
      </trkpt>
      <trkpt lat="42.487523" lon="-6.313127">
        <ele>1336.007</ele>
        <time>2014-08-31T08:01:38Z</time>
      </trkpt>
      <trkpt lat="42.487595" lon="-6.313207">
        <ele>1337.021</ele>
        <time>2014-08-31T08:01:48Z</time>
      </trkpt>
      <trkpt lat="42.487679" lon="-6.313270">
        <ele>1337.070</ele>
        <time>2014-08-31T08:01:58Z</time>
      </trkpt>
      <trkpt lat="42.487749" lon="-6.313352">
        <ele>1337.042</ele>
        <time>2014-08-31T08:02:07Z</time>
      </trkpt>
      <trkpt lat="42.487815" lon="-6.313448">
        <ele>1338.087</ele>
        <time>2014-08-31T08:02:16Z</time>
      </trkpt>
      <trkpt lat="42.487886" lon="-6.313527">
        <ele>1339.077</ele>
        <time>2014-08-31T08:02:25Z</time>
      </trkpt>
      <trkpt lat="42.487969" lon="-6.313589">
        <ele>1340.063</ele>
        <time>2014-08-31T08:02:32Z</time>
      </trkpt>
      <trkpt lat="42.488052" lon="-6.313643">
        <ele>1341.050</ele>
        <time>2014-08-31T08:02:40Z</time>
      </trkpt>
      <trkpt lat="42.488128" lon="-6.313713">
        <ele>1341.066</ele>
        <time>2014-08-31T08:02:48Z</time>
      </trkpt>
      <trkpt lat="42.488196" lon="-6.313801">
        <ele>1341.029</ele>
        <time>2014-08-31T08:02:58Z</time>
      </trkpt>
      <trkpt lat="42.488253" lon="-6.313912">
        <ele>1342.021</ele>
        <time>2014-08-31T08:03:06Z</time>
      </trkpt>
      <trkpt lat="42.488335" lon="-6.313988">
        <ele>1343.007</ele>
        <time>2014-08-31T08:03:15Z</time>
      </trkpt>
      <trkpt lat="42.488361" lon="-6.314115">
        <ele>1343.033</ele>
        <time>2014-08-31T08:03:25Z</time>
      </trkpt>
      <trkpt lat="42.488403" lon="-6.314222">
        <ele>1344.092</ele>
        <time>2014-08-31T08:03:35Z</time>
      </trkpt>
      <trkpt lat="42.488422" lon="-6.314317">
        <ele>1344.014</ele>
        <time>2014-08-31T08:03:45Z</time>
      </trkpt>
      <trkpt lat="42.488396" lon="-6.314443">
        <ele>1344.079</ele>
        <time>2014-08-31T08:03:54Z</time>
      </trkpt>
      <trkpt lat="42.488353" lon="-6.314549">
        <ele>1344.089</ele>
        <time>2014-08-31T08:04:04Z</time>
      </trkpt>
      <trkpt lat="42.488303" lon="-6.314645">
        <ele>1344.055</ele>
        <time>2014-08-31T08:04:14Z</time>
      </trkpt>
      <trkpt lat="42.488247" lon="-6.314765">
        <ele>1345.022</ele>
        <time>2014-08-31T08:04:23Z</time>
      </trkpt>
      <trkpt lat="42.488200" lon="-6.314885">
        <ele>1346.024</ele>
        <time>2014-08-31T08:04:33Z</time>
      </trkpt>
      <trkpt lat="42.488180" lon="-6.315005">
        <ele>1346.004</ele>
        <time>2014-08-31T08:04:40Z</time>
      </trkpt>
      <trkpt lat="42.488186" lon="-6.315121">
        <ele>1347.014</ele>
        <time>2014-08-31T08:04:50Z</time>
      </trkpt>
      <trkpt lat="42.488193" lon="-6.315248">
        <ele>1347.007</ele>
        <time>2014-08-31T08:04:58Z</time>
      </trkpt>
      <trkpt lat="42.488196" lon="-6.315375">
        <ele>1347.039</ele>
        <time>2014-08-31T08:05:07Z</time>
      </trkpt>
      <trkpt lat="42.488167" lon="-6.315492">
        <ele>1348.038</ele>
        <time>2014-08-31T08:05:15Z</time>
      </trkpt>
      <trkpt lat="42.488141" lon="-6.315591">
        <ele>1348.020</ele>
        <time>2014-08-31T08:05:25Z</time>
      </trkpt>
      <trkpt lat="42.488128" lon="-6.315725">
        <ele>1348.025</ele>
        <time>2014-08-31T08:05:35Z</time>
      </trkpt>
      <trkpt lat="42.488148" lon="-6.315849">
        <ele>1348.015</ele>
        <time>2014-08-31T08:05:43Z</time>
      </trkpt>
      <trkpt lat="42.488164" lon="-6.315974">
        <ele>1348.091</ele>
        <time>2014-08-31T08:05:52Z</time>
      </trkpt>
      <trkpt lat="42.488177" lon="-6.316102">
        <ele>1349.028</ele>
        <time>2014-08-31T08:06:00Z</time>
      </trkpt>
      <trkpt lat="42.488196" lon="-6.316225">
        <ele>1349.012</ele>
        <time>2014-08-31T08:06:09Z</time>
      </trkpt>
      <trkpt lat="42.488223" lon="-6.316356">
        <ele>1350.032</ele>
        <time>2014-08-31T08:06:18Z</time>
      </trkpt>
      <trkpt lat="42.488267" lon="-6.316479">
        <ele>1350.005</ele>
        <time>2014-08-31T08:06:26Z</time>
      </trkpt>
      <trkpt lat="42.488286" lon="-6.316602">
        <ele>1351.007</ele>
        <time>2014-08-31T08:06:36Z</time>
      </trkpt>
      <trkpt lat="42.488319" lon="-6.316729">
        <ele>1352.018</ele>
        <time>2014-08-31T08:06:45Z</time>
      </trkpt>
      <trkpt lat="42.488334" lon="-6.316847">
        <ele>1352.077</ele>
        <time>2014-08-31T08:06:55Z</time>
      </trkpt>
      <trkpt lat="42.488375" lon="-6.316969">
        <ele>1352.069</ele>
        <time>2014-08-31T08:07:02Z</time>
      </trkpt>
      <trkpt lat="42.488416" lon="-6.317087">
        <ele>1352.094</ele>
        <time>2014-08-31T08:07:12Z</time>
      </trkpt>
      <trkpt lat="42.488452" lon="-6.317166">
        <ele>1353.074</ele>
        <time>2014-08-31T08:07:22Z</time>
      </trkpt>
      <trkpt lat="42.488473" lon="-6.317277">
        <ele>1354.060</ele>
        <time>2014-08-31T08:07:32Z</time>
      </trkpt>
      <trkpt lat="42.488526" lon="-6.317383">
        <ele>1354.017</ele>
        <time>2014-08-31T08:07:40Z</time>
      </trkpt>
      <trkpt lat="42.488591" lon="-6.317482">
        <ele>1355.078</ele>
        <time>2014-08-31T08:07:50Z</time>
      </trkpt>
      <trkpt lat="42.488643" lon="-6.317586">
        <ele>1356.033</ele>
        <time>2014-08-31T08:07:59Z</time>
      </trkpt>
      <trkpt lat="42.488683" lon="-6.317704">
        <ele>1357.026</ele>
        <time>2014-08-31T08:08:09Z</time>
      </trkpt>
      <trkpt lat="42.488754" lon="-6.317789">
        <ele>1358.007</ele>
        <time>2014-08-31T08:08:17Z</time>
      </trkpt>
      <trkpt lat="42.488813" lon="-6.317883">
        <ele>1359.084</ele>
        <time>2014-08-31T08:08:28Z</time>
      </trkpt>
      <trkpt lat="42.488879" lon="-6.317970">
        <ele>1360.043</ele>
        <time>2014-08-31T08:08:37Z</time>
      </trkpt>
      <trkpt lat="42.488942" lon="-6.318069">
        <ele>1361.045</ele>
        <time>2014-08-31T08:08:47Z</time>
      </trkpt>
      <trkpt lat="42.489028" lon="-6.318121">
        <ele>1362.010</ele>
        <time>2014-08-31T08:08:55Z</time>
      </trkpt>
      <trkpt lat="42.489110" lon="-6.318195">
        <ele>1363.060</ele>
        <time>2014-08-31T08:09:04Z</time>
      </trkpt>
      <trkpt lat="42.489177" lon="-6.318288">
        <ele>1364.086</ele>
        <time>2014-08-31T08:09:12Z</time>
      </trkpt>
      <trkpt lat="42.489253" lon="-6.318359">
        <ele>1364.093</ele>
        <time>2014-08-31T08:09:22Z</time>
      </trkpt>
      <trkpt lat="42.489332" lon="-6.318443">
        <ele>1365.047</ele>
        <time>2014-08-31T08:09:30Z</time>
      </trkpt>
      <trkpt lat="42.489401" lon="-6.318530">
        <ele>1366.029</ele>
        <time>2014-08-31T08:09:39Z</time>
      </trkpt>
      <trkpt lat="42.489486" lon="-6.318592">
        <ele>1366.021</ele>
        <time>2014-08-31T08:09:49Z</time>
      </trkpt>
      <trkpt lat="42.489566" lon="-6.318648">
        <ele>1367.007</ele>
        <time>2014-08-31T08:09:59Z</time>
      </trkpt>
      <trkpt lat="42.489648" lon="-6.318711">
        <ele>1367.091</ele>
        <time>2014-08-31T08:10:08Z</time>
      </trkpt>
      <trkpt lat="42.489732" lon="-6.318770">
        <ele>1367.080</ele>
        <time>2014-08-31T08:10:16Z</time>
      </trkpt>
      <trkpt lat="42.489794" lon="-6.318848">
        <ele>1367.012</ele>
        <time>2014-08-31T08:10:26Z</time>
      </trkpt>
      <trkpt lat="42.489853" lon="-6.318950">
        <ele>1366.027</ele>
        <time>2014-08-31T08:10:36Z</time>
      </trkpt>
      <trkpt lat="42.489902" lon="-6.319067">
        <ele>1366.077</ele>
        <time>2014-08-31T08:10:46Z</time>
      </trkpt>
      <trkpt lat="42.489928" lon="-6.319189">
        <ele>1366.053</ele>
        <time>2014-08-31T08:10:53Z</time>
      </trkpt>
      <trkpt lat="42.489949" lon="-6.319324">
        <ele>1366.020</ele>
        <time>2014-08-31T08:11:02Z</time>
      </trkpt>
      <trkpt lat="42.489972" lon="-6.319449">
        <ele>1368.043</ele>
        <time>2014-08-31T08:11:13Z</time>
      </trkpt>
      <trkpt lat="42.489971" lon="-6.319559">
        <ele>1368.064</ele>
        <time>2014-08-31T08:11:23Z</time>
      </trkpt>
      <trkpt lat="42.489969" lon="-6.319653">
        <ele>1367.010</ele>
        <time>2014-08-31T08:11:33Z</time>
      </trkpt>
      <trkpt lat="42.489930" lon="-6.319767">
        <ele>1366.007</ele>
        <time>2014-08-31T08:11:40Z</time>
      </trkpt>
      <trkpt lat="42.489889" lon="-6.319885">
        <ele>1367.031</ele>
        <time>2014-08-31T08:11:49Z</time>
      </trkpt>
      <trkpt lat="42.489861" lon="-6.320004">
        <ele>1367.060</ele>
        <time>2014-08-31T08:11:59Z</time>
      </trkpt>
      <trkpt lat="42.489801" lon="-6.320114">
        <ele>1368.042</ele>
        <time>2014-08-31T08:12:08Z</time>
      </trkpt>
      <trkpt lat="42.489740" lon="-6.320224">
        <ele>1369.077</ele>
        <time>2014-08-31T08:12:14Z</time>
      </trkpt>
      <trkpt lat="42.489679" lon="-6.320313">
        <ele>1370.067</ele>
        <time>2014-08-31T08:12:21Z</time>
      </trkpt>
      <trkpt lat="42.489623" lon="-6.320422">
        <ele>1371.033</ele>
        <time>2014-08-31T08:12:31Z</time>
      </trkpt>
      <trkpt lat="42.489596" lon="-6.320546">
        <ele>1372.050</ele>
        <time>2014-08-31T08:12:39Z</time>
      </trkpt>
      <trkpt lat="42.489614" lon="-6.320683">
        <ele>1372.027</ele>
        <time>2014-08-31T08:12:48Z</time>
      </trkpt>
      <trkpt lat="42.489596" lon="-6.320807">
        <ele>1373.068</ele>
        <time>2014-08-31T08:12:54Z</time>
      </trkpt>
      <trkpt lat="42.489601" lon="-6.320930">
        <ele>1373.014</ele>
        <time>2014-08-31T08:13:03Z</time>
      </trkpt>
      <trkpt lat="42.489599" lon="-6.321068">
        <ele>1374.007</ele>
        <time>2014-08-31T08:13:13Z</time>
      </trkpt>
      <trkpt lat="42.489659" lon="-6.321166">
        <ele>1376.079</ele>
        <time>2014-08-31T08:13:23Z</time>
      </trkpt>
      <trkpt lat="42.489695" lon="-6.321256">
        <ele>1378.028</ele>
        <time>2014-08-31T08:13:33Z</time>
      </trkpt>
      <trkpt lat="42.489731" lon="-6.321368">
        <ele>1378.010</ele>
        <time>2014-08-31T08:13:43Z</time>
      </trkpt>
      <trkpt lat="42.489794" lon="-6.321472">
        <ele>1379.095</ele>
        <time>2014-08-31T08:13:51Z</time>
      </trkpt>
      <trkpt lat="42.489861" lon="-6.321557">
        <ele>1380.055</ele>
        <time>2014-08-31T08:13:58Z</time>
      </trkpt>
      <trkpt lat="42.489889" lon="-6.321652">
        <ele>1382.021</ele>
        <time>2014-08-31T08:14:08Z</time>
      </trkpt>
      <trkpt lat="42.489927" lon="-6.321757">
        <ele>1384.018</ele>
        <time>2014-08-31T08:14:19Z</time>
      </trkpt>
      <trkpt lat="42.489983" lon="-6.321861">
        <ele>1385.079</ele>
        <time>2014-08-31T08:14:28Z</time>
      </trkpt>
      <trkpt lat="42.490017" lon="-6.321948">
        <ele>1386.005</ele>
        <time>2014-08-31T08:14:38Z</time>
      </trkpt>
      <trkpt lat="42.490088" lon="-6.322038">
        <ele>1387.025</ele>
        <time>2014-08-31T08:14:47Z</time>
      </trkpt>
      <trkpt lat="42.490141" lon="-6.322138">
        <ele>1388.007</ele>
        <time>2014-08-31T08:14:57Z</time>
      </trkpt>
      <trkpt lat="42.490199" lon="-6.322235">
        <ele>1389.034</ele>
        <time>2014-08-31T08:15:07Z</time>
      </trkpt>
      <trkpt lat="42.490251" lon="-6.322337">
        <ele>1390.023</ele>
        <time>2014-08-31T08:15:15Z</time>
      </trkpt>
      <trkpt lat="42.490276" lon="-6.322391">
        <ele>1390.065</ele>
        <time>2014-08-31T08:15:25Z</time>
      </trkpt>
      <trkpt lat="42.490350" lon="-6.322468">
        <ele>1390.020</ele>
        <time>2014-08-31T08:15:35Z</time>
      </trkpt>
      <trkpt lat="42.490433" lon="-6.322520">
        <ele>1391.050</ele>
        <time>2014-08-31T08:15:42Z</time>
      </trkpt>
      <trkpt lat="42.490527" lon="-6.322591">
        <ele>1393.016</ele>
        <time>2014-08-31T08:15:50Z</time>
      </trkpt>
      <trkpt lat="42.490596" lon="-6.322675">
        <ele>1394.033</ele>
        <time>2014-08-31T08:16:00Z</time>
      </trkpt>
      <trkpt lat="42.490663" lon="-6.322761">
        <ele>1395.054</ele>
        <time>2014-08-31T08:16:10Z</time>
      </trkpt>
      <trkpt lat="42.490723" lon="-6.322825">
        <ele>1397.056</ele>
        <time>2014-08-31T08:16:20Z</time>
      </trkpt>
      <trkpt lat="42.490793" lon="-6.322881">
        <ele>1398.011</ele>
        <time>2014-08-31T08:16:30Z</time>
      </trkpt>
      <trkpt lat="42.490879" lon="-6.322949">
        <ele>1398.007</ele>
        <time>2014-08-31T08:16:37Z</time>
      </trkpt>
      <trkpt lat="42.490966" lon="-6.323007">
        <ele>1400.082</ele>
        <time>2014-08-31T08:16:44Z</time>
      </trkpt>
      <trkpt lat="42.491041" lon="-6.323087">
        <ele>1401.011</ele>
        <time>2014-08-31T08:16:52Z</time>
      </trkpt>
      <trkpt lat="42.491106" lon="-6.323200">
        <ele>1402.083</ele>
        <time>2014-08-31T08:17:02Z</time>
      </trkpt>
      <trkpt lat="42.491154" lon="-6.323313">
        <ele>1403.068</ele>
        <time>2014-08-31T08:17:11Z</time>
      </trkpt>
      <trkpt lat="42.491223" lon="-6.323388">
        <ele>1404.068</ele>
        <time>2014-08-31T08:17:21Z</time>
      </trkpt>
      <trkpt lat="42.491270" lon="-6.323495">
        <ele>1404.024</ele>
        <time>2014-08-31T08:17:29Z</time>
      </trkpt>
      <trkpt lat="42.491328" lon="-6.323602">
        <ele>1404.051</ele>
        <time>2014-08-31T08:17:39Z</time>
      </trkpt>
      <trkpt lat="42.491374" lon="-6.323708">
        <ele>1405.072</ele>
        <time>2014-08-31T08:17:48Z</time>
      </trkpt>
      <trkpt lat="42.491414" lon="-6.323833">
        <ele>1405.013</ele>
        <time>2014-08-31T08:17:56Z</time>
      </trkpt>
      <trkpt lat="42.491457" lon="-6.323945">
        <ele>1405.014</ele>
        <time>2014-08-31T08:18:05Z</time>
      </trkpt>
      <trkpt lat="42.491482" lon="-6.324078">
        <ele>1405.007</ele>
        <time>2014-08-31T08:18:13Z</time>
      </trkpt>
      <trkpt lat="42.491511" lon="-6.324195">
        <ele>1406.034</ele>
        <time>2014-08-31T08:18:21Z</time>
      </trkpt>
      <trkpt lat="42.491513" lon="-6.324320">
        <ele>1406.023</ele>
        <time>2014-08-31T08:18:30Z</time>
      </trkpt>
      <trkpt lat="42.491518" lon="-6.324446">
        <ele>1406.095</ele>
        <time>2014-08-31T08:18:39Z</time>
      </trkpt>
      <trkpt lat="42.491524" lon="-6.324568">
        <ele>1406.090</ele>
        <time>2014-08-31T08:18:46Z</time>
      </trkpt>
      <trkpt lat="42.491552" lon="-6.324690">
        <ele>1407.060</ele>
        <time>2014-08-31T08:18:55Z</time>
      </trkpt>
      <trkpt lat="42.491552" lon="-6.324828">
        <ele>1407.076</ele>
        <time>2014-08-31T08:19:03Z</time>
      </trkpt>
      <trkpt lat="42.491574" lon="-6.324957">
        <ele>1407.093</ele>
        <time>2014-08-31T08:19:10Z</time>
      </trkpt>
      <trkpt lat="42.491574" lon="-6.325093">
        <ele>1407.085</ele>
        <time>2014-08-31T08:19:19Z</time>
      </trkpt>
      <trkpt lat="42.491565" lon="-6.325219">
        <ele>1407.089</ele>
        <time>2014-08-31T08:19:26Z</time>
      </trkpt>
      <trkpt lat="42.491558" lon="-6.325353">
        <ele>1407.017</ele>
        <time>2014-08-31T08:19:33Z</time>
      </trkpt>
      <trkpt lat="42.491544" lon="-6.325490">
        <ele>1408.007</ele>
        <time>2014-08-31T08:19:42Z</time>
      </trkpt>
      <trkpt lat="42.491549" lon="-6.325616">
        <ele>1407.045</ele>
        <time>2014-08-31T08:19:50Z</time>
      </trkpt>
      <trkpt lat="42.491545" lon="-6.325743">
        <ele>1407.054</ele>
        <time>2014-08-31T08:19:57Z</time>
      </trkpt>
      <trkpt lat="42.491556" lon="-6.325874">
        <ele>1407.056</ele>
        <time>2014-08-31T08:20:05Z</time>
      </trkpt>
      <trkpt lat="42.491553" lon="-6.326001">
        <ele>1407.081</ele>
        <time>2014-08-31T08:20:14Z</time>
      </trkpt>
      <trkpt lat="42.491556" lon="-6.326129">
        <ele>1406.021</ele>
        <time>2014-08-31T08:20:21Z</time>
      </trkpt>
      <trkpt lat="42.491552" lon="-6.326256">
        <ele>1406.057</ele>
        <time>2014-08-31T08:20:29Z</time>
      </trkpt>
      <trkpt lat="42.491540" lon="-6.326380">
        <ele>1406.084</ele>
        <time>2014-08-31T08:20:38Z</time>
      </trkpt>
      <trkpt lat="42.491555" lon="-6.326505">
        <ele>1406.021</ele>
        <time>2014-08-31T08:20:45Z</time>
      </trkpt>
      <trkpt lat="42.491565" lon="-6.326622">
        <ele>1406.041</ele>
        <time>2014-08-31T08:20:55Z</time>
      </trkpt>
      <trkpt lat="42.491566" lon="-6.326757">
        <ele>1406.005</ele>
        <time>2014-08-31T08:21:03Z</time>
      </trkpt>
      <trkpt lat="42.491558" lon="-6.326879">
        <ele>1407.007</ele>
        <time>2014-08-31T08:21:12Z</time>
      </trkpt>
      <trkpt lat="42.491556" lon="-6.327002">
        <ele>1408.079</ele>
        <time>2014-08-31T08:21:21Z</time>
      </trkpt>
      <trkpt lat="42.491512" lon="-6.327110">
        <ele>1408.028</ele>
        <time>2014-08-31T08:21:31Z</time>
      </trkpt>
      <trkpt lat="42.491472" lon="-6.327199">
        <ele>1409.010</ele>
        <time>2014-08-31T08:21:41Z</time>
      </trkpt>
      <trkpt lat="42.491448" lon="-6.327252">
        <ele>1409.075</ele>
        <time>2014-08-31T08:21:51Z</time>
      </trkpt>
      <trkpt lat="42.491414" lon="-6.327367">
        <ele>1409.035</ele>
        <time>2014-08-31T08:21:58Z</time>
      </trkpt>
      <trkpt lat="42.491344" lon="-6.327447">
        <ele>1410.021</ele>
        <time>2014-08-31T08:22:07Z</time>
      </trkpt>
      <trkpt lat="42.491296" lon="-6.327551">
        <ele>1410.018</ele>
        <time>2014-08-31T08:22:16Z</time>
      </trkpt>
      <trkpt lat="42.491237" lon="-6.327655">
        <ele>1411.047</ele>
        <time>2014-08-31T08:22:26Z</time>
      </trkpt>
      <trkpt lat="42.491171" lon="-6.327751">
        <ele>1411.029</ele>
        <time>2014-08-31T08:22:34Z</time>
      </trkpt>
      <trkpt lat="42.491107" lon="-6.327825">
        <ele>1411.021</ele>
        <time>2014-08-31T08:22:44Z</time>
      </trkpt>
      <trkpt lat="42.491039" lon="-6.327881">
        <ele>1411.007</ele>
        <time>2014-08-31T08:22:54Z</time>
      </trkpt>
      <trkpt lat="42.490965" lon="-6.327943">
        <ele>1412.041</ele>
        <time>2014-08-31T08:23:04Z</time>
      </trkpt>
      <trkpt lat="42.490886" lon="-6.327991">
        <ele>1413.040</ele>
        <time>2014-08-31T08:23:14Z</time>
      </trkpt>
      <trkpt lat="42.490796" lon="-6.328046">
        <ele>1414.092</ele>
        <time>2014-08-31T08:23:24Z</time>
      </trkpt>
      <trkpt lat="42.490708" lon="-6.328091">
        <ele>1415.047</ele>
        <time>2014-08-31T08:23:33Z</time>
      </trkpt>
      <trkpt lat="42.490659" lon="-6.328105">
        <ele>1415.077</ele>
        <time>2014-08-31T08:23:44Z</time>
      </trkpt>
      <trkpt lat="42.490614" lon="-6.328155">
        <ele>1417.033</ele>
        <time>2014-08-31T08:23:54Z</time>
      </trkpt>
      <trkpt lat="42.490554" lon="-6.328178">
        <ele>1418.070</ele>
        <time>2014-08-31T08:24:04Z</time>
      </trkpt>
      <trkpt lat="42.490461" lon="-6.328212">
        <ele>1419.024</ele>
        <time>2014-08-31T08:24:13Z</time>
      </trkpt>
      <trkpt lat="42.490381" lon="-6.328273">
        <ele>1420.004</ele>
        <time>2014-08-31T08:24:23Z</time>
      </trkpt>
      <trkpt lat="42.490308" lon="-6.328357">
        <ele>1422.014</ele>
        <time>2014-08-31T08:24:31Z</time>
      </trkpt>
      <trkpt lat="42.490233" lon="-6.328426">
        <ele>1423.007</ele>
        <time>2014-08-31T08:24:39Z</time>
      </trkpt>
      <trkpt lat="42.490172" lon="-6.328502">
        <ele>1424.079</ele>
        <time>2014-08-31T08:24:49Z</time>
      </trkpt>
      <trkpt lat="42.490096" lon="-6.328586">
        <ele>1425.068</ele>
        <time>2014-08-31T08:24:59Z</time>
      </trkpt>
      <trkpt lat="42.490047" lon="-6.328698">
        <ele>1426.070</ele>
        <time>2014-08-31T08:25:06Z</time>
      </trkpt>
      <trkpt lat="42.490002" lon="-6.328813">
        <ele>1427.095</ele>
        <time>2014-08-31T08:25:16Z</time>
      </trkpt>
      <trkpt lat="42.489957" lon="-6.328928">
        <ele>1427.055</ele>
        <time>2014-08-31T08:25:25Z</time>
      </trkpt>
      <trkpt lat="42.489918" lon="-6.329039">
        <ele>1428.071</ele>
        <time>2014-08-31T08:25:33Z</time>
      </trkpt>
      <trkpt lat="42.489893" lon="-6.329164">
        <ele>1428.088</ele>
        <time>2014-08-31T08:25:42Z</time>
      </trkpt>
      <trkpt lat="42.489867" lon="-6.329283">
        <ele>1429.071</ele>
        <time>2014-08-31T08:25:51Z</time>
      </trkpt>
      <trkpt lat="42.489830" lon="-6.329398">
        <ele>1430.041</ele>
        <time>2014-08-31T08:26:01Z</time>
      </trkpt>
      <trkpt lat="42.489803" lon="-6.329517">
        <ele>1431.015</ele>
        <time>2014-08-31T08:26:11Z</time>
      </trkpt>
      <trkpt lat="42.489784" lon="-6.329645">
        <ele>1432.007</ele>
        <time>2014-08-31T08:26:21Z</time>
      </trkpt>
      <trkpt lat="42.489779" lon="-6.329771">
        <ele>1432.014</ele>
        <time>2014-08-31T08:26:30Z</time>
      </trkpt>
      <trkpt lat="42.489759" lon="-6.329893">
        <ele>1433.063</ele>
        <time>2014-08-31T08:26:41Z</time>
      </trkpt>
      <trkpt lat="42.489738" lon="-6.330018">
        <ele>1434.095</ele>
        <time>2014-08-31T08:26:49Z</time>
      </trkpt>
      <trkpt lat="42.489719" lon="-6.330128">
        <ele>1435.010</ele>
        <time>2014-08-31T08:26:59Z</time>
      </trkpt>
      <trkpt lat="42.489684" lon="-6.330253">
        <ele>1436.040</ele>
        <time>2014-08-31T08:27:09Z</time>
      </trkpt>
      <trkpt lat="42.489669" lon="-6.330388">
        <ele>1437.026</ele>
        <time>2014-08-31T08:27:19Z</time>
      </trkpt>
      <trkpt lat="42.489657" lon="-6.330522">
        <ele>1437.073</ele>
        <time>2014-08-31T08:27:28Z</time>
      </trkpt>
      <trkpt lat="42.489689" lon="-6.330641">
        <ele>1438.067</ele>
        <time>2014-08-31T08:27:38Z</time>
      </trkpt>
      <trkpt lat="42.489768" lon="-6.330727">
        <ele>1439.081</ele>
        <time>2014-08-31T08:27:47Z</time>
      </trkpt>
      <trkpt lat="42.489833" lon="-6.330823">
        <ele>1439.019</ele>
        <time>2014-08-31T08:27:55Z</time>
      </trkpt>
      <trkpt lat="42.489893" lon="-6.330914">
        <ele>1441.007</ele>
        <time>2014-08-31T08:28:03Z</time>
      </trkpt>
      <trkpt lat="42.489927" lon="-6.331014">
        <ele>1442.063</ele>
        <time>2014-08-31T08:28:13Z</time>
      </trkpt>
      <trkpt lat="42.489950" lon="-6.331092">
        <ele>1443.082</ele>
        <time>2014-08-31T08:28:23Z</time>
      </trkpt>
      <trkpt lat="42.490016" lon="-6.331194">
        <ele>1443.014</ele>
        <time>2014-08-31T08:28:32Z</time>
      </trkpt>
      <trkpt lat="42.490072" lon="-6.331297">
        <ele>1444.079</ele>
        <time>2014-08-31T08:28:40Z</time>
      </trkpt>
      <trkpt lat="42.490123" lon="-6.331414">
        <ele>1444.099</ele>
        <time>2014-08-31T08:28:49Z</time>
      </trkpt>
      <trkpt lat="42.490172" lon="-6.331516">
        <ele>1445.075</ele>
        <time>2014-08-31T08:28:59Z</time>
      </trkpt>
      <trkpt lat="42.490226" lon="-6.331620">
        <ele>1446.082</ele>
        <time>2014-08-31T08:29:09Z</time>
      </trkpt>
      <trkpt lat="42.490269" lon="-6.331714">
        <ele>1447.012</ele>
        <time>2014-08-31T08:29:19Z</time>
      </trkpt>
      <trkpt lat="42.490321" lon="-6.331825">
        <ele>1448.032</ele>
        <time>2014-08-31T08:29:29Z</time>
      </trkpt>
      <trkpt lat="42.490370" lon="-6.331931">
        <ele>1448.005</ele>
        <time>2014-08-31T08:29:39Z</time>
      </trkpt>
      <trkpt lat="42.490424" lon="-6.332038">
        <ele>1448.007</ele>
        <time>2014-08-31T08:29:48Z</time>
      </trkpt>
      <trkpt lat="42.490476" lon="-6.332149">
        <ele>1449.048</ele>
        <time>2014-08-31T08:29:58Z</time>
      </trkpt>
      <trkpt lat="42.490543" lon="-6.332256">
        <ele>1449.027</ele>
        <time>2014-08-31T08:30:07Z</time>
      </trkpt>
      <trkpt lat="42.490606" lon="-6.332350">
        <ele>1449.059</ele>
        <time>2014-08-31T08:30:14Z</time>
      </trkpt>
      <trkpt lat="42.490660" lon="-6.332453">
        <ele>1449.064</ele>
        <time>2014-08-31T08:30:22Z</time>
      </trkpt>
      <trkpt lat="42.490720" lon="-6.332543">
        <ele>1449.024</ele>
        <time>2014-08-31T08:30:32Z</time>
      </trkpt>
      <trkpt lat="42.490778" lon="-6.332651">
        <ele>1449.080</ele>
        <time>2014-08-31T08:30:40Z</time>
      </trkpt>
      <trkpt lat="42.490842" lon="-6.332755">
        <ele>1449.057</ele>
        <time>2014-08-31T08:30:48Z</time>
      </trkpt>
      <trkpt lat="42.490921" lon="-6.332833">
        <ele>1449.055</ele>
        <time>2014-08-31T08:30:54Z</time>
      </trkpt>
      <trkpt lat="42.490985" lon="-6.332930">
        <ele>1450.007</ele>
        <time>2014-08-31T08:31:01Z</time>
      </trkpt>
      <trkpt lat="42.491041" lon="-6.333036">
        <ele>1450.017</ele>
        <time>2014-08-31T08:31:09Z</time>
      </trkpt>
      <trkpt lat="42.491090" lon="-6.333147">
        <ele>1451.007</ele>
        <time>2014-08-31T08:31:18Z</time>
      </trkpt>
      <trkpt lat="42.491142" lon="-6.333255">
        <ele>1451.052</ele>
        <time>2014-08-31T08:31:26Z</time>
      </trkpt>
      <trkpt lat="42.491186" lon="-6.333376">
        <ele>1451.071</ele>
        <time>2014-08-31T08:31:34Z</time>
      </trkpt>
      <trkpt lat="42.491234" lon="-6.333486">
        <ele>1451.023</ele>
        <time>2014-08-31T08:31:43Z</time>
      </trkpt>
      <trkpt lat="42.491284" lon="-6.333596">
        <ele>1452.068</ele>
        <time>2014-08-31T08:31:51Z</time>
      </trkpt>
      <trkpt lat="42.491323" lon="-6.333714">
        <ele>1452.038</ele>
        <time>2014-08-31T08:31:59Z</time>
      </trkpt>
      <trkpt lat="42.491365" lon="-6.333832">
        <ele>1453.074</ele>
        <time>2014-08-31T08:32:07Z</time>
      </trkpt>
      <trkpt lat="42.491414" lon="-6.333951">
        <ele>1453.051</ele>
        <time>2014-08-31T08:32:15Z</time>
      </trkpt>
      <trkpt lat="42.491468" lon="-6.334062">
        <ele>1453.096</ele>
        <time>2014-08-31T08:32:23Z</time>
      </trkpt>
      <trkpt lat="42.491503" lon="-6.334177">
        <ele>1452.031</ele>
        <time>2014-08-31T08:32:31Z</time>
      </trkpt>
      <trkpt lat="42.491540" lon="-6.334304">
        <ele>1452.024</ele>
        <time>2014-08-31T08:32:39Z</time>
      </trkpt>
      <trkpt lat="42.491587" lon="-6.334418">
        <ele>1452.007</ele>
        <time>2014-08-31T08:32:49Z</time>
      </trkpt>
      <trkpt lat="42.491606" lon="-6.334542">
        <ele>1452.016</ele>
        <time>2014-08-31T08:32:58Z</time>
      </trkpt>
      <trkpt lat="42.491610" lon="-6.334675">
        <ele>1452.075</ele>
        <time>2014-08-31T08:33:06Z</time>
      </trkpt>
      <trkpt lat="42.491616" lon="-6.334805">
        <ele>1453.017</ele>
        <time>2014-08-31T08:33:15Z</time>
      </trkpt>
      <trkpt lat="42.491612" lon="-6.334939">
        <ele>1453.022</ele>
        <time>2014-08-31T08:33:24Z</time>
      </trkpt>
      <trkpt lat="42.491602" lon="-6.335076">
        <ele>1453.032</ele>
        <time>2014-08-31T08:33:34Z</time>
      </trkpt>
      <trkpt lat="42.491603" lon="-6.335202">
        <ele>1453.038</ele>
        <time>2014-08-31T08:33:43Z</time>
      </trkpt>
      <trkpt lat="42.491588" lon="-6.335299">
        <ele>1453.055</ele>
        <time>2014-08-31T08:33:53Z</time>
      </trkpt>
      <trkpt lat="42.491609" lon="-6.335376">
        <ele>1453.036</ele>
        <time>2014-08-31T08:34:03Z</time>
      </trkpt>
      <trkpt lat="42.491617" lon="-6.335496">
        <ele>1453.017</ele>
        <time>2014-08-31T08:34:13Z</time>
      </trkpt>
      <trkpt lat="42.491616" lon="-6.335617">
        <ele>1453.018</ele>
        <time>2014-08-31T08:34:23Z</time>
      </trkpt>
      <trkpt lat="42.491608" lon="-6.335721">
        <ele>1453.007</ele>
        <time>2014-08-31T08:34:33Z</time>
      </trkpt>
      <trkpt lat="42.491612" lon="-6.335833">
        <ele>1453.010</ele>
        <time>2014-08-31T08:34:43Z</time>
      </trkpt>
      <trkpt lat="42.491578" lon="-6.335957">
        <ele>1454.049</ele>
        <time>2014-08-31T08:34:53Z</time>
      </trkpt>
      <trkpt lat="42.491554" lon="-6.336052">
        <ele>1455.031</ele>
        <time>2014-08-31T08:35:03Z</time>
      </trkpt>
      <trkpt lat="42.491523" lon="-6.336169">
        <ele>1456.066</ele>
        <time>2014-08-31T08:35:13Z</time>
      </trkpt>
      <trkpt lat="42.491485" lon="-6.336283">
        <ele>1456.056</ele>
        <time>2014-08-31T08:35:21Z</time>
      </trkpt>
      <trkpt lat="42.491466" lon="-6.336404">
        <ele>1457.042</ele>
        <time>2014-08-31T08:35:31Z</time>
      </trkpt>
      <trkpt lat="42.491465" lon="-6.336511">
        <ele>1458.049</ele>
        <time>2014-08-31T08:35:41Z</time>
      </trkpt>
      <trkpt lat="42.491444" lon="-6.336635">
        <ele>1458.025</ele>
        <time>2014-08-31T08:35:51Z</time>
      </trkpt>
      <trkpt lat="42.491436" lon="-6.336760">
        <ele>1459.026</ele>
        <time>2014-08-31T08:36:00Z</time>
      </trkpt>
      <trkpt lat="42.491386" lon="-6.336870">
        <ele>1460.008</ele>
        <time>2014-08-31T08:36:10Z</time>
      </trkpt>
      <trkpt lat="42.491380" lon="-6.337008">
        <ele>1461.007</ele>
        <time>2014-08-31T08:36:19Z</time>
      </trkpt>
      <trkpt lat="42.491356" lon="-6.337129">
        <ele>1461.049</ele>
        <time>2014-08-31T08:36:29Z</time>
      </trkpt>
      <trkpt lat="42.491311" lon="-6.337241">
        <ele>1462.088</ele>
        <time>2014-08-31T08:36:37Z</time>
      </trkpt>
      <trkpt lat="42.491273" lon="-6.337352">
        <ele>1463.080</ele>
        <time>2014-08-31T08:36:46Z</time>
      </trkpt>
      <trkpt lat="42.491223" lon="-6.337467">
        <ele>1463.015</ele>
        <time>2014-08-31T08:36:56Z</time>
      </trkpt>
      <trkpt lat="42.491181" lon="-6.337576">
        <ele>1464.075</ele>
        <time>2014-08-31T08:37:02Z</time>
      </trkpt>
      <trkpt lat="42.491145" lon="-6.337689">
        <ele>1465.021</ele>
        <time>2014-08-31T08:37:10Z</time>
      </trkpt>
      <trkpt lat="42.491109" lon="-6.337813">
        <ele>1466.078</ele>
        <time>2014-08-31T08:37:18Z</time>
      </trkpt>
      <trkpt lat="42.491062" lon="-6.337928">
        <ele>1467.077</ele>
        <time>2014-08-31T08:37:28Z</time>
      </trkpt>
      <trkpt lat="42.491017" lon="-6.338043">
        <ele>1467.061</ele>
        <time>2014-08-31T08:37:38Z</time>
      </trkpt>
      <trkpt lat="42.490974" lon="-6.338157">
        <ele>1467.027</ele>
        <time>2014-08-31T08:37:46Z</time>
      </trkpt>
      <trkpt lat="42.490946" lon="-6.338286">
        <ele>1467.007</ele>
        <time>2014-08-31T08:37:55Z</time>
      </trkpt>
      <trkpt lat="42.490898" lon="-6.338403">
        <ele>1467.064</ele>
        <time>2014-08-31T08:38:03Z</time>
      </trkpt>
      <trkpt lat="42.490863" lon="-6.338526">
        <ele>1467.043</ele>
        <time>2014-08-31T08:38:12Z</time>
      </trkpt>
      <trkpt lat="42.490820" lon="-6.338642">
        <ele>1468.065</ele>
        <time>2014-08-31T08:38:21Z</time>
      </trkpt>
      <trkpt lat="42.490808" lon="-6.338773">
        <ele>1468.010</ele>
        <time>2014-08-31T08:38:29Z</time>
      </trkpt>
      <trkpt lat="42.490799" lon="-6.338905">
        <ele>1469.050</ele>
        <time>2014-08-31T08:38:37Z</time>
      </trkpt>
      <trkpt lat="42.490789" lon="-6.339030">
        <ele>1469.056</ele>
        <time>2014-08-31T08:38:45Z</time>
      </trkpt>
      <trkpt lat="42.490749" lon="-6.339152">
        <ele>1469.013</ele>
        <time>2014-08-31T08:38:54Z</time>
      </trkpt>
      <trkpt lat="42.490712" lon="-6.339278">
        <ele>1469.066</ele>
        <time>2014-08-31T08:39:03Z</time>
      </trkpt>
      <trkpt lat="42.490684" lon="-6.339392">
        <ele>1469.029</ele>
        <time>2014-08-31T08:39:13Z</time>
      </trkpt>
      <trkpt lat="42.490664" lon="-6.339520">
        <ele>1469.021</ele>
        <time>2014-08-31T08:39:22Z</time>
      </trkpt>
      <trkpt lat="42.490651" lon="-6.339640">
        <ele>1470.007</ele>
        <time>2014-08-31T08:39:31Z</time>
      </trkpt>
      <trkpt lat="42.490657" lon="-6.339771">
        <ele>1470.013</ele>
        <time>2014-08-31T08:39:38Z</time>
      </trkpt>
      <trkpt lat="42.490670" lon="-6.339901">
        <ele>1471.032</ele>
        <time>2014-08-31T08:39:48Z</time>
      </trkpt>
      <trkpt lat="42.490691" lon="-6.340026">
        <ele>1471.024</ele>
        <time>2014-08-31T08:39:57Z</time>
      </trkpt>
      <trkpt lat="42.490730" lon="-6.340139">
        <ele>1471.059</ele>
        <time>2014-08-31T08:40:06Z</time>
      </trkpt>
      <trkpt lat="42.490735" lon="-6.340275">
        <ele>1472.029</ele>
        <time>2014-08-31T08:40:14Z</time>
      </trkpt>
      <trkpt lat="42.490783" lon="-6.340394">
        <ele>1473.065</ele>
        <time>2014-08-31T08:40:21Z</time>
      </trkpt>
      <trkpt lat="42.490802" lon="-6.340525">
        <ele>1473.092</ele>
        <time>2014-08-31T08:40:30Z</time>
      </trkpt>
      <trkpt lat="42.490824" lon="-6.340643">
        <ele>1474.059</ele>
        <time>2014-08-31T08:40:38Z</time>
      </trkpt>
      <trkpt lat="42.490838" lon="-6.340772">
        <ele>1475.003</ele>
        <time>2014-08-31T08:40:45Z</time>
      </trkpt>
      <trkpt lat="42.490868" lon="-6.340893">
        <ele>1477.023</ele>
        <time>2014-08-31T08:40:55Z</time>
      </trkpt>
      <trkpt lat="42.490883" lon="-6.340959">
        <ele>1477.007</ele>
        <time>2014-08-31T08:41:06Z</time>
      </trkpt>
      <trkpt lat="42.490890" lon="-6.341093">
        <ele>1477.042</ele>
        <time>2014-08-31T08:41:13Z</time>
      </trkpt>
      <trkpt lat="42.490898" lon="-6.341178">
        <ele>1477.041</ele>
        <time>2014-08-31T08:41:23Z</time>
      </trkpt>
      <trkpt lat="42.490852" lon="-6.341172">
        <ele>1477.033</ele>
        <time>2014-08-31T08:41:56Z</time>
      </trkpt>
      <trkpt lat="42.490862" lon="-6.341143">
        <ele>1476.018</ele>
        <time>2014-08-31T08:42:37Z</time>
      </trkpt>
      <trkpt lat="42.490873" lon="-6.341208">
        <ele>1477.078</ele>
        <time>2014-08-31T08:43:01Z</time>
      </trkpt>
      <trkpt lat="42.490873" lon="-6.341342">
        <ele>1477.074</ele>
        <time>2014-08-31T08:43:10Z</time>
      </trkpt>
      <trkpt lat="42.490883" lon="-6.341467">
        <ele>1478.071</ele>
        <time>2014-08-31T08:43:19Z</time>
      </trkpt>
      <trkpt lat="42.490879" lon="-6.341605">
        <ele>1477.026</ele>
        <time>2014-08-31T08:43:27Z</time>
      </trkpt>
      <trkpt lat="42.490897" lon="-6.341726">
        <ele>1477.047</ele>
        <time>2014-08-31T08:43:36Z</time>
      </trkpt>
      <trkpt lat="42.490947" lon="-6.341818">
        <ele>1477.011</ele>
        <time>2014-08-31T08:43:46Z</time>
      </trkpt>
      <trkpt lat="42.490978" lon="-6.341936">
        <ele>1477.007</ele>
        <time>2014-08-31T08:43:56Z</time>
      </trkpt>
      <trkpt lat="42.491042" lon="-6.342040">
        <ele>1476.049</ele>
        <time>2014-08-31T08:44:06Z</time>
      </trkpt>
      <trkpt lat="42.491090" lon="-6.342148">
        <ele>1476.038</ele>
        <time>2014-08-31T08:44:16Z</time>
      </trkpt>
      <trkpt lat="42.491140" lon="-6.342256">
        <ele>1477.040</ele>
        <time>2014-08-31T08:44:26Z</time>
      </trkpt>
      <trkpt lat="42.491192" lon="-6.342361">
        <ele>1478.025</ele>
        <time>2014-08-31T08:44:34Z</time>
      </trkpt>
      <trkpt lat="42.491228" lon="-6.342485">
        <ele>1479.095</ele>
        <time>2014-08-31T08:44:43Z</time>
      </trkpt>
      <trkpt lat="42.491269" lon="-6.342579">
        <ele>1480.061</ele>
        <time>2014-08-31T08:44:53Z</time>
      </trkpt>
      <trkpt lat="42.491341" lon="-6.342675">
        <ele>1481.028</ele>
        <time>2014-08-31T08:45:03Z</time>
      </trkpt>
      <trkpt lat="42.491423" lon="-6.342733">
        <ele>1482.025</ele>
        <time>2014-08-31T08:45:13Z</time>
      </trkpt>
      <trkpt lat="42.491497" lon="-6.342811">
        <ele>1483.026</ele>
        <time>2014-08-31T08:45:23Z</time>
      </trkpt>
      <trkpt lat="42.491566" lon="-6.342904">
        <ele>1484.008</ele>
        <time>2014-08-31T08:45:32Z</time>
      </trkpt>
      <trkpt lat="42.491614" lon="-6.343015">
        <ele>1486.007</ele>
        <time>2014-08-31T08:45:42Z</time>
      </trkpt>
      <trkpt lat="42.491637" lon="-6.343135">
        <ele>1487.089</ele>
        <time>2014-08-31T08:45:51Z</time>
      </trkpt>
      <trkpt lat="42.491685" lon="-6.343221">
        <ele>1488.088</ele>
        <time>2014-08-31T08:46:01Z</time>
      </trkpt>
      <trkpt lat="42.491725" lon="-6.343340">
        <ele>1489.020</ele>
        <time>2014-08-31T08:46:11Z</time>
      </trkpt>
      <trkpt lat="42.491751" lon="-6.343450">
        <ele>1490.085</ele>
        <time>2014-08-31T08:46:21Z</time>
      </trkpt>
      <trkpt lat="42.491785" lon="-6.343566">
        <ele>1491.095</ele>
        <time>2014-08-31T08:46:31Z</time>
      </trkpt>
      <trkpt lat="42.491818" lon="-6.343688">
        <ele>1492.071</ele>
        <time>2014-08-31T08:46:41Z</time>
      </trkpt>
      <trkpt lat="42.491833" lon="-6.343746">
        <ele>1493.098</ele>
        <time>2014-08-31T08:46:53Z</time>
      </trkpt>
      <trkpt lat="42.491818" lon="-6.343838">
        <ele>1495.056</ele>
        <time>2014-08-31T08:47:03Z</time>
      </trkpt>
      <trkpt lat="42.491866" lon="-6.343980">
        <ele>1496.059</ele>
        <time>2014-08-31T08:47:10Z</time>
      </trkpt>
      <trkpt lat="42.491930" lon="-6.344070">
        <ele>1496.014</ele>
        <time>2014-08-31T08:47:16Z</time>
      </trkpt>
      <trkpt lat="42.492009" lon="-6.344048">
        <ele>1496.007</ele>
        <time>2014-08-31T08:47:26Z</time>
      </trkpt>
      <trkpt lat="42.492053" lon="-6.344031">
        <ele>1497.032</ele>
        <time>2014-08-31T08:47:38Z</time>
      </trkpt>
      <trkpt lat="42.492005" lon="-6.344039">
        <ele>1498.051</ele>
        <time>2014-08-31T08:47:53Z</time>
      </trkpt>
      <trkpt lat="42.491995" lon="-6.344145">
        <ele>1498.043</ele>
        <time>2014-08-31T08:48:03Z</time>
      </trkpt>
      <trkpt lat="42.492040" lon="-6.344260">
        <ele>1498.028</ele>
        <time>2014-08-31T08:48:13Z</time>
      </trkpt>
      <trkpt lat="42.492092" lon="-6.344361">
        <ele>1498.098</ele>
        <time>2014-08-31T08:48:22Z</time>
      </trkpt>
      <trkpt lat="42.492151" lon="-6.344467">
        <ele>1499.074</ele>
        <time>2014-08-31T08:48:32Z</time>
      </trkpt>
      <trkpt lat="42.492207" lon="-6.344583">
        <ele>1499.081</ele>
        <time>2014-08-31T08:48:39Z</time>
      </trkpt>
      <trkpt lat="42.492243" lon="-6.344699">
        <ele>1499.046</ele>
        <time>2014-08-31T08:48:49Z</time>
      </trkpt>
      <trkpt lat="42.492298" lon="-6.344806">
        <ele>1499.088</ele>
        <time>2014-08-31T08:48:57Z</time>
      </trkpt>
      <trkpt lat="42.492293" lon="-6.344872">
        <ele>1500.016</ele>
        <time>2014-08-31T08:49:08Z</time>
      </trkpt>
      <trkpt lat="42.492256" lon="-6.344991">
        <ele>1499.007</ele>
        <time>2014-08-31T08:49:14Z</time>
      </trkpt>
      <trkpt lat="42.492224" lon="-6.345109">
        <ele>1498.051</ele>
        <time>2014-08-31T08:49:22Z</time>
      </trkpt>
      <trkpt lat="42.492239" lon="-6.345006">
        <ele>1498.060</ele>
        <time>2014-08-31T08:49:32Z</time>
      </trkpt>
      <trkpt lat="42.492276" lon="-6.344900">
        <ele>1499.032</ele>
        <time>2014-08-31T08:49:42Z</time>
      </trkpt>
      <trkpt lat="42.492318" lon="-6.344929">
        <ele>1499.017</ele>
        <time>2014-08-31T08:50:18Z</time>
      </trkpt>
      <trkpt lat="42.492370" lon="-6.344966">
        <ele>1500.037</ele>
        <time>2014-08-31T08:50:44Z</time>
      </trkpt>
      <trkpt lat="42.492409" lon="-6.345056">
        <ele>1500.083</ele>
        <time>2014-08-31T08:50:54Z</time>
      </trkpt>
      <trkpt lat="42.492455" lon="-6.345166">
        <ele>1500.050</ele>
        <time>2014-08-31T08:51:04Z</time>
      </trkpt>
      <trkpt lat="42.492500" lon="-6.345279">
        <ele>1500.057</ele>
        <time>2014-08-31T08:51:11Z</time>
      </trkpt>
      <trkpt lat="42.492526" lon="-6.345397">
        <ele>1500.000</ele>
        <time>2014-08-31T08:51:18Z</time>
      </trkpt>
      <trkpt lat="42.492557" lon="-6.345515">
        <ele>1501.020</ele>
        <time>2014-08-31T08:51:26Z</time>
      </trkpt>
      <trkpt lat="42.492594" lon="-6.345634">
        <ele>1502.007</ele>
        <time>2014-08-31T08:51:34Z</time>
      </trkpt>
      <trkpt lat="42.492621" lon="-6.345758">
        <ele>1502.022</ele>
        <time>2014-08-31T08:51:41Z</time>
      </trkpt>
      <trkpt lat="42.492639" lon="-6.345881">
        <ele>1502.051</ele>
        <time>2014-08-31T08:51:48Z</time>
      </trkpt>
      <trkpt lat="42.492640" lon="-6.346005">
        <ele>1502.053</ele>
        <time>2014-08-31T08:51:56Z</time>
      </trkpt>
      <trkpt lat="42.492653" lon="-6.346137">
        <ele>1502.018</ele>
        <time>2014-08-31T08:52:05Z</time>
      </trkpt>
      <trkpt lat="42.492652" lon="-6.346261">
        <ele>1501.058</ele>
        <time>2014-08-31T08:52:13Z</time>
      </trkpt>
      <trkpt lat="42.492648" lon="-6.346383">
        <ele>1502.084</ele>
        <time>2014-08-31T08:52:20Z</time>
      </trkpt>
      <trkpt lat="42.492620" lon="-6.346505">
        <ele>1502.011</ele>
        <time>2014-08-31T08:52:27Z</time>
      </trkpt>
      <trkpt lat="42.492611" lon="-6.346632">
        <ele>1502.087</ele>
        <time>2014-08-31T08:52:36Z</time>
      </trkpt>
      <trkpt lat="42.492599" lon="-6.346766">
        <ele>1502.042</ele>
        <time>2014-08-31T08:52:45Z</time>
      </trkpt>
      <trkpt lat="42.492567" lon="-6.346883">
        <ele>1503.026</ele>
        <time>2014-08-31T08:52:53Z</time>
      </trkpt>
      <trkpt lat="42.492536" lon="-6.347015">
        <ele>1503.007</ele>
        <time>2014-08-31T08:53:01Z</time>
      </trkpt>
      <trkpt lat="42.492524" lon="-6.347137">
        <ele>1503.075</ele>
        <time>2014-08-31T08:53:09Z</time>
      </trkpt>
      <trkpt lat="42.492509" lon="-6.347269">
        <ele>1503.034</ele>
        <time>2014-08-31T08:53:18Z</time>
      </trkpt>
      <trkpt lat="42.492490" lon="-6.347421">
        <ele>1503.036</ele>
        <time>2014-08-31T08:53:26Z</time>
      </trkpt>
      <trkpt lat="42.492463" lon="-6.347554">
        <ele>1503.041</ele>
        <time>2014-08-31T08:53:36Z</time>
      </trkpt>
      <trkpt lat="42.492424" lon="-6.347680">
        <ele>1503.091</ele>
        <time>2014-08-31T08:53:44Z</time>
      </trkpt>
      <trkpt lat="42.492390" lon="-6.347797">
        <ele>1503.077</ele>
        <time>2014-08-31T08:53:53Z</time>
      </trkpt>
      <trkpt lat="42.492360" lon="-6.347916">
        <ele>1503.064</ele>
        <time>2014-08-31T08:54:02Z</time>
      </trkpt>
      <trkpt lat="42.492333" lon="-6.348044">
        <ele>1503.073</ele>
        <time>2014-08-31T08:54:10Z</time>
      </trkpt>
      <trkpt lat="42.492301" lon="-6.348159">
        <ele>1502.085</ele>
        <time>2014-08-31T08:54:17Z</time>
      </trkpt>
      <trkpt lat="42.492247" lon="-6.348279">
        <ele>1503.013</ele>
        <time>2014-08-31T08:54:27Z</time>
      </trkpt>
      <trkpt lat="42.492213" lon="-6.348400">
        <ele>1503.007</ele>
        <time>2014-08-31T08:54:34Z</time>
      </trkpt>
      <trkpt lat="42.492182" lon="-6.348521">
        <ele>1503.044</ele>
        <time>2014-08-31T08:54:43Z</time>
      </trkpt>
      <trkpt lat="42.492149" lon="-6.348643">
        <ele>1503.083</ele>
        <time>2014-08-31T08:54:54Z</time>
      </trkpt>
      <trkpt lat="42.492116" lon="-6.348759">
        <ele>1504.035</ele>
        <time>2014-08-31T08:55:02Z</time>
      </trkpt>
      <trkpt lat="42.492093" lon="-6.348882">
        <ele>1504.030</ele>
        <time>2014-08-31T08:55:11Z</time>
      </trkpt>
      <trkpt lat="42.492071" lon="-6.349004">
        <ele>1505.090</ele>
        <time>2014-08-31T08:55:18Z</time>
      </trkpt>
      <trkpt lat="42.492057" lon="-6.349117">
        <ele>1506.096</ele>
        <time>2014-08-31T08:55:28Z</time>
      </trkpt>
      <trkpt lat="42.492027" lon="-6.349239">
        <ele>1507.083</ele>
        <time>2014-08-31T08:55:37Z</time>
      </trkpt>
      <trkpt lat="42.491981" lon="-6.349356">
        <ele>1508.018</ele>
        <time>2014-08-31T08:55:46Z</time>
      </trkpt>
      <trkpt lat="42.491944" lon="-6.349482">
        <ele>1509.098</ele>
        <time>2014-08-31T08:55:54Z</time>
      </trkpt>
      <trkpt lat="42.491923" lon="-6.349593">
        <ele>1510.017</ele>
        <time>2014-08-31T08:56:04Z</time>
      </trkpt>
      <trkpt lat="42.491913" lon="-6.349718">
        <ele>1511.007</ele>
        <time>2014-08-31T08:56:14Z</time>
      </trkpt>
      <trkpt lat="42.491907" lon="-6.349841">
        <ele>1512.048</ele>
        <time>2014-08-31T08:56:21Z</time>
      </trkpt>
      <trkpt lat="42.491902" lon="-6.349971">
        <ele>1513.027</ele>
        <time>2014-08-31T08:56:29Z</time>
      </trkpt>
      <trkpt lat="42.491877" lon="-6.350105">
        <ele>1513.089</ele>
        <time>2014-08-31T08:56:39Z</time>
      </trkpt>
      <trkpt lat="42.491829" lon="-6.350213">
        <ele>1514.044</ele>
        <time>2014-08-31T08:56:46Z</time>
      </trkpt>
      <trkpt lat="42.491740" lon="-6.350280">
        <ele>1514.094</ele>
        <time>2014-08-31T08:56:54Z</time>
      </trkpt>
      <trkpt lat="42.491644" lon="-6.350311">
        <ele>1515.030</ele>
        <time>2014-08-31T08:57:04Z</time>
      </trkpt>
      <trkpt lat="42.491548" lon="-6.350303">
        <ele>1516.057</ele>
        <time>2014-08-31T08:57:13Z</time>
      </trkpt>
      <trkpt lat="42.491452" lon="-6.350296">
        <ele>1517.029</ele>
        <time>2014-08-31T08:57:20Z</time>
      </trkpt>
      <trkpt lat="42.491369" lon="-6.350243">
        <ele>1518.000</ele>
        <time>2014-08-31T08:57:28Z</time>
      </trkpt>
      <trkpt lat="42.491284" lon="-6.350185">
        <ele>1518.020</ele>
        <time>2014-08-31T08:57:37Z</time>
      </trkpt>
      <trkpt lat="42.491198" lon="-6.350155">
        <ele>1518.007</ele>
        <time>2014-08-31T08:57:47Z</time>
      </trkpt>
      <trkpt lat="42.491107" lon="-6.350152">
        <ele>1519.029</ele>
        <time>2014-08-31T08:57:57Z</time>
      </trkpt>
      <trkpt lat="42.491018" lon="-6.350192">
        <ele>1520.018</ele>
        <time>2014-08-31T08:58:07Z</time>
      </trkpt>
      <trkpt lat="42.490969" lon="-6.350181">
        <ele>1521.060</ele>
        <time>2014-08-31T08:58:23Z</time>
      </trkpt>
      <trkpt lat="42.490874" lon="-6.350188">
        <ele>1522.085</ele>
        <time>2014-08-31T08:58:31Z</time>
      </trkpt>
      <trkpt lat="42.490784" lon="-6.350195">
        <ele>1522.095</ele>
        <time>2014-08-31T08:58:40Z</time>
      </trkpt>
      <trkpt lat="42.490693" lon="-6.350219">
        <ele>1523.091</ele>
        <time>2014-08-31T08:58:49Z</time>
      </trkpt>
      <trkpt lat="42.490603" lon="-6.350237">
        <ele>1523.098</ele>
        <time>2014-08-31T08:58:57Z</time>
      </trkpt>
      <trkpt lat="42.490507" lon="-6.350274">
        <ele>1524.076</ele>
        <time>2014-08-31T08:59:06Z</time>
      </trkpt>
      <trkpt lat="42.490413" lon="-6.350304">
        <ele>1525.090</ele>
        <time>2014-08-31T08:59:16Z</time>
      </trkpt>
      <trkpt lat="42.490327" lon="-6.350366">
        <ele>1526.019</ele>
        <time>2014-08-31T08:59:24Z</time>
      </trkpt>
      <trkpt lat="42.490237" lon="-6.350416">
        <ele>1528.007</ele>
        <time>2014-08-31T08:59:33Z</time>
      </trkpt>
      <trkpt lat="42.490150" lon="-6.350472">
        <ele>1529.054</ele>
        <time>2014-08-31T08:59:43Z</time>
      </trkpt>
      <trkpt lat="42.490083" lon="-6.350522">
        <ele>1529.053</ele>
        <time>2014-08-31T08:59:53Z</time>
      </trkpt>
      <trkpt lat="42.490010" lon="-6.350604">
        <ele>1530.055</ele>
        <time>2014-08-31T09:00:01Z</time>
      </trkpt>
      <trkpt lat="42.489943" lon="-6.350706">
        <ele>1531.070</ele>
        <time>2014-08-31T09:00:10Z</time>
      </trkpt>
      <trkpt lat="42.489906" lon="-6.350799">
        <ele>1532.030</ele>
        <time>2014-08-31T09:00:20Z</time>
      </trkpt>
      <trkpt lat="42.489885" lon="-6.350865">
        <ele>1533.076</ele>
        <time>2014-08-31T09:00:31Z</time>
      </trkpt>
      <trkpt lat="42.489852" lon="-6.350982">
        <ele>1533.083</ele>
        <time>2014-08-31T09:00:39Z</time>
      </trkpt>
      <trkpt lat="42.489815" lon="-6.351096">
        <ele>1534.068</ele>
        <time>2014-08-31T09:00:47Z</time>
      </trkpt>
      <trkpt lat="42.489798" lon="-6.351232">
        <ele>1535.042</ele>
        <time>2014-08-31T09:00:57Z</time>
      </trkpt>
      <trkpt lat="42.489818" lon="-6.351363">
        <ele>1535.026</ele>
        <time>2014-08-31T09:01:05Z</time>
      </trkpt>
      <trkpt lat="42.489816" lon="-6.351495">
        <ele>1536.007</ele>
        <time>2014-08-31T09:01:13Z</time>
      </trkpt>
      <trkpt lat="42.489841" lon="-6.351620">
        <ele>1537.093</ele>
        <time>2014-08-31T09:01:22Z</time>
      </trkpt>
      <trkpt lat="42.489866" lon="-6.351735">
        <ele>1538.022</ele>
        <time>2014-08-31T09:01:33Z</time>
      </trkpt>
      <trkpt lat="42.489917" lon="-6.351838">
        <ele>1538.084</ele>
        <time>2014-08-31T09:01:42Z</time>
      </trkpt>
      <trkpt lat="42.489970" lon="-6.351941">
        <ele>1540.029</ele>
        <time>2014-08-31T09:01:51Z</time>
      </trkpt>
      <trkpt lat="42.490039" lon="-6.352033">
        <ele>1541.099</ele>
        <time>2014-08-31T09:01:59Z</time>
      </trkpt>
      <trkpt lat="42.490107" lon="-6.352115">
        <ele>1542.085</ele>
        <time>2014-08-31T09:02:05Z</time>
      </trkpt>
      <trkpt lat="42.490180" lon="-6.352188">
        <ele>1543.062</ele>
        <time>2014-08-31T09:02:15Z</time>
      </trkpt>
      <trkpt lat="42.490255" lon="-6.352261">
        <ele>1545.011</ele>
        <time>2014-08-31T09:02:23Z</time>
      </trkpt>
      <trkpt lat="42.490313" lon="-6.352365">
        <ele>1546.021</ele>
        <time>2014-08-31T09:02:32Z</time>
      </trkpt>
      <trkpt lat="42.490360" lon="-6.352470">
        <ele>1547.003</ele>
        <time>2014-08-31T09:02:41Z</time>
      </trkpt>
      <trkpt lat="42.490441" lon="-6.352541">
        <ele>1548.007</ele>
        <time>2014-08-31T09:02:50Z</time>
      </trkpt>
      <trkpt lat="42.490535" lon="-6.352581">
        <ele>1548.088</ele>
        <time>2014-08-31T09:02:58Z</time>
      </trkpt>
      <trkpt lat="42.490623" lon="-6.352626">
        <ele>1548.037</ele>
        <time>2014-08-31T09:03:04Z</time>
      </trkpt>
      <trkpt lat="42.490702" lon="-6.352688">
        <ele>1549.049</ele>
        <time>2014-08-31T09:03:11Z</time>
      </trkpt>
      <trkpt lat="42.490780" lon="-6.352766">
        <ele>1549.024</ele>
        <time>2014-08-31T09:03:21Z</time>
      </trkpt>
      <trkpt lat="42.490855" lon="-6.352849">
        <ele>1549.014</ele>
        <time>2014-08-31T09:03:30Z</time>
      </trkpt>
      <trkpt lat="42.490931" lon="-6.352920">
        <ele>1549.030</ele>
        <time>2014-08-31T09:03:39Z</time>
      </trkpt>
      <trkpt lat="42.491017" lon="-6.352980">
        <ele>1549.037</ele>
        <time>2014-08-31T09:03:47Z</time>
      </trkpt>
      <trkpt lat="42.491092" lon="-6.353058">
        <ele>1549.047</ele>
        <time>2014-08-31T09:03:55Z</time>
      </trkpt>
      <trkpt lat="42.491169" lon="-6.353136">
        <ele>1549.029</ele>
        <time>2014-08-31T09:04:04Z</time>
      </trkpt>
      <trkpt lat="42.491240" lon="-6.353227">
        <ele>1549.021</ele>
        <time>2014-08-31T09:04:12Z</time>
      </trkpt>
      <trkpt lat="42.491281" lon="-6.353339">
        <ele>1549.007</ele>
        <time>2014-08-31T09:04:19Z</time>
      </trkpt>
      <trkpt lat="42.491326" lon="-6.353449">
        <ele>1550.021</ele>
        <time>2014-08-31T09:04:26Z</time>
      </trkpt>
      <trkpt lat="42.491366" lon="-6.353579">
        <ele>1550.020</ele>
        <time>2014-08-31T09:04:35Z</time>
      </trkpt>
      <trkpt lat="42.491416" lon="-6.353698">
        <ele>1550.072</ele>
        <time>2014-08-31T09:04:44Z</time>
      </trkpt>
      <trkpt lat="42.491455" lon="-6.353779">
        <ele>1550.097</ele>
        <time>2014-08-31T09:04:54Z</time>
      </trkpt>
      <trkpt lat="42.491460" lon="-6.353718">
        <ele>1550.047</ele>
        <time>2014-08-31T09:05:15Z</time>
      </trkpt>
      <trkpt lat="42.491476" lon="-6.353745">
        <ele>1549.043</ele>
        <time>2014-08-31T09:05:57Z</time>
      </trkpt>
      <trkpt lat="42.491515" lon="-6.353855">
        <ele>1548.080</ele>
        <time>2014-08-31T09:06:05Z</time>
      </trkpt>
      <trkpt lat="42.491556" lon="-6.353966">
        <ele>1548.044</ele>
        <time>2014-08-31T09:06:14Z</time>
      </trkpt>
      <trkpt lat="42.491589" lon="-6.354031">
        <ele>1547.005</ele>
        <time>2014-08-31T09:06:40Z</time>
      </trkpt>
      <trkpt lat="42.491631" lon="-6.354155">
        <ele>1546.015</ele>
        <time>2014-08-31T09:06:46Z</time>
      </trkpt>
      <trkpt lat="42.491644" lon="-6.354281">
        <ele>1546.007</ele>
        <time>2014-08-31T09:06:53Z</time>
      </trkpt>
      <trkpt lat="42.491611" lon="-6.354396">
        <ele>1546.021</ele>
        <time>2014-08-31T09:07:01Z</time>
      </trkpt>
      <trkpt lat="42.491573" lon="-6.354509">
        <ele>1545.050</ele>
        <time>2014-08-31T09:07:08Z</time>
      </trkpt>
      <trkpt lat="42.491590" lon="-6.354631">
        <ele>1545.032</ele>
        <time>2014-08-31T09:07:16Z</time>
      </trkpt>
      <trkpt lat="42.491628" lon="-6.354745">
        <ele>1545.017</ele>
        <time>2014-08-31T09:07:26Z</time>
      </trkpt>
      <trkpt lat="42.491623" lon="-6.354872">
        <ele>1546.087</ele>
        <time>2014-08-31T09:07:35Z</time>
      </trkpt>
      <trkpt lat="42.491565" lon="-6.354950">
        <ele>1546.013</ele>
        <time>2014-08-31T09:07:45Z</time>
      </trkpt>
      <trkpt lat="42.491487" lon="-6.355022">
        <ele>1545.020</ele>
        <time>2014-08-31T09:07:54Z</time>
      </trkpt>
      <trkpt lat="42.491410" lon="-6.355096">
        <ele>1544.092</ele>
        <time>2014-08-31T09:08:03Z</time>
      </trkpt>
      <trkpt lat="42.491324" lon="-6.355164">
        <ele>1544.073</ele>
        <time>2014-08-31T09:08:11Z</time>
      </trkpt>
      <trkpt lat="42.491251" lon="-6.355225">
        <ele>1545.020</ele>
        <time>2014-08-31T09:08:21Z</time>
      </trkpt>
      <trkpt lat="42.491181" lon="-6.355317">
        <ele>1545.007</ele>
        <time>2014-08-31T09:08:29Z</time>
      </trkpt>
      <trkpt lat="42.491119" lon="-6.355412">
        <ele>1545.066</ele>
        <time>2014-08-31T09:08:37Z</time>
      </trkpt>
      <trkpt lat="42.491069" lon="-6.355515">
        <ele>1546.085</ele>
        <time>2014-08-31T09:08:46Z</time>
      </trkpt>
      <trkpt lat="42.491003" lon="-6.355612">
        <ele>1546.077</ele>
        <time>2014-08-31T09:08:54Z</time>
      </trkpt>
      <trkpt lat="42.490927" lon="-6.355704">
        <ele>1546.072</ele>
        <time>2014-08-31T09:09:03Z</time>
      </trkpt>
      <trkpt lat="42.490861" lon="-6.355794">
        <ele>1546.012</ele>
        <time>2014-08-31T09:09:10Z</time>
      </trkpt>
      <trkpt lat="42.490813" lon="-6.355908">
        <ele>1547.018</ele>
        <time>2014-08-31T09:09:18Z</time>
      </trkpt>
      <trkpt lat="42.490794" lon="-6.356035">
        <ele>1548.055</ele>
        <time>2014-08-31T09:09:27Z</time>
      </trkpt>
      <trkpt lat="42.490793" lon="-6.356164">
        <ele>1549.069</ele>
        <time>2014-08-31T09:09:37Z</time>
      </trkpt>
      <trkpt lat="42.490788" lon="-6.356292">
        <ele>1549.004</ele>
        <time>2014-08-31T09:09:44Z</time>
      </trkpt>
      <trkpt lat="42.490789" lon="-6.356420">
        <ele>1550.024</ele>
        <time>2014-08-31T09:09:53Z</time>
      </trkpt>
      <trkpt lat="42.490782" lon="-6.356549">
        <ele>1550.007</ele>
        <time>2014-08-31T09:10:02Z</time>
      </trkpt>
      <trkpt lat="42.490760" lon="-6.356669">
        <ele>1551.073</ele>
        <time>2014-08-31T09:10:10Z</time>
      </trkpt>
      <trkpt lat="42.490769" lon="-6.356796">
        <ele>1551.042</ele>
        <time>2014-08-31T09:10:18Z</time>
      </trkpt>
      <trkpt lat="42.490769" lon="-6.356932">
        <ele>1552.044</ele>
        <time>2014-08-31T09:10:26Z</time>
      </trkpt>
      <trkpt lat="42.490774" lon="-6.357066">
        <ele>1553.059</ele>
        <time>2014-08-31T09:10:34Z</time>
      </trkpt>
      <trkpt lat="42.490772" lon="-6.357183">
        <ele>1553.069</ele>
        <time>2014-08-31T09:10:44Z</time>
      </trkpt>
      <trkpt lat="42.490752" lon="-6.357317">
        <ele>1553.075</ele>
        <time>2014-08-31T09:10:53Z</time>
      </trkpt>
      <trkpt lat="42.490731" lon="-6.357440">
        <ele>1553.082</ele>
        <time>2014-08-31T09:10:58Z</time>
      </trkpt>
      <trkpt lat="42.490718" lon="-6.357572">
        <ele>1554.077</ele>
        <time>2014-08-31T09:11:07Z</time>
      </trkpt>
      <trkpt lat="42.490706" lon="-6.357702">
        <ele>1554.061</ele>
        <time>2014-08-31T09:11:16Z</time>
      </trkpt>
      <trkpt lat="42.490688" lon="-6.357824">
        <ele>1554.027</ele>
        <time>2014-08-31T09:11:23Z</time>
      </trkpt>
      <trkpt lat="42.490661" lon="-6.357945">
        <ele>1554.007</ele>
        <time>2014-08-31T09:11:31Z</time>
      </trkpt>
      <trkpt lat="42.490625" lon="-6.358066">
        <ele>1554.044</ele>
        <time>2014-08-31T09:11:40Z</time>
      </trkpt>
      <trkpt lat="42.490582" lon="-6.358174">
        <ele>1554.093</ele>
        <time>2014-08-31T09:11:48Z</time>
      </trkpt>
      <trkpt lat="42.490541" lon="-6.358292">
        <ele>1554.065</ele>
        <time>2014-08-31T09:11:56Z</time>
      </trkpt>
      <trkpt lat="42.490516" lon="-6.358410">
        <ele>1554.080</ele>
        <time>2014-08-31T09:12:04Z</time>
      </trkpt>
      <trkpt lat="42.490477" lon="-6.358521">
        <ele>1554.080</ele>
        <time>2014-08-31T09:12:11Z</time>
      </trkpt>
      <trkpt lat="42.490416" lon="-6.358623">
        <ele>1554.056</ele>
        <time>2014-08-31T09:12:20Z</time>
      </trkpt>
      <trkpt lat="42.490369" lon="-6.358733">
        <ele>1553.093</ele>
        <time>2014-08-31T09:12:28Z</time>
      </trkpt>
      <trkpt lat="42.490326" lon="-6.358841">
        <ele>1553.055</ele>
        <time>2014-08-31T09:12:35Z</time>
      </trkpt>
      <trkpt lat="42.490277" lon="-6.358951">
        <ele>1553.007</ele>
        <time>2014-08-31T09:12:44Z</time>
      </trkpt>
      <trkpt lat="42.490233" lon="-6.359070">
        <ele>1552.017</ele>
        <time>2014-08-31T09:12:53Z</time>
      </trkpt>
      <trkpt lat="42.490182" lon="-6.359185">
        <ele>1552.007</ele>
        <time>2014-08-31T09:13:00Z</time>
      </trkpt>
      <trkpt lat="42.490134" lon="-6.359299">
        <ele>1551.082</ele>
        <time>2014-08-31T09:13:10Z</time>
      </trkpt>
      <trkpt lat="42.490091" lon="-6.359407">
        <ele>1551.011</ele>
        <time>2014-08-31T09:13:19Z</time>
      </trkpt>
      <trkpt lat="42.490063" lon="-6.359525">
        <ele>1551.053</ele>
        <time>2014-08-31T09:13:28Z</time>
      </trkpt>
      <trkpt lat="42.490019" lon="-6.359641">
        <ele>1551.038</ele>
        <time>2014-08-31T09:13:35Z</time>
      </trkpt>
      <trkpt lat="42.489944" lon="-6.359725">
        <ele>1551.038</ele>
        <time>2014-08-31T09:13:43Z</time>
      </trkpt>
      <trkpt lat="42.489885" lon="-6.359821">
        <ele>1551.094</ele>
        <time>2014-08-31T09:13:50Z</time>
      </trkpt>
      <trkpt lat="42.489824" lon="-6.359913">
        <ele>1552.051</ele>
        <time>2014-08-31T09:14:00Z</time>
      </trkpt>
      <trkpt lat="42.489755" lon="-6.360010">
        <ele>1552.065</ele>
        <time>2014-08-31T09:14:09Z</time>
      </trkpt>
      <trkpt lat="42.489694" lon="-6.360104">
        <ele>1553.068</ele>
        <time>2014-08-31T09:14:16Z</time>
      </trkpt>
      <trkpt lat="42.489616" lon="-6.360202">
        <ele>1553.014</ele>
        <time>2014-08-31T09:14:26Z</time>
      </trkpt>
      <trkpt lat="42.489535" lon="-6.360282">
        <ele>1553.007</ele>
        <time>2014-08-31T09:14:34Z</time>
      </trkpt>
      <trkpt lat="42.489476" lon="-6.360350">
        <ele>1554.013</ele>
        <time>2014-08-31T09:14:44Z</time>
      </trkpt>
      <trkpt lat="42.489392" lon="-6.360406">
        <ele>1554.042</ele>
        <time>2014-08-31T09:14:53Z</time>
      </trkpt>
      <trkpt lat="42.489316" lon="-6.360484">
        <ele>1554.054</ele>
        <time>2014-08-31T09:14:59Z</time>
      </trkpt>
      <trkpt lat="42.489248" lon="-6.360579">
        <ele>1556.019</ele>
        <time>2014-08-31T09:15:07Z</time>
      </trkpt>
      <trkpt lat="42.489203" lon="-6.360641">
        <ele>1557.079</ele>
        <time>2014-08-31T09:15:17Z</time>
      </trkpt>
      <trkpt lat="42.489214" lon="-6.360700">
        <ele>1558.085</ele>
        <time>2014-08-31T09:15:42Z</time>
      </trkpt>
      <trkpt lat="42.489198" lon="-6.360758">
        <ele>1558.062</ele>
        <time>2014-08-31T09:16:02Z</time>
      </trkpt>
      <trkpt lat="42.489145" lon="-6.360863">
        <ele>1558.036</ele>
        <time>2014-08-31T09:16:09Z</time>
      </trkpt>
      <trkpt lat="42.489184" lon="-6.360855">
        <ele>1557.017</ele>
        <time>2014-08-31T09:16:49Z</time>
      </trkpt>
      <trkpt lat="42.489151" lon="-6.360904">
        <ele>1557.018</ele>
        <time>2014-08-31T09:17:11Z</time>
      </trkpt>
      <trkpt lat="42.489107" lon="-6.360994">
        <ele>1557.007</ele>
        <time>2014-08-31T09:17:22Z</time>
      </trkpt>
      <trkpt lat="42.489039" lon="-6.361084">
        <ele>1557.080</ele>
        <time>2014-08-31T09:17:30Z</time>
      </trkpt>
      <trkpt lat="42.488979" lon="-6.361178">
        <ele>1557.019</ele>
        <time>2014-08-31T09:17:37Z</time>
      </trkpt>
      <trkpt lat="42.488922" lon="-6.361281">
        <ele>1556.081</ele>
        <time>2014-08-31T09:17:47Z</time>
      </trkpt>
      <trkpt lat="42.488893" lon="-6.361372">
        <ele>1556.026</ele>
        <time>2014-08-31T09:17:57Z</time>
      </trkpt>
      <trkpt lat="42.488916" lon="-6.361306">
        <ele>1557.096</ele>
        <time>2014-08-31T09:18:22Z</time>
      </trkpt>
      <trkpt lat="42.488820" lon="-6.361286">
        <ele>1557.012</ele>
        <time>2014-08-31T09:18:31Z</time>
      </trkpt>
      <trkpt lat="42.488759" lon="-6.361372">
        <ele>1557.019</ele>
        <time>2014-08-31T09:18:41Z</time>
      </trkpt>
      <trkpt lat="42.488705" lon="-6.361480">
        <ele>1557.054</ele>
        <time>2014-08-31T09:18:50Z</time>
      </trkpt>
      <trkpt lat="42.488657" lon="-6.361587">
        <ele>1557.056</ele>
        <time>2014-08-31T09:19:00Z</time>
      </trkpt>
      <trkpt lat="42.488675" lon="-6.361693">
        <ele>1557.011</ele>
        <time>2014-08-31T09:19:10Z</time>
      </trkpt>
      <trkpt lat="42.488680" lon="-6.361763">
        <ele>1556.007</ele>
        <time>2014-08-31T09:19:37Z</time>
      </trkpt>
      <trkpt lat="42.488687" lon="-6.361894">
        <ele>1557.032</ele>
        <time>2014-08-31T09:19:46Z</time>
      </trkpt>
      <trkpt lat="42.488686" lon="-6.362032">
        <ele>1556.051</ele>
        <time>2014-08-31T09:19:54Z</time>
      </trkpt>
      <trkpt lat="42.488657" lon="-6.362140">
        <ele>1556.043</ele>
        <time>2014-08-31T09:20:04Z</time>
      </trkpt>
      <trkpt lat="42.488664" lon="-6.362207">
        <ele>1555.088</ele>
        <time>2014-08-31T09:20:38Z</time>
      </trkpt>
      <trkpt lat="42.488659" lon="-6.362332">
        <ele>1555.078</ele>
        <time>2014-08-31T09:20:46Z</time>
      </trkpt>
      <trkpt lat="42.488645" lon="-6.362456">
        <ele>1555.044</ele>
        <time>2014-08-31T09:20:54Z</time>
      </trkpt>
      <trkpt lat="42.488620" lon="-6.362578">
        <ele>1555.051</ele>
        <time>2014-08-31T09:21:02Z</time>
      </trkpt>
      <trkpt lat="42.488605" lon="-6.362701">
        <ele>1553.013</ele>
        <time>2014-08-31T09:21:11Z</time>
      </trkpt>
      <trkpt lat="42.488602" lon="-6.362827">
        <ele>1552.043</ele>
        <time>2014-08-31T09:21:21Z</time>
      </trkpt>
      <trkpt lat="42.488599" lon="-6.362946">
        <ele>1552.007</ele>
        <time>2014-08-31T09:21:31Z</time>
      </trkpt>
      <trkpt lat="42.488606" lon="-6.363071">
        <ele>1552.007</ele>
        <time>2014-08-31T09:21:40Z</time>
      </trkpt>
      <trkpt lat="42.488609" lon="-6.363199">
        <ele>1551.078</ele>
        <time>2014-08-31T09:21:48Z</time>
      </trkpt>
      <trkpt lat="42.488623" lon="-6.363339">
        <ele>1551.097</ele>
        <time>2014-08-31T09:21:55Z</time>
      </trkpt>
      <trkpt lat="42.488632" lon="-6.363465">
        <ele>1551.029</ele>
        <time>2014-08-31T09:22:02Z</time>
      </trkpt>
      <trkpt lat="42.488679" lon="-6.363580">
        <ele>1552.084</ele>
        <time>2014-08-31T09:22:09Z</time>
      </trkpt>
      <trkpt lat="42.488697" lon="-6.363701">
        <ele>1552.044</ele>
        <time>2014-08-31T09:22:17Z</time>
      </trkpt>
      <trkpt lat="42.488719" lon="-6.363830">
        <ele>1552.050</ele>
        <time>2014-08-31T09:22:25Z</time>
      </trkpt>
      <trkpt lat="42.488753" lon="-6.363950">
        <ele>1552.097</ele>
        <time>2014-08-31T09:22:34Z</time>
      </trkpt>
      <trkpt lat="42.488775" lon="-6.364079">
        <ele>1552.022</ele>
        <time>2014-08-31T09:22:42Z</time>
      </trkpt>
      <trkpt lat="42.488806" lon="-6.364202">
        <ele>1551.062</ele>
        <time>2014-08-31T09:22:50Z</time>
      </trkpt>
      <trkpt lat="42.488841" lon="-6.364326">
        <ele>1550.008</ele>
        <time>2014-08-31T09:22:59Z</time>
      </trkpt>
      <trkpt lat="42.488888" lon="-6.364438">
        <ele>1550.007</ele>
        <time>2014-08-31T09:23:06Z</time>
      </trkpt>
      <trkpt lat="42.488934" lon="-6.364445">
        <ele>1549.039</ele>
        <time>2014-08-31T09:23:40Z</time>
      </trkpt>
      <trkpt lat="42.488963" lon="-6.364391">
        <ele>1547.058</ele>
        <time>2014-08-31T09:23:51Z</time>
      </trkpt>
      <trkpt lat="42.488986" lon="-6.364321">
        <ele>1546.070</ele>
        <time>2014-08-31T09:24:01Z</time>
      </trkpt>
      <trkpt lat="42.489058" lon="-6.364347">
        <ele>1544.085</ele>
        <time>2014-08-31T09:24:11Z</time>
      </trkpt>
      <trkpt lat="42.489065" lon="-6.364285">
        <ele>1543.025</ele>
        <time>2014-08-31T09:24:38Z</time>
      </trkpt>
      <trkpt lat="42.489069" lon="-6.364346">
        <ele>1543.021</ele>
        <time>2014-08-31T09:25:16Z</time>
      </trkpt>
      <trkpt lat="42.488989" lon="-6.364383">
        <ele>1544.098</ele>
        <time>2014-08-31T09:25:26Z</time>
      </trkpt>
      <trkpt lat="42.488929" lon="-6.364432">
        <ele>1543.061</ele>
        <time>2014-08-31T09:25:36Z</time>
      </trkpt>
      <trkpt lat="42.488861" lon="-6.364455">
        <ele>1544.021</ele>
        <time>2014-08-31T09:25:46Z</time>
      </trkpt>
      <trkpt lat="42.488867" lon="-6.364467">
        <ele>1543.013</ele>
        <time>2014-08-31T09:26:26Z</time>
      </trkpt>
      <trkpt lat="42.488853" lon="-6.364462">
        <ele>1543.007</ele>
        <time>2014-08-31T09:27:07Z</time>
      </trkpt>
      <trkpt lat="42.488880" lon="-6.364449">
        <ele>1542.023</ele>
        <time>2014-08-31T09:27:47Z</time>
      </trkpt>
      <trkpt lat="42.488906" lon="-6.364504">
        <ele>1542.032</ele>
        <time>2014-08-31T09:28:07Z</time>
      </trkpt>
      <trkpt lat="42.488943" lon="-6.364635">
        <ele>1542.084</ele>
        <time>2014-08-31T09:28:17Z</time>
      </trkpt>
      <trkpt lat="42.488952" lon="-6.364756">
        <ele>1543.049</ele>
        <time>2014-08-31T09:28:24Z</time>
      </trkpt>
      <trkpt lat="42.488977" lon="-6.364876">
        <ele>1543.059</ele>
        <time>2014-08-31T09:28:32Z</time>
      </trkpt>
      <trkpt lat="42.489014" lon="-6.365012">
        <ele>1544.015</ele>
        <time>2014-08-31T09:28:39Z</time>
      </trkpt>
      <trkpt lat="42.489060" lon="-6.365120">
        <ele>1545.062</ele>
        <time>2014-08-31T09:28:48Z</time>
      </trkpt>
      <trkpt lat="42.489085" lon="-6.365247">
        <ele>1546.093</ele>
        <time>2014-08-31T09:28:57Z</time>
      </trkpt>
      <trkpt lat="42.489126" lon="-6.365374">
        <ele>1546.065</ele>
        <time>2014-08-31T09:29:04Z</time>
      </trkpt>
      <trkpt lat="42.489178" lon="-6.365477">
        <ele>1546.021</ele>
        <time>2014-08-31T09:29:11Z</time>
      </trkpt>
      <trkpt lat="42.489202" lon="-6.365617">
        <ele>1545.007</ele>
        <time>2014-08-31T09:29:20Z</time>
      </trkpt>
      <trkpt lat="42.489218" lon="-6.365753">
        <ele>1545.026</ele>
        <time>2014-08-31T09:29:27Z</time>
      </trkpt>
      <trkpt lat="42.489213" lon="-6.365888">
        <ele>1545.025</ele>
        <time>2014-08-31T09:29:34Z</time>
      </trkpt>
      <trkpt lat="42.489215" lon="-6.366020">
        <ele>1545.017</ele>
        <time>2014-08-31T09:29:43Z</time>
      </trkpt>
      <trkpt lat="42.489243" lon="-6.366155">
        <ele>1545.022</ele>
        <time>2014-08-31T09:29:52Z</time>
      </trkpt>
      <trkpt lat="42.489240" lon="-6.366291">
        <ele>1544.072</ele>
        <time>2014-08-31T09:30:02Z</time>
      </trkpt>
      <trkpt lat="42.489266" lon="-6.366427">
        <ele>1543.018</ele>
        <time>2014-08-31T09:30:10Z</time>
      </trkpt>
      <trkpt lat="42.489271" lon="-6.366552">
        <ele>1543.085</ele>
        <time>2014-08-31T09:30:18Z</time>
      </trkpt>
      <trkpt lat="42.489283" lon="-6.366691">
        <ele>1542.052</ele>
        <time>2014-08-31T09:30:26Z</time>
      </trkpt>
      <trkpt lat="42.489280" lon="-6.366829">
        <ele>1542.053</ele>
        <time>2014-08-31T09:30:35Z</time>
      </trkpt>
      <trkpt lat="42.489250" lon="-6.366950">
        <ele>1541.008</ele>
        <time>2014-08-31T09:30:44Z</time>
      </trkpt>
      <trkpt lat="42.489226" lon="-6.367070">
        <ele>1540.007</ele>
        <time>2014-08-31T09:30:50Z</time>
      </trkpt>
      <trkpt lat="42.489188" lon="-6.367185">
        <ele>1539.082</ele>
        <time>2014-08-31T09:30:58Z</time>
      </trkpt>
      <trkpt lat="42.489152" lon="-6.367308">
        <ele>1539.041</ele>
        <time>2014-08-31T09:31:05Z</time>
      </trkpt>
      <trkpt lat="42.489141" lon="-6.367440">
        <ele>1539.023</ele>
        <time>2014-08-31T09:31:12Z</time>
      </trkpt>
      <trkpt lat="42.489099" lon="-6.367564">
        <ele>1539.088</ele>
        <time>2014-08-31T09:31:20Z</time>
      </trkpt>
      <trkpt lat="42.489091" lon="-6.367702">
        <ele>1538.068</ele>
        <time>2014-08-31T09:31:28Z</time>
      </trkpt>
      <trkpt lat="42.489087" lon="-6.367825">
        <ele>1537.054</ele>
        <time>2014-08-31T09:31:35Z</time>
      </trkpt>
      <trkpt lat="42.489094" lon="-6.367953">
        <ele>1536.011</ele>
        <time>2014-08-31T09:31:43Z</time>
      </trkpt>
      <trkpt lat="42.489082" lon="-6.368081">
        <ele>1535.073</ele>
        <time>2014-08-31T09:31:50Z</time>
      </trkpt>
      <trkpt lat="42.489084" lon="-6.368211">
        <ele>1535.085</ele>
        <time>2014-08-31T09:31:57Z</time>
      </trkpt>
      <trkpt lat="42.489071" lon="-6.368345">
        <ele>1535.013</ele>
        <time>2014-08-31T09:32:05Z</time>
      </trkpt>
      <trkpt lat="42.489062" lon="-6.368479">
        <ele>1535.007</ele>
        <time>2014-08-31T09:32:13Z</time>
      </trkpt>
      <trkpt lat="42.489056" lon="-6.368607">
        <ele>1536.044</ele>
        <time>2014-08-31T09:32:20Z</time>
      </trkpt>
      <trkpt lat="42.489074" lon="-6.368739">
        <ele>1536.023</ele>
        <time>2014-08-31T09:32:27Z</time>
      </trkpt>
      <trkpt lat="42.489083" lon="-6.368866">
        <ele>1536.025</ele>
        <time>2014-08-31T09:32:35Z</time>
      </trkpt>
      <trkpt lat="42.489088" lon="-6.369004">
        <ele>1536.050</ele>
        <time>2014-08-31T09:32:43Z</time>
      </trkpt>
      <trkpt lat="42.489079" lon="-6.369138">
        <ele>1536.070</ele>
        <time>2014-08-31T09:32:52Z</time>
      </trkpt>
      <trkpt lat="42.489077" lon="-6.369260">
        <ele>1536.036</ele>
        <time>2014-08-31T09:32:59Z</time>
      </trkpt>
      <trkpt lat="42.489076" lon="-6.369393">
        <ele>1536.013</ele>
        <time>2014-08-31T09:33:08Z</time>
      </trkpt>
      <trkpt lat="42.489086" lon="-6.369530">
        <ele>1536.096</ele>
        <time>2014-08-31T09:33:16Z</time>
      </trkpt>
      <trkpt lat="42.489087" lon="-6.369661">
        <ele>1536.031</ele>
        <time>2014-08-31T09:33:23Z</time>
      </trkpt>
      <trkpt lat="42.489098" lon="-6.369782">
        <ele>1536.024</ele>
        <time>2014-08-31T09:33:30Z</time>
      </trkpt>
      <trkpt lat="42.489116" lon="-6.369909">
        <ele>1536.007</ele>
        <time>2014-08-31T09:33:39Z</time>
      </trkpt>
      <trkpt lat="42.489122" lon="-6.370046">
        <ele>1537.046</ele>
        <time>2014-08-31T09:33:47Z</time>
      </trkpt>
      <trkpt lat="42.489154" lon="-6.370175">
        <ele>1537.075</ele>
        <time>2014-08-31T09:33:56Z</time>
      </trkpt>
      <trkpt lat="42.489192" lon="-6.370292">
        <ele>1537.067</ele>
        <time>2014-08-31T09:34:03Z</time>
      </trkpt>
      <trkpt lat="42.489230" lon="-6.370406">
        <ele>1537.022</ele>
        <time>2014-08-31T09:34:11Z</time>
      </trkpt>
      <trkpt lat="42.489269" lon="-6.370522">
        <ele>1537.022</ele>
        <time>2014-08-31T09:34:18Z</time>
      </trkpt>
      <trkpt lat="42.489303" lon="-6.370636">
        <ele>1537.038</ele>
        <time>2014-08-31T09:34:26Z</time>
      </trkpt>
      <trkpt lat="42.489324" lon="-6.370773">
        <ele>1537.065</ele>
        <time>2014-08-31T09:34:33Z</time>
      </trkpt>
      <trkpt lat="42.489330" lon="-6.370910">
        <ele>1536.088</ele>
        <time>2014-08-31T09:34:40Z</time>
      </trkpt>
      <trkpt lat="42.489369" lon="-6.371026">
        <ele>1537.024</ele>
        <time>2014-08-31T09:34:49Z</time>
      </trkpt>
      <trkpt lat="42.489419" lon="-6.371135">
        <ele>1538.026</ele>
        <time>2014-08-31T09:34:57Z</time>
      </trkpt>
      <trkpt lat="42.489479" lon="-6.371244">
        <ele>1538.007</ele>
        <time>2014-08-31T09:35:04Z</time>
      </trkpt>
      <trkpt lat="42.489531" lon="-6.371361">
        <ele>1539.035</ele>
        <time>2014-08-31T09:35:12Z</time>
      </trkpt>
      <trkpt lat="42.489578" lon="-6.371468">
        <ele>1539.084</ele>
        <time>2014-08-31T09:35:20Z</time>
      </trkpt>
      <trkpt lat="42.489619" lon="-6.371589">
        <ele>1540.096</ele>
        <time>2014-08-31T09:35:28Z</time>
      </trkpt>
      <trkpt lat="42.489665" lon="-6.371700">
        <ele>1540.041</ele>
        <time>2014-08-31T09:35:37Z</time>
      </trkpt>
      <trkpt lat="42.489727" lon="-6.371809">
        <ele>1541.081</ele>
        <time>2014-08-31T09:35:44Z</time>
      </trkpt>
      <trkpt lat="42.489783" lon="-6.371904">
        <ele>1540.077</ele>
        <time>2014-08-31T09:35:53Z</time>
      </trkpt>
      <trkpt lat="42.489814" lon="-6.372032">
        <ele>1541.044</ele>
        <time>2014-08-31T09:36:01Z</time>
      </trkpt>
      <trkpt lat="42.489854" lon="-6.372146">
        <ele>1541.073</ele>
        <time>2014-08-31T09:36:07Z</time>
      </trkpt>
      <trkpt lat="42.489903" lon="-6.372254">
        <ele>1541.085</ele>
        <time>2014-08-31T09:36:14Z</time>
      </trkpt>
      <trkpt lat="42.489952" lon="-6.372364">
        <ele>1540.013</ele>
        <time>2014-08-31T09:36:23Z</time>
      </trkpt>
      <trkpt lat="42.489963" lon="-6.372487">
        <ele>1539.007</ele>
        <time>2014-08-31T09:36:31Z</time>
      </trkpt>
      <trkpt lat="42.490009" lon="-6.372602">
        <ele>1539.024</ele>
        <time>2014-08-31T09:36:38Z</time>
      </trkpt>
      <trkpt lat="42.490021" lon="-6.372726">
        <ele>1538.013</ele>
        <time>2014-08-31T09:36:46Z</time>
      </trkpt>
      <trkpt lat="42.490028" lon="-6.372855">
        <ele>1538.045</ele>
        <time>2014-08-31T09:36:54Z</time>
      </trkpt>
      <trkpt lat="42.489999" lon="-6.372985">
        <ele>1538.010</ele>
        <time>2014-08-31T09:37:03Z</time>
      </trkpt>
      <trkpt lat="42.489979" lon="-6.373104">
        <ele>1538.070</ele>
        <time>2014-08-31T09:37:11Z</time>
      </trkpt>
      <trkpt lat="42.489933" lon="-6.373232">
        <ele>1538.046</ele>
        <time>2014-08-31T09:37:19Z</time>
      </trkpt>
      <trkpt lat="42.489881" lon="-6.373344">
        <ele>1539.043</ele>
        <time>2014-08-31T09:37:26Z</time>
      </trkpt>
      <trkpt lat="42.489820" lon="-6.373442">
        <ele>1539.055</ele>
        <time>2014-08-31T09:37:34Z</time>
      </trkpt>
      <trkpt lat="42.489739" lon="-6.373518">
        <ele>1539.007</ele>
        <time>2014-08-31T09:37:42Z</time>
      </trkpt>
      <trkpt lat="42.489650" lon="-6.373577">
        <ele>1540.017</ele>
        <time>2014-08-31T09:37:51Z</time>
      </trkpt>
      <trkpt lat="42.489561" lon="-6.373627">
        <ele>1540.007</ele>
        <time>2014-08-31T09:38:01Z</time>
      </trkpt>
      <trkpt lat="42.489481" lon="-6.373709">
        <ele>1540.052</ele>
        <time>2014-08-31T09:38:09Z</time>
      </trkpt>
      <trkpt lat="42.489385" lon="-6.373752">
        <ele>1540.021</ele>
        <time>2014-08-31T09:38:16Z</time>
      </trkpt>
      <trkpt lat="42.489301" lon="-6.373820">
        <ele>1539.033</ele>
        <time>2014-08-31T09:38:23Z</time>
      </trkpt>
      <trkpt lat="42.489226" lon="-6.373907">
        <ele>1539.028</ele>
        <time>2014-08-31T09:38:32Z</time>
      </trkpt>
      <trkpt lat="42.489157" lon="-6.374006">
        <ele>1539.038</ele>
        <time>2014-08-31T09:38:40Z</time>
      </trkpt>
      <trkpt lat="42.489090" lon="-6.374088">
        <ele>1539.024</ele>
        <time>2014-08-31T09:38:49Z</time>
      </trkpt>
      <trkpt lat="42.489031" lon="-6.374181">
        <ele>1538.011</ele>
        <time>2014-08-31T09:38:57Z</time>
      </trkpt>
      <trkpt lat="42.488982" lon="-6.374291">
        <ele>1538.027</ele>
        <time>2014-08-31T09:39:04Z</time>
      </trkpt>
      <trkpt lat="42.488927" lon="-6.374388">
        <ele>1537.068</ele>
        <time>2014-08-31T09:39:11Z</time>
      </trkpt>
      <trkpt lat="42.488850" lon="-6.374476">
        <ele>1537.014</ele>
        <time>2014-08-31T09:39:19Z</time>
      </trkpt>
      <trkpt lat="42.488783" lon="-6.374576">
        <ele>1537.007</ele>
        <time>2014-08-31T09:39:27Z</time>
      </trkpt>
      <trkpt lat="42.488719" lon="-6.374674">
        <ele>1537.039</ele>
        <time>2014-08-31T09:39:35Z</time>
      </trkpt>
      <trkpt lat="42.488658" lon="-6.374775">
        <ele>1537.028</ele>
        <time>2014-08-31T09:39:42Z</time>
      </trkpt>
      <trkpt lat="42.488594" lon="-6.374872">
        <ele>1538.030</ele>
        <time>2014-08-31T09:39:50Z</time>
      </trkpt>
      <trkpt lat="42.488561" lon="-6.374985">
        <ele>1538.015</ele>
        <time>2014-08-31T09:39:58Z</time>
      </trkpt>
      <trkpt lat="42.488556" lon="-6.375115">
        <ele>1538.065</ele>
        <time>2014-08-31T09:40:06Z</time>
      </trkpt>
      <trkpt lat="42.488508" lon="-6.375234">
        <ele>1538.041</ele>
        <time>2014-08-31T09:40:15Z</time>
      </trkpt>
      <trkpt lat="42.488464" lon="-6.375355">
        <ele>1537.068</ele>
        <time>2014-08-31T09:40:20Z</time>
      </trkpt>
      <trkpt lat="42.488430" lon="-6.375472">
        <ele>1537.039</ele>
        <time>2014-08-31T09:40:27Z</time>
      </trkpt>
      <trkpt lat="42.488411" lon="-6.375603">
        <ele>1537.001</ele>
        <time>2014-08-31T09:40:36Z</time>
      </trkpt>
      <trkpt lat="42.488372" lon="-6.375730">
        <ele>1536.021</ele>
        <time>2014-08-31T09:40:46Z</time>
      </trkpt>
      <trkpt lat="42.488366" lon="-6.375859">
        <ele>1536.007</ele>
        <time>2014-08-31T09:40:53Z</time>
      </trkpt>
      <trkpt lat="42.488347" lon="-6.375996">
        <ele>1537.050</ele>
        <time>2014-08-31T09:41:01Z</time>
      </trkpt>
      <trkpt lat="42.488377" lon="-6.376124">
        <ele>1536.069</ele>
        <time>2014-08-31T09:41:08Z</time>
      </trkpt>
      <trkpt lat="42.488412" lon="-6.376240">
        <ele>1535.091</ele>
        <time>2014-08-31T09:41:17Z</time>
      </trkpt>
      <trkpt lat="42.488440" lon="-6.376363">
        <ele>1534.016</ele>
        <time>2014-08-31T09:41:24Z</time>
      </trkpt>
      <trkpt lat="42.488460" lon="-6.376489">
        <ele>1533.086</ele>
        <time>2014-08-31T09:41:33Z</time>
      </trkpt>
      <trkpt lat="42.488458" lon="-6.376611">
        <ele>1533.032</ele>
        <time>2014-08-31T09:41:40Z</time>
      </trkpt>
      <trkpt lat="42.488466" lon="-6.376739">
        <ele>1532.059</ele>
        <time>2014-08-31T09:41:49Z</time>
      </trkpt>
      <trkpt lat="42.488478" lon="-6.376865">
        <ele>1531.079</ele>
        <time>2014-08-31T09:41:59Z</time>
      </trkpt>
      <trkpt lat="42.488469" lon="-6.376928">
        <ele>1530.005</ele>
        <time>2014-08-31T09:42:12Z</time>
      </trkpt>
      <trkpt lat="42.488487" lon="-6.377052">
        <ele>1529.025</ele>
        <time>2014-08-31T09:42:19Z</time>
      </trkpt>
      <trkpt lat="42.488518" lon="-6.377175">
        <ele>1528.007</ele>
        <time>2014-08-31T09:42:26Z</time>
      </trkpt>
      <trkpt lat="42.488529" lon="-6.377297">
        <ele>1527.064</ele>
        <time>2014-08-31T09:42:33Z</time>
      </trkpt>
      <trkpt lat="42.488532" lon="-6.377422">
        <ele>1527.063</ele>
        <time>2014-08-31T09:42:41Z</time>
      </trkpt>
      <trkpt lat="42.488543" lon="-6.377546">
        <ele>1526.085</ele>
        <time>2014-08-31T09:42:50Z</time>
      </trkpt>
      <trkpt lat="42.488563" lon="-6.377670">
        <ele>1525.060</ele>
        <time>2014-08-31T09:42:57Z</time>
      </trkpt>
      <trkpt lat="42.488545" lon="-6.377792">
        <ele>1525.090</ele>
        <time>2014-08-31T09:43:05Z</time>
      </trkpt>
      <trkpt lat="42.488546" lon="-6.377919">
        <ele>1524.086</ele>
        <time>2014-08-31T09:43:12Z</time>
      </trkpt>
      <trkpt lat="42.488545" lon="-6.378043">
        <ele>1524.013</ele>
        <time>2014-08-31T09:43:19Z</time>
      </trkpt>
      <trkpt lat="42.488512" lon="-6.378159">
        <ele>1523.042</ele>
        <time>2014-08-31T09:43:26Z</time>
      </trkpt>
      <trkpt lat="42.488481" lon="-6.378274">
        <ele>1523.022</ele>
        <time>2014-08-31T09:43:33Z</time>
      </trkpt>
      <trkpt lat="42.488450" lon="-6.378388">
        <ele>1523.014</ele>
        <time>2014-08-31T09:43:42Z</time>
      </trkpt>
      <trkpt lat="42.488429" lon="-6.378520">
        <ele>1524.007</ele>
        <time>2014-08-31T09:43:51Z</time>
      </trkpt>
      <trkpt lat="42.488381" lon="-6.378619">
        <ele>1523.091</ele>
        <time>2014-08-31T09:44:01Z</time>
      </trkpt>
      <trkpt lat="42.488320" lon="-6.378726">
        <ele>1523.050</ele>
        <time>2014-08-31T09:44:08Z</time>
      </trkpt>
      <trkpt lat="42.488267" lon="-6.378828">
        <ele>1522.042</ele>
        <time>2014-08-31T09:44:14Z</time>
      </trkpt>
      <trkpt lat="42.488197" lon="-6.378925">
        <ele>1522.057</ele>
        <time>2014-08-31T09:44:22Z</time>
      </trkpt>
      <trkpt lat="42.488136" lon="-6.379024">
        <ele>1522.077</ele>
        <time>2014-08-31T09:44:30Z</time>
      </trkpt>
      <trkpt lat="42.488092" lon="-6.379139">
        <ele>1522.093</ele>
        <time>2014-08-31T09:44:38Z</time>
      </trkpt>
      <trkpt lat="42.488048" lon="-6.379254">
        <ele>1522.060</ele>
        <time>2014-08-31T09:44:47Z</time>
      </trkpt>
      <trkpt lat="42.487991" lon="-6.379359">
        <ele>1521.053</ele>
        <time>2014-08-31T09:44:57Z</time>
      </trkpt>
      <trkpt lat="42.487965" lon="-6.379483">
        <ele>1520.004</ele>
        <time>2014-08-31T09:45:06Z</time>
      </trkpt>
      <trkpt lat="42.487920" lon="-6.379601">
        <ele>1519.014</ele>
        <time>2014-08-31T09:45:13Z</time>
      </trkpt>
      <trkpt lat="42.487863" lon="-6.379711">
        <ele>1518.007</ele>
        <time>2014-08-31T09:45:23Z</time>
      </trkpt>
      <trkpt lat="42.487819" lon="-6.379832">
        <ele>1518.072</ele>
        <time>2014-08-31T09:45:31Z</time>
      </trkpt>
      <trkpt lat="42.487780" lon="-6.379964">
        <ele>1517.011</ele>
        <time>2014-08-31T09:45:41Z</time>
      </trkpt>
      <trkpt lat="42.487731" lon="-6.380079">
        <ele>1517.013</ele>
        <time>2014-08-31T09:45:49Z</time>
      </trkpt>
      <trkpt lat="42.487678" lon="-6.380187">
        <ele>1517.048</ele>
        <time>2014-08-31T09:45:58Z</time>
      </trkpt>
      <trkpt lat="42.487640" lon="-6.380317">
        <ele>1516.068</ele>
        <time>2014-08-31T09:46:06Z</time>
      </trkpt>
      <trkpt lat="42.487625" lon="-6.380445">
        <ele>1516.034</ele>
        <time>2014-08-31T09:46:14Z</time>
      </trkpt>
      <trkpt lat="42.487597" lon="-6.380564">
        <ele>1516.021</ele>
        <time>2014-08-31T09:46:22Z</time>
      </trkpt>
      <trkpt lat="42.487580" lon="-6.380698">
        <ele>1516.099</ele>
        <time>2014-08-31T09:46:31Z</time>
      </trkpt>
      <trkpt lat="42.487580" lon="-6.380833">
        <ele>1516.007</ele>
        <time>2014-08-31T09:46:40Z</time>
      </trkpt>
      <trkpt lat="42.487584" lon="-6.380966">
        <ele>1516.027</ele>
        <time>2014-08-31T09:46:49Z</time>
      </trkpt>
      <trkpt lat="42.487609" lon="-6.381096">
        <ele>1517.007</ele>
        <time>2014-08-31T09:46:57Z</time>
      </trkpt>
      <trkpt lat="42.487658" lon="-6.381205">
        <ele>1517.066</ele>
        <time>2014-08-31T09:47:05Z</time>
      </trkpt>
      <trkpt lat="42.487674" lon="-6.381327">
        <ele>1518.095</ele>
        <time>2014-08-31T09:47:14Z</time>
      </trkpt>
      <trkpt lat="42.487705" lon="-6.381443">
        <ele>1518.067</ele>
        <time>2014-08-31T09:47:22Z</time>
      </trkpt>
      <trkpt lat="42.487747" lon="-6.381555">
        <ele>1519.052</ele>
        <time>2014-08-31T09:47:30Z</time>
      </trkpt>
      <trkpt lat="42.487773" lon="-6.381678">
        <ele>1519.092</ele>
        <time>2014-08-31T09:47:38Z</time>
      </trkpt>
      <trkpt lat="42.487823" lon="-6.381792">
        <ele>1519.088</ele>
        <time>2014-08-31T09:47:47Z</time>
      </trkpt>
      <trkpt lat="42.487867" lon="-6.381907">
        <ele>1519.055</ele>
        <time>2014-08-31T09:47:55Z</time>
      </trkpt>
      <trkpt lat="42.487922" lon="-6.382011">
        <ele>1519.078</ele>
        <time>2014-08-31T09:48:03Z</time>
      </trkpt>
      <trkpt lat="42.487966" lon="-6.382130">
        <ele>1519.033</ele>
        <time>2014-08-31T09:48:12Z</time>
      </trkpt>
      <trkpt lat="42.487988" lon="-6.382208">
        <ele>1519.026</ele>
        <time>2014-08-31T09:48:22Z</time>
      </trkpt>
      <trkpt lat="42.488017" lon="-6.382325">
        <ele>1519.007</ele>
        <time>2014-08-31T09:48:28Z</time>
      </trkpt>
      <trkpt lat="42.488027" lon="-6.382452">
        <ele>1520.034</ele>
        <time>2014-08-31T09:48:36Z</time>
      </trkpt>
      <trkpt lat="42.488055" lon="-6.382575">
        <ele>1520.083</ele>
        <time>2014-08-31T09:48:45Z</time>
      </trkpt>
      <trkpt lat="42.488086" lon="-6.382697">
        <ele>1520.015</ele>
        <time>2014-08-31T09:48:53Z</time>
      </trkpt>
      <trkpt lat="42.488099" lon="-6.382818">
        <ele>1520.030</ele>
        <time>2014-08-31T09:49:00Z</time>
      </trkpt>
      <trkpt lat="42.488112" lon="-6.382951">
        <ele>1519.070</ele>
        <time>2014-08-31T09:49:08Z</time>
      </trkpt>
      <trkpt lat="42.488114" lon="-6.383083">
        <ele>1519.066</ele>
        <time>2014-08-31T09:49:18Z</time>
      </trkpt>
      <trkpt lat="42.488153" lon="-6.383198">
        <ele>1519.093</ele>
        <time>2014-08-31T09:49:24Z</time>
      </trkpt>
      <trkpt lat="42.488176" lon="-6.383322">
        <ele>1519.015</ele>
        <time>2014-08-31T09:49:32Z</time>
      </trkpt>
      <trkpt lat="42.488219" lon="-6.383442">
        <ele>1519.065</ele>
        <time>2014-08-31T09:49:39Z</time>
      </trkpt>
      <trkpt lat="42.488195" lon="-6.383563">
        <ele>1519.011</ele>
        <time>2014-08-31T09:49:45Z</time>
      </trkpt>
      <trkpt lat="42.488215" lon="-6.383693">
        <ele>1519.007</ele>
        <time>2014-08-31T09:49:53Z</time>
      </trkpt>
      <trkpt lat="42.488236" lon="-6.383813">
        <ele>1519.058</ele>
        <time>2014-08-31T09:50:01Z</time>
      </trkpt>
      <trkpt lat="42.488249" lon="-6.383936">
        <ele>1518.057</ele>
        <time>2014-08-31T09:50:08Z</time>
      </trkpt>
      <trkpt lat="42.488267" lon="-6.384062">
        <ele>1517.059</ele>
        <time>2014-08-31T09:50:15Z</time>
      </trkpt>
      <trkpt lat="42.488282" lon="-6.384190">
        <ele>1517.014</ele>
        <time>2014-08-31T09:50:24Z</time>
      </trkpt>
      <trkpt lat="42.488329" lon="-6.384296">
        <ele>1516.064</ele>
        <time>2014-08-31T09:50:30Z</time>
      </trkpt>
      <trkpt lat="42.488401" lon="-6.384379">
        <ele>1516.040</ele>
        <time>2014-08-31T09:50:38Z</time>
      </trkpt>
      <trkpt lat="42.488491" lon="-6.384392">
        <ele>1515.097</ele>
        <time>2014-08-31T09:50:46Z</time>
      </trkpt>
      <trkpt lat="42.488587" lon="-6.384416">
        <ele>1515.011</ele>
        <time>2014-08-31T09:50:53Z</time>
      </trkpt>
      <trkpt lat="42.488662" lon="-6.384486">
        <ele>1514.021</ele>
        <time>2014-08-31T09:51:00Z</time>
      </trkpt>
      <trkpt lat="42.488740" lon="-6.384562">
        <ele>1513.003</ele>
        <time>2014-08-31T09:51:08Z</time>
      </trkpt>
      <trkpt lat="42.488806" lon="-6.384650">
        <ele>1513.007</ele>
        <time>2014-08-31T09:51:17Z</time>
      </trkpt>
      <trkpt lat="42.488881" lon="-6.384731">
        <ele>1512.058</ele>
        <time>2014-08-31T09:51:25Z</time>
      </trkpt>
      <trkpt lat="42.488954" lon="-6.384802">
        <ele>1511.027</ele>
        <time>2014-08-31T09:51:32Z</time>
      </trkpt>
      <trkpt lat="42.489045" lon="-6.384862">
        <ele>1510.059</ele>
        <time>2014-08-31T09:51:41Z</time>
      </trkpt>
      <trkpt lat="42.489133" lon="-6.384922">
        <ele>1509.014</ele>
        <time>2014-08-31T09:51:50Z</time>
      </trkpt>
      <trkpt lat="42.489194" lon="-6.385029">
        <ele>1508.064</ele>
        <time>2014-08-31T09:51:57Z</time>
      </trkpt>
      <trkpt lat="42.489275" lon="-6.385098">
        <ele>1508.020</ele>
        <time>2014-08-31T09:52:05Z</time>
      </trkpt>
      <trkpt lat="42.489331" lon="-6.385216">
        <ele>1507.087</ele>
        <time>2014-08-31T09:52:13Z</time>
      </trkpt>
      <trkpt lat="42.489366" lon="-6.385340">
        <ele>1506.046</ele>
        <time>2014-08-31T09:52:21Z</time>
      </trkpt>
      <trkpt lat="42.489431" lon="-6.385434">
        <ele>1506.088</ele>
        <time>2014-08-31T09:52:28Z</time>
      </trkpt>
      <trkpt lat="42.489474" lon="-6.385556">
        <ele>1505.016</ele>
        <time>2014-08-31T09:52:37Z</time>
      </trkpt>
      <trkpt lat="42.489495" lon="-6.385677">
        <ele>1504.007</ele>
        <time>2014-08-31T09:52:44Z</time>
      </trkpt>
      <trkpt lat="42.489551" lon="-6.385788">
        <ele>1504.091</ele>
        <time>2014-08-31T09:52:51Z</time>
      </trkpt>
      <trkpt lat="42.489617" lon="-6.385880">
        <ele>1504.050</ele>
        <time>2014-08-31T09:52:59Z</time>
      </trkpt>
      <trkpt lat="42.489666" lon="-6.386004">
        <ele>1503.082</ele>
        <time>2014-08-31T09:53:08Z</time>
      </trkpt>
      <trkpt lat="42.489715" lon="-6.386111">
        <ele>1503.047</ele>
        <time>2014-08-31T09:53:15Z</time>
      </trkpt>
      <trkpt lat="42.489791" lon="-6.386202">
        <ele>1503.017</ele>
        <time>2014-08-31T09:53:22Z</time>
      </trkpt>
      <trkpt lat="42.489849" lon="-6.386306">
        <ele>1503.023</ele>
        <time>2014-08-31T09:53:31Z</time>
      </trkpt>
      <trkpt lat="42.489908" lon="-6.386401">
        <ele>1502.040</ele>
        <time>2014-08-31T09:53:38Z</time>
      </trkpt>
      <trkpt lat="42.489983" lon="-6.386499">
        <ele>1502.071</ele>
        <time>2014-08-31T09:53:47Z</time>
      </trkpt>
      <trkpt lat="42.490053" lon="-6.386536">
        <ele>1501.041</ele>
        <time>2014-08-31T09:53:57Z</time>
      </trkpt>
      <trkpt lat="42.490097" lon="-6.386552">
        <ele>1502.015</ele>
        <time>2014-08-31T09:54:11Z</time>
      </trkpt>
      <trkpt lat="42.490142" lon="-6.386579">
        <ele>1501.007</ele>
        <time>2014-08-31T09:54:24Z</time>
      </trkpt>
      <trkpt lat="42.490209" lon="-6.386636">
        <ele>1500.054</ele>
        <time>2014-08-31T09:54:34Z</time>
      </trkpt>
      <trkpt lat="42.490272" lon="-6.386686">
        <ele>1499.033</ele>
        <time>2014-08-31T09:54:44Z</time>
      </trkpt>
      <trkpt lat="42.490320" lon="-6.386738">
        <ele>1499.085</ele>
        <time>2014-08-31T09:54:54Z</time>
      </trkpt>
      <trkpt lat="42.490354" lon="-6.386781">
        <ele>1499.040</ele>
        <time>2014-08-31T09:55:06Z</time>
      </trkpt>
      <trkpt lat="42.490376" lon="-6.386834">
        <ele>1499.070</ele>
        <time>2014-08-31T09:55:16Z</time>
      </trkpt>
      <trkpt lat="42.490409" lon="-6.386888">
        <ele>1499.026</ele>
        <time>2014-08-31T09:55:26Z</time>
      </trkpt>
      <trkpt lat="42.490461" lon="-6.386891">
        <ele>1499.053</ele>
        <time>2014-08-31T09:55:37Z</time>
      </trkpt>
      <trkpt lat="42.490487" lon="-6.386877">
        <ele>1498.076</ele>
        <time>2014-08-31T09:56:17Z</time>
      </trkpt>
      <trkpt lat="42.490500" lon="-6.386850">
        <ele>1498.090</ele>
        <time>2014-08-31T09:56:57Z</time>
      </trkpt>
      <trkpt lat="42.490503" lon="-6.386913">
        <ele>1498.019</ele>
        <time>2014-08-31T09:57:10Z</time>
      </trkpt>
      <trkpt lat="42.490487" lon="-6.386867">
        <ele>1498.007</ele>
        <time>2014-08-31T09:57:50Z</time>
      </trkpt>
      <trkpt lat="42.490496" lon="-6.386909">
        <ele>1498.084</ele>
        <time>2014-08-31T09:58:31Z</time>
      </trkpt>
      <trkpt lat="42.490485" lon="-6.386892">
        <ele>1497.043</ele>
        <time>2014-08-31T09:59:11Z</time>
      </trkpt>
      <trkpt lat="42.490493" lon="-6.386872">
        <ele>1497.035</ele>
        <time>2014-08-31T09:59:51Z</time>
      </trkpt>
      <trkpt lat="42.490480" lon="-6.386882">
        <ele>1497.020</ele>
        <time>2014-08-31T10:00:31Z</time>
      </trkpt>
      <trkpt lat="42.490462" lon="-6.386883">
        <ele>1498.050</ele>
        <time>2014-08-31T10:01:12Z</time>
      </trkpt>
      <trkpt lat="42.490455" lon="-6.386872">
        <ele>1499.036</ele>
        <time>2014-08-31T10:01:52Z</time>
      </trkpt>
      <trkpt lat="42.490407" lon="-6.386837">
        <ele>1498.073</ele>
        <time>2014-08-31T10:02:06Z</time>
      </trkpt>
      <trkpt lat="42.490321" lon="-6.386774">
        <ele>1498.037</ele>
        <time>2014-08-31T10:02:13Z</time>
      </trkpt>
      <trkpt lat="42.490368" lon="-6.386881">
        <ele>1498.049</ele>
        <time>2014-08-31T10:02:22Z</time>
      </trkpt>
      <trkpt lat="42.490387" lon="-6.387002">
        <ele>1497.013</ele>
        <time>2014-08-31T10:02:30Z</time>
      </trkpt>
      <trkpt lat="42.490401" lon="-6.387143">
        <ele>1497.007</ele>
        <time>2014-08-31T10:02:38Z</time>
      </trkpt>
      <trkpt lat="42.490430" lon="-6.387266">
        <ele>1497.060</ele>
        <time>2014-08-31T10:02:46Z</time>
      </trkpt>
      <trkpt lat="42.490469" lon="-6.387388">
        <ele>1497.079</ele>
        <time>2014-08-31T10:02:55Z</time>
      </trkpt>
      <trkpt lat="42.490538" lon="-6.387483">
        <ele>1496.011</ele>
        <time>2014-08-31T10:03:03Z</time>
      </trkpt>
      <trkpt lat="42.490573" lon="-6.387604">
        <ele>1496.056</ele>
        <time>2014-08-31T10:03:10Z</time>
      </trkpt>
      <trkpt lat="42.490569" lon="-6.387738">
        <ele>1495.086</ele>
        <time>2014-08-31T10:03:17Z</time>
      </trkpt>
      <trkpt lat="42.490550" lon="-6.387869">
        <ele>1495.082</ele>
        <time>2014-08-31T10:03:25Z</time>
      </trkpt>
      <trkpt lat="42.490491" lon="-6.387963">
        <ele>1495.019</ele>
        <time>2014-08-31T10:03:32Z</time>
      </trkpt>
      <trkpt lat="42.490470" lon="-6.388094">
        <ele>1494.087</ele>
        <time>2014-08-31T10:03:39Z</time>
      </trkpt>
      <trkpt lat="42.490455" lon="-6.388219">
        <ele>1493.042</ele>
        <time>2014-08-31T10:03:48Z</time>
      </trkpt>
      <trkpt lat="42.490439" lon="-6.388348">
        <ele>1493.026</ele>
        <time>2014-08-31T10:03:56Z</time>
      </trkpt>
      <trkpt lat="42.490435" lon="-6.388470">
        <ele>1493.007</ele>
        <time>2014-08-31T10:04:02Z</time>
      </trkpt>
      <trkpt lat="42.490400" lon="-6.388588">
        <ele>1493.045</ele>
        <time>2014-08-31T10:04:09Z</time>
      </trkpt>
      <trkpt lat="42.490385" lon="-6.388652">
        <ele>1493.054</ele>
        <time>2014-08-31T10:04:19Z</time>
      </trkpt>
      <trkpt lat="42.490355" lon="-6.388736">
        <ele>1492.086</ele>
        <time>2014-08-31T10:04:29Z</time>
      </trkpt>
      <trkpt lat="42.490312" lon="-6.388786">
        <ele>1492.081</ele>
        <time>2014-08-31T10:04:47Z</time>
      </trkpt>
      <trkpt lat="42.490298" lon="-6.388907">
        <ele>1491.041</ele>
        <time>2014-08-31T10:04:53Z</time>
      </trkpt>
      <trkpt lat="42.490245" lon="-6.389019">
        <ele>1491.057</ele>
        <time>2014-08-31T10:05:02Z</time>
      </trkpt>
      <trkpt lat="42.490199" lon="-6.389152">
        <ele>1491.054</ele>
        <time>2014-08-31T10:05:09Z</time>
      </trkpt>
      <trkpt lat="42.490150" lon="-6.389262">
        <ele>1491.011</ele>
        <time>2014-08-31T10:05:19Z</time>
      </trkpt>
      <trkpt lat="42.490125" lon="-6.389388">
        <ele>1491.021</ele>
        <time>2014-08-31T10:05:26Z</time>
      </trkpt>
      <trkpt lat="42.490094" lon="-6.389515">
        <ele>1491.003</ele>
        <time>2014-08-31T10:05:34Z</time>
      </trkpt>
      <trkpt lat="42.490089" lon="-6.389641">
        <ele>1490.007</ele>
        <time>2014-08-31T10:05:42Z</time>
      </trkpt>
      <trkpt lat="42.490071" lon="-6.389780">
        <ele>1491.018</ele>
        <time>2014-08-31T10:05:52Z</time>
      </trkpt>
      <trkpt lat="42.490084" lon="-6.389902">
        <ele>1491.087</ele>
        <time>2014-08-31T10:05:59Z</time>
      </trkpt>
      <trkpt lat="42.490070" lon="-6.390024">
        <ele>1492.089</ele>
        <time>2014-08-31T10:06:09Z</time>
      </trkpt>
      <trkpt lat="42.490067" lon="-6.390148">
        <ele>1492.044</ele>
        <time>2014-08-31T10:06:18Z</time>
      </trkpt>
      <trkpt lat="42.490082" lon="-6.390284">
        <ele>1492.044</ele>
        <time>2014-08-31T10:06:25Z</time>
      </trkpt>
      <trkpt lat="42.490089" lon="-6.390423">
        <ele>1492.070</ele>
        <time>2014-08-31T10:06:36Z</time>
      </trkpt>
      <trkpt lat="42.490106" lon="-6.390546">
        <ele>1493.067</ele>
        <time>2014-08-31T10:06:44Z</time>
      </trkpt>
      <trkpt lat="42.490111" lon="-6.390674">
        <ele>1493.024</ele>
        <time>2014-08-31T10:06:51Z</time>
      </trkpt>
      <trkpt lat="42.490085" lon="-6.390793">
        <ele>1494.004</ele>
        <time>2014-08-31T10:06:59Z</time>
      </trkpt>
      <trkpt lat="42.490050" lon="-6.390919">
        <ele>1494.014</ele>
        <time>2014-08-31T10:07:07Z</time>
      </trkpt>
      <trkpt lat="42.490002" lon="-6.391034">
        <ele>1494.007</ele>
        <time>2014-08-31T10:07:15Z</time>
      </trkpt>
      <trkpt lat="42.489980" lon="-6.391155">
        <ele>1494.089</ele>
        <time>2014-08-31T10:07:23Z</time>
      </trkpt>
      <trkpt lat="42.489965" lon="-6.391279">
        <ele>1495.038</ele>
        <time>2014-08-31T10:07:33Z</time>
      </trkpt>
      <trkpt lat="42.489978" lon="-6.391404">
        <ele>1495.010</ele>
        <time>2014-08-31T10:07:41Z</time>
      </trkpt>
      <trkpt lat="42.489995" lon="-6.391526">
        <ele>1495.065</ele>
        <time>2014-08-31T10:07:50Z</time>
      </trkpt>
      <trkpt lat="42.490009" lon="-6.391601">
        <ele>1496.075</ele>
        <time>2014-08-31T10:08:00Z</time>
      </trkpt>
      <trkpt lat="42.490054" lon="-6.391633">
        <ele>1497.021</ele>
        <time>2014-08-31T10:08:24Z</time>
      </trkpt>
      <trkpt lat="42.490107" lon="-6.391755">
        <ele>1498.028</ele>
        <time>2014-08-31T10:08:32Z</time>
      </trkpt>
      <trkpt lat="42.490160" lon="-6.391882">
        <ele>1498.054</ele>
        <time>2014-08-31T10:08:41Z</time>
      </trkpt>
      <trkpt lat="42.490228" lon="-6.391969">
        <ele>1497.056</ele>
        <time>2014-08-31T10:08:50Z</time>
      </trkpt>
      <trkpt lat="42.490311" lon="-6.392023">
        <ele>1497.011</ele>
        <time>2014-08-31T10:08:59Z</time>
      </trkpt>
      <trkpt lat="42.490388" lon="-6.392090">
        <ele>1497.007</ele>
        <time>2014-08-31T10:09:06Z</time>
      </trkpt>
      <trkpt lat="42.490456" lon="-6.392171">
        <ele>1497.072</ele>
        <time>2014-08-31T10:09:15Z</time>
      </trkpt>
      <trkpt lat="42.490536" lon="-6.392247">
        <ele>1496.061</ele>
        <time>2014-08-31T10:09:24Z</time>
      </trkpt>
      <trkpt lat="42.490598" lon="-6.392342">
        <ele>1496.073</ele>
        <time>2014-08-31T10:09:32Z</time>
      </trkpt>
      <trkpt lat="42.490654" lon="-6.392448">
        <ele>1496.018</ele>
        <time>2014-08-31T10:09:39Z</time>
      </trkpt>
      <trkpt lat="42.490730" lon="-6.392539">
        <ele>1497.018</ele>
        <time>2014-08-31T10:09:47Z</time>
      </trkpt>
      <trkpt lat="42.490813" lon="-6.392619">
        <ele>1496.064</ele>
        <time>2014-08-31T10:09:55Z</time>
      </trkpt>
      <trkpt lat="42.490893" lon="-6.392702">
        <ele>1496.061</ele>
        <time>2014-08-31T10:10:03Z</time>
      </trkpt>
      <trkpt lat="42.490959" lon="-6.392790">
        <ele>1497.044</ele>
        <time>2014-08-31T10:10:10Z</time>
      </trkpt>
      <trkpt lat="42.491036" lon="-6.392862">
        <ele>1496.005</ele>
        <time>2014-08-31T10:10:18Z</time>
      </trkpt>
      <trkpt lat="42.491108" lon="-6.392954">
        <ele>1495.015</ele>
        <time>2014-08-31T10:10:26Z</time>
      </trkpt>
      <trkpt lat="42.491146" lon="-6.393078">
        <ele>1495.007</ele>
        <time>2014-08-31T10:10:33Z</time>
      </trkpt>
      <trkpt lat="42.491191" lon="-6.393205">
        <ele>1495.051</ele>
        <time>2014-08-31T10:10:42Z</time>
      </trkpt>
      <trkpt lat="42.491221" lon="-6.393342">
        <ele>1495.090</ele>
        <time>2014-08-31T10:10:52Z</time>
      </trkpt>
      <trkpt lat="42.491202" lon="-6.393445">
        <ele>1495.082</ele>
        <time>2014-08-31T10:11:02Z</time>
      </trkpt>
      <trkpt lat="42.491156" lon="-6.393567">
        <ele>1496.047</ele>
        <time>2014-08-31T10:11:09Z</time>
      </trkpt>
      <trkpt lat="42.491123" lon="-6.393684">
        <ele>1495.057</ele>
        <time>2014-08-31T10:11:17Z</time>
      </trkpt>
      <trkpt lat="42.491054" lon="-6.393770">
        <ele>1495.013</ele>
        <time>2014-08-31T10:11:25Z</time>
      </trkpt>
      <trkpt lat="42.490996" lon="-6.393869">
        <ele>1494.020</ele>
        <time>2014-08-31T10:11:33Z</time>
      </trkpt>
      <trkpt lat="42.490948" lon="-6.393988">
        <ele>1493.022</ele>
        <time>2014-08-31T10:11:43Z</time>
      </trkpt>
      <trkpt lat="42.490891" lon="-6.394097">
        <ele>1493.062</ele>
        <time>2014-08-31T10:11:53Z</time>
      </trkpt>
      <trkpt lat="42.490842" lon="-6.394205">
        <ele>1493.008</ele>
        <time>2014-08-31T10:12:00Z</time>
      </trkpt>
      <trkpt lat="42.490798" lon="-6.394317">
        <ele>1494.007</ele>
        <time>2014-08-31T10:12:08Z</time>
      </trkpt>
      <trkpt lat="42.490776" lon="-6.394441">
        <ele>1493.069</ele>
        <time>2014-08-31T10:12:16Z</time>
      </trkpt>
      <trkpt lat="42.490770" lon="-6.394566">
        <ele>1493.048</ele>
        <time>2014-08-31T10:12:23Z</time>
      </trkpt>
      <trkpt lat="42.490763" lon="-6.394692">
        <ele>1493.010</ele>
        <time>2014-08-31T10:12:31Z</time>
      </trkpt>
      <trkpt lat="42.490795" lon="-6.394808">
        <ele>1493.015</ele>
        <time>2014-08-31T10:12:40Z</time>
      </trkpt>
      <trkpt lat="42.490824" lon="-6.394926">
        <ele>1493.065</ele>
        <time>2014-08-31T10:12:48Z</time>
      </trkpt>
      <trkpt lat="42.490792" lon="-6.395053">
        <ele>1494.031</ele>
        <time>2014-08-31T10:12:57Z</time>
      </trkpt>
      <trkpt lat="42.490807" lon="-6.395178">
        <ele>1494.028</ele>
        <time>2014-08-31T10:13:03Z</time>
      </trkpt>
      <trkpt lat="42.490837" lon="-6.395320">
        <ele>1494.011</ele>
        <time>2014-08-31T10:13:12Z</time>
      </trkpt>
      <trkpt lat="42.490892" lon="-6.395435">
        <ele>1495.021</ele>
        <time>2014-08-31T10:13:20Z</time>
      </trkpt>
      <trkpt lat="42.490921" lon="-6.395555">
        <ele>1495.003</ele>
        <time>2014-08-31T10:13:28Z</time>
      </trkpt>
      <trkpt lat="42.490941" lon="-6.395690">
        <ele>1496.007</ele>
        <time>2014-08-31T10:13:37Z</time>
      </trkpt>
      <trkpt lat="42.490975" lon="-6.395811">
        <ele>1496.048</ele>
        <time>2014-08-31T10:13:45Z</time>
      </trkpt>
      <trkpt lat="42.491002" lon="-6.395939">
        <ele>1496.027</ele>
        <time>2014-08-31T10:13:53Z</time>
      </trkpt>
      <trkpt lat="42.491044" lon="-6.396052">
        <ele>1497.089</ele>
        <time>2014-08-31T10:14:01Z</time>
      </trkpt>
      <trkpt lat="42.491075" lon="-6.396175">
        <ele>1497.044</ele>
        <time>2014-08-31T10:14:10Z</time>
      </trkpt>
      <trkpt lat="42.491125" lon="-6.396289">
        <ele>1497.054</ele>
        <time>2014-08-31T10:14:20Z</time>
      </trkpt>
      <trkpt lat="42.491157" lon="-6.396415">
        <ele>1497.040</ele>
        <time>2014-08-31T10:14:28Z</time>
      </trkpt>
      <trkpt lat="42.491188" lon="-6.396534">
        <ele>1498.037</ele>
        <time>2014-08-31T10:14:35Z</time>
      </trkpt>
      <trkpt lat="42.491220" lon="-6.396658">
        <ele>1498.055</ele>
        <time>2014-08-31T10:14:44Z</time>
      </trkpt>
      <trkpt lat="42.491236" lon="-6.396781">
        <ele>1498.007</ele>
        <time>2014-08-31T10:14:52Z</time>
      </trkpt>
      <trkpt lat="42.491256" lon="-6.396900">
        <ele>1498.017</ele>
        <time>2014-08-31T10:15:00Z</time>
      </trkpt>
      <trkpt lat="42.491282" lon="-6.397032">
        <ele>1499.007</ele>
        <time>2014-08-31T10:15:10Z</time>
      </trkpt>
      <trkpt lat="42.491321" lon="-6.397143">
        <ele>1499.062</ele>
        <time>2014-08-31T10:15:18Z</time>
      </trkpt>
      <trkpt lat="42.491357" lon="-6.397259">
        <ele>1500.041</ele>
        <time>2014-08-31T10:15:26Z</time>
      </trkpt>
      <trkpt lat="42.491430" lon="-6.397333">
        <ele>1500.033</ele>
        <time>2014-08-31T10:15:35Z</time>
      </trkpt>
      <trkpt lat="42.491479" lon="-6.397447">
        <ele>1501.018</ele>
        <time>2014-08-31T10:15:42Z</time>
      </trkpt>
      <trkpt lat="42.491544" lon="-6.397543">
        <ele>1501.078</ele>
        <time>2014-08-31T10:15:52Z</time>
      </trkpt>
      <trkpt lat="42.491626" lon="-6.397638">
        <ele>1502.054</ele>
        <time>2014-08-31T10:16:01Z</time>
      </trkpt>
      <trkpt lat="42.491688" lon="-6.397730">
        <ele>1502.051</ele>
        <time>2014-08-31T10:16:09Z</time>
      </trkpt>
      <trkpt lat="42.491763" lon="-6.397799">
        <ele>1502.033</ele>
        <time>2014-08-31T10:16:17Z</time>
      </trkpt>
      <trkpt lat="42.491828" lon="-6.397892">
        <ele>1502.023</ele>
        <time>2014-08-31T10:16:25Z</time>
      </trkpt>
      <trkpt lat="42.491908" lon="-6.397981">
        <ele>1502.015</ele>
        <time>2014-08-31T10:16:34Z</time>
      </trkpt>
      <trkpt lat="42.491977" lon="-6.398062">
        <ele>1502.007</ele>
        <time>2014-08-31T10:16:43Z</time>
      </trkpt>
      <trkpt lat="42.492062" lon="-6.398125">
        <ele>1501.030</ele>
        <time>2014-08-31T10:16:51Z</time>
      </trkpt>
      <trkpt lat="42.492105" lon="-6.398225">
        <ele>1501.059</ele>
        <time>2014-08-31T10:17:01Z</time>
      </trkpt>
      <trkpt lat="42.492112" lon="-6.398349">
        <ele>1502.081</ele>
        <time>2014-08-31T10:17:09Z</time>
      </trkpt>
      <trkpt lat="42.492078" lon="-6.398424">
        <ele>1503.036</ele>
        <time>2014-08-31T10:17:19Z</time>
      </trkpt>
      <trkpt lat="42.492036" lon="-6.398537">
        <ele>1503.016</ele>
        <time>2014-08-31T10:17:26Z</time>
      </trkpt>
      <trkpt lat="42.491964" lon="-6.398629">
        <ele>1503.092</ele>
        <time>2014-08-31T10:17:33Z</time>
      </trkpt>
      <trkpt lat="42.491918" lon="-6.398743">
        <ele>1502.019</ele>
        <time>2014-08-31T10:17:41Z</time>
      </trkpt>
      <trkpt lat="42.491905" lon="-6.398867">
        <ele>1502.067</ele>
        <time>2014-08-31T10:17:48Z</time>
      </trkpt>
      <trkpt lat="42.491896" lon="-6.398993">
        <ele>1503.081</ele>
        <time>2014-08-31T10:17:58Z</time>
      </trkpt>
      <trkpt lat="42.491879" lon="-6.399128">
        <ele>1504.019</ele>
        <time>2014-08-31T10:18:06Z</time>
      </trkpt>
      <trkpt lat="42.491854" lon="-6.399252">
        <ele>1504.007</ele>
        <time>2014-08-31T10:18:14Z</time>
      </trkpt>
      <trkpt lat="42.491811" lon="-6.399376">
        <ele>1504.063</ele>
        <time>2014-08-31T10:18:24Z</time>
      </trkpt>
      <trkpt lat="42.491772" lon="-6.399492">
        <ele>1504.032</ele>
        <time>2014-08-31T10:18:32Z</time>
      </trkpt>
      <trkpt lat="42.491746" lon="-6.399613">
        <ele>1504.054</ele>
        <time>2014-08-31T10:18:42Z</time>
      </trkpt>
      <trkpt lat="42.491732" lon="-6.399740">
        <ele>1505.099</ele>
        <time>2014-08-31T10:18:49Z</time>
      </trkpt>
      <trkpt lat="42.491723" lon="-6.399869">
        <ele>1505.079</ele>
        <time>2014-08-31T10:18:59Z</time>
      </trkpt>
      <trkpt lat="42.491726" lon="-6.400000">
        <ele>1505.015</ele>
        <time>2014-08-31T10:19:09Z</time>
      </trkpt>
      <trkpt lat="42.491752" lon="-6.400118">
        <ele>1506.012</ele>
        <time>2014-08-31T10:19:17Z</time>
      </trkpt>
      <trkpt lat="42.491812" lon="-6.400209">
        <ele>1506.045</ele>
        <time>2014-08-31T10:19:25Z</time>
      </trkpt>
      <trkpt lat="42.491866" lon="-6.400323">
        <ele>1507.047</ele>
        <time>2014-08-31T10:19:35Z</time>
      </trkpt>
      <trkpt lat="42.491902" lon="-6.400445">
        <ele>1508.011</ele>
        <time>2014-08-31T10:19:45Z</time>
      </trkpt>
      <trkpt lat="42.491920" lon="-6.400566">
        <ele>1508.007</ele>
        <time>2014-08-31T10:19:54Z</time>
      </trkpt>
      <trkpt lat="42.491961" lon="-6.400698">
        <ele>1509.011</ele>
        <time>2014-08-31T10:20:03Z</time>
      </trkpt>
      <trkpt lat="42.491990" lon="-6.400832">
        <ele>1510.090</ele>
        <time>2014-08-31T10:20:13Z</time>
      </trkpt>
      <trkpt lat="42.492027" lon="-6.400937">
        <ele>1511.062</ele>
        <time>2014-08-31T10:20:23Z</time>
      </trkpt>
      <trkpt lat="42.492038" lon="-6.401076">
        <ele>1511.027</ele>
        <time>2014-08-31T10:20:32Z</time>
      </trkpt>
      <trkpt lat="42.492068" lon="-6.401200">
        <ele>1511.037</ele>
        <time>2014-08-31T10:20:40Z</time>
      </trkpt>
      <trkpt lat="42.492095" lon="-6.401324">
        <ele>1512.043</ele>
        <time>2014-08-31T10:20:49Z</time>
      </trkpt>
      <trkpt lat="42.492141" lon="-6.401443">
        <ele>1512.020</ele>
        <time>2014-08-31T10:20:57Z</time>
      </trkpt>
      <trkpt lat="42.492183" lon="-6.401561">
        <ele>1512.024</ele>
        <time>2014-08-31T10:21:05Z</time>
      </trkpt>
      <trkpt lat="42.492212" lon="-6.401684">
        <ele>1512.004</ele>
        <time>2014-08-31T10:21:12Z</time>
      </trkpt>
      <trkpt lat="42.492247" lon="-6.401804">
        <ele>1512.014</ele>
        <time>2014-08-31T10:21:20Z</time>
      </trkpt>
      <trkpt lat="42.492265" lon="-6.401930">
        <ele>1513.007</ele>
        <time>2014-08-31T10:21:29Z</time>
      </trkpt>
      <trkpt lat="42.492306" lon="-6.402056">
        <ele>1513.019</ele>
        <time>2014-08-31T10:21:36Z</time>
      </trkpt>
      <trkpt lat="42.492359" lon="-6.402170">
        <ele>1513.048</ele>
        <time>2014-08-31T10:21:44Z</time>
      </trkpt>
      <trkpt lat="42.492388" lon="-6.402285">
        <ele>1513.090</ele>
        <time>2014-08-31T10:21:52Z</time>
      </trkpt>
      <trkpt lat="42.492394" lon="-6.402412">
        <ele>1513.075</ele>
        <time>2014-08-31T10:22:01Z</time>
      </trkpt>
      <trkpt lat="42.492426" lon="-6.402534">
        <ele>1513.015</ele>
        <time>2014-08-31T10:22:09Z</time>
      </trkpt>
      <trkpt lat="42.492461" lon="-6.402662">
        <ele>1513.061</ele>
        <time>2014-08-31T10:22:16Z</time>
      </trkpt>
      <trkpt lat="42.492499" lon="-6.402774">
        <ele>1514.098</ele>
        <time>2014-08-31T10:22:26Z</time>
      </trkpt>
      <trkpt lat="42.492475" lon="-6.402896">
        <ele>1514.082</ele>
        <time>2014-08-31T10:22:34Z</time>
      </trkpt>
      <trkpt lat="42.492467" lon="-6.403021">
        <ele>1514.043</ele>
        <time>2014-08-31T10:22:43Z</time>
      </trkpt>
      <trkpt lat="42.492486" lon="-6.403153">
        <ele>1514.017</ele>
        <time>2014-08-31T10:22:53Z</time>
      </trkpt>
      <trkpt lat="42.492463" lon="-6.403273">
        <ele>1515.007</ele>
        <time>2014-08-31T10:23:00Z</time>
      </trkpt>
      <trkpt lat="42.492453" lon="-6.403398">
        <ele>1516.045</ele>
        <time>2014-08-31T10:23:10Z</time>
      </trkpt>
      <trkpt lat="42.492461" lon="-6.403529">
        <ele>1517.064</ele>
        <time>2014-08-31T10:23:21Z</time>
      </trkpt>
      <trkpt lat="42.492479" lon="-6.403659">
        <ele>1517.036</ele>
        <time>2014-08-31T10:23:29Z</time>
      </trkpt>
      <trkpt lat="42.492511" lon="-6.403784">
        <ele>1519.071</ele>
        <time>2014-08-31T10:23:39Z</time>
      </trkpt>
      <trkpt lat="42.492558" lon="-6.403895">
        <ele>1519.041</ele>
        <time>2014-08-31T10:23:48Z</time>
      </trkpt>
      <trkpt lat="42.492636" lon="-6.403958">
        <ele>1519.017</ele>
        <time>2014-08-31T10:23:55Z</time>
      </trkpt>
      <trkpt lat="42.492624" lon="-6.404050">
        <ele>1520.084</ele>
        <time>2014-08-31T10:24:05Z</time>
      </trkpt>
      <trkpt lat="42.492600" lon="-6.404170">
        <ele>1521.039</ele>
        <time>2014-08-31T10:24:13Z</time>
      </trkpt>
      <trkpt lat="42.492594" lon="-6.404298">
        <ele>1521.001</ele>
        <time>2014-08-31T10:24:21Z</time>
      </trkpt>
      <trkpt lat="42.492564" lon="-6.404421">
        <ele>1522.021</ele>
        <time>2014-08-31T10:24:29Z</time>
      </trkpt>
      <trkpt lat="42.492553" lon="-6.404542">
        <ele>1523.007</ele>
        <time>2014-08-31T10:24:36Z</time>
      </trkpt>
      <trkpt lat="42.492556" lon="-6.404684">
        <ele>1524.090</ele>
        <time>2014-08-31T10:24:45Z</time>
      </trkpt>
      <trkpt lat="42.492532" lon="-6.404802">
        <ele>1524.019</ele>
        <time>2014-08-31T10:24:53Z</time>
      </trkpt>
      <trkpt lat="42.492506" lon="-6.404943">
        <ele>1524.051</ele>
        <time>2014-08-31T10:25:01Z</time>
      </trkpt>
      <trkpt lat="42.492476" lon="-6.405044">
        <ele>1524.086</ele>
        <time>2014-08-31T10:25:11Z</time>
      </trkpt>
      <trkpt lat="42.492422" lon="-6.405151">
        <ele>1525.026</ele>
        <time>2014-08-31T10:25:21Z</time>
      </trkpt>
      <trkpt lat="42.492360" lon="-6.405253">
        <ele>1525.052</ele>
        <time>2014-08-31T10:25:31Z</time>
      </trkpt>
      <trkpt lat="42.492306" lon="-6.405366">
        <ele>1527.079</ele>
        <time>2014-08-31T10:25:42Z</time>
      </trkpt>
      <trkpt lat="42.492249" lon="-6.405473">
        <ele>1528.015</ele>
        <time>2014-08-31T10:25:50Z</time>
      </trkpt>
      <trkpt lat="42.492181" lon="-6.405569">
        <ele>1529.065</ele>
        <time>2014-08-31T10:26:00Z</time>
      </trkpt>
      <trkpt lat="42.492096" lon="-6.405634">
        <ele>1530.011</ele>
        <time>2014-08-31T10:26:10Z</time>
      </trkpt>
      <trkpt lat="42.491999" lon="-6.405653">
        <ele>1530.007</ele>
        <time>2014-08-31T10:26:19Z</time>
      </trkpt>
      <trkpt lat="42.491929" lon="-6.405662">
        <ele>1530.038</ele>
        <time>2014-08-31T10:26:29Z</time>
      </trkpt>
      <trkpt lat="42.491866" lon="-6.405693">
        <ele>1528.097</ele>
        <time>2014-08-31T10:26:39Z</time>
      </trkpt>
      <trkpt lat="42.491769" lon="-6.405703">
        <ele>1529.079</ele>
        <time>2014-08-31T10:26:47Z</time>
      </trkpt>
      <trkpt lat="42.491676" lon="-6.405686">
        <ele>1529.014</ele>
        <time>2014-08-31T10:26:56Z</time>
      </trkpt>
      <trkpt lat="42.491580" lon="-6.405700">
        <ele>1530.014</ele>
        <time>2014-08-31T10:27:03Z</time>
      </trkpt>
      <trkpt lat="42.491504" lon="-6.405783">
        <ele>1531.020</ele>
        <time>2014-08-31T10:27:08Z</time>
      </trkpt>
      <trkpt lat="42.491413" lon="-6.405828">
        <ele>1531.037</ele>
        <time>2014-08-31T10:27:17Z</time>
      </trkpt>
      <trkpt lat="42.491331" lon="-6.405850">
        <ele>1530.024</ele>
        <time>2014-08-31T10:27:27Z</time>
      </trkpt>
      <trkpt lat="42.491285" lon="-6.405836">
        <ele>1531.004</ele>
        <time>2014-08-31T10:27:37Z</time>
      </trkpt>
      <trkpt lat="42.491258" lon="-6.405892">
        <ele>1531.014</ele>
        <time>2014-08-31T10:27:47Z</time>
      </trkpt>
      <trkpt lat="42.491204" lon="-6.405891">
        <ele>1532.007</ele>
        <time>2014-08-31T10:27:58Z</time>
      </trkpt>
      <trkpt lat="42.491109" lon="-6.405910">
        <ele>1534.099</ele>
        <time>2014-08-31T10:28:04Z</time>
      </trkpt>
      <trkpt lat="42.491012" lon="-6.405921">
        <ele>1535.098</ele>
        <time>2014-08-31T10:28:12Z</time>
      </trkpt>
      <trkpt lat="42.490922" lon="-6.405904">
        <ele>1535.080</ele>
        <time>2014-08-31T10:28:19Z</time>
      </trkpt>
      <trkpt lat="42.490828" lon="-6.405931">
        <ele>1535.045</ele>
        <time>2014-08-31T10:28:28Z</time>
      </trkpt>
      <trkpt lat="42.490761" lon="-6.405978">
        <ele>1535.085</ele>
        <time>2014-08-31T10:28:38Z</time>
      </trkpt>
      <trkpt lat="42.490680" lon="-6.406045">
        <ele>1534.091</ele>
        <time>2014-08-31T10:28:47Z</time>
      </trkpt>
      <trkpt lat="42.490626" lon="-6.406113">
        <ele>1535.088</ele>
        <time>2014-08-31T10:28:58Z</time>
      </trkpt>
      <trkpt lat="42.490572" lon="-6.406212">
        <ele>1535.076</ele>
        <time>2014-08-31T10:29:06Z</time>
      </trkpt>
      <trkpt lat="42.490484" lon="-6.406273">
        <ele>1535.090</ele>
        <time>2014-08-31T10:29:16Z</time>
      </trkpt>
      <trkpt lat="42.490418" lon="-6.406269">
        <ele>1535.019</ele>
        <time>2014-08-31T10:29:26Z</time>
      </trkpt>
      <trkpt lat="42.490316" lon="-6.406289">
        <ele>1535.007</ele>
        <time>2014-08-31T10:29:34Z</time>
      </trkpt>
      <trkpt lat="42.490225" lon="-6.406294">
        <ele>1536.054</ele>
        <time>2014-08-31T10:29:43Z</time>
      </trkpt>
      <trkpt lat="42.490143" lon="-6.406299">
        <ele>1537.053</ele>
        <time>2014-08-31T10:29:53Z</time>
      </trkpt>
      <trkpt lat="42.490062" lon="-6.406303">
        <ele>1538.055</ele>
        <time>2014-08-31T10:30:03Z</time>
      </trkpt>
      <trkpt lat="42.489967" lon="-6.406360">
        <ele>1539.010</ele>
        <time>2014-08-31T10:30:13Z</time>
      </trkpt>
      <trkpt lat="42.489882" lon="-6.406412">
        <ele>1540.030</ele>
        <time>2014-08-31T10:30:23Z</time>
      </trkpt>
      <trkpt lat="42.489803" lon="-6.406483">
        <ele>1541.096</ele>
        <time>2014-08-31T10:30:33Z</time>
      </trkpt>
      <trkpt lat="42.489760" lon="-6.406566">
        <ele>1542.083</ele>
        <time>2014-08-31T10:30:43Z</time>
      </trkpt>
      <trkpt lat="42.489699" lon="-6.406660">
        <ele>1543.017</ele>
        <time>2014-08-31T10:30:52Z</time>
      </trkpt>
      <trkpt lat="42.489640" lon="-6.406729">
        <ele>1544.087</ele>
        <time>2014-08-31T10:31:02Z</time>
      </trkpt>
      <trkpt lat="42.489587" lon="-6.406824">
        <ele>1544.015</ele>
        <time>2014-08-31T10:31:12Z</time>
      </trkpt>
      <trkpt lat="42.489600" lon="-6.406947">
        <ele>1544.007</ele>
        <time>2014-08-31T10:31:21Z</time>
      </trkpt>
      <trkpt lat="42.489626" lon="-6.407070">
        <ele>1545.028</ele>
        <time>2014-08-31T10:31:30Z</time>
      </trkpt>
      <trkpt lat="42.489617" lon="-6.407196">
        <ele>1547.087</ele>
        <time>2014-08-31T10:31:40Z</time>
      </trkpt>
      <trkpt lat="42.489645" lon="-6.407317">
        <ele>1548.089</ele>
        <time>2014-08-31T10:31:49Z</time>
      </trkpt>
      <trkpt lat="42.489683" lon="-6.407440">
        <ele>1549.014</ele>
        <time>2014-08-31T10:31:59Z</time>
      </trkpt>
      <trkpt lat="42.489715" lon="-6.407557">
        <ele>1549.014</ele>
        <time>2014-08-31T10:32:08Z</time>
      </trkpt>
      <trkpt lat="42.489739" lon="-6.407688">
        <ele>1549.050</ele>
        <time>2014-08-31T10:32:17Z</time>
      </trkpt>
      <trkpt lat="42.489769" lon="-6.407819">
        <ele>1550.047</ele>
        <time>2014-08-31T10:32:25Z</time>
      </trkpt>
      <trkpt lat="42.489804" lon="-6.407935">
        <ele>1550.062</ele>
        <time>2014-08-31T10:32:33Z</time>
      </trkpt>
      <trkpt lat="42.489842" lon="-6.408036">
        <ele>1550.083</ele>
        <time>2014-08-31T10:32:43Z</time>
      </trkpt>
      <trkpt lat="42.489898" lon="-6.408138">
        <ele>1551.011</ele>
        <time>2014-08-31T10:32:53Z</time>
      </trkpt>
      <trkpt lat="42.489953" lon="-6.408247">
        <ele>1551.007</ele>
        <time>2014-08-31T10:33:01Z</time>
      </trkpt>
      <trkpt lat="42.490005" lon="-6.408355">
        <ele>1551.053</ele>
        <time>2014-08-31T10:33:10Z</time>
      </trkpt>
      <trkpt lat="42.490041" lon="-6.408397">
        <ele>1551.012</ele>
        <time>2014-08-31T10:33:21Z</time>
      </trkpt>
      <trkpt lat="42.490080" lon="-6.408508">
        <ele>1552.014</ele>
        <time>2014-08-31T10:33:29Z</time>
      </trkpt>
      <trkpt lat="42.490125" lon="-6.408615">
        <ele>1553.019</ele>
        <time>2014-08-31T10:33:37Z</time>
      </trkpt>
      <trkpt lat="42.490181" lon="-6.408720">
        <ele>1554.049</ele>
        <time>2014-08-31T10:33:46Z</time>
      </trkpt>
      <trkpt lat="42.490209" lon="-6.408821">
        <ele>1554.075</ele>
        <time>2014-08-31T10:33:56Z</time>
      </trkpt>
      <trkpt lat="42.490242" lon="-6.408938">
        <ele>1554.052</ele>
        <time>2014-08-31T10:34:04Z</time>
      </trkpt>
      <trkpt lat="42.490276" lon="-6.409066">
        <ele>1554.017</ele>
        <time>2014-08-31T10:34:13Z</time>
      </trkpt>
      <trkpt lat="42.490332" lon="-6.409166">
        <ele>1555.087</ele>
        <time>2014-08-31T10:34:23Z</time>
      </trkpt>
      <trkpt lat="42.490365" lon="-6.409288">
        <ele>1555.015</ele>
        <time>2014-08-31T10:34:32Z</time>
      </trkpt>
      <trkpt lat="42.490393" lon="-6.409417">
        <ele>1555.007</ele>
        <time>2014-08-31T10:34:42Z</time>
      </trkpt>
      <trkpt lat="42.490423" lon="-6.409544">
        <ele>1555.078</ele>
        <time>2014-08-31T10:34:51Z</time>
      </trkpt>
      <trkpt lat="42.490461" lon="-6.409673">
        <ele>1555.097</ele>
        <time>2014-08-31T10:34:58Z</time>
      </trkpt>
      <trkpt lat="42.490483" lon="-6.409810">
        <ele>1555.049</ele>
        <time>2014-08-31T10:35:09Z</time>
      </trkpt>
      <trkpt lat="42.490496" lon="-6.409937">
        <ele>1556.014</ele>
        <time>2014-08-31T10:35:17Z</time>
      </trkpt>
      <trkpt lat="42.490534" lon="-6.410070">
        <ele>1556.084</ele>
        <time>2014-08-31T10:35:26Z</time>
      </trkpt>
      <trkpt lat="42.490553" lon="-6.410203">
        <ele>1556.060</ele>
        <time>2014-08-31T10:35:35Z</time>
      </trkpt>
      <trkpt lat="42.490557" lon="-6.410336">
        <ele>1556.077</ele>
        <time>2014-08-31T10:35:43Z</time>
      </trkpt>
      <trkpt lat="42.490552" lon="-6.410464">
        <ele>1556.088</ele>
        <time>2014-08-31T10:35:52Z</time>
      </trkpt>
      <trkpt lat="42.490563" lon="-6.410588">
        <ele>1555.024</ele>
        <time>2014-08-31T10:36:00Z</time>
      </trkpt>
      <trkpt lat="42.490574" lon="-6.410715">
        <ele>1555.026</ele>
        <time>2014-08-31T10:36:08Z</time>
      </trkpt>
      <trkpt lat="42.490580" lon="-6.410838">
        <ele>1555.007</ele>
        <time>2014-08-31T10:36:16Z</time>
      </trkpt>
      <trkpt lat="42.490576" lon="-6.410963">
        <ele>1555.025</ele>
        <time>2014-08-31T10:36:26Z</time>
      </trkpt>
      <trkpt lat="42.490582" lon="-6.411044">
        <ele>1555.084</ele>
        <time>2014-08-31T10:36:36Z</time>
      </trkpt>
      <trkpt lat="42.490595" lon="-6.411103">
        <ele>1555.026</ele>
        <time>2014-08-31T10:36:49Z</time>
      </trkpt>
      <trkpt lat="42.490587" lon="-6.411232">
        <ele>1555.031</ele>
        <time>2014-08-31T10:36:56Z</time>
      </trkpt>
      <trkpt lat="42.490571" lon="-6.411314">
        <ele>1555.041</ele>
        <time>2014-08-31T10:37:07Z</time>
      </trkpt>
      <trkpt lat="42.490543" lon="-6.411436">
        <ele>1555.017</ele>
        <time>2014-08-31T10:37:17Z</time>
      </trkpt>
      <trkpt lat="42.490515" lon="-6.411492">
        <ele>1555.084</ele>
        <time>2014-08-31T10:37:28Z</time>
      </trkpt>
      <trkpt lat="42.490481" lon="-6.411614">
        <ele>1554.067</ele>
        <time>2014-08-31T10:37:35Z</time>
      </trkpt>
      <trkpt lat="42.490479" lon="-6.411738">
        <ele>1554.081</ele>
        <time>2014-08-31T10:37:44Z</time>
      </trkpt>
      <trkpt lat="42.490430" lon="-6.411843">
        <ele>1555.019</ele>
        <time>2014-08-31T10:37:51Z</time>
      </trkpt>
      <trkpt lat="42.490381" lon="-6.411923">
        <ele>1555.007</ele>
        <time>2014-08-31T10:38:01Z</time>
      </trkpt>
      <trkpt lat="42.490360" lon="-6.411889">
        <ele>1555.013</ele>
        <time>2014-08-31T10:38:41Z</time>
      </trkpt>
      <trkpt lat="42.490328" lon="-6.411942">
        <ele>1555.062</ele>
        <time>2014-08-31T10:38:51Z</time>
      </trkpt>
      <trkpt lat="42.490291" lon="-6.412054">
        <ele>1555.024</ele>
        <time>2014-08-31T10:38:56Z</time>
      </trkpt>
      <trkpt lat="42.490253" lon="-6.412176">
        <ele>1555.029</ele>
        <time>2014-08-31T10:39:04Z</time>
      </trkpt>
      <trkpt lat="42.490212" lon="-6.412301">
        <ele>1554.029</ele>
        <time>2014-08-31T10:39:14Z</time>
      </trkpt>
      <trkpt lat="42.490152" lon="-6.412408">
        <ele>1554.045</ele>
        <time>2014-08-31T10:39:20Z</time>
      </trkpt>
      <trkpt lat="42.490092" lon="-6.412505">
        <ele>1555.072</ele>
        <time>2014-08-31T10:39:28Z</time>
      </trkpt>
      <trkpt lat="42.490027" lon="-6.412602">
        <ele>1555.088</ele>
        <time>2014-08-31T10:39:35Z</time>
      </trkpt>
      <trkpt lat="42.489971" lon="-6.412697">
        <ele>1555.024</ele>
        <time>2014-08-31T10:39:44Z</time>
      </trkpt>
      <trkpt lat="42.489892" lon="-6.412770">
        <ele>1555.026</ele>
        <time>2014-08-31T10:39:54Z</time>
      </trkpt>
      <trkpt lat="42.489822" lon="-6.412869">
        <ele>1556.007</ele>
        <time>2014-08-31T10:40:03Z</time>
      </trkpt>
      <trkpt lat="42.489746" lon="-6.412940">
        <ele>1555.025</ele>
        <time>2014-08-31T10:40:11Z</time>
      </trkpt>
      <trkpt lat="42.489694" lon="-6.413049">
        <ele>1555.024</ele>
        <time>2014-08-31T10:40:20Z</time>
      </trkpt>
      <trkpt lat="42.489643" lon="-6.413158">
        <ele>1555.066</ele>
        <time>2014-08-31T10:40:28Z</time>
      </trkpt>
      <trkpt lat="42.489603" lon="-6.413270">
        <ele>1555.021</ele>
        <time>2014-08-31T10:40:36Z</time>
      </trkpt>
      <trkpt lat="42.489606" lon="-6.413405">
        <ele>1555.041</ele>
        <time>2014-08-31T10:40:43Z</time>
      </trkpt>
      <trkpt lat="42.489611" lon="-6.413532">
        <ele>1555.087</ele>
        <time>2014-08-31T10:40:50Z</time>
      </trkpt>
      <trkpt lat="42.489591" lon="-6.413652">
        <ele>1555.024</ele>
        <time>2014-08-31T10:40:58Z</time>
      </trkpt>
      <trkpt lat="42.489584" lon="-6.413778">
        <ele>1556.046</ele>
        <time>2014-08-31T10:41:08Z</time>
      </trkpt>
      <trkpt lat="42.489582" lon="-6.413907">
        <ele>1556.088</ele>
        <time>2014-08-31T10:41:15Z</time>
      </trkpt>
      <trkpt lat="42.489582" lon="-6.414041">
        <ele>1557.016</ele>
        <time>2014-08-31T10:41:25Z</time>
      </trkpt>
      <trkpt lat="42.489598" lon="-6.414165">
        <ele>1557.007</ele>
        <time>2014-08-31T10:41:33Z</time>
      </trkpt>
      <trkpt lat="42.489606" lon="-6.414291">
        <ele>1557.041</ele>
        <time>2014-08-31T10:41:41Z</time>
      </trkpt>
      <trkpt lat="42.489630" lon="-6.414411">
        <ele>1558.030</ele>
        <time>2014-08-31T10:41:47Z</time>
      </trkpt>
      <trkpt lat="42.489614" lon="-6.414542">
        <ele>1559.052</ele>
        <time>2014-08-31T10:41:55Z</time>
      </trkpt>
      <trkpt lat="42.489608" lon="-6.414677">
        <ele>1559.017</ele>
        <time>2014-08-31T10:42:04Z</time>
      </trkpt>
      <trkpt lat="42.489612" lon="-6.414800">
        <ele>1560.037</ele>
        <time>2014-08-31T10:42:11Z</time>
      </trkpt>
      <trkpt lat="42.489598" lon="-6.414939">
        <ele>1560.083</ele>
        <time>2014-08-31T10:42:19Z</time>
      </trkpt>
      <trkpt lat="42.489607" lon="-6.415063">
        <ele>1560.010</ele>
        <time>2014-08-31T10:42:26Z</time>
      </trkpt>
      <trkpt lat="42.489609" lon="-6.415186">
        <ele>1560.025</ele>
        <time>2014-08-31T10:42:34Z</time>
      </trkpt>
      <trkpt lat="42.489620" lon="-6.415312">
        <ele>1560.026</ele>
        <time>2014-08-31T10:42:43Z</time>
      </trkpt>
      <trkpt lat="42.489629" lon="-6.415446">
        <ele>1559.008</ele>
        <time>2014-08-31T10:42:51Z</time>
      </trkpt>
      <trkpt lat="42.489626" lon="-6.415579">
        <ele>1559.007</ele>
        <time>2014-08-31T10:42:59Z</time>
      </trkpt>
      <trkpt lat="42.489627" lon="-6.415711">
        <ele>1558.089</ele>
        <time>2014-08-31T10:43:08Z</time>
      </trkpt>
      <trkpt lat="42.489617" lon="-6.415867">
        <ele>1558.058</ele>
        <time>2014-08-31T10:43:17Z</time>
      </trkpt>
      <trkpt lat="42.489601" lon="-6.415997">
        <ele>1559.070</ele>
        <time>2014-08-31T10:43:26Z</time>
      </trkpt>
      <trkpt lat="42.489579" lon="-6.416129">
        <ele>1559.035</ele>
        <time>2014-08-31T10:43:35Z</time>
      </trkpt>
      <trkpt lat="42.489542" lon="-6.416254">
        <ele>1560.045</ele>
        <time>2014-08-31T10:43:43Z</time>
      </trkpt>
      <trkpt lat="42.489523" lon="-6.416378">
        <ele>1560.091</ele>
        <time>2014-08-31T10:43:49Z</time>
      </trkpt>
      <trkpt lat="42.489511" lon="-6.416505">
        <ele>1560.028</ele>
        <time>2014-08-31T10:43:58Z</time>
      </trkpt>
      <trkpt lat="42.489537" lon="-6.416628">
        <ele>1560.077</ele>
        <time>2014-08-31T10:44:05Z</time>
      </trkpt>
      <trkpt lat="42.489573" lon="-6.416751">
        <ele>1560.061</ele>
        <time>2014-08-31T10:44:12Z</time>
      </trkpt>
      <trkpt lat="42.489580" lon="-6.416876">
        <ele>1559.027</ele>
        <time>2014-08-31T10:44:21Z</time>
      </trkpt>
      <trkpt lat="42.489580" lon="-6.417000">
        <ele>1560.007</ele>
        <time>2014-08-31T10:44:28Z</time>
      </trkpt>
      <trkpt lat="42.489561" lon="-6.417138">
        <ele>1561.084</ele>
        <time>2014-08-31T10:44:37Z</time>
      </trkpt>
      <trkpt lat="42.489563" lon="-6.417264">
        <ele>1562.063</ele>
        <time>2014-08-31T10:44:46Z</time>
      </trkpt>
      <trkpt lat="42.489555" lon="-6.417396">
        <ele>1562.015</ele>
        <time>2014-08-31T10:44:52Z</time>
      </trkpt>
      <trkpt lat="42.489536" lon="-6.417522">
        <ele>1562.060</ele>
        <time>2014-08-31T10:45:01Z</time>
      </trkpt>
      <trkpt lat="42.489514" lon="-6.417658">
        <ele>1562.070</ele>
        <time>2014-08-31T10:45:09Z</time>
      </trkpt>
      <trkpt lat="42.489506" lon="-6.417784">
        <ele>1562.046</ele>
        <time>2014-08-31T10:45:16Z</time>
      </trkpt>
      <trkpt lat="42.489471" lon="-6.417910">
        <ele>1562.093</ele>
        <time>2014-08-31T10:45:25Z</time>
      </trkpt>
      <trkpt lat="42.489459" lon="-6.418040">
        <ele>1562.017</ele>
        <time>2014-08-31T10:45:34Z</time>
      </trkpt>
      <trkpt lat="42.489456" lon="-6.418165">
        <ele>1562.087</ele>
        <time>2014-08-31T10:45:44Z</time>
      </trkpt>
      <trkpt lat="42.489436" lon="-6.418291">
        <ele>1562.015</ele>
        <time>2014-08-31T10:45:53Z</time>
      </trkpt>
      <trkpt lat="42.489407" lon="-6.418409">
        <ele>1563.007</ele>
        <time>2014-08-31T10:46:02Z</time>
      </trkpt>
      <trkpt lat="42.489336" lon="-6.418489">
        <ele>1562.038</ele>
        <time>2014-08-31T10:46:11Z</time>
      </trkpt>
      <trkpt lat="42.489251" lon="-6.418546">
        <ele>1563.067</ele>
        <time>2014-08-31T10:46:21Z</time>
      </trkpt>
      <trkpt lat="42.489154" lon="-6.418558">
        <ele>1564.089</ele>
        <time>2014-08-31T10:46:30Z</time>
      </trkpt>
      <trkpt lat="42.489064" lon="-6.418595">
        <ele>1565.044</ele>
        <time>2014-08-31T10:46:39Z</time>
      </trkpt>
      <trkpt lat="42.488991" lon="-6.418677">
        <ele>1565.044</ele>
        <time>2014-08-31T10:46:47Z</time>
      </trkpt>
      <trkpt lat="42.488919" lon="-6.418753">
        <ele>1565.040</ele>
        <time>2014-08-31T10:46:56Z</time>
      </trkpt>
      <trkpt lat="42.488856" lon="-6.418850">
        <ele>1566.077</ele>
        <time>2014-08-31T10:47:04Z</time>
      </trkpt>
      <trkpt lat="42.488783" lon="-6.418932">
        <ele>1567.083</ele>
        <time>2014-08-31T10:47:12Z</time>
      </trkpt>
      <trkpt lat="42.488708" lon="-6.419001">
        <ele>1568.025</ele>
        <time>2014-08-31T10:47:20Z</time>
      </trkpt>
      <trkpt lat="42.488628" lon="-6.419090">
        <ele>1569.017</ele>
        <time>2014-08-31T10:47:30Z</time>
      </trkpt>
      <trkpt lat="42.488582" lon="-6.419203">
        <ele>1569.007</ele>
        <time>2014-08-31T10:47:38Z</time>
      </trkpt>
      <trkpt lat="42.488538" lon="-6.419317">
        <ele>1569.025</ele>
        <time>2014-08-31T10:47:47Z</time>
      </trkpt>
      <trkpt lat="42.488487" lon="-6.419423">
        <ele>1569.044</ele>
        <time>2014-08-31T10:47:55Z</time>
      </trkpt>
      <trkpt lat="42.488449" lon="-6.419535">
        <ele>1569.036</ele>
        <time>2014-08-31T10:48:02Z</time>
      </trkpt>
      <trkpt lat="42.488424" lon="-6.419657">
        <ele>1569.051</ele>
        <time>2014-08-31T10:48:10Z</time>
      </trkpt>
      <trkpt lat="42.488408" lon="-6.419794">
        <ele>1569.091</ele>
        <time>2014-08-31T10:48:19Z</time>
      </trkpt>
      <trkpt lat="42.488395" lon="-6.419925">
        <ele>1569.027</ele>
        <time>2014-08-31T10:48:28Z</time>
      </trkpt>
      <trkpt lat="42.488383" lon="-6.420064">
        <ele>1569.044</ele>
        <time>2014-08-31T10:48:36Z</time>
      </trkpt>
      <trkpt lat="42.488359" lon="-6.420189">
        <ele>1569.037</ele>
        <time>2014-08-31T10:48:44Z</time>
      </trkpt>
      <trkpt lat="42.488324" lon="-6.420313">
        <ele>1568.049</ele>
        <time>2014-08-31T10:48:54Z</time>
      </trkpt>
      <trkpt lat="42.488300" lon="-6.420453">
        <ele>1568.013</ele>
        <time>2014-08-31T10:49:03Z</time>
      </trkpt>
      <trkpt lat="42.488322" lon="-6.420585">
        <ele>1569.007</ele>
        <time>2014-08-31T10:49:12Z</time>
      </trkpt>
      <trkpt lat="42.488353" lon="-6.420667">
        <ele>1568.090</ele>
        <time>2014-08-31T10:49:22Z</time>
      </trkpt>
      <trkpt lat="42.488329" lon="-6.420639">
        <ele>1568.059</ele>
        <time>2014-08-31T10:50:02Z</time>
      </trkpt>
      <trkpt lat="42.488320" lon="-6.420702">
        <ele>1568.091</ele>
        <time>2014-08-31T10:50:39Z</time>
      </trkpt>
      <trkpt lat="42.488355" lon="-6.420829">
        <ele>1567.026</ele>
        <time>2014-08-31T10:50:47Z</time>
      </trkpt>
      <trkpt lat="42.488411" lon="-6.420926">
        <ele>1567.056</ele>
        <time>2014-08-31T10:50:55Z</time>
      </trkpt>
      <trkpt lat="42.488449" lon="-6.421046">
        <ele>1567.012</ele>
        <time>2014-08-31T10:51:01Z</time>
      </trkpt>
      <trkpt lat="42.488451" lon="-6.421174">
        <ele>1567.059</ele>
        <time>2014-08-31T10:51:10Z</time>
      </trkpt>
      <trkpt lat="42.488471" lon="-6.421289">
        <ele>1567.097</ele>
        <time>2014-08-31T10:51:20Z</time>
      </trkpt>
      <trkpt lat="42.488498" lon="-6.421415">
        <ele>1566.023</ele>
        <time>2014-08-31T10:51:27Z</time>
      </trkpt>
      <trkpt lat="42.488556" lon="-6.421512">
        <ele>1566.025</ele>
        <time>2014-08-31T10:51:34Z</time>
      </trkpt>
      <trkpt lat="42.488591" lon="-6.421632">
        <ele>1564.007</ele>
        <time>2014-08-31T10:51:41Z</time>
      </trkpt>
      <trkpt lat="42.488590" lon="-6.421763">
        <ele>1563.096</ele>
        <time>2014-08-31T10:51:50Z</time>
      </trkpt>
      <trkpt lat="42.488596" lon="-6.421896">
        <ele>1562.035</ele>
        <time>2014-08-31T10:51:59Z</time>
      </trkpt>
      <trkpt lat="42.488618" lon="-6.422016">
        <ele>1561.067</ele>
        <time>2014-08-31T10:52:09Z</time>
      </trkpt>
      <trkpt lat="42.488655" lon="-6.422137">
        <ele>1560.082</ele>
        <time>2014-08-31T10:52:19Z</time>
      </trkpt>
      <trkpt lat="42.488644" lon="-6.422260">
        <ele>1559.022</ele>
        <time>2014-08-31T10:52:26Z</time>
      </trkpt>
      <trkpt lat="42.488630" lon="-6.422396">
        <ele>1558.088</ele>
        <time>2014-08-31T10:52:36Z</time>
      </trkpt>
      <trkpt lat="42.488679" lon="-6.422509">
        <ele>1557.045</ele>
        <time>2014-08-31T10:52:44Z</time>
      </trkpt>
      <trkpt lat="42.488714" lon="-6.422621">
        <ele>1556.078</ele>
        <time>2014-08-31T10:52:51Z</time>
      </trkpt>
      <trkpt lat="42.488737" lon="-6.422749">
        <ele>1555.033</ele>
        <time>2014-08-31T10:52:58Z</time>
      </trkpt>
      <trkpt lat="42.488769" lon="-6.422870">
        <ele>1554.026</ele>
        <time>2014-08-31T10:53:05Z</time>
      </trkpt>
      <trkpt lat="42.488804" lon="-6.422986">
        <ele>1553.007</ele>
        <time>2014-08-31T10:53:12Z</time>
      </trkpt>
      <trkpt lat="42.488821" lon="-6.423106">
        <ele>1552.054</ele>
        <time>2014-08-31T10:53:22Z</time>
      </trkpt>
      <trkpt lat="42.488846" lon="-6.423238">
        <ele>1551.043</ele>
        <time>2014-08-31T10:53:29Z</time>
      </trkpt>
      <trkpt lat="42.488877" lon="-6.423353">
        <ele>1551.055</ele>
        <time>2014-08-31T10:53:36Z</time>
      </trkpt>
      <trkpt lat="42.488886" lon="-6.423448">
        <ele>1550.070</ele>
        <time>2014-08-31T10:53:46Z</time>
      </trkpt>
      <trkpt lat="42.488868" lon="-6.423577">
        <ele>1549.020</ele>
        <time>2014-08-31T10:53:56Z</time>
      </trkpt>
      <trkpt lat="42.488834" lon="-6.423714">
        <ele>1549.086</ele>
        <time>2014-08-31T10:54:03Z</time>
      </trkpt>
      <trkpt lat="42.488806" lon="-6.423845">
        <ele>1550.033</ele>
        <time>2014-08-31T10:54:11Z</time>
      </trkpt>
      <trkpt lat="42.488813" lon="-6.423977">
        <ele>1549.073</ele>
        <time>2014-08-31T10:54:21Z</time>
      </trkpt>
      <trkpt lat="42.488845" lon="-6.424101">
        <ele>1548.085</ele>
        <time>2014-08-31T10:54:29Z</time>
      </trkpt>
      <trkpt lat="42.488880" lon="-6.424215">
        <ele>1547.013</ele>
        <time>2014-08-31T10:54:38Z</time>
      </trkpt>
      <trkpt lat="42.488909" lon="-6.424335">
        <ele>1546.007</ele>
        <time>2014-08-31T10:54:48Z</time>
      </trkpt>
      <trkpt lat="42.488948" lon="-6.424456">
        <ele>1544.024</ele>
        <time>2014-08-31T10:54:56Z</time>
      </trkpt>
      <trkpt lat="42.488972" lon="-6.424571">
        <ele>1543.033</ele>
        <time>2014-08-31T10:55:06Z</time>
      </trkpt>
      <trkpt lat="42.489038" lon="-6.424670">
        <ele>1541.015</ele>
        <time>2014-08-31T10:55:16Z</time>
      </trkpt>
      <trkpt lat="42.489080" lon="-6.424781">
        <ele>1542.010</ele>
        <time>2014-08-31T10:55:23Z</time>
      </trkpt>
      <trkpt lat="42.489112" lon="-6.424907">
        <ele>1542.050</ele>
        <time>2014-08-31T10:55:30Z</time>
      </trkpt>
      <trkpt lat="42.489124" lon="-6.425043">
        <ele>1542.056</ele>
        <time>2014-08-31T10:55:39Z</time>
      </trkpt>
      <trkpt lat="42.489141" lon="-6.425173">
        <ele>1541.063</ele>
        <time>2014-08-31T10:55:47Z</time>
      </trkpt>
      <trkpt lat="42.489185" lon="-6.425274">
        <ele>1541.034</ele>
        <time>2014-08-31T10:55:57Z</time>
      </trkpt>
      <trkpt lat="42.489221" lon="-6.425391">
        <ele>1541.055</ele>
        <time>2014-08-31T10:56:05Z</time>
      </trkpt>
      <trkpt lat="42.489244" lon="-6.425509">
        <ele>1540.010</ele>
        <time>2014-08-31T10:56:12Z</time>
      </trkpt>
      <trkpt lat="42.489279" lon="-6.425622">
        <ele>1540.007</ele>
        <time>2014-08-31T10:56:20Z</time>
      </trkpt>
      <trkpt lat="42.489298" lon="-6.425741">
        <ele>1540.010</ele>
        <time>2014-08-31T10:56:30Z</time>
      </trkpt>
      <trkpt lat="42.489352" lon="-6.425844">
        <ele>1540.079</ele>
        <time>2014-08-31T10:56:37Z</time>
      </trkpt>
      <trkpt lat="42.489375" lon="-6.425963">
        <ele>1538.071</ele>
        <time>2014-08-31T10:56:46Z</time>
      </trkpt>
      <trkpt lat="42.489417" lon="-6.426080">
        <ele>1538.066</ele>
        <time>2014-08-31T10:56:55Z</time>
      </trkpt>
      <trkpt lat="42.489470" lon="-6.426180">
        <ele>1537.076</ele>
        <time>2014-08-31T10:57:03Z</time>
      </trkpt>
      <trkpt lat="42.489524" lon="-6.426283">
        <ele>1535.092</ele>
        <time>2014-08-31T10:57:13Z</time>
      </trkpt>
      <trkpt lat="42.489556" lon="-6.426369">
        <ele>1533.029</ele>
        <time>2014-08-31T10:57:23Z</time>
      </trkpt>
      <trkpt lat="42.489594" lon="-6.426479">
        <ele>1533.016</ele>
        <time>2014-08-31T10:57:33Z</time>
      </trkpt>
      <trkpt lat="42.489648" lon="-6.426599">
        <ele>1532.076</ele>
        <time>2014-08-31T10:57:41Z</time>
      </trkpt>
      <trkpt lat="42.489700" lon="-6.426666">
        <ele>1532.013</ele>
        <time>2014-08-31T10:57:51Z</time>
      </trkpt>
      <trkpt lat="42.489730" lon="-6.426793">
        <ele>1532.007</ele>
        <time>2014-08-31T10:57:59Z</time>
      </trkpt>
      <trkpt lat="42.489767" lon="-6.426906">
        <ele>1531.078</ele>
        <time>2014-08-31T10:58:07Z</time>
      </trkpt>
      <trkpt lat="42.489827" lon="-6.427010">
        <ele>1529.037</ele>
        <time>2014-08-31T10:58:17Z</time>
      </trkpt>
      <trkpt lat="42.489891" lon="-6.427090">
        <ele>1527.029</ele>
        <time>2014-08-31T10:58:27Z</time>
      </trkpt>
      <trkpt lat="42.489963" lon="-6.427170">
        <ele>1525.094</ele>
        <time>2014-08-31T10:58:35Z</time>
      </trkpt>
      <trkpt lat="42.490031" lon="-6.427254">
        <ele>1523.054</ele>
        <time>2014-08-31T10:58:45Z</time>
      </trkpt>
      <trkpt lat="42.490086" lon="-6.427344">
        <ele>1521.040</ele>
        <time>2014-08-31T10:58:55Z</time>
      </trkpt>
      <trkpt lat="42.490152" lon="-6.427436">
        <ele>1519.047</ele>
        <time>2014-08-31T10:59:05Z</time>
      </trkpt>
      <trkpt lat="42.490210" lon="-6.427520">
        <ele>1518.014</ele>
        <time>2014-08-31T10:59:15Z</time>
      </trkpt>
      <trkpt lat="42.490282" lon="-6.427600">
        <ele>1516.054</ele>
        <time>2014-08-31T10:59:24Z</time>
      </trkpt>
      <trkpt lat="42.490358" lon="-6.427664">
        <ele>1515.009</ele>
        <time>2014-08-31T10:59:34Z</time>
      </trkpt>
      <trkpt lat="42.490415" lon="-6.427768">
        <ele>1514.007</ele>
        <time>2014-08-31T10:59:44Z</time>
      </trkpt>
      <trkpt lat="42.490496" lon="-6.427846">
        <ele>1511.058</ele>
        <time>2014-08-31T10:59:53Z</time>
      </trkpt>
      <trkpt lat="42.490578" lon="-6.427911">
        <ele>1510.087</ele>
        <time>2014-08-31T11:00:02Z</time>
      </trkpt>
      <trkpt lat="42.490660" lon="-6.427988">
        <ele>1509.089</ele>
        <time>2014-08-31T11:00:10Z</time>
      </trkpt>
      <trkpt lat="42.490732" lon="-6.428079">
        <ele>1507.034</ele>
        <time>2014-08-31T11:00:20Z</time>
      </trkpt>
      <trkpt lat="42.490794" lon="-6.428181">
        <ele>1506.014</ele>
        <time>2014-08-31T11:00:30Z</time>
      </trkpt>
      <trkpt lat="42.490862" lon="-6.428267">
        <ele>1504.020</ele>
        <time>2014-08-31T11:00:38Z</time>
      </trkpt>
      <trkpt lat="42.490932" lon="-6.428345">
        <ele>1503.067</ele>
        <time>2014-08-31T11:00:48Z</time>
      </trkpt>
      <trkpt lat="42.491004" lon="-6.428434">
        <ele>1501.064</ele>
        <time>2014-08-31T11:00:55Z</time>
      </trkpt>
      <trkpt lat="42.491068" lon="-6.428539">
        <ele>1501.006</ele>
        <time>2014-08-31T11:01:04Z</time>
      </trkpt>
      <trkpt lat="42.491127" lon="-6.428645">
        <ele>1500.016</ele>
        <time>2014-08-31T11:01:11Z</time>
      </trkpt>
      <trkpt lat="42.491178" lon="-6.428760">
        <ele>1500.007</ele>
        <time>2014-08-31T11:01:18Z</time>
      </trkpt>
      <trkpt lat="42.491203" lon="-6.428882">
        <ele>1498.043</ele>
        <time>2014-08-31T11:01:27Z</time>
      </trkpt>
      <trkpt lat="42.491252" lon="-6.428993">
        <ele>1498.092</ele>
        <time>2014-08-31T11:01:35Z</time>
      </trkpt>
      <trkpt lat="42.491285" lon="-6.429120">
        <ele>1497.094</ele>
        <time>2014-08-31T11:01:42Z</time>
      </trkpt>
      <trkpt lat="42.491325" lon="-6.429239">
        <ele>1496.059</ele>
        <time>2014-08-31T11:01:50Z</time>
      </trkpt>
      <trkpt lat="42.491365" lon="-6.429360">
        <ele>1495.069</ele>
        <time>2014-08-31T11:01:59Z</time>
      </trkpt>
      <trkpt lat="42.491412" lon="-6.429484">
        <ele>1493.075</ele>
        <time>2014-08-31T11:02:07Z</time>
      </trkpt>
      <trkpt lat="42.491463" lon="-6.429591">
        <ele>1492.052</ele>
        <time>2014-08-31T11:02:14Z</time>
      </trkpt>
      <trkpt lat="42.491466" lon="-6.429725">
        <ele>1491.099</ele>
        <time>2014-08-31T11:02:23Z</time>
      </trkpt>
      <trkpt lat="42.491486" lon="-6.429853">
        <ele>1490.007</ele>
        <time>2014-08-31T11:02:30Z</time>
      </trkpt>
      <trkpt lat="42.491510" lon="-6.429969">
        <ele>1489.027</ele>
        <time>2014-08-31T11:02:40Z</time>
      </trkpt>
      <trkpt lat="42.491540" lon="-6.430088">
        <ele>1488.007</ele>
        <time>2014-08-31T11:02:49Z</time>
      </trkpt>
      <trkpt lat="42.491561" lon="-6.430153">
        <ele>1487.046</ele>
        <time>2014-08-31T11:03:00Z</time>
      </trkpt>
      <trkpt lat="42.491607" lon="-6.430268">
        <ele>1487.045</ele>
        <time>2014-08-31T11:03:08Z</time>
      </trkpt>
      <trkpt lat="42.491636" lon="-6.430395">
        <ele>1486.057</ele>
        <time>2014-08-31T11:03:15Z</time>
      </trkpt>
      <trkpt lat="42.491661" lon="-6.430512">
        <ele>1485.052</ele>
        <time>2014-08-31T11:03:22Z</time>
      </trkpt>
      <trkpt lat="42.491698" lon="-6.430625">
        <ele>1484.062</ele>
        <time>2014-08-31T11:03:30Z</time>
      </trkpt>
      <trkpt lat="42.491735" lon="-6.430747">
        <ele>1484.078</ele>
        <time>2014-08-31T11:03:38Z</time>
      </trkpt>
      <trkpt lat="42.491750" lon="-6.430881">
        <ele>1482.065</ele>
        <time>2014-08-31T11:03:47Z</time>
      </trkpt>
      <trkpt lat="42.491765" lon="-6.431010">
        <ele>1482.076</ele>
        <time>2014-08-31T11:03:56Z</time>
      </trkpt>
      <trkpt lat="42.491788" lon="-6.431140">
        <ele>1481.090</ele>
        <time>2014-08-31T11:04:06Z</time>
      </trkpt>
      <trkpt lat="42.491811" lon="-6.431262">
        <ele>1480.019</ele>
        <time>2014-08-31T11:04:13Z</time>
      </trkpt>
      <trkpt lat="42.491835" lon="-6.431386">
        <ele>1479.007</ele>
        <time>2014-08-31T11:04:22Z</time>
      </trkpt>
      <trkpt lat="42.491845" lon="-6.431513">
        <ele>1478.054</ele>
        <time>2014-08-31T11:04:31Z</time>
      </trkpt>
      <trkpt lat="42.491839" lon="-6.431641">
        <ele>1477.083</ele>
        <time>2014-08-31T11:04:39Z</time>
      </trkpt>
      <trkpt lat="42.491858" lon="-6.431771">
        <ele>1476.085</ele>
        <time>2014-08-31T11:04:47Z</time>
      </trkpt>
      <trkpt lat="42.491859" lon="-6.431894">
        <ele>1475.010</ele>
        <time>2014-08-31T11:04:55Z</time>
      </trkpt>
      <trkpt lat="42.491846" lon="-6.432042">
        <ele>1473.060</ele>
        <time>2014-08-31T11:05:03Z</time>
      </trkpt>
      <trkpt lat="42.491818" lon="-6.432171">
        <ele>1472.036</ele>
        <time>2014-08-31T11:05:11Z</time>
      </trkpt>
      <trkpt lat="42.491798" lon="-6.432312">
        <ele>1471.073</ele>
        <time>2014-08-31T11:05:20Z</time>
      </trkpt>
      <trkpt lat="42.491772" lon="-6.432439">
        <ele>1471.092</ele>
        <time>2014-08-31T11:05:28Z</time>
      </trkpt>
      <trkpt lat="42.491743" lon="-6.432563">
        <ele>1470.073</ele>
        <time>2014-08-31T11:05:36Z</time>
      </trkpt>
      <trkpt lat="42.491747" lon="-6.432699">
        <ele>1470.020</ele>
        <time>2014-08-31T11:05:45Z</time>
      </trkpt>
      <trkpt lat="42.491716" lon="-6.432830">
        <ele>1469.007</ele>
        <time>2014-08-31T11:05:52Z</time>
      </trkpt>
      <trkpt lat="42.491697" lon="-6.432964">
        <ele>1468.036</ele>
        <time>2014-08-31T11:06:01Z</time>
      </trkpt>
      <trkpt lat="42.491695" lon="-6.433107">
        <ele>1468.065</ele>
        <time>2014-08-31T11:06:08Z</time>
      </trkpt>
      <trkpt lat="42.491673" lon="-6.433232">
        <ele>1468.087</ele>
        <time>2014-08-31T11:06:17Z</time>
      </trkpt>
      <trkpt lat="42.491648" lon="-6.433352">
        <ele>1467.072</ele>
        <time>2014-08-31T11:06:25Z</time>
      </trkpt>
      <trkpt lat="42.491633" lon="-6.433476">
        <ele>1467.072</ele>
        <time>2014-08-31T11:06:34Z</time>
      </trkpt>
      <trkpt lat="42.491613" lon="-6.433609">
        <ele>1466.048</ele>
        <time>2014-08-31T11:06:43Z</time>
      </trkpt>
      <trkpt lat="42.491606" lon="-6.433740">
        <ele>1466.085</ele>
        <time>2014-08-31T11:06:52Z</time>
      </trkpt>
      <trkpt lat="42.491585" lon="-6.433861">
        <ele>1466.047</ele>
        <time>2014-08-31T11:07:01Z</time>
      </trkpt>
      <trkpt lat="42.491561" lon="-6.433984">
        <ele>1466.029</ele>
        <time>2014-08-31T11:07:10Z</time>
      </trkpt>
      <trkpt lat="42.491546" lon="-6.434114">
        <ele>1466.021</ele>
        <time>2014-08-31T11:07:18Z</time>
      </trkpt>
      <trkpt lat="42.491537" lon="-6.434237">
        <ele>1466.007</ele>
        <time>2014-08-31T11:07:25Z</time>
      </trkpt>
      <trkpt lat="42.491516" lon="-6.434318">
        <ele>1467.041</ele>
        <time>2014-08-31T11:07:35Z</time>
      </trkpt>
      <trkpt lat="42.491496" lon="-6.434437">
        <ele>1466.090</ele>
        <time>2014-08-31T11:07:43Z</time>
      </trkpt>
      <trkpt lat="42.491489" lon="-6.434570">
        <ele>1466.062</ele>
        <time>2014-08-31T11:07:51Z</time>
      </trkpt>
      <trkpt lat="42.491466" lon="-6.434700">
        <ele>1466.087</ele>
        <time>2014-08-31T11:07:58Z</time>
      </trkpt>
      <trkpt lat="42.491465" lon="-6.434834">
        <ele>1466.027</ele>
        <time>2014-08-31T11:08:06Z</time>
      </trkpt>
      <trkpt lat="42.491487" lon="-6.434959">
        <ele>1466.073</ele>
        <time>2014-08-31T11:08:16Z</time>
      </trkpt>
      <trkpt lat="42.491480" lon="-6.435087">
        <ele>1465.060</ele>
        <time>2014-08-31T11:08:21Z</time>
      </trkpt>
      <trkpt lat="42.491450" lon="-6.435207">
        <ele>1465.041</ele>
        <time>2014-08-31T11:08:29Z</time>
      </trkpt>
      <trkpt lat="42.491418" lon="-6.435326">
        <ele>1465.081</ele>
        <time>2014-08-31T11:08:37Z</time>
      </trkpt>
      <trkpt lat="42.491381" lon="-6.435452">
        <ele>1466.009</ele>
        <time>2014-08-31T11:08:46Z</time>
      </trkpt>
      <trkpt lat="42.491369" lon="-6.435585">
        <ele>1466.007</ele>
        <time>2014-08-31T11:08:56Z</time>
      </trkpt>
      <trkpt lat="42.491355" lon="-6.435710">
        <ele>1467.081</ele>
        <time>2014-08-31T11:09:03Z</time>
      </trkpt>
      <trkpt lat="42.491340" lon="-6.435833">
        <ele>1468.040</ele>
        <time>2014-08-31T11:09:10Z</time>
      </trkpt>
      <trkpt lat="42.491318" lon="-6.435965">
        <ele>1467.052</ele>
        <time>2014-08-31T11:09:16Z</time>
      </trkpt>
      <trkpt lat="42.491278" lon="-6.436080">
        <ele>1466.087</ele>
        <time>2014-08-31T11:09:25Z</time>
      </trkpt>
      <trkpt lat="42.491259" lon="-6.436218">
        <ele>1466.047</ele>
        <time>2014-08-31T11:09:33Z</time>
      </trkpt>
      <trkpt lat="42.491250" lon="-6.436343">
        <ele>1466.063</ele>
        <time>2014-08-31T11:09:41Z</time>
      </trkpt>
      <trkpt lat="42.491233" lon="-6.436479">
        <ele>1465.060</ele>
        <time>2014-08-31T11:09:49Z</time>
      </trkpt>
      <trkpt lat="42.491200" lon="-6.436604">
        <ele>1464.067</ele>
        <time>2014-08-31T11:09:57Z</time>
      </trkpt>
      <trkpt lat="42.491188" lon="-6.436735">
        <ele>1464.081</ele>
        <time>2014-08-31T11:10:05Z</time>
      </trkpt>
      <trkpt lat="42.491190" lon="-6.436868">
        <ele>1463.019</ele>
        <time>2014-08-31T11:10:12Z</time>
      </trkpt>
      <trkpt lat="42.491194" lon="-6.436999">
        <ele>1463.007</ele>
        <time>2014-08-31T11:10:20Z</time>
      </trkpt>
      <trkpt lat="42.491170" lon="-6.437121">
        <ele>1462.033</ele>
        <time>2014-08-31T11:10:28Z</time>
      </trkpt>
      <trkpt lat="42.491152" lon="-6.437251">
        <ele>1462.052</ele>
        <time>2014-08-31T11:10:38Z</time>
      </trkpt>
      <trkpt lat="42.491156" lon="-6.437374">
        <ele>1462.044</ele>
        <time>2014-08-31T11:10:46Z</time>
      </trkpt>
      <trkpt lat="42.491127" lon="-6.437494">
        <ele>1462.079</ele>
        <time>2014-08-31T11:10:55Z</time>
      </trkpt>
      <trkpt lat="42.491098" lon="-6.437626">
        <ele>1462.089</ele>
        <time>2014-08-31T11:11:05Z</time>
      </trkpt>
      <trkpt lat="42.491070" lon="-6.437751">
        <ele>1461.075</ele>
        <time>2014-08-31T11:11:11Z</time>
      </trkpt>
      <trkpt lat="42.491021" lon="-6.437867">
        <ele>1461.042</ele>
        <time>2014-08-31T11:11:19Z</time>
      </trkpt>
      <trkpt lat="42.490996" lon="-6.437987">
        <ele>1460.034</ele>
        <time>2014-08-31T11:11:27Z</time>
      </trkpt>
      <trkpt lat="42.490989" lon="-6.438121">
        <ele>1460.055</ele>
        <time>2014-08-31T11:11:36Z</time>
      </trkpt>
      <trkpt lat="42.490991" lon="-6.438247">
        <ele>1460.010</ele>
        <time>2014-08-31T11:11:44Z</time>
      </trkpt>
      <trkpt lat="42.491001" lon="-6.438371">
        <ele>1460.007</ele>
        <time>2014-08-31T11:11:51Z</time>
      </trkpt>
      <trkpt lat="42.491022" lon="-6.438500">
        <ele>1460.090</ele>
        <time>2014-08-31T11:11:59Z</time>
      </trkpt>
      <trkpt lat="42.491043" lon="-6.438631">
        <ele>1460.059</ele>
        <time>2014-08-31T11:12:06Z</time>
      </trkpt>
      <trkpt lat="42.491059" lon="-6.438754">
        <ele>1459.011</ele>
        <time>2014-08-31T11:12:14Z</time>
      </trkpt>
      <trkpt lat="42.491075" lon="-6.438877">
        <ele>1458.016</ele>
        <time>2014-08-31T11:12:22Z</time>
      </trkpt>
      <trkpt lat="42.491086" lon="-6.439005">
        <ele>1458.016</ele>
        <time>2014-08-31T11:12:30Z</time>
      </trkpt>
      <trkpt lat="42.491120" lon="-6.439136">
        <ele>1458.032</ele>
        <time>2014-08-31T11:12:38Z</time>
      </trkpt>
      <trkpt lat="42.491162" lon="-6.439252">
        <ele>1457.059</ele>
        <time>2014-08-31T11:12:45Z</time>
      </trkpt>
      <trkpt lat="42.491182" lon="-6.439374">
        <ele>1457.057</ele>
        <time>2014-08-31T11:12:52Z</time>
      </trkpt>
      <trkpt lat="42.491225" lon="-6.439496">
        <ele>1456.000</ele>
        <time>2014-08-31T11:13:00Z</time>
      </trkpt>
      <trkpt lat="42.491253" lon="-6.439624">
        <ele>1455.020</ele>
        <time>2014-08-31T11:13:09Z</time>
      </trkpt>
      <trkpt lat="42.491313" lon="-6.439719">
        <ele>1455.007</ele>
        <time>2014-08-31T11:13:18Z</time>
      </trkpt>
      <trkpt lat="42.491382" lon="-6.439818">
        <ele>1456.052</ele>
        <time>2014-08-31T11:13:28Z</time>
      </trkpt>
      <trkpt lat="42.497395" lon="-6.455094">
        <ele>1252.051</ele>
        <time>2014-08-31T11:39:27Z</time>
      </trkpt>
      <trkpt lat="42.497440" lon="-6.455101">
        <ele>1251.053</ele>
        <time>2014-08-31T11:39:51Z</time>
      </trkpt>
      <trkpt lat="42.497399" lon="-6.455060">
        <ele>1251.028</ele>
        <time>2014-08-31T11:40:14Z</time>
      </trkpt>
      <trkpt lat="42.497444" lon="-6.455032">
        <ele>1251.078</ele>
        <time>2014-08-31T11:40:30Z</time>
      </trkpt>
      <trkpt lat="42.497463" lon="-6.455128">
        <ele>1251.024</ele>
        <time>2014-08-31T11:40:40Z</time>
      </trkpt>
      <trkpt lat="42.497372" lon="-6.455169">
        <ele>1250.011</ele>
        <time>2014-08-31T11:40:50Z</time>
      </trkpt>
      <trkpt lat="42.497276" lon="-6.455167">
        <ele>1249.079</ele>
        <time>2014-08-31T11:40:59Z</time>
      </trkpt>
      <trkpt lat="42.497192" lon="-6.455193">
        <ele>1248.005</ele>
        <time>2014-08-31T11:41:09Z</time>
      </trkpt>
      <trkpt lat="42.497109" lon="-6.455180">
        <ele>1246.025</ele>
        <time>2014-08-31T11:41:19Z</time>
      </trkpt>
      <trkpt lat="42.497037" lon="-6.455181">
        <ele>1243.007</ele>
        <time>2014-08-31T11:41:29Z</time>
      </trkpt>
      <trkpt lat="42.496954" lon="-6.455155">
        <ele>1239.044</ele>
        <time>2014-08-31T11:41:39Z</time>
      </trkpt>
      <trkpt lat="42.496979" lon="-6.455250">
        <ele>1236.063</ele>
        <time>2014-08-31T11:41:49Z</time>
      </trkpt>
      <trkpt lat="42.497004" lon="-6.455367">
        <ele>1234.025</ele>
        <time>2014-08-31T11:41:58Z</time>
      </trkpt>
      <trkpt lat="42.497052" lon="-6.455475">
        <ele>1232.090</ele>
        <time>2014-08-31T11:42:07Z</time>
      </trkpt>
      <trkpt lat="42.497109" lon="-6.455576">
        <ele>1230.020</ele>
        <time>2014-08-31T11:42:16Z</time>
      </trkpt>
      <trkpt lat="42.497179" lon="-6.455658">
        <ele>1229.056</ele>
        <time>2014-08-31T11:42:26Z</time>
      </trkpt>
      <trkpt lat="42.497282" lon="-6.455692">
        <ele>1229.063</ele>
        <time>2014-08-31T11:42:34Z</time>
      </trkpt>
      <trkpt lat="42.497378" lon="-6.455665">
        <ele>1230.028</ele>
        <time>2014-08-31T11:42:41Z</time>
      </trkpt>
      <trkpt lat="42.497485" lon="-6.455669">
        <ele>1229.089</ele>
        <time>2014-08-31T11:42:49Z</time>
      </trkpt>
      <trkpt lat="42.497575" lon="-6.455711">
        <ele>1229.017</ele>
        <time>2014-08-31T11:42:56Z</time>
      </trkpt>
      <trkpt lat="42.497649" lon="-6.455806">
        <ele>1228.007</ele>
        <time>2014-08-31T11:43:05Z</time>
      </trkpt>
      <trkpt lat="42.497698" lon="-6.455862">
        <ele>1227.039</ele>
        <time>2014-08-31T11:43:15Z</time>
      </trkpt>
      <trkpt lat="42.497741" lon="-6.455931">
        <ele>1226.038</ele>
        <time>2014-08-31T11:43:25Z</time>
      </trkpt>
      <trkpt lat="42.497846" lon="-6.455948">
        <ele>1225.080</ele>
        <time>2014-08-31T11:43:34Z</time>
      </trkpt>
      <trkpt lat="42.497934" lon="-6.455993">
        <ele>1225.085</ele>
        <time>2014-08-31T11:43:42Z</time>
      </trkpt>
      <trkpt lat="42.498004" lon="-6.456036">
        <ele>1223.045</ele>
        <time>2014-08-31T11:43:52Z</time>
      </trkpt>
      <trkpt lat="42.498053" lon="-6.456027">
        <ele>1224.081</ele>
        <time>2014-08-31T11:44:04Z</time>
      </trkpt>
      <trkpt lat="42.498100" lon="-6.456131">
        <ele>1225.098</ele>
        <time>2014-08-31T11:44:14Z</time>
      </trkpt>
      <trkpt lat="42.498187" lon="-6.456171">
        <ele>1225.058</ele>
        <time>2014-08-31T11:44:21Z</time>
      </trkpt>
      <trkpt lat="42.498286" lon="-6.456144">
        <ele>1224.052</ele>
        <time>2014-08-31T11:44:26Z</time>
      </trkpt>
      <trkpt lat="42.498332" lon="-6.456151">
        <ele>1225.017</ele>
        <time>2014-08-31T11:44:38Z</time>
      </trkpt>
      <trkpt lat="42.498406" lon="-6.456224">
        <ele>1225.007</ele>
        <time>2014-08-31T11:44:48Z</time>
      </trkpt>
      <trkpt lat="42.498459" lon="-6.456328">
        <ele>1224.052</ele>
        <time>2014-08-31T11:44:55Z</time>
      </trkpt>
      <trkpt lat="42.498506" lon="-6.456448">
        <ele>1223.041</ele>
        <time>2014-08-31T11:45:02Z</time>
      </trkpt>
      <trkpt lat="42.498540" lon="-6.456562">
        <ele>1221.063</ele>
        <time>2014-08-31T11:45:10Z</time>
      </trkpt>
      <trkpt lat="42.498583" lon="-6.456685">
        <ele>1219.078</ele>
        <time>2014-08-31T11:45:20Z</time>
      </trkpt>
      <trkpt lat="42.498642" lon="-6.456781">
        <ele>1216.098</ele>
        <time>2014-08-31T11:45:28Z</time>
      </trkpt>
      <trkpt lat="42.498700" lon="-6.456874">
        <ele>1215.094</ele>
        <time>2014-08-31T11:45:35Z</time>
      </trkpt>
      <trkpt lat="42.498780" lon="-6.456936">
        <ele>1213.031</ele>
        <time>2014-08-31T11:45:45Z</time>
      </trkpt>
      <trkpt lat="42.498855" lon="-6.457011">
        <ele>1213.022</ele>
        <time>2014-08-31T11:45:55Z</time>
      </trkpt>
      <trkpt lat="42.498887" lon="-6.457101">
        <ele>1212.062</ele>
        <time>2014-08-31T11:46:05Z</time>
      </trkpt>
      <trkpt lat="42.498952" lon="-6.457192">
        <ele>1211.008</ele>
        <time>2014-08-31T11:46:13Z</time>
      </trkpt>
      <trkpt lat="42.499022" lon="-6.457250">
        <ele>1212.007</ele>
        <time>2014-08-31T11:46:23Z</time>
      </trkpt>
      <trkpt lat="42.498843" lon="-6.456832">
        <ele>1235.089</ele>
        <time>2014-08-31T12:06:23Z</time>
      </trkpt>
      <trkpt lat="42.498887" lon="-6.456797">
        <ele>1233.058</ele>
        <time>2014-08-31T12:06:56Z</time>
      </trkpt>
      <trkpt lat="42.498932" lon="-6.456839">
        <ele>1233.010</ele>
        <time>2014-08-31T12:07:06Z</time>
      </trkpt>
      <trkpt lat="42.498976" lon="-6.456861">
        <ele>1232.015</ele>
        <time>2014-08-31T12:07:16Z</time>
      </trkpt>
      <trkpt lat="42.498985" lon="-6.456949">
        <ele>1232.065</ele>
        <time>2014-08-31T12:07:26Z</time>
      </trkpt>
      <trkpt lat="42.498999" lon="-6.457049">
        <ele>1230.081</ele>
        <time>2014-08-31T12:07:36Z</time>
      </trkpt>
      <trkpt lat="42.499028" lon="-6.457101">
        <ele>1227.028</ele>
        <time>2014-08-31T12:07:47Z</time>
      </trkpt>
      <trkpt lat="42.499026" lon="-6.457245">
        <ele>1226.068</ele>
        <time>2014-08-31T12:07:50Z</time>
      </trkpt>
      <trkpt lat="42.499046" lon="-6.457370">
        <ele>1225.042</ele>
        <time>2014-08-31T12:07:55Z</time>
      </trkpt>
      <trkpt lat="42.499076" lon="-6.457510">
        <ele>1223.026</ele>
        <time>2014-08-31T12:08:02Z</time>
      </trkpt>
      <trkpt lat="42.499105" lon="-6.457582">
        <ele>1220.007</ele>
        <time>2014-08-31T12:08:12Z</time>
      </trkpt>
      <trkpt lat="42.499117" lon="-6.457622">
        <ele>1213.063</ele>
        <time>2014-08-31T12:08:53Z</time>
      </trkpt>
      <trkpt lat="42.499139" lon="-6.457689">
        <ele>1211.032</ele>
        <time>2014-08-31T12:09:04Z</time>
      </trkpt>
      <trkpt lat="42.499167" lon="-6.457772">
        <ele>1208.094</ele>
        <time>2014-08-31T12:09:14Z</time>
      </trkpt>
      <trkpt lat="42.499218" lon="-6.457882">
        <ele>1205.019</ele>
        <time>2014-08-31T12:09:23Z</time>
      </trkpt>
      <trkpt lat="42.499255" lon="-6.458002">
        <ele>1203.099</ele>
        <time>2014-08-31T12:09:30Z</time>
      </trkpt>
      <trkpt lat="42.499303" lon="-6.458110">
        <ele>1201.085</ele>
        <time>2014-08-31T12:09:36Z</time>
      </trkpt>
      <trkpt lat="42.499386" lon="-6.458163">
        <ele>1200.012</ele>
        <time>2014-08-31T12:09:42Z</time>
      </trkpt>
      <trkpt lat="42.499478" lon="-6.458219">
        <ele>1199.092</ele>
        <time>2014-08-31T12:09:51Z</time>
      </trkpt>
      <trkpt lat="42.499549" lon="-6.458304">
        <ele>1198.073</ele>
        <time>2014-08-31T12:09:59Z</time>
      </trkpt>
      <trkpt lat="42.499599" lon="-6.458413">
        <ele>1197.020</ele>
        <time>2014-08-31T12:10:06Z</time>
      </trkpt>
      <trkpt lat="42.499701" lon="-6.458416">
        <ele>1196.007</ele>
        <time>2014-08-31T12:10:14Z</time>
      </trkpt>
      <trkpt lat="42.499794" lon="-6.458441">
        <ele>1195.096</ele>
        <time>2014-08-31T12:10:21Z</time>
      </trkpt>
      <trkpt lat="42.499881" lon="-6.458474">
        <ele>1195.035</ele>
        <time>2014-08-31T12:10:29Z</time>
      </trkpt>
      <trkpt lat="42.499980" lon="-6.458463">
        <ele>1193.017</ele>
        <time>2014-08-31T12:10:36Z</time>
      </trkpt>
      <trkpt lat="42.500071" lon="-6.458468">
        <ele>1193.042</ele>
        <time>2014-08-31T12:10:42Z</time>
      </trkpt>
      <trkpt lat="42.500168" lon="-6.458507">
        <ele>1192.062</ele>
        <time>2014-08-31T12:10:51Z</time>
      </trkpt>
      <trkpt lat="42.500258" lon="-6.458523">
        <ele>1191.098</ele>
        <time>2014-08-31T12:10:57Z</time>
      </trkpt>
      <trkpt lat="42.500357" lon="-6.458499">
        <ele>1190.035</ele>
        <time>2014-08-31T12:11:05Z</time>
      </trkpt>
      <trkpt lat="42.500450" lon="-6.458505">
        <ele>1190.055</ele>
        <time>2014-08-31T12:11:13Z</time>
      </trkpt>
      <trkpt lat="42.500527" lon="-6.458590">
        <ele>1189.007</ele>
        <time>2014-08-31T12:11:22Z</time>
      </trkpt>
      <trkpt lat="42.500612" lon="-6.458666">
        <ele>1188.017</ele>
        <time>2014-08-31T12:11:29Z</time>
      </trkpt>
      <trkpt lat="42.500690" lon="-6.458750">
        <ele>1187.007</ele>
        <time>2014-08-31T12:11:37Z</time>
      </trkpt>
      <trkpt lat="42.500753" lon="-6.458843">
        <ele>1186.012</ele>
        <time>2014-08-31T12:11:44Z</time>
      </trkpt>
      <trkpt lat="42.500829" lon="-6.458932">
        <ele>1186.021</ele>
        <time>2014-08-31T12:11:52Z</time>
      </trkpt>
      <trkpt lat="42.500903" lon="-6.459010">
        <ele>1185.083</ele>
        <time>2014-08-31T12:12:01Z</time>
      </trkpt>
      <trkpt lat="42.500978" lon="-6.459079">
        <ele>1183.088</ele>
        <time>2014-08-31T12:12:10Z</time>
      </trkpt>
      <trkpt lat="42.501066" lon="-6.459149">
        <ele>1183.038</ele>
        <time>2014-08-31T12:12:17Z</time>
      </trkpt>
      <trkpt lat="42.501156" lon="-6.459222">
        <ele>1182.074</ele>
        <time>2014-08-31T12:12:26Z</time>
      </trkpt>
      <trkpt lat="42.501188" lon="-6.459221">
        <ele>1182.081</ele>
        <time>2014-08-31T12:13:07Z</time>
      </trkpt>
      <trkpt lat="42.501226" lon="-6.459267">
        <ele>1181.036</ele>
        <time>2014-08-31T12:13:17Z</time>
      </trkpt>
      <trkpt lat="42.501315" lon="-6.459332">
        <ele>1180.017</ele>
        <time>2014-08-31T12:13:23Z</time>
      </trkpt>
      <trkpt lat="42.501402" lon="-6.459378">
        <ele>1180.018</ele>
        <time>2014-08-31T12:13:32Z</time>
      </trkpt>
      <trkpt lat="42.501500" lon="-6.459410">
        <ele>1180.007</ele>
        <time>2014-08-31T12:13:41Z</time>
      </trkpt>
      <trkpt lat="42.501585" lon="-6.459466">
        <ele>1180.070</ele>
        <time>2014-08-31T12:13:50Z</time>
      </trkpt>
      <trkpt lat="42.501654" lon="-6.459547">
        <ele>1179.059</ele>
        <time>2014-08-31T12:13:57Z</time>
      </trkpt>
      <trkpt lat="42.501720" lon="-6.459647">
        <ele>1179.081</ele>
        <time>2014-08-31T12:14:07Z</time>
      </trkpt>
      <trkpt lat="42.501781" lon="-6.459747">
        <ele>1178.036</ele>
        <time>2014-08-31T12:14:15Z</time>
      </trkpt>
      <trkpt lat="42.501856" lon="-6.459828">
        <ele>1178.056</ele>
        <time>2014-08-31T12:14:22Z</time>
      </trkpt>
      <trkpt lat="42.501933" lon="-6.459900">
        <ele>1177.042</ele>
        <time>2014-08-31T12:14:29Z</time>
      </trkpt>
      <trkpt lat="42.501999" lon="-6.459969">
        <ele>1176.089</ele>
        <time>2014-08-31T12:14:39Z</time>
      </trkpt>
      <trkpt lat="42.502062" lon="-6.460069">
        <ele>1175.052</ele>
        <time>2014-08-31T12:14:48Z</time>
      </trkpt>
      <trkpt lat="42.502130" lon="-6.460166">
        <ele>1175.053</ele>
        <time>2014-08-31T12:14:56Z</time>
      </trkpt>
      <trkpt lat="42.502201" lon="-6.460246">
        <ele>1174.008</ele>
        <time>2014-08-31T12:15:03Z</time>
      </trkpt>
      <trkpt lat="42.502282" lon="-6.460314">
        <ele>1174.007</ele>
        <time>2014-08-31T12:15:10Z</time>
      </trkpt>
      <trkpt lat="42.502357" lon="-6.460396">
        <ele>1173.032</ele>
        <time>2014-08-31T12:15:17Z</time>
      </trkpt>
      <trkpt lat="42.502441" lon="-6.460453">
        <ele>1173.041</ele>
        <time>2014-08-31T12:15:25Z</time>
      </trkpt>
      <trkpt lat="42.502525" lon="-6.460501">
        <ele>1173.013</ele>
        <time>2014-08-31T12:15:30Z</time>
      </trkpt>
      <trkpt lat="42.502615" lon="-6.460565">
        <ele>1172.068</ele>
        <time>2014-08-31T12:15:37Z</time>
      </trkpt>
      <trkpt lat="42.502699" lon="-6.460622">
        <ele>1172.098</ele>
        <time>2014-08-31T12:15:44Z</time>
      </trkpt>
      <trkpt lat="42.502782" lon="-6.460712">
        <ele>1172.084</ele>
        <time>2014-08-31T12:15:53Z</time>
      </trkpt>
      <trkpt lat="42.502856" lon="-6.460793">
        <ele>1172.091</ele>
        <time>2014-08-31T12:16:03Z</time>
      </trkpt>
      <trkpt lat="42.502942" lon="-6.460852">
        <ele>1171.046</ele>
        <time>2014-08-31T12:16:10Z</time>
      </trkpt>
      <trkpt lat="42.503023" lon="-6.460932">
        <ele>1171.088</ele>
        <time>2014-08-31T12:16:16Z</time>
      </trkpt>
      <trkpt lat="42.503091" lon="-6.461017">
        <ele>1171.016</ele>
        <time>2014-08-31T12:16:25Z</time>
      </trkpt>
      <trkpt lat="42.503146" lon="-6.461122">
        <ele>1171.007</ele>
        <time>2014-08-31T12:16:33Z</time>
      </trkpt>
      <trkpt lat="42.503200" lon="-6.461224">
        <ele>1171.081</ele>
        <time>2014-08-31T12:16:41Z</time>
      </trkpt>
      <trkpt lat="42.503279" lon="-6.461319">
        <ele>1170.090</ele>
        <time>2014-08-31T12:16:49Z</time>
      </trkpt>
      <trkpt lat="42.503335" lon="-6.461416">
        <ele>1170.052</ele>
        <time>2014-08-31T12:16:56Z</time>
      </trkpt>
      <trkpt lat="42.503400" lon="-6.461518">
        <ele>1169.057</ele>
        <time>2014-08-31T12:17:04Z</time>
      </trkpt>
      <trkpt lat="42.503473" lon="-6.461600">
        <ele>1168.067</ele>
        <time>2014-08-31T12:17:12Z</time>
      </trkpt>
      <trkpt lat="42.503552" lon="-6.461675">
        <ele>1168.013</ele>
        <time>2014-08-31T12:17:19Z</time>
      </trkpt>
      <trkpt lat="42.503635" lon="-6.461750">
        <ele>1167.010</ele>
        <time>2014-08-31T12:17:27Z</time>
      </trkpt>
      <trkpt lat="42.503709" lon="-6.461837">
        <ele>1166.015</ele>
        <time>2014-08-31T12:17:34Z</time>
      </trkpt>
      <trkpt lat="42.503780" lon="-6.461919">
        <ele>1164.065</ele>
        <time>2014-08-31T12:17:42Z</time>
      </trkpt>
      <trkpt lat="42.503839" lon="-6.462022">
        <ele>1164.011</ele>
        <time>2014-08-31T12:17:51Z</time>
      </trkpt>
      <trkpt lat="42.503914" lon="-6.462099">
        <ele>1163.007</ele>
        <time>2014-08-31T12:17:57Z</time>
      </trkpt>
      <trkpt lat="42.503993" lon="-6.462187">
        <ele>1163.048</ele>
        <time>2014-08-31T12:18:04Z</time>
      </trkpt>
      <trkpt lat="42.504081" lon="-6.462254">
        <ele>1162.067</ele>
        <time>2014-08-31T12:18:11Z</time>
      </trkpt>
      <trkpt lat="42.504165" lon="-6.462334">
        <ele>1161.059</ele>
        <time>2014-08-31T12:18:19Z</time>
      </trkpt>
      <trkpt lat="42.504245" lon="-6.462416">
        <ele>1160.084</ele>
        <time>2014-08-31T12:18:26Z</time>
      </trkpt>
      <trkpt lat="42.504323" lon="-6.462487">
        <ele>1159.024</ele>
        <time>2014-08-31T12:18:33Z</time>
      </trkpt>
      <trkpt lat="42.504415" lon="-6.462577">
        <ele>1158.050</ele>
        <time>2014-08-31T12:18:42Z</time>
      </trkpt>
      <trkpt lat="42.504480" lon="-6.462667">
        <ele>1157.067</ele>
        <time>2014-08-31T12:18:50Z</time>
      </trkpt>
      <trkpt lat="42.504547" lon="-6.462760">
        <ele>1156.037</ele>
        <time>2014-08-31T12:18:57Z</time>
      </trkpt>
      <trkpt lat="42.504616" lon="-6.462846">
        <ele>1155.049</ele>
        <time>2014-08-31T12:19:06Z</time>
      </trkpt>
      <trkpt lat="42.504681" lon="-6.462950">
        <ele>1154.013</ele>
        <time>2014-08-31T12:19:15Z</time>
      </trkpt>
      <trkpt lat="42.504755" lon="-6.463037">
        <ele>1154.007</ele>
        <time>2014-08-31T12:19:22Z</time>
      </trkpt>
      <trkpt lat="42.504804" lon="-6.463146">
        <ele>1153.070</ele>
        <time>2014-08-31T12:19:29Z</time>
      </trkpt>
      <trkpt lat="42.504850" lon="-6.463254">
        <ele>1152.039</ele>
        <time>2014-08-31T12:19:36Z</time>
      </trkpt>
      <trkpt lat="42.504904" lon="-6.463370">
        <ele>1152.041</ele>
        <time>2014-08-31T12:19:44Z</time>
      </trkpt>
      <trkpt lat="42.504970" lon="-6.463461">
        <ele>1151.096</ele>
        <time>2014-08-31T12:19:52Z</time>
      </trkpt>
      <trkpt lat="42.505021" lon="-6.463571">
        <ele>1151.036</ele>
        <time>2014-08-31T12:20:00Z</time>
      </trkpt>
      <trkpt lat="42.505067" lon="-6.463693">
        <ele>1150.052</ele>
        <time>2014-08-31T12:20:08Z</time>
      </trkpt>
      <trkpt lat="42.505106" lon="-6.463825">
        <ele>1150.039</ele>
        <time>2014-08-31T12:20:16Z</time>
      </trkpt>
      <trkpt lat="42.505163" lon="-6.463921">
        <ele>1149.034</ele>
        <time>2014-08-31T12:20:22Z</time>
      </trkpt>
      <trkpt lat="42.505218" lon="-6.464031">
        <ele>1149.055</ele>
        <time>2014-08-31T12:20:30Z</time>
      </trkpt>
      <trkpt lat="42.505272" lon="-6.464140">
        <ele>1149.010</ele>
        <time>2014-08-31T12:20:38Z</time>
      </trkpt>
      <trkpt lat="42.505328" lon="-6.464248">
        <ele>1148.007</ele>
        <time>2014-08-31T12:20:46Z</time>
      </trkpt>
      <trkpt lat="42.505396" lon="-6.464345">
        <ele>1148.090</ele>
        <time>2014-08-31T12:20:54Z</time>
      </trkpt>
      <trkpt lat="42.505462" lon="-6.464449">
        <ele>1148.069</ele>
        <time>2014-08-31T12:21:02Z</time>
      </trkpt>
      <trkpt lat="42.505522" lon="-6.464557">
        <ele>1147.031</ele>
        <time>2014-08-31T12:21:13Z</time>
      </trkpt>
      <trkpt lat="42.505583" lon="-6.464655">
        <ele>1146.096</ele>
        <time>2014-08-31T12:21:20Z</time>
      </trkpt>
      <trkpt lat="42.505647" lon="-6.464749">
        <ele>1146.056</ele>
        <time>2014-08-31T12:21:27Z</time>
      </trkpt>
      <trkpt lat="42.505706" lon="-6.464853">
        <ele>1145.062</ele>
        <time>2014-08-31T12:21:34Z</time>
      </trkpt>
      <trkpt lat="42.505762" lon="-6.464962">
        <ele>1145.079</ele>
        <time>2014-08-31T12:21:41Z</time>
      </trkpt>
      <trkpt lat="42.505824" lon="-6.465072">
        <ele>1145.099</ele>
        <time>2014-08-31T12:21:49Z</time>
      </trkpt>
      <trkpt lat="42.505860" lon="-6.465185">
        <ele>1144.007</ele>
        <time>2014-08-31T12:21:59Z</time>
      </trkpt>
      <trkpt lat="42.505910" lon="-6.465301">
        <ele>1142.027</ele>
        <time>2014-08-31T12:22:06Z</time>
      </trkpt>
      <trkpt lat="42.505972" lon="-6.465402">
        <ele>1141.007</ele>
        <time>2014-08-31T12:22:13Z</time>
      </trkpt>
      <trkpt lat="42.506025" lon="-6.465502">
        <ele>1141.096</ele>
        <time>2014-08-31T12:22:20Z</time>
      </trkpt>
      <trkpt lat="42.506070" lon="-6.465613">
        <ele>1140.035</ele>
        <time>2014-08-31T12:22:29Z</time>
      </trkpt>
      <trkpt lat="42.506121" lon="-6.465733">
        <ele>1139.077</ele>
        <time>2014-08-31T12:22:37Z</time>
      </trkpt>
      <trkpt lat="42.506168" lon="-6.465837">
        <ele>1138.092</ele>
        <time>2014-08-31T12:22:45Z</time>
      </trkpt>
      <trkpt lat="42.506227" lon="-6.465943">
        <ele>1138.072</ele>
        <time>2014-08-31T12:22:53Z</time>
      </trkpt>
      <trkpt lat="42.506293" lon="-6.466041">
        <ele>1137.088</ele>
        <time>2014-08-31T12:22:59Z</time>
      </trkpt>
      <trkpt lat="42.506349" lon="-6.466137">
        <ele>1136.035</ele>
        <time>2014-08-31T12:23:06Z</time>
      </trkpt>
      <trkpt lat="42.506418" lon="-6.466234">
        <ele>1135.064</ele>
        <time>2014-08-31T12:23:14Z</time>
      </trkpt>
      <trkpt lat="42.506493" lon="-6.466323">
        <ele>1134.006</ele>
        <time>2014-08-31T12:23:20Z</time>
      </trkpt>
      <trkpt lat="42.506545" lon="-6.466429">
        <ele>1134.016</ele>
        <time>2014-08-31T12:23:28Z</time>
      </trkpt>
      <trkpt lat="42.506593" lon="-6.466544">
        <ele>1133.007</ele>
        <time>2014-08-31T12:23:36Z</time>
      </trkpt>
      <trkpt lat="42.506641" lon="-6.466648">
        <ele>1132.033</ele>
        <time>2014-08-31T12:23:43Z</time>
      </trkpt>
      <trkpt lat="42.506701" lon="-6.466756">
        <ele>1132.022</ele>
        <time>2014-08-31T12:23:50Z</time>
      </trkpt>
      <trkpt lat="42.506763" lon="-6.466871">
        <ele>1131.054</ele>
        <time>2014-08-31T12:23:59Z</time>
      </trkpt>
      <trkpt lat="42.506811" lon="-6.466990">
        <ele>1131.039</ele>
        <time>2014-08-31T12:24:06Z</time>
      </trkpt>
      <trkpt lat="42.506868" lon="-6.467101">
        <ele>1130.069</ele>
        <time>2014-08-31T12:24:16Z</time>
      </trkpt>
      <trkpt lat="42.506937" lon="-6.467201">
        <ele>1128.055</ele>
        <time>2014-08-31T12:24:25Z</time>
      </trkpt>
      <trkpt lat="42.507001" lon="-6.467295">
        <ele>1128.062</ele>
        <time>2014-08-31T12:24:31Z</time>
      </trkpt>
      <trkpt lat="42.507059" lon="-6.467391">
        <ele>1128.089</ele>
        <time>2014-08-31T12:24:38Z</time>
      </trkpt>
      <trkpt lat="42.507135" lon="-6.467482">
        <ele>1126.006</ele>
        <time>2014-08-31T12:24:47Z</time>
      </trkpt>
      <trkpt lat="42.507211" lon="-6.467567">
        <ele>1125.026</ele>
        <time>2014-08-31T12:24:55Z</time>
      </trkpt>
      <trkpt lat="42.507291" lon="-6.467630">
        <ele>1124.007</ele>
        <time>2014-08-31T12:25:02Z</time>
      </trkpt>
      <trkpt lat="42.507365" lon="-6.467705">
        <ele>1123.035</ele>
        <time>2014-08-31T12:25:09Z</time>
      </trkpt>
      <trkpt lat="42.507441" lon="-6.467796">
        <ele>1122.024</ele>
        <time>2014-08-31T12:25:18Z</time>
      </trkpt>
      <trkpt lat="42.507520" lon="-6.467867">
        <ele>1122.056</ele>
        <time>2014-08-31T12:25:25Z</time>
      </trkpt>
      <trkpt lat="42.507609" lon="-6.467929">
        <ele>1121.081</ele>
        <time>2014-08-31T12:25:33Z</time>
      </trkpt>
      <trkpt lat="42.507708" lon="-6.467968">
        <ele>1120.051</ele>
        <time>2014-08-31T12:25:41Z</time>
      </trkpt>
      <trkpt lat="42.507811" lon="-6.467993">
        <ele>1119.087</ele>
        <time>2014-08-31T12:25:50Z</time>
      </trkpt>
      <trkpt lat="42.507902" lon="-6.468003">
        <ele>1118.064</ele>
        <time>2014-08-31T12:25:58Z</time>
      </trkpt>
      <trkpt lat="42.507999" lon="-6.467995">
        <ele>1117.038</ele>
        <time>2014-08-31T12:26:06Z</time>
      </trkpt>
      <trkpt lat="42.508090" lon="-6.467949">
        <ele>1116.070</ele>
        <time>2014-08-31T12:26:14Z</time>
      </trkpt>
      <trkpt lat="42.508179" lon="-6.467888">
        <ele>1115.017</ele>
        <time>2014-08-31T12:26:22Z</time>
      </trkpt>
      <trkpt lat="42.508252" lon="-6.467814">
        <ele>1114.007</ele>
        <time>2014-08-31T12:26:30Z</time>
      </trkpt>
      <trkpt lat="42.508343" lon="-6.467761">
        <ele>1114.090</ele>
        <time>2014-08-31T12:26:38Z</time>
      </trkpt>
      <trkpt lat="42.508433" lon="-6.467745">
        <ele>1113.049</ele>
        <time>2014-08-31T12:26:45Z</time>
      </trkpt>
      <trkpt lat="42.508532" lon="-6.467748">
        <ele>1112.071</ele>
        <time>2014-08-31T12:26:53Z</time>
      </trkpt>
      <trkpt lat="42.508622" lon="-6.467756">
        <ele>1112.016</ele>
        <time>2014-08-31T12:26:59Z</time>
      </trkpt>
      <trkpt lat="42.508712" lon="-6.467795">
        <ele>1110.066</ele>
        <time>2014-08-31T12:27:08Z</time>
      </trkpt>
      <trkpt lat="42.508802" lon="-6.467823">
        <ele>1108.032</ele>
        <time>2014-08-31T12:27:17Z</time>
      </trkpt>
      <trkpt lat="42.508908" lon="-6.467834">
        <ele>1106.049</ele>
        <time>2014-08-31T12:27:26Z</time>
      </trkpt>
      <trkpt lat="42.509011" lon="-6.467860">
        <ele>1104.084</ele>
        <time>2014-08-31T12:27:34Z</time>
      </trkpt>
      <trkpt lat="42.509097" lon="-6.467913">
        <ele>1102.007</ele>
        <time>2014-08-31T12:27:42Z</time>
      </trkpt>
      <trkpt lat="42.509196" lon="-6.467931">
        <ele>1100.017</ele>
        <time>2014-08-31T12:27:49Z</time>
      </trkpt>
      <trkpt lat="42.509287" lon="-6.467935">
        <ele>1099.007</ele>
        <time>2014-08-31T12:27:57Z</time>
      </trkpt>
      <trkpt lat="42.509377" lon="-6.467947">
        <ele>1097.095</ele>
        <time>2014-08-31T12:28:04Z</time>
      </trkpt>
      <trkpt lat="42.509471" lon="-6.468007">
        <ele>1096.044</ele>
        <time>2014-08-31T12:28:13Z</time>
      </trkpt>
      <trkpt lat="42.509564" lon="-6.468054">
        <ele>1095.076</ele>
        <time>2014-08-31T12:28:21Z</time>
      </trkpt>
      <trkpt lat="42.509664" lon="-6.468102">
        <ele>1095.041</ele>
        <time>2014-08-31T12:28:28Z</time>
      </trkpt>
      <trkpt lat="42.509742" lon="-6.468172">
        <ele>1093.011</ele>
        <time>2014-08-31T12:28:39Z</time>
      </trkpt>
      <trkpt lat="42.509822" lon="-6.468229">
        <ele>1093.037</ele>
        <time>2014-08-31T12:28:47Z</time>
      </trkpt>
      <trkpt lat="42.509896" lon="-6.468218">
        <ele>1092.044</ele>
        <time>2014-08-31T12:28:57Z</time>
      </trkpt>
      <trkpt lat="42.509990" lon="-6.468231">
        <ele>1093.087</ele>
        <time>2014-08-31T12:29:03Z</time>
      </trkpt>
      <trkpt lat="42.510080" lon="-6.468268">
        <ele>1093.042</ele>
        <time>2014-08-31T12:29:09Z</time>
      </trkpt>
      <trkpt lat="42.510169" lon="-6.468303">
        <ele>1093.026</ele>
        <time>2014-08-31T12:29:18Z</time>
      </trkpt>
      <trkpt lat="42.510239" lon="-6.468341">
        <ele>1093.007</ele>
        <time>2014-08-31T12:29:28Z</time>
      </trkpt>
      <trkpt lat="42.510292" lon="-6.468449">
        <ele>1092.095</ele>
        <time>2014-08-31T12:29:38Z</time>
      </trkpt>
      <trkpt lat="42.510356" lon="-6.468548">
        <ele>1092.074</ele>
        <time>2014-08-31T12:29:47Z</time>
      </trkpt>
      <trkpt lat="42.510424" lon="-6.468630">
        <ele>1091.026</ele>
        <time>2014-08-31T12:29:55Z</time>
      </trkpt>
      <trkpt lat="42.510493" lon="-6.468724">
        <ele>1092.051</ele>
        <time>2014-08-31T12:30:03Z</time>
      </trkpt>
      <trkpt lat="42.510543" lon="-6.468827">
        <ele>1091.021</ele>
        <time>2014-08-31T12:30:13Z</time>
      </trkpt>
      <trkpt lat="42.510601" lon="-6.468922">
        <ele>1091.097</ele>
        <time>2014-08-31T12:30:20Z</time>
      </trkpt>
      <trkpt lat="42.510671" lon="-6.469003">
        <ele>1091.054</ele>
        <time>2014-08-31T12:30:27Z</time>
      </trkpt>
      <trkpt lat="42.510766" lon="-6.469043">
        <ele>1091.035</ele>
        <time>2014-08-31T12:30:34Z</time>
      </trkpt>
      <trkpt lat="42.510843" lon="-6.469125">
        <ele>1091.086</ele>
        <time>2014-08-31T12:30:42Z</time>
      </trkpt>
      <trkpt lat="42.510906" lon="-6.469221">
        <ele>1090.014</ele>
        <time>2014-08-31T12:30:49Z</time>
      </trkpt>
      <trkpt lat="42.510976" lon="-6.469312">
        <ele>1089.007</ele>
        <time>2014-08-31T12:30:57Z</time>
      </trkpt>
      <trkpt lat="42.511039" lon="-6.469368">
        <ele>1088.090</ele>
        <time>2014-08-31T12:31:07Z</time>
      </trkpt>
      <trkpt lat="42.511079" lon="-6.469435">
        <ele>1086.059</ele>
        <time>2014-08-31T12:31:18Z</time>
      </trkpt>
      <trkpt lat="42.511173" lon="-6.469494">
        <ele>1085.021</ele>
        <time>2014-08-31T12:31:24Z</time>
      </trkpt>
      <trkpt lat="42.511259" lon="-6.469558">
        <ele>1084.056</ele>
        <time>2014-08-31T12:31:32Z</time>
      </trkpt>
      <trkpt lat="42.511346" lon="-6.469597">
        <ele>1083.036</ele>
        <time>2014-08-31T12:31:39Z</time>
      </trkpt>
      <trkpt lat="42.511424" lon="-6.469668">
        <ele>1083.072</ele>
        <time>2014-08-31T12:31:46Z</time>
      </trkpt>
      <trkpt lat="42.511492" lon="-6.469750">
        <ele>1082.089</ele>
        <time>2014-08-31T12:31:54Z</time>
      </trkpt>
      <trkpt lat="42.511575" lon="-6.469798">
        <ele>1082.043</ele>
        <time>2014-08-31T12:32:01Z</time>
      </trkpt>
      <trkpt lat="42.511652" lon="-6.469862">
        <ele>1081.064</ele>
        <time>2014-08-31T12:32:08Z</time>
      </trkpt>
      <trkpt lat="42.511740" lon="-6.469914">
        <ele>1081.010</ele>
        <time>2014-08-31T12:32:17Z</time>
      </trkpt>
      <trkpt lat="42.511831" lon="-6.469979">
        <ele>1080.007</ele>
        <time>2014-08-31T12:32:25Z</time>
      </trkpt>
      <trkpt lat="42.511912" lon="-6.470042">
        <ele>1078.051</ele>
        <time>2014-08-31T12:32:34Z</time>
      </trkpt>
      <trkpt lat="42.511993" lon="-6.470103">
        <ele>1077.060</ele>
        <time>2014-08-31T12:32:43Z</time>
      </trkpt>
      <trkpt lat="42.512063" lon="-6.470181">
        <ele>1076.032</ele>
        <time>2014-08-31T12:32:50Z</time>
      </trkpt>
      <trkpt lat="42.512141" lon="-6.470247">
        <ele>1075.067</ele>
        <time>2014-08-31T12:32:58Z</time>
      </trkpt>
      <trkpt lat="42.512219" lon="-6.470320">
        <ele>1074.077</ele>
        <time>2014-08-31T12:33:07Z</time>
      </trkpt>
      <trkpt lat="42.512300" lon="-6.470389">
        <ele>1073.073</ele>
        <time>2014-08-31T12:33:15Z</time>
      </trkpt>
      <trkpt lat="42.512382" lon="-6.470440">
        <ele>1072.030</ele>
        <time>2014-08-31T12:33:22Z</time>
      </trkpt>
      <trkpt lat="42.512463" lon="-6.470496">
        <ele>1071.056</ele>
        <time>2014-08-31T12:33:30Z</time>
      </trkpt>
      <trkpt lat="42.512516" lon="-6.470596">
        <ele>1070.059</ele>
        <time>2014-08-31T12:33:37Z</time>
      </trkpt>
      <trkpt lat="42.512581" lon="-6.470680">
        <ele>1068.014</ele>
        <time>2014-08-31T12:33:47Z</time>
      </trkpt>
      <trkpt lat="42.512669" lon="-6.470719">
        <ele>1067.007</ele>
        <time>2014-08-31T12:33:55Z</time>
      </trkpt>
      <trkpt lat="42.512760" lon="-6.470750">
        <ele>1066.052</ele>
        <time>2014-08-31T12:34:03Z</time>
      </trkpt>
      <trkpt lat="42.512838" lon="-6.470826">
        <ele>1065.011</ele>
        <time>2014-08-31T12:34:11Z</time>
      </trkpt>
      <trkpt lat="42.512914" lon="-6.470898">
        <ele>1064.023</ele>
        <time>2014-08-31T12:34:18Z</time>
      </trkpt>
      <trkpt lat="42.512985" lon="-6.470963">
        <ele>1062.068</ele>
        <time>2014-08-31T12:34:28Z</time>
      </trkpt>
      <trkpt lat="42.513070" lon="-6.471035">
        <ele>1061.028</ele>
        <time>2014-08-31T12:34:36Z</time>
      </trkpt>
      <trkpt lat="42.513153" lon="-6.471084">
        <ele>1060.084</ele>
        <time>2014-08-31T12:34:43Z</time>
      </trkpt>
      <trkpt lat="42.513238" lon="-6.471127">
        <ele>1058.011</ele>
        <time>2014-08-31T12:34:52Z</time>
      </trkpt>
      <trkpt lat="42.513327" lon="-6.471180">
        <ele>1057.094</ele>
        <time>2014-08-31T12:35:00Z</time>
      </trkpt>
      <trkpt lat="42.513417" lon="-6.471210">
        <ele>1055.057</ele>
        <time>2014-08-31T12:35:08Z</time>
      </trkpt>
      <trkpt lat="42.513500" lon="-6.471273">
        <ele>1055.022</ele>
        <time>2014-08-31T12:35:16Z</time>
      </trkpt>
      <trkpt lat="42.513582" lon="-6.471336">
        <ele>1054.007</ele>
        <time>2014-08-31T12:35:26Z</time>
      </trkpt>
      <trkpt lat="42.513657" lon="-6.471429">
        <ele>1052.026</ele>
        <time>2014-08-31T12:35:36Z</time>
      </trkpt>
      <trkpt lat="42.513735" lon="-6.471506">
        <ele>1052.075</ele>
        <time>2014-08-31T12:35:44Z</time>
      </trkpt>
      <trkpt lat="42.513768" lon="-6.471632">
        <ele>1052.017</ele>
        <time>2014-08-31T12:35:52Z</time>
      </trkpt>
      <trkpt lat="42.513819" lon="-6.471735">
        <ele>1051.022</ele>
        <time>2014-08-31T12:35:59Z</time>
      </trkpt>
      <trkpt lat="42.513878" lon="-6.471839">
        <ele>1051.092</ele>
        <time>2014-08-31T12:36:08Z</time>
      </trkpt>
      <trkpt lat="42.513962" lon="-6.471908">
        <ele>1051.078</ele>
        <time>2014-08-31T12:36:19Z</time>
      </trkpt>
      <trkpt lat="42.514044" lon="-6.471993">
        <ele>1050.055</ele>
        <time>2014-08-31T12:36:28Z</time>
      </trkpt>
      <trkpt lat="42.514140" lon="-6.472047">
        <ele>1049.012</ele>
        <time>2014-08-31T12:36:37Z</time>
      </trkpt>
      <trkpt lat="42.514230" lon="-6.472065">
        <ele>1047.032</ele>
        <time>2014-08-31T12:36:43Z</time>
      </trkpt>
      <trkpt lat="42.514328" lon="-6.472065">
        <ele>1046.005</ele>
        <time>2014-08-31T12:36:51Z</time>
      </trkpt>
      <trkpt lat="42.514422" lon="-6.472054">
        <ele>1045.007</ele>
        <time>2014-08-31T12:36:59Z</time>
      </trkpt>
      <trkpt lat="42.514486" lon="-6.472090">
        <ele>1044.098</ele>
        <time>2014-08-31T12:37:09Z</time>
      </trkpt>
      <trkpt lat="42.514579" lon="-6.472133">
        <ele>1043.097</ele>
        <time>2014-08-31T12:37:16Z</time>
      </trkpt>
      <trkpt lat="42.514670" lon="-6.472157">
        <ele>1042.099</ele>
        <time>2014-08-31T12:37:24Z</time>
      </trkpt>
      <trkpt lat="42.514755" lon="-6.472208">
        <ele>1041.084</ele>
        <time>2014-08-31T12:37:33Z</time>
      </trkpt>
      <trkpt lat="42.514840" lon="-6.472253">
        <ele>1040.054</ele>
        <time>2014-08-31T12:37:41Z</time>
      </trkpt>
      <trkpt lat="42.514930" lon="-6.472244">
        <ele>1040.010</ele>
        <time>2014-08-31T12:37:49Z</time>
      </trkpt>
      <trkpt lat="42.515032" lon="-6.472241">
        <ele>1038.087</ele>
        <time>2014-08-31T12:37:56Z</time>
      </trkpt>
      <trkpt lat="42.515119" lon="-6.472199">
        <ele>1037.087</ele>
        <time>2014-08-31T12:38:06Z</time>
      </trkpt>
      <trkpt lat="42.515216" lon="-6.472205">
        <ele>1035.042</ele>
        <time>2014-08-31T12:38:13Z</time>
      </trkpt>
      <trkpt lat="42.515276" lon="-6.472187">
        <ele>1034.026</ele>
        <time>2014-08-31T12:38:23Z</time>
      </trkpt>
      <trkpt lat="42.515361" lon="-6.472134">
        <ele>1032.007</ele>
        <time>2014-08-31T12:38:33Z</time>
      </trkpt>
      <trkpt lat="42.515453" lon="-6.472092">
        <ele>1030.035</ele>
        <time>2014-08-31T12:38:40Z</time>
      </trkpt>
      <trkpt lat="42.515551" lon="-6.472076">
        <ele>1028.064</ele>
        <time>2014-08-31T12:38:49Z</time>
      </trkpt>
      <trkpt lat="42.515649" lon="-6.472059">
        <ele>1027.066</ele>
        <time>2014-08-31T12:38:59Z</time>
      </trkpt>
      <trkpt lat="42.515744" lon="-6.472017">
        <ele>1026.021</ele>
        <time>2014-08-31T12:39:07Z</time>
      </trkpt>
      <trkpt lat="42.515829" lon="-6.471974">
        <ele>1024.071</ele>
        <time>2014-08-31T12:39:16Z</time>
      </trkpt>
      <trkpt lat="42.515919" lon="-6.471964">
        <ele>1022.017</ele>
        <time>2014-08-31T12:39:24Z</time>
      </trkpt>
      <trkpt lat="42.516016" lon="-6.471969">
        <ele>1020.094</ele>
        <time>2014-08-31T12:39:32Z</time>
      </trkpt>
      <trkpt lat="42.516106" lon="-6.472014">
        <ele>1020.013</ele>
        <time>2014-08-31T12:39:40Z</time>
      </trkpt>
      <trkpt lat="42.516200" lon="-6.472019">
        <ele>1019.043</ele>
        <time>2014-08-31T12:39:48Z</time>
      </trkpt>
      <trkpt lat="42.516300" lon="-6.472042">
        <ele>1017.007</ele>
        <time>2014-08-31T12:39:56Z</time>
      </trkpt>
      <trkpt lat="42.516400" lon="-6.472046">
        <ele>1015.007</ele>
        <time>2014-08-31T12:40:04Z</time>
      </trkpt>
      <trkpt lat="42.516490" lon="-6.472062">
        <ele>1014.018</ele>
        <time>2014-08-31T12:40:11Z</time>
      </trkpt>
      <trkpt lat="42.516554" lon="-6.472113">
        <ele>1013.047</ele>
        <time>2014-08-31T12:40:21Z</time>
      </trkpt>
      <trkpt lat="42.516620" lon="-6.472213">
        <ele>1013.069</ele>
        <time>2014-08-31T12:40:29Z</time>
      </trkpt>
      <trkpt lat="42.516685" lon="-6.472309">
        <ele>1013.044</ele>
        <time>2014-08-31T12:40:37Z</time>
      </trkpt>
      <trkpt lat="42.516756" lon="-6.472394">
        <ele>1013.074</ele>
        <time>2014-08-31T12:40:45Z</time>
      </trkpt>
      <trkpt lat="42.516841" lon="-6.472465">
        <ele>1013.070</ele>
        <time>2014-08-31T12:40:54Z</time>
      </trkpt>
      <trkpt lat="42.516910" lon="-6.472552">
        <ele>1013.027</ele>
        <time>2014-08-31T12:41:02Z</time>
      </trkpt>
      <trkpt lat="42.516962" lon="-6.472657">
        <ele>1013.094</ele>
        <time>2014-08-31T12:41:08Z</time>
      </trkpt>
      <trkpt lat="42.517016" lon="-6.472780">
        <ele>1012.057</ele>
        <time>2014-08-31T12:41:17Z</time>
      </trkpt>
      <trkpt lat="42.517075" lon="-6.472872">
        <ele>1012.022</ele>
        <time>2014-08-31T12:41:24Z</time>
      </trkpt>
      <trkpt lat="42.517130" lon="-6.472973">
        <ele>1012.007</ele>
        <time>2014-08-31T12:41:32Z</time>
      </trkpt>
      <trkpt lat="42.517175" lon="-6.473090">
        <ele>1012.066</ele>
        <time>2014-08-31T12:41:40Z</time>
      </trkpt>
      <trkpt lat="42.517242" lon="-6.473200">
        <ele>1012.085</ele>
        <time>2014-08-31T12:41:48Z</time>
      </trkpt>
      <trkpt lat="42.517314" lon="-6.473276">
        <ele>1012.097</ele>
        <time>2014-08-31T12:41:55Z</time>
      </trkpt>
      <trkpt lat="42.517386" lon="-6.473363">
        <ele>1012.062</ele>
        <time>2014-08-31T12:42:02Z</time>
      </trkpt>
      <trkpt lat="42.517465" lon="-6.473442">
        <ele>1012.082</ele>
        <time>2014-08-31T12:42:10Z</time>
      </trkpt>
      <trkpt lat="42.517524" lon="-6.473551">
        <ele>1012.058</ele>
        <time>2014-08-31T12:42:17Z</time>
      </trkpt>
      <trkpt lat="42.517595" lon="-6.473627">
        <ele>1011.065</ele>
        <time>2014-08-31T12:42:25Z</time>
      </trkpt>
      <trkpt lat="42.517662" lon="-6.473713">
        <ele>1011.094</ele>
        <time>2014-08-31T12:42:35Z</time>
      </trkpt>
      <trkpt lat="42.517746" lon="-6.473765">
        <ele>1012.057</ele>
        <time>2014-08-31T12:42:42Z</time>
      </trkpt>
      <trkpt lat="42.517814" lon="-6.473859">
        <ele>1012.022</ele>
        <time>2014-08-31T12:42:50Z</time>
      </trkpt>
      <trkpt lat="42.517860" lon="-6.473965">
        <ele>1012.007</ele>
        <time>2014-08-31T12:42:57Z</time>
      </trkpt>
      <trkpt lat="42.517905" lon="-6.474078">
        <ele>1011.096</ele>
        <time>2014-08-31T12:43:05Z</time>
      </trkpt>
      <trkpt lat="42.517959" lon="-6.474186">
        <ele>1011.055</ele>
        <time>2014-08-31T12:43:14Z</time>
      </trkpt>
      <trkpt lat="42.518028" lon="-6.474273">
        <ele>1010.057</ele>
        <time>2014-08-31T12:43:22Z</time>
      </trkpt>
      <trkpt lat="42.518083" lon="-6.474389">
        <ele>1009.022</ele>
        <time>2014-08-31T12:43:30Z</time>
      </trkpt>
      <trkpt lat="42.518134" lon="-6.474507">
        <ele>1009.082</ele>
        <time>2014-08-31T12:43:36Z</time>
      </trkpt>
      <trkpt lat="42.518192" lon="-6.474615">
        <ele>1008.098</ele>
        <time>2014-08-31T12:43:45Z</time>
      </trkpt>
      <trkpt lat="42.518254" lon="-6.474722">
        <ele>1007.045</ele>
        <time>2014-08-31T12:43:53Z</time>
      </trkpt>
      <trkpt lat="42.518319" lon="-6.474818">
        <ele>1006.063</ele>
        <time>2014-08-31T12:44:00Z</time>
      </trkpt>
      <trkpt lat="42.518376" lon="-6.474927">
        <ele>1006.044</ele>
        <time>2014-08-31T12:44:07Z</time>
      </trkpt>
      <trkpt lat="42.518416" lon="-6.475055">
        <ele>1006.018</ele>
        <time>2014-08-31T12:44:16Z</time>
      </trkpt>
      <trkpt lat="42.518462" lon="-6.475172">
        <ele>1006.007</ele>
        <time>2014-08-31T12:44:24Z</time>
      </trkpt>
      <trkpt lat="42.518522" lon="-6.475276">
        <ele>1006.073</ele>
        <time>2014-08-31T12:44:33Z</time>
      </trkpt>
      <trkpt lat="42.518581" lon="-6.475387">
        <ele>1006.052</ele>
        <time>2014-08-31T12:44:42Z</time>
      </trkpt>
      <trkpt lat="42.518627" lon="-6.475504">
        <ele>1005.094</ele>
        <time>2014-08-31T12:44:51Z</time>
      </trkpt>
      <trkpt lat="42.518666" lon="-6.475620">
        <ele>1004.079</ele>
        <time>2014-08-31T12:44:58Z</time>
      </trkpt>
      <trkpt lat="42.518709" lon="-6.475727">
        <ele>1004.059</ele>
        <time>2014-08-31T12:45:05Z</time>
      </trkpt>
      <trkpt lat="42.518739" lon="-6.475854">
        <ele>1004.075</ele>
        <time>2014-08-31T12:45:14Z</time>
      </trkpt>
      <trkpt lat="42.518796" lon="-6.475950">
        <ele>1004.072</ele>
        <time>2014-08-31T12:45:20Z</time>
      </trkpt>
      <trkpt lat="42.518839" lon="-6.476061">
        <ele>1005.048</ele>
        <time>2014-08-31T12:45:28Z</time>
      </trkpt>
      <trkpt lat="42.518880" lon="-6.476182">
        <ele>1005.061</ele>
        <time>2014-08-31T12:45:34Z</time>
      </trkpt>
      <trkpt lat="42.518944" lon="-6.476276">
        <ele>1003.017</ele>
        <time>2014-08-31T12:45:42Z</time>
      </trkpt>
      <trkpt lat="42.518995" lon="-6.476381">
        <ele>1003.007</ele>
        <time>2014-08-31T12:45:48Z</time>
      </trkpt>
      <trkpt lat="42.519056" lon="-6.476475">
        <ele>1003.051</ele>
        <time>2014-08-31T12:45:57Z</time>
      </trkpt>
      <trkpt lat="42.519095" lon="-6.476591">
        <ele>1003.040</ele>
        <time>2014-08-31T12:46:05Z</time>
      </trkpt>
      <trkpt lat="42.519135" lon="-6.476703">
        <ele>1003.052</ele>
        <time>2014-08-31T12:46:11Z</time>
      </trkpt>
      <trkpt lat="42.519184" lon="-6.476812">
        <ele>1003.077</ele>
        <time>2014-08-31T12:46:18Z</time>
      </trkpt>
      <trkpt lat="42.519224" lon="-6.476931">
        <ele>1003.097</ele>
        <time>2014-08-31T12:46:26Z</time>
      </trkpt>
      <trkpt lat="42.519275" lon="-6.477032">
        <ele>1003.083</ele>
        <time>2014-08-31T12:46:33Z</time>
      </trkpt>
      <trkpt lat="42.519335" lon="-6.477128">
        <ele>1003.060</ele>
        <time>2014-08-31T12:46:41Z</time>
      </trkpt>
      <trkpt lat="42.519386" lon="-6.477214">
        <ele>1003.019</ele>
        <time>2014-08-31T12:46:51Z</time>
      </trkpt>
      <trkpt lat="42.519447" lon="-6.477311">
        <ele>1002.009</ele>
        <time>2014-08-31T12:46:59Z</time>
      </trkpt>
      <trkpt lat="42.519504" lon="-6.477406">
        <ele>1001.019</ele>
        <time>2014-08-31T12:47:07Z</time>
      </trkpt>
      <trkpt lat="42.519579" lon="-6.477487">
        <ele>1000.007</ele>
        <time>2014-08-31T12:47:15Z</time>
      </trkpt>
      <trkpt lat="42.519657" lon="-6.477562">
        <ele>999.068</ele>
        <time>2014-08-31T12:47:22Z</time>
      </trkpt>
      <trkpt lat="42.519735" lon="-6.477631">
        <ele>998.027</ele>
        <time>2014-08-31T12:47:29Z</time>
      </trkpt>
      <trkpt lat="42.519809" lon="-6.477716">
        <ele>997.039</ele>
        <time>2014-08-31T12:47:37Z</time>
      </trkpt>
      <trkpt lat="42.519884" lon="-6.477761">
        <ele>996.054</ele>
        <time>2014-08-31T12:47:47Z</time>
      </trkpt>
      <trkpt lat="42.519979" lon="-6.477810">
        <ele>995.044</ele>
        <time>2014-08-31T12:47:55Z</time>
      </trkpt>
      <trkpt lat="42.520042" lon="-6.477893">
        <ele>994.090</ele>
        <time>2014-08-31T12:48:05Z</time>
      </trkpt>
      <trkpt lat="42.520033" lon="-6.477966">
        <ele>992.077</ele>
        <time>2014-08-31T12:48:15Z</time>
      </trkpt>
      <trkpt lat="42.520080" lon="-6.477939">
        <ele>992.064</ele>
        <time>2014-08-31T12:48:37Z</time>
      </trkpt>
      <trkpt lat="42.520100" lon="-6.477915">
        <ele>993.006</ele>
        <time>2014-08-31T12:49:18Z</time>
      </trkpt>
      <trkpt lat="42.520121" lon="-6.477900">
        <ele>995.016</ele>
        <time>2014-08-31T12:49:58Z</time>
      </trkpt>
      <trkpt lat="42.520121" lon="-6.477900">
        <ele>995.007</ele>
        <time>2014-08-31T12:50:38Z</time>
      </trkpt>
      <trkpt lat="42.520119" lon="-6.477899">
        <ele>996.073</ele>
        <time>2014-08-31T12:51:19Z</time>
      </trkpt>
      <trkpt lat="42.520136" lon="-6.477866">
        <ele>996.022</ele>
        <time>2014-08-31T12:51:59Z</time>
      </trkpt>
      <trkpt lat="42.520215" lon="-6.477904">
        <ele>996.074</ele>
        <time>2014-08-31T12:52:09Z</time>
      </trkpt>
      <trkpt lat="42.520278" lon="-6.478006">
        <ele>996.029</ele>
        <time>2014-08-31T12:52:19Z</time>
      </trkpt>
      <trkpt lat="42.520329" lon="-6.478116">
        <ele>995.079</ele>
        <time>2014-08-31T12:52:27Z</time>
      </trkpt>
      <trkpt lat="42.520389" lon="-6.478202">
        <ele>992.055</ele>
        <time>2014-08-31T12:52:37Z</time>
      </trkpt>
      <trkpt lat="42.520443" lon="-6.478305">
        <ele>990.082</ele>
        <time>2014-08-31T12:52:46Z</time>
      </trkpt>
      <trkpt lat="42.520495" lon="-6.478418">
        <ele>990.078</ele>
        <time>2014-08-31T12:52:53Z</time>
      </trkpt>
      <trkpt lat="42.520570" lon="-6.478496">
        <ele>991.033</ele>
        <time>2014-08-31T12:53:02Z</time>
      </trkpt>
      <trkpt lat="42.520662" lon="-6.478544">
        <ele>991.026</ele>
        <time>2014-08-31T12:53:11Z</time>
      </trkpt>
      <trkpt lat="42.520765" lon="-6.478584">
        <ele>990.007</ele>
        <time>2014-08-31T12:53:21Z</time>
      </trkpt>
      <trkpt lat="42.520857" lon="-6.478611">
        <ele>990.034</ele>
        <time>2014-08-31T12:53:28Z</time>
      </trkpt>
      <trkpt lat="42.520946" lon="-6.478647">
        <ele>990.023</ele>
        <time>2014-08-31T12:53:36Z</time>
      </trkpt>
      <trkpt lat="42.521012" lon="-6.478734">
        <ele>991.015</ele>
        <time>2014-08-31T12:53:45Z</time>
      </trkpt>
      <trkpt lat="42.521106" lon="-6.478746">
        <ele>991.050</ele>
        <time>2014-08-31T12:53:52Z</time>
      </trkpt>
      <trkpt lat="42.521211" lon="-6.478770">
        <ele>991.040</ele>
        <time>2014-08-31T12:54:01Z</time>
      </trkpt>
      <trkpt lat="42.521300" lon="-6.478825">
        <ele>991.056</ele>
        <time>2014-08-31T12:54:10Z</time>
      </trkpt>
      <trkpt lat="42.521389" lon="-6.478852">
        <ele>990.033</ele>
        <time>2014-08-31T12:54:17Z</time>
      </trkpt>
      <trkpt lat="42.521467" lon="-6.478928">
        <ele>989.019</ele>
        <time>2014-08-31T12:54:26Z</time>
      </trkpt>
      <trkpt lat="42.521518" lon="-6.479039">
        <ele>988.009</ele>
        <time>2014-08-31T12:54:35Z</time>
      </trkpt>
      <trkpt lat="42.521606" lon="-6.479071">
        <ele>987.019</ele>
        <time>2014-08-31T12:54:42Z</time>
      </trkpt>
      <trkpt lat="42.521693" lon="-6.479128">
        <ele>986.007</ele>
        <time>2014-08-31T12:54:50Z</time>
      </trkpt>
      <trkpt lat="42.521767" lon="-6.479223">
        <ele>984.098</ele>
        <time>2014-08-31T12:55:00Z</time>
      </trkpt>
      <trkpt lat="42.521836" lon="-6.479309">
        <ele>983.027</ele>
        <time>2014-08-31T12:55:08Z</time>
      </trkpt>
      <trkpt lat="42.521880" lon="-6.479417">
        <ele>982.039</ele>
        <time>2014-08-31T12:55:16Z</time>
      </trkpt>
      <trkpt lat="42.521938" lon="-6.479522">
        <ele>983.064</ele>
        <time>2014-08-31T12:55:22Z</time>
      </trkpt>
      <trkpt lat="42.522024" lon="-6.479566">
        <ele>983.044</ele>
        <time>2014-08-31T12:55:32Z</time>
      </trkpt>
      <trkpt lat="42.522114" lon="-6.479538">
        <ele>983.080</ele>
        <time>2014-08-31T12:55:41Z</time>
      </trkpt>
      <trkpt lat="42.522186" lon="-6.479521">
        <ele>981.047</ele>
        <time>2014-08-31T12:55:51Z</time>
      </trkpt>
      <trkpt lat="42.522271" lon="-6.479581">
        <ele>980.098</ele>
        <time>2014-08-31T12:55:57Z</time>
      </trkpt>
      <trkpt lat="42.522338" lon="-6.479697">
        <ele>980.015</ele>
        <time>2014-08-31T12:56:03Z</time>
      </trkpt>
      <trkpt lat="42.522402" lon="-6.479802">
        <ele>980.026</ele>
        <time>2014-08-31T12:56:10Z</time>
      </trkpt>
      <trkpt lat="42.522470" lon="-6.479905">
        <ele>980.007</ele>
        <time>2014-08-31T12:56:19Z</time>
      </trkpt>
      <trkpt lat="42.522480" lon="-6.480034">
        <ele>979.026</ele>
        <time>2014-08-31T12:56:25Z</time>
      </trkpt>
      <trkpt lat="42.522535" lon="-6.480141">
        <ele>980.015</ele>
        <time>2014-08-31T12:56:32Z</time>
      </trkpt>
      <trkpt lat="42.522545" lon="-6.480268">
        <ele>981.077</ele>
        <time>2014-08-31T12:56:39Z</time>
      </trkpt>
      <trkpt lat="42.522571" lon="-6.480395">
        <ele>980.052</ele>
        <time>2014-08-31T12:56:49Z</time>
      </trkpt>
      <trkpt lat="42.522632" lon="-6.480508">
        <ele>978.012</ele>
        <time>2014-08-31T12:56:57Z</time>
      </trkpt>
      <trkpt lat="42.522681" lon="-6.480619">
        <ele>977.098</ele>
        <time>2014-08-31T12:57:06Z</time>
      </trkpt>
      <trkpt lat="42.522733" lon="-6.480741">
        <ele>977.065</ele>
        <time>2014-08-31T12:57:15Z</time>
      </trkpt>
      <trkpt lat="42.522816" lon="-6.480796">
        <ele>976.061</ele>
        <time>2014-08-31T12:57:23Z</time>
      </trkpt>
      <trkpt lat="42.522894" lon="-6.480883">
        <ele>974.021</ele>
        <time>2014-08-31T12:57:32Z</time>
      </trkpt>
      <trkpt lat="42.522962" lon="-6.480987">
        <ele>972.013</ele>
        <time>2014-08-31T12:57:40Z</time>
      </trkpt>
      <trkpt lat="42.523031" lon="-6.481069">
        <ele>971.007</ele>
        <time>2014-08-31T12:57:48Z</time>
      </trkpt>
      <trkpt lat="42.523050" lon="-6.481198">
        <ele>970.013</ele>
        <time>2014-08-31T12:57:56Z</time>
      </trkpt>
      <trkpt lat="42.523093" lon="-6.481306">
        <ele>969.082</ele>
        <time>2014-08-31T12:58:05Z</time>
      </trkpt>
      <trkpt lat="42.523156" lon="-6.481397">
        <ele>966.034</ele>
        <time>2014-08-31T12:58:15Z</time>
      </trkpt>
      <trkpt lat="42.523207" lon="-6.481500">
        <ele>965.039</ele>
        <time>2014-08-31T12:58:24Z</time>
      </trkpt>
      <trkpt lat="42.523266" lon="-6.481595">
        <ele>964.079</ele>
        <time>2014-08-31T12:58:33Z</time>
      </trkpt>
      <trkpt lat="42.523329" lon="-6.481675">
        <ele>963.055</ele>
        <time>2014-08-31T12:58:43Z</time>
      </trkpt>
      <trkpt lat="42.523401" lon="-6.481764">
        <ele>961.082</ele>
        <time>2014-08-31T12:58:53Z</time>
      </trkpt>
      <trkpt lat="42.523458" lon="-6.481828">
        <ele>960.051</ele>
        <time>2014-08-31T12:59:03Z</time>
      </trkpt>
      <trkpt lat="42.523513" lon="-6.481923">
        <ele>959.001</ele>
        <time>2014-08-31T12:59:13Z</time>
      </trkpt>
      <trkpt lat="42.523570" lon="-6.482024">
        <ele>959.011</ele>
        <time>2014-08-31T12:59:22Z</time>
      </trkpt>
      <trkpt lat="42.523602" lon="-6.482149">
        <ele>958.007</ele>
        <time>2014-08-31T12:59:32Z</time>
      </trkpt>
      <trkpt lat="42.523640" lon="-6.482264">
        <ele>958.082</ele>
        <time>2014-08-31T12:59:42Z</time>
      </trkpt>
      <trkpt lat="42.523675" lon="-6.482360">
        <ele>956.011</ele>
        <time>2014-08-31T12:59:52Z</time>
      </trkpt>
      <trkpt lat="42.523693" lon="-6.482456">
        <ele>955.083</ele>
        <time>2014-08-31T13:00:02Z</time>
      </trkpt>
      <trkpt lat="42.523709" lon="-6.482535">
        <ele>953.038</ele>
        <time>2014-08-31T13:00:12Z</time>
      </trkpt>
      <trkpt lat="42.523732" lon="-6.482595">
        <ele>952.098</ele>
        <time>2014-08-31T13:00:23Z</time>
      </trkpt>
      <trkpt lat="42.523741" lon="-6.482720">
        <ele>951.054</ele>
        <time>2014-08-31T13:00:32Z</time>
      </trkpt>
      <trkpt lat="42.523752" lon="-6.482809">
        <ele>949.011</ele>
        <time>2014-08-31T13:00:42Z</time>
      </trkpt>
      <trkpt lat="42.523776" lon="-6.482873">
        <ele>947.069</ele>
        <time>2014-08-31T13:00:52Z</time>
      </trkpt>
      <trkpt lat="42.523820" lon="-6.482983">
        <ele>945.004</ele>
        <time>2014-08-31T13:01:03Z</time>
      </trkpt>
      <trkpt lat="42.523879" lon="-6.483087">
        <ele>943.024</ele>
        <time>2014-08-31T13:01:13Z</time>
      </trkpt>
      <trkpt lat="42.523953" lon="-6.483165">
        <ele>942.007</ele>
        <time>2014-08-31T13:01:22Z</time>
      </trkpt>
      <trkpt lat="42.524017" lon="-6.483259">
        <ele>941.063</ele>
        <time>2014-08-31T13:01:31Z</time>
      </trkpt>
      <trkpt lat="42.524063" lon="-6.483369">
        <ele>940.042</ele>
        <time>2014-08-31T13:01:40Z</time>
      </trkpt>
      <trkpt lat="42.524083" lon="-6.483426">
        <ele>940.054</ele>
        <time>2014-08-31T13:01:51Z</time>
      </trkpt>
      <trkpt lat="42.524139" lon="-6.483507">
        <ele>940.049</ele>
        <time>2014-08-31T13:02:01Z</time>
      </trkpt>
      <trkpt lat="42.524176" lon="-6.483598">
        <ele>939.089</ele>
        <time>2014-08-31T13:02:11Z</time>
      </trkpt>
      <trkpt lat="42.524211" lon="-6.483720">
        <ele>937.025</ele>
        <time>2014-08-31T13:02:20Z</time>
      </trkpt>
      <trkpt lat="42.524258" lon="-6.483824">
        <ele>937.092</ele>
        <time>2014-08-31T13:02:28Z</time>
      </trkpt>
      <trkpt lat="42.524309" lon="-6.483921">
        <ele>936.018</ele>
        <time>2014-08-31T13:02:38Z</time>
      </trkpt>
      <trkpt lat="42.524389" lon="-6.483988">
        <ele>935.098</ele>
        <time>2014-08-31T13:02:47Z</time>
      </trkpt>
      <trkpt lat="42.524438" lon="-6.484083">
        <ele>935.017</ele>
        <time>2014-08-31T13:02:57Z</time>
      </trkpt>
      <trkpt lat="42.524519" lon="-6.484142">
        <ele>934.007</ele>
        <time>2014-08-31T13:03:05Z</time>
      </trkpt>
      <trkpt lat="42.524582" lon="-6.484233">
        <ele>933.058</ele>
        <time>2014-08-31T13:03:10Z</time>
      </trkpt>
      <trkpt lat="42.524637" lon="-6.484344">
        <ele>931.017</ele>
        <time>2014-08-31T13:03:16Z</time>
      </trkpt>
      <trkpt lat="42.524691" lon="-6.484461">
        <ele>930.079</ele>
        <time>2014-08-31T13:03:25Z</time>
      </trkpt>
      <trkpt lat="42.524718" lon="-6.484592">
        <ele>929.044</ele>
        <time>2014-08-31T13:03:33Z</time>
      </trkpt>
      <trkpt lat="42.524733" lon="-6.484713">
        <ele>929.064</ele>
        <time>2014-08-31T13:03:41Z</time>
      </trkpt>
      <trkpt lat="42.524750" lon="-6.484850">
        <ele>929.020</ele>
        <time>2014-08-31T13:03:50Z</time>
      </trkpt>
      <trkpt lat="42.524789" lon="-6.484964">
        <ele>927.057</ele>
        <time>2014-08-31T13:03:59Z</time>
      </trkpt>
      <trkpt lat="42.524825" lon="-6.485079">
        <ele>926.035</ele>
        <time>2014-08-31T13:04:07Z</time>
      </trkpt>
      <trkpt lat="42.524880" lon="-6.485192">
        <ele>925.086</ele>
        <time>2014-08-31T13:04:16Z</time>
      </trkpt>
      <trkpt lat="42.524929" lon="-6.485298">
        <ele>924.014</ele>
        <time>2014-08-31T13:04:23Z</time>
      </trkpt>
      <trkpt lat="42.524987" lon="-6.485414">
        <ele>924.007</ele>
        <time>2014-08-31T13:04:31Z</time>
      </trkpt>
      <trkpt lat="42.525046" lon="-6.485512">
        <ele>924.060</ele>
        <time>2014-08-31T13:04:40Z</time>
      </trkpt>
      <trkpt lat="42.525094" lon="-6.485616">
        <ele>924.099</ele>
        <time>2014-08-31T13:04:47Z</time>
      </trkpt>
      <trkpt lat="42.525166" lon="-6.485722">
        <ele>924.041</ele>
        <time>2014-08-31T13:04:56Z</time>
      </trkpt>
      <trkpt lat="42.525223" lon="-6.485818">
        <ele>924.096</ele>
        <time>2014-08-31T13:05:05Z</time>
      </trkpt>
      <trkpt lat="42.525280" lon="-6.485912">
        <ele>924.096</ele>
        <time>2014-08-31T13:05:13Z</time>
      </trkpt>
      <trkpt lat="42.525280" lon="-6.486046">
        <ele>923.032</ele>
        <time>2014-08-31T13:05:20Z</time>
      </trkpt>
      <trkpt lat="42.525305" lon="-6.486169">
        <ele>922.079</ele>
        <time>2014-08-31T13:05:27Z</time>
      </trkpt>
      <trkpt lat="42.525311" lon="-6.486297">
        <ele>922.049</ele>
        <time>2014-08-31T13:05:34Z</time>
      </trkpt>
      <trkpt lat="42.525325" lon="-6.486429">
        <ele>922.002</ele>
        <time>2014-08-31T13:05:43Z</time>
      </trkpt>
      <trkpt lat="42.525341" lon="-6.486558">
        <ele>921.022</ele>
        <time>2014-08-31T13:05:51Z</time>
      </trkpt>
      <trkpt lat="42.525326" lon="-6.486680">
        <ele>921.007</ele>
        <time>2014-08-31T13:06:00Z</time>
      </trkpt>
      <trkpt lat="42.525284" lon="-6.486773">
        <ele>920.011</ele>
        <time>2014-08-31T13:06:10Z</time>
      </trkpt>
      <trkpt lat="42.525260" lon="-6.486892">
        <ele>919.020</ele>
        <time>2014-08-31T13:06:18Z</time>
      </trkpt>
      <trkpt lat="42.525265" lon="-6.487016">
        <ele>919.042</ele>
        <time>2014-08-31T13:06:26Z</time>
      </trkpt>
      <trkpt lat="42.525261" lon="-6.487147">
        <ele>919.057</ele>
        <time>2014-08-31T13:06:33Z</time>
      </trkpt>
      <trkpt lat="42.525276" lon="-6.487270">
        <ele>918.037</ele>
        <time>2014-08-31T13:06:41Z</time>
      </trkpt>
      <trkpt lat="42.525295" lon="-6.487427">
        <ele>916.013</ele>
        <time>2014-08-31T13:06:49Z</time>
      </trkpt>
      <trkpt lat="42.525282" lon="-6.487549">
        <ele>915.050</ele>
        <time>2014-08-31T13:06:58Z</time>
      </trkpt>
      <trkpt lat="42.525268" lon="-6.487674">
        <ele>913.072</ele>
        <time>2014-08-31T13:07:07Z</time>
      </trkpt>
      <trkpt lat="42.525284" lon="-6.487803">
        <ele>911.013</ele>
        <time>2014-08-31T13:07:14Z</time>
      </trkpt>
      <trkpt lat="42.525298" lon="-6.487924">
        <ele>911.014</ele>
        <time>2014-08-31T13:07:21Z</time>
      </trkpt>
      <trkpt lat="42.525328" lon="-6.488058">
        <ele>910.007</ele>
        <time>2014-08-31T13:07:28Z</time>
      </trkpt>
      <trkpt lat="42.525372" lon="-6.488167">
        <ele>910.014</ele>
        <time>2014-08-31T13:07:36Z</time>
      </trkpt>
      <trkpt lat="42.525408" lon="-6.488285">
        <ele>910.083</ele>
        <time>2014-08-31T13:07:43Z</time>
      </trkpt>
      <trkpt lat="42.525445" lon="-6.488396">
        <ele>910.035</ele>
        <time>2014-08-31T13:07:51Z</time>
      </trkpt>
      <trkpt lat="42.525485" lon="-6.488520">
        <ele>911.070</ele>
        <time>2014-08-31T13:08:00Z</time>
      </trkpt>
      <trkpt lat="42.525522" lon="-6.488635">
        <ele>912.010</ele>
        <time>2014-08-31T13:08:07Z</time>
      </trkpt>
      <trkpt lat="42.525545" lon="-6.488763">
        <ele>913.026</ele>
        <time>2014-08-31T13:08:15Z</time>
      </trkpt>
      <trkpt lat="42.525581" lon="-6.488889">
        <ele>913.093</ele>
        <time>2014-08-31T13:08:24Z</time>
      </trkpt>
      <trkpt lat="42.525625" lon="-6.489011">
        <ele>913.074</ele>
        <time>2014-08-31T13:08:33Z</time>
      </trkpt>
      <trkpt lat="42.525688" lon="-6.489109">
        <ele>914.056</ele>
        <time>2014-08-31T13:08:43Z</time>
      </trkpt>
      <trkpt lat="42.525746" lon="-6.489223">
        <ele>914.021</ele>
        <time>2014-08-31T13:08:49Z</time>
      </trkpt>
      <trkpt lat="42.525784" lon="-6.489342">
        <ele>913.007</ele>
        <time>2014-08-31T13:08:57Z</time>
      </trkpt>
      <trkpt lat="42.525821" lon="-6.489462">
        <ele>913.044</ele>
        <time>2014-08-31T13:09:06Z</time>
      </trkpt>
      <trkpt lat="42.525839" lon="-6.489592">
        <ele>913.013</ele>
        <time>2014-08-31T13:09:14Z</time>
      </trkpt>
      <trkpt lat="42.525823" lon="-6.489721">
        <ele>913.015</ele>
        <time>2014-08-31T13:09:23Z</time>
      </trkpt>
      <trkpt lat="42.525819" lon="-6.489860">
        <ele>913.010</ele>
        <time>2014-08-31T13:09:31Z</time>
      </trkpt>
      <trkpt lat="42.525796" lon="-6.489991">
        <ele>913.090</ele>
        <time>2014-08-31T13:09:41Z</time>
      </trkpt>
      <trkpt lat="42.525755" lon="-6.490107">
        <ele>912.086</ele>
        <time>2014-08-31T13:09:48Z</time>
      </trkpt>
      <trkpt lat="42.525733" lon="-6.490235">
        <ele>912.063</ele>
        <time>2014-08-31T13:09:57Z</time>
      </trkpt>
      <trkpt lat="42.525720" lon="-6.490363">
        <ele>911.063</ele>
        <time>2014-08-31T13:10:05Z</time>
      </trkpt>
      <trkpt lat="42.525711" lon="-6.490494">
        <ele>910.044</ele>
        <time>2014-08-31T13:10:13Z</time>
      </trkpt>
      <trkpt lat="42.525733" lon="-6.490618">
        <ele>909.018</ele>
        <time>2014-08-31T13:10:20Z</time>
      </trkpt>
      <trkpt lat="42.525768" lon="-6.490743">
        <ele>909.007</ele>
        <time>2014-08-31T13:10:30Z</time>
      </trkpt>
      <trkpt lat="42.525818" lon="-6.490851">
        <ele>909.023</ele>
        <time>2014-08-31T13:10:38Z</time>
      </trkpt>
      <trkpt lat="42.525866" lon="-6.490961">
        <ele>909.062</ele>
        <time>2014-08-31T13:10:45Z</time>
      </trkpt>
      <trkpt lat="42.525905" lon="-6.491080">
        <ele>909.094</ele>
        <time>2014-08-31T13:10:52Z</time>
      </trkpt>
      <trkpt lat="42.525937" lon="-6.491201">
        <ele>910.019</ele>
        <time>2014-08-31T13:11:01Z</time>
      </trkpt>
      <trkpt lat="42.525970" lon="-6.491329">
        <ele>910.059</ele>
        <time>2014-08-31T13:11:10Z</time>
      </trkpt>
      <trkpt lat="42.526034" lon="-6.491418">
        <ele>910.095</ele>
        <time>2014-08-31T13:11:17Z</time>
      </trkpt>
      <trkpt lat="42.526084" lon="-6.491531">
        <ele>910.012</ele>
        <time>2014-08-31T13:11:25Z</time>
      </trkpt>
      <trkpt lat="42.526122" lon="-6.491661">
        <ele>909.015</ele>
        <time>2014-08-31T13:11:33Z</time>
      </trkpt>
      <trkpt lat="42.526164" lon="-6.491782">
        <ele>908.065</ele>
        <time>2014-08-31T13:11:42Z</time>
      </trkpt>
      <trkpt lat="42.526164" lon="-6.491907">
        <ele>908.011</ele>
        <time>2014-08-31T13:11:52Z</time>
      </trkpt>
      <trkpt lat="42.526165" lon="-6.492036">
        <ele>908.007</ele>
        <time>2014-08-31T13:11:59Z</time>
      </trkpt>
      <trkpt lat="42.526178" lon="-6.492158">
        <ele>907.058</ele>
        <time>2014-08-31T13:12:07Z</time>
      </trkpt>
      <trkpt lat="42.526171" lon="-6.492281">
        <ele>908.057</ele>
        <time>2014-08-31T13:12:15Z</time>
      </trkpt>
      <trkpt lat="42.526184" lon="-6.492413">
        <ele>908.089</ele>
        <time>2014-08-31T13:12:25Z</time>
      </trkpt>
      <trkpt lat="42.526206" lon="-6.492540">
        <ele>908.064</ele>
        <time>2014-08-31T13:12:33Z</time>
      </trkpt>
      <trkpt lat="42.526246" lon="-6.492655">
        <ele>908.044</ele>
        <time>2014-08-31T13:12:40Z</time>
      </trkpt>
      <trkpt lat="42.526281" lon="-6.492784">
        <ele>908.060</ele>
        <time>2014-08-31T13:12:49Z</time>
      </trkpt>
      <trkpt lat="42.526329" lon="-6.492901">
        <ele>908.017</ele>
        <time>2014-08-31T13:12:59Z</time>
      </trkpt>
      <trkpt lat="42.526388" lon="-6.493007">
        <ele>908.076</ele>
        <time>2014-08-31T13:13:07Z</time>
      </trkpt>
      <trkpt lat="42.526438" lon="-6.493109">
        <ele>907.090</ele>
        <time>2014-08-31T13:13:16Z</time>
      </trkpt>
      <trkpt lat="42.526490" lon="-6.493215">
        <ele>906.019</ele>
        <time>2014-08-31T13:13:24Z</time>
      </trkpt>
      <trkpt lat="42.526554" lon="-6.493300">
        <ele>906.007</ele>
        <time>2014-08-31T13:13:32Z</time>
      </trkpt>
      <trkpt lat="42.526589" lon="-6.493413">
        <ele>905.044</ele>
        <time>2014-08-31T13:13:39Z</time>
      </trkpt>
      <trkpt lat="42.526634" lon="-6.493523">
        <ele>904.023</ele>
        <time>2014-08-31T13:13:47Z</time>
      </trkpt>
      <trkpt lat="42.526717" lon="-6.493586">
        <ele>903.095</ele>
        <time>2014-08-31T13:13:54Z</time>
      </trkpt>
      <trkpt lat="42.526810" lon="-6.493605">
        <ele>903.030</ele>
        <time>2014-08-31T13:14:01Z</time>
      </trkpt>
      <trkpt lat="42.526886" lon="-6.493611">
        <ele>902.010</ele>
        <time>2014-08-31T13:14:11Z</time>
      </trkpt>
      <trkpt lat="42.526983" lon="-6.493605">
        <ele>902.026</ele>
        <time>2014-08-31T13:14:19Z</time>
      </trkpt>
      <trkpt lat="42.527078" lon="-6.493597">
        <ele>901.013</ele>
        <time>2014-08-31T13:14:27Z</time>
      </trkpt>
      <trkpt lat="42.527172" lon="-6.493590">
        <ele>900.077</ele>
        <time>2014-08-31T13:14:34Z</time>
      </trkpt>
      <trkpt lat="42.527268" lon="-6.493604">
        <ele>899.061</ele>
        <time>2014-08-31T13:14:43Z</time>
      </trkpt>
      <trkpt lat="42.527358" lon="-6.493622">
        <ele>899.027</ele>
        <time>2014-08-31T13:14:50Z</time>
      </trkpt>
      <trkpt lat="42.527458" lon="-6.493639">
        <ele>898.007</ele>
        <time>2014-08-31T13:14:58Z</time>
      </trkpt>
      <trkpt lat="42.527548" lon="-6.493637">
        <ele>897.094</ele>
        <time>2014-08-31T13:15:06Z</time>
      </trkpt>
      <trkpt lat="42.527645" lon="-6.493667">
        <ele>897.083</ele>
        <time>2014-08-31T13:15:14Z</time>
      </trkpt>
      <trkpt lat="42.527748" lon="-6.493703">
        <ele>896.075</ele>
        <time>2014-08-31T13:15:22Z</time>
      </trkpt>
      <trkpt lat="42.527846" lon="-6.493693">
        <ele>896.010</ele>
        <time>2014-08-31T13:15:31Z</time>
      </trkpt>
      <trkpt lat="42.527936" lon="-6.493724">
        <ele>895.040</ele>
        <time>2014-08-31T13:15:38Z</time>
      </trkpt>
      <trkpt lat="42.528023" lon="-6.493781">
        <ele>895.066</ele>
        <time>2014-08-31T13:15:47Z</time>
      </trkpt>
      <trkpt lat="42.528099" lon="-6.493878">
        <ele>894.063</ele>
        <time>2014-08-31T13:15:55Z</time>
      </trkpt>
      <trkpt lat="42.528167" lon="-6.493967">
        <ele>894.097</ele>
        <time>2014-08-31T13:16:02Z</time>
      </trkpt>
      <trkpt lat="42.528234" lon="-6.494054">
        <ele>894.023</ele>
        <time>2014-08-31T13:16:10Z</time>
      </trkpt>
      <trkpt lat="42.528294" lon="-6.494167">
        <ele>894.025</ele>
        <time>2014-08-31T13:16:18Z</time>
      </trkpt>
      <trkpt lat="42.528356" lon="-6.494268">
        <ele>894.007</ele>
        <time>2014-08-31T13:16:27Z</time>
      </trkpt>
      <trkpt lat="42.528424" lon="-6.494350">
        <ele>893.046</ele>
        <time>2014-08-31T13:16:37Z</time>
      </trkpt>
      <trkpt lat="42.528491" lon="-6.494460">
        <ele>893.015</ele>
        <time>2014-08-31T13:16:44Z</time>
      </trkpt>
      <trkpt lat="42.528547" lon="-6.494564">
        <ele>894.037</ele>
        <time>2014-08-31T13:16:52Z</time>
      </trkpt>
      <trkpt lat="42.528568" lon="-6.494686">
        <ele>893.052</ele>
        <time>2014-08-31T13:17:02Z</time>
      </trkpt>
      <trkpt lat="42.528593" lon="-6.494803">
        <ele>893.052</ele>
        <time>2014-08-31T13:17:09Z</time>
      </trkpt>
      <trkpt lat="42.528582" lon="-6.494934">
        <ele>893.078</ele>
        <time>2014-08-31T13:17:18Z</time>
      </trkpt>
      <trkpt lat="42.528609" lon="-6.495070">
        <ele>893.035</ele>
        <time>2014-08-31T13:17:27Z</time>
      </trkpt>
      <trkpt lat="42.528633" lon="-6.495206">
        <ele>892.061</ele>
        <time>2014-08-31T13:17:36Z</time>
      </trkpt>
      <trkpt lat="42.528678" lon="-6.495330">
        <ele>892.021</ele>
        <time>2014-08-31T13:17:42Z</time>
      </trkpt>
      <trkpt lat="42.528701" lon="-6.495453">
        <ele>892.013</ele>
        <time>2014-08-31T13:17:51Z</time>
      </trkpt>
      <trkpt lat="42.528699" lon="-6.495582">
        <ele>892.007</ele>
        <time>2014-08-31T13:17:59Z</time>
      </trkpt>
      <trkpt lat="42.528694" lon="-6.495720">
        <ele>892.073</ele>
        <time>2014-08-31T13:18:09Z</time>
      </trkpt>
      <trkpt lat="42.528685" lon="-6.495842">
        <ele>892.092</ele>
        <time>2014-08-31T13:18:18Z</time>
      </trkpt>
      <trkpt lat="42.528662" lon="-6.495965">
        <ele>892.084</ele>
        <time>2014-08-31T13:18:25Z</time>
      </trkpt>
      <trkpt lat="42.528659" lon="-6.496090">
        <ele>892.069</ele>
        <time>2014-08-31T13:18:33Z</time>
      </trkpt>
      <trkpt lat="42.528701" lon="-6.496204">
        <ele>892.099</ele>
        <time>2014-08-31T13:18:40Z</time>
      </trkpt>
      <trkpt lat="42.528771" lon="-6.496294">
        <ele>891.045</ele>
        <time>2014-08-31T13:18:47Z</time>
      </trkpt>
      <trkpt lat="42.528819" lon="-6.496407">
        <ele>891.072</ele>
        <time>2014-08-31T13:18:54Z</time>
      </trkpt>
      <trkpt lat="42.528861" lon="-6.496525">
        <ele>891.022</ele>
        <time>2014-08-31T13:19:04Z</time>
      </trkpt>
      <trkpt lat="42.528928" lon="-6.496633">
        <ele>890.062</ele>
        <time>2014-08-31T13:19:13Z</time>
      </trkpt>
      <trkpt lat="42.528991" lon="-6.496734">
        <ele>890.008</ele>
        <time>2014-08-31T13:19:20Z</time>
      </trkpt>
      <trkpt lat="42.529054" lon="-6.496831">
        <ele>890.007</ele>
        <time>2014-08-31T13:19:28Z</time>
      </trkpt>
      <trkpt lat="42.529102" lon="-6.496942">
        <ele>889.089</ele>
        <time>2014-08-31T13:19:37Z</time>
      </trkpt>
      <trkpt lat="42.529114" lon="-6.497064">
        <ele>889.028</ele>
        <time>2014-08-31T13:19:45Z</time>
      </trkpt>
      <trkpt lat="42.529160" lon="-6.497171">
        <ele>889.070</ele>
        <time>2014-08-31T13:19:53Z</time>
      </trkpt>
      <trkpt lat="42.529188" lon="-6.497291">
        <ele>889.015</ele>
        <time>2014-08-31T13:20:00Z</time>
      </trkpt>
      <trkpt lat="42.529213" lon="-6.497412">
        <ele>889.075</ele>
        <time>2014-08-31T13:20:08Z</time>
      </trkpt>
      <trkpt lat="42.529220" lon="-6.497546">
        <ele>889.061</ele>
        <time>2014-08-31T13:20:16Z</time>
      </trkpt>
      <trkpt lat="42.529213" lon="-6.497672">
        <ele>888.058</ele>
        <time>2014-08-31T13:20:25Z</time>
      </trkpt>
      <trkpt lat="42.529203" lon="-6.497798">
        <ele>887.084</ele>
        <time>2014-08-31T13:20:33Z</time>
      </trkpt>
      <trkpt lat="42.529195" lon="-6.497928">
        <ele>887.007</ele>
        <time>2014-08-31T13:20:42Z</time>
      </trkpt>
      <trkpt lat="42.529185" lon="-6.498059">
        <ele>887.017</ele>
        <time>2014-08-31T13:20:51Z</time>
      </trkpt>
      <trkpt lat="42.529236" lon="-6.498162">
        <ele>888.007</ele>
        <time>2014-08-31T13:21:01Z</time>
      </trkpt>
      <trkpt lat="42.529306" lon="-6.498248">
        <ele>887.095</ele>
        <time>2014-08-31T13:21:07Z</time>
      </trkpt>
      <trkpt lat="42.529361" lon="-6.498358">
        <ele>886.024</ele>
        <time>2014-08-31T13:21:16Z</time>
      </trkpt>
      <trkpt lat="42.529434" lon="-6.498404">
        <ele>885.036</ele>
        <time>2014-08-31T13:21:26Z</time>
      </trkpt>
      <trkpt lat="42.529497" lon="-6.498503">
        <ele>883.031</ele>
        <time>2014-08-31T13:21:36Z</time>
      </trkpt>
      <trkpt lat="42.529557" lon="-6.498611">
        <ele>883.081</ele>
        <time>2014-08-31T13:21:43Z</time>
      </trkpt>
      <trkpt lat="42.529596" lon="-6.498729">
        <ele>882.017</ele>
        <time>2014-08-31T13:21:52Z</time>
      </trkpt>
      <trkpt lat="42.529610" lon="-6.498851">
        <ele>880.014</ele>
        <time>2014-08-31T13:22:01Z</time>
      </trkpt>
      <trkpt lat="42.529609" lon="-6.498979">
        <ele>878.013</ele>
        <time>2014-08-31T13:22:11Z</time>
      </trkpt>
      <trkpt lat="42.529635" lon="-6.499093">
        <ele>877.043</ele>
        <time>2014-08-31T13:22:21Z</time>
      </trkpt>
      <trkpt lat="42.529677" lon="-6.499202">
        <ele>875.007</ele>
        <time>2014-08-31T13:22:31Z</time>
      </trkpt>
      <trkpt lat="42.529749" lon="-6.499283">
        <ele>874.007</ele>
        <time>2014-08-31T13:22:41Z</time>
      </trkpt>
      <trkpt lat="42.529805" lon="-6.499383">
        <ele>873.038</ele>
        <time>2014-08-31T13:22:51Z</time>
      </trkpt>
      <trkpt lat="42.529872" lon="-6.499480">
        <ele>871.077</ele>
        <time>2014-08-31T13:23:00Z</time>
      </trkpt>
      <trkpt lat="42.529937" lon="-6.499566">
        <ele>870.029</ele>
        <time>2014-08-31T13:23:09Z</time>
      </trkpt>
      <trkpt lat="42.529942" lon="-6.499682">
        <ele>869.054</ele>
        <time>2014-08-31T13:23:19Z</time>
      </trkpt>
      <trkpt lat="42.529980" lon="-6.499779">
        <ele>867.044</ele>
        <time>2014-08-31T13:23:29Z</time>
      </trkpt>
      <trkpt lat="42.530045" lon="-6.499872">
        <ele>866.070</ele>
        <time>2014-08-31T13:23:36Z</time>
      </trkpt>
      <trkpt lat="42.530111" lon="-6.499940">
        <ele>863.067</ele>
        <time>2014-08-31T13:23:46Z</time>
      </trkpt>
      <trkpt lat="42.530185" lon="-6.500021">
        <ele>862.077</ele>
        <time>2014-08-31T13:23:54Z</time>
      </trkpt>
      <trkpt lat="42.530240" lon="-6.500133">
        <ele>861.061</ele>
        <time>2014-08-31T13:24:01Z</time>
      </trkpt>
      <trkpt lat="42.530251" lon="-6.500256">
        <ele>860.027</ele>
        <time>2014-08-31T13:24:10Z</time>
      </trkpt>
      <trkpt lat="42.530260" lon="-6.500380">
        <ele>858.007</ele>
        <time>2014-08-31T13:24:19Z</time>
      </trkpt>
      <trkpt lat="42.530273" lon="-6.500514">
        <ele>857.064</ele>
        <time>2014-08-31T13:24:28Z</time>
      </trkpt>
      <trkpt lat="42.530279" lon="-6.500637">
        <ele>855.083</ele>
        <time>2014-08-31T13:24:38Z</time>
      </trkpt>
      <trkpt lat="42.530280" lon="-6.500714">
        <ele>855.035</ele>
        <time>2014-08-31T13:24:52Z</time>
      </trkpt>
      <trkpt lat="42.530264" lon="-6.500842">
        <ele>856.090</ele>
        <time>2014-08-31T13:25:00Z</time>
      </trkpt>
      <trkpt lat="42.530259" lon="-6.500967">
        <ele>856.070</ele>
        <time>2014-08-31T13:25:08Z</time>
      </trkpt>
      <trkpt lat="42.530247" lon="-6.501099">
        <ele>855.026</ele>
        <time>2014-08-31T13:25:17Z</time>
      </trkpt>
      <trkpt lat="42.530229" lon="-6.501227">
        <ele>853.073</ele>
        <time>2014-08-31T13:25:27Z</time>
      </trkpt>
      <trkpt lat="42.530235" lon="-6.501354">
        <ele>852.091</ele>
        <time>2014-08-31T13:25:34Z</time>
      </trkpt>
      <trkpt lat="42.530244" lon="-6.501477">
        <ele>850.081</ele>
        <time>2014-08-31T13:25:41Z</time>
      </trkpt>
      <trkpt lat="42.530268" lon="-6.501609">
        <ele>848.019</ele>
        <time>2014-08-31T13:25:51Z</time>
      </trkpt>
      <trkpt lat="42.530285" lon="-6.501736">
        <ele>846.007</ele>
        <time>2014-08-31T13:26:01Z</time>
      </trkpt>
      <trkpt lat="42.530289" lon="-6.501839">
        <ele>845.036</ele>
        <time>2014-08-31T13:26:11Z</time>
      </trkpt>
      <trkpt lat="42.530335" lon="-6.501844">
        <ele>844.045</ele>
        <time>2014-08-31T13:26:31Z</time>
      </trkpt>
      <trkpt lat="42.530373" lon="-6.501740">
        <ele>845.067</ele>
        <time>2014-08-31T13:26:41Z</time>
      </trkpt>
      <trkpt lat="42.530408" lon="-6.501625">
        <ele>845.062</ele>
        <time>2014-08-31T13:26:50Z</time>
      </trkpt>
      <trkpt lat="42.530478" lon="-6.501538">
        <ele>845.062</ele>
        <time>2014-08-31T13:26:59Z</time>
      </trkpt>
      <trkpt lat="42.530549" lon="-6.501453">
        <ele>844.088</ele>
        <time>2014-08-31T13:27:07Z</time>
      </trkpt>
      <trkpt lat="42.530576" lon="-6.501536">
        <ele>842.015</ele>
        <time>2014-08-31T13:27:17Z</time>
      </trkpt>
      <trkpt lat="42.530583" lon="-6.501672">
        <ele>841.022</ele>
        <time>2014-08-31T13:27:25Z</time>
      </trkpt>
      <trkpt lat="42.530612" lon="-6.501793">
        <ele>841.062</ele>
        <time>2014-08-31T13:27:31Z</time>
      </trkpt>
      <trkpt lat="42.530610" lon="-6.501920">
        <ele>840.008</ele>
        <time>2014-08-31T13:27:39Z</time>
      </trkpt>
      <trkpt lat="42.530612" lon="-6.502049">
        <ele>838.007</ele>
        <time>2014-08-31T13:27:48Z</time>
      </trkpt>
      <trkpt lat="42.530615" lon="-6.502176">
        <ele>838.099</ele>
        <time>2014-08-31T13:27:56Z</time>
      </trkpt>
      <trkpt lat="42.530607" lon="-6.502298">
        <ele>837.068</ele>
        <time>2014-08-31T13:28:02Z</time>
      </trkpt>
      <trkpt lat="42.530538" lon="-6.502397">
        <ele>836.010</ele>
        <time>2014-08-31T13:28:11Z</time>
      </trkpt>
      <trkpt lat="42.530467" lon="-6.502476">
        <ele>835.035</ele>
        <time>2014-08-31T13:28:19Z</time>
      </trkpt>
      <trkpt lat="42.530399" lon="-6.502572">
        <ele>834.035</ele>
        <time>2014-08-31T13:28:28Z</time>
      </trkpt>
      <trkpt lat="42.530384" lon="-6.502693">
        <ele>834.051</ele>
        <time>2014-08-31T13:28:35Z</time>
      </trkpt>
      <trkpt lat="42.530388" lon="-6.502825">
        <ele>835.038</ele>
        <time>2014-08-31T13:28:43Z</time>
      </trkpt>
      <trkpt lat="42.530393" lon="-6.502957">
        <ele>835.098</ele>
        <time>2014-08-31T13:28:51Z</time>
      </trkpt>
      <trkpt lat="42.530410" lon="-6.503081">
        <ele>834.015</ele>
        <time>2014-08-31T13:29:01Z</time>
      </trkpt>
      <trkpt lat="42.530422" lon="-6.503214">
        <ele>832.026</ele>
        <time>2014-08-31T13:29:10Z</time>
      </trkpt>
      <trkpt lat="42.530447" lon="-6.503294">
        <ele>830.007</ele>
        <time>2014-08-31T13:29:20Z</time>
      </trkpt>
      <trkpt lat="42.530441" lon="-6.503289">
        <ele>829.056</ele>
        <time>2014-08-31T13:30:01Z</time>
      </trkpt>
      <trkpt lat="42.530457" lon="-6.503278">
        <ele>826.085</ele>
        <time>2014-08-31T13:30:42Z</time>
      </trkpt>
      <trkpt lat="42.530435" lon="-6.503343">
        <ele>824.057</ele>
        <time>2014-08-31T13:31:12Z</time>
      </trkpt>
      <trkpt lat="42.530437" lon="-6.503474">
        <ele>824.092</ele>
        <time>2014-08-31T13:31:19Z</time>
      </trkpt>
      <trkpt lat="42.530426" lon="-6.503601">
        <ele>824.022</ele>
        <time>2014-08-31T13:31:28Z</time>
      </trkpt>
      <trkpt lat="42.530426" lon="-6.503726">
        <ele>823.068</ele>
        <time>2014-08-31T13:31:37Z</time>
      </trkpt>
      <trkpt lat="42.530428" lon="-6.503831">
        <ele>823.055</ele>
        <time>2014-08-31T13:31:47Z</time>
      </trkpt>
      <trkpt lat="42.530412" lon="-6.503959">
        <ele>823.078</ele>
        <time>2014-08-31T13:31:55Z</time>
      </trkpt>
      <trkpt lat="42.530443" lon="-6.504085">
        <ele>822.033</ele>
        <time>2014-08-31T13:32:03Z</time>
      </trkpt>
      <trkpt lat="42.530463" lon="-6.504211">
        <ele>822.026</ele>
        <time>2014-08-31T13:32:11Z</time>
      </trkpt>
      <trkpt lat="42.530465" lon="-6.504353">
        <ele>821.007</ele>
        <time>2014-08-31T13:32:19Z</time>
      </trkpt>
      <trkpt lat="42.530447" lon="-6.504484">
        <ele>821.054</ele>
        <time>2014-08-31T13:32:29Z</time>
      </trkpt>
      <trkpt lat="42.530433" lon="-6.504619">
        <ele>821.063</ele>
        <time>2014-08-31T13:32:38Z</time>
      </trkpt>
      <trkpt lat="42.530439" lon="-6.504745">
        <ele>820.095</ele>
        <time>2014-08-31T13:32:47Z</time>
      </trkpt>
      <trkpt lat="42.530428" lon="-6.504875">
        <ele>819.060</ele>
        <time>2014-08-31T13:32:54Z</time>
      </trkpt>
      <trkpt lat="42.530458" lon="-6.504994">
        <ele>818.080</ele>
        <time>2014-08-31T13:33:02Z</time>
      </trkpt>
      <trkpt lat="42.530439" lon="-6.505122">
        <ele>815.096</ele>
        <time>2014-08-31T13:33:12Z</time>
      </trkpt>
      <trkpt lat="42.530422" lon="-6.505254">
        <ele>814.043</ele>
        <time>2014-08-31T13:33:19Z</time>
      </trkpt>
      <trkpt lat="42.530417" lon="-6.505379">
        <ele>813.056</ele>
        <time>2014-08-31T13:33:27Z</time>
      </trkpt>
      <trkpt lat="42.530401" lon="-6.505507">
        <ele>812.059</ele>
        <time>2014-08-31T13:33:34Z</time>
      </trkpt>
      <trkpt lat="42.530392" lon="-6.505643">
        <ele>810.014</ele>
        <time>2014-08-31T13:33:44Z</time>
      </trkpt>
      <trkpt lat="42.530406" lon="-6.505766">
        <ele>809.007</ele>
        <time>2014-08-31T13:33:52Z</time>
      </trkpt>
      <trkpt lat="42.530384" lon="-6.505896">
        <ele>808.092</ele>
        <time>2014-08-31T13:34:00Z</time>
      </trkpt>
      <trkpt lat="42.530337" lon="-6.506007">
        <ele>806.071</ele>
        <time>2014-08-31T13:34:08Z</time>
      </trkpt>
      <trkpt lat="42.530299" lon="-6.506134">
        <ele>805.093</ele>
        <time>2014-08-31T13:34:16Z</time>
      </trkpt>
      <trkpt lat="42.530242" lon="-6.506246">
        <ele>804.018</ele>
        <time>2014-08-31T13:34:25Z</time>
      </trkpt>
      <trkpt lat="42.530211" lon="-6.506368">
        <ele>803.038</ele>
        <time>2014-08-31T13:34:32Z</time>
      </trkpt>
      <trkpt lat="42.530199" lon="-6.506453">
        <ele>802.034</ele>
        <time>2014-08-31T13:34:42Z</time>
      </trkpt>
      <trkpt lat="42.530155" lon="-6.506585">
        <ele>801.031</ele>
        <time>2014-08-31T13:34:49Z</time>
      </trkpt>
      <trkpt lat="42.530134" lon="-6.506712">
        <ele>799.088</ele>
        <time>2014-08-31T13:34:57Z</time>
      </trkpt>
      <trkpt lat="42.530083" lon="-6.506823">
        <ele>799.024</ele>
        <time>2014-08-31T13:35:05Z</time>
      </trkpt>
      <trkpt lat="42.530036" lon="-6.506936">
        <ele>798.026</ele>
        <time>2014-08-31T13:35:13Z</time>
      </trkpt>
      <trkpt lat="42.530031" lon="-6.507064">
        <ele>797.007</ele>
        <time>2014-08-31T13:35:22Z</time>
      </trkpt>
      <trkpt lat="42.530028" lon="-6.507194">
        <ele>796.025</ele>
        <time>2014-08-31T13:35:30Z</time>
      </trkpt>
      <trkpt lat="42.530028" lon="-6.507324">
        <ele>795.024</ele>
        <time>2014-08-31T13:35:38Z</time>
      </trkpt>
      <trkpt lat="42.530032" lon="-6.507458">
        <ele>795.086</ele>
        <time>2014-08-31T13:35:47Z</time>
      </trkpt>
      <trkpt lat="42.530066" lon="-6.507572">
        <ele>794.041</ele>
        <time>2014-08-31T13:35:55Z</time>
      </trkpt>
      <trkpt lat="42.530095" lon="-6.507688">
        <ele>794.041</ele>
        <time>2014-08-31T13:36:01Z</time>
      </trkpt>
      <trkpt lat="42.530099" lon="-6.507810">
        <ele>795.077</ele>
        <time>2014-08-31T13:36:09Z</time>
      </trkpt>
      <trkpt lat="42.530129" lon="-6.507928">
        <ele>795.054</ele>
        <time>2014-08-31T13:36:16Z</time>
      </trkpt>
      <trkpt lat="42.530160" lon="-6.508059">
        <ele>794.012</ele>
        <time>2014-08-31T13:36:23Z</time>
      </trkpt>
      <trkpt lat="42.530185" lon="-6.508185">
        <ele>793.032</ele>
        <time>2014-08-31T13:36:30Z</time>
      </trkpt>
      <trkpt lat="42.530200" lon="-6.508317">
        <ele>792.005</ele>
        <time>2014-08-31T13:36:37Z</time>
      </trkpt>
      <trkpt lat="42.530195" lon="-6.508445">
        <ele>790.007</ele>
        <time>2014-08-31T13:36:45Z</time>
      </trkpt>
      <trkpt lat="42.530194" lon="-6.508585">
        <ele>789.058</ele>
        <time>2014-08-31T13:36:53Z</time>
      </trkpt>
      <trkpt lat="42.530226" lon="-6.508711">
        <ele>790.037</ele>
        <time>2014-08-31T13:37:02Z</time>
      </trkpt>
      <trkpt lat="42.530274" lon="-6.508803">
        <ele>789.069</ele>
        <time>2014-08-31T13:37:12Z</time>
      </trkpt>
      <trkpt lat="42.530317" lon="-6.508921">
        <ele>789.044</ele>
        <time>2014-08-31T13:37:21Z</time>
      </trkpt>
      <trkpt lat="42.530342" lon="-6.509053">
        <ele>789.054</ele>
        <time>2014-08-31T13:37:28Z</time>
      </trkpt>
      <trkpt lat="42.530393" lon="-6.509163">
        <ele>788.090</ele>
        <time>2014-08-31T13:37:35Z</time>
      </trkpt>
      <trkpt lat="42.530461" lon="-6.509248">
        <ele>788.067</ele>
        <time>2014-08-31T13:37:43Z</time>
      </trkpt>
      <trkpt lat="42.530535" lon="-6.509328">
        <ele>789.095</ele>
        <time>2014-08-31T13:37:52Z</time>
      </trkpt>
      <trkpt lat="42.530584" lon="-6.509430">
        <ele>790.049</ele>
        <time>2014-08-31T13:38:01Z</time>
      </trkpt>
      <trkpt lat="42.530615" lon="-6.509535">
        <ele>790.023</ele>
        <time>2014-08-31T13:38:11Z</time>
      </trkpt>
      <trkpt lat="42.530665" lon="-6.509625">
        <ele>791.007</ele>
        <time>2014-08-31T13:38:21Z</time>
      </trkpt>
      <trkpt lat="42.530704" lon="-6.509737">
        <ele>791.046</ele>
        <time>2014-08-31T13:38:29Z</time>
      </trkpt>
      <trkpt lat="42.530752" lon="-6.509846">
        <ele>791.055</ele>
        <time>2014-08-31T13:38:38Z</time>
      </trkpt>
      <trkpt lat="42.530794" lon="-6.509954">
        <ele>791.027</ele>
        <time>2014-08-31T13:38:47Z</time>
      </trkpt>
      <trkpt lat="42.530846" lon="-6.510062">
        <ele>790.042</ele>
        <time>2014-08-31T13:38:56Z</time>
      </trkpt>
      <trkpt lat="42.530883" lon="-6.510167">
        <ele>788.032</ele>
        <time>2014-08-31T13:39:06Z</time>
      </trkpt>
      <trkpt lat="42.530928" lon="-6.510274">
        <ele>787.088</ele>
        <time>2014-08-31T13:39:14Z</time>
      </trkpt>
      <trkpt lat="42.530935" lon="-6.510402">
        <ele>785.085</ele>
        <time>2014-08-31T13:39:24Z</time>
      </trkpt>
      <trkpt lat="42.530963" lon="-6.510531">
        <ele>784.099</ele>
        <time>2014-08-31T13:39:33Z</time>
      </trkpt>
      <trkpt lat="42.530997" lon="-6.510649">
        <ele>783.007</ele>
        <time>2014-08-31T13:39:42Z</time>
      </trkpt>
      <trkpt lat="42.531060" lon="-6.510736">
        <ele>782.027</ele>
        <time>2014-08-31T13:39:49Z</time>
      </trkpt>
      <trkpt lat="42.531142" lon="-6.510798">
        <ele>781.007</ele>
        <time>2014-08-31T13:39:58Z</time>
      </trkpt>
      <trkpt lat="42.531222" lon="-6.510845">
        <ele>779.076</ele>
        <time>2014-08-31T13:40:08Z</time>
      </trkpt>
      <trkpt lat="42.531243" lon="-6.510825">
        <ele>777.045</ele>
        <time>2014-08-31T13:40:50Z</time>
      </trkpt>
      <trkpt lat="42.531282" lon="-6.510783">
        <ele>775.097</ele>
        <time>2014-08-31T13:41:14Z</time>
      </trkpt>
      <trkpt lat="42.531377" lon="-6.510745">
        <ele>773.062</ele>
        <time>2014-08-31T13:41:21Z</time>
      </trkpt>
      <trkpt lat="42.531468" lon="-6.510710">
        <ele>772.082</ele>
        <time>2014-08-31T13:41:30Z</time>
      </trkpt>
      <trkpt lat="42.531558" lon="-6.510676">
        <ele>771.068</ele>
        <time>2014-08-31T13:41:38Z</time>
      </trkpt>
      <trkpt lat="42.531637" lon="-6.510616">
        <ele>770.095</ele>
        <time>2014-08-31T13:41:44Z</time>
      </trkpt>
      <trkpt lat="42.531740" lon="-6.510593">
        <ele>768.039</ele>
        <time>2014-08-31T13:41:53Z</time>
      </trkpt>
      <trkpt lat="42.531818" lon="-6.510616">
        <ele>765.001</ele>
        <time>2014-08-31T13:42:03Z</time>
      </trkpt>
      <trkpt lat="42.531914" lon="-6.510595">
        <ele>763.021</ele>
        <time>2014-08-31T13:42:12Z</time>
      </trkpt>
      <trkpt lat="42.532010" lon="-6.510556">
        <ele>762.007</ele>
        <time>2014-08-31T13:42:18Z</time>
      </trkpt>
      <trkpt lat="42.532105" lon="-6.510542">
        <ele>762.060</ele>
        <time>2014-08-31T13:42:26Z</time>
      </trkpt>
      <trkpt lat="42.532205" lon="-6.510522">
        <ele>761.089</ele>
        <time>2014-08-31T13:42:35Z</time>
      </trkpt>
      <trkpt lat="42.532306" lon="-6.510512">
        <ele>761.011</ele>
        <time>2014-08-31T13:42:43Z</time>
      </trkpt>
      <trkpt lat="42.532391" lon="-6.510562">
        <ele>761.056</ele>
        <time>2014-08-31T13:42:53Z</time>
      </trkpt>
      <trkpt lat="42.532478" lon="-6.510568">
        <ele>760.086</ele>
        <time>2014-08-31T13:43:03Z</time>
      </trkpt>
      <trkpt lat="42.532548" lon="-6.510654">
        <ele>758.032</ele>
        <time>2014-08-31T13:43:14Z</time>
      </trkpt>
      <trkpt lat="42.532589" lon="-6.510757">
        <ele>757.069</ele>
        <time>2014-08-31T13:43:24Z</time>
      </trkpt>
      <trkpt lat="42.532631" lon="-6.510812">
        <ele>755.032</ele>
        <time>2014-08-31T13:43:34Z</time>
      </trkpt>
      <trkpt lat="42.532587" lon="-6.510795">
        <ele>754.092</ele>
        <time>2014-08-31T13:44:01Z</time>
      </trkpt>
      <trkpt lat="42.532587" lon="-6.510872">
        <ele>754.011</ele>
        <time>2014-08-31T13:44:20Z</time>
      </trkpt>
      <trkpt lat="42.532658" lon="-6.510965">
        <ele>754.007</ele>
        <time>2014-08-31T13:44:29Z</time>
      </trkpt>
      <trkpt lat="42.532683" lon="-6.511084">
        <ele>754.050</ele>
        <time>2014-08-31T13:44:36Z</time>
      </trkpt>
      <trkpt lat="42.532715" lon="-6.511203">
        <ele>753.079</ele>
        <time>2014-08-31T13:44:44Z</time>
      </trkpt>
      <trkpt lat="42.532779" lon="-6.511311">
        <ele>752.071</ele>
        <time>2014-08-31T13:44:52Z</time>
      </trkpt>
      <trkpt lat="42.532852" lon="-6.511354">
        <ele>751.056</ele>
        <time>2014-08-31T13:45:02Z</time>
      </trkpt>
      <trkpt lat="42.532943" lon="-6.511352">
        <ele>750.036</ele>
        <time>2014-08-31T13:45:09Z</time>
      </trkpt>
      <trkpt lat="42.533024" lon="-6.511298">
        <ele>748.032</ele>
        <time>2014-08-31T13:45:19Z</time>
      </trkpt>
      <trkpt lat="42.533076" lon="-6.511251">
        <ele>746.069</ele>
        <time>2014-08-31T13:45:29Z</time>
      </trkpt>
      <trkpt lat="42.533174" lon="-6.511241">
        <ele>744.081</ele>
        <time>2014-08-31T13:45:39Z</time>
      </trkpt>
      <trkpt lat="42.533270" lon="-6.511238">
        <ele>743.061</ele>
        <time>2014-08-31T13:45:47Z</time>
      </trkpt>
      <trkpt lat="42.533362" lon="-6.511227">
        <ele>741.017</ele>
        <time>2014-08-31T13:45:55Z</time>
      </trkpt>
      <trkpt lat="42.533441" lon="-6.511247">
        <ele>738.007</ele>
        <time>2014-08-31T13:46:05Z</time>
      </trkpt>
      <trkpt lat="42.533538" lon="-6.511261">
        <ele>736.065</ele>
        <time>2014-08-31T13:46:15Z</time>
      </trkpt>
      <trkpt lat="42.533626" lon="-6.511225">
        <ele>733.074</ele>
        <time>2014-08-31T13:46:24Z</time>
      </trkpt>
      <trkpt lat="42.533720" lon="-6.511211">
        <ele>731.016</ele>
        <time>2014-08-31T13:46:33Z</time>
      </trkpt>
      <trkpt lat="42.533810" lon="-6.511211">
        <ele>729.091</ele>
        <time>2014-08-31T13:46:42Z</time>
      </trkpt>
      <trkpt lat="42.533903" lon="-6.511219">
        <ele>727.041</ele>
        <time>2014-08-31T13:46:50Z</time>
      </trkpt>
      <trkpt lat="42.534005" lon="-6.511200">
        <ele>727.087</ele>
        <time>2014-08-31T13:46:59Z</time>
      </trkpt>
      <trkpt lat="42.534104" lon="-6.511170">
        <ele>725.034</ele>
        <time>2014-08-31T13:47:08Z</time>
      </trkpt>
      <trkpt lat="42.534198" lon="-6.511158">
        <ele>724.071</ele>
        <time>2014-08-31T13:47:16Z</time>
      </trkpt>
      <trkpt lat="42.534292" lon="-6.511150">
        <ele>722.041</ele>
        <time>2014-08-31T13:47:25Z</time>
      </trkpt>
      <trkpt lat="42.534383" lon="-6.511146">
        <ele>720.015</ele>
        <time>2014-08-31T13:47:35Z</time>
      </trkpt>
      <trkpt lat="42.534476" lon="-6.511107">
        <ele>718.007</ele>
        <time>2014-08-31T13:47:43Z</time>
      </trkpt>
      <trkpt lat="42.534571" lon="-6.511093">
        <ele>716.034</ele>
        <time>2014-08-31T13:47:53Z</time>
      </trkpt>
      <trkpt lat="42.534648" lon="-6.511024">
        <ele>715.073</ele>
        <time>2014-08-31T13:48:00Z</time>
      </trkpt>
      <trkpt lat="42.534738" lon="-6.510992">
        <ele>714.025</ele>
        <time>2014-08-31T13:48:11Z</time>
      </trkpt>
      <trkpt lat="42.534823" lon="-6.510949">
        <ele>713.050</ele>
        <time>2014-08-31T13:48:20Z</time>
      </trkpt>
      <trkpt lat="42.534895" lon="-6.510892">
        <ele>711.070</ele>
        <time>2014-08-31T13:48:30Z</time>
      </trkpt>
      <trkpt lat="42.534991" lon="-6.510871">
        <ele>710.096</ele>
        <time>2014-08-31T13:48:39Z</time>
      </trkpt>
      <trkpt lat="42.535060" lon="-6.510928">
        <ele>710.073</ele>
        <time>2014-08-31T13:48:49Z</time>
      </trkpt>
      <trkpt lat="42.535096" lon="-6.511046">
        <ele>709.041</ele>
        <time>2014-08-31T13:48:56Z</time>
      </trkpt>
      <trkpt lat="42.535034" lon="-6.511155">
        <ele>709.081</ele>
        <time>2014-08-31T13:49:04Z</time>
      </trkpt>
      <trkpt lat="42.535016" lon="-6.511296">
        <ele>708.009</ele>
        <time>2014-08-31T13:49:14Z</time>
      </trkpt>
      <trkpt lat="42.534985" lon="-6.511437">
        <ele>706.007</ele>
        <time>2014-08-31T13:49:23Z</time>
      </trkpt>
      <trkpt lat="42.534958" lon="-6.511579">
        <ele>704.041</ele>
        <time>2014-08-31T13:49:32Z</time>
      </trkpt>
      <trkpt lat="42.534950" lon="-6.511702">
        <ele>704.040</ele>
        <time>2014-08-31T13:49:39Z</time>
      </trkpt>
      <trkpt lat="42.534951" lon="-6.511832">
        <ele>703.032</ele>
        <time>2014-08-31T13:49:46Z</time>
      </trkpt>
      <trkpt lat="42.534864" lon="-6.511891">
        <ele>702.077</ele>
        <time>2014-08-31T13:49:54Z</time>
      </trkpt>
      <trkpt lat="42.534799" lon="-6.511976">
        <ele>701.077</ele>
        <time>2014-08-31T13:50:02Z</time>
      </trkpt>
      <trkpt lat="42.534734" lon="-6.512064">
        <ele>701.043</ele>
        <time>2014-08-31T13:50:09Z</time>
      </trkpt>
      <trkpt lat="42.534682" lon="-6.512183">
        <ele>702.040</ele>
        <time>2014-08-31T13:50:17Z</time>
      </trkpt>
      <trkpt lat="42.534654" lon="-6.512298">
        <ele>702.098</ele>
        <time>2014-08-31T13:50:26Z</time>
      </trkpt>
      <trkpt lat="42.534614" lon="-6.512413">
        <ele>702.015</ele>
        <time>2014-08-31T13:50:34Z</time>
      </trkpt>
      <trkpt lat="42.534553" lon="-6.512514">
        <ele>703.026</ele>
        <time>2014-08-31T13:50:44Z</time>
      </trkpt>
      <trkpt lat="42.534490" lon="-6.512608">
        <ele>703.007</ele>
        <time>2014-08-31T13:50:52Z</time>
      </trkpt>
      <trkpt lat="42.534405" lon="-6.512694">
        <ele>703.086</ele>
        <time>2014-08-31T13:51:00Z</time>
      </trkpt>
      <trkpt lat="42.534353" lon="-6.512796">
        <ele>704.035</ele>
        <time>2014-08-31T13:51:09Z</time>
      </trkpt>
      <trkpt lat="42.534329" lon="-6.512849">
        <ele>705.057</ele>
        <time>2014-08-31T13:51:33Z</time>
      </trkpt>
      <trkpt lat="42.534375" lon="-6.512856">
        <ele>705.032</ele>
        <time>2014-08-31T13:51:43Z</time>
      </trkpt>
      <trkpt lat="42.534330" lon="-6.512841">
        <ele>705.062</ele>
        <time>2014-08-31T13:52:21Z</time>
      </trkpt>
      <trkpt lat="42.534350" lon="-6.512843">
        <ele>705.028</ele>
        <time>2014-08-31T13:53:02Z</time>
      </trkpt>
      <trkpt lat="42.534326" lon="-6.512936">
        <ele>706.015</ele>
        <time>2014-08-31T13:53:12Z</time>
      </trkpt>
      <trkpt lat="42.534258" lon="-6.513020">
        <ele>706.091</ele>
        <time>2014-08-31T13:53:21Z</time>
      </trkpt>
      <trkpt lat="42.534197" lon="-6.513121">
        <ele>705.081</ele>
        <time>2014-08-31T13:53:31Z</time>
      </trkpt>
      <trkpt lat="42.534178" lon="-6.513251">
        <ele>704.019</ele>
        <time>2014-08-31T13:53:40Z</time>
      </trkpt>
      <trkpt lat="42.534195" lon="-6.513372">
        <ele>703.007</ele>
        <time>2014-08-31T13:53:47Z</time>
      </trkpt>
      <trkpt lat="42.534204" lon="-6.513504">
        <ele>702.056</ele>
        <time>2014-08-31T13:53:56Z</time>
      </trkpt>
      <trkpt lat="42.534179" lon="-6.513628">
        <ele>699.095</ele>
        <time>2014-08-31T13:54:06Z</time>
      </trkpt>
      <trkpt lat="42.534198" lon="-6.513748">
        <ele>698.047</ele>
        <time>2014-08-31T13:54:15Z</time>
      </trkpt>
      <trkpt lat="42.534249" lon="-6.513861">
        <ele>697.042</ele>
        <time>2014-08-31T13:54:23Z</time>
      </trkpt>
      <trkpt lat="42.534293" lon="-6.513977">
        <ele>696.062</ele>
        <time>2014-08-31T13:54:29Z</time>
      </trkpt>
      <trkpt lat="42.534360" lon="-6.514076">
        <ele>698.088</ele>
        <time>2014-08-31T13:54:37Z</time>
      </trkpt>
      <trkpt lat="42.534431" lon="-6.514159">
        <ele>699.075</ele>
        <time>2014-08-31T13:54:42Z</time>
      </trkpt>
      <trkpt lat="42.534515" lon="-6.514213">
        <ele>700.025</ele>
        <time>2014-08-31T13:54:50Z</time>
      </trkpt>
      <trkpt lat="42.534597" lon="-6.514265">
        <ele>700.026</ele>
        <time>2014-08-31T13:55:00Z</time>
      </trkpt>
      <trkpt lat="42.534658" lon="-6.514325">
        <ele>699.008</ele>
        <time>2014-08-31T13:55:10Z</time>
      </trkpt>
      <trkpt lat="42.534675" lon="-6.514411">
        <ele>697.007</ele>
        <time>2014-08-31T13:55:21Z</time>
      </trkpt>
      <trkpt lat="42.534703" lon="-6.514533">
        <ele>696.099</ele>
        <time>2014-08-31T13:55:29Z</time>
      </trkpt>
      <trkpt lat="42.534713" lon="-6.514621">
        <ele>695.098</ele>
        <time>2014-08-31T13:55:39Z</time>
      </trkpt>
      <trkpt lat="42.534724" lon="-6.514757">
        <ele>693.070</ele>
        <time>2014-08-31T13:55:48Z</time>
      </trkpt>
      <trkpt lat="42.534739" lon="-6.514873">
        <ele>693.065</ele>
        <time>2014-08-31T13:55:58Z</time>
      </trkpt>
      <trkpt lat="42.534780" lon="-6.514985">
        <ele>693.025</ele>
        <time>2014-08-31T13:56:07Z</time>
      </trkpt>
      <trkpt lat="42.534800" lon="-6.515114">
        <ele>692.061</ele>
        <time>2014-08-31T13:56:16Z</time>
      </trkpt>
      <trkpt lat="42.534779" lon="-6.515254">
        <ele>692.058</ele>
        <time>2014-08-31T13:56:26Z</time>
      </trkpt>
      <trkpt lat="42.534739" lon="-6.515352">
        <ele>691.075</ele>
        <time>2014-08-31T13:56:36Z</time>
      </trkpt>
      <trkpt lat="42.534761" lon="-6.515472">
        <ele>689.028</ele>
        <time>2014-08-31T13:56:42Z</time>
      </trkpt>
      <trkpt lat="42.534771" lon="-6.515593">
        <ele>687.020</ele>
        <time>2014-08-31T13:56:52Z</time>
      </trkpt>
      <trkpt lat="42.534786" lon="-6.515732">
        <ele>684.007</ele>
        <time>2014-08-31T13:57:02Z</time>
      </trkpt>
      <trkpt lat="42.534805" lon="-6.515862">
        <ele>682.024</ele>
        <time>2014-08-31T13:57:10Z</time>
      </trkpt>
      <trkpt lat="42.534815" lon="-6.515990">
        <ele>680.033</ele>
        <time>2014-08-31T13:57:18Z</time>
      </trkpt>
      <trkpt lat="42.534832" lon="-6.516119">
        <ele>678.075</ele>
        <time>2014-08-31T13:57:27Z</time>
      </trkpt>
      <trkpt lat="42.534864" lon="-6.516222">
        <ele>677.040</ele>
        <time>2014-08-31T13:57:37Z</time>
      </trkpt>
      <trkpt lat="42.534920" lon="-6.516326">
        <ele>675.040</ele>
        <time>2014-08-31T13:57:45Z</time>
      </trkpt>
      <trkpt lat="42.534965" lon="-6.516443">
        <ele>674.086</ele>
        <time>2014-08-31T13:57:54Z</time>
      </trkpt>
      <trkpt lat="42.535003" lon="-6.516555">
        <ele>673.053</ele>
        <time>2014-08-31T13:58:01Z</time>
      </trkpt>
      <trkpt lat="42.535047" lon="-6.516667">
        <ele>671.024</ele>
        <time>2014-08-31T13:58:08Z</time>
      </trkpt>
      <trkpt lat="42.535112" lon="-6.516759">
        <ele>669.004</ele>
        <time>2014-08-31T13:58:18Z</time>
      </trkpt>
      <trkpt lat="42.535201" lon="-6.516806">
        <ele>669.014</ele>
        <time>2014-08-31T13:58:25Z</time>
      </trkpt>
      <trkpt lat="42.535300" lon="-6.516861">
        <ele>668.007</ele>
        <time>2014-08-31T13:58:35Z</time>
      </trkpt>
      <trkpt lat="42.535390" lon="-6.516927">
        <ele>668.039</ele>
        <time>2014-08-31T13:58:44Z</time>
      </trkpt>
      <trkpt lat="42.535469" lon="-6.516989">
        <ele>668.068</ele>
        <time>2014-08-31T13:58:52Z</time>
      </trkpt>
      <trkpt lat="42.535556" lon="-6.517031">
        <ele>667.040</ele>
        <time>2014-08-31T13:59:00Z</time>
      </trkpt>
      <trkpt lat="42.540466" lon="-6.525782">
        <ele>575.047</ele>
        <time>2022-07-06T12:40:51Z</time>
      </trkpt>
      <trkpt lat="42.540726" lon="-6.526276">
        <ele>579.029</ele>
        <time>2022-07-06T12:41:31Z</time>
      </trkpt>
      <trkpt lat="42.541882" lon="-6.527960">
        <ele>573.021</ele>
        <time>2022-07-06T12:42:11Z</time>
      </trkpt>
      <trkpt lat="42.543808" lon="-6.532017">
        <ele>565.006</ele>
        <time>2022-07-06T12:42:51Z</time>
      </trkpt>
      <trkpt lat="42.545464" lon="-6.535600">
        <ele>570.048</ele>
        <time>2022-07-06T12:43:31Z</time>
      </trkpt>
      <trkpt lat="42.545666" lon="-6.536212">
        <ele>570.041</ele>
        <time>2022-07-06T12:44:11Z</time>
      </trkpt>
      <trkpt lat="42.545696" lon="-6.537543">
        <ele>577.035</ele>
        <time>2022-07-06T12:44:51Z</time>
      </trkpt>
      <trkpt lat="42.545807" lon="-6.538188">
        <ele>580.022</ele>
        <time>2022-07-06T12:45:31Z</time>
      </trkpt>
      <trkpt lat="42.546238" lon="-6.539123">
        <ele>585.017</ele>
        <time>2022-07-06T12:46:11Z</time>
      </trkpt>
      <trkpt lat="42.546314" lon="-6.539462">
        <ele>575.041</ele>
        <time>2022-07-06T12:46:51Z</time>
      </trkpt>
      <trkpt lat="42.546375" lon="-6.540173">
        <ele>577.055</ele>
        <time>2022-07-06T12:47:31Z</time>
      </trkpt>
      <trkpt lat="42.546459" lon="-6.541908">
        <ele>584.007</ele>
        <time>2022-07-06T12:48:11Z</time>
      </trkpt>
      <trkpt lat="42.546463" lon="-6.542582">
        <ele>586.017</ele>
        <time>2022-07-06T12:48:51Z</time>
      </trkpt>
      <trkpt lat="42.546291" lon="-6.544275">
        <ele>591.006</ele>
        <time>2022-07-06T12:49:31Z</time>
      </trkpt>
      <trkpt lat="42.546261" lon="-6.544945">
        <ele>593.079</ele>
        <time>2022-07-06T12:50:11Z</time>
      </trkpt>
      <trkpt lat="42.545940" lon="-6.548385">
        <ele>614.032</ele>
        <time>2022-07-06T12:50:51Z</time>
      </trkpt>
      <trkpt lat="42.545841" lon="-6.548695">
        <ele>614.076</ele>
        <time>2022-07-06T12:51:31Z</time>
      </trkpt>
      <trkpt lat="42.545551" lon="-6.549325">
        <ele>614.053</ele>
        <time>2022-07-06T12:52:11Z</time>
      </trkpt>
      <trkpt lat="42.545441" lon="-6.549655">
        <ele>611.048</ele>
        <time>2022-07-06T12:52:51Z</time>
      </trkpt>
      <trkpt lat="42.545387" lon="-6.550003">
        <ele>604.082</ele>
        <time>2022-07-06T12:53:31Z</time>
      </trkpt>
      <trkpt lat="42.545410" lon="-6.550358">
        <ele>604.042</ele>
        <time>2022-07-06T12:54:11Z</time>
      </trkpt>
      <trkpt lat="42.545479" lon="-6.550697">
        <ele>604.022</ele>
        <time>2022-07-06T12:54:51Z</time>
      </trkpt>
      <trkpt lat="42.545692" lon="-6.551362">
        <ele>597.014</ele>
        <time>2022-07-06T12:55:31Z</time>
      </trkpt>
      <trkpt lat="42.545769" lon="-6.551710">
        <ele>597.006</ele>
        <time>2022-07-06T12:56:11Z</time>
      </trkpt>
      <trkpt lat="42.545818" lon="-6.552035">
        <ele>597.028</ele>
        <time>2022-07-06T12:56:51Z</time>
      </trkpt>
      <trkpt lat="42.545643" lon="-6.552608">
        <ele>596.051</ele>
        <time>2022-07-06T12:57:31Z</time>
      </trkpt>
      <trkpt lat="42.545383" lon="-6.553240">
        <ele>587.015</ele>
        <time>2022-07-06T12:58:11Z</time>
      </trkpt>
      <trkpt lat="42.545277" lon="-6.553922">
        <ele>585.092</ele>
        <time>2022-07-06T12:58:51Z</time>
      </trkpt>
      <trkpt lat="42.545414" lon="-6.555688">
        <ele>581.067</ele>
        <time>2022-07-06T12:59:31Z</time>
      </trkpt>
      <trkpt lat="42.545475" lon="-6.556347">
        <ele>577.051</ele>
        <time>2022-07-06T13:00:11Z</time>
      </trkpt>
      <trkpt lat="42.545547" lon="-6.556667">
        <ele>577.019</ele>
        <time>2022-07-06T13:00:51Z</time>
      </trkpt>
      <trkpt lat="42.545578" lon="-6.557325">
        <ele>572.009</ele>
        <time>2022-07-06T13:01:31Z</time>
      </trkpt>
      <trkpt lat="42.545662" lon="-6.557992">
        <ele>566.019</ele>
        <time>2022-07-06T13:02:11Z</time>
      </trkpt>
      <trkpt lat="42.545902" lon="-6.560828">
        <ele>551.006</ele>
        <time>2022-07-06T13:02:51Z</time>
      </trkpt>
      <trkpt lat="42.545822" lon="-6.561503">
        <ele>551.095</ele>
        <time>2022-07-06T13:03:31Z</time>
      </trkpt>
      <trkpt lat="42.545567" lon="-6.562527">
        <ele>548.078</ele>
        <time>2022-07-06T13:04:11Z</time>
      </trkpt>
      <trkpt lat="42.545441" lon="-6.562772">
        <ele>548.022</ele>
        <time>2022-07-06T13:04:51Z</time>
      </trkpt>
      <trkpt lat="42.545334" lon="-6.563085">
        <ele>533.089</ele>
        <time>2022-07-06T13:05:31Z</time>
      </trkpt>
      <trkpt lat="42.545212" lon="-6.563777">
        <ele>530.024</ele>
        <time>2022-07-06T13:06:11Z</time>
      </trkpt>
      <trkpt lat="42.545219" lon="-6.564127">
        <ele>530.098</ele>
        <time>2022-07-06T13:06:51Z</time>
      </trkpt>
      <trkpt lat="42.545265" lon="-6.564463">
        <ele>530.021</ele>
        <time>2022-07-06T13:07:31Z</time>
      </trkpt>
      <trkpt lat="42.545368" lon="-6.564777">
        <ele>526.041</ele>
        <time>2022-07-06T13:08:11Z</time>
      </trkpt>
      <trkpt lat="42.545498" lon="-6.565053">
        <ele>531.005</ele>
        <time>2022-07-06T13:08:51Z</time>
      </trkpt>
      <trkpt lat="42.545685" lon="-6.565243">
        <ele>531.006</ele>
        <time>2022-07-06T13:09:31Z</time>
      </trkpt>
      <trkpt lat="42.546150" lon="-6.565442">
        <ele>524.056</ele>
        <time>2022-07-06T13:10:11Z</time>
      </trkpt>
      <trkpt lat="42.546383" lon="-6.565592">
        <ele>522.029</ele>
        <time>2022-07-06T13:10:51Z</time>
      </trkpt>
      <trkpt lat="42.546535" lon="-6.565922">
        <ele>522.043</ele>
        <time>2022-07-06T13:11:31Z</time>
      </trkpt>
      <trkpt lat="42.546764" lon="-6.566960">
        <ele>520.060</ele>
        <time>2022-07-06T13:12:11Z</time>
      </trkpt>
      <trkpt lat="42.546810" lon="-6.567283">
        <ele>522.025</ele>
        <time>2022-07-06T13:12:51Z</time>
      </trkpt>
      <trkpt lat="42.546677" lon="-6.567612">
        <ele>522.099</ele>
        <time>2022-07-06T13:13:31Z</time>
      </trkpt>
      <trkpt lat="42.546169" lon="-6.568412">
        <ele>519.083</ele>
        <time>2022-07-06T13:14:11Z</time>
      </trkpt>
      <trkpt lat="42.546028" lon="-6.568695">
        <ele>519.025</ele>
        <time>2022-07-06T13:14:51Z</time>
      </trkpt>
      <trkpt lat="42.545662" lon="-6.569642">
        <ele>524.017</ele>
        <time>2022-07-06T13:15:31Z</time>
      </trkpt>
      <trkpt lat="42.545231" lon="-6.570883">
        <ele>518.006</ele>
        <time>2022-07-06T13:16:11Z</time>
      </trkpt>
      <trkpt lat="42.545101" lon="-6.571578">
        <ele>519.072</ele>
        <time>2022-07-06T13:16:51Z</time>
      </trkpt>
      <trkpt lat="42.545036" lon="-6.572252">
        <ele>521.065</ele>
        <time>2022-07-06T13:17:31Z</time>
      </trkpt>
      <trkpt lat="42.545071" lon="-6.572585">
        <ele>521.039</ele>
        <time>2022-07-06T13:18:11Z</time>
      </trkpt>
      <trkpt lat="42.545025" lon="-6.573628">
        <ele>521.036</ele>
        <time>2022-07-06T13:18:51Z</time>
      </trkpt>
      <trkpt lat="42.545040" lon="-6.573975">
        <ele>520.061</ele>
        <time>2022-07-06T13:19:31Z</time>
      </trkpt>
      <trkpt lat="42.545269" lon="-6.575643">
        <ele>520.075</ele>
        <time>2022-07-06T13:20:11Z</time>
      </trkpt>
      <trkpt lat="42.545494" lon="-6.576978">
        <ele>526.022</ele>
        <time>2022-07-06T13:20:51Z</time>
      </trkpt>
      <trkpt lat="42.545582" lon="-6.577292">
        <ele>527.062</ele>
        <time>2022-07-06T13:21:31Z</time>
      </trkpt>
      <trkpt lat="42.546097" lon="-6.577983">
        <ele>528.008</ele>
        <time>2022-07-06T13:22:11Z</time>
      </trkpt>
      <trkpt lat="42.546158" lon="-6.578282">
        <ele>528.006</ele>
        <time>2022-07-06T13:22:51Z</time>
      </trkpt>
      <trkpt lat="42.546154" lon="-6.578583">
        <ele>528.016</ele>
        <time>2022-07-06T13:23:31Z</time>
      </trkpt>
      <trkpt lat="42.546124" lon="-6.578918">
        <ele>531.079</ele>
        <time>2022-07-06T13:24:11Z</time>
      </trkpt>
      <trkpt lat="42.545998" lon="-6.579565">
        <ele>531.093</ele>
        <time>2022-07-06T13:24:51Z</time>
      </trkpt>
      <trkpt lat="42.545837" lon="-6.581888">
        <ele>537.070</ele>
        <time>2022-07-06T13:25:31Z</time>
      </trkpt>
      <trkpt lat="42.545719" lon="-6.582560">
        <ele>535.035</ele>
        <time>2022-07-06T13:26:11Z</time>
      </trkpt>
      <trkpt lat="42.545574" lon="-6.582900">
        <ele>535.059</ele>
        <time>2022-07-06T13:26:51Z</time>
      </trkpt>
      <trkpt lat="42.544930" lon="-6.583490">
        <ele>534.078</ele>
        <time>2022-07-06T13:27:31Z</time>
      </trkpt>
      <trkpt lat="42.544708" lon="-6.583738">
        <ele>534.033</ele>
        <time>2022-07-06T13:28:11Z</time>
      </trkpt>
      <trkpt lat="42.544659" lon="-6.584055">
        <ele>534.026</ele>
        <time>2022-07-06T13:28:51Z</time>
      </trkpt>
      <trkpt lat="42.544659" lon="-6.584695">
        <ele>537.006</ele>
        <time>2022-07-06T13:29:31Z</time>
      </trkpt>
      <trkpt lat="42.544407" lon="-6.586023">
        <ele>535.071</ele>
        <time>2022-07-06T13:30:11Z</time>
      </trkpt>
      <trkpt lat="42.544254" lon="-6.586607">
        <ele>533.054</ele>
        <time>2022-07-06T13:30:51Z</time>
      </trkpt>
      <trkpt lat="42.544205" lon="-6.586910">
        <ele>533.068</ele>
        <time>2022-07-06T13:31:31Z</time>
      </trkpt>
      <trkpt lat="42.544071" lon="-6.587210">
        <ele>534.075</ele>
        <time>2022-07-06T13:32:11Z</time>
      </trkpt>
      <trkpt lat="42.543236" lon="-6.588525">
        <ele>532.060</ele>
        <time>2022-07-06T13:32:51Z</time>
      </trkpt>
      <trkpt lat="42.543053" lon="-6.589173">
        <ele>533.084</ele>
        <time>2022-07-06T13:33:31Z</time>
      </trkpt>
      <trkpt lat="42.543129" lon="-6.589412">
        <ele>533.026</ele>
        <time>2022-07-06T13:34:11Z</time>
      </trkpt>
      <trkpt lat="42.543262" lon="-6.590228">
        <ele>533.047</ele>
        <time>2022-07-06T13:34:51Z</time>
      </trkpt>
      <trkpt lat="42.543270" lon="-6.590531">
        <ele>532.011</ele>
        <time>2022-07-06T13:35:31Z</time>
      </trkpt>
      <trkpt lat="42.543331" lon="-6.590872">
        <ele>532.006</ele>
        <time>2022-07-06T13:36:11Z</time>
      </trkpt>
      <trkpt lat="42.543339" lon="-6.591567">
        <ele>532.086</ele>
        <time>2022-07-06T13:36:51Z</time>
      </trkpt>
      <trkpt lat="42.543209" lon="-6.591862">
        <ele>532.059</ele>
        <time>2022-07-06T13:37:31Z</time>
      </trkpt>
      <trkpt lat="42.543217" lon="-6.592852">
        <ele>534.093</ele>
        <time>2022-07-06T13:38:11Z</time>
      </trkpt>
      <trkpt lat="42.543083" lon="-6.593153">
        <ele>534.020</ele>
        <time>2022-07-06T13:38:51Z</time>
      </trkpt>
      <trkpt lat="42.543133" lon="-6.593355">
        <ele>534.085</ele>
        <time>2022-07-06T13:39:31Z</time>
      </trkpt>
      <trkpt lat="42.543564" lon="-6.592850">
        <ele>534.049</ele>
        <time>2022-07-06T13:40:11Z</time>
      </trkpt>
      <trkpt lat="42.543941" lon="-6.592575">
        <ele>540.087</ele>
        <time>2022-07-06T13:40:51Z</time>
      </trkpt>
      <trkpt lat="42.544228" lon="-6.592634">
        <ele>540.042</ele>
        <time>2022-07-06T13:41:31Z</time>
      </trkpt>
      <trkpt lat="42.544308" lon="-6.592516">
        <ele>540.026</ele>
        <time>2022-07-06T13:42:11Z</time>
      </trkpt>
      <trkpt lat="42.544529" lon="-6.592526">
        <ele>540.006</ele>
        <time>2022-07-06T13:42:51Z</time>
      </trkpt>
      <trkpt lat="42.544846" lon="-6.592419">
        <ele>539.082</ele>
        <time>2022-07-06T13:43:31Z</time>
      </trkpt>
      <trkpt lat="42.545090" lon="-6.592650">
        <ele>539.025</ele>
        <time>2022-07-06T13:44:11Z</time>
      </trkpt>
      <trkpt lat="42.545395" lon="-6.592788">
        <ele>539.029</ele>
        <time>2022-07-06T13:44:51Z</time>
      </trkpt>
      <trkpt lat="42.545746" lon="-6.592693">
        <ele>528.066</ele>
        <time>2022-07-06T13:45:31Z</time>
      </trkpt>
      <trkpt lat="42.546326" lon="-6.592628">
        <ele>516.071</ele>
        <time>2022-07-06T13:46:11Z</time>
      </trkpt>
      <trkpt lat="42.546902" lon="-6.592484">
        <ele>516.095</ele>
        <time>2022-07-06T13:46:51Z</time>
      </trkpt>
      <trkpt lat="42.547077" lon="-6.592902">
        <ele>516.071</ele>
        <time>2022-07-06T13:47:31Z</time>
      </trkpt>
      <trkpt lat="42.547089" lon="-6.593182">
        <ele>513.041</ele>
        <time>2022-07-06T13:48:11Z</time>
      </trkpt>
      <trkpt lat="42.547207" lon="-6.593771">
        <ele>512.015</ele>
        <time>2022-07-06T13:48:51Z</time>
      </trkpt>
      <trkpt lat="42.547497" lon="-6.593667">
        <ele>513.006</ele>
        <time>2022-07-06T13:49:31Z</time>
      </trkpt>
      <trkpt lat="42.547688" lon="-6.593908">
        <ele>512.061</ele>
        <time>2022-07-06T13:50:11Z</time>
      </trkpt>
      <trkpt lat="42.547806" lon="-6.594255">
        <ele>512.074</ele>
        <time>2022-07-06T13:50:51Z</time>
      </trkpt>
      <trkpt lat="42.548107" lon="-6.595882">
        <ele>513.038</ele>
        <time>2022-07-06T13:51:31Z</time>
      </trkpt>
      <trkpt lat="42.548252" lon="-6.596035">
        <ele>513.035</ele>
        <time>2022-07-06T13:52:11Z</time>
      </trkpt>
      <trkpt lat="42.551811" lon="-6.594722">
        <ele>511.080</ele>
        <time>2022-07-06T13:52:51Z</time>
      </trkpt>
      <trkpt lat="42.552044" lon="-6.594540">
        <ele>510.054</ele>
        <time>2022-07-06T13:53:31Z</time>
      </trkpt>
      <trkpt lat="42.552261" lon="-6.594568">
        <ele>513.071</ele>
        <time>2022-07-06T13:54:11Z</time>
      </trkpt>
      <trkpt lat="42.554272" lon="-6.593975">
        <ele>520.041</ele>
        <time>2022-07-06T13:54:51Z</time>
      </trkpt>
      <trkpt lat="42.554958" lon="-6.594120">
        <ele>524.015</ele>
        <time>2022-07-06T13:55:31Z</time>
      </trkpt>
      <trkpt lat="42.555077" lon="-6.594242">
        <ele>524.006</ele>
        <time>2022-07-06T13:56:11Z</time>
      </trkpt>
      <trkpt lat="42.555180" lon="-6.594436">
        <ele>524.071</ele>
        <time>2022-07-06T13:56:51Z</time>
      </trkpt>
      <trkpt lat="42.555416" lon="-6.594747">
        <ele>524.094</ele>
        <time>2022-07-06T13:57:31Z</time>
      </trkpt>
      <trkpt lat="42.555695" lon="-6.594710">
        <ele>524.038</ele>
        <time>2022-07-06T13:58:11Z</time>
      </trkpt>
      <trkpt lat="42.555996" lon="-6.594243">
        <ele>525.075</ele>
        <time>2022-07-06T13:58:51Z</time>
      </trkpt>
      <trkpt lat="42.556217" lon="-6.593762">
        <ele>525.010</ele>
        <time>2022-07-06T13:59:31Z</time>
      </trkpt>
      <trkpt lat="42.556587" lon="-6.593283">
        <ele>526.064</ele>
        <time>2022-07-06T14:00:11Z</time>
      </trkpt>
      <trkpt lat="42.557468" lon="-6.592495">
        <ele>527.042</ele>
        <time>2022-07-06T14:00:51Z</time>
      </trkpt>
      <trkpt lat="42.557659" lon="-6.592262">
        <ele>527.022</ele>
        <time>2022-07-06T14:01:31Z</time>
      </trkpt>
      <trkpt lat="42.557766" lon="-6.591925">
        <ele>524.014</ele>
        <time>2022-07-06T14:02:11Z</time>
      </trkpt>
      <trkpt lat="42.557907" lon="-6.591630">
        <ele>524.006</ele>
        <time>2022-07-06T14:02:51Z</time>
      </trkpt>
      <trkpt lat="42.557995" lon="-6.591278">
        <ele>533.078</ele>
        <time>2022-07-06T14:03:31Z</time>
      </trkpt>
      <trkpt lat="42.558167" lon="-6.590307">
        <ele>528.051</ele>
        <time>2022-07-06T14:04:11Z</time>
      </trkpt>
      <trkpt lat="42.558456" lon="-6.588962">
        <ele>528.045</ele>
        <time>2022-07-06T14:04:51Z</time>
      </trkpt>
      <trkpt lat="42.558582" lon="-6.588670">
        <ele>525.092</ele>
        <time>2022-07-06T14:05:31Z</time>
      </trkpt>
      <trkpt lat="42.558907" lon="-6.588696">
        <ele>541.047</ele>
        <time>2022-07-06T14:06:11Z</time>
      </trkpt>
      <trkpt lat="42.559830" lon="-6.589782">
        <ele>537.031</ele>
        <time>2022-07-06T14:06:51Z</time>
      </trkpt>
      <trkpt lat="42.560001" lon="-6.590097">
        <ele>537.024</ele>
        <time>2022-07-06T14:07:31Z</time>
      </trkpt>
      <trkpt lat="42.560226" lon="-6.590333">
        <ele>537.004</ele>
        <time>2022-07-06T14:08:11Z</time>
      </trkpt>
      <trkpt lat="42.560982" lon="-6.591383">
        <ele>535.014</ele>
        <time>2022-07-06T14:08:51Z</time>
      </trkpt>
      <trkpt lat="42.561577" lon="-6.592007">
        <ele>542.006</ele>
        <time>2022-07-06T14:09:31Z</time>
      </trkpt>
      <trkpt lat="42.561756" lon="-6.592300">
        <ele>539.016</ele>
        <time>2022-07-06T14:10:11Z</time>
      </trkpt>
      <trkpt lat="42.562103" lon="-6.592750">
        <ele>541.059</ele>
        <time>2022-07-06T14:10:51Z</time>
      </trkpt>
      <trkpt lat="42.562328" lon="-6.592828">
        <ele>541.033</ele>
        <time>2022-07-06T14:11:31Z</time>
      </trkpt>
      <trkpt lat="42.562908" lon="-6.593603">
        <ele>538.040</ele>
        <time>2022-07-06T14:12:11Z</time>
      </trkpt>
      <trkpt lat="42.563038" lon="-6.593915">
        <ele>541.015</ele>
        <time>2022-07-06T14:12:51Z</time>
      </trkpt>
      <trkpt lat="42.563526" lon="-6.594742">
        <ele>539.069</ele>
        <time>2022-07-06T14:13:31Z</time>
      </trkpt>
      <trkpt lat="42.563721" lon="-6.595003">
        <ele>539.034</ele>
        <time>2022-07-06T14:14:11Z</time>
      </trkpt>
      <trkpt lat="42.563698" lon="-6.595365">
        <ele>539.055</ele>
        <time>2022-07-06T14:14:51Z</time>
      </trkpt>
      <trkpt lat="42.563805" lon="-6.595603">
        <ele>536.010</ele>
        <time>2022-07-06T14:15:31Z</time>
      </trkpt>
      <trkpt lat="42.565350" lon="-6.597657">
        <ele>534.006</ele>
        <time>2022-07-06T14:16:11Z</time>
      </trkpt>
      <trkpt lat="42.565746" lon="-6.598098">
        <ele>535.067</ele>
        <time>2022-07-06T14:16:51Z</time>
      </trkpt>
      <trkpt lat="42.566429" lon="-6.598668">
        <ele>537.070</ele>
        <time>2022-07-06T14:17:31Z</time>
      </trkpt>
      <trkpt lat="42.567287" lon="-6.599672">
        <ele>537.054</ele>
        <time>2022-07-06T14:18:11Z</time>
      </trkpt>
      <trkpt lat="42.567875" lon="-6.600401">
        <ele>537.041</ele>
        <time>2022-07-06T14:18:51Z</time>
      </trkpt>
      <trkpt lat="42.568459" lon="-6.600981">
        <ele>542.086</ele>
        <time>2022-07-06T14:19:31Z</time>
      </trkpt>
      <trkpt lat="42.568790" lon="-6.601260">
        <ele>545.080</ele>
        <time>2022-07-06T14:20:11Z</time>
      </trkpt>
      <trkpt lat="42.569454" lon="-6.601582">
        <ele>545.012</ele>
        <time>2022-07-06T14:20:51Z</time>
      </trkpt>
      <trkpt lat="42.569691" lon="-6.601603">
        <ele>543.032</ele>
        <time>2022-07-06T14:21:31Z</time>
      </trkpt>
      <trkpt lat="42.569942" lon="-6.601818">
        <ele>543.005</ele>
        <time>2022-07-06T14:22:11Z</time>
      </trkpt>
      <trkpt lat="42.570419" lon="-6.602054">
        <ele>544.006</ele>
        <time>2022-07-06T14:22:51Z</time>
      </trkpt>
      <trkpt lat="42.570698" lon="-6.602167">
        <ele>540.065</ele>
        <time>2022-07-06T14:23:31Z</time>
      </trkpt>
      <trkpt lat="42.570854" lon="-6.602868">
        <ele>540.098</ele>
        <time>2022-07-06T14:24:11Z</time>
      </trkpt>
      <trkpt lat="42.570976" lon="-6.603168">
        <ele>541.052</ele>
        <time>2022-07-06T14:24:51Z</time>
      </trkpt>
      <trkpt lat="42.571289" lon="-6.603635">
        <ele>544.079</ele>
        <time>2022-07-06T14:25:31Z</time>
      </trkpt>
      <trkpt lat="42.571896" lon="-6.604342">
        <ele>544.024</ele>
        <time>2022-07-06T14:26:11Z</time>
      </trkpt>
      <trkpt lat="42.572124" lon="-6.605008">
        <ele>541.068</ele>
        <time>2022-07-06T14:26:51Z</time>
      </trkpt>
      <trkpt lat="42.572178" lon="-6.605330">
        <ele>541.027</ele>
        <time>2022-07-06T14:27:31Z</time>
      </trkpt>
      <trkpt lat="42.572266" lon="-6.606042">
        <ele>540.068</ele>
        <time>2022-07-06T14:28:11Z</time>
      </trkpt>
      <trkpt lat="42.572353" lon="-6.607473">
        <ele>533.014</ele>
        <time>2022-07-06T14:28:51Z</time>
      </trkpt>
      <trkpt lat="42.572529" lon="-6.608534">
        <ele>531.006</ele>
        <time>2022-07-06T14:29:31Z</time>
      </trkpt>
      <trkpt lat="42.572536" lon="-6.608738">
        <ele>531.096</ele>
        <time>2022-07-06T14:30:11Z</time>
      </trkpt>
      <trkpt lat="42.572754" lon="-6.609393">
        <ele>528.019</ele>
        <time>2022-07-06T14:30:51Z</time>
      </trkpt>
      <trkpt lat="42.572830" lon="-6.609737">
        <ele>527.093</ele>
        <time>2022-07-06T14:31:31Z</time>
      </trkpt>
      <trkpt lat="42.572941" lon="-6.610065">
        <ele>527.040</ele>
        <time>2022-07-06T14:32:11Z</time>
      </trkpt>
      <trkpt lat="42.573357" lon="-6.610948">
        <ele>525.045</ele>
        <time>2022-07-06T14:32:51Z</time>
      </trkpt>
      <trkpt lat="42.573460" lon="-6.611259">
        <ele>523.049</ele>
        <time>2022-07-06T14:33:31Z</time>
      </trkpt>
      <trkpt lat="42.573650" lon="-6.611399">
        <ele>523.035</ele>
        <time>2022-07-06T14:34:11Z</time>
      </trkpt>
      <trkpt lat="42.573833" lon="-6.611603">
        <ele>523.086</ele>
        <time>2022-07-06T14:34:51Z</time>
      </trkpt>
      <trkpt lat="42.574051" lon="-6.611806">
        <ele>523.014</ele>
        <time>2022-07-06T14:35:31Z</time>
      </trkpt>
      <trkpt lat="42.574310" lon="-6.612068">
        <ele>523.006</ele>
        <time>2022-07-06T14:36:11Z</time>
      </trkpt>
      <trkpt lat="42.574547" lon="-6.612757">
        <ele>522.027</ele>
        <time>2022-07-06T14:36:51Z</time>
      </trkpt>
      <trkpt lat="42.574570" lon="-6.613473">
        <ele>520.080</ele>
        <time>2022-07-06T14:37:31Z</time>
      </trkpt>
      <trkpt lat="42.574760" lon="-6.616042">
        <ele>518.054</ele>
        <time>2022-07-06T14:38:11Z</time>
      </trkpt>
      <trkpt lat="42.575039" lon="-6.617847">
        <ele>518.021</ele>
        <time>2022-07-06T14:38:51Z</time>
      </trkpt>
      <trkpt lat="42.575222" lon="-6.619318">
        <ele>518.096</ele>
        <time>2022-07-06T14:39:31Z</time>
      </trkpt>
      <trkpt lat="42.575287" lon="-6.620065">
        <ele>517.020</ele>
        <time>2022-07-06T14:40:11Z</time>
      </trkpt>
      <trkpt lat="42.575310" lon="-6.621182">
        <ele>514.013</ele>
        <time>2022-07-06T14:40:51Z</time>
      </trkpt>
      <trkpt lat="42.575390" lon="-6.621920">
        <ele>515.043</ele>
        <time>2022-07-06T14:41:31Z</time>
      </trkpt>
      <trkpt lat="42.575527" lon="-6.624123">
        <ele>515.007</ele>
        <time>2022-07-06T14:42:11Z</time>
      </trkpt>
      <trkpt lat="42.575603" lon="-6.624830">
        <ele>516.006</ele>
        <time>2022-07-06T14:42:51Z</time>
      </trkpt>
      <trkpt lat="42.575806" lon="-6.625936">
        <ele>517.015</ele>
        <time>2022-07-06T14:43:31Z</time>
      </trkpt>
      <trkpt lat="42.575966" lon="-6.627352">
        <ele>512.018</ele>
        <time>2022-07-06T14:44:11Z</time>
      </trkpt>
      <trkpt lat="42.576035" lon="-6.627631">
        <ele>512.092</ele>
        <time>2022-07-06T14:44:51Z</time>
      </trkpt>
      <trkpt lat="42.576336" lon="-6.628598">
        <ele>513.089</ele>
        <time>2022-07-06T14:45:31Z</time>
      </trkpt>
      <trkpt lat="42.576611" lon="-6.629215">
        <ele>512.094</ele>
        <time>2022-07-06T14:46:11Z</time>
      </trkpt>
      <trkpt lat="42.576763" lon="-6.629498">
        <ele>512.018</ele>
        <time>2022-07-06T14:46:51Z</time>
      </trkpt>
      <trkpt lat="42.577488" lon="-6.630572">
        <ele>511.089</ele>
        <time>2022-07-06T14:47:31Z</time>
      </trkpt>
      <trkpt lat="42.577896" lon="-6.631595">
        <ele>510.006</ele>
        <time>2022-07-06T14:48:11Z</time>
      </trkpt>
      <trkpt lat="42.578087" lon="-6.632308">
        <ele>512.026</ele>
        <time>2022-07-06T14:48:51Z</time>
      </trkpt>
      <trkpt lat="42.578026" lon="-6.633039">
        <ele>509.006</ele>
        <time>2022-07-06T14:49:31Z</time>
      </trkpt>
      <trkpt lat="42.577782" lon="-6.634090">
        <ele>508.072</ele>
        <time>2022-07-06T14:50:11Z</time>
      </trkpt>
      <trkpt lat="42.577656" lon="-6.634476">
        <ele>508.055</ele>
        <time>2022-07-06T14:50:51Z</time>
      </trkpt>
      <trkpt lat="42.577309" lon="-6.635409">
        <ele>509.099</ele>
        <time>2022-07-06T14:51:31Z</time>
      </trkpt>
      <trkpt lat="42.577148" lon="-6.636032">
        <ele>509.036</ele>
        <time>2022-07-06T14:52:11Z</time>
      </trkpt>
      <trkpt lat="42.577080" lon="-6.637137">
        <ele>508.031</ele>
        <time>2022-07-06T14:52:51Z</time>
      </trkpt>
      <trkpt lat="42.577007" lon="-6.637480">
        <ele>508.025</ele>
        <time>2022-07-06T14:53:31Z</time>
      </trkpt>
      <trkpt lat="42.576866" lon="-6.638242">
        <ele>507.039</ele>
        <time>2022-07-06T14:54:11Z</time>
      </trkpt>
      <trkpt lat="42.576809" lon="-6.639400">
        <ele>507.001</ele>
        <time>2022-07-06T14:54:51Z</time>
      </trkpt>
      <trkpt lat="42.576881" lon="-6.639744">
        <ele>507.021</ele>
        <time>2022-07-06T14:55:31Z</time>
      </trkpt>
      <trkpt lat="42.576992" lon="-6.640044">
        <ele>507.006</ele>
        <time>2022-07-06T14:56:11Z</time>
      </trkpt>
      <trkpt lat="42.577110" lon="-6.640385">
        <ele>508.087</ele>
        <time>2022-07-06T14:56:51Z</time>
      </trkpt>
      <trkpt lat="42.577282" lon="-6.640892">
        <ele>506.030</ele>
        <time>2022-07-06T14:57:31Z</time>
      </trkpt>
      <trkpt lat="42.577377" lon="-6.641343">
        <ele>505.024</ele>
        <time>2022-07-06T14:58:11Z</time>
      </trkpt>
      <trkpt lat="42.577408" lon="-6.642127">
        <ele>505.021</ele>
        <time>2022-07-06T14:58:51Z</time>
      </trkpt>
      <trkpt lat="42.577385" lon="-6.643553">
        <ele>504.046</ele>
        <time>2022-07-06T14:59:31Z</time>
      </trkpt>
      <trkpt lat="42.577377" lon="-6.643950">
        <ele>503.070</ele>
        <time>2022-07-06T15:00:11Z</time>
      </trkpt>
      <trkpt lat="42.577393" lon="-6.644615">
        <ele>504.049</ele>
        <time>2022-07-06T15:00:51Z</time>
      </trkpt>
      <trkpt lat="42.577419" lon="-6.645012">
        <ele>504.002</ele>
        <time>2022-07-06T15:01:31Z</time>
      </trkpt>
      <trkpt lat="42.577335" lon="-6.646103">
        <ele>505.022</ele>
        <time>2022-07-06T15:02:11Z</time>
      </trkpt>
      <trkpt lat="42.577206" lon="-6.647093">
        <ele>503.006</ele>
        <time>2022-07-06T15:02:51Z</time>
      </trkpt>
      <trkpt lat="42.577198" lon="-6.647565">
        <ele>503.058</ele>
        <time>2022-07-06T15:03:31Z</time>
      </trkpt>
      <trkpt lat="42.576962" lon="-6.650183">
        <ele>504.041</ele>
        <time>2022-07-06T15:04:11Z</time>
      </trkpt>
      <trkpt lat="42.576984" lon="-6.651578">
        <ele>501.025</ele>
        <time>2022-07-06T15:04:51Z</time>
      </trkpt>
      <trkpt lat="42.577023" lon="-6.652286">
        <ele>502.032</ele>
        <time>2022-07-06T15:05:31Z</time>
      </trkpt>
      <trkpt lat="42.577126" lon="-6.653016">
        <ele>498.087</ele>
        <time>2022-07-06T15:06:11Z</time>
      </trkpt>
      <trkpt lat="42.577133" lon="-6.653423">
        <ele>498.021</ele>
        <time>2022-07-06T15:06:51Z</time>
      </trkpt>
      <trkpt lat="42.577133" lon="-6.653793">
        <ele>497.028</ele>
        <time>2022-07-06T15:07:31Z</time>
      </trkpt>
      <trkpt lat="42.576981" lon="-6.654518">
        <ele>497.089</ele>
        <time>2022-07-06T15:08:11Z</time>
      </trkpt>
      <trkpt lat="42.576927" lon="-6.654861">
        <ele>496.017</ele>
        <time>2022-07-06T15:08:51Z</time>
      </trkpt>
      <trkpt lat="42.576923" lon="-6.655231">
        <ele>496.006</ele>
        <time>2022-07-06T15:09:31Z</time>
      </trkpt>
      <trkpt lat="42.577015" lon="-6.655950">
        <ele>495.026</ele>
        <time>2022-07-06T15:10:11Z</time>
      </trkpt>
      <trkpt lat="42.576992" lon="-6.656706">
        <ele>495.069</ele>
        <time>2022-07-06T15:10:51Z</time>
      </trkpt>
      <trkpt lat="42.576946" lon="-6.657082">
        <ele>495.023</ele>
        <time>2022-07-06T15:11:31Z</time>
      </trkpt>
      <trkpt lat="42.576851" lon="-6.657452">
        <ele>497.090</ele>
        <time>2022-07-06T15:12:11Z</time>
      </trkpt>
      <trkpt lat="42.576683" lon="-6.657817">
        <ele>497.055</ele>
        <time>2022-07-06T15:12:51Z</time>
      </trkpt>
      <trkpt lat="42.576542" lon="-6.658074">
        <ele>500.069</ele>
        <time>2022-07-06T15:13:31Z</time>
      </trkpt>
      <trkpt lat="42.576431" lon="-6.658423">
        <ele>500.076</ele>
        <time>2022-07-06T15:14:11Z</time>
      </trkpt>
      <trkpt lat="42.576210" lon="-6.659834">
        <ele>498.090</ele>
        <time>2022-07-06T15:14:51Z</time>
      </trkpt>
      <trkpt lat="42.576141" lon="-6.660533">
        <ele>498.019</ele>
        <time>2022-07-06T15:15:31Z</time>
      </trkpt>
      <trkpt lat="42.576096" lon="-6.660848">
        <ele>498.006</ele>
        <time>2022-07-06T15:16:11Z</time>
      </trkpt>
      <trkpt lat="42.576721" lon="-6.662317">
        <ele>495.081</ele>
        <time>2022-07-06T15:16:51Z</time>
      </trkpt>
      <trkpt lat="42.576859" lon="-6.662672">
        <ele>495.084</ele>
        <time>2022-07-06T15:17:31Z</time>
      </trkpt>
      <trkpt lat="42.577110" lon="-6.663347">
        <ele>493.068</ele>
        <time>2022-07-06T15:18:11Z</time>
      </trkpt>
      <trkpt lat="42.577202" lon="-6.663670">
        <ele>493.085</ele>
        <time>2022-07-06T15:18:51Z</time>
      </trkpt>
      <trkpt lat="42.577568" lon="-6.664646">
        <ele>492.090</ele>
        <time>2022-07-06T15:19:31Z</time>
      </trkpt>
      <trkpt lat="42.577629" lon="-6.664834">
        <ele>492.024</ele>
        <time>2022-07-06T15:20:11Z</time>
      </trkpt>
      <trkpt lat="42.577663" lon="-6.664941">
        <ele>492.049</ele>
        <time>2022-07-06T15:20:51Z</time>
      </trkpt>
      <trkpt lat="42.577766" lon="-6.665246">
        <ele>492.002</ele>
        <time>2022-07-06T15:21:31Z</time>
      </trkpt>
      <trkpt lat="42.577927" lon="-6.665767">
        <ele>491.022</ele>
        <time>2022-07-06T15:22:11Z</time>
      </trkpt>
      <trkpt lat="42.578175" lon="-6.666323">
        <ele>492.006</ele>
        <time>2022-07-06T15:22:51Z</time>
      </trkpt>
      <trkpt lat="42.578388" lon="-6.666625">
        <ele>492.088</ele>
        <time>2022-07-06T15:23:31Z</time>
      </trkpt>
      <trkpt lat="42.578503" lon="-6.666797">
        <ele>492.021</ele>
        <time>2022-07-06T15:24:11Z</time>
      </trkpt>
      <trkpt lat="42.578693" lon="-6.667092">
        <ele>492.035</ele>
        <time>2022-07-06T15:24:51Z</time>
      </trkpt>
      <trkpt lat="42.579052" lon="-6.667575">
        <ele>491.082</ele>
        <time>2022-07-06T15:25:31Z</time>
      </trkpt>
      <trkpt lat="42.579357" lon="-6.668176">
        <ele>492.047</ele>
        <time>2022-07-06T15:26:11Z</time>
      </trkpt>
      <trkpt lat="42.579491" lon="-6.668476">
        <ele>492.021</ele>
        <time>2022-07-06T15:26:51Z</time>
      </trkpt>
      <trkpt lat="42.580013" lon="-6.669677">
        <ele>492.016</ele>
        <time>2022-07-06T15:27:31Z</time>
      </trkpt>
      <trkpt lat="42.580063" lon="-6.669999">
        <ele>492.076</ele>
        <time>2022-07-06T15:28:11Z</time>
      </trkpt>
      <trkpt lat="42.580200" lon="-6.670300">
        <ele>492.013</ele>
        <time>2022-07-06T15:28:51Z</time>
      </trkpt>
      <trkpt lat="42.580276" lon="-6.670482">
        <ele>492.006</ele>
        <time>2022-07-06T15:29:31Z</time>
      </trkpt>
      <trkpt lat="42.580322" lon="-6.670579">
        <ele>492.065</ele>
        <time>2022-07-06T15:30:11Z</time>
      </trkpt>
      <trkpt lat="42.580395" lon="-6.670751">
        <ele>492.088</ele>
        <time>2022-07-06T15:30:51Z</time>
      </trkpt>
      <trkpt lat="42.580658" lon="-6.671276">
        <ele>492.012</ele>
        <time>2022-07-06T15:31:31Z</time>
      </trkpt>
      <trkpt lat="42.580803" lon="-6.671593">
        <ele>492.039</ele>
        <time>2022-07-06T15:32:11Z</time>
      </trkpt>
      <trkpt lat="42.580933" lon="-6.671882">
        <ele>492.034</ele>
        <time>2022-07-06T15:32:51Z</time>
      </trkpt>
      <trkpt lat="42.581261" lon="-6.672445">
        <ele>492.018</ele>
        <time>2022-07-06T15:33:31Z</time>
      </trkpt>
      <trkpt lat="42.581467" lon="-6.672644">
        <ele>492.093</ele>
        <time>2022-07-06T15:34:11Z</time>
      </trkpt>
      <trkpt lat="42.582291" lon="-6.673567">
        <ele>494.065</ele>
        <time>2022-07-06T15:34:51Z</time>
      </trkpt>
      <trkpt lat="42.582649" lon="-6.673932">
        <ele>493.021</ele>
        <time>2022-07-06T15:35:31Z</time>
      </trkpt>
      <trkpt lat="42.583042" lon="-6.674339">
        <ele>494.006</ele>
        <time>2022-07-06T15:36:11Z</time>
      </trkpt>
      <trkpt lat="42.583374" lon="-6.674693">
        <ele>495.093</ele>
        <time>2022-07-06T15:36:51Z</time>
      </trkpt>
      <trkpt lat="42.583664" lon="-6.674955">
        <ele>495.026</ele>
        <time>2022-07-06T15:37:31Z</time>
      </trkpt>
      <trkpt lat="42.585938" lon="-6.677220">
        <ele>513.070</ele>
        <time>2022-07-06T15:38:11Z</time>
      </trkpt>
      <trkpt lat="42.587276" lon="-6.678953">
        <ele>517.027</ele>
        <time>2022-07-06T15:38:51Z</time>
      </trkpt>
      <trkpt lat="42.587337" lon="-6.679232">
        <ele>517.062</ele>
        <time>2022-07-06T15:39:31Z</time>
      </trkpt>
      <trkpt lat="42.587307" lon="-6.679462">
        <ele>517.086</ele>
        <time>2022-07-06T15:40:11Z</time>
      </trkpt>
      <trkpt lat="42.587051" lon="-6.680009">
        <ele>517.095</ele>
        <time>2022-07-06T15:40:51Z</time>
      </trkpt>
      <trkpt lat="42.586975" lon="-6.680315">
        <ele>517.049</ele>
        <time>2022-07-06T15:41:31Z</time>
      </trkpt>
      <trkpt lat="42.586971" lon="-6.680660">
        <ele>518.023</ele>
        <time>2022-07-06T15:42:11Z</time>
      </trkpt>
      <trkpt lat="42.587055" lon="-6.680968">
        <ele>518.006</ele>
        <time>2022-07-06T15:42:51Z</time>
      </trkpt>
      <trkpt lat="42.587303" lon="-6.681575">
        <ele>523.063</ele>
        <time>2022-07-06T15:43:31Z</time>
      </trkpt>
      <trkpt lat="42.587860" lon="-6.682468">
        <ele>517.066</ele>
        <time>2022-07-06T15:44:11Z</time>
      </trkpt>
      <trkpt lat="42.588139" lon="-6.683052">
        <ele>520.020</ele>
        <time>2022-07-06T15:44:51Z</time>
      </trkpt>
      <trkpt lat="42.588264" lon="-6.683346">
        <ele>520.047</ele>
        <time>2022-07-06T15:45:31Z</time>
      </trkpt>
      <trkpt lat="42.588329" lon="-6.683684">
        <ele>520.062</ele>
        <time>2022-07-06T15:46:11Z</time>
      </trkpt>
      <trkpt lat="42.588314" lon="-6.684682">
        <ele>517.076</ele>
        <time>2022-07-06T15:46:51Z</time>
      </trkpt>
      <trkpt lat="42.588543" lon="-6.686060">
        <ele>513.073</ele>
        <time>2022-07-06T15:47:31Z</time>
      </trkpt>
      <trkpt lat="42.588726" lon="-6.686715">
        <ele>511.085</ele>
        <time>2022-07-06T15:48:11Z</time>
      </trkpt>
      <trkpt lat="42.588829" lon="-6.687030">
        <ele>507.013</ele>
        <time>2022-07-06T15:48:51Z</time>
      </trkpt>
      <trkpt lat="42.589096" lon="-6.688015">
        <ele>501.006</ele>
        <time>2022-07-06T15:49:31Z</time>
      </trkpt>
      <trkpt lat="42.589420" lon="-6.688952">
        <ele>501.061</ele>
        <time>2022-07-06T15:50:11Z</time>
      </trkpt>
      <trkpt lat="42.589436" lon="-6.689307">
        <ele>501.074</ele>
        <time>2022-07-06T15:50:51Z</time>
      </trkpt>
      <trkpt lat="42.589390" lon="-6.689668">
        <ele>500.078</ele>
        <time>2022-07-06T15:51:31Z</time>
      </trkpt>
      <trkpt lat="42.589378" lon="-6.690020">
        <ele>500.075</ele>
        <time>2022-07-06T15:52:11Z</time>
      </trkpt>
      <trkpt lat="42.589447" lon="-6.690347">
        <ele>500.070</ele>
        <time>2022-07-06T15:52:51Z</time>
      </trkpt>
      <trkpt lat="42.589535" lon="-6.690711">
        <ele>494.094</ele>
        <time>2022-07-06T15:53:31Z</time>
      </trkpt>
      <trkpt lat="42.589699" lon="-6.691366">
        <ele>497.047</ele>
        <time>2022-07-06T15:54:11Z</time>
      </trkpt>
      <trkpt lat="42.589802" lon="-6.691645">
        <ele>497.029</ele>
        <time>2022-07-06T15:54:51Z</time>
      </trkpt>
      <trkpt lat="42.589977" lon="-6.691725">
        <ele>497.021</ele>
        <time>2022-07-06T15:55:31Z</time>
      </trkpt>
      <trkpt lat="42.590275" lon="-6.692278">
        <ele>496.006</ele>
        <time>2022-07-06T15:56:11Z</time>
      </trkpt>
      <trkpt lat="42.590591" lon="-6.692621">
        <ele>495.048</ele>
        <time>2022-07-06T15:56:51Z</time>
      </trkpt>
      <trkpt lat="42.590668" lon="-6.692916">
        <ele>495.031</ele>
        <time>2022-07-06T15:57:31Z</time>
      </trkpt>
      <trkpt lat="42.590763" lon="-6.693270">
        <ele>494.085</ele>
        <time>2022-07-06T15:58:11Z</time>
      </trkpt>
      <trkpt lat="42.591110" lon="-6.694279">
        <ele>494.012</ele>
        <time>2022-07-06T15:58:51Z</time>
      </trkpt>
      <trkpt lat="42.591591" lon="-6.695856">
        <ele>495.057</ele>
        <time>2022-07-06T15:59:31Z</time>
      </trkpt>
      <trkpt lat="42.592228" lon="-6.697750">
        <ele>493.081</ele>
        <time>2022-07-06T16:00:11Z</time>
      </trkpt>
      <trkpt lat="42.592937" lon="-6.700013">
        <ele>498.063</ele>
        <time>2022-07-06T16:00:51Z</time>
      </trkpt>
      <trkpt lat="42.593201" lon="-6.701129">
        <ele>500.044</ele>
        <time>2022-07-06T16:01:31Z</time>
      </trkpt>
      <trkpt lat="42.593296" lon="-6.701740">
        <ele>502.018</ele>
        <time>2022-07-06T16:02:11Z</time>
      </trkpt>
      <trkpt lat="42.593441" lon="-6.702308">
        <ele>503.006</ele>
        <time>2022-07-06T16:02:51Z</time>
      </trkpt>
      <trkpt lat="42.593613" lon="-6.703291">
        <ele>507.030</ele>
        <time>2022-07-06T16:03:31Z</time>
      </trkpt>
      <trkpt lat="42.593636" lon="-6.703361">
        <ele>507.083</ele>
        <time>2022-07-06T16:04:11Z</time>
      </trkpt>
      <trkpt lat="42.593681" lon="-6.703478">
        <ele>507.017</ele>
        <time>2022-07-06T16:04:51Z</time>
      </trkpt>
      <trkpt lat="42.593887" lon="-6.704097">
        <ele>511.024</ele>
        <time>2022-07-06T16:05:31Z</time>
      </trkpt>
      <trkpt lat="42.594215" lon="-6.704943">
        <ele>512.079</ele>
        <time>2022-07-06T16:06:11Z</time>
      </trkpt>
      <trkpt lat="42.594894" lon="-6.706753">
        <ele>514.063</ele>
        <time>2022-07-06T16:06:51Z</time>
      </trkpt>
      <trkpt lat="42.595730" lon="-6.708800">
        <ele>505.084</ele>
        <time>2022-07-06T16:07:31Z</time>
      </trkpt>
      <trkpt lat="42.596573" lon="-6.710978">
        <ele>504.007</ele>
        <time>2022-07-06T16:08:11Z</time>
      </trkpt>
      <trkpt lat="42.596718" lon="-6.711283">
        <ele>504.017</ele>
        <time>2022-07-06T16:08:51Z</time>
      </trkpt>
      <trkpt lat="42.597080" lon="-6.712201">
        <ele>505.006</ele>
        <time>2022-07-06T16:09:31Z</time>
      </trkpt>
      <trkpt lat="42.597412" lon="-6.713119">
        <ele>503.072</ele>
        <time>2022-07-06T16:10:11Z</time>
      </trkpt>
      <trkpt lat="42.597553" lon="-6.713405">
        <ele>503.015</ele>
        <time>2022-07-06T16:10:51Z</time>
      </trkpt>
      <trkpt lat="42.597748" lon="-6.713628">
        <ele>503.049</ele>
        <time>2022-07-06T16:11:31Z</time>
      </trkpt>
      <trkpt lat="42.597820" lon="-6.713698">
        <ele>503.056</ele>
        <time>2022-07-06T16:12:11Z</time>
      </trkpt>
      <trkpt lat="42.597939" lon="-6.713850">
        <ele>505.041</ele>
        <time>2022-07-06T16:12:51Z</time>
      </trkpt>
      <trkpt lat="42.598648" lon="-6.714578">
        <ele>505.095</ele>
        <time>2022-07-06T16:13:31Z</time>
      </trkpt>
      <trkpt lat="42.598843" lon="-6.715128">
        <ele>500.043</ele>
        <time>2022-07-06T16:14:11Z</time>
      </trkpt>
      <trkpt lat="42.599392" lon="-6.715876">
        <ele>488.064</ele>
        <time>2022-07-06T16:14:51Z</time>
      </trkpt>
      <trkpt lat="42.599510" lon="-6.716240">
        <ele>488.010</ele>
        <time>2022-07-06T16:15:31Z</time>
      </trkpt>
      <trkpt lat="42.599594" lon="-6.716588">
        <ele>484.006</ele>
        <time>2022-07-06T16:16:11Z</time>
      </trkpt>
      <trkpt lat="42.599667" lon="-6.717630">
        <ele>485.028</ele>
        <time>2022-07-06T16:16:51Z</time>
      </trkpt>
      <trkpt lat="42.599724" lon="-6.719652">
        <ele>483.031</ele>
        <time>2022-07-06T16:17:31Z</time>
      </trkpt>
      <trkpt lat="42.599762" lon="-6.721343">
        <ele>484.035</ele>
        <time>2022-07-06T16:18:11Z</time>
      </trkpt>
      <trkpt lat="42.599819" lon="-6.722007">
        <ele>484.072</ele>
        <time>2022-07-06T16:18:51Z</time>
      </trkpt>
      <trkpt lat="42.599789" lon="-6.722337">
        <ele>485.027</ele>
        <time>2022-07-06T16:19:31Z</time>
      </trkpt>
      <trkpt lat="42.599804" lon="-6.722998">
        <ele>486.061</ele>
        <time>2022-07-06T16:20:11Z</time>
      </trkpt>
      <trkpt lat="42.599907" lon="-6.723660">
        <ele>486.025</ele>
        <time>2022-07-06T16:20:51Z</time>
      </trkpt>
      <trkpt lat="42.599895" lon="-6.725102">
        <ele>483.026</ele>
        <time>2022-07-06T16:21:31Z</time>
      </trkpt>
      <trkpt lat="42.599785" lon="-6.725516">
        <ele>483.008</ele>
        <time>2022-07-06T16:22:11Z</time>
      </trkpt>
      <trkpt lat="42.599628" lon="-6.725864">
        <ele>483.006</ele>
        <time>2022-07-06T16:22:51Z</time>
      </trkpt>
      <trkpt lat="42.599644" lon="-6.726406">
        <ele>482.076</ele>
        <time>2022-07-06T16:23:31Z</time>
      </trkpt>
      <trkpt lat="42.599754" lon="-6.726744">
        <ele>482.099</ele>
        <time>2022-07-06T16:24:11Z</time>
      </trkpt>
      <trkpt lat="42.599957" lon="-6.727270">
        <ele>480.053</ele>
        <time>2022-07-06T16:24:51Z</time>
      </trkpt>
      <trkpt lat="42.600040" lon="-6.727978">
        <ele>476.090</ele>
        <time>2022-07-06T16:25:31Z</time>
      </trkpt>
      <trkpt lat="42.600040" lon="-6.728520">
        <ele>476.025</ele>
        <time>2022-07-06T16:26:11Z</time>
      </trkpt>
      <trkpt lat="42.600075" lon="-6.729421">
        <ele>477.089</ele>
        <time>2022-07-06T16:26:51Z</time>
      </trkpt>
      <trkpt lat="42.600090" lon="-6.729716">
        <ele>475.036</ele>
        <time>2022-07-06T16:27:31Z</time>
      </trkpt>
      <trkpt lat="42.600101" lon="-6.730000">
        <ele>475.017</ele>
        <time>2022-07-06T16:28:11Z</time>
      </trkpt>
      <trkpt lat="42.600201" lon="-6.731620">
        <ele>476.018</ele>
        <time>2022-07-06T16:28:51Z</time>
      </trkpt>
      <trkpt lat="42.600456" lon="-6.732527">
        <ele>473.006</ele>
        <time>2022-07-06T16:29:31Z</time>
      </trkpt>
      <trkpt lat="42.600510" lon="-6.732807">
        <ele>473.037</ele>
        <time>2022-07-06T16:30:11Z</time>
      </trkpt>
      <trkpt lat="42.600761" lon="-6.733772">
        <ele>476.060</ele>
        <time>2022-07-06T16:30:51Z</time>
      </trkpt>
      <trkpt lat="42.600822" lon="-6.734083">
        <ele>476.094</ele>
        <time>2022-07-06T16:31:31Z</time>
      </trkpt>
      <trkpt lat="42.600925" lon="-6.734496">
        <ele>476.031</ele>
        <time>2022-07-06T16:32:11Z</time>
      </trkpt>
      <trkpt lat="42.601418" lon="-6.736255">
        <ele>479.026</ele>
        <time>2022-07-06T16:32:51Z</time>
      </trkpt>
      <trkpt lat="42.601517" lon="-6.736550">
        <ele>479.070</ele>
        <time>2022-07-06T16:33:31Z</time>
      </trkpt>
      <trkpt lat="42.601704" lon="-6.737167">
        <ele>478.015</ele>
        <time>2022-07-06T16:34:11Z</time>
      </trkpt>
      <trkpt lat="42.601929" lon="-6.737709">
        <ele>478.065</ele>
        <time>2022-07-06T16:34:51Z</time>
      </trkpt>
      <trkpt lat="42.602219" lon="-6.738267">
        <ele>481.011</ele>
        <time>2022-07-06T16:35:31Z</time>
      </trkpt>
      <trkpt lat="42.602787" lon="-6.739345">
        <ele>481.006</ele>
        <time>2022-07-06T16:36:11Z</time>
      </trkpt>
      <trkpt lat="42.603935" lon="-6.741593">
        <ele>492.085</ele>
        <time>2022-07-06T16:36:51Z</time>
      </trkpt>
      <trkpt lat="42.603992" lon="-6.741931">
        <ele>492.058</ele>
        <time>2022-07-06T16:37:31Z</time>
      </trkpt>
      <trkpt lat="42.604378" lon="-6.742687">
        <ele>501.082</ele>
        <time>2022-07-06T16:38:11Z</time>
      </trkpt>
      <trkpt lat="42.604565" lon="-6.743213">
        <ele>511.099</ele>
        <time>2022-07-06T16:38:51Z</time>
      </trkpt>
      <trkpt lat="42.604717" lon="-6.744034">
        <ele>507.074</ele>
        <time>2022-07-06T16:39:31Z</time>
      </trkpt>
      <trkpt lat="42.605167" lon="-6.746675">
        <ele>524.048</ele>
        <time>2022-07-06T16:40:11Z</time>
      </trkpt>
      <trkpt lat="42.605652" lon="-6.749907">
        <ele>539.093</ele>
        <time>2022-07-06T16:40:51Z</time>
      </trkpt>
      <trkpt lat="42.605850" lon="-6.751099">
        <ele>542.065</ele>
        <time>2022-07-06T16:41:31Z</time>
      </trkpt>
      <trkpt lat="42.605923" lon="-6.751871">
        <ele>544.021</ele>
        <time>2022-07-06T16:42:11Z</time>
      </trkpt>
      <trkpt lat="42.606136" lon="-6.754527">
        <ele>563.006</ele>
        <time>2022-07-06T16:42:51Z</time>
      </trkpt>
      <trkpt lat="42.606140" lon="-6.755014">
        <ele>569.093</ele>
        <time>2022-07-06T16:43:31Z</time>
      </trkpt>
      <trkpt lat="42.606113" lon="-6.755546">
        <ele>571.036</ele>
        <time>2022-07-06T16:44:11Z</time>
      </trkpt>
      <trkpt lat="42.605938" lon="-6.756302">
        <ele>567.080</ele>
        <time>2022-07-06T16:44:51Z</time>
      </trkpt>
      <trkpt lat="42.605865" lon="-6.756652">
        <ele>567.037</ele>
        <time>2022-07-06T16:45:31Z</time>
      </trkpt>
      <trkpt lat="42.605640" lon="-6.757686">
        <ele>566.032</ele>
        <time>2022-07-06T16:46:11Z</time>
      </trkpt>
      <trkpt lat="42.605412" lon="-6.758685">
        <ele>555.036</ele>
        <time>2022-07-06T16:46:51Z</time>
      </trkpt>
      <trkpt lat="42.605328" lon="-6.759048">
        <ele>549.015</ele>
        <time>2022-07-06T16:47:31Z</time>
      </trkpt>
      <trkpt lat="42.605080" lon="-6.760143">
        <ele>546.065</ele>
        <time>2022-07-06T16:48:11Z</time>
      </trkpt>
      <trkpt lat="42.604450" lon="-6.762075">
        <ele>535.011</ele>
        <time>2022-07-06T16:48:51Z</time>
      </trkpt>
      <trkpt lat="42.604366" lon="-6.762408">
        <ele>532.006</ele>
        <time>2022-07-06T16:49:31Z</time>
      </trkpt>
      <trkpt lat="42.604321" lon="-6.762766">
        <ele>532.065</ele>
        <time>2022-07-06T16:50:11Z</time>
      </trkpt>
      <trkpt lat="42.604340" lon="-6.763871">
        <ele>521.078</ele>
        <time>2022-07-06T16:50:51Z</time>
      </trkpt>
      <trkpt lat="42.604347" lon="-6.764553">
        <ele>521.072</ele>
        <time>2022-07-06T16:51:31Z</time>
      </trkpt>
      <trkpt lat="42.604282" lon="-6.765218">
        <ele>519.039</ele>
        <time>2022-07-06T16:52:11Z</time>
      </trkpt>
      <trkpt lat="42.604126" lon="-6.765845">
        <ele>520.024</ele>
        <time>2022-07-06T16:52:51Z</time>
      </trkpt>
      <trkpt lat="42.603848" lon="-6.766457">
        <ele>520.088</ele>
        <time>2022-07-06T16:53:31Z</time>
      </trkpt>
      <trkpt lat="42.603512" lon="-6.767004">
        <ele>520.013</ele>
        <time>2022-07-06T16:54:11Z</time>
      </trkpt>
      <trkpt lat="42.603191" lon="-6.767557">
        <ele>519.043</ele>
        <time>2022-07-06T16:54:51Z</time>
      </trkpt>
      <trkpt lat="42.603073" lon="-6.767782">
        <ele>519.007</ele>
        <time>2022-07-06T16:55:31Z</time>
      </trkpt>
      <trkpt lat="42.602924" lon="-6.768034">
        <ele>518.006</ele>
        <time>2022-07-06T16:56:11Z</time>
      </trkpt>
      <trkpt lat="42.602737" lon="-6.768383">
        <ele>517.025</ele>
        <time>2022-07-06T16:56:51Z</time>
      </trkpt>
      <trkpt lat="42.601601" lon="-6.769777">
        <ele>532.058</ele>
        <time>2022-07-06T16:57:31Z</time>
      </trkpt>
      <trkpt lat="42.601440" lon="-6.770014">
        <ele>532.062</ele>
        <time>2022-07-06T16:58:11Z</time>
      </trkpt>
      <trkpt lat="42.601341" lon="-6.770282">
        <ele>532.099</ele>
        <time>2022-07-06T16:58:51Z</time>
      </trkpt>
      <trkpt lat="42.601299" lon="-6.770636">
        <ele>536.084</ele>
        <time>2022-07-06T16:59:31Z</time>
      </trkpt>
      <trkpt lat="42.601353" lon="-6.771500">
        <ele>537.058</ele>
        <time>2022-07-06T17:00:11Z</time>
      </trkpt>
      <trkpt lat="42.601486" lon="-6.772964">
        <ele>528.037</ele>
        <time>2022-07-06T17:00:51Z</time>
      </trkpt>
      <trkpt lat="42.601673" lon="-6.774225">
        <ele>521.049</ele>
        <time>2022-07-06T17:01:31Z</time>
      </trkpt>
      <trkpt lat="42.601711" lon="-6.774686">
        <ele>518.013</ele>
        <time>2022-07-06T17:02:11Z</time>
      </trkpt>
      <trkpt lat="42.601639" lon="-6.775174">
        <ele>518.006</ele>
        <time>2022-07-06T17:02:51Z</time>
      </trkpt>
      <trkpt lat="42.601517" lon="-6.775582">
        <ele>518.067</ele>
        <time>2022-07-06T17:03:31Z</time>
      </trkpt>
      <trkpt lat="42.601231" lon="-6.776258">
        <ele>518.040</ele>
        <time>2022-07-06T17:04:11Z</time>
      </trkpt>
      <trkpt lat="42.601246" lon="-6.776451">
        <ele>518.074</ele>
        <time>2022-07-06T17:04:51Z</time>
      </trkpt>
      <trkpt lat="42.601482" lon="-6.776853">
        <ele>520.041</ele>
        <time>2022-07-06T17:05:31Z</time>
      </trkpt>
      <trkpt lat="42.601566" lon="-6.777127">
        <ele>523.096</ele>
        <time>2022-07-06T17:06:11Z</time>
      </trkpt>
      <trkpt lat="42.601540" lon="-6.777840">
        <ele>523.020</ele>
        <time>2022-07-06T17:06:51Z</time>
      </trkpt>
      <trkpt lat="42.601585" lon="-6.778516">
        <ele>525.033</ele>
        <time>2022-07-06T17:07:31Z</time>
      </trkpt>
      <trkpt lat="42.601597" lon="-6.779031">
        <ele>529.023</ele>
        <time>2022-07-06T17:08:11Z</time>
      </trkpt>
      <trkpt lat="42.601585" lon="-6.779734">
        <ele>536.015</ele>
        <time>2022-07-06T17:08:51Z</time>
      </trkpt>
      <trkpt lat="42.601582" lon="-6.779997">
        <ele>536.006</ele>
        <time>2022-07-06T17:09:31Z</time>
      </trkpt>
      <trkpt lat="42.601574" lon="-6.780319">
        <ele>536.077</ele>
        <time>2022-07-06T17:10:11Z</time>
      </trkpt>
      <trkpt lat="42.601589" lon="-6.780860">
        <ele>543.080</ele>
        <time>2022-07-06T17:10:51Z</time>
      </trkpt>
      <trkpt lat="42.601597" lon="-6.781102">
        <ele>543.094</ele>
        <time>2022-07-06T17:11:31Z</time>
      </trkpt>
      <trkpt lat="42.601620" lon="-6.781370">
        <ele>550.051</ele>
        <time>2022-07-06T17:12:11Z</time>
      </trkpt>
      <trkpt lat="42.601643" lon="-6.781676">
        <ele>550.056</ele>
        <time>2022-07-06T17:12:51Z</time>
      </trkpt>
      <trkpt lat="42.601910" lon="-6.782582">
        <ele>551.060</ele>
        <time>2022-07-06T17:13:31Z</time>
      </trkpt>
      <trkpt lat="42.602123" lon="-6.783283">
        <ele>559.061</ele>
        <time>2022-07-06T17:14:11Z</time>
      </trkpt>
      <trkpt lat="42.602169" lon="-6.783575">
        <ele>559.021</ele>
        <time>2022-07-06T17:14:51Z</time>
      </trkpt>
      <trkpt lat="42.602077" lon="-6.784267">
        <ele>542.013</ele>
        <time>2022-07-06T17:15:31Z</time>
      </trkpt>
      <trkpt lat="42.602112" lon="-6.784664">
        <ele>550.006</ele>
        <time>2022-07-06T17:16:11Z</time>
      </trkpt>
      <trkpt lat="42.602207" lon="-6.784986">
        <ele>550.050</ele>
        <time>2022-07-06T17:16:51Z</time>
      </trkpt>
      <trkpt lat="42.602249" lon="-6.785222">
        <ele>550.093</ele>
        <time>2022-07-06T17:17:31Z</time>
      </trkpt>
      <trkpt lat="42.602318" lon="-6.785705">
        <ele>546.047</ele>
        <time>2022-07-06T17:18:11Z</time>
      </trkpt>
      <trkpt lat="42.602470" lon="-6.786085">
        <ele>546.014</ele>
        <time>2022-07-06T17:18:51Z</time>
      </trkpt>
      <trkpt lat="42.602562" lon="-6.786305">
        <ele>547.039</ele>
        <time>2022-07-06T17:19:31Z</time>
      </trkpt>
      <trkpt lat="42.602547" lon="-6.786567">
        <ele>547.073</ele>
        <time>2022-07-06T17:20:11Z</time>
      </trkpt>
      <trkpt lat="42.602448" lon="-6.786933">
        <ele>547.072</ele>
        <time>2022-07-06T17:20:51Z</time>
      </trkpt>
      <trkpt lat="42.602436" lon="-6.787512">
        <ele>550.013</ele>
        <time>2022-07-06T17:21:31Z</time>
      </trkpt>
      <trkpt lat="42.602467" lon="-6.787700">
        <ele>550.014</ele>
        <time>2022-07-06T17:22:11Z</time>
      </trkpt>
      <trkpt lat="42.602997" lon="-6.788499">
        <ele>558.006</ele>
        <time>2022-07-06T17:22:51Z</time>
      </trkpt>
      <trkpt lat="42.603199" lon="-6.788623">
        <ele>558.041</ele>
        <time>2022-07-06T17:23:31Z</time>
      </trkpt>
      <trkpt lat="42.603642" lon="-6.789186">
        <ele>557.074</ele>
        <time>2022-07-06T17:24:11Z</time>
      </trkpt>
      <trkpt lat="42.604031" lon="-6.789851">
        <ele>564.088</ele>
        <time>2022-07-06T17:24:51Z</time>
      </trkpt>
      <trkpt lat="42.604095" lon="-6.790307">
        <ele>564.055</ele>
        <time>2022-07-06T17:25:31Z</time>
      </trkpt>
      <trkpt lat="42.604362" lon="-6.791005">
        <ele>567.080</ele>
        <time>2022-07-06T17:26:11Z</time>
      </trkpt>
      <trkpt lat="42.604664" lon="-6.791509">
        <ele>577.094</ele>
        <time>2022-07-06T17:26:51Z</time>
      </trkpt>
      <trkpt lat="42.604778" lon="-6.791734">
        <ele>577.094</ele>
        <time>2022-07-06T17:27:31Z</time>
      </trkpt>
      <trkpt lat="42.604736" lon="-6.792212">
        <ele>579.057</ele>
        <time>2022-07-06T17:28:11Z</time>
      </trkpt>
      <trkpt lat="42.604755" lon="-6.792759">
        <ele>579.022</ele>
        <time>2022-07-06T17:28:51Z</time>
      </trkpt>
      <trkpt lat="42.604797" lon="-6.793097">
        <ele>581.006</ele>
        <time>2022-07-06T17:29:31Z</time>
      </trkpt>
      <trkpt lat="42.604809" lon="-6.793435">
        <ele>581.063</ele>
        <time>2022-07-06T17:30:11Z</time>
      </trkpt>
      <trkpt lat="42.604801" lon="-6.793751">
        <ele>582.026</ele>
        <time>2022-07-06T17:30:51Z</time>
      </trkpt>
      <trkpt lat="42.604816" lon="-6.794368">
        <ele>582.010</ele>
        <time>2022-07-06T17:31:31Z</time>
      </trkpt>
      <trkpt lat="42.604824" lon="-6.795039">
        <ele>583.097</ele>
        <time>2022-07-06T17:32:11Z</time>
      </trkpt>
      <trkpt lat="42.604713" lon="-6.796546">
        <ele>570.062</ele>
        <time>2022-07-06T17:32:51Z</time>
      </trkpt>
      <trkpt lat="42.604500" lon="-6.796997">
        <ele>570.056</ele>
        <time>2022-07-06T17:33:31Z</time>
      </trkpt>
      <trkpt lat="42.604214" lon="-6.797629">
        <ele>567.086</ele>
        <time>2022-07-06T17:34:11Z</time>
      </trkpt>
      <trkpt lat="42.603977" lon="-6.798032">
        <ele>566.060</ele>
        <time>2022-07-06T17:34:51Z</time>
      </trkpt>
      <trkpt lat="42.603912" lon="-6.798477">
        <ele>566.026</ele>
        <time>2022-07-06T17:35:31Z</time>
      </trkpt>
      <trkpt lat="42.604069" lon="-6.800070">
        <ele>565.006</ele>
        <time>2022-07-06T17:36:11Z</time>
      </trkpt>
      <trkpt lat="42.604107" lon="-6.800435">
        <ele>563.072</ele>
        <time>2022-07-06T17:36:51Z</time>
      </trkpt>
      <trkpt lat="42.604153" lon="-6.800741">
        <ele>563.075</ele>
        <time>2022-07-06T17:37:31Z</time>
      </trkpt>
      <trkpt lat="42.604240" lon="-6.801133">
        <ele>563.079</ele>
        <time>2022-07-06T17:38:11Z</time>
      </trkpt>
      <trkpt lat="42.604481" lon="-6.802495">
        <ele>565.066</ele>
        <time>2022-07-06T17:38:51Z</time>
      </trkpt>
      <trkpt lat="42.604496" lon="-6.803171">
        <ele>562.021</ele>
        <time>2022-07-06T17:39:31Z</time>
      </trkpt>
      <trkpt lat="42.604496" lon="-6.803541">
        <ele>562.055</ele>
        <time>2022-07-06T17:40:11Z</time>
      </trkpt>
      <trkpt lat="42.604546" lon="-6.805043">
        <ele>559.094</ele>
        <time>2022-07-06T17:40:51Z</time>
      </trkpt>
      <trkpt lat="42.604572" lon="-6.805462">
        <ele>556.057</ele>
        <time>2022-07-06T17:41:31Z</time>
      </trkpt>
      <trkpt lat="42.604641" lon="-6.805687">
        <ele>537.022</ele>
        <time>2022-07-06T17:42:11Z</time>
      </trkpt>
      <trkpt lat="42.604713" lon="-6.806155">
        <ele>537.006</ele>
        <time>2022-07-06T17:42:51Z</time>
      </trkpt>
      <trkpt lat="42.604649" lon="-6.806556">
        <ele>530.093</ele>
        <time>2022-07-06T17:43:31Z</time>
      </trkpt>
      <trkpt lat="42.604603" lon="-6.806540">
        <ele>530.046</ele>
        <time>2022-07-06T17:44:11Z</time>
      </trkpt>
      <trkpt lat="42.603891" lon="-6.808262">
        <ele>522.052</ele>
        <time>2013-02-08T19:45:40Z</time>
      </trkpt>
      <trkpt lat="42.604033" lon="-6.808299">
        <ele>519.053</ele>
        <time>2013-02-08T19:46:00Z</time>
      </trkpt>
      <trkpt lat="42.604127" lon="-6.808353">
        <ele>519.008</ele>
        <time>2013-02-08T19:46:20Z</time>
      </trkpt>
      <trkpt lat="42.604151" lon="-6.808557">
        <ele>519.007</ele>
        <time>2013-02-08T19:46:40Z</time>
      </trkpt>
      <trkpt lat="42.604183" lon="-6.808761">
        <ele>518.048</ele>
        <time>2013-02-08T19:47:00Z</time>
      </trkpt>
      <trkpt lat="42.604202" lon="-6.808857">
        <ele>518.024</ele>
        <time>2013-02-08T19:47:20Z</time>
      </trkpt>
      <trkpt lat="42.604214" lon="-6.808997">
        <ele>518.020</ele>
        <time>2013-02-08T19:47:40Z</time>
      </trkpt>
      <trkpt lat="42.604230" lon="-6.809072">
        <ele>518.033</ele>
        <time>2013-02-08T19:48:00Z</time>
      </trkpt>
      <trkpt lat="42.604238" lon="-6.809158">
        <ele>518.025</ele>
        <time>2013-02-08T19:48:20Z</time>
      </trkpt>
      <trkpt lat="42.604254" lon="-6.809244">
        <ele>518.057</ele>
        <time>2013-02-08T19:48:40Z</time>
      </trkpt>
      <trkpt lat="42.604278" lon="-6.809356">
        <ele>518.078</ele>
        <time>2013-02-08T19:49:00Z</time>
      </trkpt>
      <trkpt lat="42.604313" lon="-6.809512">
        <ele>515.014</ele>
        <time>2013-02-08T19:49:20Z</time>
      </trkpt>
      <trkpt lat="42.604372" lon="-6.809619">
        <ele>515.054</ele>
        <time>2013-02-08T19:49:40Z</time>
      </trkpt>
      <trkpt lat="42.604424" lon="-6.809716">
        <ele>515.009</ele>
        <time>2013-02-08T19:50:00Z</time>
      </trkpt>
      <trkpt lat="42.604459" lon="-6.809801">
        <ele>515.007</ele>
        <time>2013-02-08T19:50:20Z</time>
      </trkpt>
      <trkpt lat="42.604514" lon="-6.809930">
        <ele>515.014</ele>
        <time>2013-02-08T19:50:40Z</time>
      </trkpt>
      <trkpt lat="42.604558" lon="-6.810021">
        <ele>515.040</ele>
        <time>2013-02-08T19:51:00Z</time>
      </trkpt>
      <trkpt lat="42.604795" lon="-6.810118">
        <ele>513.026</ele>
        <time>2013-02-08T19:51:20Z</time>
      </trkpt>
      <trkpt lat="42.605213" lon="-6.810343">
        <ele>508.089</ele>
        <time>2013-02-08T19:51:40Z</time>
      </trkpt>
      <trkpt lat="42.605332" lon="-6.810397">
        <ele>508.021</ele>
        <time>2013-02-08T19:52:00Z</time>
      </trkpt>
      <trkpt lat="42.605474" lon="-6.810483">
        <ele>504.043</ele>
        <time>2013-02-08T19:52:20Z</time>
      </trkpt>
      <trkpt lat="42.605498" lon="-6.810665">
        <ele>504.094</ele>
        <time>2013-02-08T19:52:40Z</time>
      </trkpt>
      <trkpt lat="42.605490" lon="-6.810762">
        <ele>503.032</ele>
        <time>2013-02-08T19:53:00Z</time>
      </trkpt>
      <trkpt lat="42.605750" lon="-6.810858">
        <ele>500.092</ele>
        <time>2013-02-08T19:53:20Z</time>
      </trkpt>
      <trkpt lat="42.606082" lon="-6.810933">
        <ele>497.011</ele>
        <time>2013-02-08T19:53:40Z</time>
      </trkpt>
      <trkpt lat="42.606382" lon="-6.810912">
        <ele>496.007</ele>
        <time>2013-02-08T19:54:00Z</time>
      </trkpt>
      <trkpt lat="42.606706" lon="-6.810837">
        <ele>495.016</ele>
        <time>2013-02-08T19:54:20Z</time>
      </trkpt>
      <trkpt lat="42.607046" lon="-6.810815">
        <ele>495.042</ele>
        <time>2013-02-08T19:54:40Z</time>
      </trkpt>
      <trkpt lat="42.607393" lon="-6.810880">
        <ele>496.098</ele>
        <time>2013-02-08T19:55:00Z</time>
      </trkpt>
      <trkpt lat="42.607780" lon="-6.810890">
        <ele>496.071</ele>
        <time>2013-02-08T19:55:20Z</time>
      </trkpt>
      <trkpt lat="42.608072" lon="-6.810933">
        <ele>497.033</ele>
        <time>2013-02-08T19:55:40Z</time>
      </trkpt>
      <trkpt lat="42.608412" lon="-6.810933">
        <ele>497.085</ele>
        <time>2013-02-08T19:56:00Z</time>
      </trkpt>
      <trkpt lat="42.608759" lon="-6.810719">
        <ele>498.066</ele>
        <time>2013-02-08T19:56:20Z</time>
      </trkpt>
      <trkpt lat="42.608893" lon="-6.810976">
        <ele>499.071</ele>
        <time>2013-02-08T19:56:40Z</time>
      </trkpt>
      <trkpt lat="42.609035" lon="-6.811405">
        <ele>502.041</ele>
        <time>2013-02-08T19:57:00Z</time>
      </trkpt>
      <trkpt lat="42.609106" lon="-6.811523">
        <ele>502.015</ele>
        <time>2013-02-08T19:57:20Z</time>
      </trkpt>
      <trkpt lat="42.609225" lon="-6.811792">
        <ele>503.007</ele>
        <time>2013-02-08T19:57:40Z</time>
      </trkpt>
      <trkpt lat="42.609343" lon="-6.811963">
        <ele>506.050</ele>
        <time>2013-02-08T19:58:00Z</time>
      </trkpt>
      <trkpt lat="42.609407" lon="-6.812178">
        <ele>506.016</ele>
        <time>2013-02-08T19:58:20Z</time>
      </trkpt>
      <trkpt lat="42.609446" lon="-6.812457">
        <ele>504.032</ele>
        <time>2013-02-08T19:58:40Z</time>
      </trkpt>
      <trkpt lat="42.609620" lon="-6.813090">
        <ele>505.015</ele>
        <time>2013-02-08T19:59:00Z</time>
      </trkpt>
      <trkpt lat="42.609722" lon="-6.813315">
        <ele>503.017</ele>
        <time>2013-02-08T19:59:20Z</time>
      </trkpt>
      <trkpt lat="42.609825" lon="-6.813508">
        <ele>501.069</ele>
        <time>2013-02-08T19:59:40Z</time>
      </trkpt>
      <trkpt lat="42.610094" lon="-6.813626">
        <ele>503.030</ele>
        <time>2013-02-08T20:00:00Z</time>
      </trkpt>
      <trkpt lat="42.610433" lon="-6.813744">
        <ele>506.088</ele>
        <time>2013-02-08T20:00:20Z</time>
      </trkpt>
      <trkpt lat="42.610773" lon="-6.813884">
        <ele>506.024</ele>
        <time>2013-02-08T20:00:40Z</time>
      </trkpt>
      <trkpt lat="42.611104" lon="-6.814023">
        <ele>505.026</ele>
        <time>2013-02-08T20:01:00Z</time>
      </trkpt>
      <trkpt lat="42.611412" lon="-6.814324">
        <ele>509.007</ele>
        <time>2013-02-08T20:01:20Z</time>
      </trkpt>
      <trkpt lat="42.611507" lon="-6.814367">
        <ele>509.081</ele>
        <time>2013-02-08T20:01:40Z</time>
      </trkpt>
      <trkpt lat="42.611704" lon="-6.814581">
        <ele>509.087</ele>
        <time>2013-02-08T20:02:00Z</time>
      </trkpt>
      <trkpt lat="42.611996" lon="-6.814688">
        <ele>512.063</ele>
        <time>2013-02-08T20:02:20Z</time>
      </trkpt>
      <trkpt lat="42.612123" lon="-6.814764">
        <ele>513.066</ele>
        <time>2013-02-08T20:02:40Z</time>
      </trkpt>
      <trkpt lat="42.612202" lon="-6.814892">
        <ele>513.018</ele>
        <time>2013-02-08T20:03:00Z</time>
      </trkpt>
      <trkpt lat="42.612415" lon="-6.815021">
        <ele>511.060</ele>
        <time>2013-02-08T20:03:20Z</time>
      </trkpt>
      <trkpt lat="42.612731" lon="-6.815118">
        <ele>510.011</ele>
        <time>2013-02-08T20:03:40Z</time>
      </trkpt>
      <trkpt lat="42.613078" lon="-6.815139">
        <ele>507.043</ele>
        <time>2013-02-08T20:04:00Z</time>
      </trkpt>
      <trkpt lat="42.613434" lon="-6.815010">
        <ele>510.064</ele>
        <time>2013-02-08T20:04:20Z</time>
      </trkpt>
      <trkpt lat="42.613741" lon="-6.814914">
        <ele>511.010</ele>
        <time>2013-02-08T20:04:40Z</time>
      </trkpt>
      <trkpt lat="42.614049" lon="-6.814978">
        <ele>514.007</ele>
        <time>2013-02-08T20:05:00Z</time>
      </trkpt>
      <trkpt lat="42.614357" lon="-6.815032">
        <ele>517.077</ele>
        <time>2013-02-08T20:05:20Z</time>
      </trkpt>
      <trkpt lat="42.614728" lon="-6.815375">
        <ele>515.093</ele>
        <time>2013-02-08T20:05:40Z</time>
      </trkpt>
      <trkpt lat="42.614894" lon="-6.815504">
        <ele>517.069</ele>
        <time>2013-02-08T20:06:00Z</time>
      </trkpt>
      <trkpt lat="42.615076" lon="-6.815708">
        <ele>514.012</ele>
        <time>2013-02-08T20:06:20Z</time>
      </trkpt>
      <trkpt lat="42.615147" lon="-6.815912">
        <ele>522.034</ele>
        <time>2013-02-08T20:06:40Z</time>
      </trkpt>
      <trkpt lat="42.615234" lon="-6.816287">
        <ele>518.076</ele>
        <time>2013-02-08T20:07:00Z</time>
      </trkpt>
      <trkpt lat="42.615250" lon="-6.816427">
        <ele>518.077</ele>
        <time>2013-02-08T20:07:20Z</time>
      </trkpt>
      <trkpt lat="42.615234" lon="-6.816695">
        <ele>518.013</ele>
        <time>2013-02-08T20:07:40Z</time>
      </trkpt>
      <trkpt lat="42.615226" lon="-6.816813">
        <ele>518.043</ele>
        <time>2013-02-08T20:08:00Z</time>
      </trkpt>
      <trkpt lat="42.615202" lon="-6.817038">
        <ele>518.007</ele>
        <time>2013-02-08T20:08:20Z</time>
      </trkpt>
      <trkpt lat="42.615171" lon="-6.817360">
        <ele>520.007</ele>
        <time>2013-02-08T20:08:40Z</time>
      </trkpt>
      <trkpt lat="42.615092" lon="-6.817542">
        <ele>509.074</ele>
        <time>2013-02-08T20:09:00Z</time>
      </trkpt>
      <trkpt lat="42.615021" lon="-6.817746">
        <ele>512.070</ele>
        <time>2013-02-08T20:09:20Z</time>
      </trkpt>
      <trkpt lat="42.614989" lon="-6.817950">
        <ele>517.066</ele>
        <time>2013-02-08T20:09:40Z</time>
      </trkpt>
      <trkpt lat="42.614926" lon="-6.818122">
        <ele>517.099</ele>
        <time>2013-02-08T20:10:00Z</time>
      </trkpt>
      <trkpt lat="42.614878" lon="-6.818218">
        <ele>523.021</ele>
        <time>2013-02-08T20:10:20Z</time>
      </trkpt>
      <trkpt lat="42.614847" lon="-6.818347">
        <ele>512.063</ele>
        <time>2013-02-08T20:10:40Z</time>
      </trkpt>
      <trkpt lat="42.614744" lon="-6.818626">
        <ele>520.024</ele>
        <time>2013-02-08T20:11:00Z</time>
      </trkpt>
      <trkpt lat="42.614665" lon="-6.818701">
        <ele>520.054</ele>
        <time>2013-02-08T20:11:20Z</time>
      </trkpt>
      <trkpt lat="42.614610" lon="-6.818776">
        <ele>531.056</ele>
        <time>2013-02-08T20:11:40Z</time>
      </trkpt>
      <trkpt lat="42.614515" lon="-6.818873">
        <ele>524.011</ele>
        <time>2013-02-08T20:12:00Z</time>
      </trkpt>
      <trkpt lat="42.614420" lon="-6.818926">
        <ele>524.007</ele>
        <time>2013-02-08T20:12:20Z</time>
      </trkpt>
      <trkpt lat="42.614334" lon="-6.818948">
        <ele>524.068</ele>
        <time>2013-02-08T20:12:40Z</time>
      </trkpt>
      <trkpt lat="42.614239" lon="-6.818959">
        <ele>522.084</ele>
        <time>2013-02-08T20:13:00Z</time>
      </trkpt>
      <trkpt lat="42.614152" lon="-6.818980">
        <ele>522.050</ele>
        <time>2013-02-08T20:13:20Z</time>
      </trkpt>
      <trkpt lat="42.614041" lon="-6.818980">
        <ele>522.053</ele>
        <time>2013-02-08T20:13:40Z</time>
      </trkpt>
      <trkpt lat="42.613939" lon="-6.819012">
        <ele>520.055</ele>
        <time>2013-02-08T20:14:00Z</time>
      </trkpt>
      <trkpt lat="42.613820" lon="-6.819012">
        <ele>520.017</ele>
        <time>2013-02-08T20:14:20Z</time>
      </trkpt>
      <trkpt lat="42.613702" lon="-6.819012">
        <ele>518.068</ele>
        <time>2013-02-08T20:14:40Z</time>
      </trkpt>
      <trkpt lat="42.613576" lon="-6.819023">
        <ele>518.049</ele>
        <time>2013-02-08T20:15:00Z</time>
      </trkpt>
      <trkpt lat="42.613489" lon="-6.819023">
        <ele>518.002</ele>
        <time>2013-02-08T20:15:20Z</time>
      </trkpt>
      <trkpt lat="42.613378" lon="-6.819034">
        <ele>519.022</ele>
        <time>2013-02-08T20:15:40Z</time>
      </trkpt>
      <trkpt lat="42.613220" lon="-6.819034">
        <ele>519.007</ele>
        <time>2013-02-08T20:16:00Z</time>
      </trkpt>
      <trkpt lat="42.613070" lon="-6.819023">
        <ele>515.017</ele>
        <time>2013-02-08T20:16:20Z</time>
      </trkpt>
      <trkpt lat="42.612960" lon="-6.819023">
        <ele>515.093</ele>
        <time>2013-02-08T20:16:40Z</time>
      </trkpt>
      <trkpt lat="42.612881" lon="-6.819023">
        <ele>517.089</ele>
        <time>2013-02-08T20:17:00Z</time>
      </trkpt>
      <trkpt lat="42.612802" lon="-6.819130">
        <ele>519.042</ele>
        <time>2013-02-08T20:17:20Z</time>
      </trkpt>
      <trkpt lat="42.612676" lon="-6.819313">
        <ele>520.054</ele>
        <time>2013-02-08T20:17:40Z</time>
      </trkpt>
      <trkpt lat="42.612518" lon="-6.819452">
        <ele>517.026</ele>
        <time>2013-02-08T20:18:00Z</time>
      </trkpt>
      <trkpt lat="42.612478" lon="-6.819516">
        <ele>517.017</ele>
        <time>2013-02-08T20:18:20Z</time>
      </trkpt>
      <trkpt lat="42.612439" lon="-6.819559">
        <ele>517.089</ele>
        <time>2013-02-08T20:18:40Z</time>
      </trkpt>
      <trkpt lat="42.612360" lon="-6.819624">
        <ele>515.006</ele>
        <time>2013-02-08T20:19:00Z</time>
      </trkpt>
      <trkpt lat="42.612304" lon="-6.819645">
        <ele>515.026</ele>
        <time>2013-02-08T20:19:20Z</time>
      </trkpt>
      <trkpt lat="42.612233" lon="-6.819688">
        <ele>515.007</ele>
        <time>2013-02-08T20:19:40Z</time>
      </trkpt>
      <trkpt lat="42.612146" lon="-6.819710">
        <ele>515.091</ele>
        <time>2013-02-08T20:20:00Z</time>
      </trkpt>
      <trkpt lat="42.612028" lon="-6.819720">
        <ele>514.097</ele>
        <time>2013-02-08T20:20:20Z</time>
      </trkpt>
      <trkpt lat="42.611965" lon="-6.819752">
        <ele>514.093</ele>
        <time>2013-02-08T20:20:40Z</time>
      </trkpt>
      <trkpt lat="42.611925" lon="-6.819838">
        <ele>514.066</ele>
        <time>2013-02-08T20:21:00Z</time>
      </trkpt>
      <trkpt lat="42.611791" lon="-6.819956">
        <ele>516.068</ele>
        <time>2013-02-08T20:21:20Z</time>
      </trkpt>
      <trkpt lat="42.611720" lon="-6.820117">
        <ele>516.070</ele>
        <time>2013-02-08T20:21:40Z</time>
      </trkpt>
      <trkpt lat="42.611696" lon="-6.820203">
        <ele>514.091</ele>
        <time>2013-02-08T20:22:00Z</time>
      </trkpt>
      <trkpt lat="42.611649" lon="-6.820375">
        <ele>514.029</ele>
        <time>2013-02-08T20:22:20Z</time>
      </trkpt>
      <trkpt lat="42.611728" lon="-6.820536">
        <ele>513.000</ele>
        <time>2013-02-08T20:22:40Z</time>
      </trkpt>
      <trkpt lat="42.611894" lon="-6.820632">
        <ele>512.020</ele>
        <time>2013-02-08T20:23:00Z</time>
      </trkpt>
      <trkpt lat="42.612218" lon="-6.820815">
        <ele>510.007</ele>
        <time>2013-02-08T20:23:20Z</time>
      </trkpt>
      <trkpt lat="42.612470" lon="-6.820986">
        <ele>510.015</ele>
        <time>2013-02-08T20:23:40Z</time>
      </trkpt>
      <trkpt lat="42.612723" lon="-6.821094">
        <ele>511.041</ele>
        <time>2013-02-08T20:24:00Z</time>
      </trkpt>
      <trkpt lat="42.612968" lon="-6.821254">
        <ele>513.087</ele>
        <time>2013-02-08T20:24:20Z</time>
      </trkpt>
      <trkpt lat="42.613291" lon="-6.821297">
        <ele>513.030</ele>
        <time>2013-02-08T20:24:40Z</time>
      </trkpt>
      <trkpt lat="42.613891" lon="-6.821126">
        <ele>513.032</ele>
        <time>2013-02-08T20:25:00Z</time>
      </trkpt>
      <trkpt lat="42.614199" lon="-6.821029">
        <ele>511.044</ele>
        <time>2013-02-08T20:25:20Z</time>
      </trkpt>
      <trkpt lat="42.614515" lon="-6.821051">
        <ele>511.025</ele>
        <time>2013-02-08T20:25:40Z</time>
      </trkpt>
      <trkpt lat="42.614665" lon="-6.821233">
        <ele>516.061</ele>
        <time>2013-02-08T20:26:00Z</time>
      </trkpt>
      <trkpt lat="42.614815" lon="-6.821373">
        <ele>512.021</ele>
        <time>2013-02-08T20:26:20Z</time>
      </trkpt>
      <trkpt lat="42.614910" lon="-6.821501">
        <ele>521.013</ele>
        <time>2013-02-08T20:26:40Z</time>
      </trkpt>
      <trkpt lat="42.614973" lon="-6.821619">
        <ele>517.007</ele>
        <time>2013-02-08T20:27:00Z</time>
      </trkpt>
      <trkpt lat="42.615028" lon="-6.821823">
        <ele>516.089</ele>
        <time>2013-02-08T20:27:20Z</time>
      </trkpt>
      <trkpt lat="42.615076" lon="-6.821952">
        <ele>516.015</ele>
        <time>2013-02-08T20:27:40Z</time>
      </trkpt>
      <trkpt lat="42.615092" lon="-6.822413">
        <ele>514.011</ele>
        <time>2013-02-08T20:28:00Z</time>
      </trkpt>
      <trkpt lat="42.615092" lon="-6.822606">
        <ele>514.074</ele>
        <time>2013-02-08T20:28:20Z</time>
      </trkpt>
      <trkpt lat="42.615044" lon="-6.822842">
        <ele>515.026</ele>
        <time>2013-02-08T20:28:40Z</time>
      </trkpt>
      <trkpt lat="42.615005" lon="-6.823057">
        <ele>516.038</ele>
        <time>2013-02-08T20:29:00Z</time>
      </trkpt>
      <trkpt lat="42.614949" lon="-6.823411">
        <ele>516.019</ele>
        <time>2013-02-08T20:29:20Z</time>
      </trkpt>
      <trkpt lat="42.614949" lon="-6.823561">
        <ele>516.011</ele>
        <time>2013-02-08T20:29:40Z</time>
      </trkpt>
      <trkpt lat="42.614957" lon="-6.823744">
        <ele>516.021</ele>
        <time>2013-02-08T20:30:00Z</time>
      </trkpt>
      <trkpt lat="42.614973" lon="-6.823894">
        <ele>516.003</ele>
        <time>2013-02-08T20:30:20Z</time>
      </trkpt>
      <trkpt lat="42.614989" lon="-6.823990">
        <ele>516.007</ele>
        <time>2013-02-08T20:30:40Z</time>
      </trkpt>
      <trkpt lat="42.615036" lon="-6.824087">
        <ele>519.094</ele>
        <time>2013-02-08T20:31:00Z</time>
      </trkpt>
      <trkpt lat="42.615084" lon="-6.824280">
        <ele>519.090</ele>
        <time>2013-02-08T20:31:20Z</time>
      </trkpt>
      <trkpt lat="42.615139" lon="-6.824409">
        <ele>523.076</ele>
        <time>2013-02-08T20:31:40Z</time>
      </trkpt>
      <trkpt lat="42.615202" lon="-6.824602">
        <ele>523.019</ele>
        <time>2013-02-08T20:32:00Z</time>
      </trkpt>
      <trkpt lat="42.615352" lon="-6.824827">
        <ele>523.021</ele>
        <time>2013-02-08T20:32:20Z</time>
      </trkpt>
      <trkpt lat="42.615629" lon="-6.825063">
        <ele>523.053</ele>
        <time>2013-02-08T20:32:40Z</time>
      </trkpt>
      <trkpt lat="42.615826" lon="-6.825181">
        <ele>523.064</ele>
        <time>2013-02-08T20:33:00Z</time>
      </trkpt>
      <trkpt lat="42.616023" lon="-6.825321">
        <ele>523.045</ele>
        <time>2013-02-08T20:33:20Z</time>
      </trkpt>
      <trkpt lat="42.616205" lon="-6.825460">
        <ele>524.047</ele>
        <time>2013-02-08T20:33:40Z</time>
      </trkpt>
      <trkpt lat="42.616355" lon="-6.825589">
        <ele>524.011</ele>
        <time>2013-02-08T20:34:00Z</time>
      </trkpt>
      <trkpt lat="42.616450" lon="-6.825739">
        <ele>525.007</ele>
        <time>2013-02-08T20:34:20Z</time>
      </trkpt>
      <trkpt lat="42.616576" lon="-6.825846">
        <ele>525.017</ele>
        <time>2013-02-08T20:34:40Z</time>
      </trkpt>
      <trkpt lat="42.616686" lon="-6.825997">
        <ele>525.023</ele>
        <time>2013-02-08T20:35:00Z</time>
      </trkpt>
      <trkpt lat="42.616979" lon="-6.826394">
        <ele>524.059</ele>
        <time>2013-02-08T20:35:20Z</time>
      </trkpt>
      <trkpt lat="42.617129" lon="-6.826651">
        <ele>524.072</ele>
        <time>2013-02-08T20:35:40Z</time>
      </trkpt>
      <trkpt lat="42.617200" lon="-6.826748">
        <ele>524.084</ele>
        <time>2013-02-08T20:36:00Z</time>
      </trkpt>
      <trkpt lat="42.617271" lon="-6.827027">
        <ele>521.036</ele>
        <time>2013-02-08T20:36:20Z</time>
      </trkpt>
      <trkpt lat="42.617342" lon="-6.827112">
        <ele>520.067</ele>
        <time>2013-02-08T20:36:40Z</time>
      </trkpt>
      <trkpt lat="42.617413" lon="-6.827284">
        <ele>524.041</ele>
        <time>2013-02-08T20:37:00Z</time>
      </trkpt>
      <trkpt lat="42.617547" lon="-6.827477">
        <ele>521.081</ele>
        <time>2013-02-08T20:37:20Z</time>
      </trkpt>
      <trkpt lat="42.617610" lon="-6.827627">
        <ele>521.009</ele>
        <time>2013-02-08T20:37:40Z</time>
      </trkpt>
      <trkpt lat="42.617673" lon="-6.827949">
        <ele>524.007</ele>
        <time>2013-02-08T20:38:00Z</time>
      </trkpt>
      <trkpt lat="42.617729" lon="-6.828132">
        <ele>524.067</ele>
        <time>2013-02-08T20:38:20Z</time>
      </trkpt>
      <trkpt lat="42.617776" lon="-6.828293">
        <ele>524.093</ele>
        <time>2013-02-08T20:38:40Z</time>
      </trkpt>
      <trkpt lat="42.617823" lon="-6.828411">
        <ele>524.089</ele>
        <time>2013-02-08T20:39:00Z</time>
      </trkpt>
      <trkpt lat="42.617958" lon="-6.828561">
        <ele>528.082</ele>
        <time>2013-02-08T20:39:20Z</time>
      </trkpt>
      <trkpt lat="42.617997" lon="-6.828829">
        <ele>529.074</ele>
        <time>2013-02-08T20:39:40Z</time>
      </trkpt>
      <trkpt lat="42.618060" lon="-6.828936">
        <ele>529.046</ele>
        <time>2013-02-08T20:40:00Z</time>
      </trkpt>
      <trkpt lat="42.618131" lon="-6.829108">
        <ele>532.077</ele>
        <time>2013-02-08T20:40:20Z</time>
      </trkpt>
      <trkpt lat="42.618187" lon="-6.829226">
        <ele>532.024</ele>
        <time>2013-02-08T20:40:40Z</time>
      </trkpt>
      <trkpt lat="42.618250" lon="-6.829344">
        <ele>537.004</ele>
        <time>2013-02-08T20:41:00Z</time>
      </trkpt>
      <trkpt lat="42.618660" lon="-6.829687">
        <ele>541.014</ele>
        <time>2013-02-08T20:41:20Z</time>
      </trkpt>
      <trkpt lat="42.619031" lon="-6.829838">
        <ele>542.007</ele>
        <time>2013-02-08T20:41:40Z</time>
      </trkpt>
      <trkpt lat="42.619355" lon="-6.830009">
        <ele>539.045</ele>
        <time>2013-02-08T20:42:00Z</time>
      </trkpt>
      <trkpt lat="42.619647" lon="-6.830213">
        <ele>537.041</ele>
        <time>2013-02-08T20:42:20Z</time>
      </trkpt>
      <trkpt lat="42.620081" lon="-6.830385">
        <ele>537.047</ele>
        <time>2013-02-08T20:42:40Z</time>
      </trkpt>
      <trkpt lat="42.620366" lon="-6.830535">
        <ele>536.010</ele>
        <time>2013-02-08T20:43:00Z</time>
      </trkpt>
      <trkpt lat="42.620729" lon="-6.830578">
        <ele>534.052</ele>
        <time>2013-02-08T20:43:20Z</time>
      </trkpt>
      <trkpt lat="42.620950" lon="-6.830428">
        <ele>534.054</ele>
        <time>2013-02-08T20:43:40Z</time>
      </trkpt>
      <trkpt lat="42.621289" lon="-6.830320">
        <ele>525.045</ele>
        <time>2013-02-08T20:44:00Z</time>
      </trkpt>
      <trkpt lat="42.621455" lon="-6.830149">
        <ele>525.057</ele>
        <time>2013-02-08T20:44:20Z</time>
      </trkpt>
      <trkpt lat="42.621652" lon="-6.830009">
        <ele>522.000</ele>
        <time>2013-02-08T20:44:40Z</time>
      </trkpt>
      <trkpt lat="42.621984" lon="-6.829848">
        <ele>523.020</ele>
        <time>2013-02-08T20:45:00Z</time>
      </trkpt>
      <trkpt lat="42.622189" lon="-6.829698">
        <ele>529.007</ele>
        <time>2013-02-08T20:45:20Z</time>
      </trkpt>
      <trkpt lat="42.622521" lon="-6.829655">
        <ele>533.018</ele>
        <time>2013-02-08T20:45:40Z</time>
      </trkpt>
      <trkpt lat="42.622797" lon="-6.829795">
        <ele>535.044</ele>
        <time>2013-02-08T20:46:00Z</time>
      </trkpt>
      <trkpt lat="42.623018" lon="-6.829988">
        <ele>532.010</ele>
        <time>2013-02-08T20:46:20Z</time>
      </trkpt>
      <trkpt lat="42.623145" lon="-6.830170">
        <ele>529.053</ele>
        <time>2013-02-08T20:46:40Z</time>
      </trkpt>
      <trkpt lat="42.623231" lon="-6.830363">
        <ele>535.065</ele>
        <time>2013-02-08T20:47:00Z</time>
      </trkpt>
      <trkpt lat="42.623279" lon="-6.830460">
        <ele>532.027</ele>
        <time>2013-02-08T20:47:20Z</time>
      </trkpt>
      <trkpt lat="42.623326" lon="-6.830664">
        <ele>532.078</ele>
        <time>2013-02-08T20:47:40Z</time>
      </trkpt>
      <trkpt lat="42.623358" lon="-6.830792">
        <ele>531.041</ele>
        <time>2013-02-08T20:48:00Z</time>
      </trkpt>
      <trkpt lat="42.623381" lon="-6.831104">
        <ele>531.081</ele>
        <time>2013-02-08T20:48:20Z</time>
      </trkpt>
      <trkpt lat="42.623358" lon="-6.831490">
        <ele>532.009</ele>
        <time>2013-02-08T20:48:40Z</time>
      </trkpt>
      <trkpt lat="42.623342" lon="-6.831758">
        <ele>533.007</ele>
        <time>2013-02-08T20:49:00Z</time>
      </trkpt>
      <trkpt lat="42.623310" lon="-6.831994">
        <ele>535.057</ele>
        <time>2013-02-08T20:49:20Z</time>
      </trkpt>
      <trkpt lat="42.623279" lon="-6.832016">
        <ele>535.053</ele>
        <time>2013-02-08T20:49:40Z</time>
      </trkpt>
      <trkpt lat="42.623208" lon="-6.832327">
        <ele>537.039</ele>
        <time>2013-02-08T20:50:00Z</time>
      </trkpt>
      <trkpt lat="42.623200" lon="-6.832649">
        <ele>541.042</ele>
        <time>2013-02-08T20:50:20Z</time>
      </trkpt>
      <trkpt lat="42.623137" lon="-6.832927">
        <ele>536.054</ele>
        <time>2013-02-08T20:50:40Z</time>
      </trkpt>
      <trkpt lat="42.623058" lon="-6.832927">
        <ele>536.086</ele>
        <time>2013-02-08T20:51:00Z</time>
      </trkpt>
      <trkpt lat="42.622971" lon="-6.833249">
        <ele>540.027</ele>
        <time>2013-02-08T20:51:20Z</time>
      </trkpt>
      <trkpt lat="42.622924" lon="-6.833378">
        <ele>540.063</ele>
        <time>2013-02-08T20:51:40Z</time>
      </trkpt>
      <trkpt lat="42.622892" lon="-6.833464">
        <ele>534.044</ele>
        <time>2013-02-08T20:52:00Z</time>
      </trkpt>
      <trkpt lat="42.622837" lon="-6.833614">
        <ele>538.018</ele>
        <time>2013-02-08T20:52:20Z</time>
      </trkpt>
      <trkpt lat="42.622813" lon="-6.833657">
        <ele>538.007</ele>
        <time>2013-02-08T20:52:40Z</time>
      </trkpt>
      <trkpt lat="42.622758" lon="-6.833732">
        <ele>538.049</ele>
        <time>2013-02-08T20:53:00Z</time>
      </trkpt>
      <trkpt lat="42.622663" lon="-6.833807">
        <ele>544.045</ele>
        <time>2013-02-08T20:53:20Z</time>
      </trkpt>
      <trkpt lat="42.622505" lon="-6.834022">
        <ele>537.021</ele>
        <time>2013-02-08T20:53:40Z</time>
      </trkpt>
      <trkpt lat="42.622442" lon="-6.834065">
        <ele>541.094</ele>
        <time>2013-02-08T20:54:00Z</time>
      </trkpt>
      <trkpt lat="42.622379" lon="-6.834140">
        <ele>541.016</ele>
        <time>2013-02-08T20:54:20Z</time>
      </trkpt>
      <trkpt lat="42.622276" lon="-6.834311">
        <ele>539.088</ele>
        <time>2013-02-08T20:54:40Z</time>
      </trkpt>
      <trkpt lat="42.622237" lon="-6.834354">
        <ele>539.029</ele>
        <time>2013-02-08T20:55:00Z</time>
      </trkpt>
      <trkpt lat="42.621921" lon="-6.834751">
        <ele>537.043</ele>
        <time>2013-02-08T20:55:20Z</time>
      </trkpt>
      <trkpt lat="42.621866" lon="-6.834784">
        <ele>537.064</ele>
        <time>2013-02-08T20:55:40Z</time>
      </trkpt>
      <trkpt lat="42.621660" lon="-6.834944">
        <ele>535.010</ele>
        <time>2013-02-08T20:56:00Z</time>
      </trkpt>
      <trkpt lat="42.621534" lon="-6.835041">
        <ele>535.007</ele>
        <time>2013-02-08T20:56:20Z</time>
      </trkpt>
      <trkpt lat="42.621463" lon="-6.835116">
        <ele>532.047</ele>
        <time>2013-02-08T20:56:40Z</time>
      </trkpt>
      <trkpt lat="42.621376" lon="-6.835223">
        <ele>533.043</ele>
        <time>2013-02-08T20:57:00Z</time>
      </trkpt>
      <trkpt lat="42.621321" lon="-6.835320">
        <ele>533.039</ele>
        <time>2013-02-08T20:57:20Z</time>
      </trkpt>
      <trkpt lat="42.621116" lon="-6.835535">
        <ele>530.082</ele>
        <time>2013-02-08T20:57:40Z</time>
      </trkpt>
      <trkpt lat="42.621100" lon="-6.835685">
        <ele>530.024</ele>
        <time>2013-02-08T20:58:00Z</time>
      </trkpt>
      <trkpt lat="42.621029" lon="-6.835953">
        <ele>530.076</ele>
        <time>2013-02-08T20:58:20Z</time>
      </trkpt>
      <trkpt lat="42.621021" lon="-6.836050">
        <ele>531.037</ele>
        <time>2013-02-08T20:58:40Z</time>
      </trkpt>
      <trkpt lat="42.621021" lon="-6.836232">
        <ele>531.027</ele>
        <time>2013-02-08T20:59:00Z</time>
      </trkpt>
      <trkpt lat="42.621037" lon="-6.836350">
        <ele>532.068</ele>
        <time>2013-02-08T20:59:20Z</time>
      </trkpt>
      <trkpt lat="42.621068" lon="-6.836468">
        <ele>532.014</ele>
        <time>2013-02-08T20:59:40Z</time>
      </trkpt>
      <trkpt lat="42.621155" lon="-6.836843">
        <ele>540.007</ele>
        <time>2013-02-08T21:00:00Z</time>
      </trkpt>
      <trkpt lat="42.621266" lon="-6.837004">
        <ele>539.065</ele>
        <time>2013-02-08T21:00:20Z</time>
      </trkpt>
      <trkpt lat="42.621329" lon="-6.837069">
        <ele>539.011</ele>
        <time>2013-02-08T21:00:40Z</time>
      </trkpt>
      <trkpt lat="42.621424" lon="-6.837165">
        <ele>541.047</ele>
        <time>2013-02-08T21:01:00Z</time>
      </trkpt>
      <trkpt lat="42.621629" lon="-6.837391">
        <ele>539.030</ele>
        <time>2013-02-08T21:01:20Z</time>
      </trkpt>
      <trkpt lat="42.621755" lon="-6.837487">
        <ele>539.042</ele>
        <time>2013-02-08T21:01:40Z</time>
      </trkpt>
      <trkpt lat="42.621984" lon="-6.837659">
        <ele>536.084</ele>
        <time>2013-02-08T21:02:00Z</time>
      </trkpt>
      <trkpt lat="42.622347" lon="-6.837863">
        <ele>533.015</ele>
        <time>2013-02-08T21:02:20Z</time>
      </trkpt>
      <trkpt lat="42.622442" lon="-6.837981">
        <ele>532.045</ele>
        <time>2013-02-08T21:02:40Z</time>
      </trkpt>
      <trkpt lat="42.622568" lon="-6.838228">
        <ele>531.047</ele>
        <time>2013-02-08T21:03:00Z</time>
      </trkpt>
      <trkpt lat="42.622655" lon="-6.838324">
        <ele>534.011</ele>
        <time>2013-02-08T21:03:20Z</time>
      </trkpt>
      <trkpt lat="42.622702" lon="-6.838421">
        <ele>534.007</ele>
        <time>2013-02-08T21:03:40Z</time>
      </trkpt>
      <trkpt lat="42.622837" lon="-6.838700">
        <ele>532.087</ele>
        <time>2013-02-08T21:04:00Z</time>
      </trkpt>
      <trkpt lat="42.622916" lon="-6.838914">
        <ele>530.073</ele>
        <time>2013-02-08T21:04:20Z</time>
      </trkpt>
      <trkpt lat="42.623239" lon="-6.839064">
        <ele>530.069</ele>
        <time>2013-02-08T21:04:40Z</time>
      </trkpt>
      <trkpt lat="42.623445" lon="-6.839193">
        <ele>530.062</ele>
        <time>2013-02-08T21:05:00Z</time>
      </trkpt>
      <trkpt lat="42.623571" lon="-6.839268">
        <ele>533.034</ele>
        <time>2013-02-08T21:05:20Z</time>
      </trkpt>
      <trkpt lat="42.623689" lon="-6.839333">
        <ele>530.096</ele>
        <time>2013-02-08T21:05:40Z</time>
      </trkpt>
      <trkpt lat="42.623721" lon="-6.839397">
        <ele>530.027</ele>
        <time>2013-02-08T21:06:00Z</time>
      </trkpt>
      <trkpt lat="42.623831" lon="-6.839526">
        <ele>534.059</ele>
        <time>2013-02-08T21:06:20Z</time>
      </trkpt>
      <trkpt lat="42.623879" lon="-6.839569">
        <ele>534.003</ele>
        <time>2013-02-08T21:06:40Z</time>
      </trkpt>
      <trkpt lat="42.623966" lon="-6.839654">
        <ele>531.023</ele>
        <time>2013-02-08T21:07:00Z</time>
      </trkpt>
      <trkpt lat="42.624021" lon="-6.839762">
        <ele>531.007</ele>
        <time>2013-02-08T21:07:20Z</time>
      </trkpt>
      <trkpt lat="42.624139" lon="-6.840051">
        <ele>533.098</ele>
        <time>2013-02-08T21:07:40Z</time>
      </trkpt>
      <trkpt lat="42.624250" lon="-6.840266">
        <ele>531.054</ele>
        <time>2013-02-08T21:08:00Z</time>
      </trkpt>
      <trkpt lat="42.624392" lon="-6.840641">
        <ele>534.060</ele>
        <time>2013-02-08T21:08:20Z</time>
      </trkpt>
      <trkpt lat="42.624455" lon="-6.840727">
        <ele>532.093</ele>
        <time>2013-02-08T21:08:40Z</time>
      </trkpt>
      <trkpt lat="42.624558" lon="-6.841017">
        <ele>531.075</ele>
        <time>2013-02-08T21:09:00Z</time>
      </trkpt>
      <trkpt lat="42.624668" lon="-6.841178">
        <ele>536.017</ele>
        <time>2013-02-08T21:09:20Z</time>
      </trkpt>
      <trkpt lat="42.624747" lon="-6.841339">
        <ele>534.098</ele>
        <time>2013-02-08T21:09:40Z</time>
      </trkpt>
      <trkpt lat="42.624913" lon="-6.842026">
        <ele>536.011</ele>
        <time>2013-02-08T21:10:00Z</time>
      </trkpt>
      <trkpt lat="42.625055" lon="-6.842283">
        <ele>535.021</ele>
        <time>2013-02-08T21:10:20Z</time>
      </trkpt>
      <trkpt lat="42.625189" lon="-6.842390">
        <ele>539.003</ele>
        <time>2013-02-08T21:10:40Z</time>
      </trkpt>
      <trkpt lat="42.625323" lon="-6.842669">
        <ele>538.007</ele>
        <time>2013-02-08T21:11:00Z</time>
      </trkpt>
      <trkpt lat="42.625497" lon="-6.842937">
        <ele>542.084</ele>
        <time>2013-02-08T21:11:20Z</time>
      </trkpt>
      <trkpt lat="42.625568" lon="-6.843055">
        <ele>542.090</ele>
        <time>2013-02-08T21:11:40Z</time>
      </trkpt>
      <trkpt lat="42.625663" lon="-6.843206">
        <ele>543.056</ele>
        <time>2013-02-08T21:12:00Z</time>
      </trkpt>
      <trkpt lat="42.625750" lon="-6.843345">
        <ele>546.049</ele>
        <time>2013-02-08T21:12:20Z</time>
      </trkpt>
      <trkpt lat="42.625837" lon="-6.843485">
        <ele>547.021</ele>
        <time>2013-02-08T21:12:40Z</time>
      </trkpt>
      <trkpt lat="42.625963" lon="-6.843688">
        <ele>547.033</ele>
        <time>2013-02-08T21:13:00Z</time>
      </trkpt>
      <trkpt lat="42.626058" lon="-6.843817">
        <ele>547.084</ele>
        <time>2013-02-08T21:13:20Z</time>
      </trkpt>
      <trkpt lat="42.626121" lon="-6.843882">
        <ele>547.012</ele>
        <time>2013-02-08T21:13:40Z</time>
      </trkpt>
      <trkpt lat="42.626144" lon="-6.844043">
        <ele>545.032</ele>
        <time>2013-02-08T21:14:00Z</time>
      </trkpt>
      <trkpt lat="42.626184" lon="-6.844171">
        <ele>545.005</ele>
        <time>2013-02-08T21:14:20Z</time>
      </trkpt>
      <trkpt lat="42.626200" lon="-6.844332">
        <ele>542.007</ele>
        <time>2013-02-08T21:14:40Z</time>
      </trkpt>
      <trkpt lat="42.626223" lon="-6.844407">
        <ele>542.094</ele>
        <time>2013-02-08T21:15:00Z</time>
      </trkpt>
      <trkpt lat="42.626302" lon="-6.844686">
        <ele>544.020</ele>
        <time>2013-02-08T21:15:20Z</time>
      </trkpt>
      <trkpt lat="42.626342" lon="-6.844804">
        <ele>544.036</ele>
        <time>2013-02-08T21:15:40Z</time>
      </trkpt>
      <trkpt lat="42.626365" lon="-6.844869">
        <ele>542.059</ele>
        <time>2013-02-08T21:16:00Z</time>
      </trkpt>
      <trkpt lat="42.626381" lon="-6.844954">
        <ele>542.051</ele>
        <time>2013-02-08T21:16:20Z</time>
      </trkpt>
      <trkpt lat="42.626413" lon="-6.845115">
        <ele>542.013</ele>
        <time>2013-02-08T21:16:40Z</time>
      </trkpt>
      <trkpt lat="42.626429" lon="-6.845233">
        <ele>541.074</ele>
        <time>2013-02-08T21:17:00Z</time>
      </trkpt>
      <trkpt lat="42.626452" lon="-6.845502">
        <ele>542.077</ele>
        <time>2013-02-08T21:17:20Z</time>
      </trkpt>
      <trkpt lat="42.626492" lon="-6.845652">
        <ele>542.061</ele>
        <time>2013-02-08T21:17:40Z</time>
      </trkpt>
      <trkpt lat="42.626555" lon="-6.845802">
        <ele>545.027</ele>
        <time>2013-02-08T21:18:00Z</time>
      </trkpt>
      <trkpt lat="42.626634" lon="-6.846113">
        <ele>543.007</ele>
        <time>2013-02-08T21:18:20Z</time>
      </trkpt>
      <trkpt lat="42.626800" lon="-6.846231">
        <ele>543.070</ele>
        <time>2013-02-08T21:18:40Z</time>
      </trkpt>
      <trkpt lat="42.627060" lon="-6.846349">
        <ele>543.096</ele>
        <time>2013-02-08T21:19:00Z</time>
      </trkpt>
      <trkpt lat="42.627329" lon="-6.846403">
        <ele>545.082</ele>
        <time>2013-02-08T21:19:20Z</time>
      </trkpt>
      <trkpt lat="42.627700" lon="-6.846478">
        <ele>550.075</ele>
        <time>2013-02-08T21:19:40Z</time>
      </trkpt>
      <trkpt lat="42.627984" lon="-6.846521">
        <ele>552.027</ele>
        <time>2013-02-08T21:20:00Z</time>
      </trkpt>
      <trkpt lat="42.628299" lon="-6.846682">
        <ele>548.069</ele>
        <time>2013-02-08T21:20:20Z</time>
      </trkpt>
      <trkpt lat="42.628560" lon="-6.846811">
        <ele>545.020</ele>
        <time>2013-02-08T21:20:40Z</time>
      </trkpt>
      <trkpt lat="42.628805" lon="-6.846886">
        <ele>546.078</ele>
        <time>2013-02-08T21:21:00Z</time>
      </trkpt>
      <trkpt lat="42.629057" lon="-6.847090">
        <ele>542.033</ele>
        <time>2013-02-08T21:21:20Z</time>
      </trkpt>
      <trkpt lat="42.629263" lon="-6.847250">
        <ele>542.026</ele>
        <time>2013-02-08T21:21:40Z</time>
      </trkpt>
      <trkpt lat="42.629381" lon="-6.847336">
        <ele>541.007</ele>
        <time>2013-02-08T21:22:00Z</time>
      </trkpt>
      <trkpt lat="42.629649" lon="-6.847594">
        <ele>538.050</ele>
        <time>2013-02-08T21:22:20Z</time>
      </trkpt>
      <trkpt lat="42.629807" lon="-6.847690">
        <ele>536.056</ele>
        <time>2013-02-08T21:22:40Z</time>
      </trkpt>
      <trkpt lat="42.629878" lon="-6.847776">
        <ele>538.072</ele>
        <time>2013-02-08T21:23:00Z</time>
      </trkpt>
      <trkpt lat="42.630044" lon="-6.847969">
        <ele>537.045</ele>
        <time>2013-02-08T21:23:20Z</time>
      </trkpt>
      <trkpt lat="42.630210" lon="-6.848119">
        <ele>541.037</ele>
        <time>2013-02-08T21:23:40Z</time>
      </trkpt>
      <trkpt lat="42.630312" lon="-6.848280">
        <ele>542.079</ele>
        <time>2013-02-08T21:24:00Z</time>
      </trkpt>
      <trkpt lat="42.630462" lon="-6.848463">
        <ele>545.080</ele>
        <time>2013-02-08T21:24:20Z</time>
      </trkpt>
      <trkpt lat="42.630612" lon="-6.848699">
        <ele>546.087</ele>
        <time>2013-02-08T21:24:40Z</time>
      </trkpt>
      <trkpt lat="42.630786" lon="-6.848817">
        <ele>548.042</ele>
        <time>2013-02-08T21:25:00Z</time>
      </trkpt>
      <trkpt lat="42.630991" lon="-6.849074">
        <ele>549.026</ele>
        <time>2013-02-08T21:25:20Z</time>
      </trkpt>
      <trkpt lat="42.631189" lon="-6.849235">
        <ele>549.007</ele>
        <time>2013-02-08T21:25:40Z</time>
      </trkpt>
      <trkpt lat="42.631267" lon="-6.849375">
        <ele>551.061</ele>
        <time>2013-02-08T21:26:00Z</time>
      </trkpt>
      <trkpt lat="42.631567" lon="-6.849804">
        <ele>554.027</ele>
        <time>2013-02-08T21:26:20Z</time>
      </trkpt>
      <trkpt lat="42.631962" lon="-6.850212">
        <ele>558.043</ele>
        <time>2013-02-08T21:26:40Z</time>
      </trkpt>
      <trkpt lat="42.632096" lon="-6.850426">
        <ele>561.076</ele>
        <time>2013-02-08T21:27:00Z</time>
      </trkpt>
      <trkpt lat="42.632183" lon="-6.850576">
        <ele>561.058</ele>
        <time>2013-02-08T21:27:20Z</time>
      </trkpt>
      <trkpt lat="42.632815" lon="-6.851435">
        <ele>563.010</ele>
        <time>2013-02-08T21:27:40Z</time>
      </trkpt>
      <trkpt lat="42.633012" lon="-6.851692">
        <ele>562.081</ele>
        <time>2013-02-08T21:28:00Z</time>
      </trkpt>
      <trkpt lat="42.633178" lon="-6.851885">
        <ele>564.053</ele>
        <time>2013-02-08T21:28:20Z</time>
      </trkpt>
      <trkpt lat="42.633312" lon="-6.852025">
        <ele>561.004</ele>
        <time>2013-02-08T21:28:40Z</time>
      </trkpt>
      <trkpt lat="42.633557" lon="-6.852314">
        <ele>562.014</ele>
        <time>2013-02-08T21:29:00Z</time>
      </trkpt>
      <trkpt lat="42.633841" lon="-6.852529">
        <ele>562.007</ele>
        <time>2013-02-08T21:29:20Z</time>
      </trkpt>
      <trkpt lat="42.634188" lon="-6.852679">
        <ele>561.018</ele>
        <time>2013-02-08T21:29:40Z</time>
      </trkpt>
      <trkpt lat="42.634527" lon="-6.852776">
        <ele>558.084</ele>
        <time>2013-02-08T21:30:00Z</time>
      </trkpt>
      <trkpt lat="42.634780" lon="-6.852883">
        <ele>556.060</ele>
        <time>2013-02-08T21:30:20Z</time>
      </trkpt>
      <trkpt lat="42.635112" lon="-6.853033">
        <ele>557.053</ele>
        <time>2013-02-08T21:30:40Z</time>
      </trkpt>
      <trkpt lat="42.635309" lon="-6.853248">
        <ele>562.055</ele>
        <time>2013-02-08T21:31:00Z</time>
      </trkpt>
      <trkpt lat="42.635475" lon="-6.853366">
        <ele>563.037</ele>
        <time>2013-02-08T21:31:20Z</time>
      </trkpt>
      <trkpt lat="42.635672" lon="-6.853516">
        <ele>562.068</ele>
        <time>2013-02-08T21:31:40Z</time>
      </trkpt>
      <trkpt lat="42.635814" lon="-6.853645">
        <ele>560.077</ele>
        <time>2013-02-08T21:32:00Z</time>
      </trkpt>
      <trkpt lat="42.636043" lon="-6.853795">
        <ele>560.061</ele>
        <time>2013-02-08T21:32:20Z</time>
      </trkpt>
      <trkpt lat="42.636264" lon="-6.854053">
        <ele>561.027</ele>
        <time>2013-02-08T21:32:40Z</time>
      </trkpt>
      <trkpt lat="42.636414" lon="-6.854192">
        <ele>561.007</ele>
        <time>2013-02-08T21:33:00Z</time>
      </trkpt>
      <trkpt lat="42.636595" lon="-6.854321">
        <ele>561.090</ele>
        <time>2013-02-08T21:33:20Z</time>
      </trkpt>
      <trkpt lat="42.636816" lon="-6.854546">
        <ele>561.046</ele>
        <time>2013-02-08T21:33:40Z</time>
      </trkpt>
      <trkpt lat="42.636974" lon="-6.854696">
        <ele>560.022</ele>
        <time>2013-02-08T21:34:00Z</time>
      </trkpt>
      <trkpt lat="42.637164" lon="-6.854889">
        <ele>560.085</ele>
        <time>2013-02-08T21:34:20Z</time>
      </trkpt>
      <trkpt lat="42.637345" lon="-6.855136">
        <ele>560.027</ele>
        <time>2013-02-08T21:34:40Z</time>
      </trkpt>
      <trkpt lat="42.637479" lon="-6.855329">
        <ele>561.089</ele>
        <time>2013-02-08T21:35:00Z</time>
      </trkpt>
      <trkpt lat="42.637629" lon="-6.855501">
        <ele>560.070</ele>
        <time>2013-02-08T21:35:20Z</time>
      </trkpt>
      <trkpt lat="42.637748" lon="-6.855630">
        <ele>559.027</ele>
        <time>2013-02-08T21:35:40Z</time>
      </trkpt>
      <trkpt lat="42.637882" lon="-6.855844">
        <ele>556.068</ele>
        <time>2013-02-08T21:36:00Z</time>
      </trkpt>
      <trkpt lat="42.638087" lon="-6.856220">
        <ele>551.014</ele>
        <time>2013-02-08T21:36:20Z</time>
      </trkpt>
      <trkpt lat="42.638158" lon="-6.856391">
        <ele>549.007</ele>
        <time>2013-02-08T21:36:40Z</time>
      </trkpt>
      <trkpt lat="42.638316" lon="-6.856660">
        <ele>548.075</ele>
        <time>2013-02-08T21:37:00Z</time>
      </trkpt>
      <trkpt lat="42.638387" lon="-6.856842">
        <ele>546.011</ele>
        <time>2013-02-08T21:37:20Z</time>
      </trkpt>
      <trkpt lat="42.638466" lon="-6.857003">
        <ele>546.087</ele>
        <time>2013-02-08T21:37:40Z</time>
      </trkpt>
      <trkpt lat="42.638498" lon="-6.857110">
        <ele>548.090</ele>
        <time>2013-02-08T21:38:00Z</time>
      </trkpt>
      <trkpt lat="42.638521" lon="-6.857293">
        <ele>548.092</ele>
        <time>2013-02-08T21:38:20Z</time>
      </trkpt>
      <trkpt lat="42.638600" lon="-6.857743">
        <ele>545.084</ele>
        <time>2013-02-08T21:38:40Z</time>
      </trkpt>
      <trkpt lat="42.638679" lon="-6.858130">
        <ele>545.095</ele>
        <time>2013-02-08T21:39:00Z</time>
      </trkpt>
      <trkpt lat="42.638750" lon="-6.858559">
        <ele>549.098</ele>
        <time>2013-02-08T21:39:20Z</time>
      </trkpt>
      <trkpt lat="42.638797" lon="-6.858784">
        <ele>550.015</ele>
        <time>2013-02-08T21:39:40Z</time>
      </trkpt>
      <trkpt lat="42.638829" lon="-6.859041">
        <ele>551.026</ele>
        <time>2013-02-08T21:40:00Z</time>
      </trkpt>
      <trkpt lat="42.638805" lon="-6.859277">
        <ele>551.007</ele>
        <time>2013-02-08T21:40:20Z</time>
      </trkpt>
      <trkpt lat="42.638876" lon="-6.859610">
        <ele>552.022</ele>
        <time>2013-02-08T21:40:40Z</time>
      </trkpt>
      <trkpt lat="42.638916" lon="-6.859782">
        <ele>552.018</ele>
        <time>2013-02-08T21:41:00Z</time>
      </trkpt>
      <trkpt lat="42.638924" lon="-6.859986">
        <ele>553.084</ele>
        <time>2013-02-08T21:41:20Z</time>
      </trkpt>
      <trkpt lat="42.638924" lon="-6.860222">
        <ele>555.017</ele>
        <time>2013-02-08T21:41:40Z</time>
      </trkpt>
      <trkpt lat="42.638924" lon="-6.860350">
        <ele>555.059</ele>
        <time>2013-02-08T21:42:00Z</time>
      </trkpt>
      <trkpt lat="42.638845" lon="-6.860855">
        <ele>562.041</ele>
        <time>2013-02-08T21:42:20Z</time>
      </trkpt>
      <trkpt lat="42.638726" lon="-6.861005">
        <ele>563.042</ele>
        <time>2013-02-08T21:42:40Z</time>
      </trkpt>
      <trkpt lat="42.638640" lon="-6.861187">
        <ele>563.084</ele>
        <time>2013-02-08T21:43:00Z</time>
      </trkpt>
      <trkpt lat="42.638569" lon="-6.861284">
        <ele>568.007</ele>
        <time>2013-02-08T21:43:20Z</time>
      </trkpt>
      <trkpt lat="42.638482" lon="-6.861402">
        <ele>568.017</ele>
        <time>2013-02-08T21:43:40Z</time>
      </trkpt>
      <trkpt lat="42.638395" lon="-6.861541">
        <ele>566.007</ele>
        <time>2013-02-08T21:44:00Z</time>
      </trkpt>
      <trkpt lat="42.638292" lon="-6.861670">
        <ele>566.051</ele>
        <time>2013-02-08T21:44:20Z</time>
      </trkpt>
      <trkpt lat="42.638205" lon="-6.861756">
        <ele>566.047</ele>
        <time>2013-02-08T21:44:40Z</time>
      </trkpt>
      <trkpt lat="42.638095" lon="-6.861906">
        <ele>563.083</ele>
        <time>2013-02-08T21:45:00Z</time>
      </trkpt>
      <trkpt lat="42.638008" lon="-6.862131">
        <ele>563.066</ele>
        <time>2013-02-08T21:45:20Z</time>
      </trkpt>
      <trkpt lat="42.637953" lon="-6.862378">
        <ele>562.028</ele>
        <time>2013-02-08T21:45:40Z</time>
      </trkpt>
      <trkpt lat="42.637945" lon="-6.862668">
        <ele>562.080</ele>
        <time>2013-02-08T21:46:00Z</time>
      </trkpt>
      <trkpt lat="42.637961" lon="-6.863043">
        <ele>564.021</ele>
        <time>2013-02-08T21:46:20Z</time>
      </trkpt>
      <trkpt lat="42.638016" lon="-6.863236">
        <ele>566.093</ele>
        <time>2013-02-08T21:46:40Z</time>
      </trkpt>
      <trkpt lat="42.638087" lon="-6.863312">
        <ele>566.065</ele>
        <time>2013-02-08T21:47:00Z</time>
      </trkpt>
      <trkpt lat="42.638229" lon="-6.863526">
        <ele>568.021</ele>
        <time>2013-02-08T21:47:20Z</time>
      </trkpt>
      <trkpt lat="42.638308" lon="-6.863784">
        <ele>567.007</ele>
        <time>2013-02-08T21:47:40Z</time>
      </trkpt>
      <trkpt lat="42.638411" lon="-6.863945">
        <ele>567.042</ele>
        <time>2013-02-08T21:48:00Z</time>
      </trkpt>
      <trkpt lat="42.638545" lon="-6.864127">
        <ele>566.068</ele>
        <time>2013-02-08T21:48:20Z</time>
      </trkpt>
      <trkpt lat="42.638711" lon="-6.864481">
        <ele>565.064</ele>
        <time>2013-02-08T21:48:40Z</time>
      </trkpt>
      <trkpt lat="42.638782" lon="-6.864620">
        <ele>563.087</ele>
        <time>2013-02-08T21:49:00Z</time>
      </trkpt>
      <trkpt lat="42.638813" lon="-6.864717">
        <ele>563.069</ele>
        <time>2013-02-08T21:49:20Z</time>
      </trkpt>
      <trkpt lat="42.638971" lon="-6.864953">
        <ele>561.051</ele>
        <time>2013-02-08T21:49:40Z</time>
      </trkpt>
      <trkpt lat="42.639074" lon="-6.865135">
        <ele>559.032</ele>
        <time>2013-02-08T21:50:00Z</time>
      </trkpt>
      <trkpt lat="42.639153" lon="-6.865339">
        <ele>557.081</ele>
        <time>2013-02-08T21:50:20Z</time>
      </trkpt>
      <trkpt lat="42.639279" lon="-6.865543">
        <ele>557.061</ele>
        <time>2013-02-08T21:50:40Z</time>
      </trkpt>
      <trkpt lat="42.639389" lon="-6.865726">
        <ele>557.017</ele>
        <time>2013-02-08T21:51:00Z</time>
      </trkpt>
      <trkpt lat="42.639468" lon="-6.865876">
        <ele>557.007</ele>
        <time>2013-02-08T21:51:20Z</time>
      </trkpt>
      <trkpt lat="42.639563" lon="-6.866090">
        <ele>558.081</ele>
        <time>2013-02-08T21:51:40Z</time>
      </trkpt>
      <trkpt lat="42.639610" lon="-6.866273">
        <ele>560.097</ele>
        <time>2013-02-08T21:52:00Z</time>
      </trkpt>
      <trkpt lat="42.639752" lon="-6.866487">
        <ele>560.033</ele>
        <time>2013-02-08T21:52:20Z</time>
      </trkpt>
      <trkpt lat="42.639839" lon="-6.866713">
        <ele>564.026</ele>
        <time>2013-02-08T21:52:40Z</time>
      </trkpt>
      <trkpt lat="42.639902" lon="-6.866863">
        <ele>565.018</ele>
        <time>2013-02-08T21:53:00Z</time>
      </trkpt>
      <trkpt lat="42.640021" lon="-6.867099">
        <ele>567.020</ele>
        <time>2013-02-08T21:53:20Z</time>
      </trkpt>
      <trkpt lat="42.640115" lon="-6.867281">
        <ele>567.011</ele>
        <time>2013-02-08T21:53:40Z</time>
      </trkpt>
      <trkpt lat="42.640218" lon="-6.867453">
        <ele>565.091</ele>
        <time>2013-02-08T21:54:00Z</time>
      </trkpt>
      <trkpt lat="42.640329" lon="-6.867710">
        <ele>569.081</ele>
        <time>2013-02-08T21:54:20Z</time>
      </trkpt>
      <trkpt lat="42.640344" lon="-6.867785">
        <ele>569.019</ele>
        <time>2013-02-08T21:54:40Z</time>
      </trkpt>
      <trkpt lat="42.640510" lon="-6.868204">
        <ele>571.007</ele>
        <time>2013-02-08T21:55:00Z</time>
      </trkpt>
      <trkpt lat="42.640573" lon="-6.868268">
        <ele>571.022</ele>
        <time>2013-02-08T21:55:20Z</time>
      </trkpt>
      <trkpt lat="42.640707" lon="-6.868483">
        <ele>569.028</ele>
        <time>2013-02-08T21:55:40Z</time>
      </trkpt>
      <trkpt lat="42.640778" lon="-6.868612">
        <ele>569.014</ele>
        <time>2013-02-08T21:56:00Z</time>
      </trkpt>
      <trkpt lat="42.641181" lon="-6.869373">
        <ele>572.057</ele>
        <time>2013-02-08T21:56:20Z</time>
      </trkpt>
      <trkpt lat="42.641560" lon="-6.869931">
        <ele>568.059</ele>
        <time>2013-02-08T21:56:40Z</time>
      </trkpt>
      <trkpt lat="42.641670" lon="-6.870028">
        <ele>568.011</ele>
        <time>2013-02-08T21:57:00Z</time>
      </trkpt>
      <trkpt lat="42.641765" lon="-6.870189">
        <ele>573.092</ele>
        <time>2013-02-08T21:57:20Z</time>
      </trkpt>
      <trkpt lat="42.641883" lon="-6.870393">
        <ele>568.012</ele>
        <time>2013-02-08T21:57:40Z</time>
      </trkpt>
      <trkpt lat="42.642057" lon="-6.870553">
        <ele>574.032</ele>
        <time>2013-02-08T21:58:00Z</time>
      </trkpt>
      <trkpt lat="42.642183" lon="-6.870672">
        <ele>569.005</ele>
        <time>2013-02-08T21:58:20Z</time>
      </trkpt>
      <trkpt lat="42.642333" lon="-6.870908">
        <ele>575.007</ele>
        <time>2013-02-08T21:58:40Z</time>
      </trkpt>
      <trkpt lat="42.642507" lon="-6.871079">
        <ele>575.034</ele>
        <time>2013-02-08T21:59:00Z</time>
      </trkpt>
      <trkpt lat="42.642641" lon="-6.871251">
        <ele>573.020</ele>
        <time>2013-02-08T21:59:20Z</time>
      </trkpt>
      <trkpt lat="42.642775" lon="-6.871315">
        <ele>573.026</ele>
        <time>2013-02-08T21:59:40Z</time>
      </trkpt>
      <trkpt lat="42.642917" lon="-6.871476">
        <ele>566.049</ele>
        <time>2013-02-08T22:00:00Z</time>
      </trkpt>
      <trkpt lat="42.643099" lon="-6.871669">
        <ele>570.091</ele>
        <time>2013-02-08T22:00:20Z</time>
      </trkpt>
      <trkpt lat="42.643272" lon="-6.871830">
        <ele>567.053</ele>
        <time>2013-02-08T22:00:40Z</time>
      </trkpt>
      <trkpt lat="42.643430" lon="-6.871970">
        <ele>567.054</ele>
        <time>2013-02-08T22:01:00Z</time>
      </trkpt>
      <trkpt lat="42.643572" lon="-6.872131">
        <ele>567.011</ele>
        <time>2013-02-08T22:01:20Z</time>
      </trkpt>
      <trkpt lat="42.643738" lon="-6.872302">
        <ele>567.021</ele>
        <time>2013-02-08T22:01:40Z</time>
      </trkpt>
      <trkpt lat="42.643975" lon="-6.872517">
        <ele>568.003</ele>
        <time>2013-02-08T22:02:00Z</time>
      </trkpt>
      <trkpt lat="42.644148" lon="-6.872635">
        <ele>564.007</ele>
        <time>2013-02-08T22:02:20Z</time>
      </trkpt>
      <trkpt lat="42.644275" lon="-6.872753">
        <ele>567.094</ele>
        <time>2013-02-08T22:02:40Z</time>
      </trkpt>
      <trkpt lat="42.644456" lon="-6.872967">
        <ele>565.030</ele>
        <time>2013-02-08T22:03:00Z</time>
      </trkpt>
      <trkpt lat="42.644795" lon="-6.873311">
        <ele>561.076</ele>
        <time>2013-02-08T22:03:20Z</time>
      </trkpt>
      <trkpt lat="42.644938" lon="-6.873525">
        <ele>556.059</ele>
        <time>2013-02-08T22:03:40Z</time>
      </trkpt>
      <trkpt lat="42.645222" lon="-6.873740">
        <ele>552.041</ele>
        <time>2013-02-08T22:04:00Z</time>
      </trkpt>
      <trkpt lat="42.645427" lon="-6.874040">
        <ele>550.063</ele>
        <time>2013-02-08T22:04:20Z</time>
      </trkpt>
      <trkpt lat="42.645671" lon="-6.874341">
        <ele>550.044</ele>
        <time>2013-02-08T22:04:40Z</time>
      </trkpt>
      <trkpt lat="42.645814" lon="-6.874502">
        <ele>549.085</ele>
        <time>2013-02-08T22:05:00Z</time>
      </trkpt>
      <trkpt lat="42.646169" lon="-6.875135">
        <ele>547.089</ele>
        <time>2013-02-08T22:05:20Z</time>
      </trkpt>
      <trkpt lat="42.646255" lon="-6.875188">
        <ele>546.017</ele>
        <time>2013-02-08T22:05:40Z</time>
      </trkpt>
      <trkpt lat="42.646508" lon="-6.875371">
        <ele>546.007</ele>
        <time>2013-02-08T22:06:00Z</time>
      </trkpt>
      <trkpt lat="42.646532" lon="-6.875457">
        <ele>546.061</ele>
        <time>2013-02-08T22:06:20Z</time>
      </trkpt>
      <trkpt lat="42.647226" lon="-6.876819">
        <ele>548.077</ele>
        <time>2013-02-08T22:06:40Z</time>
      </trkpt>
      <trkpt lat="42.647281" lon="-6.876980">
        <ele>548.043</ele>
        <time>2013-02-08T22:07:00Z</time>
      </trkpt>
      <trkpt lat="42.647384" lon="-6.877313">
        <ele>550.056</ele>
        <time>2013-02-08T22:07:20Z</time>
      </trkpt>
      <trkpt lat="42.647463" lon="-6.877431">
        <ele>549.098</ele>
        <time>2013-02-08T22:07:40Z</time>
      </trkpt>
      <trkpt lat="42.647810" lon="-6.877398">
        <ele>552.030</ele>
        <time>2013-02-08T22:08:00Z</time>
      </trkpt>
      <trkpt lat="42.648047" lon="-6.877592">
        <ele>556.021</ele>
        <time>2013-02-08T22:08:20Z</time>
      </trkpt>
      <trkpt lat="42.648094" lon="-6.878064">
        <ele>554.051</ele>
        <time>2013-02-08T22:08:40Z</time>
      </trkpt>
      <trkpt lat="42.648268" lon="-6.878407">
        <ele>558.001</ele>
        <time>2013-02-08T22:09:00Z</time>
      </trkpt>
      <trkpt lat="42.648410" lon="-6.878579">
        <ele>557.011</ele>
        <time>2013-02-08T22:09:20Z</time>
      </trkpt>
      <trkpt lat="42.648528" lon="-6.878858">
        <ele>561.007</ele>
        <time>2013-02-08T22:09:40Z</time>
      </trkpt>
      <trkpt lat="42.648623" lon="-6.879115">
        <ele>560.058</ele>
        <time>2013-02-08T22:10:00Z</time>
      </trkpt>
      <trkpt lat="42.648662" lon="-6.879255">
        <ele>560.084</ele>
        <time>2013-02-08T22:10:20Z</time>
      </trkpt>
      <trkpt lat="42.648757" lon="-6.879652">
        <ele>563.010</ele>
        <time>2013-02-08T22:10:40Z</time>
      </trkpt>
      <trkpt lat="42.649017" lon="-6.879995">
        <ele>562.053</ele>
        <time>2013-02-08T22:11:00Z</time>
      </trkpt>
      <trkpt lat="42.649112" lon="-6.880177">
        <ele>566.055</ele>
        <time>2013-02-08T22:11:20Z</time>
      </trkpt>
      <trkpt lat="42.649159" lon="-6.880317">
        <ele>566.097</ele>
        <time>2013-02-08T22:11:40Z</time>
      </trkpt>
      <trkpt lat="42.649199" lon="-6.880424">
        <ele>565.028</ele>
        <time>2013-02-08T22:12:00Z</time>
      </trkpt>
      <trkpt lat="42.649270" lon="-6.880660">
        <ele>565.041</ele>
        <time>2013-02-08T22:12:20Z</time>
      </trkpt>
      <trkpt lat="42.649302" lon="-6.880778">
        <ele>564.081</ele>
        <time>2013-02-08T22:12:40Z</time>
      </trkpt>
      <trkpt lat="42.649325" lon="-6.881121">
        <ele>569.009</ele>
        <time>2013-02-08T22:13:00Z</time>
      </trkpt>
      <trkpt lat="42.649365" lon="-6.881433">
        <ele>568.007</ele>
        <time>2013-02-08T22:13:20Z</time>
      </trkpt>
      <trkpt lat="42.649404" lon="-6.881690">
        <ele>568.037</ele>
        <time>2013-02-08T22:13:40Z</time>
      </trkpt>
      <trkpt lat="42.649436" lon="-6.882044">
        <ele>568.063</ele>
        <time>2013-02-08T22:14:00Z</time>
      </trkpt>
      <trkpt lat="42.649436" lon="-6.882259">
        <ele>568.029</ele>
        <time>2013-02-08T22:14:20Z</time>
      </trkpt>
      <trkpt lat="42.649459" lon="-6.882516">
        <ele>568.062</ele>
        <time>2013-02-08T22:14:40Z</time>
      </trkpt>
      <trkpt lat="42.649483" lon="-6.882731">
        <ele>568.044</ele>
        <time>2013-02-08T22:15:00Z</time>
      </trkpt>
      <trkpt lat="42.649546" lon="-6.883053">
        <ele>568.096</ele>
        <time>2013-02-08T22:15:20Z</time>
      </trkpt>
      <trkpt lat="42.649586" lon="-6.883203">
        <ele>575.017</ele>
        <time>2013-02-08T22:15:40Z</time>
      </trkpt>
      <trkpt lat="42.649641" lon="-6.883471">
        <ele>575.089</ele>
        <time>2013-02-08T22:16:00Z</time>
      </trkpt>
      <trkpt lat="42.649720" lon="-6.883879">
        <ele>575.006</ele>
        <time>2013-02-08T22:16:20Z</time>
      </trkpt>
      <trkpt lat="42.649751" lon="-6.884329">
        <ele>575.026</ele>
        <time>2013-02-08T22:16:40Z</time>
      </trkpt>
      <trkpt lat="42.649791" lon="-6.884694">
        <ele>576.007</ele>
        <time>2013-02-08T22:17:00Z</time>
      </trkpt>
      <trkpt lat="42.649822" lon="-6.884866">
        <ele>577.061</ele>
        <time>2013-02-08T22:17:20Z</time>
      </trkpt>
      <trkpt lat="42.649917" lon="-6.885091">
        <ele>583.057</ele>
        <time>2013-02-08T22:17:40Z</time>
      </trkpt>
      <trkpt lat="42.649980" lon="-6.885177">
        <ele>582.043</ele>
        <time>2013-02-08T22:18:00Z</time>
      </trkpt>
      <trkpt lat="42.650028" lon="-6.885263">
        <ele>582.036</ele>
        <time>2013-02-08T22:18:20Z</time>
      </trkpt>
      <trkpt lat="42.650083" lon="-6.885424">
        <ele>581.018</ele>
        <time>2013-02-08T22:18:40Z</time>
      </trkpt>
      <trkpt lat="42.650162" lon="-6.885628">
        <ele>588.030</ele>
        <time>2013-02-08T22:19:00Z</time>
      </trkpt>
      <trkpt lat="42.650225" lon="-6.885724">
        <ele>584.051</ele>
        <time>2013-02-08T22:19:20Z</time>
      </trkpt>
      <trkpt lat="42.650335" lon="-6.886035">
        <ele>581.058</ele>
        <time>2013-02-08T22:19:40Z</time>
      </trkpt>
      <trkpt lat="42.650398" lon="-6.886185">
        <ele>581.052</ele>
        <time>2013-02-08T22:20:00Z</time>
      </trkpt>
      <trkpt lat="42.650430" lon="-6.886357">
        <ele>585.017</ele>
        <time>2013-02-08T22:20:20Z</time>
      </trkpt>
      <trkpt lat="42.650462" lon="-6.886486">
        <ele>585.007</ele>
        <time>2013-02-08T22:20:40Z</time>
      </trkpt>
      <trkpt lat="42.650485" lon="-6.886722">
        <ele>582.058</ele>
        <time>2013-02-08T22:21:00Z</time>
      </trkpt>
      <trkpt lat="42.650517" lon="-6.886979">
        <ele>578.064</ele>
        <time>2013-02-08T22:21:20Z</time>
      </trkpt>
      <trkpt lat="42.650556" lon="-6.887130">
        <ele>574.050</ele>
        <time>2013-02-08T22:21:40Z</time>
      </trkpt>
      <trkpt lat="42.650651" lon="-6.887312">
        <ele>574.083</ele>
        <time>2013-02-08T22:22:00Z</time>
      </trkpt>
      <trkpt lat="42.650817" lon="-6.887484">
        <ele>575.035</ele>
        <time>2013-02-08T22:22:20Z</time>
      </trkpt>
      <trkpt lat="42.651014" lon="-6.887645">
        <ele>574.037</ele>
        <time>2013-02-08T22:22:40Z</time>
      </trkpt>
      <trkpt lat="42.651345" lon="-6.887784">
        <ele>577.068</ele>
        <time>2013-02-08T22:23:00Z</time>
      </trkpt>
      <trkpt lat="42.651456" lon="-6.887999">
        <ele>571.061</ele>
        <time>2013-02-08T22:23:20Z</time>
      </trkpt>
      <trkpt lat="42.651637" lon="-6.888181">
        <ele>574.021</ele>
        <time>2013-02-08T22:23:40Z</time>
      </trkpt>
      <trkpt lat="42.651740" lon="-6.888288">
        <ele>569.013</ele>
        <time>2013-02-08T22:24:00Z</time>
      </trkpt>
      <trkpt lat="42.651850" lon="-6.888406">
        <ele>572.007</ele>
        <time>2013-02-08T22:24:20Z</time>
      </trkpt>
      <trkpt lat="42.651961" lon="-6.888556">
        <ele>568.079</ele>
        <time>2013-02-08T22:24:40Z</time>
      </trkpt>
      <trkpt lat="42.652150" lon="-6.888717">
        <ele>570.095</ele>
        <time>2013-02-08T22:25:00Z</time>
      </trkpt>
      <trkpt lat="42.652474" lon="-6.888889">
        <ele>570.021</ele>
        <time>2013-02-08T22:25:20Z</time>
      </trkpt>
      <trkpt lat="42.652774" lon="-6.889114">
        <ele>570.034</ele>
        <time>2013-02-08T22:25:40Z</time>
      </trkpt>
      <trkpt lat="42.652876" lon="-6.889243">
        <ele>570.036</ele>
        <time>2013-02-08T22:26:00Z</time>
      </trkpt>
      <trkpt lat="42.653002" lon="-6.889372">
        <ele>568.018</ele>
        <time>2013-02-08T22:26:20Z</time>
      </trkpt>
      <trkpt lat="42.653326" lon="-6.889490">
        <ele>568.059</ele>
        <time>2013-02-08T22:26:40Z</time>
      </trkpt>
      <trkpt lat="42.653578" lon="-6.889576">
        <ele>570.017</ele>
        <time>2013-02-08T22:27:00Z</time>
      </trkpt>
      <trkpt lat="42.653720" lon="-6.889790">
        <ele>568.087</ele>
        <time>2013-02-08T22:27:20Z</time>
      </trkpt>
      <trkpt lat="42.653870" lon="-6.889962">
        <ele>568.015</ele>
        <time>2013-02-08T22:27:40Z</time>
      </trkpt>
      <trkpt lat="42.654107" lon="-6.890241">
        <ele>569.007</ele>
        <time>2013-02-08T22:28:00Z</time>
      </trkpt>
      <trkpt lat="42.653894" lon="-6.890112">
        <ele>568.064</ele>
        <time>2013-02-08T22:28:20Z</time>
      </trkpt>
      <trkpt lat="42.653752" lon="-6.890091">
        <ele>568.030</ele>
        <time>2013-02-08T22:28:40Z</time>
      </trkpt>
      <trkpt lat="42.653578" lon="-6.890026">
        <ele>566.056</ele>
        <time>2013-02-08T22:29:00Z</time>
      </trkpt>
      <trkpt lat="42.653421" lon="-6.890080">
        <ele>566.099</ele>
        <time>2013-02-08T22:29:20Z</time>
      </trkpt>
      <trkpt lat="42.653697" lon="-6.890348">
        <ele>564.051</ele>
        <time>2013-02-08T22:29:40Z</time>
      </trkpt>
      <trkpt lat="42.654005" lon="-6.890531">
        <ele>564.083</ele>
        <time>2013-02-08T22:30:00Z</time>
      </trkpt>
      <trkpt lat="42.654170" lon="-6.890938">
        <ele>565.084</ele>
        <time>2013-02-08T22:30:20Z</time>
      </trkpt>
      <trkpt lat="42.654273" lon="-6.891035">
        <ele>563.016</ele>
        <time>2013-02-08T22:30:40Z</time>
      </trkpt>
      <trkpt lat="42.654470" lon="-6.891174">
        <ele>566.076</ele>
        <time>2013-02-08T22:31:00Z</time>
      </trkpt>
      <trkpt lat="42.654581" lon="-6.891303">
        <ele>565.013</ele>
        <time>2013-02-08T22:31:20Z</time>
      </trkpt>
      <trkpt lat="42.654675" lon="-6.891603">
        <ele>569.007</ele>
        <time>2013-02-08T22:31:40Z</time>
      </trkpt>
      <trkpt lat="42.654723" lon="-6.891689">
        <ele>569.054</ele>
        <time>2013-02-08T22:32:00Z</time>
      </trkpt>
      <trkpt lat="42.654849" lon="-6.891893">
        <ele>572.050</ele>
        <time>2013-02-08T22:32:20Z</time>
      </trkpt>
      <trkpt lat="42.654991" lon="-6.892247">
        <ele>576.096</ele>
        <time>2013-02-08T22:32:40Z</time>
      </trkpt>
      <trkpt lat="42.655046" lon="-6.892376">
        <ele>577.039</ele>
        <time>2013-02-08T22:33:00Z</time>
      </trkpt>
      <trkpt lat="42.655133" lon="-6.892601">
        <ele>577.051</ele>
        <time>2013-02-08T22:33:20Z</time>
      </trkpt>
      <trkpt lat="42.655220" lon="-6.892751">
        <ele>576.023</ele>
        <time>2013-02-08T22:33:40Z</time>
      </trkpt>
      <trkpt lat="42.655291" lon="-6.892966">
        <ele>577.024</ele>
        <time>2013-02-08T22:34:00Z</time>
      </trkpt>
      <trkpt lat="42.655322" lon="-6.893106">
        <ele>577.068</ele>
        <time>2013-02-08T22:34:20Z</time>
      </trkpt>
      <trkpt lat="42.655362" lon="-6.893374">
        <ele>578.042</ele>
        <time>2013-02-08T22:34:40Z</time>
      </trkpt>
      <trkpt lat="42.655401" lon="-6.893535">
        <ele>577.026</ele>
        <time>2013-02-08T22:35:00Z</time>
      </trkpt>
      <trkpt lat="42.655425" lon="-6.893749">
        <ele>573.007</ele>
        <time>2013-02-08T22:35:20Z</time>
      </trkpt>
      <trkpt lat="42.655456" lon="-6.894007">
        <ele>574.069</ele>
        <time>2013-02-08T22:35:40Z</time>
      </trkpt>
      <trkpt lat="42.655456" lon="-6.894157">
        <ele>576.095</ele>
        <time>2013-02-08T22:36:00Z</time>
      </trkpt>
      <trkpt lat="42.655448" lon="-6.894425">
        <ele>576.051</ele>
        <time>2013-02-08T22:36:20Z</time>
      </trkpt>
      <trkpt lat="42.655448" lon="-6.894575">
        <ele>576.064</ele>
        <time>2013-02-08T22:36:40Z</time>
      </trkpt>
      <trkpt lat="42.655448" lon="-6.894822">
        <ele>576.096</ele>
        <time>2013-02-08T22:37:00Z</time>
      </trkpt>
      <trkpt lat="42.655433" lon="-6.894962">
        <ele>576.078</ele>
        <time>2013-02-08T22:37:20Z</time>
      </trkpt>
      <trkpt lat="42.655441" lon="-6.895316">
        <ele>577.019</ele>
        <time>2013-02-08T22:37:40Z</time>
      </trkpt>
      <trkpt lat="42.655425" lon="-6.895380">
        <ele>577.033</ele>
        <time>2013-02-08T22:38:00Z</time>
      </trkpt>
      <trkpt lat="42.655409" lon="-6.895713">
        <ele>576.023</ele>
        <time>2013-02-08T22:38:20Z</time>
      </trkpt>
      <trkpt lat="42.655346" lon="-6.895970">
        <ele>576.015</ele>
        <time>2013-02-08T22:38:40Z</time>
      </trkpt>
      <trkpt lat="42.655235" lon="-6.896464">
        <ele>575.007</ele>
        <time>2013-02-08T22:39:00Z</time>
      </trkpt>
      <trkpt lat="42.655188" lon="-6.896635">
        <ele>575.016</ele>
        <time>2013-02-08T22:39:20Z</time>
      </trkpt>
      <trkpt lat="42.655149" lon="-6.896785">
        <ele>575.012</ele>
        <time>2013-02-08T22:39:40Z</time>
      </trkpt>
      <trkpt lat="42.655117" lon="-6.896979">
        <ele>576.098</ele>
        <time>2013-02-08T22:40:00Z</time>
      </trkpt>
      <trkpt lat="42.655046" lon="-6.897129">
        <ele>577.071</ele>
        <time>2013-02-08T22:40:20Z</time>
      </trkpt>
      <trkpt lat="42.654951" lon="-6.897322">
        <ele>577.023</ele>
        <time>2013-02-08T22:40:40Z</time>
      </trkpt>
      <trkpt lat="42.654912" lon="-6.897547">
        <ele>578.015</ele>
        <time>2013-02-08T22:41:00Z</time>
      </trkpt>
      <trkpt lat="42.654849" lon="-6.897762">
        <ele>584.086</ele>
        <time>2013-02-08T22:41:20Z</time>
      </trkpt>
      <trkpt lat="42.654778" lon="-6.897976">
        <ele>585.042</ele>
        <time>2013-02-08T22:41:40Z</time>
      </trkpt>
      <trkpt lat="42.654707" lon="-6.898320">
        <ele>585.022</ele>
        <time>2013-02-08T22:42:00Z</time>
      </trkpt>
      <trkpt lat="42.654667" lon="-6.898448">
        <ele>585.014</ele>
        <time>2013-02-08T22:42:20Z</time>
      </trkpt>
      <trkpt lat="42.654596" lon="-6.898695">
        <ele>586.007</ele>
        <time>2013-02-08T22:42:40Z</time>
      </trkpt>
      <trkpt lat="42.654557" lon="-6.898963">
        <ele>588.057</ele>
        <time>2013-02-08T22:43:00Z</time>
      </trkpt>
      <trkpt lat="42.654525" lon="-6.899532">
        <ele>586.073</ele>
        <time>2013-02-08T22:43:20Z</time>
      </trkpt>
      <trkpt lat="42.654525" lon="-6.899714">
        <ele>584.079</ele>
        <time>2013-02-08T22:43:40Z</time>
      </trkpt>
      <trkpt lat="42.654533" lon="-6.899875">
        <ele>583.052</ele>
        <time>2013-02-08T22:44:00Z</time>
      </trkpt>
      <trkpt lat="42.654541" lon="-6.900090">
        <ele>583.024</ele>
        <time>2013-02-08T22:44:20Z</time>
      </trkpt>
      <trkpt lat="42.654549" lon="-6.900272">
        <ele>580.046</ele>
        <time>2013-02-08T22:44:40Z</time>
      </trkpt>
      <trkpt lat="42.654596" lon="-6.900498">
        <ele>583.087</ele>
        <time>2013-02-08T22:45:00Z</time>
      </trkpt>
      <trkpt lat="42.654620" lon="-6.900637">
        <ele>583.061</ele>
        <time>2013-02-08T22:45:20Z</time>
      </trkpt>
      <trkpt lat="42.654659" lon="-6.900873">
        <ele>583.021</ele>
        <time>2013-02-08T22:45:40Z</time>
      </trkpt>
      <trkpt lat="42.654691" lon="-6.900991">
        <ele>585.013</ele>
        <time>2013-02-08T22:46:00Z</time>
      </trkpt>
      <trkpt lat="42.654738" lon="-6.901227">
        <ele>585.007</ele>
        <time>2013-02-08T22:46:20Z</time>
      </trkpt>
      <trkpt lat="42.654786" lon="-6.901388">
        <ele>589.049</ele>
        <time>2013-02-08T22:46:40Z</time>
      </trkpt>
      <trkpt lat="42.654794" lon="-6.901528">
        <ele>589.045</ele>
        <time>2013-02-08T22:47:00Z</time>
      </trkpt>
      <trkpt lat="42.654841" lon="-6.901882">
        <ele>595.011</ele>
        <time>2013-02-08T22:47:20Z</time>
      </trkpt>
      <trkpt lat="42.654896" lon="-6.902032">
        <ele>593.024</ele>
        <time>2013-02-08T22:47:40Z</time>
      </trkpt>
      <trkpt lat="42.654951" lon="-6.902182">
        <ele>594.086</ele>
        <time>2013-02-08T22:48:00Z</time>
      </trkpt>
      <trkpt lat="42.654999" lon="-6.902397">
        <ele>594.068</ele>
        <time>2013-02-08T22:48:20Z</time>
      </trkpt>
      <trkpt lat="42.655038" lon="-6.902579">
        <ele>594.059</ele>
        <time>2013-02-08T22:48:40Z</time>
      </trkpt>
      <trkpt lat="42.655054" lon="-6.902719">
        <ele>594.066</ele>
        <time>2013-02-08T22:49:00Z</time>
      </trkpt>
      <trkpt lat="42.655133" lon="-6.902965">
        <ele>595.029</ele>
        <time>2013-02-08T22:49:20Z</time>
      </trkpt>
      <trkpt lat="42.655180" lon="-6.903158">
        <ele>594.021</ele>
        <time>2013-02-08T22:49:40Z</time>
      </trkpt>
      <trkpt lat="42.655220" lon="-6.903373">
        <ele>595.007</ele>
        <time>2013-02-08T22:50:00Z</time>
      </trkpt>
      <trkpt lat="42.655243" lon="-6.903577">
        <ele>595.079</ele>
        <time>2013-02-08T22:50:20Z</time>
      </trkpt>
      <trkpt lat="42.655275" lon="-6.903759">
        <ele>595.025</ele>
        <time>2013-02-08T22:50:40Z</time>
      </trkpt>
      <trkpt lat="42.655306" lon="-6.903963">
        <ele>595.021</ele>
        <time>2013-02-08T22:51:00Z</time>
      </trkpt>
      <trkpt lat="42.655354" lon="-6.904113">
        <ele>595.044</ele>
        <time>2013-02-08T22:51:20Z</time>
      </trkpt>
      <trkpt lat="42.655417" lon="-6.904317">
        <ele>595.016</ele>
        <time>2013-02-08T22:51:40Z</time>
      </trkpt>
      <trkpt lat="42.655527" lon="-6.904682">
        <ele>596.038</ele>
        <time>2013-02-08T22:52:00Z</time>
      </trkpt>
      <trkpt lat="42.655575" lon="-6.904757">
        <ele>596.019</ele>
        <time>2013-02-08T22:52:20Z</time>
      </trkpt>
      <trkpt lat="42.655654" lon="-6.905025">
        <ele>600.052</ele>
        <time>2013-02-08T22:52:40Z</time>
      </trkpt>
      <trkpt lat="42.655890" lon="-6.905251">
        <ele>600.053</ele>
        <time>2013-02-08T22:53:00Z</time>
      </trkpt>
      <trkpt lat="42.655961" lon="-6.905401">
        <ele>600.008</ele>
        <time>2013-02-08T22:53:20Z</time>
      </trkpt>
      <trkpt lat="42.656095" lon="-6.905594">
        <ele>599.007</ele>
        <time>2013-02-08T22:53:40Z</time>
      </trkpt>
      <trkpt lat="42.656214" lon="-6.905723">
        <ele>601.068</ele>
        <time>2013-02-08T22:54:00Z</time>
      </trkpt>
      <trkpt lat="42.656372" lon="-6.905873">
        <ele>598.084</ele>
        <time>2013-02-08T22:54:20Z</time>
      </trkpt>
      <trkpt lat="42.656506" lon="-6.906066">
        <ele>599.070</ele>
        <time>2013-02-08T22:54:40Z</time>
      </trkpt>
      <trkpt lat="42.656553" lon="-6.906173">
        <ele>597.043</ele>
        <time>2013-02-08T22:55:00Z</time>
      </trkpt>
      <trkpt lat="42.656616" lon="-6.906356">
        <ele>597.055</ele>
        <time>2013-02-08T22:55:20Z</time>
      </trkpt>
      <trkpt lat="42.656656" lon="-6.906463">
        <ele>597.027</ele>
        <time>2013-02-08T22:55:40Z</time>
      </trkpt>
      <trkpt lat="42.656711" lon="-6.906677">
        <ele>597.068</ele>
        <time>2013-02-08T22:56:00Z</time>
      </trkpt>
      <trkpt lat="42.656742" lon="-6.906828">
        <ele>597.074</ele>
        <time>2013-02-08T22:56:20Z</time>
      </trkpt>
      <trkpt lat="42.656774" lon="-6.907010">
        <ele>597.056</ele>
        <time>2013-02-08T22:56:40Z</time>
      </trkpt>
      <trkpt lat="42.656821" lon="-6.907225">
        <ele>594.021</ele>
        <time>2013-02-08T22:57:00Z</time>
      </trkpt>
      <trkpt lat="42.656892" lon="-6.907461">
        <ele>594.007</ele>
        <time>2013-02-08T22:57:20Z</time>
      </trkpt>
      <trkpt lat="42.656948" lon="-6.907611">
        <ele>594.070</ele>
        <time>2013-02-08T22:57:40Z</time>
      </trkpt>
      <trkpt lat="42.657027" lon="-6.907815">
        <ele>596.016</ele>
        <time>2013-02-08T22:58:00Z</time>
      </trkpt>
      <trkpt lat="42.657129" lon="-6.908072">
        <ele>600.042</ele>
        <time>2013-02-08T22:58:20Z</time>
      </trkpt>
      <trkpt lat="42.657247" lon="-6.908244">
        <ele>604.085</ele>
        <time>2013-02-08T22:58:40Z</time>
      </trkpt>
      <trkpt lat="42.657468" lon="-6.908555">
        <ele>604.077</ele>
        <time>2013-02-08T22:59:00Z</time>
      </trkpt>
      <trkpt lat="42.657729" lon="-6.908748">
        <ele>604.039</ele>
        <time>2013-02-08T22:59:20Z</time>
      </trkpt>
      <trkpt lat="42.657918" lon="-6.908866">
        <ele>606.010</ele>
        <time>2013-02-08T22:59:40Z</time>
      </trkpt>
      <trkpt lat="42.658179" lon="-6.909027">
        <ele>606.068</ele>
        <time>2013-02-08T23:00:00Z</time>
      </trkpt>
      <trkpt lat="42.658336" lon="-6.909167">
        <ele>608.042</ele>
        <time>2013-02-08T23:00:20Z</time>
      </trkpt>
      <trkpt lat="42.658470" lon="-6.909349">
        <ele>605.026</ele>
        <time>2013-02-08T23:00:40Z</time>
      </trkpt>
      <trkpt lat="42.658549" lon="-6.909488">
        <ele>613.007</ele>
        <time>2013-02-08T23:01:00Z</time>
      </trkpt>
      <trkpt lat="42.658612" lon="-6.909660">
        <ele>611.079</ele>
        <time>2013-02-08T23:01:20Z</time>
      </trkpt>
      <trkpt lat="42.658707" lon="-6.909907">
        <ele>610.055</ele>
        <time>2013-02-08T23:01:40Z</time>
      </trkpt>
      <trkpt lat="42.658739" lon="-6.910003">
        <ele>610.071</ele>
        <time>2013-02-08T23:02:00Z</time>
      </trkpt>
      <trkpt lat="42.658762" lon="-6.910433">
        <ele>622.014</ele>
        <time>2013-02-08T23:02:20Z</time>
      </trkpt>
      <trkpt lat="42.658786" lon="-6.910701">
        <ele>624.046</ele>
        <time>2013-02-08T23:02:40Z</time>
      </trkpt>
      <trkpt lat="42.658723" lon="-6.910926">
        <ele>613.048</ele>
        <time>2013-02-08T23:03:00Z</time>
      </trkpt>
      <trkpt lat="42.658660" lon="-6.911076">
        <ele>615.079</ele>
        <time>2013-02-08T23:03:20Z</time>
      </trkpt>
      <trkpt lat="42.658612" lon="-6.911194">
        <ele>615.035</ele>
        <time>2013-02-08T23:03:40Z</time>
      </trkpt>
      <trkpt lat="42.658541" lon="-6.911291">
        <ele>617.086</ele>
        <time>2013-02-08T23:04:00Z</time>
      </trkpt>
      <trkpt lat="42.658478" lon="-6.911420">
        <ele>617.014</ele>
        <time>2013-02-08T23:04:20Z</time>
      </trkpt>
      <trkpt lat="42.658368" lon="-6.911591">
        <ele>610.007</ele>
        <time>2013-02-08T23:04:40Z</time>
      </trkpt>
      <trkpt lat="42.658313" lon="-6.911656">
        <ele>610.026</ele>
        <time>2013-02-08T23:05:00Z</time>
      </trkpt>
      <trkpt lat="42.658107" lon="-6.911870">
        <ele>605.032</ele>
        <time>2013-02-08T23:05:20Z</time>
      </trkpt>
      <trkpt lat="42.657981" lon="-6.912096">
        <ele>604.038</ele>
        <time>2013-02-08T23:05:40Z</time>
      </trkpt>
      <trkpt lat="42.657894" lon="-6.912192">
        <ele>602.041</ele>
        <time>2013-02-08T23:06:00Z</time>
      </trkpt>
      <trkpt lat="42.657800" lon="-6.912299">
        <ele>602.063</ele>
        <time>2013-02-08T23:06:20Z</time>
      </trkpt>
      <trkpt lat="42.657721" lon="-6.912546">
        <ele>601.075</ele>
        <time>2013-02-08T23:06:40Z</time>
      </trkpt>
      <trkpt lat="42.657642" lon="-6.912836">
        <ele>600.046</ele>
        <time>2013-02-08T23:07:00Z</time>
      </trkpt>
      <trkpt lat="42.657634" lon="-6.913072">
        <ele>599.082</ele>
        <time>2013-02-08T23:07:20Z</time>
      </trkpt>
      <trkpt lat="42.657666" lon="-6.913254">
        <ele>598.043</ele>
        <time>2013-02-08T23:07:40Z</time>
      </trkpt>
      <trkpt lat="42.657697" lon="-6.913458">
        <ele>598.017</ele>
        <time>2013-02-08T23:08:00Z</time>
      </trkpt>
      <trkpt lat="42.657760" lon="-6.913673">
        <ele>598.007</ele>
        <time>2013-02-08T23:08:20Z</time>
      </trkpt>
      <trkpt lat="42.657942" lon="-6.913855">
        <ele>596.011</ele>
        <time>2013-02-08T23:08:40Z</time>
      </trkpt>
      <trkpt lat="42.658115" lon="-6.914048">
        <ele>599.087</ele>
        <time>2013-02-08T23:09:00Z</time>
      </trkpt>
      <trkpt lat="42.658273" lon="-6.914166">
        <ele>596.023</ele>
        <time>2013-02-08T23:09:20Z</time>
      </trkpt>
      <trkpt lat="42.658455" lon="-6.914338">
        <ele>600.046</ele>
        <time>2013-02-08T23:09:40Z</time>
      </trkpt>
      <trkpt lat="42.658794" lon="-6.914767">
        <ele>597.018</ele>
        <time>2013-02-08T23:10:00Z</time>
      </trkpt>
      <trkpt lat="42.659086" lon="-6.914939">
        <ele>597.080</ele>
        <time>2013-02-08T23:10:20Z</time>
      </trkpt>
      <trkpt lat="42.659244" lon="-6.915132">
        <ele>597.091</ele>
        <time>2013-02-08T23:10:40Z</time>
      </trkpt>
      <trkpt lat="42.659472" lon="-6.915507">
        <ele>598.013</ele>
        <time>2013-02-08T23:11:00Z</time>
      </trkpt>
      <trkpt lat="42.659575" lon="-6.915700">
        <ele>598.043</ele>
        <time>2013-02-08T23:11:20Z</time>
      </trkpt>
      <trkpt lat="42.659630" lon="-6.915797">
        <ele>600.007</ele>
        <time>2013-02-08T23:11:40Z</time>
      </trkpt>
      <trkpt lat="42.659757" lon="-6.916012">
        <ele>599.007</ele>
        <time>2013-02-08T23:12:00Z</time>
      </trkpt>
      <trkpt lat="42.659859" lon="-6.916237">
        <ele>599.024</ele>
        <time>2013-02-08T23:12:20Z</time>
      </trkpt>
      <trkpt lat="42.659914" lon="-6.916398">
        <ele>604.030</ele>
        <time>2013-02-08T23:12:40Z</time>
      </trkpt>
      <trkpt lat="42.660009" lon="-6.916580">
        <ele>602.026</ele>
        <time>2013-02-08T23:13:00Z</time>
      </trkpt>
      <trkpt lat="42.660033" lon="-6.916709">
        <ele>602.079</ele>
        <time>2013-02-08T23:13:20Z</time>
      </trkpt>
      <trkpt lat="42.660088" lon="-6.916838">
        <ele>601.061</ele>
        <time>2013-02-08T23:13:40Z</time>
      </trkpt>
      <trkpt lat="42.660143" lon="-6.917020">
        <ele>607.023</ele>
        <time>2013-02-08T23:14:00Z</time>
      </trkpt>
      <trkpt lat="42.660175" lon="-6.917160">
        <ele>605.064</ele>
        <time>2013-02-08T23:14:20Z</time>
      </trkpt>
      <trkpt lat="42.660143" lon="-6.917235">
        <ele>605.092</ele>
        <time>2013-02-08T23:14:40Z</time>
      </trkpt>
      <trkpt lat="42.660127" lon="-6.917471">
        <ele>599.073</ele>
        <time>2013-02-08T23:15:00Z</time>
      </trkpt>
      <trkpt lat="42.660119" lon="-6.917707">
        <ele>598.020</ele>
        <time>2013-02-08T23:15:20Z</time>
      </trkpt>
      <trkpt lat="42.660104" lon="-6.917900">
        <ele>598.007</ele>
        <time>2013-02-08T23:15:40Z</time>
      </trkpt>
      <trkpt lat="42.660112" lon="-6.918018">
        <ele>598.032</ele>
        <time>2013-02-08T23:16:00Z</time>
      </trkpt>
      <trkpt lat="42.660112" lon="-6.918179">
        <ele>598.038</ele>
        <time>2013-02-08T23:16:20Z</time>
      </trkpt>
      <trkpt lat="42.660112" lon="-6.918383">
        <ele>598.044</ele>
        <time>2013-02-08T23:16:40Z</time>
      </trkpt>
      <trkpt lat="42.660064" lon="-6.918640">
        <ele>599.067</ele>
        <time>2013-02-08T23:17:00Z</time>
      </trkpt>
      <trkpt lat="42.660048" lon="-6.918898">
        <ele>599.059</ele>
        <time>2013-02-08T23:17:20Z</time>
      </trkpt>
      <trkpt lat="42.660025" lon="-6.919219">
        <ele>600.091</ele>
        <time>2013-02-08T23:17:40Z</time>
      </trkpt>
      <trkpt lat="42.660025" lon="-6.919423">
        <ele>601.082</ele>
        <time>2013-02-08T23:18:00Z</time>
      </trkpt>
      <trkpt lat="42.660025" lon="-6.919606">
        <ele>601.051</ele>
        <time>2013-02-08T23:18:20Z</time>
      </trkpt>
      <trkpt lat="42.660025" lon="-6.920035">
        <ele>601.001</ele>
        <time>2013-02-08T23:18:40Z</time>
      </trkpt>
      <trkpt lat="42.660017" lon="-6.920260">
        <ele>601.011</ele>
        <time>2013-02-08T23:19:00Z</time>
      </trkpt>
      <trkpt lat="42.659946" lon="-6.920443">
        <ele>600.007</ele>
        <time>2013-02-08T23:19:20Z</time>
      </trkpt>
      <trkpt lat="42.659938" lon="-6.920625">
        <ele>600.038</ele>
        <time>2013-02-08T23:19:40Z</time>
      </trkpt>
      <trkpt lat="42.659985" lon="-6.921022">
        <ele>600.034</ele>
        <time>2013-02-08T23:20:00Z</time>
      </trkpt>
      <trkpt lat="42.660001" lon="-6.921140">
        <ele>600.040</ele>
        <time>2013-02-08T23:20:20Z</time>
      </trkpt>
      <trkpt lat="42.660041" lon="-6.921301">
        <ele>600.053</ele>
        <time>2013-02-08T23:20:40Z</time>
      </trkpt>
      <trkpt lat="42.660080" lon="-6.921483">
        <ele>600.085</ele>
        <time>2013-02-08T23:21:00Z</time>
      </trkpt>
      <trkpt lat="42.660135" lon="-6.921644">
        <ele>601.067</ele>
        <time>2013-02-08T23:21:20Z</time>
      </trkpt>
      <trkpt lat="42.660214" lon="-6.921751">
        <ele>600.018</ele>
        <time>2013-02-08T23:21:40Z</time>
      </trkpt>
      <trkpt lat="42.660411" lon="-6.921880">
        <ele>601.033</ele>
        <time>2013-02-08T23:22:00Z</time>
      </trkpt>
      <trkpt lat="42.660443" lon="-6.922030">
        <ele>603.023</ele>
        <time>2013-02-08T23:22:20Z</time>
      </trkpt>
      <trkpt lat="42.660490" lon="-6.922213">
        <ele>603.015</ele>
        <time>2013-02-08T23:22:40Z</time>
      </trkpt>
      <trkpt lat="42.660530" lon="-6.922395">
        <ele>603.007</ele>
        <time>2013-02-08T23:23:00Z</time>
      </trkpt>
      <trkpt lat="42.660553" lon="-6.922642">
        <ele>603.046</ele>
        <time>2013-02-08T23:23:20Z</time>
      </trkpt>
      <trkpt lat="42.660609" lon="-6.922781">
        <ele>603.092</ele>
        <time>2013-02-08T23:23:40Z</time>
      </trkpt>
      <trkpt lat="42.660664" lon="-6.923018">
        <ele>604.048</ele>
        <time>2013-02-08T23:24:00Z</time>
      </trkpt>
      <trkpt lat="42.660688" lon="-6.923136">
        <ele>604.071</ele>
        <time>2013-02-08T23:24:20Z</time>
      </trkpt>
      <trkpt lat="42.660766" lon="-6.923479">
        <ele>606.083</ele>
        <time>2013-02-08T23:24:40Z</time>
      </trkpt>
      <trkpt lat="42.660830" lon="-6.923704">
        <ele>606.075</ele>
        <time>2013-02-08T23:25:00Z</time>
      </trkpt>
      <trkpt lat="42.660830" lon="-6.923779">
        <ele>607.046</ele>
        <time>2013-02-08T23:25:20Z</time>
      </trkpt>
      <trkpt lat="42.660885" lon="-6.924047">
        <ele>607.042</ele>
        <time>2013-02-08T23:25:40Z</time>
      </trkpt>
      <trkpt lat="42.660940" lon="-6.924316">
        <ele>607.022</ele>
        <time>2013-02-08T23:26:00Z</time>
      </trkpt>
      <trkpt lat="42.661035" lon="-6.924648">
        <ele>611.014</ele>
        <time>2013-02-08T23:26:20Z</time>
      </trkpt>
      <trkpt lat="42.661082" lon="-6.924831">
        <ele>611.007</ele>
        <time>2013-02-08T23:26:40Z</time>
      </trkpt>
      <trkpt lat="42.661153" lon="-6.924981">
        <ele>611.077</ele>
        <time>2013-02-08T23:27:00Z</time>
      </trkpt>
      <trkpt lat="42.661256" lon="-6.925185">
        <ele>614.023</ele>
        <time>2013-02-08T23:27:20Z</time>
      </trkpt>
      <trkpt lat="42.661429" lon="-6.925571">
        <ele>614.089</ele>
        <time>2013-02-08T23:27:40Z</time>
      </trkpt>
      <trkpt lat="42.661508" lon="-6.925625">
        <ele>614.052</ele>
        <time>2013-02-08T23:28:00Z</time>
      </trkpt>
      <trkpt lat="42.661650" lon="-6.925904">
        <ele>614.094</ele>
        <time>2013-02-08T23:28:20Z</time>
      </trkpt>
      <trkpt lat="42.661871" lon="-6.926247">
        <ele>614.076</ele>
        <time>2013-02-08T23:28:40Z</time>
      </trkpt>
      <trkpt lat="42.662100" lon="-6.926579">
        <ele>615.077</ele>
        <time>2013-02-08T23:29:00Z</time>
      </trkpt>
      <trkpt lat="42.662463" lon="-6.926612">
        <ele>612.069</ele>
        <time>2013-02-08T23:29:20Z</time>
      </trkpt>
      <trkpt lat="42.662810" lon="-6.926644">
        <ele>608.004</ele>
        <time>2013-02-08T23:29:40Z</time>
      </trkpt>
      <trkpt lat="42.663141" lon="-6.926676">
        <ele>606.024</ele>
        <time>2013-02-08T23:30:00Z</time>
      </trkpt>
      <trkpt lat="42.663449" lon="-6.926719">
        <ele>604.007</ele>
        <time>2013-02-08T23:30:20Z</time>
      </trkpt>
      <trkpt lat="42.663780" lon="-6.926730">
        <ele>603.069</ele>
        <time>2013-02-08T23:30:40Z</time>
      </trkpt>
      <trkpt lat="42.664112" lon="-6.926773">
        <ele>604.035</ele>
        <time>2013-02-08T23:31:00Z</time>
      </trkpt>
      <trkpt lat="42.664380" lon="-6.926740">
        <ele>604.091</ele>
        <time>2013-02-08T23:31:20Z</time>
      </trkpt>
      <trkpt lat="42.664719" lon="-6.926687">
        <ele>605.034</ele>
        <time>2013-02-08T23:31:40Z</time>
      </trkpt>
      <trkpt lat="42.665043" lon="-6.926633">
        <ele>606.016</ele>
        <time>2013-02-08T23:32:00Z</time>
      </trkpt>
      <trkpt lat="42.665327" lon="-6.926794">
        <ele>608.048</ele>
        <time>2013-02-08T23:32:20Z</time>
      </trkpt>
      <trkpt lat="42.665595" lon="-6.926987">
        <ele>608.039</ele>
        <time>2013-02-08T23:32:40Z</time>
      </trkpt>
      <trkpt lat="42.665760" lon="-6.927234">
        <ele>609.026</ele>
        <time>2013-02-08T23:33:00Z</time>
      </trkpt>
      <trkpt lat="42.665831" lon="-6.927330">
        <ele>609.047</ele>
        <time>2013-02-08T23:33:20Z</time>
      </trkpt>
      <trkpt lat="42.665879" lon="-6.927491">
        <ele>607.011</ele>
        <time>2013-02-08T23:33:40Z</time>
      </trkpt>
      <trkpt lat="42.665887" lon="-6.927781">
        <ele>606.007</ele>
        <time>2013-02-08T23:34:00Z</time>
      </trkpt>
      <trkpt lat="42.665887" lon="-6.928060">
        <ele>606.095</ele>
        <time>2013-02-08T23:34:20Z</time>
      </trkpt>
      <trkpt lat="42.665863" lon="-6.928393">
        <ele>607.071</ele>
        <time>2013-02-08T23:34:40Z</time>
      </trkpt>
      <trkpt lat="42.665792" lon="-6.928607">
        <ele>609.017</ele>
        <time>2013-02-08T23:35:00Z</time>
      </trkpt>
      <trkpt lat="42.665768" lon="-6.928800">
        <ele>612.070</ele>
        <time>2013-02-08T23:35:20Z</time>
      </trkpt>
      <trkpt lat="42.665674" lon="-6.929015">
        <ele>609.042</ele>
        <time>2013-02-08T23:35:40Z</time>
      </trkpt>
      <trkpt lat="42.665611" lon="-6.929208">
        <ele>611.034</ele>
        <time>2013-02-08T23:36:00Z</time>
      </trkpt>
      <trkpt lat="42.665547" lon="-6.929444">
        <ele>614.055</ele>
        <time>2013-02-08T23:36:20Z</time>
      </trkpt>
      <trkpt lat="42.665540" lon="-6.929626">
        <ele>616.038</ele>
        <time>2013-02-08T23:36:40Z</time>
      </trkpt>
      <trkpt lat="42.665445" lon="-6.930034">
        <ele>618.070</ele>
        <time>2013-02-08T23:37:00Z</time>
      </trkpt>
      <trkpt lat="42.665390" lon="-6.930195">
        <ele>615.017</ele>
        <time>2013-02-08T23:37:20Z</time>
      </trkpt>
      <trkpt lat="42.665327" lon="-6.930292">
        <ele>615.007</ele>
        <time>2013-02-08T23:37:40Z</time>
      </trkpt>
      <trkpt lat="42.665263" lon="-6.930474">
        <ele>616.036</ele>
        <time>2013-02-08T23:38:00Z</time>
      </trkpt>
      <trkpt lat="42.665263" lon="-6.930603">
        <ele>616.062</ele>
        <time>2013-02-08T23:38:20Z</time>
      </trkpt>
      <trkpt lat="42.665358" lon="-6.930860">
        <ele>618.088</ele>
        <time>2013-02-08T23:38:40Z</time>
      </trkpt>
      <trkpt lat="42.665429" lon="-6.931053">
        <ele>622.081</ele>
        <time>2013-02-08T23:39:00Z</time>
      </trkpt>
      <trkpt lat="42.665500" lon="-6.931322">
        <ele>622.093</ele>
        <time>2013-02-08T23:39:20Z</time>
      </trkpt>
      <trkpt lat="42.665540" lon="-6.931504">
        <ele>622.065</ele>
        <time>2013-02-08T23:39:40Z</time>
      </trkpt>
      <trkpt lat="42.665611" lon="-6.931729">
        <ele>622.016</ele>
        <time>2013-02-08T23:40:00Z</time>
      </trkpt>
      <trkpt lat="42.665674" lon="-6.931955">
        <ele>622.068</ele>
        <time>2013-02-08T23:40:20Z</time>
      </trkpt>
      <trkpt lat="42.665721" lon="-6.932212">
        <ele>628.042</ele>
        <time>2013-02-08T23:40:40Z</time>
      </trkpt>
      <trkpt lat="42.665737" lon="-6.932384">
        <ele>626.026</ele>
        <time>2013-02-08T23:41:00Z</time>
      </trkpt>
      <trkpt lat="42.665784" lon="-6.932641">
        <ele>625.007</ele>
        <time>2013-02-08T23:41:20Z</time>
      </trkpt>
      <trkpt lat="42.665816" lon="-6.932845">
        <ele>625.059</ele>
        <time>2013-02-08T23:41:40Z</time>
      </trkpt>
      <trkpt lat="42.665839" lon="-6.933049">
        <ele>623.035</ele>
        <time>2013-02-08T23:42:00Z</time>
      </trkpt>
      <trkpt lat="42.665887" lon="-6.933392">
        <ele>622.081</ele>
        <time>2013-02-08T23:42:20Z</time>
      </trkpt>
      <trkpt lat="42.665895" lon="-6.933521">
        <ele>621.014</ele>
        <time>2013-02-08T23:42:40Z</time>
      </trkpt>
      <trkpt lat="42.665926" lon="-6.933725">
        <ele>621.026</ele>
        <time>2013-02-08T23:43:00Z</time>
      </trkpt>
      <trkpt lat="42.665981" lon="-6.933961">
        <ele>624.028</ele>
        <time>2013-02-08T23:43:20Z</time>
      </trkpt>
      <trkpt lat="42.665997" lon="-6.934133">
        <ele>622.059</ele>
        <time>2013-02-08T23:43:40Z</time>
      </trkpt>
      <trkpt lat="42.666060" lon="-6.934336">
        <ele>621.027</ele>
        <time>2013-02-08T23:44:00Z</time>
      </trkpt>
      <trkpt lat="42.666092" lon="-6.934562">
        <ele>621.068</ele>
        <time>2013-02-08T23:44:20Z</time>
      </trkpt>
      <trkpt lat="42.666108" lon="-6.934680">
        <ele>620.014</ele>
        <time>2013-02-08T23:44:40Z</time>
      </trkpt>
      <trkpt lat="42.666115" lon="-6.934766">
        <ele>620.007</ele>
        <time>2013-02-08T23:45:00Z</time>
      </trkpt>
      <trkpt lat="42.666218" lon="-6.935087">
        <ele>619.055</ele>
        <time>2013-02-08T23:45:20Z</time>
      </trkpt>
      <trkpt lat="42.666250" lon="-6.935259">
        <ele>619.071</ele>
        <time>2013-02-08T23:45:40Z</time>
      </trkpt>
      <trkpt lat="42.666368" lon="-6.935678">
        <ele>622.097</ele>
        <time>2013-02-08T23:46:00Z</time>
      </trkpt>
      <trkpt lat="42.666399" lon="-6.935892">
        <ele>622.030</ele>
        <time>2013-02-08T23:46:20Z</time>
      </trkpt>
      <trkpt lat="42.666415" lon="-6.936300">
        <ele>623.042</ele>
        <time>2013-02-08T23:46:40Z</time>
      </trkpt>
      <trkpt lat="42.666431" lon="-6.936718">
        <ele>624.064</ele>
        <time>2013-02-08T23:47:00Z</time>
      </trkpt>
      <trkpt lat="42.666384" lon="-6.936976">
        <ele>625.055</ele>
        <time>2013-02-08T23:47:20Z</time>
      </trkpt>
      <trkpt lat="42.666321" lon="-6.937190">
        <ele>626.093</ele>
        <time>2013-02-08T23:47:40Z</time>
      </trkpt>
      <trkpt lat="42.666321" lon="-6.937383">
        <ele>626.065</ele>
        <time>2013-02-08T23:48:00Z</time>
      </trkpt>
      <trkpt lat="42.666344" lon="-6.937566">
        <ele>626.021</ele>
        <time>2013-02-08T23:48:20Z</time>
      </trkpt>
      <trkpt lat="42.666344" lon="-6.937770">
        <ele>627.007</ele>
        <time>2013-02-08T23:48:40Z</time>
      </trkpt>
      <trkpt lat="42.666407" lon="-6.937855">
        <ele>627.052</ele>
        <time>2013-02-08T23:49:00Z</time>
      </trkpt>
      <trkpt lat="42.666439" lon="-6.938295">
        <ele>632.038</ele>
        <time>2013-02-08T23:49:20Z</time>
      </trkpt>
      <trkpt lat="42.666384" lon="-6.938488">
        <ele>637.054</ele>
        <time>2013-02-08T23:49:40Z</time>
      </trkpt>
      <trkpt lat="42.666321" lon="-6.938596">
        <ele>637.037</ele>
        <time>2013-02-08T23:50:00Z</time>
      </trkpt>
      <trkpt lat="42.666297" lon="-6.938703">
        <ele>637.039</ele>
        <time>2013-02-08T23:50:20Z</time>
      </trkpt>
      <trkpt lat="42.666226" lon="-6.938896">
        <ele>637.091</ele>
        <time>2013-02-08T23:50:40Z</time>
      </trkpt>
      <trkpt lat="42.666084" lon="-6.939132">
        <ele>644.022</ele>
        <time>2013-02-08T23:51:00Z</time>
      </trkpt>
      <trkpt lat="42.665926" lon="-6.939250">
        <ele>641.072</ele>
        <time>2013-02-08T23:51:20Z</time>
      </trkpt>
      <trkpt lat="42.665808" lon="-6.939315">
        <ele>648.013</ele>
        <time>2013-02-08T23:51:40Z</time>
      </trkpt>
      <trkpt lat="42.665768" lon="-6.939379">
        <ele>648.014</ele>
        <time>2013-02-08T23:52:00Z</time>
      </trkpt>
      <trkpt lat="42.665705" lon="-6.939454">
        <ele>648.007</ele>
        <time>2013-02-08T23:52:20Z</time>
      </trkpt>
      <trkpt lat="42.665626" lon="-6.939679">
        <ele>654.060</ele>
        <time>2013-02-08T23:52:40Z</time>
      </trkpt>
      <trkpt lat="42.665405" lon="-6.939840">
        <ele>650.016</ele>
        <time>2013-02-08T23:53:00Z</time>
      </trkpt>
      <trkpt lat="42.665263" lon="-6.939991">
        <ele>656.042</ele>
        <time>2013-02-08T23:53:20Z</time>
      </trkpt>
      <trkpt lat="42.665169" lon="-6.940141">
        <ele>660.045</ele>
        <time>2013-02-08T23:53:40Z</time>
      </trkpt>
      <trkpt lat="42.665074" lon="-6.940302">
        <ele>650.077</ele>
        <time>2013-02-08T23:54:00Z</time>
      </trkpt>
      <trkpt lat="42.664900" lon="-6.940377">
        <ele>650.089</ele>
        <time>2013-02-08T23:54:20Z</time>
      </trkpt>
      <trkpt lat="42.664790" lon="-6.940463">
        <ele>640.040</ele>
        <time>2013-02-08T23:54:40Z</time>
      </trkpt>
      <trkpt lat="42.664585" lon="-6.940591">
        <ele>640.034</ele>
        <time>2013-02-08T23:55:00Z</time>
      </trkpt>
      <trkpt lat="42.664459" lon="-6.940731">
        <ele>633.055</ele>
        <time>2013-02-08T23:55:20Z</time>
      </trkpt>
      <trkpt lat="42.664380" lon="-6.940774">
        <ele>633.010</ele>
        <time>2013-02-08T23:55:40Z</time>
      </trkpt>
      <trkpt lat="42.664238" lon="-6.940860">
        <ele>628.007</ele>
        <time>2013-02-08T23:56:00Z</time>
      </trkpt>
      <trkpt lat="42.664183" lon="-6.940913">
        <ele>628.016</ele>
        <time>2013-02-08T23:56:20Z</time>
      </trkpt>
      <trkpt lat="42.664127" lon="-6.941042">
        <ele>627.092</ele>
        <time>2013-02-08T23:56:40Z</time>
      </trkpt>
      <trkpt lat="42.664017" lon="-6.941299">
        <ele>623.018</ele>
        <time>2013-02-08T23:57:00Z</time>
      </trkpt>
      <trkpt lat="42.664033" lon="-6.941493">
        <ele>627.081</ele>
        <time>2013-02-08T23:57:20Z</time>
      </trkpt>
      <trkpt lat="42.664041" lon="-6.941761">
        <ele>626.063</ele>
        <time>2013-02-08T23:57:40Z</time>
      </trkpt>
      <trkpt lat="42.664033" lon="-6.942104">
        <ele>625.095</ele>
        <time>2013-02-08T23:58:00Z</time>
      </trkpt>
      <trkpt lat="42.664041" lon="-6.942244">
        <ele>625.056</ele>
        <time>2013-02-08T23:58:20Z</time>
      </trkpt>
      <trkpt lat="42.664072" lon="-6.942523">
        <ele>625.065</ele>
        <time>2013-02-08T23:58:40Z</time>
      </trkpt>
      <trkpt lat="42.664135" lon="-6.942694">
        <ele>625.068</ele>
        <time>2013-02-08T23:59:00Z</time>
      </trkpt>
      <trkpt lat="42.664190" lon="-6.942930">
        <ele>625.014</ele>
        <time>2013-02-08T23:59:20Z</time>
      </trkpt>
      <trkpt lat="42.664246" lon="-6.943080">
        <ele>625.007</ele>
        <time>2013-02-08T23:59:40Z</time>
      </trkpt>
      <trkpt lat="42.664301" lon="-6.943252">
        <ele>625.049</ele>
        <time>2013-02-09T00:00:00Z</time>
      </trkpt>
      <trkpt lat="42.664348" lon="-6.943585">
        <ele>629.065</ele>
        <time>2013-02-09T00:00:20Z</time>
      </trkpt>
      <trkpt lat="42.664396" lon="-6.943831">
        <ele>629.051</ele>
        <time>2013-02-09T00:00:40Z</time>
      </trkpt>
      <trkpt lat="42.664451" lon="-6.944025">
        <ele>629.084</ele>
        <time>2013-02-09T00:01:00Z</time>
      </trkpt>
      <trkpt lat="42.664640" lon="-6.944497">
        <ele>631.016</ele>
        <time>2013-02-09T00:01:20Z</time>
      </trkpt>
      <trkpt lat="42.664766" lon="-6.944690">
        <ele>630.098</ele>
        <time>2013-02-09T00:01:40Z</time>
      </trkpt>
      <trkpt lat="42.664893" lon="-6.945001">
        <ele>632.069</ele>
        <time>2013-02-09T00:02:00Z</time>
      </trkpt>
      <trkpt lat="42.664948" lon="-6.945194">
        <ele>631.067</ele>
        <time>2013-02-09T00:02:20Z</time>
      </trkpt>
      <trkpt lat="42.665003" lon="-6.945473">
        <ele>629.081</ele>
        <time>2013-02-09T00:02:40Z</time>
      </trkpt>
      <trkpt lat="42.665074" lon="-6.945838">
        <ele>628.019</ele>
        <time>2013-02-09T00:03:00Z</time>
      </trkpt>
      <trkpt lat="42.665114" lon="-6.946095">
        <ele>627.007</ele>
        <time>2013-02-09T00:03:20Z</time>
      </trkpt>
      <trkpt lat="42.665161" lon="-6.946203">
        <ele>631.049</ele>
        <time>2013-02-09T00:03:40Z</time>
      </trkpt>
      <trkpt lat="42.665248" lon="-6.946406">
        <ele>630.055</ele>
        <time>2013-02-09T00:04:00Z</time>
      </trkpt>
      <trkpt lat="42.665271" lon="-6.946428">
        <ele>630.011</ele>
        <time>2013-02-09T00:04:20Z</time>
      </trkpt>
      <trkpt lat="42.665279" lon="-6.946578">
        <ele>629.034</ele>
        <time>2013-02-09T00:04:40Z</time>
      </trkpt>
      <trkpt lat="42.665279" lon="-6.946664">
        <ele>629.036</ele>
        <time>2013-02-09T00:05:00Z</time>
      </trkpt>
      <trkpt lat="42.665271" lon="-6.946868">
        <ele>628.098</ele>
        <time>2013-02-09T00:05:20Z</time>
      </trkpt>
      <trkpt lat="42.665287" lon="-6.947061">
        <ele>628.089</ele>
        <time>2013-02-09T00:05:40Z</time>
      </trkpt>
      <trkpt lat="42.665287" lon="-6.947232">
        <ele>628.041</ele>
        <time>2013-02-09T00:06:00Z</time>
      </trkpt>
      <trkpt lat="42.665287" lon="-6.947318">
        <ele>628.081</ele>
        <time>2013-02-09T00:06:20Z</time>
      </trkpt>
      <trkpt lat="42.665263" lon="-6.947758">
        <ele>630.009</ele>
        <time>2013-02-09T00:06:40Z</time>
      </trkpt>
      <trkpt lat="42.665248" lon="-6.947876">
        <ele>630.007</ele>
        <time>2013-02-09T00:07:00Z</time>
      </trkpt>
      <trkpt lat="42.665185" lon="-6.948198">
        <ele>634.087</ele>
        <time>2013-02-09T00:07:20Z</time>
      </trkpt>
      <trkpt lat="42.665137" lon="-6.948477">
        <ele>632.083</ele>
        <time>2013-02-09T00:07:40Z</time>
      </trkpt>
      <trkpt lat="42.665098" lon="-6.948681">
        <ele>632.049</ele>
        <time>2013-02-09T00:08:00Z</time>
      </trkpt>
      <trkpt lat="42.665098" lon="-6.949013">
        <ele>635.092</ele>
        <time>2013-02-09T00:08:20Z</time>
      </trkpt>
      <trkpt lat="42.665050" lon="-6.949153">
        <ele>637.094</ele>
        <time>2013-02-09T00:08:40Z</time>
      </trkpt>
      <trkpt lat="42.665043" lon="-6.949432">
        <ele>640.096</ele>
        <time>2013-02-09T00:09:00Z</time>
      </trkpt>
      <trkpt lat="42.664987" lon="-6.949754">
        <ele>642.087</ele>
        <time>2013-02-09T00:09:20Z</time>
      </trkpt>
      <trkpt lat="42.664972" lon="-6.949947">
        <ele>645.074</ele>
        <time>2013-02-09T00:09:40Z</time>
      </trkpt>
      <trkpt lat="42.664924" lon="-6.950172">
        <ele>647.056</ele>
        <time>2013-02-09T00:10:00Z</time>
      </trkpt>
      <trkpt lat="42.664908" lon="-6.950462">
        <ele>650.021</ele>
        <time>2013-02-09T00:10:20Z</time>
      </trkpt>
      <trkpt lat="42.664869" lon="-6.950548">
        <ele>650.007</ele>
        <time>2013-02-09T00:10:40Z</time>
      </trkpt>
      <trkpt lat="42.664814" lon="-6.951030">
        <ele>646.090</ele>
        <time>2013-02-09T00:11:00Z</time>
      </trkpt>
      <trkpt lat="42.664680" lon="-6.951696">
        <ele>648.016</ele>
        <time>2013-02-09T00:11:20Z</time>
      </trkpt>
      <trkpt lat="42.664664" lon="-6.951814">
        <ele>649.012</ele>
        <time>2013-02-09T00:11:40Z</time>
      </trkpt>
      <trkpt lat="42.664624" lon="-6.952039">
        <ele>649.085</ele>
        <time>2013-02-09T00:12:00Z</time>
      </trkpt>
      <trkpt lat="42.664601" lon="-6.952243">
        <ele>650.077</ele>
        <time>2013-02-09T00:12:20Z</time>
      </trkpt>
      <trkpt lat="42.664569" lon="-6.952447">
        <ele>644.049</ele>
        <time>2013-02-09T00:12:40Z</time>
      </trkpt>
      <trkpt lat="42.664561" lon="-6.952533">
        <ele>644.050</ele>
        <time>2013-02-09T00:13:00Z</time>
      </trkpt>
      <trkpt lat="42.664545" lon="-6.952736">
        <ele>644.068</ele>
        <time>2013-02-09T00:13:20Z</time>
      </trkpt>
      <trkpt lat="42.664530" lon="-6.952887">
        <ele>644.042</ele>
        <time>2013-02-09T00:13:40Z</time>
      </trkpt>
      <trkpt lat="42.664530" lon="-6.953026">
        <ele>642.026</ele>
        <time>2013-02-09T00:14:00Z</time>
      </trkpt>
      <trkpt lat="42.664506" lon="-6.953251">
        <ele>641.007</ele>
        <time>2013-02-09T00:14:20Z</time>
      </trkpt>
      <trkpt lat="42.664506" lon="-6.953380">
        <ele>641.019</ele>
        <time>2013-02-09T00:14:40Z</time>
      </trkpt>
      <trkpt lat="42.664506" lon="-6.953595">
        <ele>639.095</ele>
        <time>2013-02-09T00:15:00Z</time>
      </trkpt>
      <trkpt lat="42.664506" lon="-6.953659">
        <ele>639.081</ele>
        <time>2013-02-09T00:15:20Z</time>
      </trkpt>
      <trkpt lat="42.664514" lon="-6.953734">
        <ele>639.074</ele>
        <time>2013-02-09T00:15:40Z</time>
      </trkpt>
      <trkpt lat="42.664459" lon="-6.953884">
        <ele>636.086</ele>
        <time>2013-02-09T00:16:00Z</time>
      </trkpt>
      <trkpt lat="42.664435" lon="-6.954120">
        <ele>634.038</ele>
        <time>2013-02-09T00:16:20Z</time>
      </trkpt>
      <trkpt lat="42.664427" lon="-6.954346">
        <ele>636.039</ele>
        <time>2013-02-09T00:16:40Z</time>
      </trkpt>
      <trkpt lat="42.664427" lon="-6.954410">
        <ele>636.092</ele>
        <time>2013-02-09T00:17:00Z</time>
      </trkpt>
      <trkpt lat="42.664467" lon="-6.954592">
        <ele>643.073</ele>
        <time>2013-02-09T00:17:20Z</time>
      </trkpt>
      <trkpt lat="42.664530" lon="-6.954732">
        <ele>643.020</ele>
        <time>2013-02-09T00:17:40Z</time>
      </trkpt>
      <trkpt lat="42.664569" lon="-6.954796">
        <ele>643.007</ele>
        <time>2013-02-09T00:18:00Z</time>
      </trkpt>
      <trkpt lat="42.664680" lon="-6.954904">
        <ele>648.022</ele>
        <time>2013-02-09T00:18:20Z</time>
      </trkpt>
      <trkpt lat="42.664916" lon="-6.955097">
        <ele>649.048</ele>
        <time>2013-02-09T00:18:40Z</time>
      </trkpt>
      <trkpt lat="42.665035" lon="-6.955183">
        <ele>651.034</ele>
        <time>2013-02-09T00:19:00Z</time>
      </trkpt>
      <trkpt lat="42.665350" lon="-6.955451">
        <ele>654.067</ele>
        <time>2013-02-09T00:19:20Z</time>
      </trkpt>
      <trkpt lat="42.665492" lon="-6.955547">
        <ele>653.079</ele>
        <time>2013-02-09T00:19:40Z</time>
      </trkpt>
      <trkpt lat="42.665666" lon="-6.955719">
        <ele>655.031</ele>
        <time>2013-02-09T00:20:00Z</time>
      </trkpt>
      <trkpt lat="42.665784" lon="-6.955816">
        <ele>653.052</ele>
        <time>2013-02-09T00:20:20Z</time>
      </trkpt>
      <trkpt lat="42.665902" lon="-6.955923">
        <ele>653.065</ele>
        <time>2013-02-09T00:20:40Z</time>
      </trkpt>
      <trkpt lat="42.666163" lon="-6.956137">
        <ele>652.068</ele>
        <time>2013-02-09T00:21:00Z</time>
      </trkpt>
      <trkpt lat="42.666257" lon="-6.956202">
        <ele>650.014</ele>
        <time>2013-02-09T00:21:20Z</time>
      </trkpt>
      <trkpt lat="42.666384" lon="-6.956373">
        <ele>648.007</ele>
        <time>2013-02-09T00:21:40Z</time>
      </trkpt>
      <trkpt lat="42.666644" lon="-6.956609">
        <ele>642.069</ele>
        <time>2013-02-09T00:22:00Z</time>
      </trkpt>
      <trkpt lat="42.666841" lon="-6.956728">
        <ele>638.035</ele>
        <time>2013-02-09T00:22:20Z</time>
      </trkpt>
      <trkpt lat="42.667062" lon="-6.956942">
        <ele>638.091</ele>
        <time>2013-02-09T00:22:40Z</time>
      </trkpt>
      <trkpt lat="42.667196" lon="-6.957060">
        <ele>636.074</ele>
        <time>2013-02-09T00:23:00Z</time>
      </trkpt>
      <trkpt lat="42.667259" lon="-6.957146">
        <ele>636.096</ele>
        <time>2013-02-09T00:23:20Z</time>
      </trkpt>
      <trkpt lat="42.667409" lon="-6.957232">
        <ele>636.058</ele>
        <time>2013-02-09T00:23:40Z</time>
      </trkpt>
      <trkpt lat="42.667535" lon="-6.957318">
        <ele>636.049</ele>
        <time>2013-02-09T00:24:00Z</time>
      </trkpt>
      <trkpt lat="42.667898" lon="-6.957682">
        <ele>636.024</ele>
        <time>2013-02-09T00:24:20Z</time>
      </trkpt>
      <trkpt lat="42.668167" lon="-6.957854">
        <ele>636.004</ele>
        <time>2013-02-09T00:24:40Z</time>
      </trkpt>
      <trkpt lat="42.668395" lon="-6.958090">
        <ele>635.014</ele>
        <time>2013-02-09T00:25:00Z</time>
      </trkpt>
      <trkpt lat="42.668553" lon="-6.958197">
        <ele>637.007</ele>
        <time>2013-02-09T00:25:20Z</time>
      </trkpt>
      <trkpt lat="42.668687" lon="-6.958305">
        <ele>637.055</ele>
        <time>2013-02-09T00:25:40Z</time>
      </trkpt>
      <trkpt lat="42.668829" lon="-6.958412">
        <ele>638.041</ele>
        <time>2013-02-09T00:26:00Z</time>
      </trkpt>
      <trkpt lat="42.669042" lon="-6.958669">
        <ele>640.057</ele>
        <time>2013-02-09T00:26:20Z</time>
      </trkpt>
      <trkpt lat="42.669176" lon="-6.958766">
        <ele>640.040</ele>
        <time>2013-02-09T00:26:40Z</time>
      </trkpt>
      <trkpt lat="42.669295" lon="-6.958884">
        <ele>640.092</ele>
        <time>2013-02-09T00:27:00Z</time>
      </trkpt>
      <trkpt lat="42.669445" lon="-6.959034">
        <ele>640.064</ele>
        <time>2013-02-09T00:27:20Z</time>
      </trkpt>
      <trkpt lat="42.669563" lon="-6.959131">
        <ele>640.055</ele>
        <time>2013-02-09T00:27:40Z</time>
      </trkpt>
      <trkpt lat="42.669681" lon="-6.959281">
        <ele>643.042</ele>
        <time>2013-02-09T00:28:00Z</time>
      </trkpt>
      <trkpt lat="42.669752" lon="-6.959388">
        <ele>640.022</ele>
        <time>2013-02-09T00:28:20Z</time>
      </trkpt>
      <trkpt lat="42.669863" lon="-6.959581">
        <ele>645.014</ele>
        <time>2013-02-09T00:28:40Z</time>
      </trkpt>
      <trkpt lat="42.669918" lon="-6.959689">
        <ele>642.007</ele>
        <time>2013-02-09T00:29:00Z</time>
      </trkpt>
      <trkpt lat="42.670005" lon="-6.959807">
        <ele>642.087</ele>
        <time>2013-02-09T00:29:20Z</time>
      </trkpt>
      <trkpt lat="42.670123" lon="-6.960086">
        <ele>640.053</ele>
        <time>2013-02-09T00:29:40Z</time>
      </trkpt>
      <trkpt lat="42.670210" lon="-6.960300">
        <ele>643.099</ele>
        <time>2013-02-09T00:30:00Z</time>
      </trkpt>
      <trkpt lat="42.670289" lon="-6.960440">
        <ele>641.042</ele>
        <time>2013-02-09T00:30:20Z</time>
      </trkpt>
      <trkpt lat="42.670383" lon="-6.960654">
        <ele>641.024</ele>
        <time>2013-02-09T00:30:40Z</time>
      </trkpt>
      <trkpt lat="42.670462" lon="-6.960933">
        <ele>646.046</ele>
        <time>2013-02-09T00:31:00Z</time>
      </trkpt>
      <trkpt lat="42.670525" lon="-6.961040">
        <ele>645.047</ele>
        <time>2013-02-09T00:31:20Z</time>
      </trkpt>
      <trkpt lat="42.670604" lon="-6.961287">
        <ele>645.039</ele>
        <time>2013-02-09T00:31:40Z</time>
      </trkpt>
      <trkpt lat="42.670667" lon="-6.961416">
        <ele>645.001</ele>
        <time>2013-02-09T00:32:00Z</time>
      </trkpt>
      <trkpt lat="42.670738" lon="-6.961673">
        <ele>649.021</ele>
        <time>2013-02-09T00:32:20Z</time>
      </trkpt>
      <trkpt lat="42.670801" lon="-6.961813">
        <ele>648.007</ele>
        <time>2013-02-09T00:32:40Z</time>
      </trkpt>
      <trkpt lat="42.670872" lon="-6.962060">
        <ele>648.056</ele>
        <time>2013-02-09T00:33:00Z</time>
      </trkpt>
      <trkpt lat="42.670951" lon="-6.962199">
        <ele>648.022</ele>
        <time>2013-02-09T00:33:20Z</time>
      </trkpt>
      <trkpt lat="42.671022" lon="-6.962532">
        <ele>649.028</ele>
        <time>2013-02-09T00:33:40Z</time>
      </trkpt>
      <trkpt lat="42.671062" lon="-6.962650">
        <ele>647.031</ele>
        <time>2013-02-09T00:34:00Z</time>
      </trkpt>
      <trkpt lat="42.671148" lon="-6.962950">
        <ele>646.093</ele>
        <time>2013-02-09T00:34:20Z</time>
      </trkpt>
      <trkpt lat="42.671212" lon="-6.963090">
        <ele>646.055</ele>
        <time>2013-02-09T00:34:40Z</time>
      </trkpt>
      <trkpt lat="42.671298" lon="-6.963315">
        <ele>647.026</ele>
        <time>2013-02-09T00:35:00Z</time>
      </trkpt>
      <trkpt lat="42.671409" lon="-6.963605">
        <ele>645.055</ele>
        <time>2013-02-09T00:35:20Z</time>
      </trkpt>
      <trkpt lat="42.671480" lon="-6.963787">
        <ele>645.007</ele>
        <time>2013-02-09T00:35:40Z</time>
      </trkpt>
      <trkpt lat="42.671709" lon="-6.964291">
        <ele>646.017</ele>
        <time>2013-02-09T00:36:00Z</time>
      </trkpt>
      <trkpt lat="42.671866" lon="-6.964667">
        <ele>648.007</ele>
        <time>2013-02-09T00:36:20Z</time>
      </trkpt>
      <trkpt lat="42.672071" lon="-6.965128">
        <ele>652.018</ele>
        <time>2013-02-09T00:36:40Z</time>
      </trkpt>
      <trkpt lat="42.672182" lon="-6.965364">
        <ele>655.054</ele>
        <time>2013-02-09T00:37:00Z</time>
      </trkpt>
      <trkpt lat="42.672284" lon="-6.965472">
        <ele>658.070</ele>
        <time>2013-02-09T00:37:20Z</time>
      </trkpt>
      <trkpt lat="42.672347" lon="-6.965611">
        <ele>658.093</ele>
        <time>2013-02-09T00:37:40Z</time>
      </trkpt>
      <trkpt lat="42.672521" lon="-6.965858">
        <ele>657.045</ele>
        <time>2013-02-09T00:38:00Z</time>
      </trkpt>
      <trkpt lat="42.672663" lon="-6.966137">
        <ele>656.087</ele>
        <time>2013-02-09T00:38:20Z</time>
      </trkpt>
      <trkpt lat="42.672742" lon="-6.966351">
        <ele>655.078</ele>
        <time>2013-02-09T00:38:40Z</time>
      </trkpt>
      <trkpt lat="42.672813" lon="-6.966544">
        <ele>655.035</ele>
        <time>2013-02-09T00:39:00Z</time>
      </trkpt>
      <trkpt lat="42.672884" lon="-6.966738">
        <ele>655.086</ele>
        <time>2013-02-09T00:39:20Z</time>
      </trkpt>
      <trkpt lat="42.672908" lon="-6.966888">
        <ele>656.014</ele>
        <time>2013-02-09T00:39:40Z</time>
      </trkpt>
      <trkpt lat="42.672915" lon="-6.967134">
        <ele>658.007</ele>
        <time>2013-02-09T00:40:00Z</time>
      </trkpt>
      <trkpt lat="42.672908" lon="-6.967274">
        <ele>658.076</ele>
        <time>2013-02-09T00:40:20Z</time>
      </trkpt>
      <trkpt lat="42.672884" lon="-6.967521">
        <ele>659.052</ele>
        <time>2013-02-09T00:40:40Z</time>
      </trkpt>
      <trkpt lat="42.672813" lon="-6.967692">
        <ele>662.078</ele>
        <time>2013-02-09T00:41:00Z</time>
      </trkpt>
      <trkpt lat="42.672671" lon="-6.967961">
        <ele>665.031</ele>
        <time>2013-02-09T00:41:20Z</time>
      </trkpt>
      <trkpt lat="42.672545" lon="-6.968132">
        <ele>659.073</ele>
        <time>2013-02-09T00:41:40Z</time>
      </trkpt>
      <trkpt lat="42.672450" lon="-6.968272">
        <ele>661.085</ele>
        <time>2013-02-09T00:42:00Z</time>
      </trkpt>
      <trkpt lat="42.672395" lon="-6.968368">
        <ele>661.056</ele>
        <time>2013-02-09T00:42:20Z</time>
      </trkpt>
      <trkpt lat="42.672276" lon="-6.968465">
        <ele>656.086</ele>
        <time>2013-02-09T00:42:40Z</time>
      </trkpt>
      <trkpt lat="42.672190" lon="-6.968540">
        <ele>657.060</ele>
        <time>2013-02-09T00:43:00Z</time>
      </trkpt>
      <trkpt lat="42.672142" lon="-6.968637">
        <ele>657.026</ele>
        <time>2013-02-09T00:43:20Z</time>
      </trkpt>
      <trkpt lat="42.672056" lon="-6.968701">
        <ele>654.007</ele>
        <time>2013-02-09T00:43:40Z</time>
      </trkpt>
      <trkpt lat="42.671835" lon="-6.968797">
        <ele>654.061</ele>
        <time>2013-02-09T00:44:00Z</time>
      </trkpt>
      <trkpt lat="42.671740" lon="-6.968894">
        <ele>653.087</ele>
        <time>2013-02-09T00:44:20Z</time>
      </trkpt>
      <trkpt lat="42.671716" lon="-6.969023">
        <ele>653.073</ele>
        <time>2013-02-09T00:44:40Z</time>
      </trkpt>
      <trkpt lat="42.671756" lon="-6.969280">
        <ele>653.086</ele>
        <time>2013-02-09T00:45:00Z</time>
      </trkpt>
      <trkpt lat="42.671835" lon="-6.969388">
        <ele>654.078</ele>
        <time>2013-02-09T00:45:20Z</time>
      </trkpt>
      <trkpt lat="42.671929" lon="-6.969570">
        <ele>654.030</ele>
        <time>2013-02-09T00:45:40Z</time>
      </trkpt>
      <trkpt lat="42.672111" lon="-6.969688">
        <ele>658.081</ele>
        <time>2013-02-09T00:46:00Z</time>
      </trkpt>
      <trkpt lat="42.672300" lon="-6.969945">
        <ele>658.039</ele>
        <time>2013-02-09T00:46:20Z</time>
      </trkpt>
      <trkpt lat="42.672450" lon="-6.970106">
        <ele>665.001</ele>
        <time>2013-02-09T00:46:40Z</time>
      </trkpt>
      <trkpt lat="42.672568" lon="-6.970299">
        <ele>664.021</ele>
        <time>2013-02-09T00:47:00Z</time>
      </trkpt>
      <trkpt lat="42.672647" lon="-6.970514">
        <ele>675.007</ele>
        <time>2013-02-09T00:47:20Z</time>
      </trkpt>
      <trkpt lat="42.672655" lon="-6.970997">
        <ele>677.016</ele>
        <time>2013-02-09T00:47:40Z</time>
      </trkpt>
      <trkpt lat="42.672616" lon="-6.971104">
        <ele>666.082</ele>
        <time>2013-02-09T00:48:00Z</time>
      </trkpt>
      <trkpt lat="42.672576" lon="-6.971233">
        <ele>666.038</ele>
        <time>2013-02-09T00:48:20Z</time>
      </trkpt>
      <trkpt lat="42.672545" lon="-6.971490">
        <ele>668.041</ele>
        <time>2013-02-09T00:48:40Z</time>
      </trkpt>
      <trkpt lat="42.672529" lon="-6.971694">
        <ele>669.043</ele>
        <time>2013-02-09T00:49:00Z</time>
      </trkpt>
      <trkpt lat="42.672529" lon="-6.971802">
        <ele>669.055</ele>
        <time>2013-02-09T00:49:20Z</time>
      </trkpt>
      <trkpt lat="42.672529" lon="-6.971984">
        <ele>669.056</ele>
        <time>2013-02-09T00:49:40Z</time>
      </trkpt>
      <trkpt lat="42.672529" lon="-6.972123">
        <ele>670.029</ele>
        <time>2013-02-09T00:50:00Z</time>
      </trkpt>
      <trkpt lat="42.672553" lon="-6.972317">
        <ele>670.000</ele>
        <time>2013-02-09T00:50:20Z</time>
      </trkpt>
      <trkpt lat="42.672553" lon="-6.972435">
        <ele>670.020</ele>
        <time>2013-02-09T00:50:40Z</time>
      </trkpt>
      <trkpt lat="42.672553" lon="-6.972628">
        <ele>670.007</ele>
        <time>2013-02-09T00:51:00Z</time>
      </trkpt>
      <trkpt lat="42.672553" lon="-6.972789">
        <ele>671.095</ele>
        <time>2013-02-09T00:51:20Z</time>
      </trkpt>
      <trkpt lat="42.672553" lon="-6.973164">
        <ele>672.081</ele>
        <time>2013-02-09T00:51:40Z</time>
      </trkpt>
      <trkpt lat="42.672505" lon="-6.973604">
        <ele>673.027</ele>
        <time>2013-02-09T00:52:00Z</time>
      </trkpt>
      <trkpt lat="42.672482" lon="-6.973840">
        <ele>674.090</ele>
        <time>2013-02-09T00:52:20Z</time>
      </trkpt>
      <trkpt lat="42.672458" lon="-6.973979">
        <ele>674.042</ele>
        <time>2013-02-09T00:52:40Z</time>
      </trkpt>
      <trkpt lat="42.672466" lon="-6.974258">
        <ele>675.054</ele>
        <time>2013-02-09T00:53:00Z</time>
      </trkpt>
      <trkpt lat="42.672434" lon="-6.974484">
        <ele>676.045</ele>
        <time>2013-02-09T00:53:20Z</time>
      </trkpt>
      <trkpt lat="42.672497" lon="-6.975106">
        <ele>678.067</ele>
        <time>2013-02-09T00:53:40Z</time>
      </trkpt>
      <trkpt lat="42.672521" lon="-6.975267">
        <ele>679.081</ele>
        <time>2013-02-09T00:54:00Z</time>
      </trkpt>
      <trkpt lat="42.672560" lon="-6.975567">
        <ele>680.019</ele>
        <time>2013-02-09T00:54:20Z</time>
      </trkpt>
      <trkpt lat="42.672537" lon="-6.976383">
        <ele>685.007</ele>
        <time>2013-02-09T00:54:40Z</time>
      </trkpt>
      <trkpt lat="42.672505" lon="-6.976469">
        <ele>685.069</ele>
        <time>2013-02-09T00:55:00Z</time>
      </trkpt>
      <trkpt lat="42.672450" lon="-6.976769">
        <ele>686.035</ele>
        <time>2013-02-09T00:55:20Z</time>
      </trkpt>
      <trkpt lat="42.672426" lon="-6.977005">
        <ele>687.041</ele>
        <time>2013-02-09T00:55:40Z</time>
      </trkpt>
      <trkpt lat="42.672403" lon="-6.977166">
        <ele>687.054</ele>
        <time>2013-02-09T00:56:00Z</time>
      </trkpt>
      <trkpt lat="42.672403" lon="-6.977499">
        <ele>687.046</ele>
        <time>2013-02-09T00:56:20Z</time>
      </trkpt>
      <trkpt lat="42.672395" lon="-6.977670">
        <ele>688.058</ele>
        <time>2013-02-09T00:56:40Z</time>
      </trkpt>
      <trkpt lat="42.672387" lon="-6.977831">
        <ele>688.019</ele>
        <time>2013-02-09T00:57:00Z</time>
      </trkpt>
      <trkpt lat="42.672371" lon="-6.978046">
        <ele>689.017</ele>
        <time>2013-02-09T00:57:20Z</time>
      </trkpt>
      <trkpt lat="42.672379" lon="-6.978410">
        <ele>690.087</ele>
        <time>2013-02-09T00:57:40Z</time>
      </trkpt>
      <trkpt lat="42.672316" lon="-6.978561">
        <ele>686.015</ele>
        <time>2013-02-09T00:58:00Z</time>
      </trkpt>
      <trkpt lat="42.672245" lon="-6.978625">
        <ele>686.007</ele>
        <time>2013-02-09T00:58:20Z</time>
      </trkpt>
      <trkpt lat="42.672111" lon="-6.978625">
        <ele>686.094</ele>
        <time>2013-02-09T00:58:40Z</time>
      </trkpt>
      <trkpt lat="42.671716" lon="-6.978754">
        <ele>676.040</ele>
        <time>2013-02-09T00:59:00Z</time>
      </trkpt>
      <trkpt lat="42.671503" lon="-6.978807">
        <ele>672.076</ele>
        <time>2013-02-09T00:59:20Z</time>
      </trkpt>
      <trkpt lat="42.671464" lon="-6.978829">
        <ele>672.039</ele>
        <time>2013-02-09T00:59:40Z</time>
      </trkpt>
      <trkpt lat="42.671338" lon="-6.978861">
        <ele>672.031</ele>
        <time>2013-02-09T01:00:00Z</time>
      </trkpt>
      <trkpt lat="42.671259" lon="-6.978925">
        <ele>672.043</ele>
        <time>2013-02-09T01:00:20Z</time>
      </trkpt>
      <trkpt lat="42.671117" lon="-6.978990">
        <ele>670.084</ele>
        <time>2013-02-09T01:00:40Z</time>
      </trkpt>
      <trkpt lat="42.671085" lon="-6.979086">
        <ele>670.054</ele>
        <time>2013-02-09T01:01:00Z</time>
      </trkpt>
      <trkpt lat="42.670959" lon="-6.979322">
        <ele>670.056</ele>
        <time>2013-02-09T01:01:20Z</time>
      </trkpt>
      <trkpt lat="42.670928" lon="-6.979505">
        <ele>670.011</ele>
        <time>2013-02-09T01:01:40Z</time>
      </trkpt>
      <trkpt lat="42.670928" lon="-6.979859">
        <ele>669.007</ele>
        <time>2013-02-09T01:02:00Z</time>
      </trkpt>
      <trkpt lat="42.670935" lon="-6.979902">
        <ele>670.088</ele>
        <time>2013-02-09T01:02:20Z</time>
      </trkpt>
      <trkpt lat="42.670920" lon="-6.980052">
        <ele>670.034</ele>
        <time>2013-02-09T01:02:40Z</time>
      </trkpt>
      <trkpt lat="42.670920" lon="-6.980202">
        <ele>672.070</ele>
        <time>2013-02-09T01:03:00Z</time>
      </trkpt>
      <trkpt lat="42.670920" lon="-6.980417">
        <ele>673.043</ele>
        <time>2013-02-09T01:03:20Z</time>
      </trkpt>
      <trkpt lat="42.670904" lon="-6.980567">
        <ele>673.045</ele>
        <time>2013-02-09T01:03:40Z</time>
      </trkpt>
      <trkpt lat="42.670857" lon="-6.980964">
        <ele>675.077</ele>
        <time>2013-02-09T01:04:00Z</time>
      </trkpt>
      <trkpt lat="42.670754" lon="-6.981179">
        <ele>676.068</ele>
        <time>2013-02-09T01:04:20Z</time>
      </trkpt>
      <trkpt lat="42.670588" lon="-6.981554">
        <ele>683.057</ele>
        <time>2013-02-09T01:04:40Z</time>
      </trkpt>
      <trkpt lat="42.670494" lon="-6.981983">
        <ele>684.000</ele>
        <time>2013-02-09T01:05:00Z</time>
      </trkpt>
      <trkpt lat="42.670478" lon="-6.982133">
        <ele>685.020</ele>
        <time>2013-02-09T01:05:20Z</time>
      </trkpt>
      <trkpt lat="42.670549" lon="-6.982369">
        <ele>686.007</ele>
        <time>2013-02-09T01:05:40Z</time>
      </trkpt>
      <trkpt lat="42.670730" lon="-6.982713">
        <ele>680.028</ele>
        <time>2013-02-09T01:06:00Z</time>
      </trkpt>
      <trkpt lat="42.670793" lon="-6.982852">
        <ele>680.014</ele>
        <time>2013-02-09T01:06:20Z</time>
      </trkpt>
      <trkpt lat="42.670920" lon="-6.983120">
        <ele>680.060</ele>
        <time>2013-02-09T01:06:40Z</time>
      </trkpt>
      <trkpt lat="42.671006" lon="-6.983389">
        <ele>676.093</ele>
        <time>2013-02-09T01:07:00Z</time>
      </trkpt>
      <trkpt lat="42.671093" lon="-6.983711">
        <ele>676.095</ele>
        <time>2013-02-09T01:07:20Z</time>
      </trkpt>
      <trkpt lat="42.671251" lon="-6.984118">
        <ele>674.067</ele>
        <time>2013-02-09T01:07:40Z</time>
      </trkpt>
      <trkpt lat="42.671346" lon="-6.984344">
        <ele>675.088</ele>
        <time>2013-02-09T01:08:00Z</time>
      </trkpt>
      <trkpt lat="42.671385" lon="-6.984494">
        <ele>675.028</ele>
        <time>2013-02-09T01:08:20Z</time>
      </trkpt>
      <trkpt lat="42.671432" lon="-6.984665">
        <ele>676.089</ele>
        <time>2013-02-09T01:08:40Z</time>
      </trkpt>
      <trkpt lat="42.671535" lon="-6.984837">
        <ele>673.017</ele>
        <time>2013-02-09T01:09:00Z</time>
      </trkpt>
      <trkpt lat="42.671559" lon="-6.984955">
        <ele>675.007</ele>
        <time>2013-02-09T01:09:20Z</time>
      </trkpt>
      <trkpt lat="42.671582" lon="-6.985062">
        <ele>675.055</ele>
        <time>2013-02-09T01:09:40Z</time>
      </trkpt>
      <trkpt lat="42.671606" lon="-6.985191">
        <ele>680.051</ele>
        <time>2013-02-09T01:10:00Z</time>
      </trkpt>
      <trkpt lat="42.671645" lon="-6.985298">
        <ele>680.017</ele>
        <time>2013-02-09T01:10:20Z</time>
      </trkpt>
      <trkpt lat="42.671716" lon="-6.985513">
        <ele>686.030</ele>
        <time>2013-02-09T01:10:40Z</time>
      </trkpt>
      <trkpt lat="42.671740" lon="-6.985620">
        <ele>686.062</ele>
        <time>2013-02-09T01:11:00Z</time>
      </trkpt>
      <trkpt lat="42.671787" lon="-6.985760">
        <ele>691.014</ele>
        <time>2013-02-09T01:11:20Z</time>
      </trkpt>
      <trkpt lat="42.671858" lon="-6.985953">
        <ele>685.045</ele>
        <time>2013-02-09T01:11:40Z</time>
      </trkpt>
      <trkpt lat="42.671914" lon="-6.986103">
        <ele>688.091</ele>
        <time>2013-02-09T01:12:00Z</time>
      </trkpt>
      <trkpt lat="42.672008" lon="-6.986285">
        <ele>692.081</ele>
        <time>2013-02-09T01:12:20Z</time>
      </trkpt>
      <trkpt lat="42.672087" lon="-6.986361">
        <ele>686.019</ele>
        <time>2013-02-09T01:12:40Z</time>
      </trkpt>
      <trkpt lat="42.672166" lon="-6.986521">
        <ele>686.007</ele>
        <time>2013-02-09T01:13:00Z</time>
      </trkpt>
      <trkpt lat="42.672292" lon="-6.986876">
        <ele>692.082</ele>
        <time>2013-02-09T01:13:20Z</time>
      </trkpt>
      <trkpt lat="42.672371" lon="-6.987004">
        <ele>685.088</ele>
        <time>2013-02-09T01:13:40Z</time>
      </trkpt>
      <trkpt lat="42.672466" lon="-6.987133">
        <ele>687.054</ele>
        <time>2013-02-09T01:14:00Z</time>
      </trkpt>
      <trkpt lat="42.672576" lon="-6.987208">
        <ele>687.027</ele>
        <time>2013-02-09T01:14:20Z</time>
      </trkpt>
      <trkpt lat="42.672647" lon="-6.987433">
        <ele>681.039</ele>
        <time>2013-02-09T01:14:40Z</time>
      </trkpt>
      <trkpt lat="42.672695" lon="-6.987530">
        <ele>681.091</ele>
        <time>2013-02-09T01:15:00Z</time>
      </trkpt>
      <trkpt lat="42.672758" lon="-6.987659">
        <ele>681.092</ele>
        <time>2013-02-09T01:15:20Z</time>
      </trkpt>
      <trkpt lat="42.672805" lon="-6.987766">
        <ele>681.015</ele>
        <time>2013-02-09T01:15:40Z</time>
      </trkpt>
      <trkpt lat="42.672821" lon="-6.987906">
        <ele>681.065</ele>
        <time>2013-02-09T01:16:00Z</time>
      </trkpt>
      <trkpt lat="42.672860" lon="-6.988045">
        <ele>682.011</ele>
        <time>2013-02-09T01:16:20Z</time>
      </trkpt>
      <trkpt lat="42.672884" lon="-6.988206">
        <ele>683.007</ele>
        <time>2013-02-09T01:16:40Z</time>
      </trkpt>
      <trkpt lat="42.672900" lon="-6.988335">
        <ele>683.094</ele>
        <time>2013-02-09T01:17:00Z</time>
      </trkpt>
      <trkpt lat="42.672931" lon="-6.988474">
        <ele>681.030</ele>
        <time>2013-02-09T01:17:20Z</time>
      </trkpt>
      <trkpt lat="42.672931" lon="-6.988614">
        <ele>681.046</ele>
        <time>2013-02-09T01:17:40Z</time>
      </trkpt>
      <trkpt lat="42.672923" lon="-6.988796">
        <ele>682.039</ele>
        <time>2013-02-09T01:18:00Z</time>
      </trkpt>
      <trkpt lat="42.672939" lon="-6.988957">
        <ele>682.031</ele>
        <time>2013-02-09T01:18:20Z</time>
      </trkpt>
      <trkpt lat="42.672931" lon="-6.989172">
        <ele>682.013</ele>
        <time>2013-02-09T01:18:40Z</time>
      </trkpt>
      <trkpt lat="42.672884" lon="-6.989311">
        <ele>685.054</ele>
        <time>2013-02-09T01:19:00Z</time>
      </trkpt>
      <trkpt lat="42.672868" lon="-6.989547">
        <ele>685.055</ele>
        <time>2013-02-09T01:19:20Z</time>
      </trkpt>
      <trkpt lat="42.672789" lon="-6.989805">
        <ele>686.007</ele>
        <time>2013-02-09T01:19:40Z</time>
      </trkpt>
      <trkpt lat="42.672781" lon="-6.990030">
        <ele>687.017</ele>
        <time>2013-02-09T01:20:00Z</time>
      </trkpt>
      <trkpt lat="42.672781" lon="-6.990191">
        <ele>688.007</ele>
        <time>2013-02-09T01:20:20Z</time>
      </trkpt>
      <trkpt lat="42.672758" lon="-6.990405">
        <ele>688.048</ele>
        <time>2013-02-09T01:20:40Z</time>
      </trkpt>
      <trkpt lat="42.672829" lon="-6.990556">
        <ele>689.074</ele>
        <time>2013-02-09T01:21:00Z</time>
      </trkpt>
      <trkpt lat="42.672947" lon="-6.990706">
        <ele>690.060</ele>
        <time>2013-02-09T01:21:20Z</time>
      </trkpt>
      <trkpt lat="42.673018" lon="-6.990834">
        <ele>690.033</ele>
        <time>2013-02-09T01:21:40Z</time>
      </trkpt>
      <trkpt lat="42.673050" lon="-6.991006">
        <ele>691.045</ele>
        <time>2013-02-09T01:22:00Z</time>
      </trkpt>
      <trkpt lat="42.673223" lon="-6.991167">
        <ele>695.037</ele>
        <time>2013-02-09T01:22:20Z</time>
      </trkpt>
      <trkpt lat="42.673215" lon="-6.991467">
        <ele>695.098</ele>
        <time>2013-02-09T01:22:40Z</time>
      </trkpt>
      <trkpt lat="42.673105" lon="-6.991961">
        <ele>691.027</ele>
        <time>2013-02-09T01:23:00Z</time>
      </trkpt>
      <trkpt lat="42.673073" lon="-6.992186">
        <ele>691.068</ele>
        <time>2013-02-09T01:23:20Z</time>
      </trkpt>
      <trkpt lat="42.673073" lon="-6.992422">
        <ele>692.014</ele>
        <time>2013-02-09T01:23:40Z</time>
      </trkpt>
      <trkpt lat="42.673113" lon="-6.992658">
        <ele>696.007</ele>
        <time>2013-02-09T01:24:00Z</time>
      </trkpt>
      <trkpt lat="42.673215" lon="-6.992980">
        <ele>690.045</ele>
        <time>2013-02-09T01:24:20Z</time>
      </trkpt>
      <trkpt lat="42.673270" lon="-6.993163">
        <ele>690.071</ele>
        <time>2013-02-09T01:24:40Z</time>
      </trkpt>
      <trkpt lat="42.673341" lon="-6.993313">
        <ele>697.017</ele>
        <time>2013-02-09T01:25:00Z</time>
      </trkpt>
      <trkpt lat="42.673405" lon="-6.993442">
        <ele>697.070</ele>
        <time>2013-02-09T01:25:20Z</time>
      </trkpt>
      <trkpt lat="42.673610" lon="-6.993581">
        <ele>697.092</ele>
        <time>2013-02-09T01:25:40Z</time>
      </trkpt>
      <trkpt lat="42.673886" lon="-6.993731">
        <ele>694.064</ele>
        <time>2013-02-09T01:26:00Z</time>
      </trkpt>
      <trkpt lat="42.674099" lon="-6.993860">
        <ele>700.025</ele>
        <time>2013-02-09T01:26:20Z</time>
      </trkpt>
      <trkpt lat="42.674217" lon="-6.993999">
        <ele>700.091</ele>
        <time>2013-02-09T01:26:40Z</time>
      </trkpt>
      <trkpt lat="42.674367" lon="-6.994128">
        <ele>702.081</ele>
        <time>2013-02-09T01:27:00Z</time>
      </trkpt>
      <trkpt lat="42.674509" lon="-6.994214">
        <ele>702.019</ele>
        <time>2013-02-09T01:27:20Z</time>
      </trkpt>
      <trkpt lat="42.674635" lon="-6.994461">
        <ele>700.007</ele>
        <time>2013-02-09T01:27:40Z</time>
      </trkpt>
      <trkpt lat="42.674761" lon="-6.994697">
        <ele>702.012</ele>
        <time>2013-02-09T01:28:00Z</time>
      </trkpt>
      <trkpt lat="42.674856" lon="-6.994901">
        <ele>706.028</ele>
        <time>2013-02-09T01:28:20Z</time>
      </trkpt>
      <trkpt lat="42.675014" lon="-6.995190">
        <ele>708.034</ele>
        <time>2013-02-09T01:28:40Z</time>
      </trkpt>
      <trkpt lat="42.675306" lon="-6.995319">
        <ele>710.037</ele>
        <time>2013-02-09T01:29:00Z</time>
      </trkpt>
      <trkpt lat="42.675511" lon="-6.995459">
        <ele>714.069</ele>
        <time>2013-02-09T01:29:20Z</time>
      </trkpt>
      <trkpt lat="42.675660" lon="-6.995652">
        <ele>714.021</ele>
        <time>2013-02-09T01:29:40Z</time>
      </trkpt>
      <trkpt lat="42.675755" lon="-6.995759">
        <ele>721.072</ele>
        <time>2013-02-09T01:30:00Z</time>
      </trkpt>
      <trkpt lat="42.675881" lon="-6.995888">
        <ele>721.023</ele>
        <time>2013-02-09T01:30:20Z</time>
      </trkpt>
      <trkpt lat="42.675976" lon="-6.996220">
        <ele>734.083</ele>
        <time>2013-02-09T01:30:40Z</time>
      </trkpt>
      <trkpt lat="42.676023" lon="-6.996403">
        <ele>735.011</ele>
        <time>2013-02-09T01:31:00Z</time>
      </trkpt>
      <trkpt lat="42.676071" lon="-6.996596">
        <ele>737.007</ele>
        <time>2013-02-09T01:31:20Z</time>
      </trkpt>
      <trkpt lat="42.676118" lon="-6.996982">
        <ele>738.045</ele>
        <time>2013-02-09T01:31:40Z</time>
      </trkpt>
      <trkpt lat="42.676086" lon="-6.997175">
        <ele>740.061</ele>
        <time>2013-02-09T01:32:00Z</time>
      </trkpt>
      <trkpt lat="42.676000" lon="-6.997368">
        <ele>743.077</ele>
        <time>2013-02-09T01:32:20Z</time>
      </trkpt>
      <trkpt lat="42.675952" lon="-6.997551">
        <ele>730.050</ele>
        <time>2013-02-09T01:32:40Z</time>
      </trkpt>
      <trkpt lat="42.675897" lon="-6.997669">
        <ele>733.082</ele>
        <time>2013-02-09T01:33:00Z</time>
      </trkpt>
      <trkpt lat="42.675850" lon="-6.997722">
        <ele>733.084</ele>
        <time>2013-02-09T01:33:20Z</time>
      </trkpt>
      <trkpt lat="42.675747" lon="-6.997755">
        <ele>733.055</ele>
        <time>2013-02-09T01:33:40Z</time>
      </trkpt>
      <trkpt lat="42.675692" lon="-6.997894">
        <ele>723.068</ele>
        <time>2013-02-09T01:34:00Z</time>
      </trkpt>
      <trkpt lat="42.675668" lon="-6.998055">
        <ele>723.042</ele>
        <time>2013-02-09T01:34:20Z</time>
      </trkpt>
      <trkpt lat="42.675692" lon="-6.998248">
        <ele>723.026</ele>
        <time>2013-02-09T01:34:40Z</time>
      </trkpt>
      <trkpt lat="42.675779" lon="-6.998345">
        <ele>734.007</ele>
        <time>2013-02-09T01:35:00Z</time>
      </trkpt>
      <trkpt lat="42.675858" lon="-6.998549">
        <ele>733.019</ele>
        <time>2013-02-09T01:35:20Z</time>
      </trkpt>
      <trkpt lat="42.675960" lon="-6.998731">
        <ele>733.095</ele>
        <time>2013-02-09T01:35:40Z</time>
      </trkpt>
      <trkpt lat="42.676015" lon="-6.998838">
        <ele>743.031</ele>
        <time>2013-02-09T01:36:00Z</time>
      </trkpt>
      <trkpt lat="42.676063" lon="-6.998935">
        <ele>743.034</ele>
        <time>2013-02-09T01:36:20Z</time>
      </trkpt>
      <trkpt lat="42.676118" lon="-6.999074">
        <ele>739.036</ele>
        <time>2013-02-09T01:36:40Z</time>
      </trkpt>
      <trkpt lat="42.676189" lon="-6.999246">
        <ele>739.078</ele>
        <time>2013-02-09T01:37:00Z</time>
      </trkpt>
      <trkpt lat="42.676236" lon="-6.999407">
        <ele>736.019</ele>
        <time>2013-02-09T01:37:20Z</time>
      </trkpt>
      <trkpt lat="42.676315" lon="-6.999632">
        <ele>742.055</ele>
        <time>2013-02-09T01:37:40Z</time>
      </trkpt>
      <trkpt lat="42.676418" lon="-6.999793">
        <ele>742.007</ele>
        <time>2013-02-09T01:38:00Z</time>
      </trkpt>
      <trkpt lat="42.676489" lon="-6.999965">
        <ele>737.017</ele>
        <time>2013-02-09T01:38:20Z</time>
      </trkpt>
      <trkpt lat="42.676568" lon="-7.000115">
        <ele>744.007</ele>
        <time>2013-02-09T01:38:40Z</time>
      </trkpt>
      <trkpt lat="42.676923" lon="-7.000201">
        <ele>746.028</ele>
        <time>2013-02-09T01:39:00Z</time>
      </trkpt>
      <trkpt lat="42.677404" lon="-7.000201">
        <ele>755.014</ele>
        <time>2013-02-09T01:39:20Z</time>
      </trkpt>
      <trkpt lat="42.677656" lon="-7.000362">
        <ele>762.060</ele>
        <time>2013-02-09T01:39:40Z</time>
      </trkpt>
      <trkpt lat="42.677979" lon="-7.000662">
        <ele>765.073</ele>
        <time>2013-02-09T01:40:00Z</time>
      </trkpt>
      <trkpt lat="42.678106" lon="-7.000769">
        <ele>763.035</ele>
        <time>2013-02-09T01:40:20Z</time>
      </trkpt>
      <trkpt lat="42.678240" lon="-7.000920">
        <ele>763.047</ele>
        <time>2013-02-09T01:40:40Z</time>
      </trkpt>
      <trkpt lat="42.678547" lon="-7.001231">
        <ele>759.038</ele>
        <time>2013-02-09T01:41:00Z</time>
      </trkpt>
      <trkpt lat="42.678634" lon="-7.001295">
        <ele>759.081</ele>
        <time>2013-02-09T01:41:20Z</time>
      </trkpt>
      <trkpt lat="42.678760" lon="-7.001402">
        <ele>758.061</ele>
        <time>2013-02-09T01:41:40Z</time>
      </trkpt>
      <trkpt lat="42.678902" lon="-7.001595">
        <ele>758.017</ele>
        <time>2013-02-09T01:42:00Z</time>
      </trkpt>
      <trkpt lat="42.678997" lon="-7.001724">
        <ele>758.007</ele>
        <time>2013-02-09T01:42:20Z</time>
      </trkpt>
      <trkpt lat="42.679155" lon="-7.001971">
        <ele>760.041</ele>
        <time>2013-02-09T01:42:40Z</time>
      </trkpt>
      <trkpt lat="42.679376" lon="-7.002228">
        <ele>766.017</ele>
        <time>2013-02-09T01:43:00Z</time>
      </trkpt>
      <trkpt lat="42.679596" lon="-7.002615">
        <ele>770.023</ele>
        <time>2013-02-09T01:43:20Z</time>
      </trkpt>
      <trkpt lat="42.679730" lon="-7.002711">
        <ele>777.096</ele>
        <time>2013-02-09T01:43:40Z</time>
      </trkpt>
      <trkpt lat="42.679849" lon="-7.002894">
        <ele>777.038</ele>
        <time>2013-02-09T01:44:00Z</time>
      </trkpt>
      <trkpt lat="42.679983" lon="-7.003098">
        <ele>784.060</ele>
        <time>2013-02-09T01:44:20Z</time>
      </trkpt>
      <trkpt lat="42.680109" lon="-7.003248">
        <ele>790.011</ele>
        <time>2013-02-09T01:44:40Z</time>
      </trkpt>
      <trkpt lat="42.680149" lon="-7.003516">
        <ele>795.014</ele>
        <time>2013-02-09T01:45:00Z</time>
      </trkpt>
      <trkpt lat="42.680172" lon="-7.003731">
        <ele>795.054</ele>
        <time>2013-02-09T01:45:20Z</time>
      </trkpt>
      <trkpt lat="42.680149" lon="-7.003816">
        <ele>805.009</ele>
        <time>2013-02-09T01:45:40Z</time>
      </trkpt>
      <trkpt lat="42.680078" lon="-7.003924">
        <ele>810.007</ele>
        <time>2013-02-09T01:46:00Z</time>
      </trkpt>
      <trkpt lat="42.680046" lon="-7.004128">
        <ele>823.054</ele>
        <time>2013-02-09T01:46:20Z</time>
      </trkpt>
      <trkpt lat="42.680251" lon="-7.004449">
        <ele>830.010</ele>
        <time>2013-02-09T01:46:40Z</time>
      </trkpt>
      <trkpt lat="42.680432" lon="-7.004610">
        <ele>836.056</ele>
        <time>2013-02-09T01:47:00Z</time>
      </trkpt>
      <trkpt lat="42.680614" lon="-7.004793">
        <ele>836.079</ele>
        <time>2013-02-09T01:47:20Z</time>
      </trkpt>
      <trkpt lat="42.680890" lon="-7.005007">
        <ele>840.031</ele>
        <time>2013-02-09T01:47:40Z</time>
      </trkpt>
      <trkpt lat="42.681087" lon="-7.005233">
        <ele>841.033</ele>
        <time>2013-02-09T01:48:00Z</time>
      </trkpt>
      <trkpt lat="42.681205" lon="-7.005329">
        <ele>841.024</ele>
        <time>2013-02-09T01:48:20Z</time>
      </trkpt>
      <trkpt lat="42.681450" lon="-7.005587">
        <ele>845.083</ele>
        <time>2013-02-09T01:48:40Z</time>
      </trkpt>
      <trkpt lat="42.681718" lon="-7.005780">
        <ele>848.025</ele>
        <time>2013-02-09T01:49:00Z</time>
      </trkpt>
      <trkpt lat="42.681899" lon="-7.005898">
        <ele>850.017</ele>
        <time>2013-02-09T01:49:20Z</time>
      </trkpt>
      <trkpt lat="42.682073" lon="-7.006166">
        <ele>851.007</ele>
        <time>2013-02-09T01:49:40Z</time>
      </trkpt>
      <trkpt lat="42.682199" lon="-7.006338">
        <ele>856.091</ele>
        <time>2013-02-09T01:50:00Z</time>
      </trkpt>
      <trkpt lat="42.682333" lon="-7.006531">
        <ele>860.017</ele>
        <time>2013-02-09T01:50:20Z</time>
      </trkpt>
      <trkpt lat="42.682499" lon="-7.006735">
        <ele>863.063</ele>
        <time>2013-02-09T01:50:40Z</time>
      </trkpt>
      <trkpt lat="42.682586" lon="-7.006863">
        <ele>867.096</ele>
        <time>2013-02-09T01:51:00Z</time>
      </trkpt>
      <trkpt lat="42.682672" lon="-7.007024">
        <ele>871.058</ele>
        <time>2013-02-09T01:51:20Z</time>
      </trkpt>
      <trkpt lat="42.682814" lon="-7.007196">
        <ele>874.030</ele>
        <time>2013-02-09T01:51:40Z</time>
      </trkpt>
      <trkpt lat="42.682972" lon="-7.007325">
        <ele>878.021</ele>
        <time>2013-02-09T01:52:00Z</time>
      </trkpt>
      <trkpt lat="42.683090" lon="-7.007453">
        <ele>880.053</ele>
        <time>2013-02-09T01:52:20Z</time>
      </trkpt>
      <trkpt lat="42.683240" lon="-7.007604">
        <ele>885.004</ele>
        <time>2013-02-09T01:52:40Z</time>
      </trkpt>
      <trkpt lat="42.683382" lon="-7.007700">
        <ele>888.014</ele>
        <time>2013-02-09T01:53:00Z</time>
      </trkpt>
      <trkpt lat="42.683430" lon="-7.007357">
        <ele>882.007</ele>
        <time>2013-02-09T01:53:20Z</time>
      </trkpt>
      <trkpt lat="42.683737" lon="-7.007411">
        <ele>889.018</ele>
        <time>2013-02-09T01:53:40Z</time>
      </trkpt>
      <trkpt lat="42.683997" lon="-7.007754">
        <ele>895.044</ele>
        <time>2013-02-09T01:54:00Z</time>
      </trkpt>
      <trkpt lat="42.684187" lon="-7.008011">
        <ele>901.030</ele>
        <time>2013-02-09T01:54:20Z</time>
      </trkpt>
      <trkpt lat="42.684281" lon="-7.008312">
        <ele>903.013</ele>
        <time>2013-02-09T01:54:40Z</time>
      </trkpt>
      <trkpt lat="42.684297" lon="-7.008559">
        <ele>906.045</ele>
        <time>2013-02-09T01:55:00Z</time>
      </trkpt>
      <trkpt lat="42.684313" lon="-7.008612">
        <ele>906.037</ele>
        <time>2013-02-09T01:55:20Z</time>
      </trkpt>
      <trkpt lat="42.684384" lon="-7.008762">
        <ele>909.068</ele>
        <time>2013-02-09T01:55:40Z</time>
      </trkpt>
      <trkpt lat="42.684676" lon="-7.008902">
        <ele>909.093</ele>
        <time>2013-02-09T01:56:00Z</time>
      </trkpt>
      <trkpt lat="42.684668" lon="-7.009149">
        <ele>911.065</ele>
        <time>2013-02-09T01:56:20Z</time>
      </trkpt>
      <trkpt lat="42.684691" lon="-7.009374">
        <ele>912.021</ele>
        <time>2013-02-09T01:56:40Z</time>
      </trkpt>
      <trkpt lat="42.684762" lon="-7.009535">
        <ele>912.007</ele>
        <time>2013-02-09T01:57:00Z</time>
      </trkpt>
      <trkpt lat="42.684896" lon="-7.009631">
        <ele>913.022</ele>
        <time>2013-02-09T01:57:20Z</time>
      </trkpt>
      <trkpt lat="42.685133" lon="-7.009782">
        <ele>913.038</ele>
        <time>2013-02-09T01:57:40Z</time>
      </trkpt>
      <trkpt lat="42.685338" lon="-7.009985">
        <ele>913.014</ele>
        <time>2013-02-09T01:58:00Z</time>
      </trkpt>
      <trkpt lat="42.685551" lon="-7.010136">
        <ele>918.017</ele>
        <time>2013-02-09T01:58:20Z</time>
      </trkpt>
      <trkpt lat="42.685677" lon="-7.010286">
        <ele>916.099</ele>
        <time>2013-02-09T01:58:40Z</time>
      </trkpt>
      <trkpt lat="42.685851" lon="-7.010479">
        <ele>923.031</ele>
        <time>2013-02-09T01:59:00Z</time>
      </trkpt>
      <trkpt lat="42.686158" lon="-7.010597">
        <ele>930.042</ele>
        <time>2013-02-09T01:59:20Z</time>
      </trkpt>
      <trkpt lat="42.686411" lon="-7.010683">
        <ele>937.092</ele>
        <time>2013-02-09T01:59:40Z</time>
      </trkpt>
      <trkpt lat="42.686490" lon="-7.010865">
        <ele>939.073</ele>
        <time>2013-02-09T02:00:00Z</time>
      </trkpt>
      <trkpt lat="42.686608" lon="-7.011058">
        <ele>947.020</ele>
        <time>2013-02-09T02:00:20Z</time>
      </trkpt>
      <trkpt lat="42.686703" lon="-7.011241">
        <ele>947.007</ele>
        <time>2013-02-09T02:00:40Z</time>
      </trkpt>
      <trkpt lat="42.686805" lon="-7.011337">
        <ele>949.072</ele>
        <time>2013-02-09T02:01:00Z</time>
      </trkpt>
      <trkpt lat="42.686900" lon="-7.011541">
        <ele>956.088</ele>
        <time>2013-02-09T02:01:20Z</time>
      </trkpt>
      <trkpt lat="42.686915" lon="-7.011659">
        <ele>956.074</ele>
        <time>2013-02-09T02:01:40Z</time>
      </trkpt>
      <trkpt lat="42.686821" lon="-7.012002">
        <ele>957.057</ele>
        <time>2013-02-09T02:02:00Z</time>
      </trkpt>
      <trkpt lat="42.686584" lon="-7.012367">
        <ele>953.059</ele>
        <time>2013-02-09T02:02:20Z</time>
      </trkpt>
      <trkpt lat="42.686584" lon="-7.012453">
        <ele>953.061</ele>
        <time>2013-02-09T02:02:40Z</time>
      </trkpt>
      <trkpt lat="42.686758" lon="-7.012721">
        <ele>947.072</ele>
        <time>2013-02-09T02:03:00Z</time>
      </trkpt>
      <trkpt lat="42.686971" lon="-7.012893">
        <ele>951.041</ele>
        <time>2013-02-09T02:03:20Z</time>
      </trkpt>
      <trkpt lat="42.687255" lon="-7.013000">
        <ele>949.081</ele>
        <time>2013-02-09T02:03:40Z</time>
      </trkpt>
      <trkpt lat="42.687546" lon="-7.012850">
        <ele>957.009</ele>
        <time>2013-02-09T02:04:00Z</time>
      </trkpt>
      <trkpt lat="42.687822" lon="-7.012668">
        <ele>959.007</ele>
        <time>2013-02-09T02:04:20Z</time>
      </trkpt>
      <trkpt lat="42.688185" lon="-7.012678">
        <ele>961.067</ele>
        <time>2013-02-09T02:04:40Z</time>
      </trkpt>
      <trkpt lat="42.688501" lon="-7.012764">
        <ele>968.063</ele>
        <time>2013-02-09T02:05:00Z</time>
      </trkpt>
      <trkpt lat="42.688839" lon="-7.012850">
        <ele>971.099</ele>
        <time>2013-02-09T02:05:20Z</time>
      </trkpt>
      <trkpt lat="42.689171" lon="-7.013022">
        <ele>974.022</ele>
        <time>2013-02-09T02:05:40Z</time>
      </trkpt>
      <trkpt lat="42.689218" lon="-7.013161">
        <ele>974.034</ele>
        <time>2013-02-09T02:06:00Z</time>
      </trkpt>
      <trkpt lat="42.689337" lon="-7.013537">
        <ele>981.026</ele>
        <time>2013-02-09T02:06:20Z</time>
      </trkpt>
      <trkpt lat="42.689423" lon="-7.013676">
        <ele>981.097</ele>
        <time>2013-02-09T02:06:40Z</time>
      </trkpt>
      <trkpt lat="42.689502" lon="-7.013934">
        <ele>981.086</ele>
        <time>2013-02-09T02:07:00Z</time>
      </trkpt>
      <trkpt lat="42.689573" lon="-7.014041">
        <ele>980.060</ele>
        <time>2013-02-09T02:07:20Z</time>
      </trkpt>
      <trkpt lat="42.689747" lon="-7.014288">
        <ele>990.026</ele>
        <time>2013-02-09T02:07:40Z</time>
      </trkpt>
      <trkpt lat="42.689818" lon="-7.014502">
        <ele>988.007</ele>
        <time>2013-02-09T02:08:00Z</time>
      </trkpt>
      <trkpt lat="42.689912" lon="-7.014663">
        <ele>993.011</ele>
        <time>2013-02-09T02:08:20Z</time>
      </trkpt>
      <trkpt lat="42.690078" lon="-7.014899">
        <ele>988.087</ele>
        <time>2013-02-09T02:08:40Z</time>
      </trkpt>
      <trkpt lat="42.690425" lon="-7.014996">
        <ele>1001.043</ele>
        <time>2013-02-09T02:09:00Z</time>
      </trkpt>
      <trkpt lat="42.690772" lon="-7.015092">
        <ele>1009.036</ele>
        <time>2013-02-09T02:09:20Z</time>
      </trkpt>
      <trkpt lat="42.691103" lon="-7.015114">
        <ele>1016.098</ele>
        <time>2013-02-09T02:09:40Z</time>
      </trkpt>
      <trkpt lat="42.691395" lon="-7.015200">
        <ele>1017.030</ele>
        <time>2013-02-09T02:10:00Z</time>
      </trkpt>
      <trkpt lat="42.691742" lon="-7.015339">
        <ele>1026.041</ele>
        <time>2013-02-09T02:10:20Z</time>
      </trkpt>
      <trkpt lat="42.692018" lon="-7.015446">
        <ele>1032.073</ele>
        <time>2013-02-09T02:10:40Z</time>
      </trkpt>
      <trkpt lat="42.692136" lon="-7.015693">
        <ele>1042.085</ele>
        <time>2013-02-09T02:11:00Z</time>
      </trkpt>
      <trkpt lat="42.692325" lon="-7.016165">
        <ele>1038.013</ele>
        <time>2013-02-09T02:11:20Z</time>
      </trkpt>
      <trkpt lat="42.692428" lon="-7.016423">
        <ele>1047.007</ele>
        <time>2013-02-09T02:11:40Z</time>
      </trkpt>
      <trkpt lat="42.692546" lon="-7.016498">
        <ele>1047.030</ele>
        <time>2013-02-09T02:12:00Z</time>
      </trkpt>
      <trkpt lat="42.692578" lon="-7.016712">
        <ele>1044.086</ele>
        <time>2013-02-09T02:12:20Z</time>
      </trkpt>
      <trkpt lat="42.692720" lon="-7.017002">
        <ele>1052.052</ele>
        <time>2013-02-09T02:12:40Z</time>
      </trkpt>
      <trkpt lat="42.692862" lon="-7.017174">
        <ele>1049.035</ele>
        <time>2013-02-09T02:13:00Z</time>
      </trkpt>
      <trkpt lat="42.693051" lon="-7.017410">
        <ele>1051.097</ele>
        <time>2013-02-09T02:13:20Z</time>
      </trkpt>
      <trkpt lat="42.693209" lon="-7.017667">
        <ele>1052.049</ele>
        <time>2013-02-09T02:13:40Z</time>
      </trkpt>
      <trkpt lat="42.693335" lon="-7.017753">
        <ele>1052.070</ele>
        <time>2013-02-09T02:14:00Z</time>
      </trkpt>
      <trkpt lat="42.693603" lon="-7.018011">
        <ele>1053.062</ele>
        <time>2013-02-09T02:14:20Z</time>
      </trkpt>
      <trkpt lat="42.693761" lon="-7.018118">
        <ele>1058.083</ele>
        <time>2013-02-09T02:14:40Z</time>
      </trkpt>
      <trkpt lat="42.694344" lon="-7.018247">
        <ele>1052.011</ele>
        <time>2013-02-09T02:15:00Z</time>
      </trkpt>
      <trkpt lat="42.694557" lon="-7.018332">
        <ele>1052.007</ele>
        <time>2013-02-09T02:15:20Z</time>
      </trkpt>
      <trkpt lat="42.694801" lon="-7.018483">
        <ele>1047.069</ele>
        <time>2013-02-09T02:15:40Z</time>
      </trkpt>
      <trkpt lat="42.694943" lon="-7.018569">
        <ele>1049.055</ele>
        <time>2013-02-09T02:16:00Z</time>
      </trkpt>
      <trkpt lat="42.695393" lon="-7.018579">
        <ele>1050.051</ele>
        <time>2013-02-09T02:16:20Z</time>
      </trkpt>
      <trkpt lat="42.695653" lon="-7.018429">
        <ele>1062.054</ele>
        <time>2013-02-09T02:16:40Z</time>
      </trkpt>
      <trkpt lat="42.695976" lon="-7.018429">
        <ele>1067.086</ele>
        <time>2013-02-09T02:17:00Z</time>
      </trkpt>
      <trkpt lat="42.696355" lon="-7.018386">
        <ele>1067.028</ele>
        <time>2013-02-09T02:17:20Z</time>
      </trkpt>
      <trkpt lat="42.696647" lon="-7.018590">
        <ele>1069.099</ele>
        <time>2013-02-09T02:17:40Z</time>
      </trkpt>
      <trkpt lat="42.696867" lon="-7.018805">
        <ele>1078.098</ele>
        <time>2013-02-09T02:18:00Z</time>
      </trkpt>
      <trkpt lat="42.697072" lon="-7.019030">
        <ele>1081.015</ele>
        <time>2013-02-09T02:18:20Z</time>
      </trkpt>
      <trkpt lat="42.697183" lon="-7.019212">
        <ele>1085.026</ele>
        <time>2013-02-09T02:18:40Z</time>
      </trkpt>
      <trkpt lat="42.697593" lon="-7.019781">
        <ele>1089.007</ele>
        <time>2013-02-09T02:19:00Z</time>
      </trkpt>
      <trkpt lat="42.697845" lon="-7.019920">
        <ele>1092.042</ele>
        <time>2013-02-09T02:19:20Z</time>
      </trkpt>
      <trkpt lat="42.698137" lon="-7.020049">
        <ele>1095.058</ele>
        <time>2013-02-09T02:19:40Z</time>
      </trkpt>
      <trkpt lat="42.698492" lon="-7.020060">
        <ele>1104.074</ele>
        <time>2013-02-09T02:20:00Z</time>
      </trkpt>
      <trkpt lat="42.698768" lon="-7.019953">
        <ele>1109.027</ele>
        <time>2013-02-09T02:20:20Z</time>
      </trkpt>
      <trkpt lat="42.699059" lon="-7.019781">
        <ele>1115.019</ele>
        <time>2013-02-09T02:20:40Z</time>
      </trkpt>
      <trkpt lat="42.699359" lon="-7.019835">
        <ele>1123.081</ele>
        <time>2013-02-09T02:21:00Z</time>
      </trkpt>
      <trkpt lat="42.699517" lon="-7.019995">
        <ele>1122.032</ele>
        <time>2013-02-09T02:21:20Z</time>
      </trkpt>
      <trkpt lat="42.699730" lon="-7.020189">
        <ele>1129.032</ele>
        <time>2013-02-09T02:21:40Z</time>
      </trkpt>
      <trkpt lat="42.700077" lon="-7.020414">
        <ele>1136.092</ele>
        <time>2013-02-09T02:22:00Z</time>
      </trkpt>
      <trkpt lat="42.700321" lon="-7.020521">
        <ele>1140.011</ele>
        <time>2013-02-09T02:22:20Z</time>
      </trkpt>
      <trkpt lat="42.700794" lon="-7.020950">
        <ele>1148.007</ele>
        <time>2013-02-09T02:22:40Z</time>
      </trkpt>
      <trkpt lat="42.700912" lon="-7.021058">
        <ele>1147.016</ele>
        <time>2013-02-09T02:23:00Z</time>
      </trkpt>
      <trkpt lat="42.701109" lon="-7.021186">
        <ele>1152.022</ele>
        <time>2013-02-09T02:23:20Z</time>
      </trkpt>
      <trkpt lat="42.701149" lon="-7.021219">
        <ele>1152.088</ele>
        <time>2013-02-09T02:23:40Z</time>
      </trkpt>
      <trkpt lat="42.701188" lon="-7.021562">
        <ele>1152.071</ele>
        <time>2013-02-09T02:24:00Z</time>
      </trkpt>
      <trkpt lat="42.701243" lon="-7.021830">
        <ele>1149.023</ele>
        <time>2013-02-09T02:24:20Z</time>
      </trkpt>
      <trkpt lat="42.701370" lon="-7.022130">
        <ele>1154.045</ele>
        <time>2013-02-09T02:24:40Z</time>
      </trkpt>
      <trkpt lat="42.701582" lon="-7.022345">
        <ele>1160.076</ele>
        <time>2013-02-09T02:25:00Z</time>
      </trkpt>
      <trkpt lat="42.701780" lon="-7.022463">
        <ele>1156.025</ele>
        <time>2013-02-09T02:25:20Z</time>
      </trkpt>
      <trkpt lat="42.702048" lon="-7.022613">
        <ele>1159.026</ele>
        <time>2013-02-09T02:25:40Z</time>
      </trkpt>
      <trkpt lat="42.702387" lon="-7.022967">
        <ele>1156.008</ele>
        <time>2013-02-09T02:26:00Z</time>
      </trkpt>
      <trkpt lat="42.702584" lon="-7.023257">
        <ele>1152.007</ele>
        <time>2013-02-09T02:26:20Z</time>
      </trkpt>
      <trkpt lat="42.702710" lon="-7.023364">
        <ele>1157.035</ele>
        <time>2013-02-09T02:26:40Z</time>
      </trkpt>
      <trkpt lat="42.702907" lon="-7.023515">
        <ele>1152.061</ele>
        <time>2013-02-09T02:27:00Z</time>
      </trkpt>
      <trkpt lat="42.703073" lon="-7.023697">
        <ele>1157.077</ele>
        <time>2013-02-09T02:27:20Z</time>
      </trkpt>
      <trkpt lat="42.703230" lon="-7.023836">
        <ele>1156.040</ele>
        <time>2013-02-09T02:27:40Z</time>
      </trkpt>
      <trkpt lat="42.703459" lon="-7.023976">
        <ele>1156.072</ele>
        <time>2013-02-09T02:28:00Z</time>
      </trkpt>
      <trkpt lat="42.703727" lon="-7.024158">
        <ele>1157.044</ele>
        <time>2013-02-09T02:28:20Z</time>
      </trkpt>
      <trkpt lat="42.703956" lon="-7.024255">
        <ele>1165.095</ele>
        <time>2013-02-09T02:28:40Z</time>
      </trkpt>
      <trkpt lat="42.704106" lon="-7.024555">
        <ele>1168.055</ele>
        <time>2013-02-09T02:29:00Z</time>
      </trkpt>
      <trkpt lat="42.704295" lon="-7.024748">
        <ele>1163.007</ele>
        <time>2013-02-09T02:29:20Z</time>
      </trkpt>
      <trkpt lat="42.704429" lon="-7.024931">
        <ele>1169.017</ele>
        <time>2013-02-09T02:29:40Z</time>
      </trkpt>
      <trkpt lat="42.704665" lon="-7.025188">
        <ele>1175.007</ele>
        <time>2013-02-09T02:30:00Z</time>
      </trkpt>
      <trkpt lat="42.704933" lon="-7.025478">
        <ele>1183.088</ele>
        <time>2013-02-09T02:30:20Z</time>
      </trkpt>
      <trkpt lat="42.705099" lon="-7.025650">
        <ele>1183.044</ele>
        <time>2013-02-09T02:30:40Z</time>
      </trkpt>
      <trkpt lat="42.705249" lon="-7.025832">
        <ele>1192.010</ele>
        <time>2013-02-09T02:31:00Z</time>
      </trkpt>
      <trkpt lat="42.705493" lon="-7.026047">
        <ele>1201.073</ele>
        <time>2013-02-09T02:31:20Z</time>
      </trkpt>
      <trkpt lat="42.705619" lon="-7.026186">
        <ele>1201.025</ele>
        <time>2013-02-09T02:31:40Z</time>
      </trkpt>
      <trkpt lat="42.705864" lon="-7.026561">
        <ele>1207.087</ele>
        <time>2013-02-09T02:32:00Z</time>
      </trkpt>
      <trkpt lat="42.705879" lon="-7.026830">
        <ele>1205.048</ele>
        <time>2013-02-09T02:32:20Z</time>
      </trkpt>
      <trkpt lat="42.705840" lon="-7.027259">
        <ele>1203.013</ele>
        <time>2013-02-09T02:32:40Z</time>
      </trkpt>
      <trkpt lat="42.705864" lon="-7.027495">
        <ele>1201.043</ele>
        <time>2013-02-09T02:33:00Z</time>
      </trkpt>
      <trkpt lat="42.705879" lon="-7.027667">
        <ele>1198.007</ele>
        <time>2013-02-09T02:33:20Z</time>
      </trkpt>
      <trkpt lat="42.705911" lon="-7.027817">
        <ele>1198.007</ele>
        <time>2013-02-09T02:33:40Z</time>
      </trkpt>
      <trkpt lat="42.706013" lon="-7.028042">
        <ele>1206.024</ele>
        <time>2013-02-09T02:34:00Z</time>
      </trkpt>
      <trkpt lat="42.706084" lon="-7.028278">
        <ele>1203.040</ele>
        <time>2013-02-09T02:34:20Z</time>
      </trkpt>
      <trkpt lat="42.706140" lon="-7.028450">
        <ele>1203.046</ele>
        <time>2013-02-09T02:34:40Z</time>
      </trkpt>
      <trkpt lat="42.706187" lon="-7.028600">
        <ele>1202.039</ele>
        <time>2013-02-09T02:35:00Z</time>
      </trkpt>
      <trkpt lat="42.706297" lon="-7.028761">
        <ele>1212.051</ele>
        <time>2013-02-09T02:35:20Z</time>
      </trkpt>
      <trkpt lat="42.706360" lon="-7.028954">
        <ele>1212.093</ele>
        <time>2013-02-09T02:35:40Z</time>
      </trkpt>
      <trkpt lat="42.706416" lon="-7.029126">
        <ele>1215.024</ele>
        <time>2013-02-09T02:36:00Z</time>
      </trkpt>
      <trkpt lat="42.706455" lon="-7.029276">
        <ele>1215.096</ele>
        <time>2013-02-09T02:36:20Z</time>
      </trkpt>
      <trkpt lat="42.706494" lon="-7.029426">
        <ele>1220.031</ele>
        <time>2013-02-09T02:36:40Z</time>
      </trkpt>
      <trkpt lat="42.706534" lon="-7.029533">
        <ele>1228.024</ele>
        <time>2013-02-09T02:37:00Z</time>
      </trkpt>
      <trkpt lat="42.706550" lon="-7.029662">
        <ele>1233.007</ele>
        <time>2013-02-09T02:37:20Z</time>
      </trkpt>
      <trkpt lat="42.706573" lon="-7.029834">
        <ele>1233.062</ele>
        <time>2013-02-09T02:37:40Z</time>
      </trkpt>
      <trkpt lat="42.706494" lon="-7.029963">
        <ele>1229.098</ele>
        <time>2013-02-09T02:38:00Z</time>
      </trkpt>
      <trkpt lat="42.706258" lon="-7.030145">
        <ele>1230.034</ele>
        <time>2013-02-09T02:38:20Z</time>
      </trkpt>
      <trkpt lat="42.706140" lon="-7.030274">
        <ele>1224.017</ele>
        <time>2013-02-09T02:38:40Z</time>
      </trkpt>
      <trkpt lat="42.706084" lon="-7.030381">
        <ele>1224.099</ele>
        <time>2013-02-09T02:39:00Z</time>
      </trkpt>
      <trkpt lat="42.705974" lon="-7.030478">
        <ele>1226.041</ele>
        <time>2013-02-09T02:39:20Z</time>
      </trkpt>
      <trkpt lat="42.705903" lon="-7.030574">
        <ele>1222.052</ele>
        <time>2013-02-09T02:39:40Z</time>
      </trkpt>
      <trkpt lat="42.705816" lon="-7.030767">
        <ele>1225.053</ele>
        <time>2013-02-09T02:40:00Z</time>
      </trkpt>
      <trkpt lat="42.705824" lon="-7.030993">
        <ele>1228.004</ele>
        <time>2013-02-09T02:40:20Z</time>
      </trkpt>
      <trkpt lat="42.705903" lon="-7.031143">
        <ele>1228.014</ele>
        <time>2013-02-09T02:40:40Z</time>
      </trkpt>
      <trkpt lat="42.705982" lon="-7.031411">
        <ele>1234.007</ele>
        <time>2013-02-09T02:41:00Z</time>
      </trkpt>
      <trkpt lat="42.706108" lon="-7.031926">
        <ele>1232.038</ele>
        <time>2013-02-09T02:41:20Z</time>
      </trkpt>
      <trkpt lat="42.706274" lon="-7.032098">
        <ele>1234.084</ele>
        <time>2013-02-09T02:41:40Z</time>
      </trkpt>
      <trkpt lat="42.706439" lon="-7.032280">
        <ele>1234.030</ele>
        <time>2013-02-09T02:42:00Z</time>
      </trkpt>
      <trkpt lat="42.706589" lon="-7.032548">
        <ele>1237.083</ele>
        <time>2013-02-09T02:42:20Z</time>
      </trkpt>
      <trkpt lat="42.706928" lon="-7.032859">
        <ele>1240.055</ele>
        <time>2013-02-09T02:42:40Z</time>
      </trkpt>
      <trkpt lat="42.707133" lon="-7.033052">
        <ele>1243.037</ele>
        <time>2013-02-09T02:43:00Z</time>
      </trkpt>
      <trkpt lat="42.707314" lon="-7.033278">
        <ele>1240.028</ele>
        <time>2013-02-09T02:43:20Z</time>
      </trkpt>
      <trkpt lat="42.707433" lon="-7.033525">
        <ele>1245.044</ele>
        <time>2013-02-09T02:43:40Z</time>
      </trkpt>
      <trkpt lat="42.707511" lon="-7.033761">
        <ele>1243.005</ele>
        <time>2013-02-09T02:44:00Z</time>
      </trkpt>
      <trkpt lat="42.707661" lon="-7.034211">
        <ele>1253.015</ele>
        <time>2013-02-09T02:44:20Z</time>
      </trkpt>
      <trkpt lat="42.707724" lon="-7.034426">
        <ele>1253.007</ele>
        <time>2013-02-09T02:44:40Z</time>
      </trkpt>
      <trkpt lat="42.707882" lon="-7.034758">
        <ele>1253.047</ele>
        <time>2013-02-09T02:45:00Z</time>
      </trkpt>
      <trkpt lat="42.707921" lon="-7.034930">
        <ele>1269.073</ele>
        <time>2013-02-09T02:45:20Z</time>
      </trkpt>
      <trkpt lat="42.707953" lon="-7.035187">
        <ele>1272.049</ele>
        <time>2013-02-09T02:45:40Z</time>
      </trkpt>
      <trkpt lat="42.707984" lon="-7.035295">
        <ele>1272.032</ele>
        <time>2013-02-09T02:46:00Z</time>
      </trkpt>
      <trkpt lat="42.708008" lon="-7.035542">
        <ele>1276.034</ele>
        <time>2013-02-09T02:46:20Z</time>
      </trkpt>
      <trkpt lat="42.707992" lon="-7.035660">
        <ele>1276.026</ele>
        <time>2013-02-09T02:46:40Z</time>
      </trkpt>
      <trkpt lat="42.707953" lon="-7.035820">
        <ele>1280.037</ele>
        <time>2013-02-09T02:47:00Z</time>
      </trkpt>
      <trkpt lat="42.707929" lon="-7.035949">
        <ele>1280.093</ele>
        <time>2013-02-09T02:47:20Z</time>
      </trkpt>
      <trkpt lat="42.707858" lon="-7.036175">
        <ele>1273.065</ele>
        <time>2013-02-09T02:47:40Z</time>
      </trkpt>
      <trkpt lat="42.707819" lon="-7.036335">
        <ele>1278.021</ele>
        <time>2013-02-09T02:48:00Z</time>
      </trkpt>
      <trkpt lat="42.707764" lon="-7.036421">
        <ele>1278.007</ele>
        <time>2013-02-09T02:48:20Z</time>
      </trkpt>
      <trkpt lat="42.707724" lon="-7.036496">
        <ele>1278.022</ele>
        <time>2013-02-09T02:48:40Z</time>
      </trkpt>
      <trkpt lat="42.707685" lon="-7.036550">
        <ele>1282.018</ele>
        <time>2013-02-09T02:49:00Z</time>
      </trkpt>
      <trkpt lat="42.707669" lon="-7.036593">
        <ele>1282.094</ele>
        <time>2013-02-09T02:49:20Z</time>
      </trkpt>
      <trkpt lat="42.707559" lon="-7.036668">
        <ele>1272.087</ele>
        <time>2013-02-09T02:49:40Z</time>
      </trkpt>
      <trkpt lat="42.707314" lon="-7.036754">
        <ele>1262.099</ele>
        <time>2013-02-09T02:50:00Z</time>
      </trkpt>
      <trkpt lat="42.707259" lon="-7.036850">
        <ele>1266.091</ele>
        <time>2013-02-09T02:50:20Z</time>
      </trkpt>
      <trkpt lat="42.707235" lon="-7.037162">
        <ele>1269.012</ele>
        <time>2013-02-09T02:50:40Z</time>
      </trkpt>
      <trkpt lat="42.707235" lon="-7.037483">
        <ele>1272.021</ele>
        <time>2013-02-09T02:51:00Z</time>
      </trkpt>
      <trkpt lat="42.707243" lon="-7.037666">
        <ele>1274.041</ele>
        <time>2013-02-09T02:51:20Z</time>
      </trkpt>
      <trkpt lat="42.707243" lon="-7.037891">
        <ele>1274.005</ele>
        <time>2013-02-09T02:51:40Z</time>
      </trkpt>
      <trkpt lat="42.707212" lon="-7.038310">
        <ele>1277.007</ele>
        <time>2013-02-09T02:52:00Z</time>
      </trkpt>
      <trkpt lat="42.707212" lon="-7.038578">
        <ele>1274.035</ele>
        <time>2013-02-09T02:52:20Z</time>
      </trkpt>
      <trkpt lat="42.707228" lon="-7.038803">
        <ele>1272.031</ele>
        <time>2013-02-09T02:52:40Z</time>
      </trkpt>
      <trkpt lat="42.707235" lon="-7.038975">
        <ele>1272.037</ele>
        <time>2013-02-09T02:53:00Z</time>
      </trkpt>
      <trkpt lat="42.707283" lon="-7.039232">
        <ele>1272.020</ele>
        <time>2013-02-09T02:53:20Z</time>
      </trkpt>
      <trkpt lat="42.707306" lon="-7.039350">
        <ele>1272.062</ele>
        <time>2013-02-09T02:53:40Z</time>
      </trkpt>
      <trkpt lat="42.707393" lon="-7.039661">
        <ele>1284.044</ele>
        <time>2013-02-09T02:54:00Z</time>
      </trkpt>
      <trkpt lat="42.707496" lon="-7.039983">
        <ele>1285.045</ele>
        <time>2013-02-09T02:54:20Z</time>
      </trkpt>
      <trkpt lat="42.707511" lon="-7.040069">
        <ele>1285.071</ele>
        <time>2013-02-09T02:54:40Z</time>
      </trkpt>
      <trkpt lat="42.707543" lon="-7.040391">
        <ele>1286.041</ele>
        <time>2013-02-09T02:55:00Z</time>
      </trkpt>
      <trkpt lat="42.707559" lon="-7.040509">
        <ele>1286.015</ele>
        <time>2013-02-09T02:55:20Z</time>
      </trkpt>
      <trkpt lat="42.707590" lon="-7.040691">
        <ele>1286.007</ele>
        <time>2013-02-09T02:55:40Z</time>
      </trkpt>
      <trkpt lat="42.707630" lon="-7.040906">
        <ele>1286.090</ele>
        <time>2013-02-09T02:56:00Z</time>
      </trkpt>
      <trkpt lat="42.707661" lon="-7.041110">
        <ele>1297.066</ele>
        <time>2013-02-09T02:56:20Z</time>
      </trkpt>
      <trkpt lat="42.707685" lon="-7.041357">
        <ele>1295.082</ele>
        <time>2013-02-09T02:56:40Z</time>
      </trkpt>
      <trkpt lat="42.707709" lon="-7.041582">
        <ele>1294.055</ele>
        <time>2013-02-09T02:57:00Z</time>
      </trkpt>
      <trkpt lat="42.707732" lon="-7.041754">
        <ele>1294.037</ele>
        <time>2013-02-09T02:57:20Z</time>
      </trkpt>
      <trkpt lat="42.707764" lon="-7.041947">
        <ele>1294.039</ele>
        <time>2013-02-09T02:57:40Z</time>
      </trkpt>
      <trkpt lat="42.707795" lon="-7.042118">
        <ele>1296.060</ele>
        <time>2013-02-09T02:58:00Z</time>
      </trkpt>
      <trkpt lat="42.707811" lon="-7.042376">
        <ele>1296.045</ele>
        <time>2013-02-09T02:58:20Z</time>
      </trkpt>
      <trkpt lat="42.707779" lon="-7.042408">
        <ele>1296.047</ele>
        <time>2013-02-09T02:58:40Z</time>
      </trkpt>
      <trkpt lat="42.707669" lon="-7.042655">
        <ele>1294.011</ele>
        <time>2013-02-09T02:59:00Z</time>
      </trkpt>
      <trkpt lat="42.707606" lon="-7.042719">
        <ele>1290.007</ele>
        <time>2013-02-09T02:59:20Z</time>
      </trkpt>
      <trkpt lat="42.707551" lon="-7.042891">
        <ele>1290.067</ele>
        <time>2013-02-09T02:59:40Z</time>
      </trkpt>
      <trkpt lat="42.707504" lon="-7.043020">
        <ele>1287.043</ele>
        <time>2013-02-09T03:00:00Z</time>
      </trkpt>
      <trkpt lat="42.707488" lon="-7.043266">
        <ele>1284.019</ele>
        <time>2013-02-09T03:00:20Z</time>
      </trkpt>
      <trkpt lat="42.707448" lon="-7.043395">
        <ele>1284.032</ele>
        <time>2013-02-09T03:00:40Z</time>
      </trkpt>
      <trkpt lat="42.707582" lon="-7.043535">
        <ele>1282.054</ele>
        <time>2013-02-09T03:01:00Z</time>
      </trkpt>
      <trkpt lat="42.707701" lon="-7.043738">
        <ele>1284.066</ele>
        <time>2013-02-09T03:01:20Z</time>
      </trkpt>
      <trkpt lat="42.707732" lon="-7.043781">
        <ele>1282.047</ele>
        <time>2013-02-09T03:01:40Z</time>
      </trkpt>
      <trkpt lat="42.707811" lon="-7.043878">
        <ele>1282.029</ele>
        <time>2013-02-09T03:02:00Z</time>
      </trkpt>
      <trkpt lat="42.707874" lon="-7.043974">
        <ele>1282.000</ele>
        <time>2013-02-09T03:02:20Z</time>
      </trkpt>
      <trkpt lat="42.707937" lon="-7.044114">
        <ele>1281.020</ele>
        <time>2013-02-09T03:02:40Z</time>
      </trkpt>
      <trkpt lat="42.708016" lon="-7.044189">
        <ele>1281.007</ele>
        <time>2013-02-09T03:03:00Z</time>
      </trkpt>
      <trkpt lat="42.708252" lon="-7.044361">
        <ele>1280.015</ele>
        <time>2013-02-09T03:03:20Z</time>
      </trkpt>
      <trkpt lat="42.708205" lon="-7.044586">
        <ele>1277.051</ele>
        <time>2013-02-09T03:03:40Z</time>
      </trkpt>
      <trkpt lat="42.708150" lon="-7.044758">
        <ele>1280.077</ele>
        <time>2013-02-09T03:04:00Z</time>
      </trkpt>
      <trkpt lat="42.708087" lon="-7.045004">
        <ele>1280.090</ele>
        <time>2013-02-09T03:04:20Z</time>
      </trkpt>
      <trkpt lat="42.708063" lon="-7.045176">
        <ele>1280.082</ele>
        <time>2013-02-09T03:04:40Z</time>
      </trkpt>
      <trkpt lat="42.708055" lon="-7.045294">
        <ele>1280.024</ele>
        <time>2013-02-09T03:05:00Z</time>
      </trkpt>
      <trkpt lat="42.708055" lon="-7.045476">
        <ele>1281.065</ele>
        <time>2013-02-09T03:05:20Z</time>
      </trkpt>
      <trkpt lat="42.708063" lon="-7.045627">
        <ele>1281.068</ele>
        <time>2013-02-09T03:05:40Z</time>
      </trkpt>
      <trkpt lat="42.708063" lon="-7.045702">
        <ele>1281.042</ele>
        <time>2013-02-09T03:06:00Z</time>
      </trkpt>
      <trkpt lat="42.707850" lon="-7.045820">
        <ele>1288.026</ele>
        <time>2013-02-09T03:06:20Z</time>
      </trkpt>
      <trkpt lat="42.707269" lon="-7.042451">
        <ele>1277.782</ele>
        <time>2022-07-06T12:45:12Z</time>
      </trkpt>
      <trkpt lat="42.708535" lon="-7.042515">
        <ele>1319.143</ele>
        <time>2022-07-06T12:45:52Z</time>
      </trkpt>
      <trkpt lat="42.708492" lon="-7.042258">
        <ele>1320.017</ele>
        <time>2022-07-06T12:46:32Z</time>
      </trkpt>
      <trkpt lat="42.708836" lon="-7.042580">
        <ele>1319.106</ele>
        <time>2022-07-06T12:47:12Z</time>
      </trkpt>
      <trkpt lat="42.708149" lon="-7.042429">
        <ele>1307.525</ele>
        <time>2022-07-06T12:47:52Z</time>
      </trkpt>
      <trkpt lat="42.709308" lon="-7.041378">
        <ele>1306.686</ele>
        <time>2022-07-06T12:48:32Z</time>
      </trkpt>
      <trkpt lat="42.708578" lon="-7.042880">
        <ele>1302.712</ele>
        <time>2022-07-06T12:49:12Z</time>
      </trkpt>
      <trkpt lat="42.708085" lon="-7.044597">
        <ele>1297.058</ele>
        <time>2022-07-06T12:49:52Z</time>
      </trkpt>
      <trkpt lat="42.707934" lon="-7.047236">
        <ele>1291.777</ele>
        <time>2022-07-06T12:50:32Z</time>
      </trkpt>
      <trkpt lat="42.707098" lon="-7.049382">
        <ele>1288.361</ele>
        <time>2022-07-06T12:51:12Z</time>
      </trkpt>
      <trkpt lat="42.706926" lon="-7.050605">
        <ele>1287.322</ele>
        <time>2022-07-06T12:51:52Z</time>
      </trkpt>
      <trkpt lat="42.706604" lon="-7.051356">
        <ele>1287.362</ele>
        <time>2022-07-06T12:52:32Z</time>
      </trkpt>
      <trkpt lat="42.706347" lon="-7.051227">
        <ele>1275.308</ele>
        <time>2022-07-06T12:53:12Z</time>
      </trkpt>
      <trkpt lat="42.705703" lon="-7.051892">
        <ele>1276.306</ele>
        <time>2022-07-06T12:53:52Z</time>
      </trkpt>
      <trkpt lat="42.705359" lon="-7.053609">
        <ele>1273.939</ele>
        <time>2022-07-06T12:54:32Z</time>
      </trkpt>
      <trkpt lat="42.704844" lon="-7.054896">
        <ele>1273.970</ele>
        <time>2022-07-06T12:55:12Z</time>
      </trkpt>
      <trkpt lat="42.704501" lon="-7.054939">
        <ele>1273.996</ele>
        <time>2022-07-06T12:55:52Z</time>
      </trkpt>
      <trkpt lat="42.703621" lon="-7.056227">
        <ele>1254.292</ele>
        <time>2022-07-06T12:56:32Z</time>
      </trkpt>
      <trkpt lat="42.703471" lon="-7.057321">
        <ele>1254.251</ele>
        <time>2022-07-06T12:57:12Z</time>
      </trkpt>
      <trkpt lat="42.704222" lon="-7.060239">
        <ele>1248.425</ele>
        <time>2022-07-06T12:57:52Z</time>
      </trkpt>
      <trkpt lat="42.705038" lon="-7.061677">
        <ele>1247.043</ele>
        <time>2022-07-06T12:58:32Z</time>
      </trkpt>
      <trkpt lat="42.705123" lon="-7.062814">
        <ele>1272.464</ele>
        <time>2022-07-06T12:59:12Z</time>
      </trkpt>
      <trkpt lat="42.704437" lon="-7.064810">
        <ele>1239.310</ele>
        <time>2022-07-06T12:59:52Z</time>
      </trkpt>
      <trkpt lat="42.704673" lon="-7.065368">
        <ele>1278.706</ele>
        <time>2022-07-06T13:00:32Z</time>
      </trkpt>
      <trkpt lat="42.703900" lon="-7.070303">
        <ele>1273.431</ele>
        <time>2022-07-06T13:01:12Z</time>
      </trkpt>
      <trkpt lat="42.703321" lon="-7.070560">
        <ele>1246.562</ele>
        <time>2022-07-06T13:01:52Z</time>
      </trkpt>
      <trkpt lat="42.703106" lon="-7.070260">
        <ele>1246.528</ele>
        <time>2022-07-06T13:02:32Z</time>
      </trkpt>
      <trkpt lat="42.703085" lon="-7.070582">
        <ele>1242.694</ele>
        <time>2022-07-06T13:03:12Z</time>
      </trkpt>
      <trkpt lat="42.701304" lon="-7.072041">
        <ele>1242.663</ele>
        <time>2022-07-06T13:03:52Z</time>
      </trkpt>
      <trkpt lat="42.699866" lon="-7.072856">
        <ele>1234.587</ele>
        <time>2022-07-06T13:04:32Z</time>
      </trkpt>
      <trkpt lat="42.698965" lon="-7.074101">
        <ele>1234.017</ele>
        <time>2022-07-06T13:05:12Z</time>
      </trkpt>
      <trkpt lat="42.698665" lon="-7.074337">
        <ele>1237.487</ele>
        <time>2022-07-06T13:05:52Z</time>
      </trkpt>
      <trkpt lat="42.698557" lon="-7.074788">
        <ele>1237.415</ele>
        <time>2022-07-06T13:06:32Z</time>
      </trkpt>
      <trkpt lat="42.698472" lon="-7.074723">
        <ele>1235.906</ele>
        <time>2022-07-06T13:07:12Z</time>
      </trkpt>
      <trkpt lat="42.697935" lon="-7.075861">
        <ele>1233.528</ele>
        <time>2022-07-06T13:07:52Z</time>
      </trkpt>
      <trkpt lat="42.698278" lon="-7.076654">
        <ele>1233.549</ele>
        <time>2022-07-06T13:08:32Z</time>
      </trkpt>
      <trkpt lat="42.698364" lon="-7.077320">
        <ele>1233.575</ele>
        <time>2022-07-06T13:09:12Z</time>
      </trkpt>
      <trkpt lat="42.698579" lon="-7.077105">
        <ele>1233.531</ele>
        <time>2022-07-06T13:09:52Z</time>
      </trkpt>
      <trkpt lat="42.698751" lon="-7.077663">
        <ele>1233.540</ele>
        <time>2022-07-06T13:10:32Z</time>
      </trkpt>
      <trkpt lat="42.698944" lon="-7.079444">
        <ele>1239.824</ele>
        <time>2022-07-06T13:11:12Z</time>
      </trkpt>
      <trkpt lat="42.698729" lon="-7.079895">
        <ele>1240.284</ele>
        <time>2022-07-06T13:11:52Z</time>
      </trkpt>
      <trkpt lat="42.698665" lon="-7.080882">
        <ele>1245.007</ele>
        <time>2022-07-06T13:12:32Z</time>
      </trkpt>
      <trkpt lat="42.698836" lon="-7.081053">
        <ele>1249.417</ele>
        <time>2022-07-06T13:13:12Z</time>
      </trkpt>
      <trkpt lat="42.698514" lon="-7.081397">
        <ele>1241.706</ele>
        <time>2022-07-06T13:13:52Z</time>
      </trkpt>
      <trkpt lat="42.698879" lon="-7.081053">
        <ele>1262.315</ele>
        <time>2022-07-06T13:14:32Z</time>
      </trkpt>
      <trkpt lat="42.698944" lon="-7.081289">
        <ele>1262.376</ele>
        <time>2022-07-06T13:15:12Z</time>
      </trkpt>
      <trkpt lat="42.698751" lon="-7.083457">
        <ele>1271.052</ele>
        <time>2022-07-06T13:15:52Z</time>
      </trkpt>
      <trkpt lat="42.698493" lon="-7.084250">
        <ele>1274.478</ele>
        <time>2022-07-06T13:16:32Z</time>
      </trkpt>
      <trkpt lat="42.698708" lon="-7.084358">
        <ele>1275.897</ele>
        <time>2022-07-06T13:17:12Z</time>
      </trkpt>
      <trkpt lat="42.698793" lon="-7.084723">
        <ele>1276.361</ele>
        <time>2022-07-06T13:17:52Z</time>
      </trkpt>
      <trkpt lat="42.699351" lon="-7.088499">
        <ele>1271.581</ele>
        <time>2022-07-06T13:18:32Z</time>
      </trkpt>
      <trkpt lat="42.699652" lon="-7.089508">
        <ele>1267.661</ele>
        <time>2022-07-06T13:19:12Z</time>
      </trkpt>
      <trkpt lat="42.699673" lon="-7.090516">
        <ele>1259.017</ele>
        <time>2022-07-06T13:19:52Z</time>
      </trkpt>
      <trkpt lat="42.700167" lon="-7.091739">
        <ele>1239.806</ele>
        <time>2022-07-06T13:20:32Z</time>
      </trkpt>
      <trkpt lat="42.701004" lon="-7.092941">
        <ele>1230.655</ele>
        <time>2022-07-06T13:21:12Z</time>
      </trkpt>
      <trkpt lat="42.701283" lon="-7.093949">
        <ele>1218.156</ele>
        <time>2022-07-06T13:21:52Z</time>
      </trkpt>
      <trkpt lat="42.702978" lon="-7.096374">
        <ele>1225.372</ele>
        <time>2022-07-06T13:22:32Z</time>
      </trkpt>
      <trkpt lat="42.704029" lon="-7.097597">
        <ele>1227.398</ele>
        <time>2022-07-06T13:23:12Z</time>
      </trkpt>
      <trkpt lat="42.704415" lon="-7.099056">
        <ele>1231.667</ele>
        <time>2022-07-06T13:23:52Z</time>
      </trkpt>
      <trkpt lat="42.704844" lon="-7.099657">
        <ele>1233.581</ele>
        <time>2022-07-06T13:24:32Z</time>
      </trkpt>
      <trkpt lat="42.704887" lon="-7.100623">
        <ele>1232.137</ele>
        <time>2022-07-06T13:25:12Z</time>
      </trkpt>
      <trkpt lat="42.704737" lon="-7.100730">
        <ele>1259.549</ele>
        <time>2022-07-06T13:25:52Z</time>
      </trkpt>
      <trkpt lat="42.704930" lon="-7.100837">
        <ele>1255.113</ele>
        <time>2022-07-06T13:26:32Z</time>
      </trkpt>
      <trkpt lat="42.704930" lon="-7.101223">
        <ele>1255.106</ele>
        <time>2022-07-06T13:27:12Z</time>
      </trkpt>
      <trkpt lat="42.704802" lon="-7.100730">
        <ele>1255.130</ele>
        <time>2022-07-06T13:27:52Z</time>
      </trkpt>
      <trkpt lat="42.705166" lon="-7.102060">
        <ele>1252.711</ele>
        <time>2022-07-06T13:28:32Z</time>
      </trkpt>
      <trkpt lat="42.705059" lon="-7.102640">
        <ele>1251.857</ele>
        <time>2022-07-06T13:29:12Z</time>
      </trkpt>
      <trkpt lat="42.705467" lon="-7.104056">
        <ele>1251.833</ele>
        <time>2022-07-06T13:29:52Z</time>
      </trkpt>
      <trkpt lat="42.705123" lon="-7.105536">
        <ele>1236.972</ele>
        <time>2022-07-06T13:30:32Z</time>
      </trkpt>
      <trkpt lat="42.705274" lon="-7.106116">
        <ele>1238.396</ele>
        <time>2022-07-06T13:31:12Z</time>
      </trkpt>
      <trkpt lat="42.705574" lon="-7.106545">
        <ele>1240.752</ele>
        <time>2022-07-06T13:31:52Z</time>
      </trkpt>
      <trkpt lat="42.705810" lon="-7.107725">
        <ele>1239.853</ele>
        <time>2022-07-06T13:32:32Z</time>
      </trkpt>
      <trkpt lat="42.706304" lon="-7.108390">
        <ele>1240.708</ele>
        <time>2022-07-06T13:33:12Z</time>
      </trkpt>
      <trkpt lat="42.706990" lon="-7.108197">
        <ele>1240.706</ele>
        <time>2022-07-06T13:33:52Z</time>
      </trkpt>
      <trkpt lat="42.707720" lon="-7.108755">
        <ele>1239.832</ele>
        <time>2022-07-06T13:34:32Z</time>
      </trkpt>
      <trkpt lat="42.707462" lon="-7.110472">
        <ele>1238.393</ele>
        <time>2022-07-06T13:35:12Z</time>
      </trkpt>
      <trkpt lat="42.708063" lon="-7.111416">
        <ele>1235.499</ele>
        <time>2022-07-06T13:35:52Z</time>
      </trkpt>
      <trkpt lat="42.709780" lon="-7.111330">
        <ele>1234.535</ele>
        <time>2022-07-06T13:36:32Z</time>
      </trkpt>
      <trkpt lat="42.710037" lon="-7.111523">
        <ele>1232.124</ele>
        <time>2022-07-06T13:37:12Z</time>
      </trkpt>
      <trkpt lat="42.709887" lon="-7.112274">
        <ele>1235.978</ele>
        <time>2022-07-06T13:37:52Z</time>
      </trkpt>
      <trkpt lat="42.710059" lon="-7.113369">
        <ele>1236.469</ele>
        <time>2022-07-06T13:38:32Z</time>
      </trkpt>
      <trkpt lat="42.710574" lon="-7.113798">
        <ele>1240.704</ele>
        <time>2022-07-06T13:39:12Z</time>
      </trkpt>
      <trkpt lat="42.710724" lon="-7.114077">
        <ele>1240.724</ele>
        <time>2022-07-06T13:39:52Z</time>
      </trkpt>
      <trkpt lat="42.710402" lon="-7.115192">
        <ele>1240.706</ele>
        <time>2022-07-06T13:40:32Z</time>
      </trkpt>
      <trkpt lat="42.709844" lon="-7.116222">
        <ele>1240.273</ele>
        <time>2022-07-06T13:41:12Z</time>
      </trkpt>
      <trkpt lat="42.709587" lon="-7.117231">
        <ele>1240.784</ele>
        <time>2022-07-06T13:41:52Z</time>
      </trkpt>
      <trkpt lat="42.709608" lon="-7.117875">
        <ele>1240.750</ele>
        <time>2022-07-06T13:42:32Z</time>
      </trkpt>
      <trkpt lat="42.710059" lon="-7.117896">
        <ele>1243.156</ele>
        <time>2022-07-06T13:43:12Z</time>
      </trkpt>
      <trkpt lat="42.710466" lon="-7.118196">
        <ele>1260.945</ele>
        <time>2022-07-06T13:43:52Z</time>
      </trkpt>
      <trkpt lat="42.710831" lon="-7.120965">
        <ele>1246.539</ele>
        <time>2022-07-06T13:44:32Z</time>
      </trkpt>
      <trkpt lat="42.711389" lon="-7.122080">
        <ele>1269.133</ele>
        <time>2022-07-06T13:45:12Z</time>
      </trkpt>
      <trkpt lat="42.712376" lon="-7.123497">
        <ele>1278.723</ele>
        <time>2022-07-06T13:45:52Z</time>
      </trkpt>
      <trkpt lat="42.712247" lon="-7.123969">
        <ele>1289.315</ele>
        <time>2022-07-06T13:46:32Z</time>
      </trkpt>
      <trkpt lat="42.712376" lon="-7.124720">
        <ele>1290.206</ele>
        <time>2022-07-06T13:47:12Z</time>
      </trkpt>
      <trkpt lat="42.712076" lon="-7.124999">
        <ele>1291.780</ele>
        <time>2022-07-06T13:47:52Z</time>
      </trkpt>
      <trkpt lat="42.712097" lon="-7.125149">
        <ele>1293.111</ele>
        <time>2022-07-06T13:48:32Z</time>
      </trkpt>
      <trkpt lat="42.712677" lon="-7.125192">
        <ele>1306.187</ele>
        <time>2022-07-06T13:49:12Z</time>
      </trkpt>
      <trkpt lat="42.712612" lon="-7.125556">
        <ele>1338.313</ele>
        <time>2022-07-06T13:49:52Z</time>
      </trkpt>
      <trkpt lat="42.712891" lon="-7.126114">
        <ele>1329.222</ele>
        <time>2022-07-06T13:50:32Z</time>
      </trkpt>
      <trkpt lat="42.712719" lon="-7.125664">
        <ele>1329.266</ele>
        <time>2022-07-06T13:51:12Z</time>
      </trkpt>
      <trkpt lat="42.712505" lon="-7.126114">
        <ele>1357.044</ele>
        <time>2022-07-06T13:51:52Z</time>
      </trkpt>
      <trkpt lat="42.712698" lon="-7.126114">
        <ele>1356.105</ele>
        <time>2022-07-06T13:52:32Z</time>
      </trkpt>
      <trkpt lat="42.712483" lon="-7.126222">
        <ele>1348.415</ele>
        <time>2022-07-06T13:53:12Z</time>
      </trkpt>
      <trkpt lat="42.714028" lon="-7.128625">
        <ele>1338.806</ele>
        <time>2022-07-06T13:53:52Z</time>
      </trkpt>
      <trkpt lat="42.715123" lon="-7.129440">
        <ele>1332.531</ele>
        <time>2022-07-06T13:54:32Z</time>
      </trkpt>
      <trkpt lat="42.716110" lon="-7.131050">
        <ele>1329.282</ele>
        <time>2022-07-06T13:55:12Z</time>
      </trkpt>
      <trkpt lat="42.716732" lon="-7.133625">
        <ele>1321.588</ele>
        <time>2022-07-06T13:55:52Z</time>
      </trkpt>
      <trkpt lat="42.718213" lon="-7.136135">
        <ele>1313.884</ele>
        <time>2022-07-06T13:56:32Z</time>
      </trkpt>
      <trkpt lat="42.719178" lon="-7.139375">
        <ele>1299.833</ele>
        <time>2022-07-06T13:57:12Z</time>
      </trkpt>
      <trkpt lat="42.721109" lon="-7.141199">
        <ele>1299.817</ele>
        <time>2022-07-06T13:57:52Z</time>
      </trkpt>
      <trkpt lat="42.722311" lon="-7.143409">
        <ele>1296.595</ele>
        <time>2022-07-06T13:58:32Z</time>
      </trkpt>
      <trkpt lat="42.723105" lon="-7.145984">
        <ele>1293.649</ele>
        <time>2022-07-06T13:59:12Z</time>
      </trkpt>
      <trkpt lat="42.723684" lon="-7.147186">
        <ele>1294.623</ele>
        <time>2022-07-06T13:59:52Z</time>
      </trkpt>
      <trkpt lat="42.724864" lon="-7.148688">
        <ele>1293.106</ele>
        <time>2022-07-06T14:00:32Z</time>
      </trkpt>
      <trkpt lat="42.726281" lon="-7.150877">
        <ele>1290.236</ele>
        <time>2022-07-06T14:01:12Z</time>
      </trkpt>
      <trkpt lat="42.727375" lon="-7.153215">
        <ele>1289.317</ele>
        <time>2022-07-06T14:01:52Z</time>
      </trkpt>
      <trkpt lat="42.728019" lon="-7.154031">
        <ele>1292.643</ele>
        <time>2022-07-06T14:02:32Z</time>
      </trkpt>
      <trkpt lat="42.729199" lon="-7.155168">
        <ele>1282.179</ele>
        <time>2022-07-06T14:03:12Z</time>
      </trkpt>
      <trkpt lat="42.730229" lon="-7.155962">
        <ele>1280.198</ele>
        <time>2022-07-06T14:03:52Z</time>
      </trkpt>
      <trkpt lat="42.730658" lon="-7.155812">
        <ele>1280.162</ele>
        <time>2022-07-06T14:04:32Z</time>
      </trkpt>
      <trkpt lat="42.730637" lon="-7.156241">
        <ele>1280.154</ele>
        <time>2022-07-06T14:05:12Z</time>
      </trkpt>
      <trkpt lat="42.731109" lon="-7.156734">
        <ele>1285.956</ele>
        <time>2022-07-06T14:05:52Z</time>
      </trkpt>
      <trkpt lat="42.731967" lon="-7.158172">
        <ele>1292.111</ele>
        <time>2022-07-06T14:06:32Z</time>
      </trkpt>
      <trkpt lat="42.732010" lon="-7.158494">
        <ele>1292.106</ele>
        <time>2022-07-06T14:07:12Z</time>
      </trkpt>
      <trkpt lat="42.732160" lon="-7.158515">
        <ele>1299.432</ele>
        <time>2022-07-06T14:07:52Z</time>
      </trkpt>
      <trkpt lat="42.732332" lon="-7.158902">
        <ele>1296.593</ele>
        <time>2022-07-06T14:08:32Z</time>
      </trkpt>
      <trkpt lat="42.733212" lon="-7.159910">
        <ele>1296.519</ele>
        <time>2022-07-06T14:09:12Z</time>
      </trkpt>
      <trkpt lat="42.734349" lon="-7.162635">
        <ele>1292.115</ele>
        <time>2022-07-06T14:09:52Z</time>
      </trkpt>
      <trkpt lat="42.735679" lon="-7.167077">
        <ele>1274.894</ele>
        <time>2022-07-06T14:10:32Z</time>
      </trkpt>
      <trkpt lat="42.737138" lon="-7.170360">
        <ele>1263.888</ele>
        <time>2022-07-06T14:11:12Z</time>
      </trkpt>
      <trkpt lat="42.737224" lon="-7.171154">
        <ele>1258.514</ele>
        <time>2022-07-06T14:11:52Z</time>
      </trkpt>
      <trkpt lat="42.736881" lon="-7.172055">
        <ele>1252.754</ele>
        <time>2022-07-06T14:12:32Z</time>
      </trkpt>
      <trkpt lat="42.737160" lon="-7.173643">
        <ele>1244.609</ele>
        <time>2022-07-06T14:13:12Z</time>
      </trkpt>
      <trkpt lat="42.738125" lon="-7.174287">
        <ele>1238.806</ele>
        <time>2022-07-06T14:13:52Z</time>
      </trkpt>
      <trkpt lat="42.738640" lon="-7.174287">
        <ele>1237.838</ele>
        <time>2022-07-06T14:14:32Z</time>
      </trkpt>
      <trkpt lat="42.739670" lon="-7.175081">
        <ele>1236.499</ele>
        <time>2022-07-06T14:15:12Z</time>
      </trkpt>
      <trkpt lat="42.742052" lon="-7.177956">
        <ele>1225.865</ele>
        <time>2022-07-06T14:15:52Z</time>
      </trkpt>
      <trkpt lat="42.743683" lon="-7.177978">
        <ele>1201.311</ele>
        <time>2022-07-06T14:16:32Z</time>
      </trkpt>
      <trkpt lat="42.744284" lon="-7.178321">
        <ele>1198.480</ele>
        <time>2022-07-06T14:17:12Z</time>
      </trkpt>
      <trkpt lat="42.744005" lon="-7.179608">
        <ele>1196.514</ele>
        <time>2022-07-06T14:17:52Z</time>
      </trkpt>
      <trkpt lat="42.743855" lon="-7.179480">
        <ele>1149.949</ele>
        <time>2022-07-06T14:18:32Z</time>
      </trkpt>
      <trkpt lat="42.744091" lon="-7.179866">
        <ele>1142.202</ele>
        <time>2022-07-06T14:19:12Z</time>
      </trkpt>
      <trkpt lat="42.743812" lon="-7.180638">
        <ele>1143.622</ele>
        <time>2022-07-06T14:19:52Z</time>
      </trkpt>
      <trkpt lat="42.743919" lon="-7.181110">
        <ele>1187.806</ele>
        <time>2022-07-06T14:20:32Z</time>
      </trkpt>
      <trkpt lat="42.743597" lon="-7.182183">
        <ele>1173.481</ele>
        <time>2022-07-06T14:21:12Z</time>
      </trkpt>
      <trkpt lat="42.743919" lon="-7.183642">
        <ele>1167.222</ele>
        <time>2022-07-06T14:21:52Z</time>
      </trkpt>
      <trkpt lat="42.744412" lon="-7.184029">
        <ele>1179.768</ele>
        <time>2022-07-06T14:22:32Z</time>
      </trkpt>
      <trkpt lat="42.743876" lon="-7.185402">
        <ele>1180.284</ele>
        <time>2022-07-06T14:23:12Z</time>
      </trkpt>
      <trkpt lat="42.743683" lon="-7.186496">
        <ele>1192.723</ele>
        <time>2022-07-06T14:23:52Z</time>
      </trkpt>
      <trkpt lat="42.743876" lon="-7.187119">
        <ele>1189.817</ele>
        <time>2022-07-06T14:24:32Z</time>
      </trkpt>
      <trkpt lat="42.744670" lon="-7.187676">
        <ele>1185.498</ele>
        <time>2022-07-06T14:25:12Z</time>
      </trkpt>
      <trkpt lat="42.744713" lon="-7.188621">
        <ele>1167.215</ele>
        <time>2022-07-06T14:25:52Z</time>
      </trkpt>
      <trkpt lat="42.744262" lon="-7.189372">
        <ele>1156.626</ele>
        <time>2022-07-06T14:26:32Z</time>
      </trkpt>
      <trkpt lat="42.740850" lon="-7.191303">
        <ele>1137.906</ele>
        <time>2022-07-06T14:27:12Z</time>
      </trkpt>
      <trkpt lat="42.740314" lon="-7.191775">
        <ele>1141.776</ele>
        <time>2022-07-06T14:27:52Z</time>
      </trkpt>
      <trkpt lat="42.740121" lon="-7.192440">
        <ele>1137.487</ele>
        <time>2022-07-06T14:28:32Z</time>
      </trkpt>
      <trkpt lat="42.740657" lon="-7.193363">
        <ele>1119.183</ele>
        <time>2022-07-06T14:29:12Z</time>
      </trkpt>
      <trkpt lat="42.740614" lon="-7.195187">
        <ele>1098.059</ele>
        <time>2022-07-06T14:29:52Z</time>
      </trkpt>
      <trkpt lat="42.740979" lon="-7.195659">
        <ele>1090.358</ele>
        <time>2022-07-06T14:30:32Z</time>
      </trkpt>
      <trkpt lat="42.743490" lon="-7.201002">
        <ele>1031.662</ele>
        <time>2022-07-06T14:31:12Z</time>
      </trkpt>
      <trkpt lat="42.743554" lon="-7.201796">
        <ele>1029.785</ele>
        <time>2022-07-06T14:31:52Z</time>
      </trkpt>
      <trkpt lat="42.742975" lon="-7.203705">
        <ele>1003.889</ele>
        <time>2022-07-06T14:32:32Z</time>
      </trkpt>
      <trkpt lat="42.742503" lon="-7.204714">
        <ele>986.517</ele>
        <time>2022-07-06T14:33:12Z</time>
      </trkpt>
      <trkpt lat="42.744091" lon="-7.204735">
        <ele>966.706</ele>
        <time>2022-07-06T14:33:52Z</time>
      </trkpt>
      <trkpt lat="42.743232" lon="-7.206216">
        <ele>957.625</ele>
        <time>2022-07-06T14:34:32Z</time>
      </trkpt>
      <trkpt lat="42.743618" lon="-7.206237">
        <ele>948.016</ele>
        <time>2022-07-06T14:35:12Z</time>
      </trkpt>
      <trkpt lat="42.743919" lon="-7.206666">
        <ele>941.332</ele>
        <time>2022-07-06T14:35:52Z</time>
      </trkpt>
      <trkpt lat="42.744305" lon="-7.208190">
        <ele>927.898</ele>
        <time>2022-07-06T14:36:32Z</time>
      </trkpt>
      <trkpt lat="42.744820" lon="-7.209327">
        <ele>907.677</ele>
        <time>2022-07-06T14:37:12Z</time>
      </trkpt>
      <trkpt lat="42.744949" lon="-7.210507">
        <ele>900.951</ele>
        <time>2022-07-06T14:37:52Z</time>
      </trkpt>
      <trkpt lat="42.745378" lon="-7.211924">
        <ele>888.422</ele>
        <time>2022-07-06T14:38:32Z</time>
      </trkpt>
      <trkpt lat="42.746730" lon="-7.213748">
        <ele>856.762</ele>
        <time>2022-07-06T14:39:12Z</time>
      </trkpt>
      <trkpt lat="42.747417" lon="-7.215979">
        <ele>864.408</ele>
        <time>2022-07-06T14:39:52Z</time>
      </trkpt>
      <trkpt lat="42.747309" lon="-7.217631">
        <ele>840.806</ele>
        <time>2022-07-06T14:40:32Z</time>
      </trkpt>
      <trkpt lat="42.748747" lon="-7.218983">
        <ele>829.839</ele>
        <time>2022-07-06T14:41:12Z</time>
      </trkpt>
      <trkpt lat="42.749219" lon="-7.219863">
        <ele>826.440</ele>
        <time>2022-07-06T14:41:52Z</time>
      </trkpt>
      <trkpt lat="42.750163" lon="-7.220142">
        <ele>822.166</ele>
        <time>2022-07-06T14:42:32Z</time>
      </trkpt>
      <trkpt lat="42.750592" lon="-7.220721">
        <ele>812.992</ele>
        <time>2022-07-06T14:43:12Z</time>
      </trkpt>
      <trkpt lat="42.751129" lon="-7.221022">
        <ele>812.951</ele>
        <time>2022-07-06T14:43:52Z</time>
      </trkpt>
      <trkpt lat="42.750571" lon="-7.221150">
        <ele>787.965</ele>
        <time>2022-07-06T14:44:32Z</time>
      </trkpt>
      <trkpt lat="42.750893" lon="-7.221451">
        <ele>788.922</ele>
        <time>2022-07-06T14:45:12Z</time>
      </trkpt>
      <trkpt lat="42.750871" lon="-7.224047">
        <ele>784.662</ele>
        <time>2022-07-06T14:45:52Z</time>
      </trkpt>
      <trkpt lat="42.751558" lon="-7.225292">
        <ele>782.208</ele>
        <time>2022-07-06T14:46:32Z</time>
      </trkpt>
      <trkpt lat="42.753789" lon="-7.226408">
        <ele>770.206</ele>
        <time>2022-07-06T14:47:12Z</time>
      </trkpt>
      <trkpt lat="42.754283" lon="-7.227116">
        <ele>766.889</ele>
        <time>2022-07-06T14:47:52Z</time>
      </trkpt>
      <trkpt lat="42.754283" lon="-7.227523">
        <ele>764.930</ele>
        <time>2022-07-06T14:48:32Z</time>
      </trkpt>
      <trkpt lat="42.755742" lon="-7.228961">
        <ele>764.426</ele>
        <time>2022-07-06T14:49:12Z</time>
      </trkpt>
      <trkpt lat="42.755291" lon="-7.228768">
        <ele>698.162</ele>
        <time>2022-07-06T14:49:52Z</time>
      </trkpt>
      <trkpt lat="42.755806" lon="-7.230506">
        <ele>694.761</ele>
        <time>2022-07-06T14:50:32Z</time>
      </trkpt>
      <trkpt lat="42.755849" lon="-7.230957">
        <ele>694.245</ele>
        <time>2022-07-06T14:51:12Z</time>
      </trkpt>
      <trkpt lat="42.755570" lon="-7.231386">
        <ele>693.746</ele>
        <time>2022-07-06T14:51:52Z</time>
      </trkpt>
      <trkpt lat="42.755635" lon="-7.232072">
        <ele>693.788</ele>
        <time>2022-07-06T14:52:32Z</time>
      </trkpt>
      <trkpt lat="42.756193" lon="-7.233768">
        <ele>696.616</ele>
        <time>2022-07-06T14:53:12Z</time>
      </trkpt>
      <trkpt lat="42.756107" lon="-7.239261">
        <ele>677.906</ele>
        <time>2022-07-06T14:53:52Z</time>
      </trkpt>
      <trkpt lat="42.756064" lon="-7.239625">
        <ele>677.491</ele>
        <time>2022-07-06T14:54:32Z</time>
      </trkpt>
      <trkpt lat="42.755806" lon="-7.239711">
        <ele>673.192</ele>
        <time>2022-07-06T14:55:12Z</time>
      </trkpt>
      <trkpt lat="42.755978" lon="-7.239861">
        <ele>672.618</ele>
        <time>2022-07-06T14:55:52Z</time>
      </trkpt>
      <trkpt lat="42.755914" lon="-7.240634">
        <ele>671.624</ele>
        <time>2022-07-06T14:56:32Z</time>
      </trkpt>
      <trkpt lat="42.756493" lon="-7.240698">
        <ele>671.663</ele>
        <time>2022-07-06T14:57:12Z</time>
      </trkpt>
      <trkpt lat="42.756686" lon="-7.240505">
        <ele>670.727</ele>
        <time>2022-07-06T14:57:52Z</time>
      </trkpt>
      <trkpt lat="42.756429" lon="-7.241149">
        <ele>672.694</ele>
        <time>2022-07-06T14:58:32Z</time>
      </trkpt>
      <trkpt lat="42.756193" lon="-7.241235">
        <ele>675.957</ele>
        <time>2022-07-06T14:59:12Z</time>
      </trkpt>
      <trkpt lat="42.756321" lon="-7.241428">
        <ele>670.222</ele>
        <time>2022-07-06T14:59:52Z</time>
      </trkpt>
      <trkpt lat="42.756236" lon="-7.241342">
        <ele>662.006</ele>
        <time>2022-07-06T15:00:32Z</time>
      </trkpt>
      <trkpt lat="42.756128" lon="-7.241600">
        <ele>664.926</ele>
        <time>2022-07-06T15:01:12Z</time>
      </trkpt>
      <trkpt lat="42.755849" lon="-7.241750">
        <ele>666.357</ele>
        <time>2022-07-06T15:01:52Z</time>
      </trkpt>
      <trkpt lat="42.755399" lon="-7.243123">
        <ele>666.883</ele>
        <time>2022-07-06T15:02:32Z</time>
      </trkpt>
      <trkpt lat="42.755227" lon="-7.242973">
        <ele>666.829</ele>
        <time>2022-07-06T15:03:12Z</time>
      </trkpt>
      <trkpt lat="42.755377" lon="-7.242973">
        <ele>666.898</ele>
        <time>2022-07-06T15:03:52Z</time>
      </trkpt>
      <trkpt lat="42.756568" lon="-7.238019">
        <ele>475.099</ele>
        <time>2013-07-09T11:03:09Z</time>
      </trkpt>
      <trkpt lat="42.756544" lon="-7.238094">
        <ele>475.007</ele>
        <time>2013-07-09T11:03:21Z</time>
      </trkpt>
      <trkpt lat="42.756446" lon="-7.237915">
        <ele>479.027</ele>
        <time>2013-07-09T11:03:28Z</time>
      </trkpt>
      <trkpt lat="42.756384" lon="-7.237819">
        <ele>482.007</ele>
        <time>2013-07-09T11:03:36Z</time>
      </trkpt>
      <trkpt lat="42.756428" lon="-7.237846">
        <ele>484.023</ele>
        <time>2013-07-09T11:03:49Z</time>
      </trkpt>
      <trkpt lat="42.756515" lon="-7.237896">
        <ele>487.087</ele>
        <time>2013-07-09T11:03:59Z</time>
      </trkpt>
      <trkpt lat="42.756542" lon="-7.237945">
        <ele>489.010</ele>
        <time>2013-07-09T11:04:09Z</time>
      </trkpt>
      <trkpt lat="42.756507" lon="-7.237900">
        <ele>490.034</ele>
        <time>2013-07-09T11:04:25Z</time>
      </trkpt>
      <trkpt lat="42.756397" lon="-7.237851">
        <ele>491.092</ele>
        <time>2013-07-09T11:04:30Z</time>
      </trkpt>
      <trkpt lat="42.756305" lon="-7.237802">
        <ele>491.062</ele>
        <time>2013-07-09T11:04:37Z</time>
      </trkpt>
      <trkpt lat="42.756377" lon="-7.237838">
        <ele>493.072</ele>
        <time>2013-07-09T11:05:00Z</time>
      </trkpt>
      <trkpt lat="42.756417" lon="-7.237948">
        <ele>498.047</ele>
        <time>2013-07-09T11:05:10Z</time>
      </trkpt>
      <trkpt lat="42.756509" lon="-7.237942">
        <ele>500.029</ele>
        <time>2013-07-09T11:05:20Z</time>
      </trkpt>
      <trkpt lat="42.756591" lon="-7.237995">
        <ele>501.021</ele>
        <time>2013-07-09T11:05:29Z</time>
      </trkpt>
      <trkpt lat="42.756606" lon="-7.238130">
        <ele>503.007</ele>
        <time>2013-07-09T11:05:39Z</time>
      </trkpt>
      <trkpt lat="42.756604" lon="-7.238281">
        <ele>504.028</ele>
        <time>2013-07-09T11:05:47Z</time>
      </trkpt>
      <trkpt lat="42.756616" lon="-7.238453">
        <ele>504.012</ele>
        <time>2013-07-09T11:05:55Z</time>
      </trkpt>
      <trkpt lat="42.756649" lon="-7.238583">
        <ele>505.095</ele>
        <time>2013-07-09T11:06:02Z</time>
      </trkpt>
      <trkpt lat="42.756674" lon="-7.238711">
        <ele>505.019</ele>
        <time>2013-07-09T11:06:09Z</time>
      </trkpt>
      <trkpt lat="42.756717" lon="-7.238750">
        <ele>506.047</ele>
        <time>2013-07-09T11:06:19Z</time>
      </trkpt>
      <trkpt lat="42.756726" lon="-7.238821">
        <ele>508.017</ele>
        <time>2013-07-09T11:06:30Z</time>
      </trkpt>
      <trkpt lat="42.756712" lon="-7.238941">
        <ele>508.037</ele>
        <time>2013-07-09T11:06:38Z</time>
      </trkpt>
      <trkpt lat="42.756652" lon="-7.239052">
        <ele>510.096</ele>
        <time>2013-07-09T11:06:43Z</time>
      </trkpt>
      <trkpt lat="42.756643" lon="-7.239190">
        <ele>510.031</ele>
        <time>2013-07-09T11:06:53Z</time>
      </trkpt>
      <trkpt lat="42.756591" lon="-7.239323">
        <ele>511.024</ele>
        <time>2013-07-09T11:06:58Z</time>
      </trkpt>
      <trkpt lat="42.756592" lon="-7.239461">
        <ele>512.007</ele>
        <time>2013-07-09T11:07:05Z</time>
      </trkpt>
      <trkpt lat="42.756563" lon="-7.239591">
        <ele>513.053</ele>
        <time>2013-07-09T11:07:10Z</time>
      </trkpt>
      <trkpt lat="42.756537" lon="-7.239726">
        <ele>515.077</ele>
        <time>2013-07-09T11:07:16Z</time>
      </trkpt>
      <trkpt lat="42.756514" lon="-7.239862">
        <ele>516.030</ele>
        <time>2013-07-09T11:07:22Z</time>
      </trkpt>
      <trkpt lat="42.756495" lon="-7.239994">
        <ele>518.024</ele>
        <time>2013-07-09T11:07:28Z</time>
      </trkpt>
      <trkpt lat="42.756451" lon="-7.240122">
        <ele>521.062</ele>
        <time>2013-07-09T11:07:34Z</time>
      </trkpt>
      <trkpt lat="42.756419" lon="-7.240245">
        <ele>522.042</ele>
        <time>2013-07-09T11:07:39Z</time>
      </trkpt>
      <trkpt lat="42.756327" lon="-7.240328">
        <ele>522.082</ele>
        <time>2013-07-09T11:07:47Z</time>
      </trkpt>
      <trkpt lat="42.756276" lon="-7.240451">
        <ele>523.074</ele>
        <time>2013-07-09T11:07:50Z</time>
      </trkpt>
      <trkpt lat="42.756274" lon="-7.240593">
        <ele>524.056</ele>
        <time>2013-07-09T11:07:58Z</time>
      </trkpt>
      <trkpt lat="42.756234" lon="-7.240704">
        <ele>525.021</ele>
        <time>2013-07-09T11:08:02Z</time>
      </trkpt>
      <trkpt lat="42.756162" lon="-7.240814">
        <ele>526.007</ele>
        <time>2013-07-09T11:08:06Z</time>
      </trkpt>
      <trkpt lat="42.756121" lon="-7.240930">
        <ele>530.061</ele>
        <time>2013-07-09T11:08:10Z</time>
      </trkpt>
      <trkpt lat="42.756107" lon="-7.241076">
        <ele>534.075</ele>
        <time>2013-07-09T11:08:19Z</time>
      </trkpt>
      <trkpt lat="42.755137" lon="-7.242474">
        <ele>539.068</ele>
        <time>2013-07-09T11:10:14Z</time>
      </trkpt>
      <trkpt lat="42.754629" lon="-7.243732">
        <ele>673.092</ele>
        <time>2013-07-09T11:16:13Z</time>
      </trkpt>
      <trkpt lat="42.754674" lon="-7.243741">
        <ele>679.020</ele>
        <time>2013-07-09T11:16:34Z</time>
      </trkpt>
      <trkpt lat="42.754634" lon="-7.243785">
        <ele>681.050</ele>
        <time>2013-07-09T11:17:04Z</time>
      </trkpt>
      <trkpt lat="42.754632" lon="-7.243723">
        <ele>682.010</ele>
        <time>2013-07-09T11:17:25Z</time>
      </trkpt>
      <trkpt lat="42.754611" lon="-7.243788">
        <ele>683.032</ele>
        <time>2013-07-09T11:17:44Z</time>
      </trkpt>
      <trkpt lat="42.754657" lon="-7.243773">
        <ele>685.092</ele>
        <time>2013-07-09T11:18:11Z</time>
      </trkpt>
      <trkpt lat="42.754702" lon="-7.243748">
        <ele>687.011</ele>
        <time>2013-07-09T11:18:28Z</time>
      </trkpt>
      <trkpt lat="42.754745" lon="-7.243697">
        <ele>689.007</ele>
        <time>2013-07-09T11:18:38Z</time>
      </trkpt>
      <trkpt lat="42.754701" lon="-7.243713">
        <ele>691.087</ele>
        <time>2013-07-09T11:18:54Z</time>
      </trkpt>
      <trkpt lat="42.754741" lon="-7.243645">
        <ele>692.061</ele>
        <time>2013-07-09T11:19:14Z</time>
      </trkpt>
      <trkpt lat="42.754813" lon="-7.243619">
        <ele>693.054</ele>
        <time>2013-07-09T11:19:24Z</time>
      </trkpt>
      <trkpt lat="42.754877" lon="-7.243554">
        <ele>694.028</ele>
        <time>2013-07-09T11:19:34Z</time>
      </trkpt>
      <trkpt lat="42.754937" lon="-7.243523">
        <ele>695.076</ele>
        <time>2013-07-09T11:19:44Z</time>
      </trkpt>
      <trkpt lat="42.755026" lon="-7.243575">
        <ele>695.086</ele>
        <time>2013-07-09T11:19:52Z</time>
      </trkpt>
      <trkpt lat="42.755105" lon="-7.243634">
        <ele>696.056</ele>
        <time>2013-07-09T11:20:00Z</time>
      </trkpt>
      <trkpt lat="42.755174" lon="-7.243645">
        <ele>697.069</ele>
        <time>2013-07-09T11:20:10Z</time>
      </trkpt>
      <trkpt lat="42.755267" lon="-7.243664">
        <ele>699.004</ele>
        <time>2013-07-09T11:20:20Z</time>
      </trkpt>
      <trkpt lat="42.755275" lon="-7.243732">
        <ele>700.024</ele>
        <time>2013-07-09T11:20:36Z</time>
      </trkpt>
      <trkpt lat="42.755346" lon="-7.243789">
        <ele>701.007</ele>
        <time>2013-07-09T11:20:46Z</time>
      </trkpt>
      <trkpt lat="42.755444" lon="-7.243797">
        <ele>702.060</ele>
        <time>2013-07-09T11:20:52Z</time>
      </trkpt>
      <trkpt lat="42.755541" lon="-7.243819">
        <ele>702.074</ele>
        <time>2013-07-09T11:20:58Z</time>
      </trkpt>
      <trkpt lat="42.755650" lon="-7.243815">
        <ele>702.027</ele>
        <time>2013-07-09T11:21:03Z</time>
      </trkpt>
      <trkpt lat="42.755751" lon="-7.243778">
        <ele>702.041</ele>
        <time>2013-07-09T11:21:10Z</time>
      </trkpt>
      <trkpt lat="42.755840" lon="-7.243732">
        <ele>702.079</ele>
        <time>2013-07-09T11:21:18Z</time>
      </trkpt>
      <trkpt lat="42.755958" lon="-7.243721">
        <ele>703.049</ele>
        <time>2013-07-09T11:21:26Z</time>
      </trkpt>
      <trkpt lat="42.756052" lon="-7.243745">
        <ele>703.089</ele>
        <time>2013-07-09T11:21:30Z</time>
      </trkpt>
      <trkpt lat="42.756153" lon="-7.243787">
        <ele>702.078</ele>
        <time>2013-07-09T11:21:38Z</time>
      </trkpt>
      <trkpt lat="42.756177" lon="-7.243849">
        <ele>700.033</ele>
        <time>2013-07-09T11:21:55Z</time>
      </trkpt>
      <trkpt lat="42.756225" lon="-7.243854">
        <ele>700.026</ele>
        <time>2013-07-09T11:22:07Z</time>
      </trkpt>
      <trkpt lat="42.756288" lon="-7.243865">
        <ele>700.007</ele>
        <time>2013-07-09T11:22:17Z</time>
      </trkpt>
      <trkpt lat="42.756377" lon="-7.243895">
        <ele>700.041</ele>
        <time>2013-07-09T11:22:26Z</time>
      </trkpt>
      <trkpt lat="42.756449" lon="-7.243929">
        <ele>700.055</ele>
        <time>2013-07-09T11:22:36Z</time>
      </trkpt>
      <trkpt lat="42.756536" lon="-7.243973">
        <ele>700.058</ele>
        <time>2013-07-09T11:22:45Z</time>
      </trkpt>
      <trkpt lat="42.756616" lon="-7.244005">
        <ele>701.052</ele>
        <time>2013-07-09T11:22:55Z</time>
      </trkpt>
      <trkpt lat="42.756701" lon="-7.243989">
        <ele>701.090</ele>
        <time>2013-07-09T11:23:05Z</time>
      </trkpt>
      <trkpt lat="42.756792" lon="-7.243941">
        <ele>701.020</ele>
        <time>2013-07-09T11:23:10Z</time>
      </trkpt>
      <trkpt lat="42.756903" lon="-7.243956">
        <ele>702.060</ele>
        <time>2013-07-09T11:23:17Z</time>
      </trkpt>
      <trkpt lat="42.757002" lon="-7.243985">
        <ele>702.043</ele>
        <time>2013-07-09T11:23:23Z</time>
      </trkpt>
      <trkpt lat="42.757094" lon="-7.244009">
        <ele>703.064</ele>
        <time>2013-07-09T11:23:30Z</time>
      </trkpt>
      <trkpt lat="42.757191" lon="-7.244006">
        <ele>703.010</ele>
        <time>2013-07-09T11:23:36Z</time>
      </trkpt>
      <trkpt lat="42.757269" lon="-7.244079">
        <ele>703.007</ele>
        <time>2013-07-09T11:23:43Z</time>
      </trkpt>
      <trkpt lat="42.757360" lon="-7.244118">
        <ele>704.038</ele>
        <time>2013-07-09T11:23:53Z</time>
      </trkpt>
      <trkpt lat="42.757457" lon="-7.244150">
        <ele>704.022</ele>
        <time>2013-07-09T11:24:00Z</time>
      </trkpt>
      <trkpt lat="42.757546" lon="-7.244203">
        <ele>704.065</ele>
        <time>2013-07-09T11:24:08Z</time>
      </trkpt>
      <trkpt lat="42.757626" lon="-7.244274">
        <ele>704.069</ele>
        <time>2013-07-09T11:24:16Z</time>
      </trkpt>
      <trkpt lat="42.757672" lon="-7.244310">
        <ele>704.067</ele>
        <time>2013-07-09T11:24:27Z</time>
      </trkpt>
      <trkpt lat="42.757750" lon="-7.244385">
        <ele>705.017</ele>
        <time>2013-07-09T11:24:34Z</time>
      </trkpt>
      <trkpt lat="42.757824" lon="-7.244436">
        <ele>705.057</ele>
        <time>2013-07-09T11:24:44Z</time>
      </trkpt>
      <trkpt lat="42.757897" lon="-7.244522">
        <ele>706.058</ele>
        <time>2013-07-09T11:24:50Z</time>
      </trkpt>
      <trkpt lat="42.757966" lon="-7.244606">
        <ele>707.052</ele>
        <time>2013-07-09T11:24:56Z</time>
      </trkpt>
      <trkpt lat="42.758033" lon="-7.244708">
        <ele>707.017</ele>
        <time>2013-07-09T11:25:04Z</time>
      </trkpt>
      <trkpt lat="42.758106" lon="-7.244786">
        <ele>707.007</ele>
        <time>2013-07-09T11:25:10Z</time>
      </trkpt>
      <trkpt lat="42.758202" lon="-7.244826">
        <ele>708.099</ele>
        <time>2013-07-09T11:25:16Z</time>
      </trkpt>
      <trkpt lat="42.758293" lon="-7.244873">
        <ele>709.063</ele>
        <time>2013-07-09T11:25:22Z</time>
      </trkpt>
      <trkpt lat="42.758389" lon="-7.244896">
        <ele>711.016</ele>
        <time>2013-07-09T11:25:30Z</time>
      </trkpt>
      <trkpt lat="42.758474" lon="-7.244955">
        <ele>712.010</ele>
        <time>2013-07-09T11:25:38Z</time>
      </trkpt>
      <trkpt lat="42.758571" lon="-7.245007">
        <ele>714.018</ele>
        <time>2013-07-09T11:25:48Z</time>
      </trkpt>
      <trkpt lat="42.758605" lon="-7.245109">
        <ele>715.028</ele>
        <time>2013-07-09T11:25:58Z</time>
      </trkpt>
      <trkpt lat="42.758692" lon="-7.245157">
        <ele>716.048</ele>
        <time>2013-07-09T11:26:08Z</time>
      </trkpt>
      <trkpt lat="42.758771" lon="-7.245220">
        <ele>717.045</ele>
        <time>2013-07-09T11:26:15Z</time>
      </trkpt>
      <trkpt lat="42.758846" lon="-7.245305">
        <ele>717.047</ele>
        <time>2013-07-09T11:26:25Z</time>
      </trkpt>
      <trkpt lat="42.758918" lon="-7.245408">
        <ele>718.011</ele>
        <time>2013-07-09T11:26:33Z</time>
      </trkpt>
      <trkpt lat="42.758977" lon="-7.245466">
        <ele>718.007</ele>
        <time>2013-07-09T11:26:43Z</time>
      </trkpt>
      <trkpt lat="42.759051" lon="-7.245567">
        <ele>719.078</ele>
        <time>2013-07-09T11:26:51Z</time>
      </trkpt>
      <trkpt lat="42.759126" lon="-7.245639">
        <ele>720.012</ele>
        <time>2013-07-09T11:26:57Z</time>
      </trkpt>
      <trkpt lat="42.759211" lon="-7.245722">
        <ele>721.095</ele>
        <time>2013-07-09T11:27:06Z</time>
      </trkpt>
      <trkpt lat="42.759301" lon="-7.245743">
        <ele>722.039</ele>
        <time>2013-07-09T11:27:14Z</time>
      </trkpt>
      <trkpt lat="42.759403" lon="-7.245800">
        <ele>724.037</ele>
        <time>2013-07-09T11:27:21Z</time>
      </trkpt>
      <trkpt lat="42.759494" lon="-7.245847">
        <ele>726.087</ele>
        <time>2013-07-09T11:27:31Z</time>
      </trkpt>
      <trkpt lat="42.759574" lon="-7.245936">
        <ele>727.037</ele>
        <time>2013-07-09T11:27:41Z</time>
      </trkpt>
      <trkpt lat="42.759668" lon="-7.245948">
        <ele>728.052</ele>
        <time>2013-07-09T11:27:51Z</time>
      </trkpt>
      <trkpt lat="42.759762" lon="-7.245977">
        <ele>728.053</ele>
        <time>2013-07-09T11:28:00Z</time>
      </trkpt>
      <trkpt lat="42.759826" lon="-7.246096">
        <ele>729.008</ele>
        <time>2013-07-09T11:28:06Z</time>
      </trkpt>
      <trkpt lat="42.759907" lon="-7.246148">
        <ele>729.007</ele>
        <time>2013-07-09T11:28:14Z</time>
      </trkpt>
      <trkpt lat="42.759893" lon="-7.246075">
        <ele>728.079</ele>
        <time>2013-07-09T11:28:24Z</time>
      </trkpt>
      <trkpt lat="42.759853" lon="-7.246045">
        <ele>727.023</ele>
        <time>2013-07-09T11:28:34Z</time>
      </trkpt>
      <trkpt lat="42.759877" lon="-7.245984">
        <ele>728.086</ele>
        <time>2013-07-09T11:28:49Z</time>
      </trkpt>
      <trkpt lat="42.759909" lon="-7.246035">
        <ele>728.010</ele>
        <time>2013-07-09T11:29:01Z</time>
      </trkpt>
      <trkpt lat="42.759950" lon="-7.246122">
        <ele>730.058</ele>
        <time>2013-07-09T11:29:11Z</time>
      </trkpt>
      <trkpt lat="42.760001" lon="-7.246195">
        <ele>733.018</ele>
        <time>2013-07-09T11:29:21Z</time>
      </trkpt>
      <trkpt lat="42.760083" lon="-7.246376">
        <ele>738.028</ele>
        <time>2013-07-09T11:29:29Z</time>
      </trkpt>
      <trkpt lat="42.760150" lon="-7.246473">
        <ele>737.034</ele>
        <time>2013-07-09T11:29:33Z</time>
      </trkpt>
      <trkpt lat="42.760221" lon="-7.246561">
        <ele>737.055</ele>
        <time>2013-07-09T11:29:39Z</time>
      </trkpt>
      <trkpt lat="42.760299" lon="-7.246644">
        <ele>738.010</ele>
        <time>2013-07-09T11:29:49Z</time>
      </trkpt>
      <trkpt lat="42.760332" lon="-7.246741">
        <ele>738.007</ele>
        <time>2013-07-09T11:30:00Z</time>
      </trkpt>
      <trkpt lat="42.760389" lon="-7.246837">
        <ele>739.067</ele>
        <time>2013-07-09T11:30:07Z</time>
      </trkpt>
      <trkpt lat="42.760431" lon="-7.246875">
        <ele>739.071</ele>
        <time>2013-07-09T11:30:17Z</time>
      </trkpt>
      <trkpt lat="42.760433" lon="-7.246950">
        <ele>740.014</ele>
        <time>2013-07-09T11:30:27Z</time>
      </trkpt>
      <trkpt lat="42.760383" lon="-7.247056">
        <ele>740.058</ele>
        <time>2013-07-09T11:30:34Z</time>
      </trkpt>
      <trkpt lat="42.760456" lon="-7.247144">
        <ele>741.046</ele>
        <time>2013-07-09T11:30:39Z</time>
      </trkpt>
      <trkpt lat="42.760534" lon="-7.247206">
        <ele>741.016</ele>
        <time>2013-07-09T11:30:42Z</time>
      </trkpt>
      <trkpt lat="42.760629" lon="-7.247280">
        <ele>741.026</ele>
        <time>2013-07-09T11:30:47Z</time>
      </trkpt>
      <trkpt lat="42.760720" lon="-7.247369">
        <ele>741.038</ele>
        <time>2013-07-09T11:30:52Z</time>
      </trkpt>
      <trkpt lat="42.760766" lon="-7.247490">
        <ele>742.070</ele>
        <time>2013-07-09T11:30:57Z</time>
      </trkpt>
      <trkpt lat="42.760793" lon="-7.247614">
        <ele>742.017</ele>
        <time>2013-07-09T11:31:03Z</time>
      </trkpt>
      <trkpt lat="42.760821" lon="-7.247738">
        <ele>742.007</ele>
        <time>2013-07-09T11:31:11Z</time>
      </trkpt>
      <trkpt lat="42.760797" lon="-7.247873">
        <ele>742.037</ele>
        <time>2013-07-09T11:31:19Z</time>
      </trkpt>
      <trkpt lat="42.760798" lon="-7.247997">
        <ele>741.021</ele>
        <time>2013-07-09T11:31:22Z</time>
      </trkpt>
      <trkpt lat="42.760783" lon="-7.248119">
        <ele>740.084</ele>
        <time>2013-07-09T11:31:32Z</time>
      </trkpt>
      <trkpt lat="42.760712" lon="-7.248198">
        <ele>740.088</ele>
        <time>2013-07-09T11:31:37Z</time>
      </trkpt>
      <trkpt lat="42.760799" lon="-7.248230">
        <ele>738.086</ele>
        <time>2013-07-09T11:31:47Z</time>
      </trkpt>
      <trkpt lat="42.760901" lon="-7.248239">
        <ele>738.016</ele>
        <time>2013-07-09T11:31:53Z</time>
      </trkpt>
      <trkpt lat="42.760999" lon="-7.248278">
        <ele>737.016</ele>
        <time>2013-07-09T11:31:59Z</time>
      </trkpt>
      <trkpt lat="42.761090" lon="-7.248317">
        <ele>737.058</ele>
        <time>2013-07-09T11:32:06Z</time>
      </trkpt>
      <trkpt lat="42.761116" lon="-7.248372">
        <ele>737.052</ele>
        <time>2013-07-09T11:32:17Z</time>
      </trkpt>
      <trkpt lat="42.761083" lon="-7.248433">
        <ele>736.017</ele>
        <time>2013-07-09T11:32:27Z</time>
      </trkpt>
      <trkpt lat="42.761157" lon="-7.248496">
        <ele>737.007</ele>
        <time>2013-07-09T11:32:37Z</time>
      </trkpt>
      <trkpt lat="42.761240" lon="-7.248551">
        <ele>737.079</ele>
        <time>2013-07-09T11:32:46Z</time>
      </trkpt>
      <trkpt lat="42.761334" lon="-7.248591">
        <ele>737.013</ele>
        <time>2013-07-09T11:32:53Z</time>
      </trkpt>
      <trkpt lat="42.761421" lon="-7.248638">
        <ele>737.046</ele>
        <time>2013-07-09T11:32:57Z</time>
      </trkpt>
      <trkpt lat="42.761527" lon="-7.248661">
        <ele>737.030</ele>
        <time>2013-07-09T11:33:02Z</time>
      </trkpt>
      <trkpt lat="42.761615" lon="-7.248726">
        <ele>737.088</ele>
        <time>2013-07-09T11:33:09Z</time>
      </trkpt>
      <trkpt lat="42.761706" lon="-7.248773">
        <ele>738.018</ele>
        <time>2013-07-09T11:33:17Z</time>
      </trkpt>
      <trkpt lat="42.761787" lon="-7.248840">
        <ele>738.038</ele>
        <time>2013-07-09T11:33:23Z</time>
      </trkpt>
      <trkpt lat="42.761881" lon="-7.248896">
        <ele>739.038</ele>
        <time>2013-07-09T11:33:28Z</time>
      </trkpt>
      <trkpt lat="42.761934" lon="-7.248871">
        <ele>740.070</ele>
        <time>2013-07-09T11:33:38Z</time>
      </trkpt>
      <trkpt lat="42.761914" lon="-7.248783">
        <ele>743.017</ele>
        <time>2013-07-09T11:33:48Z</time>
      </trkpt>
      <trkpt lat="42.761930" lon="-7.248723">
        <ele>746.007</ele>
        <time>2013-07-09T11:33:58Z</time>
      </trkpt>
      <trkpt lat="42.762030" lon="-7.248774">
        <ele>746.037</ele>
        <time>2013-07-09T11:34:04Z</time>
      </trkpt>
      <trkpt lat="42.762137" lon="-7.248801">
        <ele>748.021</ele>
        <time>2013-07-09T11:34:10Z</time>
      </trkpt>
      <trkpt lat="42.762229" lon="-7.248870">
        <ele>748.064</ele>
        <time>2013-07-09T11:34:16Z</time>
      </trkpt>
      <trkpt lat="42.762318" lon="-7.248909">
        <ele>748.098</ele>
        <time>2013-07-09T11:34:20Z</time>
      </trkpt>
      <trkpt lat="42.762412" lon="-7.248947">
        <ele>748.016</ele>
        <time>2013-07-09T11:34:26Z</time>
      </trkpt>
      <trkpt lat="42.762504" lon="-7.248998">
        <ele>747.056</ele>
        <time>2013-07-09T11:34:32Z</time>
      </trkpt>
      <trkpt lat="42.762599" lon="-7.249039">
        <ele>746.016</ele>
        <time>2013-07-09T11:34:40Z</time>
      </trkpt>
      <trkpt lat="42.762670" lon="-7.249005">
        <ele>745.038</ele>
        <time>2013-07-09T11:34:50Z</time>
      </trkpt>
      <trkpt lat="42.762734" lon="-7.248916">
        <ele>745.070</ele>
        <time>2013-07-09T11:35:00Z</time>
      </trkpt>
      <trkpt lat="42.762836" lon="-7.248929">
        <ele>746.017</ele>
        <time>2013-07-09T11:35:09Z</time>
      </trkpt>
      <trkpt lat="42.762932" lon="-7.248926">
        <ele>746.007</ele>
        <time>2013-07-09T11:35:14Z</time>
      </trkpt>
      <trkpt lat="42.763023" lon="-7.248906">
        <ele>747.047</ele>
        <time>2013-07-09T11:35:23Z</time>
      </trkpt>
      <trkpt lat="42.763114" lon="-7.248900">
        <ele>749.091</ele>
        <time>2013-07-09T11:35:31Z</time>
      </trkpt>
      <trkpt lat="42.763205" lon="-7.248910">
        <ele>751.064</ele>
        <time>2013-07-09T11:35:40Z</time>
      </trkpt>
      <trkpt lat="42.763271" lon="-7.249011">
        <ele>752.028</ele>
        <time>2013-07-09T11:35:48Z</time>
      </trkpt>
      <trkpt lat="42.763351" lon="-7.249083">
        <ele>753.056</ele>
        <time>2013-07-09T11:35:57Z</time>
      </trkpt>
      <trkpt lat="42.763447" lon="-7.249129">
        <ele>753.016</ele>
        <time>2013-07-09T11:36:06Z</time>
      </trkpt>
      <trkpt lat="42.763540" lon="-7.249179">
        <ele>754.066</ele>
        <time>2013-07-09T11:36:16Z</time>
      </trkpt>
      <trkpt lat="42.763629" lon="-7.249204">
        <ele>754.094</ele>
        <time>2013-07-09T11:36:26Z</time>
      </trkpt>
      <trkpt lat="42.763699" lon="-7.249290">
        <ele>752.057</ele>
        <time>2013-07-09T11:36:35Z</time>
      </trkpt>
      <trkpt lat="42.763798" lon="-7.249307">
        <ele>752.022</ele>
        <time>2013-07-09T11:36:42Z</time>
      </trkpt>
      <trkpt lat="42.763879" lon="-7.249346">
        <ele>755.007</ele>
        <time>2013-07-09T11:36:52Z</time>
      </trkpt>
      <trkpt lat="42.763939" lon="-7.249413">
        <ele>756.093</ele>
        <time>2013-07-09T11:37:02Z</time>
      </trkpt>
      <trkpt lat="42.763958" lon="-7.249498">
        <ele>759.017</ele>
        <time>2013-07-09T11:37:12Z</time>
      </trkpt>
      <trkpt lat="42.763970" lon="-7.249577">
        <ele>760.060</ele>
        <time>2013-07-09T11:37:22Z</time>
      </trkpt>
      <trkpt lat="42.763964" lon="-7.249645">
        <ele>756.044</ele>
        <time>2013-07-09T11:37:43Z</time>
      </trkpt>
      <trkpt lat="42.763931" lon="-7.249771">
        <ele>754.032</ele>
        <time>2013-07-09T11:37:50Z</time>
      </trkpt>
      <trkpt lat="42.764014" lon="-7.249855">
        <ele>753.072</ele>
        <time>2013-07-09T11:37:59Z</time>
      </trkpt>
      <trkpt lat="42.764108" lon="-7.249845">
        <ele>752.042</ele>
        <time>2013-07-09T11:38:05Z</time>
      </trkpt>
      <trkpt lat="42.764196" lon="-7.249780">
        <ele>751.033</ele>
        <time>2013-07-09T11:38:11Z</time>
      </trkpt>
      <trkpt lat="42.764234" lon="-7.249815">
        <ele>752.023</ele>
        <time>2013-07-09T11:38:23Z</time>
      </trkpt>
      <trkpt lat="42.764246" lon="-7.249874">
        <ele>752.015</ele>
        <time>2013-07-09T11:38:33Z</time>
      </trkpt>
      <trkpt lat="42.764320" lon="-7.249870">
        <ele>752.007</ele>
        <time>2013-07-09T11:38:43Z</time>
      </trkpt>
      <trkpt lat="42.764403" lon="-7.249923">
        <ele>752.037</ele>
        <time>2013-07-09T11:38:52Z</time>
      </trkpt>
      <trkpt lat="42.764389" lon="-7.250063">
        <ele>752.071</ele>
        <time>2013-07-09T11:38:59Z</time>
      </trkpt>
      <trkpt lat="42.764450" lon="-7.250155">
        <ele>753.074</ele>
        <time>2013-07-09T11:39:05Z</time>
      </trkpt>
      <trkpt lat="42.764539" lon="-7.250193">
        <ele>753.068</ele>
        <time>2013-07-09T11:39:15Z</time>
      </trkpt>
      <trkpt lat="42.764555" lon="-7.250330">
        <ele>752.026</ele>
        <time>2013-07-09T11:39:21Z</time>
      </trkpt>
      <trkpt lat="42.764649" lon="-7.250315">
        <ele>752.036</ele>
        <time>2013-07-09T11:39:28Z</time>
      </trkpt>
      <trkpt lat="42.764741" lon="-7.250271">
        <ele>752.046</ele>
        <time>2013-07-09T11:39:32Z</time>
      </trkpt>
      <trkpt lat="42.764807" lon="-7.250174">
        <ele>751.067</ele>
        <time>2013-07-09T11:39:39Z</time>
      </trkpt>
      <trkpt lat="42.764880" lon="-7.250106">
        <ele>751.081</ele>
        <time>2013-07-09T11:39:49Z</time>
      </trkpt>
      <trkpt lat="42.764934" lon="-7.250083">
        <ele>751.019</ele>
        <time>2013-07-09T11:39:59Z</time>
      </trkpt>
      <trkpt lat="42.764868" lon="-7.250204">
        <ele>751.007</ele>
        <time>2013-07-09T11:40:02Z</time>
      </trkpt>
      <trkpt lat="42.764821" lon="-7.250348">
        <ele>751.030</ele>
        <time>2013-07-09T11:40:05Z</time>
      </trkpt>
      <trkpt lat="42.764824" lon="-7.250478">
        <ele>751.014</ele>
        <time>2013-07-09T11:40:07Z</time>
      </trkpt>
      <trkpt lat="42.764834" lon="-7.250581">
        <ele>751.057</ele>
        <time>2013-07-09T11:40:17Z</time>
      </trkpt>
      <trkpt lat="42.764871" lon="-7.250620">
        <ele>752.041</ele>
        <time>2013-07-09T11:40:27Z</time>
      </trkpt>
      <trkpt lat="42.764938" lon="-7.250682">
        <ele>752.069</ele>
        <time>2013-07-09T11:40:37Z</time>
      </trkpt>
      <trkpt lat="42.764990" lon="-7.250753">
        <ele>755.019</ele>
        <time>2013-07-09T11:40:47Z</time>
      </trkpt>
      <trkpt lat="42.765072" lon="-7.250795">
        <ele>755.069</ele>
        <time>2013-07-09T11:40:57Z</time>
      </trkpt>
      <trkpt lat="42.765109" lon="-7.250898">
        <ele>755.072</ele>
        <time>2013-07-09T11:41:07Z</time>
      </trkpt>
      <trkpt lat="42.765127" lon="-7.251027">
        <ele>755.013</ele>
        <time>2013-07-09T11:41:15Z</time>
      </trkpt>
      <trkpt lat="42.765202" lon="-7.251101">
        <ele>755.014</ele>
        <time>2013-07-09T11:41:21Z</time>
      </trkpt>
      <trkpt lat="42.765269" lon="-7.251192">
        <ele>757.007</ele>
        <time>2013-07-09T11:41:29Z</time>
      </trkpt>
      <trkpt lat="42.765314" lon="-7.251283">
        <ele>760.041</ele>
        <time>2013-07-09T11:41:39Z</time>
      </trkpt>
      <trkpt lat="42.765382" lon="-7.251369">
        <ele>761.045</ele>
        <time>2013-07-09T11:41:47Z</time>
      </trkpt>
      <trkpt lat="42.765373" lon="-7.251497">
        <ele>761.048</ele>
        <time>2013-07-09T11:41:56Z</time>
      </trkpt>
      <trkpt lat="42.765404" lon="-7.251622">
        <ele>762.042</ele>
        <time>2013-07-09T11:42:03Z</time>
      </trkpt>
      <trkpt lat="42.765471" lon="-7.251733">
        <ele>762.040</ele>
        <time>2013-07-09T11:42:13Z</time>
      </trkpt>
      <trkpt lat="42.765539" lon="-7.251840">
        <ele>761.050</ele>
        <time>2013-07-09T11:42:18Z</time>
      </trkpt>
      <trkpt lat="42.765617" lon="-7.251926">
        <ele>760.020</ele>
        <time>2013-07-09T11:42:28Z</time>
      </trkpt>
      <trkpt lat="42.765705" lon="-7.251967">
        <ele>760.048</ele>
        <time>2013-07-09T11:42:36Z</time>
      </trkpt>
      <trkpt lat="42.765732" lon="-7.252042">
        <ele>760.061</ele>
        <time>2013-07-09T11:42:46Z</time>
      </trkpt>
      <trkpt lat="42.765803" lon="-7.252133">
        <ele>760.017</ele>
        <time>2013-07-09T11:42:54Z</time>
      </trkpt>
      <trkpt lat="42.765887" lon="-7.252178">
        <ele>760.007</ele>
        <time>2013-07-09T11:43:02Z</time>
      </trkpt>
      <trkpt lat="42.765921" lon="-7.252304">
        <ele>760.028</ele>
        <time>2013-07-09T11:43:09Z</time>
      </trkpt>
      <trkpt lat="42.765938" lon="-7.252424">
        <ele>760.042</ele>
        <time>2013-07-09T11:43:17Z</time>
      </trkpt>
      <trkpt lat="42.766019" lon="-7.252478">
        <ele>760.055</ele>
        <time>2013-07-09T11:43:27Z</time>
      </trkpt>
      <trkpt lat="42.765978" lon="-7.252593">
        <ele>761.059</ele>
        <time>2013-07-09T11:43:37Z</time>
      </trkpt>
      <trkpt lat="42.765971" lon="-7.252729">
        <ele>761.027</ele>
        <time>2013-07-09T11:43:46Z</time>
      </trkpt>
      <trkpt lat="42.766021" lon="-7.252840">
        <ele>762.057</ele>
        <time>2013-07-09T11:43:52Z</time>
      </trkpt>
      <trkpt lat="42.766032" lon="-7.252982">
        <ele>763.027</ele>
        <time>2013-07-09T11:43:59Z</time>
      </trkpt>
      <trkpt lat="42.766070" lon="-7.253108">
        <ele>764.029</ele>
        <time>2013-07-09T11:44:09Z</time>
      </trkpt>
      <trkpt lat="42.766108" lon="-7.253228">
        <ele>764.000</ele>
        <time>2013-07-09T11:44:17Z</time>
      </trkpt>
      <trkpt lat="42.766128" lon="-7.253346">
        <ele>764.020</ele>
        <time>2013-07-09T11:44:27Z</time>
      </trkpt>
      <trkpt lat="42.766168" lon="-7.253431">
        <ele>765.007</ele>
        <time>2013-07-09T11:44:37Z</time>
      </trkpt>
      <trkpt lat="42.766106" lon="-7.253581">
        <ele>766.056</ele>
        <time>2013-07-09T11:44:42Z</time>
      </trkpt>
      <trkpt lat="42.766053" lon="-7.253677">
        <ele>766.080</ele>
        <time>2013-07-09T11:44:52Z</time>
      </trkpt>
      <trkpt lat="42.766089" lon="-7.253719">
        <ele>765.093</ele>
        <time>2013-07-09T11:45:20Z</time>
      </trkpt>
      <trkpt lat="42.766087" lon="-7.253826">
        <ele>765.017</ele>
        <time>2013-07-09T11:45:30Z</time>
      </trkpt>
      <trkpt lat="42.766056" lon="-7.253874">
        <ele>765.075</ele>
        <time>2013-07-09T11:45:40Z</time>
      </trkpt>
      <trkpt lat="42.766062" lon="-7.253796">
        <ele>765.065</ele>
        <time>2013-07-09T11:45:50Z</time>
      </trkpt>
      <trkpt lat="42.766100" lon="-7.253742">
        <ele>765.065</ele>
        <time>2013-07-09T11:46:00Z</time>
      </trkpt>
      <trkpt lat="42.766188" lon="-7.253693">
        <ele>765.029</ele>
        <time>2013-07-09T11:46:09Z</time>
      </trkpt>
      <trkpt lat="42.766213" lon="-7.253815">
        <ele>764.000</ele>
        <time>2013-07-09T11:46:14Z</time>
      </trkpt>
      <trkpt lat="42.766250" lon="-7.253854">
        <ele>763.020</ele>
        <time>2013-07-09T11:46:27Z</time>
      </trkpt>
      <trkpt lat="42.766269" lon="-7.253915">
        <ele>763.007</ele>
        <time>2013-07-09T11:46:40Z</time>
      </trkpt>
      <trkpt lat="42.766320" lon="-7.253995">
        <ele>765.086</ele>
        <time>2013-07-09T11:46:50Z</time>
      </trkpt>
      <trkpt lat="42.766397" lon="-7.254067">
        <ele>766.020</ele>
        <time>2013-07-09T11:46:59Z</time>
      </trkpt>
      <trkpt lat="42.766468" lon="-7.254019">
        <ele>766.033</ele>
        <time>2013-07-09T11:47:09Z</time>
      </trkpt>
      <trkpt lat="42.766375" lon="-7.254068">
        <ele>767.067</ele>
        <time>2013-07-09T11:47:15Z</time>
      </trkpt>
      <trkpt lat="42.766336" lon="-7.254115">
        <ele>767.085</ele>
        <time>2013-07-09T11:47:32Z</time>
      </trkpt>
      <trkpt lat="42.766376" lon="-7.254145">
        <ele>768.025</ele>
        <time>2013-07-09T11:48:00Z</time>
      </trkpt>
      <trkpt lat="42.766385" lon="-7.254244">
        <ele>769.095</ele>
        <time>2013-07-09T11:48:23Z</time>
      </trkpt>
      <trkpt lat="42.766436" lon="-7.254217">
        <ele>770.084</ele>
        <time>2013-07-09T11:48:33Z</time>
      </trkpt>
      <trkpt lat="42.766486" lon="-7.254204">
        <ele>770.007</ele>
        <time>2013-07-09T11:48:43Z</time>
      </trkpt>
      <trkpt lat="42.766531" lon="-7.254235">
        <ele>773.017</ele>
        <time>2013-07-09T11:49:06Z</time>
      </trkpt>
      <trkpt lat="42.766619" lon="-7.254155">
        <ele>773.007</ele>
        <time>2013-07-09T11:49:12Z</time>
      </trkpt>
      <trkpt lat="42.766547" lon="-7.254066">
        <ele>774.082</ele>
        <time>2013-07-09T11:49:21Z</time>
      </trkpt>
      <trkpt lat="42.766585" lon="-7.254025">
        <ele>775.076</ele>
        <time>2013-07-09T11:49:38Z</time>
      </trkpt>
      <trkpt lat="42.766564" lon="-7.254102">
        <ele>777.039</ele>
        <time>2013-07-09T11:49:48Z</time>
      </trkpt>
      <trkpt lat="42.766604" lon="-7.254138">
        <ele>776.063</ele>
        <time>2013-07-09T11:50:10Z</time>
      </trkpt>
      <trkpt lat="42.766640" lon="-7.254072">
        <ele>776.021</ele>
        <time>2013-07-09T11:50:20Z</time>
      </trkpt>
      <trkpt lat="42.766708" lon="-7.253986">
        <ele>776.041</ele>
        <time>2013-07-09T11:50:28Z</time>
      </trkpt>
      <trkpt lat="42.766662" lon="-7.253997">
        <ele>775.021</ele>
        <time>2013-07-09T11:50:39Z</time>
      </trkpt>
      <trkpt lat="42.766584" lon="-7.254062">
        <ele>775.082</ele>
        <time>2013-07-09T11:50:45Z</time>
      </trkpt>
      <trkpt lat="42.766678" lon="-7.254115">
        <ele>775.043</ele>
        <time>2013-07-09T11:50:50Z</time>
      </trkpt>
      <trkpt lat="42.766807" lon="-7.254122">
        <ele>774.017</ele>
        <time>2013-07-09T11:50:55Z</time>
      </trkpt>
      <trkpt lat="42.766916" lon="-7.254111">
        <ele>774.007</ele>
        <time>2013-07-09T11:50:58Z</time>
      </trkpt>
      <trkpt lat="42.766980" lon="-7.254193">
        <ele>773.072</ele>
        <time>2013-07-09T11:51:08Z</time>
      </trkpt>
      <trkpt lat="42.767002" lon="-7.254270">
        <ele>773.026</ele>
        <time>2013-07-09T11:51:18Z</time>
      </trkpt>
      <trkpt lat="42.766933" lon="-7.254356">
        <ele>773.069</ele>
        <time>2013-07-09T11:51:24Z</time>
      </trkpt>
      <trkpt lat="42.766916" lon="-7.254493">
        <ele>773.013</ele>
        <time>2013-07-09T11:51:33Z</time>
      </trkpt>
      <trkpt lat="42.766950" lon="-7.254633">
        <ele>773.011</ele>
        <time>2013-07-09T11:51:41Z</time>
      </trkpt>
      <trkpt lat="42.767033" lon="-7.254727">
        <ele>772.031</ele>
        <time>2013-07-09T11:51:46Z</time>
      </trkpt>
      <trkpt lat="42.767114" lon="-7.254749">
        <ele>771.061</ele>
        <time>2013-07-09T11:51:56Z</time>
      </trkpt>
      <trkpt lat="42.767085" lon="-7.254692">
        <ele>770.032</ele>
        <time>2013-07-09T11:52:06Z</time>
      </trkpt>
      <trkpt lat="42.767039" lon="-7.254718">
        <ele>770.092</ele>
        <time>2013-07-09T11:52:16Z</time>
      </trkpt>
      <trkpt lat="42.766991" lon="-7.254781">
        <ele>769.011</ele>
        <time>2013-07-09T11:52:26Z</time>
      </trkpt>
      <trkpt lat="42.766931" lon="-7.254843">
        <ele>770.007</ele>
        <time>2013-07-09T11:52:36Z</time>
      </trkpt>
      <trkpt lat="42.766958" lon="-7.254789">
        <ele>771.097</ele>
        <time>2013-07-09T11:52:47Z</time>
      </trkpt>
      <trkpt lat="42.766994" lon="-7.254833">
        <ele>770.041</ele>
        <time>2013-07-09T11:53:05Z</time>
      </trkpt>
      <trkpt lat="42.767036" lon="-7.254908">
        <ele>770.074</ele>
        <time>2013-07-09T11:53:15Z</time>
      </trkpt>
      <trkpt lat="42.767128" lon="-7.254991">
        <ele>770.078</ele>
        <time>2013-07-09T11:53:21Z</time>
      </trkpt>
      <trkpt lat="42.767204" lon="-7.255041">
        <ele>770.056</ele>
        <time>2013-07-09T11:53:31Z</time>
      </trkpt>
      <trkpt lat="42.767300" lon="-7.255032">
        <ele>771.056</ele>
        <time>2013-07-09T11:53:41Z</time>
      </trkpt>
      <trkpt lat="42.767216" lon="-7.255104">
        <ele>770.026</ele>
        <time>2013-07-09T11:53:50Z</time>
      </trkpt>
      <trkpt lat="42.767316" lon="-7.255112">
        <ele>769.016</ele>
        <time>2013-07-09T11:54:00Z</time>
      </trkpt>
      <trkpt lat="42.767465" lon="-7.255131">
        <ele>768.076</ele>
        <time>2013-07-09T11:54:05Z</time>
      </trkpt>
      <trkpt lat="42.767496" lon="-7.255193">
        <ele>768.013</ele>
        <time>2013-07-09T11:54:16Z</time>
      </trkpt>
      <trkpt lat="42.767494" lon="-7.255296">
        <ele>768.007</ele>
        <time>2013-07-09T11:54:26Z</time>
      </trkpt>
      <trkpt lat="42.767532" lon="-7.255259">
        <ele>769.035</ele>
        <time>2013-07-09T11:54:40Z</time>
      </trkpt>
      <trkpt lat="42.767573" lon="-7.255155">
        <ele>769.019</ele>
        <time>2013-07-09T11:54:50Z</time>
      </trkpt>
      <trkpt lat="42.767656" lon="-7.255100">
        <ele>770.012</ele>
        <time>2013-07-09T11:54:58Z</time>
      </trkpt>
      <trkpt lat="42.767750" lon="-7.255079">
        <ele>770.016</ele>
        <time>2013-07-09T11:55:04Z</time>
      </trkpt>
      <trkpt lat="42.767792" lon="-7.255196">
        <ele>770.064</ele>
        <time>2013-07-09T11:55:08Z</time>
      </trkpt>
      <trkpt lat="42.767886" lon="-7.255264">
        <ele>770.014</ele>
        <time>2013-07-09T11:55:13Z</time>
      </trkpt>
      <trkpt lat="42.767940" lon="-7.255392">
        <ele>769.024</ele>
        <time>2013-07-09T11:55:19Z</time>
      </trkpt>
      <trkpt lat="42.768004" lon="-7.255499">
        <ele>769.043</ele>
        <time>2013-07-09T11:55:25Z</time>
      </trkpt>
      <trkpt lat="42.768095" lon="-7.255554">
        <ele>769.064</ele>
        <time>2013-07-09T11:55:31Z</time>
      </trkpt>
      <trkpt lat="42.768118" lon="-7.255637">
        <ele>769.010</ele>
        <time>2013-07-09T11:55:41Z</time>
      </trkpt>
      <trkpt lat="42.768250" lon="-7.255663">
        <ele>770.007</ele>
        <time>2013-07-09T11:55:49Z</time>
      </trkpt>
      <trkpt lat="42.768332" lon="-7.255716">
        <ele>769.078</ele>
        <time>2013-07-09T11:55:57Z</time>
      </trkpt>
      <trkpt lat="42.768316" lon="-7.255777">
        <ele>766.092</ele>
        <time>2013-07-09T11:56:34Z</time>
      </trkpt>
      <trkpt lat="42.768363" lon="-7.255810">
        <ele>767.045</ele>
        <time>2013-07-09T11:56:44Z</time>
      </trkpt>
      <trkpt lat="42.768388" lon="-7.255867">
        <ele>767.079</ele>
        <time>2013-07-09T11:56:57Z</time>
      </trkpt>
      <trkpt lat="42.768460" lon="-7.255894">
        <ele>767.017</ele>
        <time>2013-07-09T11:57:07Z</time>
      </trkpt>
      <trkpt lat="42.768453" lon="-7.255955">
        <ele>767.027</ele>
        <time>2013-07-09T11:57:17Z</time>
      </trkpt>
      <trkpt lat="42.768526" lon="-7.255873">
        <ele>767.077</ele>
        <time>2013-07-09T11:57:24Z</time>
      </trkpt>
      <trkpt lat="42.768558" lon="-7.255754">
        <ele>768.076</ele>
        <time>2013-07-09T11:57:32Z</time>
      </trkpt>
      <trkpt lat="42.768622" lon="-7.255865">
        <ele>768.090</ele>
        <time>2013-07-09T11:57:39Z</time>
      </trkpt>
      <trkpt lat="42.768565" lon="-7.255978">
        <ele>768.019</ele>
        <time>2013-07-09T11:57:47Z</time>
      </trkpt>
      <trkpt lat="42.768477" lon="-7.256041">
        <ele>768.007</ele>
        <time>2013-07-09T11:57:54Z</time>
      </trkpt>
      <trkpt lat="42.768435" lon="-7.256183">
        <ele>767.021</ele>
        <time>2013-07-09T11:58:01Z</time>
      </trkpt>
      <trkpt lat="42.768439" lon="-7.256290">
        <ele>766.025</ele>
        <time>2013-07-09T11:58:11Z</time>
      </trkpt>
      <trkpt lat="42.768486" lon="-7.256378">
        <ele>766.018</ele>
        <time>2013-07-09T11:58:21Z</time>
      </trkpt>
      <trkpt lat="42.768500" lon="-7.256508">
        <ele>766.052</ele>
        <time>2013-07-09T11:58:28Z</time>
      </trkpt>
      <trkpt lat="42.768550" lon="-7.256579">
        <ele>766.090</ele>
        <time>2013-07-09T11:58:38Z</time>
      </trkpt>
      <trkpt lat="42.768637" lon="-7.256568">
        <ele>766.070</ele>
        <time>2013-07-09T11:58:48Z</time>
      </trkpt>
      <trkpt lat="42.768723" lon="-7.256595">
        <ele>767.050</ele>
        <time>2013-07-09T11:58:58Z</time>
      </trkpt>
      <trkpt lat="42.768811" lon="-7.256629">
        <ele>767.052</ele>
        <time>2013-07-09T11:59:08Z</time>
      </trkpt>
      <trkpt lat="42.768785" lon="-7.256683">
        <ele>766.053</ele>
        <time>2013-07-09T11:59:19Z</time>
      </trkpt>
      <trkpt lat="42.768811" lon="-7.256620">
        <ele>766.008</ele>
        <time>2013-07-09T11:59:38Z</time>
      </trkpt>
      <trkpt lat="42.768881" lon="-7.256627">
        <ele>766.007</ele>
        <time>2013-07-09T11:59:48Z</time>
      </trkpt>
      <trkpt lat="42.768948" lon="-7.256719">
        <ele>766.069</ele>
        <time>2013-07-09T11:59:57Z</time>
      </trkpt>
      <trkpt lat="42.769037" lon="-7.256766">
        <ele>766.013</ele>
        <time>2013-07-09T12:00:07Z</time>
      </trkpt>
      <trkpt lat="42.769010" lon="-7.256915">
        <ele>767.096</ele>
        <time>2013-07-09T12:00:14Z</time>
      </trkpt>
      <trkpt lat="42.768912" lon="-7.256946">
        <ele>767.050</ele>
        <time>2013-07-09T12:00:22Z</time>
      </trkpt>
      <trkpt lat="42.768832" lon="-7.256886">
        <ele>768.018</ele>
        <time>2013-07-09T12:00:31Z</time>
      </trkpt>
      <trkpt lat="42.768790" lon="-7.256809">
        <ele>770.068</ele>
        <time>2013-07-09T12:00:41Z</time>
      </trkpt>
      <trkpt lat="42.768789" lon="-7.256717">
        <ele>770.098</ele>
        <time>2013-07-09T12:00:51Z</time>
      </trkpt>
      <trkpt lat="42.768686" lon="-7.256702">
        <ele>771.076</ele>
        <time>2013-07-09T12:00:57Z</time>
      </trkpt>
      <trkpt lat="42.768705" lon="-7.256826">
        <ele>770.090</ele>
        <time>2013-07-09T12:01:03Z</time>
      </trkpt>
      <trkpt lat="42.768753" lon="-7.256797">
        <ele>769.019</ele>
        <time>2013-07-09T12:01:13Z</time>
      </trkpt>
      <trkpt lat="42.768803" lon="-7.256834">
        <ele>768.007</ele>
        <time>2013-07-09T12:01:23Z</time>
      </trkpt>
      <trkpt lat="42.768768" lon="-7.256881">
        <ele>769.041</ele>
        <time>2013-07-09T12:01:54Z</time>
      </trkpt>
      <trkpt lat="42.768725" lon="-7.256951">
        <ele>769.085</ele>
        <time>2013-07-09T12:02:04Z</time>
      </trkpt>
      <trkpt lat="42.768662" lon="-7.257029">
        <ele>769.038</ele>
        <time>2013-07-09T12:02:14Z</time>
      </trkpt>
      <trkpt lat="42.768614" lon="-7.257096">
        <ele>769.062</ele>
        <time>2013-07-09T12:02:24Z</time>
      </trkpt>
      <trkpt lat="42.768567" lon="-7.257125">
        <ele>769.010</ele>
        <time>2013-07-09T12:02:50Z</time>
      </trkpt>
      <trkpt lat="42.768613" lon="-7.257184">
        <ele>769.090</ele>
        <time>2013-07-09T12:03:04Z</time>
      </trkpt>
      <trkpt lat="42.768695" lon="-7.257251">
        <ele>769.070</ele>
        <time>2013-07-09T12:03:09Z</time>
      </trkpt>
      <trkpt lat="42.768696" lon="-7.257316">
        <ele>770.082</ele>
        <time>2013-07-09T12:03:19Z</time>
      </trkpt>
      <trkpt lat="42.768730" lon="-7.257378">
        <ele>770.043</ele>
        <time>2013-07-09T12:03:38Z</time>
      </trkpt>
      <trkpt lat="42.768759" lon="-7.257432">
        <ele>770.017</ele>
        <time>2013-07-09T12:03:49Z</time>
      </trkpt>
      <trkpt lat="42.768836" lon="-7.257518">
        <ele>770.007</ele>
        <time>2013-07-09T12:03:58Z</time>
      </trkpt>
      <trkpt lat="42.768919" lon="-7.257569">
        <ele>770.072</ele>
        <time>2013-07-09T12:04:04Z</time>
      </trkpt>
      <trkpt lat="42.768934" lon="-7.257661">
        <ele>770.036</ele>
        <time>2013-07-09T12:04:14Z</time>
      </trkpt>
      <trkpt lat="42.768941" lon="-7.257766">
        <ele>770.059</ele>
        <time>2013-07-09T12:04:24Z</time>
      </trkpt>
      <trkpt lat="42.768971" lon="-7.257827">
        <ele>770.073</ele>
        <time>2013-07-09T12:04:34Z</time>
      </trkpt>
      <trkpt lat="42.769013" lon="-7.257858">
        <ele>770.061</ele>
        <time>2013-07-09T12:04:44Z</time>
      </trkpt>
      <trkpt lat="42.769063" lon="-7.257887">
        <ele>770.081</ele>
        <time>2013-07-09T12:05:05Z</time>
      </trkpt>
      <trkpt lat="42.769130" lon="-7.257907">
        <ele>770.071</ele>
        <time>2013-07-09T12:05:15Z</time>
      </trkpt>
      <trkpt lat="42.769187" lon="-7.258019">
        <ele>770.055</ele>
        <time>2013-07-09T12:05:21Z</time>
      </trkpt>
      <trkpt lat="42.769259" lon="-7.258131">
        <ele>770.007</ele>
        <time>2013-07-09T12:05:26Z</time>
      </trkpt>
      <trkpt lat="42.769303" lon="-7.258239">
        <ele>770.017</ele>
        <time>2013-07-09T12:05:30Z</time>
      </trkpt>
      <trkpt lat="42.769364" lon="-7.258337">
        <ele>770.007</ele>
        <time>2013-07-09T12:05:34Z</time>
      </trkpt>
      <trkpt lat="42.769365" lon="-7.258400">
        <ele>769.049</ele>
        <time>2013-07-09T12:05:44Z</time>
      </trkpt>
      <trkpt lat="42.769307" lon="-7.258301">
        <ele>769.093</ele>
        <time>2013-07-09T12:05:54Z</time>
      </trkpt>
      <trkpt lat="42.769361" lon="-7.258337">
        <ele>770.056</ele>
        <time>2013-07-09T12:06:06Z</time>
      </trkpt>
      <trkpt lat="42.769403" lon="-7.258425">
        <ele>770.020</ele>
        <time>2013-07-09T12:06:16Z</time>
      </trkpt>
      <trkpt lat="42.769430" lon="-7.258370">
        <ele>770.068</ele>
        <time>2013-07-09T12:06:30Z</time>
      </trkpt>
      <trkpt lat="42.769526" lon="-7.258382">
        <ele>771.028</ele>
        <time>2013-07-09T12:06:36Z</time>
      </trkpt>
      <trkpt lat="42.769591" lon="-7.258478">
        <ele>771.028</ele>
        <time>2013-07-09T12:06:45Z</time>
      </trkpt>
      <trkpt lat="42.769628" lon="-7.258518">
        <ele>771.066</ele>
        <time>2013-07-09T12:06:55Z</time>
      </trkpt>
      <trkpt lat="42.769617" lon="-7.258638">
        <ele>772.029</ele>
        <time>2013-07-09T12:07:05Z</time>
      </trkpt>
      <trkpt lat="42.769620" lon="-7.258705">
        <ele>772.021</ele>
        <time>2013-07-09T12:07:16Z</time>
      </trkpt>
      <trkpt lat="42.769707" lon="-7.258675">
        <ele>773.007</ele>
        <time>2013-07-09T12:07:26Z</time>
      </trkpt>
      <trkpt lat="42.769751" lon="-7.258749">
        <ele>774.030</ele>
        <time>2013-07-09T12:07:36Z</time>
      </trkpt>
      <trkpt lat="42.769797" lon="-7.258870">
        <ele>775.074</ele>
        <time>2013-07-09T12:07:46Z</time>
      </trkpt>
      <trkpt lat="42.769860" lon="-7.258941">
        <ele>775.077</ele>
        <time>2013-07-09T12:07:56Z</time>
      </trkpt>
      <trkpt lat="42.769902" lon="-7.259016">
        <ele>776.031</ele>
        <time>2013-07-09T12:08:07Z</time>
      </trkpt>
      <trkpt lat="42.769960" lon="-7.259112">
        <ele>776.019</ele>
        <time>2013-07-09T12:08:15Z</time>
      </trkpt>
      <trkpt lat="42.770006" lon="-7.259222">
        <ele>776.099</ele>
        <time>2013-07-09T12:08:21Z</time>
      </trkpt>
      <trkpt lat="42.770022" lon="-7.259323">
        <ele>776.079</ele>
        <time>2013-07-09T12:08:31Z</time>
      </trkpt>
      <trkpt lat="42.770022" lon="-7.259459">
        <ele>776.026</ele>
        <time>2013-07-09T12:08:37Z</time>
      </trkpt>
      <trkpt lat="42.770084" lon="-7.259556">
        <ele>776.047</ele>
        <time>2013-07-09T12:08:40Z</time>
      </trkpt>
      <trkpt lat="42.770154" lon="-7.259682">
        <ele>776.011</ele>
        <time>2013-07-09T12:08:45Z</time>
      </trkpt>
      <trkpt lat="42.770108" lon="-7.259675">
        <ele>776.007</ele>
        <time>2013-07-09T12:08:58Z</time>
      </trkpt>
      <trkpt lat="42.770043" lon="-7.259575">
        <ele>776.076</ele>
        <time>2013-07-09T12:09:02Z</time>
      </trkpt>
      <trkpt lat="42.769975" lon="-7.259491">
        <ele>775.030</ele>
        <time>2013-07-09T12:09:10Z</time>
      </trkpt>
      <trkpt lat="42.769941" lon="-7.259420">
        <ele>776.043</ele>
        <time>2013-07-09T12:09:20Z</time>
      </trkpt>
      <trkpt lat="42.769962" lon="-7.259477">
        <ele>776.037</ele>
        <time>2013-07-09T12:09:33Z</time>
      </trkpt>
      <trkpt lat="42.769945" lon="-7.259576">
        <ele>777.035</ele>
        <time>2013-07-09T12:09:43Z</time>
      </trkpt>
      <trkpt lat="42.769887" lon="-7.259664">
        <ele>777.055</ele>
        <time>2013-07-09T12:09:53Z</time>
      </trkpt>
      <trkpt lat="42.769846" lon="-7.259615">
        <ele>777.095</ele>
        <time>2013-07-09T12:10:03Z</time>
      </trkpt>
      <trkpt lat="42.769915" lon="-7.259720">
        <ele>778.081</ele>
        <time>2013-07-09T12:10:09Z</time>
      </trkpt>
      <trkpt lat="42.769995" lon="-7.259783">
        <ele>778.061</ele>
        <time>2013-07-09T12:10:15Z</time>
      </trkpt>
      <trkpt lat="42.770040" lon="-7.259900">
        <ele>778.017</ele>
        <time>2013-07-09T12:10:25Z</time>
      </trkpt>
      <trkpt lat="42.770050" lon="-7.260025">
        <ele>778.007</ele>
        <time>2013-07-09T12:10:31Z</time>
      </trkpt>
      <trkpt lat="42.770098" lon="-7.260132">
        <ele>779.032</ele>
        <time>2013-07-09T12:10:40Z</time>
      </trkpt>
      <trkpt lat="42.770149" lon="-7.260085">
        <ele>779.096</ele>
        <time>2013-07-09T12:10:50Z</time>
      </trkpt>
      <trkpt lat="42.770236" lon="-7.260185">
        <ele>779.089</ele>
        <time>2013-07-09T12:10:55Z</time>
      </trkpt>
      <trkpt lat="42.770289" lon="-7.260286">
        <ele>779.083</ele>
        <time>2013-07-09T12:11:03Z</time>
      </trkpt>
      <trkpt lat="42.770346" lon="-7.260384">
        <ele>779.081</ele>
        <time>2013-07-09T12:11:07Z</time>
      </trkpt>
      <trkpt lat="42.770374" lon="-7.260504">
        <ele>779.021</ele>
        <time>2013-07-09T12:11:12Z</time>
      </trkpt>
      <trkpt lat="42.770428" lon="-7.260614">
        <ele>778.021</ele>
        <time>2013-07-09T12:11:18Z</time>
      </trkpt>
      <trkpt lat="42.770417" lon="-7.260685">
        <ele>776.047</ele>
        <time>2013-07-09T12:11:33Z</time>
      </trkpt>
      <trkpt lat="42.770468" lon="-7.260788">
        <ele>776.029</ele>
        <time>2013-07-09T12:11:43Z</time>
      </trkpt>
      <trkpt lat="42.770479" lon="-7.260718">
        <ele>776.021</ele>
        <time>2013-07-09T12:11:57Z</time>
      </trkpt>
      <trkpt lat="42.770434" lon="-7.260691">
        <ele>777.007</ele>
        <time>2013-07-09T12:12:13Z</time>
      </trkpt>
      <trkpt lat="42.770434" lon="-7.260777">
        <ele>777.068</ele>
        <time>2013-07-09T12:12:23Z</time>
      </trkpt>
      <trkpt lat="42.770397" lon="-7.260890">
        <ele>778.072</ele>
        <time>2013-07-09T12:12:29Z</time>
      </trkpt>
      <trkpt lat="42.770413" lon="-7.261020">
        <ele>779.055</ele>
        <time>2013-07-09T12:12:33Z</time>
      </trkpt>
      <trkpt lat="42.770451" lon="-7.261158">
        <ele>779.039</ele>
        <time>2013-07-09T12:12:38Z</time>
      </trkpt>
      <trkpt lat="42.770489" lon="-7.261272">
        <ele>780.057</ele>
        <time>2013-07-09T12:12:42Z</time>
      </trkpt>
      <trkpt lat="42.770523" lon="-7.261389">
        <ele>781.077</ele>
        <time>2013-07-09T12:12:47Z</time>
      </trkpt>
      <trkpt lat="42.770542" lon="-7.261304">
        <ele>803.057</ele>
        <time>2013-07-09T12:12:57Z</time>
      </trkpt>
      <trkpt lat="42.770541" lon="-7.261367">
        <ele>812.039</ele>
        <time>2013-07-09T12:13:09Z</time>
      </trkpt>
      <trkpt lat="42.770545" lon="-7.261481">
        <ele>821.001</ele>
        <time>2013-07-09T12:13:19Z</time>
      </trkpt>
      <trkpt lat="42.770543" lon="-7.261566">
        <ele>822.021</ele>
        <time>2013-07-09T12:13:29Z</time>
      </trkpt>
      <trkpt lat="42.770515" lon="-7.261658">
        <ele>823.007</ele>
        <time>2013-07-09T12:13:39Z</time>
      </trkpt>
      <trkpt lat="42.770494" lon="-7.261780">
        <ele>824.027</ele>
        <time>2013-07-09T12:13:49Z</time>
      </trkpt>
      <trkpt lat="42.770445" lon="-7.261825">
        <ele>824.031</ele>
        <time>2013-07-09T12:13:59Z</time>
      </trkpt>
      <trkpt lat="42.770457" lon="-7.261885">
        <ele>825.094</ele>
        <time>2013-07-09T12:14:09Z</time>
      </trkpt>
      <trkpt lat="42.770519" lon="-7.261936">
        <ele>825.068</ele>
        <time>2013-07-09T12:14:19Z</time>
      </trkpt>
      <trkpt lat="42.770472" lon="-7.261927">
        <ele>826.056</ele>
        <time>2013-07-09T12:14:32Z</time>
      </trkpt>
      <trkpt lat="42.770414" lon="-7.261863">
        <ele>826.056</ele>
        <time>2013-07-09T12:14:42Z</time>
      </trkpt>
      <trkpt lat="42.770439" lon="-7.261955">
        <ele>827.046</ele>
        <time>2013-07-09T12:14:53Z</time>
      </trkpt>
      <trkpt lat="42.770517" lon="-7.262067">
        <ele>827.063</ele>
        <time>2013-07-09T12:14:56Z</time>
      </trkpt>
      <trkpt lat="42.770461" lon="-7.262119">
        <ele>827.044</ele>
        <time>2013-07-09T12:15:06Z</time>
      </trkpt>
      <trkpt lat="42.770436" lon="-7.262173">
        <ele>827.018</ele>
        <time>2013-07-09T12:15:16Z</time>
      </trkpt>
      <trkpt lat="42.770365" lon="-7.262183">
        <ele>828.007</ele>
        <time>2013-07-09T12:15:26Z</time>
      </trkpt>
      <trkpt lat="42.770279" lon="-7.262199">
        <ele>828.080</ele>
        <time>2013-07-09T12:15:36Z</time>
      </trkpt>
      <trkpt lat="42.770205" lon="-7.262279">
        <ele>829.084</ele>
        <time>2013-07-09T12:15:45Z</time>
      </trkpt>
      <trkpt lat="42.770151" lon="-7.262392">
        <ele>829.057</ele>
        <time>2013-07-09T12:15:55Z</time>
      </trkpt>
      <trkpt lat="42.770095" lon="-7.262492">
        <ele>830.081</ele>
        <time>2013-07-09T12:16:03Z</time>
      </trkpt>
      <trkpt lat="42.770037" lon="-7.262514">
        <ele>831.079</ele>
        <time>2013-07-09T12:16:13Z</time>
      </trkpt>
      <trkpt lat="42.769989" lon="-7.262506">
        <ele>832.079</ele>
        <time>2013-07-09T12:16:30Z</time>
      </trkpt>
      <trkpt lat="42.769908" lon="-7.262585">
        <ele>833.079</ele>
        <time>2013-07-09T12:16:38Z</time>
      </trkpt>
      <trkpt lat="42.769809" lon="-7.262616">
        <ele>833.028</ele>
        <time>2013-07-09T12:16:43Z</time>
      </trkpt>
      <trkpt lat="42.769784" lon="-7.262750">
        <ele>833.089</ele>
        <time>2013-07-09T12:16:50Z</time>
      </trkpt>
      <trkpt lat="42.769728" lon="-7.262825">
        <ele>833.017</ele>
        <time>2013-07-09T12:17:00Z</time>
      </trkpt>
      <trkpt lat="42.769664" lon="-7.262852">
        <ele>833.007</ele>
        <time>2013-07-09T12:17:10Z</time>
      </trkpt>
      <trkpt lat="42.769570" lon="-7.262908">
        <ele>832.056</ele>
        <time>2013-07-09T12:17:16Z</time>
      </trkpt>
      <trkpt lat="42.769537" lon="-7.262973">
        <ele>832.020</ele>
        <time>2013-07-09T12:17:26Z</time>
      </trkpt>
      <trkpt lat="42.769575" lon="-7.263075">
        <ele>831.063</ele>
        <time>2013-07-09T12:17:36Z</time>
      </trkpt>
      <trkpt lat="42.769614" lon="-7.263109">
        <ele>831.017</ele>
        <time>2013-07-09T12:17:46Z</time>
      </trkpt>
      <trkpt lat="42.769710" lon="-7.263082">
        <ele>832.075</ele>
        <time>2013-07-09T12:17:56Z</time>
      </trkpt>
      <trkpt lat="42.769706" lon="-7.263150">
        <ele>833.045</ele>
        <time>2013-07-09T12:18:25Z</time>
      </trkpt>
      <trkpt lat="42.769670" lon="-7.263203">
        <ele>833.035</ele>
        <time>2013-07-09T12:18:35Z</time>
      </trkpt>
      <trkpt lat="42.769748" lon="-7.263268">
        <ele>833.043</ele>
        <time>2013-07-09T12:18:45Z</time>
      </trkpt>
      <trkpt lat="42.769674" lon="-7.263328">
        <ele>834.064</ele>
        <time>2013-07-09T12:18:55Z</time>
      </trkpt>
      <trkpt lat="42.769604" lon="-7.263342">
        <ele>835.010</ele>
        <time>2013-07-09T12:19:05Z</time>
      </trkpt>
      <trkpt lat="42.769533" lon="-7.263422">
        <ele>836.007</ele>
        <time>2013-07-09T12:19:13Z</time>
      </trkpt>
      <trkpt lat="42.769465" lon="-7.263507">
        <ele>837.078</ele>
        <time>2013-07-09T12:19:23Z</time>
      </trkpt>
      <trkpt lat="42.769446" lon="-7.263564">
        <ele>837.052</ele>
        <time>2013-07-09T12:19:37Z</time>
      </trkpt>
      <trkpt lat="42.769407" lon="-7.263597">
        <ele>838.075</ele>
        <time>2013-07-09T12:19:50Z</time>
      </trkpt>
      <trkpt lat="42.769343" lon="-7.263666">
        <ele>838.049</ele>
        <time>2013-07-09T12:20:00Z</time>
      </trkpt>
      <trkpt lat="42.769256" lon="-7.263745">
        <ele>839.037</ele>
        <time>2013-07-09T12:20:10Z</time>
      </trkpt>
      <trkpt lat="42.769172" lon="-7.263822">
        <ele>839.087</ele>
        <time>2013-07-09T12:20:14Z</time>
      </trkpt>
      <trkpt lat="42.769146" lon="-7.263951">
        <ele>839.017</ele>
        <time>2013-07-09T12:20:20Z</time>
      </trkpt>
      <trkpt lat="42.769122" lon="-7.264081">
        <ele>839.083</ele>
        <time>2013-07-09T12:20:29Z</time>
      </trkpt>
      <trkpt lat="42.769113" lon="-7.264211">
        <ele>839.025</ele>
        <time>2013-07-09T12:20:36Z</time>
      </trkpt>
      <trkpt lat="42.769069" lon="-7.264324">
        <ele>839.017</ele>
        <time>2013-07-09T12:20:44Z</time>
      </trkpt>
      <trkpt lat="42.769509" lon="-7.264862">
        <ele>839.007</ele>
        <time>2013-07-09T12:21:18Z</time>
      </trkpt>
      <trkpt lat="42.769616" lon="-7.264922">
        <ele>839.062</ele>
        <time>2013-07-09T12:21:21Z</time>
      </trkpt>
      <trkpt lat="42.769659" lon="-7.265069">
        <ele>839.066</ele>
        <time>2013-07-09T12:21:24Z</time>
      </trkpt>
      <trkpt lat="42.769610" lon="-7.265091">
        <ele>839.049</ele>
        <time>2013-07-09T12:21:34Z</time>
      </trkpt>
      <trkpt lat="42.769535" lon="-7.265096">
        <ele>839.043</ele>
        <time>2013-07-09T12:21:44Z</time>
      </trkpt>
      <trkpt lat="42.769461" lon="-7.264994">
        <ele>839.041</ele>
        <time>2013-07-09T12:21:48Z</time>
      </trkpt>
      <trkpt lat="42.769374" lon="-7.264901">
        <ele>839.031</ele>
        <time>2013-07-09T12:21:56Z</time>
      </trkpt>
      <trkpt lat="42.769316" lon="-7.264789">
        <ele>839.061</ele>
        <time>2013-07-09T12:21:59Z</time>
      </trkpt>
      <trkpt lat="42.769274" lon="-7.264668">
        <ele>840.073</ele>
        <time>2013-07-09T12:22:04Z</time>
      </trkpt>
      <trkpt lat="42.769186" lon="-7.264620">
        <ele>842.085</ele>
        <time>2013-07-09T12:22:12Z</time>
      </trkpt>
      <trkpt lat="42.769125" lon="-7.264586">
        <ele>845.013</ele>
        <time>2013-07-09T12:22:22Z</time>
      </trkpt>
      <trkpt lat="42.769060" lon="-7.264653">
        <ele>848.007</ele>
        <time>2013-07-09T12:22:32Z</time>
      </trkpt>
      <trkpt lat="42.769071" lon="-7.264750">
        <ele>849.051</ele>
        <time>2013-07-09T12:22:42Z</time>
      </trkpt>
      <trkpt lat="42.768977" lon="-7.264778">
        <ele>850.055</ele>
        <time>2013-07-09T12:22:49Z</time>
      </trkpt>
      <trkpt lat="42.768911" lon="-7.264801">
        <ele>853.098</ele>
        <time>2013-07-09T12:22:59Z</time>
      </trkpt>
      <trkpt lat="42.768883" lon="-7.264797">
        <ele>860.072</ele>
        <time>2013-07-09T12:23:39Z</time>
      </trkpt>
      <trkpt lat="42.768857" lon="-7.264851">
        <ele>861.030</ele>
        <time>2013-07-09T12:23:56Z</time>
      </trkpt>
      <trkpt lat="42.768831" lon="-7.264906">
        <ele>866.030</ele>
        <time>2013-07-09T12:24:11Z</time>
      </trkpt>
      <trkpt lat="42.768829" lon="-7.265015">
        <ele>869.090</ele>
        <time>2013-07-09T12:24:23Z</time>
      </trkpt>
      <trkpt lat="42.768817" lon="-7.265140">
        <ele>872.065</ele>
        <time>2013-07-09T12:24:27Z</time>
      </trkpt>
      <trkpt lat="42.768781" lon="-7.265333">
        <ele>875.068</ele>
        <time>2013-07-09T12:24:36Z</time>
      </trkpt>
      <trkpt lat="42.768744" lon="-7.265419">
        <ele>877.014</ele>
        <time>2013-07-09T12:24:46Z</time>
      </trkpt>
      <trkpt lat="42.768764" lon="-7.265353">
        <ele>876.007</ele>
        <time>2013-07-09T12:25:04Z</time>
      </trkpt>
      <trkpt lat="42.768719" lon="-7.265328">
        <ele>875.050</ele>
        <time>2013-07-09T12:25:31Z</time>
      </trkpt>
      <trkpt lat="42.768712" lon="-7.265390">
        <ele>875.064</ele>
        <time>2013-07-09T12:25:48Z</time>
      </trkpt>
      <trkpt lat="42.768742" lon="-7.265378">
        <ele>874.077</ele>
        <time>2013-07-09T12:26:28Z</time>
      </trkpt>
      <trkpt lat="42.768707" lon="-7.265338">
        <ele>875.011</ele>
        <time>2013-07-09T12:26:38Z</time>
      </trkpt>
      <trkpt lat="42.768659" lon="-7.265336">
        <ele>875.059</ele>
        <time>2013-07-09T12:26:49Z</time>
      </trkpt>
      <trkpt lat="42.768659" lon="-7.265397">
        <ele>874.039</ele>
        <time>2013-07-09T12:27:00Z</time>
      </trkpt>
      <trkpt lat="42.768701" lon="-7.265426">
        <ele>874.059</ele>
        <time>2013-07-09T12:27:14Z</time>
      </trkpt>
      <trkpt lat="42.768749" lon="-7.265417">
        <ele>873.014</ele>
        <time>2013-07-09T12:27:27Z</time>
      </trkpt>
      <trkpt lat="42.768714" lon="-7.265466">
        <ele>875.054</ele>
        <time>2013-07-09T12:27:43Z</time>
      </trkpt>
      <trkpt lat="42.768776" lon="-7.265481">
        <ele>875.009</ele>
        <time>2013-07-09T12:27:53Z</time>
      </trkpt>
      <trkpt lat="42.768772" lon="-7.265414">
        <ele>874.007</ele>
        <time>2013-07-09T12:28:08Z</time>
      </trkpt>
      <trkpt lat="42.768742" lon="-7.265362">
        <ele>874.045</ele>
        <time>2013-07-09T12:28:23Z</time>
      </trkpt>
      <trkpt lat="42.768695" lon="-7.265348">
        <ele>873.019</ele>
        <time>2013-07-09T12:28:39Z</time>
      </trkpt>
      <trkpt lat="42.768735" lon="-7.265413">
        <ele>873.042</ele>
        <time>2013-07-09T12:28:49Z</time>
      </trkpt>
      <trkpt lat="42.768779" lon="-7.265432">
        <ele>873.026</ele>
        <time>2013-07-09T12:29:09Z</time>
      </trkpt>
      <trkpt lat="42.768766" lon="-7.265497">
        <ele>873.084</ele>
        <time>2013-07-09T12:29:23Z</time>
      </trkpt>
      <trkpt lat="42.768730" lon="-7.265459">
        <ele>874.014</ele>
        <time>2013-07-09T12:29:34Z</time>
      </trkpt>
      <trkpt lat="42.768686" lon="-7.265472">
        <ele>875.024</ele>
        <time>2013-07-09T12:29:48Z</time>
      </trkpt>
      <trkpt lat="42.768636" lon="-7.265455">
        <ele>874.045</ele>
        <time>2013-07-09T12:30:05Z</time>
      </trkpt>
      <trkpt lat="42.768576" lon="-7.265464">
        <ele>874.047</ele>
        <time>2013-07-09T12:30:15Z</time>
      </trkpt>
      <trkpt lat="42.768620" lon="-7.265495">
        <ele>877.011</ele>
        <time>2013-07-09T12:30:27Z</time>
      </trkpt>
      <trkpt lat="42.768671" lon="-7.265498">
        <ele>879.007</ele>
        <time>2013-07-09T12:30:40Z</time>
      </trkpt>
      <trkpt lat="42.768719" lon="-7.265482">
        <ele>879.018</ele>
        <time>2013-07-09T12:30:50Z</time>
      </trkpt>
      <trkpt lat="42.768692" lon="-7.265433">
        <ele>879.082</ele>
        <time>2013-07-09T12:31:09Z</time>
      </trkpt>
      <trkpt lat="42.768656" lon="-7.265395">
        <ele>879.095</ele>
        <time>2013-07-09T12:31:19Z</time>
      </trkpt>
      <trkpt lat="42.768609" lon="-7.265378">
        <ele>877.019</ele>
        <time>2013-07-09T12:31:51Z</time>
      </trkpt>
      <trkpt lat="42.768620" lon="-7.265441">
        <ele>876.067</ele>
        <time>2013-07-09T12:32:13Z</time>
      </trkpt>
      <trkpt lat="42.768650" lon="-7.265390">
        <ele>876.027</ele>
        <time>2013-07-09T12:32:25Z</time>
      </trkpt>
      <trkpt lat="42.768743" lon="-7.265370">
        <ele>877.067</ele>
        <time>2013-07-09T12:32:33Z</time>
      </trkpt>
      <trkpt lat="42.768805" lon="-7.265374">
        <ele>878.013</ele>
        <time>2013-07-09T12:32:43Z</time>
      </trkpt>
      <trkpt lat="42.768775" lon="-7.265420">
        <ele>878.043</ele>
        <time>2013-07-09T12:32:53Z</time>
      </trkpt>
      <trkpt lat="42.768714" lon="-7.265464">
        <ele>878.007</ele>
        <time>2013-07-09T12:33:03Z</time>
      </trkpt>
      <trkpt lat="42.768670" lon="-7.265506">
        <ele>878.007</ele>
        <time>2013-07-09T12:33:13Z</time>
      </trkpt>
      <trkpt lat="42.768711" lon="-7.265480">
        <ele>877.055</ele>
        <time>2013-07-09T12:33:42Z</time>
      </trkpt>
      <trkpt lat="42.768719" lon="-7.265419">
        <ele>877.029</ele>
        <time>2013-07-09T12:33:52Z</time>
      </trkpt>
      <trkpt lat="42.768764" lon="-7.265390">
        <ele>878.042</ele>
        <time>2013-07-09T12:34:17Z</time>
      </trkpt>
      <trkpt lat="42.768748" lon="-7.265349">
        <ele>877.026</ele>
        <time>2013-07-09T12:34:57Z</time>
      </trkpt>
      <trkpt lat="42.768701" lon="-7.265380">
        <ele>877.064</ele>
        <time>2013-07-09T12:35:07Z</time>
      </trkpt>
      <trkpt lat="42.768676" lon="-7.265450">
        <ele>877.074</ele>
        <time>2013-07-09T12:35:17Z</time>
      </trkpt>
      <trkpt lat="42.768699" lon="-7.265511">
        <ele>878.034</ele>
        <time>2013-07-09T12:35:27Z</time>
      </trkpt>
      <trkpt lat="42.768745" lon="-7.265483">
        <ele>877.034</ele>
        <time>2013-07-09T12:35:48Z</time>
      </trkpt>
      <trkpt lat="42.768770" lon="-7.265426">
        <ele>876.055</ele>
        <time>2013-07-09T12:36:02Z</time>
      </trkpt>
      <trkpt lat="42.768832" lon="-7.265366">
        <ele>876.010</ele>
        <time>2013-07-09T12:36:12Z</time>
      </trkpt>
      <trkpt lat="42.768898" lon="-7.265275">
        <ele>876.007</ele>
        <time>2013-07-09T12:36:21Z</time>
      </trkpt>
      <trkpt lat="42.768903" lon="-7.265140">
        <ele>875.017</ele>
        <time>2013-07-09T12:36:30Z</time>
      </trkpt>
      <trkpt lat="42.768826" lon="-7.265159">
        <ele>875.081</ele>
        <time>2013-07-09T12:36:40Z</time>
      </trkpt>
      <trkpt lat="42.768864" lon="-7.265115">
        <ele>874.034</ele>
        <time>2013-07-09T12:36:51Z</time>
      </trkpt>
      <trkpt lat="42.768831" lon="-7.265210">
        <ele>872.068</ele>
        <time>2013-07-09T12:37:03Z</time>
      </trkpt>
      <trkpt lat="42.768790" lon="-7.265251">
        <ele>872.026</ele>
        <time>2013-07-09T12:37:13Z</time>
      </trkpt>
      <trkpt lat="42.768730" lon="-7.265334">
        <ele>872.076</ele>
        <time>2013-07-09T12:37:23Z</time>
      </trkpt>
      <trkpt lat="42.768700" lon="-7.265384">
        <ele>872.086</ele>
        <time>2013-07-09T12:37:33Z</time>
      </trkpt>
      <trkpt lat="42.768662" lon="-7.265479">
        <ele>872.049</ele>
        <time>2013-07-09T12:37:43Z</time>
      </trkpt>
      <trkpt lat="42.768708" lon="-7.266154">
        <ele>869.002</ele>
        <time>2013-07-09T12:41:12Z</time>
      </trkpt>
      <trkpt lat="42.768676" lon="-7.266278">
        <ele>870.022</ele>
        <time>2013-07-09T12:41:20Z</time>
      </trkpt>
      <trkpt lat="42.768643" lon="-7.266384">
        <ele>871.007</ele>
        <time>2013-07-09T12:41:30Z</time>
      </trkpt>
      <trkpt lat="42.768566" lon="-7.266422">
        <ele>870.018</ele>
        <time>2013-07-09T12:41:40Z</time>
      </trkpt>
      <trkpt lat="42.768516" lon="-7.266417">
        <ele>870.082</ele>
        <time>2013-07-09T12:41:50Z</time>
      </trkpt>
      <trkpt lat="42.768491" lon="-7.266479">
        <ele>870.055</ele>
        <time>2013-07-09T12:42:03Z</time>
      </trkpt>
      <trkpt lat="42.768495" lon="-7.266605">
        <ele>870.039</ele>
        <time>2013-07-09T12:42:10Z</time>
      </trkpt>
      <trkpt lat="42.768490" lon="-7.266733">
        <ele>871.027</ele>
        <time>2013-07-09T12:42:17Z</time>
      </trkpt>
      <trkpt lat="42.768461" lon="-7.266849">
        <ele>871.067</ele>
        <time>2013-07-09T12:42:27Z</time>
      </trkpt>
      <trkpt lat="42.768444" lon="-7.266932">
        <ele>871.097</ele>
        <time>2013-07-09T12:42:37Z</time>
      </trkpt>
      <trkpt lat="42.768418" lon="-7.267065">
        <ele>871.095</ele>
        <time>2013-07-09T12:42:46Z</time>
      </trkpt>
      <trkpt lat="42.768388" lon="-7.267150">
        <ele>871.049</ele>
        <time>2013-07-09T12:42:56Z</time>
      </trkpt>
      <trkpt lat="42.768397" lon="-7.267286">
        <ele>871.023</ele>
        <time>2013-07-09T12:42:59Z</time>
      </trkpt>
      <trkpt lat="42.768401" lon="-7.267415">
        <ele>871.007</ele>
        <time>2013-07-09T12:43:03Z</time>
      </trkpt>
      <trkpt lat="42.768474" lon="-7.267440">
        <ele>871.023</ele>
        <time>2013-07-09T12:43:13Z</time>
      </trkpt>
      <trkpt lat="42.768538" lon="-7.267535">
        <ele>871.077</ele>
        <time>2013-07-09T12:43:19Z</time>
      </trkpt>
      <trkpt lat="42.768635" lon="-7.267551">
        <ele>872.010</ele>
        <time>2013-07-09T12:43:26Z</time>
      </trkpt>
      <trkpt lat="42.768666" lon="-7.267679">
        <ele>872.044</ele>
        <time>2013-07-09T12:43:35Z</time>
      </trkpt>
      <trkpt lat="42.768647" lon="-7.267810">
        <ele>872.082</ele>
        <time>2013-07-09T12:43:40Z</time>
      </trkpt>
      <trkpt lat="42.768605" lon="-7.267933">
        <ele>873.012</ele>
        <time>2013-07-09T12:43:48Z</time>
      </trkpt>
      <trkpt lat="42.768565" lon="-7.268067">
        <ele>874.092</ele>
        <time>2013-07-09T12:43:54Z</time>
      </trkpt>
      <trkpt lat="42.768529" lon="-7.268198">
        <ele>874.011</ele>
        <time>2013-07-09T12:44:00Z</time>
      </trkpt>
      <trkpt lat="42.768471" lon="-7.268299">
        <ele>875.021</ele>
        <time>2013-07-09T12:44:08Z</time>
      </trkpt>
      <trkpt lat="42.768386" lon="-7.268283">
        <ele>875.003</ele>
        <time>2013-07-09T12:44:18Z</time>
      </trkpt>
      <trkpt lat="42.768328" lon="-7.268269">
        <ele>875.007</ele>
        <time>2013-07-09T12:44:28Z</time>
      </trkpt>
      <trkpt lat="42.768292" lon="-7.268309">
        <ele>877.095</ele>
        <time>2013-07-09T12:44:45Z</time>
      </trkpt>
      <trkpt lat="42.768265" lon="-7.268447">
        <ele>877.049</ele>
        <time>2013-07-09T12:44:50Z</time>
      </trkpt>
      <trkpt lat="42.768264" lon="-7.268575">
        <ele>878.092</ele>
        <time>2013-07-09T12:44:56Z</time>
      </trkpt>
      <trkpt lat="42.768242" lon="-7.268694">
        <ele>878.036</ele>
        <time>2013-07-09T12:45:02Z</time>
      </trkpt>
      <trkpt lat="42.768230" lon="-7.268832">
        <ele>878.084</ele>
        <time>2013-07-09T12:45:07Z</time>
      </trkpt>
      <trkpt lat="42.768196" lon="-7.268946">
        <ele>879.094</ele>
        <time>2013-07-09T12:45:17Z</time>
      </trkpt>
      <trkpt lat="42.768153" lon="-7.268961">
        <ele>881.024</ele>
        <time>2013-07-09T12:45:29Z</time>
      </trkpt>
      <trkpt lat="42.768117" lon="-7.269060">
        <ele>883.055</ele>
        <time>2013-07-09T12:45:39Z</time>
      </trkpt>
      <trkpt lat="42.768047" lon="-7.269151">
        <ele>883.007</ele>
        <time>2013-07-09T12:45:47Z</time>
      </trkpt>
      <trkpt lat="42.767994" lon="-7.269270">
        <ele>884.017</ele>
        <time>2013-07-09T12:45:53Z</time>
      </trkpt>
      <trkpt lat="42.767968" lon="-7.269395">
        <ele>885.007</ele>
        <time>2013-07-09T12:45:59Z</time>
      </trkpt>
      <trkpt lat="42.767945" lon="-7.269531">
        <ele>885.019</ele>
        <time>2013-07-09T12:46:04Z</time>
      </trkpt>
      <trkpt lat="42.767881" lon="-7.269619">
        <ele>886.043</ele>
        <time>2013-07-09T12:46:14Z</time>
      </trkpt>
      <trkpt lat="42.767838" lon="-7.269640">
        <ele>887.076</ele>
        <time>2013-07-09T12:46:30Z</time>
      </trkpt>
      <trkpt lat="42.767835" lon="-7.269765">
        <ele>887.020</ele>
        <time>2013-07-09T12:46:38Z</time>
      </trkpt>
      <trkpt lat="42.767825" lon="-7.269892">
        <ele>887.048</ele>
        <time>2013-07-09T12:46:47Z</time>
      </trkpt>
      <trkpt lat="42.767801" lon="-7.270017">
        <ele>887.018</ele>
        <time>2013-07-09T12:46:56Z</time>
      </trkpt>
      <trkpt lat="42.767718" lon="-7.270078">
        <ele>888.018</ele>
        <time>2013-07-09T12:47:02Z</time>
      </trkpt>
      <trkpt lat="42.767644" lon="-7.270168">
        <ele>890.066</ele>
        <time>2013-07-09T12:47:09Z</time>
      </trkpt>
      <trkpt lat="42.767663" lon="-7.270315">
        <ele>893.029</ele>
        <time>2013-07-09T12:47:14Z</time>
      </trkpt>
      <trkpt lat="42.767613" lon="-7.270419">
        <ele>895.021</ele>
        <time>2013-07-09T12:47:22Z</time>
      </trkpt>
      <trkpt lat="42.767609" lon="-7.270596">
        <ele>897.007</ele>
        <time>2013-07-09T12:48:18Z</time>
      </trkpt>
      <trkpt lat="42.767621" lon="-7.270714">
        <ele>898.010</ele>
        <time>2013-07-09T12:48:28Z</time>
      </trkpt>
      <trkpt lat="42.767653" lon="-7.270758">
        <ele>899.054</ele>
        <time>2013-07-09T12:48:44Z</time>
      </trkpt>
      <trkpt lat="42.767635" lon="-7.270754">
        <ele>900.047</ele>
        <time>2013-07-09T12:49:24Z</time>
      </trkpt>
      <trkpt lat="42.767589" lon="-7.270744">
        <ele>901.091</ele>
        <time>2013-07-09T12:49:51Z</time>
      </trkpt>
      <trkpt lat="42.767634" lon="-7.270752">
        <ele>900.099</ele>
        <time>2013-07-09T12:50:08Z</time>
      </trkpt>
      <trkpt lat="42.767640" lon="-7.270720">
        <ele>900.049</ele>
        <time>2013-07-09T12:50:48Z</time>
      </trkpt>
      <trkpt lat="42.767666" lon="-7.270729">
        <ele>901.039</ele>
        <time>2013-07-09T12:51:28Z</time>
      </trkpt>
      <trkpt lat="42.767629" lon="-7.270678">
        <ele>900.012</ele>
        <time>2013-07-09T12:52:02Z</time>
      </trkpt>
      <trkpt lat="42.767614" lon="-7.270572">
        <ele>900.032</ele>
        <time>2013-07-09T12:52:12Z</time>
      </trkpt>
      <trkpt lat="42.767615" lon="-7.270504">
        <ele>901.005</ele>
        <time>2013-07-09T12:52:24Z</time>
      </trkpt>
      <trkpt lat="42.767582" lon="-7.270463">
        <ele>901.007</ele>
        <time>2013-07-09T12:52:41Z</time>
      </trkpt>
      <trkpt lat="42.767587" lon="-7.270399">
        <ele>901.075</ele>
        <time>2013-07-09T12:52:57Z</time>
      </trkpt>
      <trkpt lat="42.767516" lon="-7.270312">
        <ele>902.019</ele>
        <time>2013-07-09T12:53:06Z</time>
      </trkpt>
      <trkpt lat="42.767433" lon="-7.270243">
        <ele>902.072</ele>
        <time>2013-07-09T12:53:15Z</time>
      </trkpt>
      <trkpt lat="42.767365" lon="-7.270149">
        <ele>901.056</ele>
        <time>2013-07-09T12:53:25Z</time>
      </trkpt>
      <trkpt lat="42.767289" lon="-7.270094">
        <ele>901.074</ele>
        <time>2013-07-09T12:53:35Z</time>
      </trkpt>
      <trkpt lat="42.767253" lon="-7.270081">
        <ele>903.064</ele>
        <time>2013-07-09T12:54:15Z</time>
      </trkpt>
      <trkpt lat="42.767228" lon="-7.270135">
        <ele>904.014</ele>
        <time>2013-07-09T12:54:30Z</time>
      </trkpt>
      <trkpt lat="42.767136" lon="-7.270094">
        <ele>903.065</ele>
        <time>2013-07-09T12:54:38Z</time>
      </trkpt>
      <trkpt lat="42.767043" lon="-7.270058">
        <ele>903.068</ele>
        <time>2013-07-09T12:54:47Z</time>
      </trkpt>
      <trkpt lat="42.766952" lon="-7.270034">
        <ele>903.014</ele>
        <time>2013-07-09T12:54:56Z</time>
      </trkpt>
      <trkpt lat="42.766907" lon="-7.270021">
        <ele>904.007</ele>
        <time>2013-07-09T12:55:06Z</time>
      </trkpt>
      <trkpt lat="42.766832" lon="-7.270024">
        <ele>904.020</ele>
        <time>2013-07-09T12:55:16Z</time>
      </trkpt>
      <trkpt lat="42.766783" lon="-7.269976">
        <ele>903.044</ele>
        <time>2013-07-09T12:55:31Z</time>
      </trkpt>
      <trkpt lat="42.766708" lon="-7.269937">
        <ele>903.047</ele>
        <time>2013-07-09T12:55:41Z</time>
      </trkpt>
      <trkpt lat="42.766609" lon="-7.269907">
        <ele>903.051</ele>
        <time>2013-07-09T12:55:50Z</time>
      </trkpt>
      <trkpt lat="42.766509" lon="-7.269887">
        <ele>903.019</ele>
        <time>2013-07-09T12:55:57Z</time>
      </trkpt>
      <trkpt lat="42.766415" lon="-7.269861">
        <ele>903.079</ele>
        <time>2013-07-09T12:56:05Z</time>
      </trkpt>
      <trkpt lat="42.766319" lon="-7.269838">
        <ele>903.099</ele>
        <time>2013-07-09T12:56:15Z</time>
      </trkpt>
      <trkpt lat="42.766231" lon="-7.269821">
        <ele>903.013</ele>
        <time>2013-07-09T12:56:25Z</time>
      </trkpt>
      <trkpt lat="42.766155" lon="-7.269833">
        <ele>903.043</ele>
        <time>2013-07-09T12:56:35Z</time>
      </trkpt>
      <trkpt lat="42.766103" lon="-7.269940">
        <ele>903.007</ele>
        <time>2013-07-09T12:56:44Z</time>
      </trkpt>
      <trkpt lat="42.766047" lon="-7.269955">
        <ele>903.007</ele>
        <time>2013-07-09T12:56:54Z</time>
      </trkpt>
      <trkpt lat="42.765967" lon="-7.270006">
        <ele>903.055</ele>
        <time>2013-07-09T12:57:04Z</time>
      </trkpt>
      <trkpt lat="42.765897" lon="-7.270089">
        <ele>903.079</ele>
        <time>2013-07-09T12:57:11Z</time>
      </trkpt>
      <trkpt lat="42.765850" lon="-7.270203">
        <ele>902.012</ele>
        <time>2013-07-09T12:57:19Z</time>
      </trkpt>
      <trkpt lat="42.765794" lon="-7.270326">
        <ele>901.056</ele>
        <time>2013-07-09T12:57:27Z</time>
      </trkpt>
      <trkpt lat="42.765782" lon="-7.270423">
        <ele>899.014</ele>
        <time>2013-07-09T12:57:37Z</time>
      </trkpt>
      <trkpt lat="42.765727" lon="-7.270524">
        <ele>898.094</ele>
        <time>2013-07-09T12:57:47Z</time>
      </trkpt>
      <trkpt lat="42.765748" lon="-7.270604">
        <ele>896.094</ele>
        <time>2013-07-09T12:57:57Z</time>
      </trkpt>
      <trkpt lat="42.765707" lon="-7.270726">
        <ele>896.091</ele>
        <time>2013-07-09T12:58:06Z</time>
      </trkpt>
      <trkpt lat="42.765690" lon="-7.270857">
        <ele>895.081</ele>
        <time>2013-07-09T12:58:13Z</time>
      </trkpt>
      <trkpt lat="42.765654" lon="-7.270972">
        <ele>895.019</ele>
        <time>2013-07-09T12:58:23Z</time>
      </trkpt>
      <trkpt lat="42.765701" lon="-7.270951">
        <ele>894.007</ele>
        <time>2013-07-09T12:58:39Z</time>
      </trkpt>
      <trkpt lat="42.765663" lon="-7.271001">
        <ele>894.033</ele>
        <time>2013-07-09T12:58:49Z</time>
      </trkpt>
      <trkpt lat="42.765680" lon="-7.271134">
        <ele>893.097</ele>
        <time>2013-07-09T12:58:56Z</time>
      </trkpt>
      <trkpt lat="42.765668" lon="-7.271200">
        <ele>893.050</ele>
        <time>2013-07-09T12:59:06Z</time>
      </trkpt>
      <trkpt lat="42.765702" lon="-7.271251">
        <ele>893.034</ele>
        <time>2013-07-09T12:59:25Z</time>
      </trkpt>
      <trkpt lat="42.765747" lon="-7.271361">
        <ele>892.062</ele>
        <time>2013-07-09T12:59:35Z</time>
      </trkpt>
      <trkpt lat="42.765798" lon="-7.271345">
        <ele>892.012</ele>
        <time>2013-07-09T12:59:45Z</time>
      </trkpt>
      <trkpt lat="42.765765" lon="-7.271299">
        <ele>892.022</ele>
        <time>2013-07-09T13:00:01Z</time>
      </trkpt>
      <trkpt lat="42.765739" lon="-7.271349">
        <ele>891.089</ele>
        <time>2013-07-09T13:00:20Z</time>
      </trkpt>
      <trkpt lat="42.765749" lon="-7.271420">
        <ele>891.006</ele>
        <time>2013-07-09T13:00:50Z</time>
      </trkpt>
      <trkpt lat="42.765787" lon="-7.271463">
        <ele>890.026</ele>
        <time>2013-07-09T13:01:12Z</time>
      </trkpt>
      <trkpt lat="42.765789" lon="-7.271457">
        <ele>890.007</ele>
        <time>2013-07-09T13:01:52Z</time>
      </trkpt>
      <trkpt lat="42.766393" lon="-7.271894">
        <ele>902.092</ele>
        <time>2013-07-09T13:12:37Z</time>
      </trkpt>
      <trkpt lat="42.766455" lon="-7.271951">
        <ele>902.046</ele>
        <time>2013-07-09T13:12:47Z</time>
      </trkpt>
      <trkpt lat="42.766453" lon="-7.272045">
        <ele>903.029</ele>
        <time>2013-07-09T13:12:57Z</time>
      </trkpt>
      <trkpt lat="42.766435" lon="-7.272126">
        <ele>903.043</ele>
        <time>2013-07-09T13:13:07Z</time>
      </trkpt>
      <trkpt lat="42.766393" lon="-7.272198">
        <ele>903.091</ele>
        <time>2013-07-09T13:13:17Z</time>
      </trkpt>
      <trkpt lat="42.766436" lon="-7.272150">
        <ele>903.021</ele>
        <time>2013-07-09T13:13:27Z</time>
      </trkpt>
      <trkpt lat="42.766521" lon="-7.272119">
        <ele>902.061</ele>
        <time>2013-07-09T13:13:37Z</time>
      </trkpt>
      <trkpt lat="42.766613" lon="-7.272066">
        <ele>902.013</ele>
        <time>2013-07-09T13:13:45Z</time>
      </trkpt>
      <trkpt lat="42.766686" lon="-7.272011">
        <ele>903.043</ele>
        <time>2013-07-09T13:13:55Z</time>
      </trkpt>
      <trkpt lat="42.766765" lon="-7.271932">
        <ele>903.007</ele>
        <time>2013-07-09T13:14:02Z</time>
      </trkpt>
      <trkpt lat="42.766842" lon="-7.271835">
        <ele>903.007</ele>
        <time>2013-07-09T13:14:09Z</time>
      </trkpt>
      <trkpt lat="42.766920" lon="-7.271745">
        <ele>903.055</ele>
        <time>2013-07-09T13:14:15Z</time>
      </trkpt>
      <trkpt lat="42.766997" lon="-7.271678">
        <ele>903.089</ele>
        <time>2013-07-09T13:14:23Z</time>
      </trkpt>
      <trkpt lat="42.767055" lon="-7.271661">
        <ele>904.072</ele>
        <time>2013-07-09T13:14:33Z</time>
      </trkpt>
      <trkpt lat="42.767108" lon="-7.271580">
        <ele>905.076</ele>
        <time>2013-07-09T13:14:43Z</time>
      </trkpt>
      <trkpt lat="42.767184" lon="-7.271506">
        <ele>905.034</ele>
        <time>2013-07-09T13:14:51Z</time>
      </trkpt>
      <trkpt lat="42.767262" lon="-7.271433">
        <ele>905.064</ele>
        <time>2013-07-09T13:14:59Z</time>
      </trkpt>
      <trkpt lat="42.767328" lon="-7.271348">
        <ele>906.074</ele>
        <time>2013-07-09T13:15:07Z</time>
      </trkpt>
      <trkpt lat="42.767406" lon="-7.271278">
        <ele>906.041</ele>
        <time>2013-07-09T13:15:17Z</time>
      </trkpt>
      <trkpt lat="42.767468" lon="-7.271220">
        <ele>906.081</ele>
        <time>2013-07-09T13:15:27Z</time>
      </trkpt>
      <trkpt lat="42.767541" lon="-7.271144">
        <ele>906.009</ele>
        <time>2013-07-09T13:15:35Z</time>
      </trkpt>
      <trkpt lat="42.767592" lon="-7.271028">
        <ele>907.007</ele>
        <time>2013-07-09T13:15:44Z</time>
      </trkpt>
      <trkpt lat="42.767619" lon="-7.270885">
        <ele>907.048</ele>
        <time>2013-07-09T13:15:52Z</time>
      </trkpt>
      <trkpt lat="42.767647" lon="-7.270767">
        <ele>906.082</ele>
        <time>2013-07-09T13:15:56Z</time>
      </trkpt>
      <trkpt lat="42.767618" lon="-7.270719">
        <ele>906.045</ele>
        <time>2013-07-09T13:16:14Z</time>
      </trkpt>
      <trkpt lat="42.767618" lon="-7.270734">
        <ele>906.059</ele>
        <time>2013-07-09T13:16:54Z</time>
      </trkpt>
      <trkpt lat="42.767615" lon="-7.270757">
        <ele>907.057</ele>
        <time>2013-07-09T13:17:34Z</time>
      </trkpt>
      <trkpt lat="42.767605" lon="-7.270768">
        <ele>909.047</ele>
        <time>2013-07-09T13:18:14Z</time>
      </trkpt>
      <trkpt lat="42.767602" lon="-7.270767">
        <ele>910.087</ele>
        <time>2013-07-09T13:18:54Z</time>
      </trkpt>
      <trkpt lat="42.767609" lon="-7.270782">
        <ele>909.083</ele>
        <time>2013-07-09T13:19:34Z</time>
      </trkpt>
      <trkpt lat="42.767607" lon="-7.270798">
        <ele>909.025</ele>
        <time>2013-07-09T13:20:14Z</time>
      </trkpt>
      <trkpt lat="42.767630" lon="-7.270785">
        <ele>910.017</ele>
        <time>2013-07-09T13:20:54Z</time>
      </trkpt>
      <trkpt lat="42.767656" lon="-7.270780">
        <ele>907.007</ele>
        <time>2013-07-09T13:21:34Z</time>
      </trkpt>
      <trkpt lat="42.767606" lon="-7.270810">
        <ele>907.032</ele>
        <time>2013-07-09T13:21:59Z</time>
      </trkpt>
      <trkpt lat="42.767551" lon="-7.270918">
        <ele>907.036</ele>
        <time>2013-07-09T13:22:08Z</time>
      </trkpt>
      <trkpt lat="42.767555" lon="-7.271038">
        <ele>907.029</ele>
        <time>2013-07-09T13:22:18Z</time>
      </trkpt>
      <trkpt lat="42.767453" lon="-7.271062">
        <ele>907.093</ele>
        <time>2013-07-09T13:22:25Z</time>
      </trkpt>
      <trkpt lat="42.767364" lon="-7.271124">
        <ele>907.011</ele>
        <time>2013-07-09T13:22:31Z</time>
      </trkpt>
      <trkpt lat="42.767280" lon="-7.271183">
        <ele>907.091</ele>
        <time>2013-07-09T13:22:39Z</time>
      </trkpt>
      <trkpt lat="42.767203" lon="-7.271255">
        <ele>906.041</ele>
        <time>2013-07-09T13:22:46Z</time>
      </trkpt>
      <trkpt lat="42.767142" lon="-7.271319">
        <ele>906.012</ele>
        <time>2013-07-09T13:22:56Z</time>
      </trkpt>
      <trkpt lat="42.767057" lon="-7.271387">
        <ele>906.032</ele>
        <time>2013-07-09T13:23:03Z</time>
      </trkpt>
      <trkpt lat="42.767005" lon="-7.271495">
        <ele>906.005</ele>
        <time>2013-07-09T13:23:09Z</time>
      </trkpt>
      <trkpt lat="42.766979" lon="-7.271614">
        <ele>907.007</ele>
        <time>2013-07-09T13:23:16Z</time>
      </trkpt>
      <trkpt lat="42.766919" lon="-7.271727">
        <ele>907.075</ele>
        <time>2013-07-09T13:23:22Z</time>
      </trkpt>
      <trkpt lat="42.766851" lon="-7.271812">
        <ele>906.089</ele>
        <time>2013-07-09T13:23:27Z</time>
      </trkpt>
      <trkpt lat="42.766771" lon="-7.271867">
        <ele>907.092</ele>
        <time>2013-07-09T13:23:37Z</time>
      </trkpt>
      <trkpt lat="42.766681" lon="-7.271893">
        <ele>908.066</ele>
        <time>2013-07-09T13:23:47Z</time>
      </trkpt>
      <trkpt lat="42.766637" lon="-7.272011">
        <ele>908.074</ele>
        <time>2013-07-09T13:23:55Z</time>
      </trkpt>
      <trkpt lat="42.766565" lon="-7.272102">
        <ele>908.094</ele>
        <time>2013-07-09T13:24:03Z</time>
      </trkpt>
      <trkpt lat="42.766487" lon="-7.272164">
        <ele>909.054</ele>
        <time>2013-07-09T13:24:10Z</time>
      </trkpt>
      <trkpt lat="42.766446" lon="-7.272275">
        <ele>908.015</ele>
        <time>2013-07-09T13:24:16Z</time>
      </trkpt>
      <trkpt lat="42.766366" lon="-7.272354">
        <ele>909.065</ele>
        <time>2013-07-09T13:24:22Z</time>
      </trkpt>
      <trkpt lat="42.766279" lon="-7.272447">
        <ele>909.011</ele>
        <time>2013-07-09T13:24:28Z</time>
      </trkpt>
      <trkpt lat="42.766215" lon="-7.272551">
        <ele>909.007</ele>
        <time>2013-07-09T13:24:35Z</time>
      </trkpt>
      <trkpt lat="42.766208" lon="-7.272684">
        <ele>910.075</ele>
        <time>2013-07-09T13:24:43Z</time>
      </trkpt>
      <trkpt lat="42.766162" lon="-7.272796">
        <ele>910.079</ele>
        <time>2013-07-09T13:24:51Z</time>
      </trkpt>
      <trkpt lat="42.766128" lon="-7.272916">
        <ele>912.062</ele>
        <time>2013-07-09T13:25:01Z</time>
      </trkpt>
      <trkpt lat="42.766085" lon="-7.273039">
        <ele>912.066</ele>
        <time>2013-07-09T13:25:10Z</time>
      </trkpt>
      <trkpt lat="42.766016" lon="-7.273133">
        <ele>913.044</ele>
        <time>2013-07-09T13:25:18Z</time>
      </trkpt>
      <trkpt lat="42.765982" lon="-7.273250">
        <ele>912.084</ele>
        <time>2013-07-09T13:25:28Z</time>
      </trkpt>
      <trkpt lat="42.765951" lon="-7.273351">
        <ele>913.014</ele>
        <time>2013-07-09T13:25:38Z</time>
      </trkpt>
      <trkpt lat="42.765954" lon="-7.273479">
        <ele>915.047</ele>
        <time>2013-07-09T13:25:46Z</time>
      </trkpt>
      <trkpt lat="42.765915" lon="-7.273605">
        <ele>915.029</ele>
        <time>2013-07-09T13:25:51Z</time>
      </trkpt>
      <trkpt lat="42.765857" lon="-7.273707">
        <ele>916.021</ele>
        <time>2013-07-09T13:25:56Z</time>
      </trkpt>
      <trkpt lat="42.765817" lon="-7.273821">
        <ele>916.007</ele>
        <time>2013-07-09T13:26:02Z</time>
      </trkpt>
      <trkpt lat="42.765770" lon="-7.273926">
        <ele>917.038</ele>
        <time>2013-07-09T13:26:07Z</time>
      </trkpt>
      <trkpt lat="42.765728" lon="-7.274048">
        <ele>917.022</ele>
        <time>2013-07-09T13:26:14Z</time>
      </trkpt>
      <trkpt lat="42.765681" lon="-7.274165">
        <ele>918.035</ele>
        <time>2013-07-09T13:26:23Z</time>
      </trkpt>
      <trkpt lat="42.765645" lon="-7.274297">
        <ele>919.059</ele>
        <time>2013-07-09T13:26:30Z</time>
      </trkpt>
      <trkpt lat="42.765644" lon="-7.274431">
        <ele>920.077</ele>
        <time>2013-07-09T13:26:37Z</time>
      </trkpt>
      <trkpt lat="42.765664" lon="-7.274559">
        <ele>922.027</ele>
        <time>2013-07-09T13:26:43Z</time>
      </trkpt>
      <trkpt lat="42.765634" lon="-7.274675">
        <ele>924.037</ele>
        <time>2013-07-09T13:26:50Z</time>
      </trkpt>
      <trkpt lat="42.765652" lon="-7.274804">
        <ele>925.035</ele>
        <time>2013-07-09T13:26:59Z</time>
      </trkpt>
      <trkpt lat="42.765670" lon="-7.274928">
        <ele>927.086</ele>
        <time>2013-07-09T13:27:08Z</time>
      </trkpt>
      <trkpt lat="42.765690" lon="-7.275058">
        <ele>928.014</ele>
        <time>2013-07-09T13:27:16Z</time>
      </trkpt>
      <trkpt lat="42.765755" lon="-7.275184">
        <ele>929.007</ele>
        <time>2013-07-09T13:27:22Z</time>
      </trkpt>
      <trkpt lat="42.765803" lon="-7.275295">
        <ele>929.067</ele>
        <time>2013-07-09T13:27:28Z</time>
      </trkpt>
      <trkpt lat="42.765852" lon="-7.275394">
        <ele>928.011</ele>
        <time>2013-07-09T13:27:38Z</time>
      </trkpt>
      <trkpt lat="42.765862" lon="-7.275471">
        <ele>927.094</ele>
        <time>2013-07-09T13:27:48Z</time>
      </trkpt>
      <trkpt lat="42.765812" lon="-7.275529">
        <ele>925.048</ele>
        <time>2013-07-09T13:27:58Z</time>
      </trkpt>
      <trkpt lat="42.765787" lon="-7.275581">
        <ele>924.066</ele>
        <time>2013-07-09T13:28:08Z</time>
      </trkpt>
      <trkpt lat="42.765744" lon="-7.275665">
        <ele>923.056</ele>
        <time>2013-07-09T13:28:18Z</time>
      </trkpt>
      <trkpt lat="42.765711" lon="-7.275720">
        <ele>920.066</ele>
        <time>2013-07-09T13:28:30Z</time>
      </trkpt>
      <trkpt lat="42.765660" lon="-7.275816">
        <ele>920.015</ele>
        <time>2013-07-09T13:28:40Z</time>
      </trkpt>
      <trkpt lat="42.765582" lon="-7.275877">
        <ele>917.065</ele>
        <time>2013-07-09T13:28:47Z</time>
      </trkpt>
      <trkpt lat="42.765505" lon="-7.275953">
        <ele>915.011</ele>
        <time>2013-07-09T13:28:56Z</time>
      </trkpt>
      <trkpt lat="42.765476" lon="-7.276081">
        <ele>914.007</ele>
        <time>2013-07-09T13:29:04Z</time>
      </trkpt>
      <trkpt lat="42.765416" lon="-7.276164">
        <ele>914.055</ele>
        <time>2013-07-09T13:29:14Z</time>
      </trkpt>
      <trkpt lat="42.765347" lon="-7.276250">
        <ele>913.069</ele>
        <time>2013-07-09T13:29:22Z</time>
      </trkpt>
      <trkpt lat="42.765285" lon="-7.276346">
        <ele>912.072</ele>
        <time>2013-07-09T13:29:31Z</time>
      </trkpt>
      <trkpt lat="42.765226" lon="-7.276364">
        <ele>911.086</ele>
        <time>2013-07-09T13:29:41Z</time>
      </trkpt>
      <trkpt lat="42.765132" lon="-7.276412">
        <ele>911.014</ele>
        <time>2013-07-09T13:29:50Z</time>
      </trkpt>
      <trkpt lat="42.765050" lon="-7.276468">
        <ele>912.054</ele>
        <time>2013-07-09T13:30:00Z</time>
      </trkpt>
      <trkpt lat="42.764977" lon="-7.276512">
        <ele>913.084</ele>
        <time>2013-07-09T13:30:10Z</time>
      </trkpt>
      <trkpt lat="42.764910" lon="-7.276594">
        <ele>914.033</ele>
        <time>2013-07-09T13:30:18Z</time>
      </trkpt>
      <trkpt lat="42.764836" lon="-7.276690">
        <ele>915.023</ele>
        <time>2013-07-09T13:30:25Z</time>
      </trkpt>
      <trkpt lat="42.764763" lon="-7.276766">
        <ele>914.015</ele>
        <time>2013-07-09T13:30:31Z</time>
      </trkpt>
      <trkpt lat="42.764702" lon="-7.276876">
        <ele>915.007</ele>
        <time>2013-07-09T13:30:38Z</time>
      </trkpt>
      <trkpt lat="42.764651" lon="-7.276987">
        <ele>915.047</ele>
        <time>2013-07-09T13:30:46Z</time>
      </trkpt>
      <trkpt lat="42.764605" lon="-7.277102">
        <ele>916.071</ele>
        <time>2013-07-09T13:30:56Z</time>
      </trkpt>
      <trkpt lat="42.764567" lon="-7.277228">
        <ele>917.024</ele>
        <time>2013-07-09T13:31:04Z</time>
      </trkpt>
      <trkpt lat="42.764513" lon="-7.277331">
        <ele>918.028</ele>
        <time>2013-07-09T13:31:11Z</time>
      </trkpt>
      <trkpt lat="42.764483" lon="-7.277451">
        <ele>918.026</ele>
        <time>2013-07-09T13:31:19Z</time>
      </trkpt>
      <trkpt lat="42.764433" lon="-7.277573">
        <ele>918.046</ele>
        <time>2013-07-09T13:31:26Z</time>
      </trkpt>
      <trkpt lat="42.764398" lon="-7.277705">
        <ele>918.016</ele>
        <time>2013-07-09T13:31:32Z</time>
      </trkpt>
      <trkpt lat="42.764391" lon="-7.277830">
        <ele>918.065</ele>
        <time>2013-07-09T13:31:37Z</time>
      </trkpt>
      <trkpt lat="42.764382" lon="-7.277964">
        <ele>918.068</ele>
        <time>2013-07-09T13:31:45Z</time>
      </trkpt>
      <trkpt lat="42.764367" lon="-7.278057">
        <ele>918.014</ele>
        <time>2013-07-09T13:31:55Z</time>
      </trkpt>
      <trkpt lat="42.764355" lon="-7.278165">
        <ele>918.007</ele>
        <time>2013-07-09T13:32:05Z</time>
      </trkpt>
      <trkpt lat="42.764345" lon="-7.278287">
        <ele>918.060</ele>
        <time>2013-07-09T13:32:13Z</time>
      </trkpt>
      <trkpt lat="42.764337" lon="-7.278422">
        <ele>919.014</ele>
        <time>2013-07-09T13:32:21Z</time>
      </trkpt>
      <trkpt lat="42.764341" lon="-7.278563">
        <ele>918.017</ele>
        <time>2013-07-09T13:32:27Z</time>
      </trkpt>
      <trkpt lat="42.764339" lon="-7.278710">
        <ele>917.041</ele>
        <time>2013-07-09T13:32:34Z</time>
      </trkpt>
      <trkpt lat="42.764313" lon="-7.278840">
        <ele>916.019</ele>
        <time>2013-07-09T13:32:42Z</time>
      </trkpt>
      <trkpt lat="42.764314" lon="-7.278961">
        <ele>917.089</ele>
        <time>2013-07-09T13:32:52Z</time>
      </trkpt>
      <trkpt lat="42.764308" lon="-7.279096">
        <ele>917.089</ele>
        <time>2013-07-09T13:33:01Z</time>
      </trkpt>
      <trkpt lat="42.764298" lon="-7.279203">
        <ele>916.054</ele>
        <time>2013-07-09T13:33:11Z</time>
      </trkpt>
      <trkpt lat="42.764323" lon="-7.279321">
        <ele>917.056</ele>
        <time>2013-07-09T13:33:19Z</time>
      </trkpt>
      <trkpt lat="42.764347" lon="-7.279443">
        <ele>918.011</ele>
        <time>2013-07-09T13:33:25Z</time>
      </trkpt>
      <trkpt lat="42.764359" lon="-7.279570">
        <ele>918.007</ele>
        <time>2013-07-09T13:33:34Z</time>
      </trkpt>
      <trkpt lat="42.764347" lon="-7.279669">
        <ele>919.049</ele>
        <time>2013-07-09T13:33:44Z</time>
      </trkpt>
      <trkpt lat="42.764323" lon="-7.279777">
        <ele>920.053</ele>
        <time>2013-07-09T13:33:54Z</time>
      </trkpt>
      <trkpt lat="42.764307" lon="-7.279906">
        <ele>921.086</ele>
        <time>2013-07-09T13:34:02Z</time>
      </trkpt>
      <trkpt lat="42.764286" lon="-7.279992">
        <ele>922.020</ele>
        <time>2013-07-09T13:34:12Z</time>
      </trkpt>
      <trkpt lat="42.764332" lon="-7.280117">
        <ele>922.098</ele>
        <time>2013-07-09T13:34:20Z</time>
      </trkpt>
      <trkpt lat="42.764374" lon="-7.280241">
        <ele>922.098</ele>
        <time>2013-07-09T13:34:27Z</time>
      </trkpt>
      <trkpt lat="42.764422" lon="-7.280369">
        <ele>921.028</ele>
        <time>2013-07-09T13:34:33Z</time>
      </trkpt>
      <trkpt lat="42.764419" lon="-7.280481">
        <ele>921.055</ele>
        <time>2013-07-09T13:34:43Z</time>
      </trkpt>
      <trkpt lat="42.764465" lon="-7.280615">
        <ele>921.007</ele>
        <time>2013-07-09T13:34:51Z</time>
      </trkpt>
      <trkpt lat="42.764523" lon="-7.280732">
        <ele>920.017</ele>
        <time>2013-07-09T13:34:57Z</time>
      </trkpt>
      <trkpt lat="42.764601" lon="-7.280804">
        <ele>919.007</ele>
        <time>2013-07-09T13:35:04Z</time>
      </trkpt>
      <trkpt lat="42.764609" lon="-7.280803">
        <ele>918.029</ele>
        <time>2013-07-09T13:35:44Z</time>
      </trkpt>
      <trkpt lat="42.764623" lon="-7.280826">
        <ele>917.023</ele>
        <time>2013-07-09T13:36:24Z</time>
      </trkpt>
      <trkpt lat="42.764623" lon="-7.280891">
        <ele>918.046</ele>
        <time>2013-07-09T13:36:36Z</time>
      </trkpt>
      <trkpt lat="42.764651" lon="-7.280962">
        <ele>918.030</ele>
        <time>2013-07-09T13:36:46Z</time>
      </trkpt>
      <trkpt lat="42.764711" lon="-7.281075">
        <ele>918.088</ele>
        <time>2013-07-09T13:36:54Z</time>
      </trkpt>
      <trkpt lat="42.764759" lon="-7.281191">
        <ele>918.018</ele>
        <time>2013-07-09T13:37:00Z</time>
      </trkpt>
      <trkpt lat="42.764803" lon="-7.281307">
        <ele>918.058</ele>
        <time>2013-07-09T13:37:08Z</time>
      </trkpt>
      <trkpt lat="42.764841" lon="-7.281428">
        <ele>918.075</ele>
        <time>2013-07-09T13:37:16Z</time>
      </trkpt>
      <trkpt lat="42.764920" lon="-7.281515">
        <ele>918.028</ele>
        <time>2013-07-09T13:37:23Z</time>
      </trkpt>
      <trkpt lat="42.765010" lon="-7.281550">
        <ele>918.020</ele>
        <time>2013-07-09T13:37:29Z</time>
      </trkpt>
      <trkpt lat="42.765094" lon="-7.281621">
        <ele>918.007</ele>
        <time>2013-07-09T13:37:36Z</time>
      </trkpt>
      <trkpt lat="42.765132" lon="-7.281742">
        <ele>918.091</ele>
        <time>2013-07-09T13:37:44Z</time>
      </trkpt>
      <trkpt lat="42.765187" lon="-7.281843">
        <ele>919.025</ele>
        <time>2013-07-09T13:37:54Z</time>
      </trkpt>
      <trkpt lat="42.765250" lon="-7.281948">
        <ele>919.078</ele>
        <time>2013-07-09T13:38:02Z</time>
      </trkpt>
      <trkpt lat="42.765326" lon="-7.281973">
        <ele>919.062</ele>
        <time>2013-07-09T13:38:12Z</time>
      </trkpt>
      <trkpt lat="42.765366" lon="-7.282011">
        <ele>921.040</ele>
        <time>2013-07-09T13:38:33Z</time>
      </trkpt>
      <trkpt lat="42.765319" lon="-7.282010">
        <ele>920.070</ele>
        <time>2013-07-09T13:38:44Z</time>
      </trkpt>
      <trkpt lat="42.765370" lon="-7.282026">
        <ele>918.040</ele>
        <time>2013-07-09T13:39:10Z</time>
      </trkpt>
      <trkpt lat="42.765429" lon="-7.282120">
        <ele>917.019</ele>
        <time>2013-07-09T13:39:19Z</time>
      </trkpt>
      <trkpt lat="42.765488" lon="-7.282201">
        <ele>917.009</ele>
        <time>2013-07-09T13:39:29Z</time>
      </trkpt>
      <trkpt lat="42.765550" lon="-7.282287">
        <ele>918.019</ele>
        <time>2013-07-09T13:39:39Z</time>
      </trkpt>
      <trkpt lat="42.765639" lon="-7.282343">
        <ele>918.007</ele>
        <time>2013-07-09T13:39:47Z</time>
      </trkpt>
      <trkpt lat="42.765703" lon="-7.282437">
        <ele>918.075</ele>
        <time>2013-07-09T13:39:56Z</time>
      </trkpt>
      <trkpt lat="42.765764" lon="-7.282529">
        <ele>917.079</ele>
        <time>2013-07-09T13:40:06Z</time>
      </trkpt>
      <trkpt lat="42.765852" lon="-7.282566">
        <ele>917.072</ele>
        <time>2013-07-09T13:40:14Z</time>
      </trkpt>
      <trkpt lat="42.765939" lon="-7.282615">
        <ele>918.086</ele>
        <time>2013-07-09T13:40:22Z</time>
      </trkpt>
      <trkpt lat="42.766042" lon="-7.282660">
        <ele>917.064</ele>
        <time>2013-07-09T13:40:29Z</time>
      </trkpt>
      <trkpt lat="42.766120" lon="-7.282729">
        <ele>917.064</ele>
        <time>2013-07-09T13:40:36Z</time>
      </trkpt>
      <trkpt lat="42.766204" lon="-7.282801">
        <ele>916.014</ele>
        <time>2013-07-09T13:40:45Z</time>
      </trkpt>
      <trkpt lat="42.766284" lon="-7.282861">
        <ele>916.085</ele>
        <time>2013-07-09T13:40:51Z</time>
      </trkpt>
      <trkpt lat="42.766386" lon="-7.282897">
        <ele>915.089</ele>
        <time>2013-07-09T13:40:58Z</time>
      </trkpt>
      <trkpt lat="42.766475" lon="-7.282853">
        <ele>913.017</ele>
        <time>2013-07-09T13:41:07Z</time>
      </trkpt>
      <trkpt lat="42.766567" lon="-7.282790">
        <ele>912.007</ele>
        <time>2013-07-09T13:41:17Z</time>
      </trkpt>
      <trkpt lat="42.766645" lon="-7.282710">
        <ele>911.092</ele>
        <time>2013-07-09T13:41:27Z</time>
      </trkpt>
      <trkpt lat="42.766731" lon="-7.282731">
        <ele>910.076</ele>
        <time>2013-07-09T13:41:37Z</time>
      </trkpt>
      <trkpt lat="42.766823" lon="-7.282743">
        <ele>911.029</ele>
        <time>2013-07-09T13:41:43Z</time>
      </trkpt>
      <trkpt lat="42.766919" lon="-7.282766">
        <ele>911.043</ele>
        <time>2013-07-09T13:41:50Z</time>
      </trkpt>
      <trkpt lat="42.767016" lon="-7.282761">
        <ele>911.011</ele>
        <time>2013-07-09T13:41:59Z</time>
      </trkpt>
      <trkpt lat="42.767111" lon="-7.282759">
        <ele>911.061</ele>
        <time>2013-07-09T13:42:05Z</time>
      </trkpt>
      <trkpt lat="42.767198" lon="-7.282796">
        <ele>912.051</ele>
        <time>2013-07-09T13:42:12Z</time>
      </trkpt>
      <trkpt lat="42.767306" lon="-7.282789">
        <ele>912.036</ele>
        <time>2013-07-09T13:42:20Z</time>
      </trkpt>
      <trkpt lat="42.767400" lon="-7.282834">
        <ele>913.017</ele>
        <time>2013-07-09T13:42:26Z</time>
      </trkpt>
      <trkpt lat="42.767493" lon="-7.282832">
        <ele>913.018</ele>
        <time>2013-07-09T13:42:35Z</time>
      </trkpt>
      <trkpt lat="42.767582" lon="-7.282870">
        <ele>913.007</ele>
        <time>2013-07-09T13:42:43Z</time>
      </trkpt>
      <trkpt lat="42.767667" lon="-7.282880">
        <ele>913.097</ele>
        <time>2013-07-09T13:42:53Z</time>
      </trkpt>
      <trkpt lat="42.767754" lon="-7.282811">
        <ele>913.091</ele>
        <time>2013-07-09T13:43:01Z</time>
      </trkpt>
      <trkpt lat="42.767834" lon="-7.282684">
        <ele>913.084</ele>
        <time>2013-07-09T13:43:05Z</time>
      </trkpt>
      <trkpt lat="42.767856" lon="-7.282627">
        <ele>913.018</ele>
        <time>2013-07-09T13:43:27Z</time>
      </trkpt>
      <trkpt lat="42.767837" lon="-7.282683">
        <ele>915.086</ele>
        <time>2013-07-09T13:43:55Z</time>
      </trkpt>
      <trkpt lat="42.767847" lon="-7.282628">
        <ele>918.096</ele>
        <time>2013-07-09T13:44:35Z</time>
      </trkpt>
      <trkpt lat="42.767889" lon="-7.282602">
        <ele>919.026</ele>
        <time>2013-07-09T13:44:56Z</time>
      </trkpt>
      <trkpt lat="42.767867" lon="-7.282676">
        <ele>919.059</ele>
        <time>2013-07-09T13:45:09Z</time>
      </trkpt>
      <trkpt lat="42.767933" lon="-7.282772">
        <ele>919.003</ele>
        <time>2013-07-09T13:45:17Z</time>
      </trkpt>
      <trkpt lat="42.767998" lon="-7.282840">
        <ele>919.023</ele>
        <time>2013-07-09T13:45:27Z</time>
      </trkpt>
      <trkpt lat="42.768046" lon="-7.282806">
        <ele>918.007</ele>
        <time>2013-07-09T13:45:44Z</time>
      </trkpt>
      <trkpt lat="42.768104" lon="-7.282777">
        <ele>918.019</ele>
        <time>2013-07-09T13:45:54Z</time>
      </trkpt>
      <trkpt lat="42.768142" lon="-7.282733">
        <ele>918.023</ele>
        <time>2013-07-09T13:46:08Z</time>
      </trkpt>
      <trkpt lat="42.768164" lon="-7.282672">
        <ele>919.046</ele>
        <time>2013-07-09T13:46:19Z</time>
      </trkpt>
      <trkpt lat="42.768115" lon="-7.282704">
        <ele>918.020</ele>
        <time>2013-07-09T13:46:32Z</time>
      </trkpt>
      <trkpt lat="42.768084" lon="-7.282762">
        <ele>917.098</ele>
        <time>2013-07-09T13:46:42Z</time>
      </trkpt>
      <trkpt lat="42.768122" lon="-7.282797">
        <ele>916.028</ele>
        <time>2013-07-09T13:47:02Z</time>
      </trkpt>
      <trkpt lat="42.768076" lon="-7.282788">
        <ele>920.068</ele>
        <time>2013-07-09T13:47:20Z</time>
      </trkpt>
      <trkpt lat="42.767643" lon="-7.286354">
        <ele>923.041</ele>
        <time>2013-07-09T13:57:47Z</time>
      </trkpt>
      <trkpt lat="42.767660" lon="-7.286415">
        <ele>927.081</ele>
        <time>2013-07-09T13:58:22Z</time>
      </trkpt>
      <trkpt lat="42.767732" lon="-7.286424">
        <ele>928.009</ele>
        <time>2013-07-09T13:58:32Z</time>
      </trkpt>
      <trkpt lat="42.767793" lon="-7.286427">
        <ele>928.007</ele>
        <time>2013-07-09T13:58:42Z</time>
      </trkpt>
      <trkpt lat="42.767882" lon="-7.286453">
        <ele>928.078</ele>
        <time>2013-07-09T13:58:49Z</time>
      </trkpt>
      <trkpt lat="42.767979" lon="-7.286445">
        <ele>928.082</ele>
        <time>2013-07-09T13:58:58Z</time>
      </trkpt>
      <trkpt lat="42.768073" lon="-7.286438">
        <ele>928.035</ele>
        <time>2013-07-09T13:59:06Z</time>
      </trkpt>
      <trkpt lat="42.768119" lon="-7.286403">
        <ele>929.049</ele>
        <time>2013-07-09T13:59:16Z</time>
      </trkpt>
      <trkpt lat="42.768178" lon="-7.286352">
        <ele>929.037</ele>
        <time>2013-07-09T13:59:26Z</time>
      </trkpt>
      <trkpt lat="42.768278" lon="-7.286353">
        <ele>929.067</ele>
        <time>2013-07-09T13:59:34Z</time>
      </trkpt>
      <trkpt lat="42.768374" lon="-7.286335">
        <ele>930.087</ele>
        <time>2013-07-09T13:59:41Z</time>
      </trkpt>
      <trkpt lat="42.768473" lon="-7.286339">
        <ele>929.094</ele>
        <time>2013-07-09T13:59:49Z</time>
      </trkpt>
      <trkpt lat="42.768566" lon="-7.286337">
        <ele>929.057</ele>
        <time>2013-07-09T13:59:57Z</time>
      </trkpt>
      <trkpt lat="42.768657" lon="-7.286364">
        <ele>929.022</ele>
        <time>2013-07-09T14:00:03Z</time>
      </trkpt>
      <trkpt lat="42.768737" lon="-7.286355">
        <ele>929.007</ele>
        <time>2013-07-09T14:00:13Z</time>
      </trkpt>
      <trkpt lat="42.768811" lon="-7.286308">
        <ele>930.053</ele>
        <time>2013-07-09T14:00:23Z</time>
      </trkpt>
      <trkpt lat="42.768895" lon="-7.286248">
        <ele>930.017</ele>
        <time>2013-07-09T14:00:33Z</time>
      </trkpt>
      <trkpt lat="42.768982" lon="-7.286208">
        <ele>931.010</ele>
        <time>2013-07-09T14:00:42Z</time>
      </trkpt>
      <trkpt lat="42.769075" lon="-7.286189">
        <ele>931.024</ele>
        <time>2013-07-09T14:00:51Z</time>
      </trkpt>
      <trkpt lat="42.769168" lon="-7.286202">
        <ele>931.022</ele>
        <time>2013-07-09T14:01:01Z</time>
      </trkpt>
      <trkpt lat="42.769264" lon="-7.286209">
        <ele>931.062</ele>
        <time>2013-07-09T14:01:08Z</time>
      </trkpt>
      <trkpt lat="42.769355" lon="-7.286194">
        <ele>931.062</ele>
        <time>2013-07-09T14:01:16Z</time>
      </trkpt>
      <trkpt lat="42.769458" lon="-7.286194">
        <ele>931.042</ele>
        <time>2013-07-09T14:01:26Z</time>
      </trkpt>
      <trkpt lat="42.769543" lon="-7.286226">
        <ele>930.022</ele>
        <time>2013-07-09T14:01:36Z</time>
      </trkpt>
      <trkpt lat="42.769640" lon="-7.286254">
        <ele>930.014</ele>
        <time>2013-07-09T14:01:45Z</time>
      </trkpt>
      <trkpt lat="42.769710" lon="-7.286240">
        <ele>928.007</ele>
        <time>2013-07-09T14:01:55Z</time>
      </trkpt>
      <trkpt lat="42.769804" lon="-7.286273">
        <ele>928.088</ele>
        <time>2013-07-09T14:02:03Z</time>
      </trkpt>
      <trkpt lat="42.769914" lon="-7.286211">
        <ele>928.032</ele>
        <time>2013-07-09T14:02:07Z</time>
      </trkpt>
      <trkpt lat="42.770009" lon="-7.286144">
        <ele>928.085</ele>
        <time>2013-07-09T14:02:12Z</time>
      </trkpt>
      <trkpt lat="42.770055" lon="-7.286159">
        <ele>932.029</ele>
        <time>2013-07-09T14:02:27Z</time>
      </trkpt>
      <trkpt lat="42.770122" lon="-7.286153">
        <ele>931.047</ele>
        <time>2013-07-09T14:02:37Z</time>
      </trkpt>
      <trkpt lat="42.770203" lon="-7.286140">
        <ele>931.037</ele>
        <time>2013-07-09T14:02:47Z</time>
      </trkpt>
      <trkpt lat="42.770250" lon="-7.286126">
        <ele>930.037</ele>
        <time>2013-07-09T14:02:57Z</time>
      </trkpt>
      <trkpt lat="42.770291" lon="-7.286100">
        <ele>930.015</ele>
        <time>2013-07-09T14:03:09Z</time>
      </trkpt>
      <trkpt lat="42.770345" lon="-7.286083">
        <ele>931.065</ele>
        <time>2013-07-09T14:03:19Z</time>
      </trkpt>
      <trkpt lat="42.770416" lon="-7.286051">
        <ele>931.011</ele>
        <time>2013-07-09T14:03:29Z</time>
      </trkpt>
      <trkpt lat="42.770519" lon="-7.286115">
        <ele>931.007</ele>
        <time>2013-07-09T14:03:36Z</time>
      </trkpt>
      <trkpt lat="42.770610" lon="-7.286131">
        <ele>930.025</ele>
        <time>2013-07-09T14:03:44Z</time>
      </trkpt>
      <trkpt lat="42.770697" lon="-7.286100">
        <ele>930.099</ele>
        <time>2013-07-09T14:03:50Z</time>
      </trkpt>
      <trkpt lat="42.770779" lon="-7.286045">
        <ele>930.092</ele>
        <time>2013-07-09T14:03:57Z</time>
      </trkpt>
      <trkpt lat="42.770866" lon="-7.285985">
        <ele>930.056</ele>
        <time>2013-07-09T14:04:05Z</time>
      </trkpt>
      <trkpt lat="42.770977" lon="-7.285929">
        <ele>931.014</ele>
        <time>2013-07-09T14:04:11Z</time>
      </trkpt>
      <trkpt lat="42.771067" lon="-7.285924">
        <ele>931.074</ele>
        <time>2013-07-09T14:04:21Z</time>
      </trkpt>
      <trkpt lat="42.771103" lon="-7.285882">
        <ele>931.014</ele>
        <time>2013-07-09T14:04:32Z</time>
      </trkpt>
      <trkpt lat="42.771147" lon="-7.285909">
        <ele>931.029</ele>
        <time>2013-07-09T14:04:49Z</time>
      </trkpt>
      <trkpt lat="42.771244" lon="-7.285873">
        <ele>931.000</ele>
        <time>2013-07-09T14:04:55Z</time>
      </trkpt>
      <trkpt lat="42.771287" lon="-7.285853">
        <ele>930.020</ele>
        <time>2013-07-09T14:05:23Z</time>
      </trkpt>
      <trkpt lat="42.771328" lon="-7.285947">
        <ele>931.007</ele>
        <time>2013-07-09T14:05:33Z</time>
      </trkpt>
      <trkpt lat="42.771408" lon="-7.286002">
        <ele>932.076</ele>
        <time>2013-07-09T14:05:41Z</time>
      </trkpt>
      <trkpt lat="42.771504" lon="-7.286025">
        <ele>932.010</ele>
        <time>2013-07-09T14:05:51Z</time>
      </trkpt>
      <trkpt lat="42.771576" lon="-7.286130">
        <ele>933.083</ele>
        <time>2013-07-09T14:06:00Z</time>
      </trkpt>
      <trkpt lat="42.771604" lon="-7.286273">
        <ele>933.097</ele>
        <time>2013-07-09T14:06:05Z</time>
      </trkpt>
      <trkpt lat="42.771659" lon="-7.286387">
        <ele>933.015</ele>
        <time>2013-07-09T14:06:11Z</time>
      </trkpt>
      <trkpt lat="42.771735" lon="-7.286470">
        <ele>933.025</ele>
        <time>2013-07-09T14:06:17Z</time>
      </trkpt>
      <trkpt lat="42.771799" lon="-7.286505">
        <ele>932.025</ele>
        <time>2013-07-09T14:06:27Z</time>
      </trkpt>
      <trkpt lat="42.771869" lon="-7.286589">
        <ele>932.019</ele>
        <time>2013-07-09T14:06:36Z</time>
      </trkpt>
      <trkpt lat="42.771965" lon="-7.286606">
        <ele>932.009</ele>
        <time>2013-07-09T14:06:46Z</time>
      </trkpt>
      <trkpt lat="42.772060" lon="-7.286580">
        <ele>932.019</ele>
        <time>2013-07-09T14:06:55Z</time>
      </trkpt>
      <trkpt lat="42.772147" lon="-7.286636">
        <ele>933.007</ele>
        <time>2013-07-09T14:07:02Z</time>
      </trkpt>
      <trkpt lat="42.772233" lon="-7.286676">
        <ele>934.095</ele>
        <time>2013-07-09T14:07:09Z</time>
      </trkpt>
      <trkpt lat="42.772329" lon="-7.286730">
        <ele>934.059</ele>
        <time>2013-07-09T14:07:15Z</time>
      </trkpt>
      <trkpt lat="42.772397" lon="-7.286826">
        <ele>934.062</ele>
        <time>2013-07-09T14:07:23Z</time>
      </trkpt>
      <trkpt lat="42.772451" lon="-7.286943">
        <ele>933.036</ele>
        <time>2013-07-09T14:07:29Z</time>
      </trkpt>
      <trkpt lat="42.772551" lon="-7.287003">
        <ele>932.014</ele>
        <time>2013-07-09T14:07:37Z</time>
      </trkpt>
      <trkpt lat="42.772611" lon="-7.287104">
        <ele>931.064</ele>
        <time>2013-07-09T14:07:45Z</time>
      </trkpt>
      <trkpt lat="42.772558" lon="-7.287216">
        <ele>930.034</ele>
        <time>2013-07-09T14:07:54Z</time>
      </trkpt>
      <trkpt lat="42.772561" lon="-7.287316">
        <ele>928.015</ele>
        <time>2013-07-09T14:08:04Z</time>
      </trkpt>
      <trkpt lat="42.772522" lon="-7.287367">
        <ele>927.065</ele>
        <time>2013-07-09T14:08:14Z</time>
      </trkpt>
      <trkpt lat="42.772415" lon="-7.287428">
        <ele>927.011</ele>
        <time>2013-07-09T14:08:25Z</time>
      </trkpt>
      <trkpt lat="42.772405" lon="-7.287536">
        <ele>927.007</ele>
        <time>2013-07-09T14:08:35Z</time>
      </trkpt>
      <trkpt lat="42.772390" lon="-7.287602">
        <ele>927.065</ele>
        <time>2013-07-09T14:08:45Z</time>
      </trkpt>
      <trkpt lat="42.771881" lon="-7.288497">
        <ele>903.049</ele>
        <time>2013-07-09T14:27:54Z</time>
      </trkpt>
      <trkpt lat="42.771829" lon="-7.288549">
        <ele>904.072</ele>
        <time>2013-07-09T14:28:04Z</time>
      </trkpt>
      <trkpt lat="42.771769" lon="-7.288654">
        <ele>904.026</ele>
        <time>2013-07-09T14:28:13Z</time>
      </trkpt>
      <trkpt lat="42.771713" lon="-7.288758">
        <ele>904.054</ele>
        <time>2013-07-09T14:28:21Z</time>
      </trkpt>
      <trkpt lat="42.771688" lon="-7.288884">
        <ele>904.094</ele>
        <time>2013-07-09T14:28:31Z</time>
      </trkpt>
      <trkpt lat="42.771674" lon="-7.288990">
        <ele>904.014</ele>
        <time>2013-07-09T14:28:41Z</time>
      </trkpt>
      <trkpt lat="42.771653" lon="-7.289111">
        <ele>904.057</ele>
        <time>2013-07-09T14:28:50Z</time>
      </trkpt>
      <trkpt lat="42.771646" lon="-7.289243">
        <ele>904.000</ele>
        <time>2013-07-09T14:28:57Z</time>
      </trkpt>
      <trkpt lat="42.771626" lon="-7.289372">
        <ele>904.020</ele>
        <time>2013-07-09T14:29:03Z</time>
      </trkpt>
      <trkpt lat="42.771637" lon="-7.289499">
        <ele>904.007</ele>
        <time>2013-07-09T14:29:12Z</time>
      </trkpt>
      <trkpt lat="42.771638" lon="-7.289631">
        <ele>904.049</ele>
        <time>2013-07-09T14:29:20Z</time>
      </trkpt>
      <trkpt lat="42.771635" lon="-7.289767">
        <ele>904.073</ele>
        <time>2013-07-09T14:29:30Z</time>
      </trkpt>
      <trkpt lat="42.771586" lon="-7.289861">
        <ele>904.056</ele>
        <time>2013-07-09T14:29:40Z</time>
      </trkpt>
      <trkpt lat="42.771568" lon="-7.289958">
        <ele>906.030</ele>
        <time>2013-07-09T14:29:50Z</time>
      </trkpt>
      <trkpt lat="42.771555" lon="-7.290094">
        <ele>907.078</ele>
        <time>2013-07-09T14:29:57Z</time>
      </trkpt>
      <trkpt lat="42.771601" lon="-7.290227">
        <ele>909.058</ele>
        <time>2013-07-09T14:30:05Z</time>
      </trkpt>
      <trkpt lat="42.771616" lon="-7.290346">
        <ele>909.058</ele>
        <time>2013-07-09T14:30:15Z</time>
      </trkpt>
      <trkpt lat="42.771578" lon="-7.290464">
        <ele>909.037</ele>
        <time>2013-07-09T14:30:21Z</time>
      </trkpt>
      <trkpt lat="42.771579" lon="-7.290600">
        <ele>909.049</ele>
        <time>2013-07-09T14:30:29Z</time>
      </trkpt>
      <trkpt lat="42.771613" lon="-7.290732">
        <ele>909.013</ele>
        <time>2013-07-09T14:30:36Z</time>
      </trkpt>
      <trkpt lat="42.771651" lon="-7.290855">
        <ele>908.007</ele>
        <time>2013-07-09T14:30:42Z</time>
      </trkpt>
      <trkpt lat="42.771675" lon="-7.290977">
        <ele>909.047</ele>
        <time>2013-07-09T14:30:48Z</time>
      </trkpt>
      <trkpt lat="42.771704" lon="-7.291104">
        <ele>909.021</ele>
        <time>2013-07-09T14:30:55Z</time>
      </trkpt>
      <trkpt lat="42.771753" lon="-7.291224">
        <ele>908.054</ele>
        <time>2013-07-09T14:31:02Z</time>
      </trkpt>
      <trkpt lat="42.771770" lon="-7.291341">
        <ele>907.018</ele>
        <time>2013-07-09T14:31:12Z</time>
      </trkpt>
      <trkpt lat="42.771793" lon="-7.291471">
        <ele>908.026</ele>
        <time>2013-07-09T14:31:22Z</time>
      </trkpt>
      <trkpt lat="42.771804" lon="-7.291603">
        <ele>909.026</ele>
        <time>2013-07-09T14:31:32Z</time>
      </trkpt>
      <trkpt lat="42.771811" lon="-7.291732">
        <ele>909.076</ele>
        <time>2013-07-09T14:31:41Z</time>
      </trkpt>
      <trkpt lat="42.771791" lon="-7.291858">
        <ele>909.064</ele>
        <time>2013-07-09T14:31:50Z</time>
      </trkpt>
      <trkpt lat="42.771819" lon="-7.291986">
        <ele>909.006</ele>
        <time>2013-07-09T14:31:58Z</time>
      </trkpt>
      <trkpt lat="42.771842" lon="-7.292114">
        <ele>909.016</ele>
        <time>2013-07-09T14:32:05Z</time>
      </trkpt>
      <trkpt lat="42.771865" lon="-7.292243">
        <ele>909.007</ele>
        <time>2013-07-09T14:32:13Z</time>
      </trkpt>
      <trkpt lat="42.771898" lon="-7.292359">
        <ele>908.030</ele>
        <time>2013-07-09T14:32:20Z</time>
      </trkpt>
      <trkpt lat="42.771934" lon="-7.292475">
        <ele>909.094</ele>
        <time>2013-07-09T14:32:30Z</time>
      </trkpt>
      <trkpt lat="42.771896" lon="-7.292430">
        <ele>912.017</ele>
        <time>2013-07-09T14:32:52Z</time>
      </trkpt>
      <trkpt lat="42.771905" lon="-7.292302">
        <ele>913.041</ele>
        <time>2013-07-09T14:32:59Z</time>
      </trkpt>
      <trkpt lat="42.771937" lon="-7.292398">
        <ele>916.099</ele>
        <time>2013-07-09T14:33:09Z</time>
      </trkpt>
      <trkpt lat="42.771949" lon="-7.292535">
        <ele>918.029</ele>
        <time>2013-07-09T14:33:15Z</time>
      </trkpt>
      <trkpt lat="42.771959" lon="-7.292661">
        <ele>919.059</ele>
        <time>2013-07-09T14:33:24Z</time>
      </trkpt>
      <trkpt lat="42.772006" lon="-7.292779">
        <ele>919.075</ele>
        <time>2013-07-09T14:33:35Z</time>
      </trkpt>
      <trkpt lat="42.772033" lon="-7.292897">
        <ele>920.028</ele>
        <time>2013-07-09T14:33:43Z</time>
      </trkpt>
      <trkpt lat="42.772057" lon="-7.293027">
        <ele>920.020</ele>
        <time>2013-07-09T14:33:51Z</time>
      </trkpt>
      <trkpt lat="42.772093" lon="-7.293145">
        <ele>920.007</ele>
        <time>2013-07-09T14:33:59Z</time>
      </trkpt>
      <trkpt lat="42.772130" lon="-7.293260">
        <ele>920.061</ele>
        <time>2013-07-09T14:34:06Z</time>
      </trkpt>
      <trkpt lat="42.772149" lon="-7.293380">
        <ele>920.075</ele>
        <time>2013-07-09T14:34:15Z</time>
      </trkpt>
      <trkpt lat="42.772146" lon="-7.293510">
        <ele>921.048</ele>
        <time>2013-07-09T14:34:22Z</time>
      </trkpt>
      <trkpt lat="42.772156" lon="-7.293637">
        <ele>921.012</ele>
        <time>2013-07-09T14:34:29Z</time>
      </trkpt>
      <trkpt lat="42.772176" lon="-7.293778">
        <ele>922.040</ele>
        <time>2013-07-09T14:34:36Z</time>
      </trkpt>
      <trkpt lat="42.772171" lon="-7.293903">
        <ele>923.090</ele>
        <time>2013-07-09T14:34:44Z</time>
      </trkpt>
      <trkpt lat="42.772167" lon="-7.294029">
        <ele>924.040</ele>
        <time>2013-07-09T14:34:52Z</time>
      </trkpt>
      <trkpt lat="42.772198" lon="-7.294152">
        <ele>924.061</ele>
        <time>2013-07-09T14:34:58Z</time>
      </trkpt>
      <trkpt lat="42.772182" lon="-7.294268">
        <ele>926.021</ele>
        <time>2013-07-09T14:35:08Z</time>
      </trkpt>
      <trkpt lat="42.772172" lon="-7.294390">
        <ele>926.013</ele>
        <time>2013-07-09T14:35:17Z</time>
      </trkpt>
      <trkpt lat="42.772172" lon="-7.294513">
        <ele>927.007</ele>
        <time>2013-07-09T14:35:25Z</time>
      </trkpt>
      <trkpt lat="42.772152" lon="-7.294633">
        <ele>927.080</ele>
        <time>2013-07-09T14:35:34Z</time>
      </trkpt>
      <trkpt lat="42.772130" lon="-7.294765">
        <ele>927.014</ele>
        <time>2013-07-09T14:35:42Z</time>
      </trkpt>
      <trkpt lat="42.772139" lon="-7.294890">
        <ele>926.017</ele>
        <time>2013-07-09T14:35:51Z</time>
      </trkpt>
      <trkpt lat="42.772106" lon="-7.294993">
        <ele>926.011</ele>
        <time>2013-07-09T14:36:01Z</time>
      </trkpt>
      <trkpt lat="42.772071" lon="-7.295122">
        <ele>927.089</ele>
        <time>2013-07-09T14:36:08Z</time>
      </trkpt>
      <trkpt lat="42.772020" lon="-7.295234">
        <ele>927.029</ele>
        <time>2013-07-09T14:36:16Z</time>
      </trkpt>
      <trkpt lat="42.771998" lon="-7.295357">
        <ele>928.059</ele>
        <time>2013-07-09T14:36:25Z</time>
      </trkpt>
      <trkpt lat="42.771966" lon="-7.295473">
        <ele>929.016</ele>
        <time>2013-07-09T14:36:32Z</time>
      </trkpt>
      <trkpt lat="42.771925" lon="-7.295588">
        <ele>930.076</ele>
        <time>2013-07-09T14:36:41Z</time>
      </trkpt>
      <trkpt lat="42.771909" lon="-7.295738">
        <ele>928.013</ele>
        <time>2013-07-09T14:36:50Z</time>
      </trkpt>
      <trkpt lat="42.771929" lon="-7.295866">
        <ele>920.007</ele>
        <time>2013-07-09T14:36:55Z</time>
      </trkpt>
      <trkpt lat="42.771937" lon="-7.295940">
        <ele>914.055</ele>
        <time>2013-07-09T14:37:05Z</time>
      </trkpt>
      <trkpt lat="42.771912" lon="-7.296002">
        <ele>912.039</ele>
        <time>2013-07-09T14:37:23Z</time>
      </trkpt>
      <trkpt lat="42.771848" lon="-7.296082">
        <ele>912.022</ele>
        <time>2013-07-09T14:37:33Z</time>
      </trkpt>
      <trkpt lat="42.771795" lon="-7.296132">
        <ele>913.076</ele>
        <time>2013-07-09T14:37:43Z</time>
      </trkpt>
      <trkpt lat="42.771736" lon="-7.296175">
        <ele>913.044</ele>
        <time>2013-07-09T14:37:53Z</time>
      </trkpt>
      <trkpt lat="42.771728" lon="-7.296238">
        <ele>915.074</ele>
        <time>2013-07-09T14:38:13Z</time>
      </trkpt>
      <trkpt lat="42.771668" lon="-7.296334">
        <ele>914.024</ele>
        <time>2013-07-09T14:38:18Z</time>
      </trkpt>
      <trkpt lat="42.771600" lon="-7.296417">
        <ele>914.091</ele>
        <time>2013-07-09T14:38:25Z</time>
      </trkpt>
      <trkpt lat="42.771540" lon="-7.296516">
        <ele>915.081</ele>
        <time>2013-07-09T14:38:33Z</time>
      </trkpt>
      <trkpt lat="42.771493" lon="-7.296631">
        <ele>915.019</ele>
        <time>2013-07-09T14:38:39Z</time>
      </trkpt>
      <trkpt lat="42.771451" lon="-7.296727">
        <ele>914.007</ele>
        <time>2013-07-09T14:38:49Z</time>
      </trkpt>
      <trkpt lat="42.771373" lon="-7.296800">
        <ele>915.023</ele>
        <time>2013-07-09T14:38:57Z</time>
      </trkpt>
      <trkpt lat="42.771297" lon="-7.296915">
        <ele>914.037</ele>
        <time>2013-07-09T14:39:05Z</time>
      </trkpt>
      <trkpt lat="42.771233" lon="-7.297021">
        <ele>913.060</ele>
        <time>2013-07-09T14:39:13Z</time>
      </trkpt>
      <trkpt lat="42.771146" lon="-7.297090">
        <ele>913.014</ele>
        <time>2013-07-09T14:39:19Z</time>
      </trkpt>
      <trkpt lat="42.771061" lon="-7.297149">
        <ele>913.032</ele>
        <time>2013-07-09T14:39:26Z</time>
      </trkpt>
      <trkpt lat="42.770976" lon="-7.297219">
        <ele>912.092</ele>
        <time>2013-07-09T14:39:32Z</time>
      </trkpt>
      <trkpt lat="42.770895" lon="-7.297286">
        <ele>912.062</ele>
        <time>2013-07-09T14:39:39Z</time>
      </trkpt>
      <trkpt lat="42.770857" lon="-7.297352">
        <ele>910.077</ele>
        <time>2013-07-09T14:39:49Z</time>
      </trkpt>
      <trkpt lat="42.770795" lon="-7.297456">
        <ele>910.061</ele>
        <time>2013-07-09T14:39:59Z</time>
      </trkpt>
      <trkpt lat="42.770719" lon="-7.297542">
        <ele>910.027</ele>
        <time>2013-07-09T14:40:07Z</time>
      </trkpt>
      <trkpt lat="42.770644" lon="-7.297640">
        <ele>909.007</ele>
        <time>2013-07-09T14:40:15Z</time>
      </trkpt>
      <trkpt lat="42.770575" lon="-7.297728">
        <ele>908.091</ele>
        <time>2013-07-09T14:40:21Z</time>
      </trkpt>
      <trkpt lat="42.770501" lon="-7.297808">
        <ele>908.025</ele>
        <time>2013-07-09T14:40:28Z</time>
      </trkpt>
      <trkpt lat="42.770432" lon="-7.297907">
        <ele>907.048</ele>
        <time>2013-07-09T14:40:37Z</time>
      </trkpt>
      <trkpt lat="42.770370" lon="-7.298003">
        <ele>906.052</ele>
        <time>2013-07-09T14:40:44Z</time>
      </trkpt>
      <trkpt lat="42.770304" lon="-7.298092">
        <ele>906.060</ele>
        <time>2013-07-09T14:40:51Z</time>
      </trkpt>
      <trkpt lat="42.770275" lon="-7.298193">
        <ele>904.050</ele>
        <time>2013-07-09T14:41:01Z</time>
      </trkpt>
      <trkpt lat="42.770199" lon="-7.298264">
        <ele>901.060</ele>
        <time>2013-07-09T14:41:11Z</time>
      </trkpt>
      <trkpt lat="42.770135" lon="-7.298361">
        <ele>898.024</ele>
        <time>2013-07-09T14:41:19Z</time>
      </trkpt>
      <trkpt lat="42.770053" lon="-7.298439">
        <ele>897.004</ele>
        <time>2013-07-09T14:41:28Z</time>
      </trkpt>
      <trkpt lat="42.769992" lon="-7.298535">
        <ele>895.014</ele>
        <time>2013-07-09T14:41:35Z</time>
      </trkpt>
      <trkpt lat="42.769899" lon="-7.298577">
        <ele>894.007</ele>
        <time>2013-07-09T14:41:45Z</time>
      </trkpt>
      <trkpt lat="42.769838" lon="-7.298643">
        <ele>893.076</ele>
        <time>2013-07-09T14:41:55Z</time>
      </trkpt>
      <trkpt lat="42.769765" lon="-7.298713">
        <ele>893.050</ele>
        <time>2013-07-09T14:42:05Z</time>
      </trkpt>
      <trkpt lat="42.769695" lon="-7.298777">
        <ele>893.073</ele>
        <time>2013-07-09T14:42:15Z</time>
      </trkpt>
      <trkpt lat="42.769603" lon="-7.298821">
        <ele>893.077</ele>
        <time>2013-07-09T14:42:22Z</time>
      </trkpt>
      <trkpt lat="42.769552" lon="-7.298892">
        <ele>893.095</ele>
        <time>2013-07-09T14:42:32Z</time>
      </trkpt>
      <trkpt lat="42.769478" lon="-7.298964">
        <ele>892.035</ele>
        <time>2013-07-09T14:42:42Z</time>
      </trkpt>
      <trkpt lat="42.769411" lon="-7.299056">
        <ele>892.095</ele>
        <time>2013-07-09T14:42:49Z</time>
      </trkpt>
      <trkpt lat="42.769385" lon="-7.299177">
        <ele>891.084</ele>
        <time>2013-07-09T14:42:58Z</time>
      </trkpt>
      <trkpt lat="42.769351" lon="-7.299239">
        <ele>888.007</ele>
        <time>2013-07-09T14:43:19Z</time>
      </trkpt>
      <trkpt lat="42.769311" lon="-7.299274">
        <ele>887.017</ele>
        <time>2013-07-09T14:43:36Z</time>
      </trkpt>
      <trkpt lat="42.769267" lon="-7.299297">
        <ele>886.007</ele>
        <time>2013-07-09T14:43:56Z</time>
      </trkpt>
      <trkpt lat="42.769202" lon="-7.299373">
        <ele>886.062</ele>
        <time>2013-07-09T14:44:06Z</time>
      </trkpt>
      <trkpt lat="42.769134" lon="-7.299465">
        <ele>885.036</ele>
        <time>2013-07-09T14:44:12Z</time>
      </trkpt>
      <trkpt lat="42.769081" lon="-7.299554">
        <ele>884.079</ele>
        <time>2013-07-09T14:44:22Z</time>
      </trkpt>
      <trkpt lat="42.769010" lon="-7.299600">
        <ele>884.023</ele>
        <time>2013-07-09T14:44:32Z</time>
      </trkpt>
      <trkpt lat="42.768917" lon="-7.299601">
        <ele>883.051</ele>
        <time>2013-07-09T14:44:40Z</time>
      </trkpt>
      <trkpt lat="42.768895" lon="-7.299708">
        <ele>883.051</ele>
        <time>2013-07-09T14:44:50Z</time>
      </trkpt>
      <trkpt lat="42.768883" lon="-7.299772">
        <ele>881.091</ele>
        <time>2013-07-09T14:45:04Z</time>
      </trkpt>
      <trkpt lat="42.768810" lon="-7.299867">
        <ele>880.021</ele>
        <time>2013-07-09T14:45:08Z</time>
      </trkpt>
      <trkpt lat="42.768760" lon="-7.299950">
        <ele>879.041</ele>
        <time>2013-07-09T14:45:18Z</time>
      </trkpt>
      <trkpt lat="42.768713" lon="-7.299941">
        <ele>878.005</ele>
        <time>2013-07-09T14:45:42Z</time>
      </trkpt>
      <trkpt lat="42.768635" lon="-7.299967">
        <ele>878.007</ele>
        <time>2013-07-09T14:45:52Z</time>
      </trkpt>
      <trkpt lat="42.768597" lon="-7.300008">
        <ele>878.046</ele>
        <time>2013-07-09T14:46:06Z</time>
      </trkpt>
      <trkpt lat="42.768556" lon="-7.300051">
        <ele>877.030</ele>
        <time>2013-07-09T14:46:16Z</time>
      </trkpt>
      <trkpt lat="42.768514" lon="-7.300081">
        <ele>877.023</ele>
        <time>2013-07-09T14:46:26Z</time>
      </trkpt>
      <trkpt lat="42.768412" lon="-7.300119">
        <ele>876.017</ele>
        <time>2013-07-09T14:46:33Z</time>
      </trkpt>
      <trkpt lat="42.768343" lon="-7.300206">
        <ele>876.065</ele>
        <time>2013-07-09T14:46:40Z</time>
      </trkpt>
      <trkpt lat="42.768284" lon="-7.300313">
        <ele>874.075</ele>
        <time>2013-07-09T14:46:49Z</time>
      </trkpt>
      <trkpt lat="42.768241" lon="-7.300398">
        <ele>872.075</ele>
        <time>2013-07-09T14:46:59Z</time>
      </trkpt>
      <trkpt lat="42.768284" lon="-7.300468">
        <ele>870.063</ele>
        <time>2013-07-09T14:47:09Z</time>
      </trkpt>
      <trkpt lat="42.768256" lon="-7.300591">
        <ele>868.044</ele>
        <time>2013-07-09T14:47:18Z</time>
      </trkpt>
      <trkpt lat="42.768235" lon="-7.300718">
        <ele>868.018</ele>
        <time>2013-07-09T14:47:26Z</time>
      </trkpt>
      <trkpt lat="42.768202" lon="-7.300844">
        <ele>868.007</ele>
        <time>2013-07-09T14:47:34Z</time>
      </trkpt>
      <trkpt lat="42.768198" lon="-7.300931">
        <ele>867.050</ele>
        <time>2013-07-09T14:47:44Z</time>
      </trkpt>
      <trkpt lat="42.768138" lon="-7.301028">
        <ele>867.014</ele>
        <time>2013-07-09T14:47:51Z</time>
      </trkpt>
      <trkpt lat="42.768084" lon="-7.301038">
        <ele>867.097</ele>
        <time>2013-07-09T14:48:01Z</time>
      </trkpt>
      <trkpt lat="42.768003" lon="-7.301050">
        <ele>867.091</ele>
        <time>2013-07-09T14:48:11Z</time>
      </trkpt>
      <trkpt lat="42.768021" lon="-7.301199">
        <ele>865.039</ele>
        <time>2013-07-09T14:48:19Z</time>
      </trkpt>
      <trkpt lat="42.768083" lon="-7.301283">
        <ele>863.039</ele>
        <time>2013-07-09T14:48:29Z</time>
      </trkpt>
      <trkpt lat="42.768053" lon="-7.301338">
        <ele>862.059</ele>
        <time>2013-07-09T14:48:39Z</time>
      </trkpt>
      <trkpt lat="42.768038" lon="-7.301397">
        <ele>861.057</ele>
        <time>2013-07-09T14:48:58Z</time>
      </trkpt>
      <trkpt lat="42.768069" lon="-7.301489">
        <ele>860.000</ele>
        <time>2013-07-09T14:49:08Z</time>
      </trkpt>
      <trkpt lat="42.768074" lon="-7.301615">
        <ele>860.020</ele>
        <time>2013-07-09T14:49:16Z</time>
      </trkpt>
      <trkpt lat="42.768134" lon="-7.301713">
        <ele>860.007</ele>
        <time>2013-07-09T14:49:21Z</time>
      </trkpt>
      <trkpt lat="42.768153" lon="-7.301837">
        <ele>860.099</ele>
        <time>2013-07-09T14:49:29Z</time>
      </trkpt>
      <trkpt lat="42.768082" lon="-7.301918">
        <ele>860.073</ele>
        <time>2013-07-09T14:49:35Z</time>
      </trkpt>
      <trkpt lat="42.768007" lon="-7.301992">
        <ele>859.066</ele>
        <time>2013-07-09T14:49:42Z</time>
      </trkpt>
      <trkpt lat="42.767941" lon="-7.302095">
        <ele>859.030</ele>
        <time>2013-07-09T14:49:52Z</time>
      </trkpt>
      <trkpt lat="42.767911" lon="-7.302222">
        <ele>858.078</ele>
        <time>2013-07-09T14:50:00Z</time>
      </trkpt>
      <trkpt lat="42.767848" lon="-7.302330">
        <ele>858.028</ele>
        <time>2013-07-09T14:50:09Z</time>
      </trkpt>
      <trkpt lat="42.767789" lon="-7.302431">
        <ele>857.068</ele>
        <time>2013-07-09T14:50:16Z</time>
      </trkpt>
      <trkpt lat="42.767790" lon="-7.302522">
        <ele>856.037</ele>
        <time>2013-07-09T14:50:26Z</time>
      </trkpt>
      <trkpt lat="42.767770" lon="-7.302643">
        <ele>855.049</ele>
        <time>2013-07-09T14:50:32Z</time>
      </trkpt>
      <trkpt lat="42.767725" lon="-7.302759">
        <ele>854.013</ele>
        <time>2013-07-09T14:50:39Z</time>
      </trkpt>
      <trkpt lat="42.767696" lon="-7.302710">
        <ele>852.007</ele>
        <time>2013-07-09T14:50:50Z</time>
      </trkpt>
      <trkpt lat="42.767614" lon="-7.302690">
        <ele>850.067</ele>
        <time>2013-07-09T14:51:00Z</time>
      </trkpt>
      <trkpt lat="42.767523" lon="-7.302713">
        <ele>848.091</ele>
        <time>2013-07-09T14:51:08Z</time>
      </trkpt>
      <trkpt lat="42.767464" lon="-7.302805">
        <ele>847.084</ele>
        <time>2013-07-09T14:51:14Z</time>
      </trkpt>
      <trkpt lat="42.767376" lon="-7.302841">
        <ele>844.098</ele>
        <time>2013-07-09T14:51:23Z</time>
      </trkpt>
      <trkpt lat="42.767388" lon="-7.302928">
        <ele>843.056</ele>
        <time>2013-07-09T14:51:33Z</time>
      </trkpt>
      <trkpt lat="42.767414" lon="-7.302988">
        <ele>843.046</ele>
        <time>2013-07-09T14:51:45Z</time>
      </trkpt>
      <trkpt lat="42.767548" lon="-7.303085">
        <ele>842.096</ele>
        <time>2013-07-09T14:51:52Z</time>
      </trkpt>
      <trkpt lat="42.767606" lon="-7.303183">
        <ele>840.034</ele>
        <time>2013-07-09T14:51:54Z</time>
      </trkpt>
      <trkpt lat="42.767652" lon="-7.303302">
        <ele>837.055</ele>
        <time>2013-07-09T14:52:02Z</time>
      </trkpt>
      <trkpt lat="42.767708" lon="-7.303403">
        <ele>834.010</ele>
        <time>2013-07-09T14:52:12Z</time>
      </trkpt>
      <trkpt lat="42.767775" lon="-7.303496">
        <ele>826.007</ele>
        <time>2013-07-09T14:52:21Z</time>
      </trkpt>
      <trkpt lat="42.767838" lon="-7.303599">
        <ele>821.027</ele>
        <time>2013-07-09T14:52:28Z</time>
      </trkpt>
      <trkpt lat="42.767884" lon="-7.303708">
        <ele>819.041</ele>
        <time>2013-07-09T14:52:37Z</time>
      </trkpt>
      <trkpt lat="42.767960" lon="-7.303783">
        <ele>817.034</ele>
        <time>2013-07-09T14:52:46Z</time>
      </trkpt>
      <trkpt lat="42.768022" lon="-7.303872">
        <ele>816.018</ele>
        <time>2013-07-09T14:52:54Z</time>
      </trkpt>
      <trkpt lat="42.768085" lon="-7.303963">
        <ele>815.096</ele>
        <time>2013-07-09T14:53:01Z</time>
      </trkpt>
      <trkpt lat="42.768102" lon="-7.304059">
        <ele>815.086</ele>
        <time>2013-07-09T14:53:11Z</time>
      </trkpt>
      <trkpt lat="42.768134" lon="-7.304174">
        <ele>814.056</ele>
        <time>2013-07-09T14:53:21Z</time>
      </trkpt>
      <trkpt lat="42.768200" lon="-7.304267">
        <ele>814.086</ele>
        <time>2013-07-09T14:53:30Z</time>
      </trkpt>
      <trkpt lat="42.768247" lon="-7.304290">
        <ele>815.060</ele>
        <time>2013-07-09T14:53:43Z</time>
      </trkpt>
      <trkpt lat="42.768328" lon="-7.304353">
        <ele>815.026</ele>
        <time>2013-07-09T14:53:53Z</time>
      </trkpt>
      <trkpt lat="42.768355" lon="-7.304417">
        <ele>816.007</ele>
        <time>2013-07-09T14:54:03Z</time>
      </trkpt>
      <trkpt lat="42.768429" lon="-7.304506">
        <ele>816.022</ele>
        <time>2013-07-09T14:54:10Z</time>
      </trkpt>
      <trkpt lat="42.768490" lon="-7.304622">
        <ele>815.096</ele>
        <time>2013-07-09T14:54:16Z</time>
      </trkpt>
      <trkpt lat="42.768554" lon="-7.304731">
        <ele>816.069</ele>
        <time>2013-07-09T14:54:22Z</time>
      </trkpt>
      <trkpt lat="42.768591" lon="-7.304849">
        <ele>817.043</ele>
        <time>2013-07-09T14:54:28Z</time>
      </trkpt>
      <trkpt lat="42.768575" lon="-7.304961">
        <ele>819.011</ele>
        <time>2013-07-09T14:54:38Z</time>
      </trkpt>
      <trkpt lat="42.768586" lon="-7.305089">
        <ele>819.021</ele>
        <time>2013-07-09T14:54:45Z</time>
      </trkpt>
      <trkpt lat="42.768606" lon="-7.305225">
        <ele>820.011</ele>
        <time>2013-07-09T14:54:51Z</time>
      </trkpt>
      <trkpt lat="42.768573" lon="-7.305353">
        <ele>822.091</ele>
        <time>2013-07-09T14:54:58Z</time>
      </trkpt>
      <trkpt lat="42.768514" lon="-7.305427">
        <ele>822.081</ele>
        <time>2013-07-09T14:55:08Z</time>
      </trkpt>
      <trkpt lat="42.768441" lon="-7.305512">
        <ele>822.019</ele>
        <time>2013-07-09T14:55:16Z</time>
      </trkpt>
      <trkpt lat="42.768393" lon="-7.305609">
        <ele>821.007</ele>
        <time>2013-07-09T14:55:26Z</time>
      </trkpt>
      <trkpt lat="42.768346" lon="-7.305688">
        <ele>821.043</ele>
        <time>2013-07-09T14:55:36Z</time>
      </trkpt>
      <trkpt lat="42.768298" lon="-7.305804">
        <ele>821.097</ele>
        <time>2013-07-09T14:55:44Z</time>
      </trkpt>
      <trkpt lat="42.768253" lon="-7.305922">
        <ele>821.060</ele>
        <time>2013-07-09T14:55:53Z</time>
      </trkpt>
      <trkpt lat="42.768184" lon="-7.306029">
        <ele>822.034</ele>
        <time>2013-07-09T14:56:00Z</time>
      </trkpt>
      <trkpt lat="42.768101" lon="-7.306093">
        <ele>822.022</ele>
        <time>2013-07-09T14:56:05Z</time>
      </trkpt>
      <trkpt lat="42.768029" lon="-7.306187">
        <ele>823.052</ele>
        <time>2013-07-09T14:56:13Z</time>
      </trkpt>
      <trkpt lat="42.767955" lon="-7.306273">
        <ele>823.062</ele>
        <time>2013-07-09T14:56:20Z</time>
      </trkpt>
      <trkpt lat="42.767929" lon="-7.306391">
        <ele>823.099</ele>
        <time>2013-07-09T14:56:27Z</time>
      </trkpt>
      <trkpt lat="42.767897" lon="-7.306516">
        <ele>823.007</ele>
        <time>2013-07-09T14:56:34Z</time>
      </trkpt>
      <trkpt lat="42.767906" lon="-7.306638">
        <ele>823.027</ele>
        <time>2013-07-09T14:56:43Z</time>
      </trkpt>
      <trkpt lat="42.767933" lon="-7.306780">
        <ele>820.007</ele>
        <time>2013-07-09T14:56:50Z</time>
      </trkpt>
      <trkpt lat="42.767958" lon="-7.306905">
        <ele>814.023</ele>
        <time>2013-07-09T14:56:58Z</time>
      </trkpt>
      <trkpt lat="42.767904" lon="-7.306947">
        <ele>812.057</ele>
        <time>2013-07-09T14:57:08Z</time>
      </trkpt>
      <trkpt lat="42.767911" lon="-7.307039">
        <ele>810.050</ele>
        <time>2013-07-09T14:57:18Z</time>
      </trkpt>
      <trkpt lat="42.767849" lon="-7.307144">
        <ele>809.064</ele>
        <time>2013-07-09T14:57:28Z</time>
      </trkpt>
      <trkpt lat="42.767763" lon="-7.307217">
        <ele>808.042</ele>
        <time>2013-07-09T14:57:37Z</time>
      </trkpt>
      <trkpt lat="42.767688" lon="-7.307294">
        <ele>807.052</ele>
        <time>2013-07-09T14:57:46Z</time>
      </trkpt>
      <trkpt lat="42.767639" lon="-7.307386">
        <ele>808.042</ele>
        <time>2013-07-09T14:57:56Z</time>
      </trkpt>
      <trkpt lat="42.767692" lon="-7.307496">
        <ele>809.045</ele>
        <time>2013-07-09T14:58:02Z</time>
      </trkpt>
      <trkpt lat="42.767739" lon="-7.307605">
        <ele>809.047</ele>
        <time>2013-07-09T14:58:11Z</time>
      </trkpt>
      <trkpt lat="42.767799" lon="-7.307723">
        <ele>809.011</ele>
        <time>2013-07-09T14:58:15Z</time>
      </trkpt>
      <trkpt lat="42.767858" lon="-7.307827">
        <ele>806.007</ele>
        <time>2013-07-09T14:58:19Z</time>
      </trkpt>
      <trkpt lat="42.767886" lon="-7.307888">
        <ele>803.028</ele>
        <time>2013-07-09T14:58:39Z</time>
      </trkpt>
      <trkpt lat="42.767943" lon="-7.307974">
        <ele>802.042</ele>
        <time>2013-07-09T14:58:49Z</time>
      </trkpt>
      <trkpt lat="42.767990" lon="-7.307974">
        <ele>802.015</ele>
        <time>2013-07-09T14:59:26Z</time>
      </trkpt>
      <trkpt lat="42.768067" lon="-7.308040">
        <ele>802.069</ele>
        <time>2013-07-09T14:59:35Z</time>
      </trkpt>
      <trkpt lat="42.768104" lon="-7.308078">
        <ele>802.047</ele>
        <time>2013-07-09T14:59:45Z</time>
      </trkpt>
      <trkpt lat="42.768116" lon="-7.308150">
        <ele>802.027</ele>
        <time>2013-07-09T14:59:55Z</time>
      </trkpt>
      <trkpt lat="42.768197" lon="-7.308229">
        <ele>803.047</ele>
        <time>2013-07-09T15:00:05Z</time>
      </trkpt>
      <trkpt lat="42.768229" lon="-7.308396">
        <ele>802.085</ele>
        <time>2013-07-09T15:00:08Z</time>
      </trkpt>
      <trkpt lat="42.768315" lon="-7.308494">
        <ele>801.089</ele>
        <time>2013-07-09T15:00:09Z</time>
      </trkpt>
      <trkpt lat="42.768372" lon="-7.308598">
        <ele>799.017</ele>
        <time>2013-07-09T15:00:13Z</time>
      </trkpt>
      <trkpt lat="42.768415" lon="-7.308716">
        <ele>798.007</ele>
        <time>2013-07-09T15:00:19Z</time>
      </trkpt>
      <trkpt lat="42.768449" lon="-7.308840">
        <ele>796.092</ele>
        <time>2013-07-09T15:00:26Z</time>
      </trkpt>
      <trkpt lat="42.768488" lon="-7.308877">
        <ele>796.016</ele>
        <time>2013-07-09T15:00:38Z</time>
      </trkpt>
      <trkpt lat="42.768538" lon="-7.308878">
        <ele>796.019</ele>
        <time>2013-07-09T15:00:48Z</time>
      </trkpt>
      <trkpt lat="42.768584" lon="-7.308937">
        <ele>796.073</ele>
        <time>2013-07-09T15:00:58Z</time>
      </trkpt>
      <trkpt lat="42.768620" lon="-7.309064">
        <ele>795.011</ele>
        <time>2013-07-09T15:01:08Z</time>
      </trkpt>
      <trkpt lat="42.768701" lon="-7.309135">
        <ele>795.071</ele>
        <time>2013-07-09T15:01:18Z</time>
      </trkpt>
      <trkpt lat="42.768714" lon="-7.309282">
        <ele>795.081</ele>
        <time>2013-07-09T15:01:23Z</time>
      </trkpt>
      <trkpt lat="42.768762" lon="-7.309402">
        <ele>794.015</ele>
        <time>2013-07-09T15:01:27Z</time>
      </trkpt>
      <trkpt lat="42.768793" lon="-7.309526">
        <ele>793.065</ele>
        <time>2013-07-09T15:01:35Z</time>
      </trkpt>
      <trkpt lat="42.768853" lon="-7.309608">
        <ele>792.011</ele>
        <time>2013-07-09T15:01:45Z</time>
      </trkpt>
      <trkpt lat="42.768904" lon="-7.309641">
        <ele>791.007</ele>
        <time>2013-07-09T15:01:55Z</time>
      </trkpt>
      <trkpt lat="42.768954" lon="-7.309671">
        <ele>789.055</ele>
        <time>2013-07-09T15:02:12Z</time>
      </trkpt>
      <trkpt lat="42.769027" lon="-7.309730">
        <ele>789.029</ele>
        <time>2013-07-09T15:02:22Z</time>
      </trkpt>
      <trkpt lat="42.769118" lon="-7.309781">
        <ele>789.092</ele>
        <time>2013-07-09T15:02:31Z</time>
      </trkpt>
      <trkpt lat="42.769200" lon="-7.309850">
        <ele>788.096</ele>
        <time>2013-07-09T15:02:38Z</time>
      </trkpt>
      <trkpt lat="42.769244" lon="-7.309956">
        <ele>788.094</ele>
        <time>2013-07-09T15:02:48Z</time>
      </trkpt>
      <trkpt lat="42.769330" lon="-7.310012">
        <ele>787.044</ele>
        <time>2013-07-09T15:02:56Z</time>
      </trkpt>
      <trkpt lat="42.769423" lon="-7.310073">
        <ele>787.094</ele>
        <time>2013-07-09T15:03:03Z</time>
      </trkpt>
      <trkpt lat="42.769508" lon="-7.310142">
        <ele>786.028</ele>
        <time>2013-07-09T15:03:12Z</time>
      </trkpt>
      <trkpt lat="42.769591" lon="-7.310176">
        <ele>786.089</ele>
        <time>2013-07-09T15:03:22Z</time>
      </trkpt>
      <trkpt lat="42.769637" lon="-7.310205">
        <ele>786.017</ele>
        <time>2013-07-09T15:03:32Z</time>
      </trkpt>
      <trkpt lat="42.769692" lon="-7.310200">
        <ele>785.007</ele>
        <time>2013-07-09T15:03:42Z</time>
      </trkpt>
      <trkpt lat="42.769763" lon="-7.310296">
        <ele>785.066</ele>
        <time>2013-07-09T15:03:51Z</time>
      </trkpt>
      <trkpt lat="42.769847" lon="-7.310350">
        <ele>785.030</ele>
        <time>2013-07-09T15:04:00Z</time>
      </trkpt>
      <trkpt lat="42.769926" lon="-7.310427">
        <ele>784.043</ele>
        <time>2013-07-09T15:04:09Z</time>
      </trkpt>
      <trkpt lat="42.770009" lon="-7.310487">
        <ele>784.087</ele>
        <time>2013-07-09T15:04:15Z</time>
      </trkpt>
      <trkpt lat="42.770080" lon="-7.310568">
        <ele>784.015</ele>
        <time>2013-07-09T15:04:19Z</time>
      </trkpt>
      <trkpt lat="42.770159" lon="-7.310653">
        <ele>784.035</ele>
        <time>2013-07-09T15:04:25Z</time>
      </trkpt>
      <trkpt lat="42.770243" lon="-7.310709">
        <ele>783.025</ele>
        <time>2013-07-09T15:04:34Z</time>
      </trkpt>
      <trkpt lat="42.770329" lon="-7.310791">
        <ele>783.091</ele>
        <time>2013-07-09T15:04:42Z</time>
      </trkpt>
      <trkpt lat="42.770418" lon="-7.310836">
        <ele>783.081</ele>
        <time>2013-07-09T15:04:52Z</time>
      </trkpt>
      <trkpt lat="42.770489" lon="-7.310753">
        <ele>783.019</ele>
        <time>2013-07-09T15:05:00Z</time>
      </trkpt>
      <trkpt lat="42.770578" lon="-7.310674">
        <ele>782.007</ele>
        <time>2013-07-09T15:05:07Z</time>
      </trkpt>
      <trkpt lat="42.770681" lon="-7.310587">
        <ele>782.083</ele>
        <time>2013-07-09T15:05:09Z</time>
      </trkpt>
      <trkpt lat="42.770779" lon="-7.310612">
        <ele>781.037</ele>
        <time>2013-07-09T15:05:11Z</time>
      </trkpt>
      <trkpt lat="42.770884" lon="-7.310622">
        <ele>778.040</ele>
        <time>2013-07-09T15:05:16Z</time>
      </trkpt>
      <trkpt lat="42.770988" lon="-7.310644">
        <ele>774.014</ele>
        <time>2013-07-09T15:05:23Z</time>
      </trkpt>
      <trkpt lat="42.771077" lon="-7.310616">
        <ele>772.022</ele>
        <time>2013-07-09T15:05:28Z</time>
      </trkpt>
      <trkpt lat="42.771110" lon="-7.310512">
        <ele>763.092</ele>
        <time>2013-07-09T15:05:38Z</time>
      </trkpt>
      <trkpt lat="42.771147" lon="-7.310570">
        <ele>763.062</ele>
        <time>2013-07-09T15:05:48Z</time>
      </trkpt>
      <trkpt lat="42.771227" lon="-7.310651">
        <ele>763.064</ele>
        <time>2013-07-09T15:05:56Z</time>
      </trkpt>
      <trkpt lat="42.771330" lon="-7.310638">
        <ele>763.006</ele>
        <time>2013-07-09T15:06:04Z</time>
      </trkpt>
      <trkpt lat="42.771444" lon="-7.310637">
        <ele>762.016</ele>
        <time>2013-07-09T15:06:12Z</time>
      </trkpt>
      <trkpt lat="42.771530" lon="-7.310593">
        <ele>762.007</ele>
        <time>2013-07-09T15:06:21Z</time>
      </trkpt>
      <trkpt lat="42.771582" lon="-7.310560">
        <ele>762.050</ele>
        <time>2013-07-09T15:06:31Z</time>
      </trkpt>
      <trkpt lat="42.771666" lon="-7.310546">
        <ele>763.034</ele>
        <time>2013-07-09T15:06:42Z</time>
      </trkpt>
      <trkpt lat="42.771759" lon="-7.310560">
        <ele>763.067</ele>
        <time>2013-07-09T15:06:49Z</time>
      </trkpt>
      <trkpt lat="42.771848" lon="-7.310577">
        <ele>763.011</ele>
        <time>2013-07-09T15:06:53Z</time>
      </trkpt>
      <trkpt lat="42.771928" lon="-7.310512">
        <ele>762.029</ele>
        <time>2013-07-09T15:07:00Z</time>
      </trkpt>
      <trkpt lat="42.772018" lon="-7.310448">
        <ele>762.069</ele>
        <time>2013-07-09T15:07:06Z</time>
      </trkpt>
      <trkpt lat="42.772151" lon="-7.310326">
        <ele>761.059</ele>
        <time>2013-07-09T15:07:11Z</time>
      </trkpt>
      <trkpt lat="42.772235" lon="-7.310231">
        <ele>759.069</ele>
        <time>2013-07-09T15:07:15Z</time>
      </trkpt>
      <trkpt lat="42.772320" lon="-7.310183">
        <ele>755.004</ele>
        <time>2013-07-09T15:07:23Z</time>
      </trkpt>
      <trkpt lat="42.772385" lon="-7.310203">
        <ele>751.024</ele>
        <time>2013-07-09T15:07:38Z</time>
      </trkpt>
      <trkpt lat="42.772441" lon="-7.310275">
        <ele>750.007</ele>
        <time>2013-07-09T15:07:48Z</time>
      </trkpt>
      <trkpt lat="42.772474" lon="-7.310226">
        <ele>750.010</ele>
        <time>2013-07-09T15:08:00Z</time>
      </trkpt>
      <trkpt lat="42.772563" lon="-7.310247">
        <ele>751.054</ele>
        <time>2013-07-09T15:08:07Z</time>
      </trkpt>
      <trkpt lat="42.772625" lon="-7.310226">
        <ele>750.077</ele>
        <time>2013-07-09T15:08:17Z</time>
      </trkpt>
      <trkpt lat="42.772580" lon="-7.310145">
        <ele>750.071</ele>
        <time>2013-07-09T15:08:27Z</time>
      </trkpt>
      <trkpt lat="42.772660" lon="-7.310071">
        <ele>749.049</ele>
        <time>2013-07-09T15:08:37Z</time>
      </trkpt>
      <trkpt lat="42.772701" lon="-7.309935">
        <ele>748.099</ele>
        <time>2013-07-09T15:08:43Z</time>
      </trkpt>
      <trkpt lat="42.772803" lon="-7.309904">
        <ele>748.069</ele>
        <time>2013-07-09T15:08:48Z</time>
      </trkpt>
      <trkpt lat="42.772878" lon="-7.309819">
        <ele>747.042</ele>
        <time>2013-07-09T15:08:57Z</time>
      </trkpt>
      <trkpt lat="42.772897" lon="-7.309732">
        <ele>745.022</ele>
        <time>2013-07-09T15:09:07Z</time>
      </trkpt>
      <trkpt lat="42.772872" lon="-7.309794">
        <ele>745.014</ele>
        <time>2013-07-09T15:09:17Z</time>
      </trkpt>
      <trkpt lat="42.772854" lon="-7.309908">
        <ele>743.007</ele>
        <time>2013-07-09T15:09:27Z</time>
      </trkpt>
      <trkpt lat="42.772762" lon="-7.309965">
        <ele>743.048</ele>
        <time>2013-07-09T15:09:28Z</time>
      </trkpt>
      <trkpt lat="42.772729" lon="-7.310084">
        <ele>738.032</ele>
        <time>2013-07-09T15:09:32Z</time>
      </trkpt>
      <trkpt lat="42.772690" lon="-7.310214">
        <ele>732.085</ele>
        <time>2013-07-09T15:09:40Z</time>
      </trkpt>
      <trkpt lat="42.772598" lon="-7.310254">
        <ele>728.029</ele>
        <time>2013-07-09T15:09:48Z</time>
      </trkpt>
      <trkpt lat="42.772508" lon="-7.310270">
        <ele>727.097</ele>
        <time>2013-07-09T15:09:56Z</time>
      </trkpt>
      <trkpt lat="42.772441" lon="-7.310331">
        <ele>726.067</ele>
        <time>2013-07-09T15:10:06Z</time>
      </trkpt>
      <trkpt lat="42.772420" lon="-7.310387">
        <ele>726.027</ele>
        <time>2013-07-09T15:10:19Z</time>
      </trkpt>
      <trkpt lat="42.772391" lon="-7.310498">
        <ele>726.033</ele>
        <time>2013-07-09T15:10:29Z</time>
      </trkpt>
      <trkpt lat="42.772362" lon="-7.310580">
        <ele>726.023</ele>
        <time>2013-07-09T15:10:39Z</time>
      </trkpt>
      <trkpt lat="42.772284" lon="-7.310661">
        <ele>726.015</ele>
        <time>2013-07-09T15:10:44Z</time>
      </trkpt>
      <trkpt lat="42.772211" lon="-7.310749">
        <ele>726.007</ele>
        <time>2013-07-09T15:10:50Z</time>
      </trkpt>
      <trkpt lat="42.772104" lon="-7.310805">
        <ele>725.037</ele>
        <time>2013-07-09T15:10:56Z</time>
      </trkpt>
      <trkpt lat="42.772030" lon="-7.310881">
        <ele>725.051</ele>
        <time>2013-07-09T15:11:04Z</time>
      </trkpt>
      <trkpt lat="42.771957" lon="-7.310970">
        <ele>725.084</ele>
        <time>2013-07-09T15:11:12Z</time>
      </trkpt>
      <trkpt lat="42.771862" lon="-7.311005">
        <ele>725.098</ele>
        <time>2013-07-09T15:11:22Z</time>
      </trkpt>
      <trkpt lat="42.771770" lon="-7.310989">
        <ele>726.096</ele>
        <time>2013-07-09T15:11:28Z</time>
      </trkpt>
      <trkpt lat="42.771674" lon="-7.311013">
        <ele>727.056</ele>
        <time>2013-07-09T15:11:31Z</time>
      </trkpt>
      <trkpt lat="42.771581" lon="-7.311069">
        <ele>727.046</ele>
        <time>2013-07-09T15:11:36Z</time>
      </trkpt>
      <trkpt lat="42.771527" lon="-7.311172">
        <ele>726.052</ele>
        <time>2013-07-09T15:11:43Z</time>
      </trkpt>
      <trkpt lat="42.771448" lon="-7.311236">
        <ele>726.053</ele>
        <time>2013-07-09T15:11:50Z</time>
      </trkpt>
      <trkpt lat="42.771354" lon="-7.311263">
        <ele>726.008</ele>
        <time>2013-07-09T15:11:59Z</time>
      </trkpt>
      <trkpt lat="42.771327" lon="-7.311435">
        <ele>724.007</ele>
        <time>2013-07-09T15:12:09Z</time>
      </trkpt>
      <trkpt lat="42.771236" lon="-7.311453">
        <ele>724.019</ele>
        <time>2013-07-09T15:12:16Z</time>
      </trkpt>
      <trkpt lat="42.771190" lon="-7.311466">
        <ele>724.063</ele>
        <time>2013-07-09T15:12:26Z</time>
      </trkpt>
      <trkpt lat="42.771247" lon="-7.311478">
        <ele>724.076</ele>
        <time>2013-07-09T15:12:44Z</time>
      </trkpt>
      <trkpt lat="42.771291" lon="-7.311386">
        <ele>723.080</ele>
        <time>2013-07-09T15:12:54Z</time>
      </trkpt>
      <trkpt lat="42.771287" lon="-7.311447">
        <ele>723.088</ele>
        <time>2013-07-09T15:13:04Z</time>
      </trkpt>
      <trkpt lat="42.771257" lon="-7.311501">
        <ele>723.018</ele>
        <time>2013-07-09T15:13:14Z</time>
      </trkpt>
      <trkpt lat="42.771317" lon="-7.311500">
        <ele>723.038</ele>
        <time>2013-07-09T15:13:44Z</time>
      </trkpt>
      <trkpt lat="42.771382" lon="-7.311584">
        <ele>723.012</ele>
        <time>2013-07-09T15:13:54Z</time>
      </trkpt>
      <trkpt lat="42.771393" lon="-7.311664">
        <ele>723.032</ele>
        <time>2013-07-09T15:14:04Z</time>
      </trkpt>
      <trkpt lat="42.771433" lon="-7.311506">
        <ele>720.005</ele>
        <time>2013-07-09T15:14:07Z</time>
      </trkpt>
      <trkpt lat="42.771530" lon="-7.311550">
        <ele>719.007</ele>
        <time>2013-07-09T15:14:09Z</time>
      </trkpt>
      <trkpt lat="42.771623" lon="-7.311606">
        <ele>720.035</ele>
        <time>2013-07-09T15:14:12Z</time>
      </trkpt>
      <trkpt lat="42.771669" lon="-7.311564">
        <ele>718.059</ele>
        <time>2013-07-09T15:14:37Z</time>
      </trkpt>
      <trkpt lat="42.771631" lon="-7.311600">
        <ele>715.012</ele>
        <time>2013-07-09T15:15:07Z</time>
      </trkpt>
      <trkpt lat="42.771629" lon="-7.311646">
        <ele>714.076</ele>
        <time>2013-07-09T15:15:47Z</time>
      </trkpt>
      <trkpt lat="42.771642" lon="-7.311707">
        <ele>710.054</ele>
        <time>2013-07-09T15:16:00Z</time>
      </trkpt>
      <trkpt lat="42.771617" lon="-7.311826">
        <ele>710.014</ele>
        <time>2013-07-09T15:16:09Z</time>
      </trkpt>
      <trkpt lat="42.771578" lon="-7.311942">
        <ele>709.054</ele>
        <time>2013-07-09T15:16:18Z</time>
      </trkpt>
      <trkpt lat="42.771541" lon="-7.312060">
        <ele>709.072</ele>
        <time>2013-07-09T15:16:28Z</time>
      </trkpt>
      <trkpt lat="42.771480" lon="-7.312156">
        <ele>709.013</ele>
        <time>2013-07-09T15:16:36Z</time>
      </trkpt>
      <trkpt lat="42.771374" lon="-7.312193">
        <ele>709.014</ele>
        <time>2013-07-09T15:16:45Z</time>
      </trkpt>
      <trkpt lat="42.771314" lon="-7.312304">
        <ele>709.007</ele>
        <time>2013-07-09T15:16:54Z</time>
      </trkpt>
      <trkpt lat="42.771277" lon="-7.312417">
        <ele>708.031</ele>
        <time>2013-07-09T15:17:01Z</time>
      </trkpt>
      <trkpt lat="42.771191" lon="-7.312495">
        <ele>708.025</ele>
        <time>2013-07-09T15:17:08Z</time>
      </trkpt>
      <trkpt lat="42.771142" lon="-7.312552">
        <ele>707.068</ele>
        <time>2013-07-09T15:17:18Z</time>
      </trkpt>
      <trkpt lat="42.771179" lon="-7.312554">
        <ele>707.032</ele>
        <time>2013-07-09T15:17:58Z</time>
      </trkpt>
      <trkpt lat="42.771133" lon="-7.312580">
        <ele>703.010</ele>
        <time>2013-07-09T15:18:21Z</time>
      </trkpt>
      <trkpt lat="42.771076" lon="-7.312685">
        <ele>702.060</ele>
        <time>2013-07-09T15:18:30Z</time>
      </trkpt>
      <trkpt lat="42.771072" lon="-7.312812">
        <ele>701.040</ele>
        <time>2013-07-09T15:18:38Z</time>
      </trkpt>
      <trkpt lat="42.771083" lon="-7.312938">
        <ele>701.089</ele>
        <time>2013-07-09T15:18:45Z</time>
      </trkpt>
      <trkpt lat="42.771069" lon="-7.313061">
        <ele>702.006</ele>
        <time>2013-07-09T15:18:51Z</time>
      </trkpt>
      <trkpt lat="42.771020" lon="-7.313168">
        <ele>702.026</ele>
        <time>2013-07-09T15:18:59Z</time>
      </trkpt>
      <trkpt lat="42.770999" lon="-7.313299">
        <ele>702.007</ele>
        <time>2013-07-09T15:19:07Z</time>
      </trkpt>
      <trkpt lat="42.770970" lon="-7.313422">
        <ele>701.072</ele>
        <time>2013-07-09T15:19:15Z</time>
      </trkpt>
      <trkpt lat="42.770936" lon="-7.313551">
        <ele>701.056</ele>
        <time>2013-07-09T15:19:23Z</time>
      </trkpt>
      <trkpt lat="42.770906" lon="-7.313683">
        <ele>700.099</ele>
        <time>2013-07-09T15:19:31Z</time>
      </trkpt>
      <trkpt lat="42.770867" lon="-7.313795">
        <ele>700.093</ele>
        <time>2013-07-09T15:19:37Z</time>
      </trkpt>
      <trkpt lat="42.770846" lon="-7.313916">
        <ele>701.011</ele>
        <time>2013-07-09T15:19:42Z</time>
      </trkpt>
      <trkpt lat="42.770860" lon="-7.314053">
        <ele>701.041</ele>
        <time>2013-07-09T15:19:51Z</time>
      </trkpt>
      <trkpt lat="42.770861" lon="-7.314149">
        <ele>702.021</ele>
        <time>2013-07-09T15:20:01Z</time>
      </trkpt>
      <trkpt lat="42.770875" lon="-7.314277">
        <ele>702.044</ele>
        <time>2013-07-09T15:20:11Z</time>
      </trkpt>
      <trkpt lat="42.770950" lon="-7.314356">
        <ele>702.005</ele>
        <time>2013-07-09T15:20:16Z</time>
      </trkpt>
      <trkpt lat="42.771030" lon="-7.314427">
        <ele>702.015</ele>
        <time>2013-07-09T15:20:22Z</time>
      </trkpt>
      <trkpt lat="42.771112" lon="-7.314497">
        <ele>702.007</ele>
        <time>2013-07-09T15:20:32Z</time>
      </trkpt>
      <trkpt lat="42.771193" lon="-7.314569">
        <ele>702.098</ele>
        <time>2013-07-09T15:20:38Z</time>
      </trkpt>
      <trkpt lat="42.771265" lon="-7.314644">
        <ele>703.092</ele>
        <time>2013-07-09T15:20:47Z</time>
      </trkpt>
      <trkpt lat="42.771337" lon="-7.314740">
        <ele>703.035</ele>
        <time>2013-07-09T15:20:57Z</time>
      </trkpt>
      <trkpt lat="42.771383" lon="-7.314861">
        <ele>703.099</ele>
        <time>2013-07-09T15:21:06Z</time>
      </trkpt>
      <trkpt lat="42.771392" lon="-7.314964">
        <ele>704.067</ele>
        <time>2013-07-09T15:21:16Z</time>
      </trkpt>
      <trkpt lat="42.771387" lon="-7.315101">
        <ele>704.077</ele>
        <time>2013-07-09T15:21:25Z</time>
      </trkpt>
      <trkpt lat="42.771388" lon="-7.315225">
        <ele>704.047</ele>
        <time>2013-07-09T15:21:35Z</time>
      </trkpt>
      <trkpt lat="42.771362" lon="-7.315352">
        <ele>705.058</ele>
        <time>2013-07-09T15:21:40Z</time>
      </trkpt>
      <trkpt lat="42.771366" lon="-7.315480">
        <ele>705.052</ele>
        <time>2013-07-09T15:21:46Z</time>
      </trkpt>
      <trkpt lat="42.771379" lon="-7.315597">
        <ele>705.017</ele>
        <time>2013-07-09T15:21:56Z</time>
      </trkpt>
      <trkpt lat="42.771348" lon="-7.315697">
        <ele>705.007</ele>
        <time>2013-07-09T15:22:06Z</time>
      </trkpt>
      <trkpt lat="42.771288" lon="-7.315797">
        <ele>706.069</ele>
        <time>2013-07-09T15:22:16Z</time>
      </trkpt>
      <trkpt lat="42.771242" lon="-7.315915">
        <ele>706.083</ele>
        <time>2013-07-09T15:22:23Z</time>
      </trkpt>
      <trkpt lat="42.771207" lon="-7.316036">
        <ele>707.026</ele>
        <time>2013-07-09T15:22:30Z</time>
      </trkpt>
      <trkpt lat="42.771167" lon="-7.316157">
        <ele>708.040</ele>
        <time>2013-07-09T15:22:38Z</time>
      </trkpt>
      <trkpt lat="42.771201" lon="-7.316273">
        <ele>708.048</ele>
        <time>2013-07-09T15:22:45Z</time>
      </trkpt>
      <trkpt lat="42.771236" lon="-7.316385">
        <ele>709.058</ele>
        <time>2013-07-09T15:22:51Z</time>
      </trkpt>
      <trkpt lat="42.771270" lon="-7.316518">
        <ele>709.098</ele>
        <time>2013-07-09T15:23:00Z</time>
      </trkpt>
      <trkpt lat="42.771302" lon="-7.316644">
        <ele>710.042</ele>
        <time>2013-07-09T15:23:08Z</time>
      </trkpt>
      <trkpt lat="42.771340" lon="-7.316772">
        <ele>711.022</ele>
        <time>2013-07-09T15:23:17Z</time>
      </trkpt>
      <trkpt lat="42.771366" lon="-7.316886">
        <ele>714.014</ele>
        <time>2013-07-09T15:23:27Z</time>
      </trkpt>
      <trkpt lat="42.771389" lon="-7.317008">
        <ele>714.007</ele>
        <time>2013-07-09T15:23:37Z</time>
      </trkpt>
      <trkpt lat="42.771423" lon="-7.317118">
        <ele>714.098</ele>
        <time>2013-07-09T15:23:47Z</time>
      </trkpt>
      <trkpt lat="42.771482" lon="-7.317225">
        <ele>714.022</ele>
        <time>2013-07-09T15:23:55Z</time>
      </trkpt>
      <trkpt lat="42.771546" lon="-7.317332">
        <ele>714.085</ele>
        <time>2013-07-09T15:24:04Z</time>
      </trkpt>
      <trkpt lat="42.771530" lon="-7.317462">
        <ele>714.019</ele>
        <time>2013-07-09T15:24:13Z</time>
      </trkpt>
      <trkpt lat="42.771558" lon="-7.317589">
        <ele>714.057</ele>
        <time>2013-07-09T15:24:23Z</time>
      </trkpt>
      <trkpt lat="42.771598" lon="-7.317699">
        <ele>715.067</ele>
        <time>2013-07-09T15:24:33Z</time>
      </trkpt>
      <trkpt lat="42.771641" lon="-7.317809">
        <ele>715.047</ele>
        <time>2013-07-09T15:24:42Z</time>
      </trkpt>
      <trkpt lat="42.771667" lon="-7.317914">
        <ele>715.067</ele>
        <time>2013-07-09T15:24:52Z</time>
      </trkpt>
      <trkpt lat="42.771707" lon="-7.318025">
        <ele>714.081</ele>
        <time>2013-07-09T15:25:01Z</time>
      </trkpt>
      <trkpt lat="42.771758" lon="-7.318147">
        <ele>715.019</ele>
        <time>2013-07-09T15:25:09Z</time>
      </trkpt>
      <trkpt lat="42.771809" lon="-7.318233">
        <ele>715.007</ele>
        <time>2013-07-09T15:25:19Z</time>
      </trkpt>
      <trkpt lat="42.771847" lon="-7.318325">
        <ele>715.050</ele>
        <time>2013-07-09T15:25:29Z</time>
      </trkpt>
      <trkpt lat="42.771947" lon="-7.318351">
        <ele>715.094</ele>
        <time>2013-07-09T15:25:37Z</time>
      </trkpt>
      <trkpt lat="42.772039" lon="-7.318341">
        <ele>715.057</ele>
        <time>2013-07-09T15:25:45Z</time>
      </trkpt>
      <trkpt lat="42.772134" lon="-7.318316">
        <ele>715.051</ele>
        <time>2013-07-09T15:25:52Z</time>
      </trkpt>
      <trkpt lat="42.772236" lon="-7.318338">
        <ele>714.039</ele>
        <time>2013-07-09T15:26:01Z</time>
      </trkpt>
      <trkpt lat="42.772290" lon="-7.318364">
        <ele>712.039</ele>
        <time>2013-07-09T15:26:11Z</time>
      </trkpt>
      <trkpt lat="42.772339" lon="-7.318390">
        <ele>711.069</ele>
        <time>2013-07-09T15:26:31Z</time>
      </trkpt>
      <trkpt lat="42.772396" lon="-7.318411">
        <ele>711.051</ele>
        <time>2013-07-09T15:26:41Z</time>
      </trkpt>
      <trkpt lat="42.772440" lon="-7.318429">
        <ele>719.001</ele>
        <time>2013-07-09T15:26:59Z</time>
      </trkpt>
      <trkpt lat="42.772481" lon="-7.318464">
        <ele>722.011</ele>
        <time>2013-07-09T15:27:17Z</time>
      </trkpt>
      <trkpt lat="42.772520" lon="-7.318565">
        <ele>722.007</ele>
        <time>2013-07-09T15:27:27Z</time>
      </trkpt>
      <trkpt lat="42.772546" lon="-7.318688">
        <ele>722.069</ele>
        <time>2013-07-09T15:27:36Z</time>
      </trkpt>
      <trkpt lat="42.772532" lon="-7.318814">
        <ele>721.033</ele>
        <time>2013-07-09T15:27:45Z</time>
      </trkpt>
      <trkpt lat="42.772585" lon="-7.318964">
        <ele>721.046</ele>
        <time>2013-07-09T15:27:53Z</time>
      </trkpt>
      <trkpt lat="42.772630" lon="-7.319073">
        <ele>721.010</ele>
        <time>2013-07-09T15:27:58Z</time>
      </trkpt>
      <trkpt lat="42.772590" lon="-7.319177">
        <ele>720.048</ele>
        <time>2013-07-09T15:28:08Z</time>
      </trkpt>
      <trkpt lat="42.772584" lon="-7.319302">
        <ele>720.038</ele>
        <time>2013-07-09T15:28:16Z</time>
      </trkpt>
      <trkpt lat="42.772621" lon="-7.319420">
        <ele>720.058</ele>
        <time>2013-07-09T15:28:22Z</time>
      </trkpt>
      <trkpt lat="42.772609" lon="-7.319558">
        <ele>720.033</ele>
        <time>2013-07-09T15:28:31Z</time>
      </trkpt>
      <trkpt lat="42.772583" lon="-7.319679">
        <ele>720.023</ele>
        <time>2013-07-09T15:28:38Z</time>
      </trkpt>
      <trkpt lat="42.772556" lon="-7.319794">
        <ele>720.015</ele>
        <time>2013-07-09T15:28:48Z</time>
      </trkpt>
      <trkpt lat="42.772512" lon="-7.319907">
        <ele>721.007</ele>
        <time>2013-07-09T15:28:56Z</time>
      </trkpt>
      <trkpt lat="42.772455" lon="-7.320016">
        <ele>720.057</ele>
        <time>2013-07-09T15:29:04Z</time>
      </trkpt>
      <trkpt lat="42.772376" lon="-7.320080">
        <ele>720.061</ele>
        <time>2013-07-09T15:29:11Z</time>
      </trkpt>
      <trkpt lat="42.772307" lon="-7.320163">
        <ele>720.034</ele>
        <time>2013-07-09T15:29:20Z</time>
      </trkpt>
      <trkpt lat="42.772244" lon="-7.320262">
        <ele>719.048</ele>
        <time>2013-07-09T15:29:29Z</time>
      </trkpt>
      <trkpt lat="42.772200" lon="-7.320373">
        <ele>719.076</ele>
        <time>2013-07-09T15:29:37Z</time>
      </trkpt>
      <trkpt lat="42.772161" lon="-7.320412">
        <ele>718.076</ele>
        <time>2013-07-09T15:29:49Z</time>
      </trkpt>
      <trkpt lat="42.772168" lon="-7.320540">
        <ele>718.036</ele>
        <time>2013-07-09T15:29:58Z</time>
      </trkpt>
      <trkpt lat="42.772186" lon="-7.320667">
        <ele>718.067</ele>
        <time>2013-07-09T15:30:05Z</time>
      </trkpt>
      <trkpt lat="42.772168" lon="-7.320788">
        <ele>718.081</ele>
        <time>2013-07-09T15:30:11Z</time>
      </trkpt>
      <trkpt lat="42.772199" lon="-7.320904">
        <ele>718.019</ele>
        <time>2013-07-09T15:30:21Z</time>
      </trkpt>
      <trkpt lat="42.772209" lon="-7.320968">
        <ele>718.007</ele>
        <time>2013-07-09T15:30:31Z</time>
      </trkpt>
      <trkpt lat="42.772247" lon="-7.321013">
        <ele>718.070</ele>
        <time>2013-07-09T15:30:54Z</time>
      </trkpt>
      <trkpt lat="42.772292" lon="-7.321018">
        <ele>717.064</ele>
        <time>2013-07-09T15:31:14Z</time>
      </trkpt>
      <trkpt lat="42.772222" lon="-7.321027">
        <ele>717.067</ele>
        <time>2013-07-09T15:31:24Z</time>
      </trkpt>
      <trkpt lat="42.772250" lon="-7.321029">
        <ele>710.021</ele>
        <time>2013-07-09T15:32:04Z</time>
      </trkpt>
      <trkpt lat="42.772268" lon="-7.321049">
        <ele>706.019</ele>
        <time>2013-07-09T15:32:44Z</time>
      </trkpt>
      <trkpt lat="42.772314" lon="-7.321039">
        <ele>706.049</ele>
        <time>2013-07-09T15:32:55Z</time>
      </trkpt>
      <trkpt lat="42.772373" lon="-7.321128">
        <ele>706.029</ele>
        <time>2013-07-09T17:55:56Z</time>
      </trkpt>
      <trkpt lat="42.772426" lon="-7.321134">
        <ele>706.023</ele>
        <time>2013-07-09T17:56:08Z</time>
      </trkpt>
      <trkpt lat="42.772461" lon="-7.321085">
        <ele>706.083</ele>
        <time>2013-07-09T17:56:47Z</time>
      </trkpt>
      <trkpt lat="42.772553" lon="-7.321122">
        <ele>706.011</ele>
        <time>2013-07-09T17:56:55Z</time>
      </trkpt>
      <trkpt lat="42.772622" lon="-7.321205">
        <ele>706.007</ele>
        <time>2013-07-09T17:57:04Z</time>
      </trkpt>
      <trkpt lat="42.772696" lon="-7.321260">
        <ele>706.036</ele>
        <time>2013-07-09T17:57:14Z</time>
      </trkpt>
      <trkpt lat="42.772779" lon="-7.321322">
        <ele>706.080</ele>
        <time>2013-07-09T17:57:22Z</time>
      </trkpt>
      <trkpt lat="42.772844" lon="-7.321422">
        <ele>707.073</ele>
        <time>2013-07-09T17:57:31Z</time>
      </trkpt>
      <trkpt lat="42.772898" lon="-7.321532">
        <ele>707.087</ele>
        <time>2013-07-09T17:57:39Z</time>
      </trkpt>
      <trkpt lat="42.772911" lon="-7.321670">
        <ele>707.035</ele>
        <time>2013-07-09T17:57:49Z</time>
      </trkpt>
      <trkpt lat="42.772971" lon="-7.321768">
        <ele>707.065</ele>
        <time>2013-07-09T17:57:56Z</time>
      </trkpt>
      <trkpt lat="42.773017" lon="-7.321885">
        <ele>706.045</ele>
        <time>2013-07-09T17:58:05Z</time>
      </trkpt>
      <trkpt lat="42.773038" lon="-7.321970">
        <ele>706.033</ele>
        <time>2013-07-09T17:58:15Z</time>
      </trkpt>
      <trkpt lat="42.773097" lon="-7.322071">
        <ele>706.023</ele>
        <time>2013-07-09T17:58:25Z</time>
      </trkpt>
      <trkpt lat="42.773101" lon="-7.322192">
        <ele>707.015</ele>
        <time>2013-07-09T17:58:35Z</time>
      </trkpt>
      <trkpt lat="42.773130" lon="-7.322269">
        <ele>707.007</ele>
        <time>2013-07-09T17:58:45Z</time>
      </trkpt>
      <trkpt lat="42.773177" lon="-7.322386">
        <ele>707.077</ele>
        <time>2013-07-09T17:58:55Z</time>
      </trkpt>
      <trkpt lat="42.773219" lon="-7.322513">
        <ele>708.051</ele>
        <time>2013-07-09T17:59:03Z</time>
      </trkpt>
      <trkpt lat="42.773207" lon="-7.322647">
        <ele>708.074</ele>
        <time>2013-07-09T17:59:08Z</time>
      </trkpt>
      <trkpt lat="42.773238" lon="-7.322767">
        <ele>708.038</ele>
        <time>2013-07-09T17:59:14Z</time>
      </trkpt>
      <trkpt lat="42.773268" lon="-7.322861">
        <ele>708.036</ele>
        <time>2013-07-09T17:59:24Z</time>
      </trkpt>
      <trkpt lat="42.773346" lon="-7.322924">
        <ele>708.046</ele>
        <time>2013-07-09T17:59:30Z</time>
      </trkpt>
      <trkpt lat="42.773393" lon="-7.323030">
        <ele>708.026</ele>
        <time>2013-07-09T17:59:40Z</time>
      </trkpt>
      <trkpt lat="42.773440" lon="-7.323152">
        <ele>708.042</ele>
        <time>2013-07-09T17:59:48Z</time>
      </trkpt>
      <trkpt lat="42.773498" lon="-7.323258">
        <ele>708.022</ele>
        <time>2013-07-09T17:59:55Z</time>
      </trkpt>
      <trkpt lat="42.773618" lon="-7.323355">
        <ele>709.014</ele>
        <time>2013-07-09T18:00:04Z</time>
      </trkpt>
      <trkpt lat="42.773681" lon="-7.323448">
        <ele>709.007</ele>
        <time>2013-07-09T18:00:14Z</time>
      </trkpt>
      <trkpt lat="42.773645" lon="-7.323570">
        <ele>709.098</ele>
        <time>2013-07-09T18:00:23Z</time>
      </trkpt>
      <trkpt lat="42.773617" lon="-7.323673">
        <ele>709.082</ele>
        <time>2013-07-09T18:00:33Z</time>
      </trkpt>
      <trkpt lat="42.773629" lon="-7.323795">
        <ele>708.025</ele>
        <time>2013-07-09T18:00:41Z</time>
      </trkpt>
      <trkpt lat="42.773600" lon="-7.323911">
        <ele>708.069</ele>
        <time>2013-07-09T18:00:50Z</time>
      </trkpt>
      <trkpt lat="42.773646" lon="-7.324021">
        <ele>708.077</ele>
        <time>2013-07-09T18:00:59Z</time>
      </trkpt>
      <trkpt lat="42.773674" lon="-7.324142">
        <ele>709.087</ele>
        <time>2013-07-09T18:01:07Z</time>
      </trkpt>
      <trkpt lat="42.773716" lon="-7.324269">
        <ele>709.017</ele>
        <time>2013-07-09T18:01:16Z</time>
      </trkpt>
      <trkpt lat="42.773748" lon="-7.324397">
        <ele>709.097</ele>
        <time>2013-07-09T18:01:26Z</time>
      </trkpt>
      <trkpt lat="42.773785" lon="-7.324514">
        <ele>709.023</ele>
        <time>2013-07-09T18:01:33Z</time>
      </trkpt>
      <trkpt lat="42.773820" lon="-7.324630">
        <ele>709.025</ele>
        <time>2013-07-09T18:01:41Z</time>
      </trkpt>
      <trkpt lat="42.773847" lon="-7.324751">
        <ele>709.007</ele>
        <time>2013-07-09T18:01:49Z</time>
      </trkpt>
      <trkpt lat="42.773880" lon="-7.324869">
        <ele>709.033</ele>
        <time>2013-07-09T18:01:58Z</time>
      </trkpt>
      <trkpt lat="42.773902" lon="-7.324989">
        <ele>709.057</ele>
        <time>2013-07-09T18:02:06Z</time>
      </trkpt>
      <trkpt lat="42.773934" lon="-7.325105">
        <ele>709.010</ele>
        <time>2013-07-09T18:02:14Z</time>
      </trkpt>
      <trkpt lat="42.773935" lon="-7.325228">
        <ele>709.094</ele>
        <time>2013-07-09T18:02:22Z</time>
      </trkpt>
      <trkpt lat="42.773949" lon="-7.325334">
        <ele>708.012</ele>
        <time>2013-07-09T18:02:32Z</time>
      </trkpt>
      <trkpt lat="42.773949" lon="-7.325462">
        <ele>708.052</ele>
        <time>2013-07-09T18:02:41Z</time>
      </trkpt>
      <trkpt lat="42.773914" lon="-7.325567">
        <ele>709.022</ele>
        <time>2013-07-09T18:02:51Z</time>
      </trkpt>
      <trkpt lat="42.773909" lon="-7.325668">
        <ele>708.056</ele>
        <time>2013-07-09T18:03:01Z</time>
      </trkpt>
      <trkpt lat="42.773908" lon="-7.325798">
        <ele>709.059</ele>
        <time>2013-07-09T18:03:11Z</time>
      </trkpt>
      <trkpt lat="42.773954" lon="-7.325917">
        <ele>709.014</ele>
        <time>2013-07-09T18:03:17Z</time>
      </trkpt>
      <trkpt lat="42.773920" lon="-7.326171">
        <ele>710.007</ele>
        <time>2013-07-09T18:03:23Z</time>
      </trkpt>
      <trkpt lat="42.773872" lon="-7.326294">
        <ele>710.059</ele>
        <time>2013-07-09T18:03:33Z</time>
      </trkpt>
      <trkpt lat="42.773850" lon="-7.326367">
        <ele>710.013</ele>
        <time>2013-07-09T18:03:46Z</time>
      </trkpt>
      <trkpt lat="42.773843" lon="-7.326462">
        <ele>710.086</ele>
        <time>2013-07-09T18:03:56Z</time>
      </trkpt>
      <trkpt lat="42.773824" lon="-7.326530">
        <ele>709.020</ele>
        <time>2013-07-09T18:04:06Z</time>
      </trkpt>
      <trkpt lat="42.773701" lon="-7.326654">
        <ele>709.088</ele>
        <time>2013-07-09T18:04:21Z</time>
      </trkpt>
      <trkpt lat="42.773694" lon="-7.326715">
        <ele>709.028</ele>
        <time>2013-07-09T18:04:34Z</time>
      </trkpt>
      <trkpt lat="42.773693" lon="-7.326721">
        <ele>709.068</ele>
        <time>2013-07-09T18:04:35Z</time>
      </trkpt>
      <trkpt lat="42.773692" lon="-7.326835">
        <ele>709.018</ele>
        <time>2013-07-09T18:04:45Z</time>
      </trkpt>
      <trkpt lat="42.773674" lon="-7.326928">
        <ele>709.098</ele>
        <time>2013-07-09T18:04:55Z</time>
      </trkpt>
      <trkpt lat="42.773595" lon="-7.327000">
        <ele>709.017</ele>
        <time>2013-07-09T18:05:02Z</time>
      </trkpt>
      <trkpt lat="42.773503" lon="-7.327023">
        <ele>708.007</ele>
        <time>2013-07-09T18:05:09Z</time>
      </trkpt>
      <trkpt lat="42.773413" lon="-7.327085">
        <ele>708.035</ele>
        <time>2013-07-09T18:05:15Z</time>
      </trkpt>
      <trkpt lat="42.773312" lon="-7.327079">
        <ele>708.099</ele>
        <time>2013-07-09T18:05:21Z</time>
      </trkpt>
      <trkpt lat="42.773218" lon="-7.327076">
        <ele>708.012</ele>
        <time>2013-07-09T18:05:28Z</time>
      </trkpt>
      <trkpt lat="42.773226" lon="-7.327241">
        <ele>708.036</ele>
        <time>2013-07-09T18:05:36Z</time>
      </trkpt>
      <trkpt lat="42.773190" lon="-7.327301">
        <ele>708.064</ele>
        <time>2013-07-09T18:05:46Z</time>
      </trkpt>
      <trkpt lat="42.773234" lon="-7.327240">
        <ele>708.054</ele>
        <time>2013-07-09T18:05:56Z</time>
      </trkpt>
      <trkpt lat="42.773211" lon="-7.327297">
        <ele>708.064</ele>
        <time>2013-07-09T18:06:08Z</time>
      </trkpt>
      <trkpt lat="42.773122" lon="-7.327309">
        <ele>708.016</ele>
        <time>2013-07-09T18:06:18Z</time>
      </trkpt>
      <trkpt lat="42.773027" lon="-7.327325">
        <ele>708.076</ele>
        <time>2013-07-09T18:06:27Z</time>
      </trkpt>
      <trkpt lat="42.772932" lon="-7.327333">
        <ele>708.013</ele>
        <time>2013-07-09T18:06:37Z</time>
      </trkpt>
      <trkpt lat="42.772843" lon="-7.327367">
        <ele>708.007</ele>
        <time>2013-07-09T18:06:46Z</time>
      </trkpt>
      <trkpt lat="42.772812" lon="-7.327436">
        <ele>708.075</ele>
        <time>2013-07-09T18:06:56Z</time>
      </trkpt>
      <trkpt lat="42.772284" lon="-7.327759">
        <ele>708.059</ele>
        <time>2013-07-09T18:08:55Z</time>
      </trkpt>
      <trkpt lat="42.772340" lon="-7.327657">
        <ele>708.012</ele>
        <time>2013-07-09T18:09:07Z</time>
      </trkpt>
      <trkpt lat="42.772518" lon="-7.327593">
        <ele>708.016</ele>
        <time>2013-07-09T18:09:29Z</time>
      </trkpt>
      <trkpt lat="42.772444" lon="-7.327669">
        <ele>708.034</ele>
        <time>2013-07-09T18:09:36Z</time>
      </trkpt>
      <trkpt lat="42.772395" lon="-7.327687">
        <ele>708.024</ele>
        <time>2013-07-09T18:09:53Z</time>
      </trkpt>
      <trkpt lat="42.772424" lon="-7.327633">
        <ele>708.014</ele>
        <time>2013-07-09T18:10:10Z</time>
      </trkpt>
      <trkpt lat="42.772650" lon="-7.327669">
        <ele>710.078</ele>
        <time>2013-07-09T18:10:20Z</time>
      </trkpt>
      <trkpt lat="42.772736" lon="-7.327711">
        <ele>710.033</ele>
        <time>2013-07-09T18:10:22Z</time>
      </trkpt>
      <trkpt lat="42.772840" lon="-7.327766">
        <ele>711.026</ele>
        <time>2013-07-09T18:10:26Z</time>
      </trkpt>
      <trkpt lat="42.772766" lon="-7.327792">
        <ele>712.007</ele>
        <time>2013-07-09T18:10:36Z</time>
      </trkpt>
      <trkpt lat="42.772678" lon="-7.327722">
        <ele>713.011</ele>
        <time>2013-07-09T18:10:44Z</time>
      </trkpt>
      <trkpt lat="42.772669" lon="-7.327662">
        <ele>715.045</ele>
        <time>2013-07-09T18:11:01Z</time>
      </trkpt>
      <trkpt lat="42.772676" lon="-7.327586">
        <ele>715.048</ele>
        <time>2013-07-09T18:11:11Z</time>
      </trkpt>
      <trkpt lat="42.772711" lon="-7.327640">
        <ele>715.052</ele>
        <time>2013-07-09T18:11:27Z</time>
      </trkpt>
      <trkpt lat="42.772802" lon="-7.327652">
        <ele>716.080</ele>
        <time>2013-07-09T18:11:37Z</time>
      </trkpt>
      <trkpt lat="42.772793" lon="-7.327714">
        <ele>717.030</ele>
        <time>2013-07-09T18:11:50Z</time>
      </trkpt>
      <trkpt lat="42.772828" lon="-7.327789">
        <ele>719.050</ele>
        <time>2013-07-09T18:12:00Z</time>
      </trkpt>
      <trkpt lat="42.772787" lon="-7.327814">
        <ele>720.059</ele>
        <time>2013-07-09T18:12:12Z</time>
      </trkpt>
      <trkpt lat="42.772742" lon="-7.327926">
        <ele>722.003</ele>
        <time>2013-07-09T18:12:21Z</time>
      </trkpt>
      <trkpt lat="42.772704" lon="-7.328043">
        <ele>723.023</ele>
        <time>2013-07-09T18:12:29Z</time>
      </trkpt>
      <trkpt lat="42.772740" lon="-7.328097">
        <ele>725.007</ele>
        <time>2013-07-09T18:12:39Z</time>
      </trkpt>
      <trkpt lat="42.772715" lon="-7.328214">
        <ele>726.089</ele>
        <time>2013-07-09T18:12:49Z</time>
      </trkpt>
      <trkpt lat="42.772719" lon="-7.328345">
        <ele>727.053</ele>
        <time>2013-07-09T18:12:59Z</time>
      </trkpt>
      <trkpt lat="42.772788" lon="-7.328447">
        <ele>728.026</ele>
        <time>2013-07-09T18:13:08Z</time>
      </trkpt>
      <trkpt lat="42.772847" lon="-7.328540">
        <ele>729.050</ele>
        <time>2013-07-09T18:13:17Z</time>
      </trkpt>
      <trkpt lat="42.772890" lon="-7.328649">
        <ele>730.028</ele>
        <time>2013-07-09T18:13:25Z</time>
      </trkpt>
      <trkpt lat="42.772920" lon="-7.328770">
        <ele>730.098</ele>
        <time>2013-07-09T18:13:35Z</time>
      </trkpt>
      <trkpt lat="42.772993" lon="-7.328858">
        <ele>731.078</ele>
        <time>2013-07-09T18:13:44Z</time>
      </trkpt>
      <trkpt lat="42.773041" lon="-7.328968">
        <ele>732.091</ele>
        <time>2013-07-09T18:13:52Z</time>
      </trkpt>
      <trkpt lat="42.773135" lon="-7.329035">
        <ele>733.081</ele>
        <time>2013-07-09T18:13:59Z</time>
      </trkpt>
      <trkpt lat="42.773164" lon="-7.329155">
        <ele>734.019</ele>
        <time>2013-07-09T18:14:08Z</time>
      </trkpt>
      <trkpt lat="42.773183" lon="-7.329249">
        <ele>734.007</ele>
        <time>2013-07-09T18:14:18Z</time>
      </trkpt>
      <trkpt lat="42.773132" lon="-7.329312">
        <ele>735.093</ele>
        <time>2013-07-09T18:14:28Z</time>
      </trkpt>
      <trkpt lat="42.773091" lon="-7.329399">
        <ele>736.097</ele>
        <time>2013-07-09T18:14:38Z</time>
      </trkpt>
      <trkpt lat="42.773102" lon="-7.329525">
        <ele>736.090</ele>
        <time>2013-07-09T18:14:45Z</time>
      </trkpt>
      <trkpt lat="42.773086" lon="-7.329653">
        <ele>737.084</ele>
        <time>2013-07-09T18:14:55Z</time>
      </trkpt>
      <trkpt lat="42.773099" lon="-7.329776">
        <ele>738.092</ele>
        <time>2013-07-09T18:15:03Z</time>
      </trkpt>
      <trkpt lat="42.773141" lon="-7.329887">
        <ele>739.022</ele>
        <time>2013-07-09T18:15:11Z</time>
      </trkpt>
      <trkpt lat="42.773159" lon="-7.330016">
        <ele>740.012</ele>
        <time>2013-07-09T18:15:18Z</time>
      </trkpt>
      <trkpt lat="42.773172" lon="-7.330141">
        <ele>740.051</ele>
        <time>2013-07-09T18:15:23Z</time>
      </trkpt>
      <trkpt lat="42.773203" lon="-7.330257">
        <ele>741.001</ele>
        <time>2013-07-09T18:15:29Z</time>
      </trkpt>
      <trkpt lat="42.773219" lon="-7.330377">
        <ele>741.011</ele>
        <time>2013-07-09T18:15:36Z</time>
      </trkpt>
      <trkpt lat="42.773222" lon="-7.330472">
        <ele>741.007</ele>
        <time>2013-07-09T18:15:46Z</time>
      </trkpt>
      <trkpt lat="42.773191" lon="-7.330599">
        <ele>741.049</ele>
        <time>2013-07-09T18:15:54Z</time>
      </trkpt>
      <trkpt lat="42.773196" lon="-7.330672">
        <ele>742.033</ele>
        <time>2013-07-09T18:16:04Z</time>
      </trkpt>
      <trkpt lat="42.773146" lon="-7.330774">
        <ele>742.036</ele>
        <time>2013-07-09T18:16:14Z</time>
      </trkpt>
      <trkpt lat="42.773076" lon="-7.330847">
        <ele>743.040</ele>
        <time>2013-07-09T18:16:24Z</time>
      </trkpt>
      <trkpt lat="42.773059" lon="-7.330974">
        <ele>743.048</ele>
        <time>2013-07-09T18:16:34Z</time>
      </trkpt>
      <trkpt lat="42.773039" lon="-7.331099">
        <ele>744.038</ele>
        <time>2013-07-09T18:16:39Z</time>
      </trkpt>
      <trkpt lat="42.773054" lon="-7.331237">
        <ele>744.018</ele>
        <time>2013-07-09T18:16:45Z</time>
      </trkpt>
      <trkpt lat="42.773020" lon="-7.331353">
        <ele>744.014</ele>
        <time>2013-07-09T18:16:51Z</time>
      </trkpt>
      <trkpt lat="42.772978" lon="-7.331451">
        <ele>744.054</ele>
        <time>2013-07-09T18:17:01Z</time>
      </trkpt>
      <trkpt lat="42.772963" lon="-7.331536">
        <ele>744.009</ele>
        <time>2013-07-09T18:17:11Z</time>
      </trkpt>
      <trkpt lat="42.772966" lon="-7.331668">
        <ele>744.007</ele>
        <time>2013-07-09T18:17:18Z</time>
      </trkpt>
      <trkpt lat="42.772982" lon="-7.331792">
        <ele>744.015</ele>
        <time>2013-07-09T18:17:23Z</time>
      </trkpt>
      <trkpt lat="42.772983" lon="-7.331924">
        <ele>744.099</ele>
        <time>2013-07-09T18:17:29Z</time>
      </trkpt>
      <trkpt lat="42.772975" lon="-7.332059">
        <ele>744.082</ele>
        <time>2013-07-09T18:17:37Z</time>
      </trkpt>
      <trkpt lat="42.772951" lon="-7.332183">
        <ele>745.066</ele>
        <time>2013-07-09T18:17:44Z</time>
      </trkpt>
      <trkpt lat="42.772896" lon="-7.332307">
        <ele>745.074</ele>
        <time>2013-07-09T18:17:50Z</time>
      </trkpt>
      <trkpt lat="42.772875" lon="-7.332432">
        <ele>746.094</ele>
        <time>2013-07-09T18:17:55Z</time>
      </trkpt>
      <trkpt lat="42.772881" lon="-7.332493">
        <ele>747.094</ele>
        <time>2013-07-09T18:18:10Z</time>
      </trkpt>
      <trkpt lat="42.772892" lon="-7.332631">
        <ele>746.042</ele>
        <time>2013-07-09T18:18:20Z</time>
      </trkpt>
      <trkpt lat="42.772850" lon="-7.332756">
        <ele>747.022</ele>
        <time>2013-07-09T18:18:25Z</time>
      </trkpt>
      <trkpt lat="42.772769" lon="-7.332841">
        <ele>748.014</ele>
        <time>2013-07-09T18:18:33Z</time>
      </trkpt>
      <trkpt lat="42.772710" lon="-7.332949">
        <ele>750.007</ele>
        <time>2013-07-09T18:18:39Z</time>
      </trkpt>
      <trkpt lat="42.772675" lon="-7.333067">
        <ele>751.018</ele>
        <time>2013-07-09T18:18:45Z</time>
      </trkpt>
      <trkpt lat="42.772659" lon="-7.333189">
        <ele>752.042</ele>
        <time>2013-07-09T18:18:53Z</time>
      </trkpt>
      <trkpt lat="42.772653" lon="-7.333319">
        <ele>753.055</ele>
        <time>2013-07-09T18:19:01Z</time>
      </trkpt>
      <trkpt lat="42.772656" lon="-7.333467">
        <ele>754.069</ele>
        <time>2013-07-09T18:19:06Z</time>
      </trkpt>
      <trkpt lat="42.772672" lon="-7.333592">
        <ele>755.057</ele>
        <time>2013-07-09T18:19:11Z</time>
      </trkpt>
      <trkpt lat="42.772684" lon="-7.333719">
        <ele>756.077</ele>
        <time>2013-07-09T18:19:16Z</time>
      </trkpt>
      <trkpt lat="42.772697" lon="-7.333851">
        <ele>757.017</ele>
        <time>2013-07-09T18:19:24Z</time>
      </trkpt>
      <trkpt lat="42.772735" lon="-7.333971">
        <ele>761.014</ele>
        <time>2013-07-09T18:19:34Z</time>
      </trkpt>
      <trkpt lat="42.772732" lon="-7.334097">
        <ele>763.054</ele>
        <time>2013-07-09T18:19:42Z</time>
      </trkpt>
      <trkpt lat="42.772701" lon="-7.334143">
        <ele>765.009</ele>
        <time>2013-07-09T18:19:52Z</time>
      </trkpt>
      <trkpt lat="42.772681" lon="-7.334234">
        <ele>766.007</ele>
        <time>2013-07-09T18:20:02Z</time>
      </trkpt>
      <trkpt lat="42.772745" lon="-7.334340">
        <ele>766.055</ele>
        <time>2013-07-09T18:20:08Z</time>
      </trkpt>
      <trkpt lat="42.772798" lon="-7.334439">
        <ele>765.049</ele>
        <time>2013-07-09T18:20:16Z</time>
      </trkpt>
      <trkpt lat="42.772801" lon="-7.334531">
        <ele>765.042</ele>
        <time>2013-07-09T18:20:26Z</time>
      </trkpt>
      <trkpt lat="42.772766" lon="-7.334658">
        <ele>766.026</ele>
        <time>2013-07-09T18:20:36Z</time>
      </trkpt>
      <trkpt lat="42.772774" lon="-7.334787">
        <ele>766.074</ele>
        <time>2013-07-09T18:20:44Z</time>
      </trkpt>
      <trkpt lat="42.772776" lon="-7.334884">
        <ele>768.074</ele>
        <time>2013-07-09T18:20:54Z</time>
      </trkpt>
      <trkpt lat="42.772797" lon="-7.334979">
        <ele>770.084</ele>
        <time>2013-07-09T18:21:04Z</time>
      </trkpt>
      <trkpt lat="42.772819" lon="-7.335086">
        <ele>771.097</ele>
        <time>2013-07-09T18:21:14Z</time>
      </trkpt>
      <trkpt lat="42.772834" lon="-7.335223">
        <ele>772.023</ele>
        <time>2013-07-09T18:21:21Z</time>
      </trkpt>
      <trkpt lat="42.772855" lon="-7.335343">
        <ele>772.025</ele>
        <time>2013-07-09T18:21:27Z</time>
      </trkpt>
      <trkpt lat="42.772871" lon="-7.335464">
        <ele>773.007</ele>
        <time>2013-07-09T18:21:36Z</time>
      </trkpt>
      <trkpt lat="42.772884" lon="-7.335595">
        <ele>773.053</ele>
        <time>2013-07-09T18:21:44Z</time>
      </trkpt>
      <trkpt lat="42.772939" lon="-7.335707">
        <ele>767.077</ele>
        <time>2013-07-09T18:21:53Z</time>
      </trkpt>
      <trkpt lat="42.773012" lon="-7.335801">
        <ele>763.010</ele>
        <time>2013-07-09T18:22:01Z</time>
      </trkpt>
      <trkpt lat="42.773055" lon="-7.335909">
        <ele>761.014</ele>
        <time>2013-07-09T18:22:10Z</time>
      </trkpt>
      <trkpt lat="42.773084" lon="-7.336028">
        <ele>758.092</ele>
        <time>2013-07-09T18:22:15Z</time>
      </trkpt>
      <trkpt lat="42.773138" lon="-7.336127">
        <ele>757.082</ele>
        <time>2013-07-09T18:22:21Z</time>
      </trkpt>
      <trkpt lat="42.773183" lon="-7.336241">
        <ele>755.032</ele>
        <time>2013-07-09T18:22:29Z</time>
      </trkpt>
      <trkpt lat="42.773212" lon="-7.336368">
        <ele>754.049</ele>
        <time>2013-07-09T18:22:37Z</time>
      </trkpt>
      <trkpt lat="42.773295" lon="-7.336425">
        <ele>753.002</ele>
        <time>2013-07-09T18:22:46Z</time>
      </trkpt>
      <trkpt lat="42.773372" lon="-7.336484">
        <ele>753.022</ele>
        <time>2013-07-09T18:22:56Z</time>
      </trkpt>
      <trkpt lat="42.773404" lon="-7.336567">
        <ele>753.007</ele>
        <time>2013-07-09T18:23:06Z</time>
      </trkpt>
      <trkpt lat="42.773420" lon="-7.336687">
        <ele>752.028</ele>
        <time>2013-07-09T18:23:16Z</time>
      </trkpt>
      <trkpt lat="42.773453" lon="-7.336807">
        <ele>752.012</ele>
        <time>2013-07-09T18:23:26Z</time>
      </trkpt>
      <trkpt lat="42.773501" lon="-7.336921">
        <ele>752.065</ele>
        <time>2013-07-09T18:23:35Z</time>
      </trkpt>
      <trkpt lat="42.773552" lon="-7.337027">
        <ele>753.059</ele>
        <time>2013-07-09T18:23:41Z</time>
      </trkpt>
      <trkpt lat="42.773631" lon="-7.337120">
        <ele>753.097</ele>
        <time>2013-07-09T18:23:47Z</time>
      </trkpt>
      <trkpt lat="42.773693" lon="-7.337210">
        <ele>753.047</ele>
        <time>2013-07-09T18:23:54Z</time>
      </trkpt>
      <trkpt lat="42.773730" lon="-7.337332">
        <ele>753.037</ele>
        <time>2013-07-09T18:24:04Z</time>
      </trkpt>
      <trkpt lat="42.773757" lon="-7.337452">
        <ele>752.094</ele>
        <time>2013-07-09T18:24:11Z</time>
      </trkpt>
      <trkpt lat="42.773830" lon="-7.337543">
        <ele>752.057</ele>
        <time>2013-07-09T18:24:21Z</time>
      </trkpt>
      <trkpt lat="42.773920" lon="-7.337600">
        <ele>752.022</ele>
        <time>2013-07-09T18:24:27Z</time>
      </trkpt>
      <trkpt lat="42.774007" lon="-7.337617">
        <ele>752.007</ele>
        <time>2013-07-09T18:24:37Z</time>
      </trkpt>
      <trkpt lat="42.774057" lon="-7.337737">
        <ele>752.013</ele>
        <time>2013-07-09T18:24:47Z</time>
      </trkpt>
      <trkpt lat="42.774057" lon="-7.337857">
        <ele>753.077</ele>
        <time>2013-07-09T18:24:57Z</time>
      </trkpt>
      <trkpt lat="42.773966" lon="-7.337888">
        <ele>753.080</ele>
        <time>2013-07-09T18:25:03Z</time>
      </trkpt>
      <trkpt lat="42.773865" lon="-7.337943">
        <ele>753.044</ele>
        <time>2013-07-09T18:25:11Z</time>
      </trkpt>
      <trkpt lat="42.773763" lon="-7.337979">
        <ele>754.082</ele>
        <time>2013-07-09T18:25:17Z</time>
      </trkpt>
      <trkpt lat="42.773695" lon="-7.338064">
        <ele>753.052</ele>
        <time>2013-07-09T18:25:24Z</time>
      </trkpt>
      <trkpt lat="42.773809" lon="-7.338338">
        <ele>753.012</ele>
        <time>2013-07-09T18:25:26Z</time>
      </trkpt>
      <trkpt lat="42.773764" lon="-7.338446">
        <ele>751.051</ele>
        <time>2013-07-09T18:25:28Z</time>
      </trkpt>
      <trkpt lat="42.773786" lon="-7.338605">
        <ele>747.001</ele>
        <time>2013-07-09T18:25:31Z</time>
      </trkpt>
      <trkpt lat="42.773839" lon="-7.338726">
        <ele>744.011</ele>
        <time>2013-07-09T18:25:37Z</time>
      </trkpt>
      <trkpt lat="42.773839" lon="-7.338812">
        <ele>743.007</ele>
        <time>2013-07-09T18:25:47Z</time>
      </trkpt>
      <trkpt lat="42.773760" lon="-7.338887">
        <ele>742.029</ele>
        <time>2013-07-09T18:25:57Z</time>
      </trkpt>
      <trkpt lat="42.773747" lon="-7.339009">
        <ele>742.023</ele>
        <time>2013-07-09T18:26:06Z</time>
      </trkpt>
      <trkpt lat="42.773702" lon="-7.339010">
        <ele>742.076</ele>
        <time>2013-07-09T18:26:30Z</time>
      </trkpt>
      <trkpt lat="42.773786" lon="-7.339137">
        <ele>742.090</ele>
        <time>2013-07-09T18:26:41Z</time>
      </trkpt>
      <trkpt lat="42.773841" lon="-7.339246">
        <ele>743.018</ele>
        <time>2013-07-09T18:26:43Z</time>
      </trkpt>
      <trkpt lat="42.773918" lon="-7.339331">
        <ele>744.038</ele>
        <time>2013-07-09T18:26:50Z</time>
      </trkpt>
      <trkpt lat="42.773908" lon="-7.339508">
        <ele>741.068</ele>
        <time>2013-07-09T18:26:58Z</time>
      </trkpt>
      <trkpt lat="42.773836" lon="-7.339630">
        <ele>739.055</ele>
        <time>2013-07-09T18:27:00Z</time>
      </trkpt>
      <trkpt lat="42.773809" lon="-7.339717">
        <ele>731.007</ele>
        <time>2013-07-09T18:27:10Z</time>
      </trkpt>
      <trkpt lat="42.773897" lon="-7.339748">
        <ele>724.017</ele>
        <time>2013-07-09T18:27:18Z</time>
      </trkpt>
      <trkpt lat="42.773967" lon="-7.339832">
        <ele>720.007</ele>
        <time>2013-07-09T18:27:21Z</time>
      </trkpt>
      <trkpt lat="42.774008" lon="-7.339863">
        <ele>716.069</ele>
        <time>2013-07-09T18:27:33Z</time>
      </trkpt>
      <trkpt lat="42.774070" lon="-7.339772">
        <ele>714.053</ele>
        <time>2013-07-09T18:27:43Z</time>
      </trkpt>
      <trkpt lat="42.774114" lon="-7.339795">
        <ele>709.056</ele>
        <time>2013-07-09T18:28:14Z</time>
      </trkpt>
      <trkpt lat="42.774184" lon="-7.339863">
        <ele>706.090</ele>
        <time>2013-07-09T18:28:24Z</time>
      </trkpt>
      <trkpt lat="42.774232" lon="-7.339891">
        <ele>706.058</ele>
        <time>2013-07-09T18:28:34Z</time>
      </trkpt>
      <trkpt lat="42.774279" lon="-7.339940">
        <ele>706.028</ele>
        <time>2013-07-09T18:28:44Z</time>
      </trkpt>
      <trkpt lat="42.774340" lon="-7.340023">
        <ele>706.078</ele>
        <time>2013-07-09T18:28:54Z</time>
      </trkpt>
      <trkpt lat="42.774329" lon="-7.340136">
        <ele>705.035</ele>
        <time>2013-07-09T18:29:04Z</time>
      </trkpt>
      <trkpt lat="42.774332" lon="-7.340285">
        <ele>705.086</ele>
        <time>2013-07-09T18:29:12Z</time>
      </trkpt>
      <trkpt lat="42.774362" lon="-7.340417">
        <ele>705.014</ele>
        <time>2013-07-09T18:29:20Z</time>
      </trkpt>
      <trkpt lat="42.774435" lon="-7.340544">
        <ele>705.007</ele>
        <time>2013-07-09T18:29:28Z</time>
      </trkpt>
      <trkpt lat="42.774505" lon="-7.340632">
        <ele>705.087</ele>
        <time>2013-07-09T18:29:37Z</time>
      </trkpt>
      <trkpt lat="42.774584" lon="-7.340707">
        <ele>704.031</ele>
        <time>2013-07-09T18:29:46Z</time>
      </trkpt>
      <trkpt lat="42.774625" lon="-7.340823">
        <ele>704.054</ele>
        <time>2013-07-09T18:29:56Z</time>
      </trkpt>
      <trkpt lat="42.774653" lon="-7.340919">
        <ele>704.078</ele>
        <time>2013-07-09T18:30:06Z</time>
      </trkpt>
      <trkpt lat="42.774715" lon="-7.341018">
        <ele>704.036</ele>
        <time>2013-07-09T18:30:13Z</time>
      </trkpt>
      <trkpt lat="42.774735" lon="-7.341144">
        <ele>705.016</ele>
        <time>2013-07-09T18:30:22Z</time>
      </trkpt>
      <trkpt lat="42.774793" lon="-7.341245">
        <ele>705.056</ele>
        <time>2013-07-09T18:30:30Z</time>
      </trkpt>
      <trkpt lat="42.774837" lon="-7.341374">
        <ele>705.036</ele>
        <time>2013-07-09T18:30:38Z</time>
      </trkpt>
      <trkpt lat="42.774881" lon="-7.341484">
        <ele>705.017</ele>
        <time>2013-07-09T18:30:48Z</time>
      </trkpt>
      <trkpt lat="42.774892" lon="-7.341606">
        <ele>705.018</ele>
        <time>2013-07-09T18:30:57Z</time>
      </trkpt>
      <trkpt lat="42.774860" lon="-7.341734">
        <ele>706.007</ele>
        <time>2013-07-09T18:31:06Z</time>
      </trkpt>
      <trkpt lat="42.774821" lon="-7.341848">
        <ele>706.077</ele>
        <time>2013-07-09T18:31:13Z</time>
      </trkpt>
      <trkpt lat="42.774793" lon="-7.341977">
        <ele>706.081</ele>
        <time>2013-07-09T18:31:22Z</time>
      </trkpt>
      <trkpt lat="42.774805" lon="-7.342099">
        <ele>706.044</ele>
        <time>2013-07-09T18:31:29Z</time>
      </trkpt>
      <trkpt lat="42.774775" lon="-7.342202">
        <ele>705.038</ele>
        <time>2013-07-09T18:31:39Z</time>
      </trkpt>
      <trkpt lat="42.774811" lon="-7.342357">
        <ele>702.086</ele>
        <time>2013-07-09T18:31:41Z</time>
      </trkpt>
      <trkpt lat="42.774834" lon="-7.342481">
        <ele>700.056</ele>
        <time>2013-07-09T18:31:45Z</time>
      </trkpt>
      <trkpt lat="42.774788" lon="-7.342602">
        <ele>697.096</ele>
        <time>2013-07-09T18:31:52Z</time>
      </trkpt>
      <trkpt lat="42.774748" lon="-7.342722">
        <ele>694.018</ele>
        <time>2013-07-09T18:32:00Z</time>
      </trkpt>
      <trkpt lat="42.774718" lon="-7.342850">
        <ele>690.098</ele>
        <time>2013-07-09T18:32:09Z</time>
      </trkpt>
      <trkpt lat="42.774684" lon="-7.342967">
        <ele>690.017</ele>
        <time>2013-07-09T18:32:17Z</time>
      </trkpt>
      <trkpt lat="42.774660" lon="-7.343022">
        <ele>690.007</ele>
        <time>2013-07-09T18:32:32Z</time>
      </trkpt>
      <trkpt lat="42.774623" lon="-7.343125">
        <ele>691.055</ele>
        <time>2013-07-09T18:32:42Z</time>
      </trkpt>
      <trkpt lat="42.774601" lon="-7.343233">
        <ele>691.089</ele>
        <time>2013-07-09T18:32:52Z</time>
      </trkpt>
      <trkpt lat="42.774550" lon="-7.343319">
        <ele>691.052</ele>
        <time>2013-07-09T18:33:02Z</time>
      </trkpt>
      <trkpt lat="42.774575" lon="-7.343459">
        <ele>692.036</ele>
        <time>2013-07-09T18:33:12Z</time>
      </trkpt>
      <trkpt lat="42.774574" lon="-7.343628">
        <ele>692.074</ele>
        <time>2013-07-09T18:33:13Z</time>
      </trkpt>
      <trkpt lat="42.774539" lon="-7.343771">
        <ele>690.074</ele>
        <time>2013-07-09T18:33:17Z</time>
      </trkpt>
      <trkpt lat="42.774499" lon="-7.343894">
        <ele>688.094</ele>
        <time>2013-07-09T18:33:24Z</time>
      </trkpt>
      <trkpt lat="42.774444" lon="-7.344001">
        <ele>686.065</ele>
        <time>2013-07-09T18:33:29Z</time>
      </trkpt>
      <trkpt lat="42.774452" lon="-7.344125">
        <ele>685.068</ele>
        <time>2013-07-09T18:33:37Z</time>
      </trkpt>
      <trkpt lat="42.774462" lon="-7.344259">
        <ele>683.014</ele>
        <time>2013-07-09T18:33:46Z</time>
      </trkpt>
      <trkpt lat="42.774454" lon="-7.344393">
        <ele>682.007</ele>
        <time>2013-07-09T18:33:56Z</time>
      </trkpt>
      <trkpt lat="42.774418" lon="-7.344518">
        <ele>681.080</ele>
        <time>2013-07-09T18:34:03Z</time>
      </trkpt>
      <trkpt lat="42.774399" lon="-7.344600">
        <ele>679.044</ele>
        <time>2013-07-09T18:34:13Z</time>
      </trkpt>
      <trkpt lat="42.774372" lon="-7.344688">
        <ele>679.067</ele>
        <time>2013-07-09T18:34:23Z</time>
      </trkpt>
      <trkpt lat="42.774356" lon="-7.344763">
        <ele>680.041</ele>
        <time>2013-07-09T18:34:33Z</time>
      </trkpt>
      <trkpt lat="42.774312" lon="-7.344879">
        <ele>681.019</ele>
        <time>2013-07-09T18:34:41Z</time>
      </trkpt>
      <trkpt lat="42.774298" lon="-7.345009">
        <ele>682.099</ele>
        <time>2013-07-09T18:34:49Z</time>
      </trkpt>
      <trkpt lat="42.774259" lon="-7.345133">
        <ele>682.089</ele>
        <time>2013-07-09T18:34:58Z</time>
      </trkpt>
      <trkpt lat="42.774195" lon="-7.345225">
        <ele>683.083</ele>
        <time>2013-07-09T18:35:07Z</time>
      </trkpt>
      <trkpt lat="42.774115" lon="-7.345285">
        <ele>684.025</ele>
        <time>2013-07-09T18:35:15Z</time>
      </trkpt>
      <trkpt lat="42.774068" lon="-7.345400">
        <ele>684.017</ele>
        <time>2013-07-09T18:35:23Z</time>
      </trkpt>
      <trkpt lat="42.774046" lon="-7.345518">
        <ele>684.007</ele>
        <time>2013-07-09T18:35:29Z</time>
      </trkpt>
      <trkpt lat="42.774035" lon="-7.345645">
        <ele>685.062</ele>
        <time>2013-07-09T18:35:35Z</time>
      </trkpt>
      <trkpt lat="42.774010" lon="-7.345783">
        <ele>686.086</ele>
        <time>2013-07-09T18:35:43Z</time>
      </trkpt>
      <trkpt lat="42.774071" lon="-7.346039">
        <ele>687.049</ele>
        <time>2013-07-09T18:35:49Z</time>
      </trkpt>
      <trkpt lat="42.774069" lon="-7.346163">
        <ele>682.063</ele>
        <time>2013-07-09T18:35:52Z</time>
      </trkpt>
      <trkpt lat="42.774074" lon="-7.346301">
        <ele>670.071</ele>
        <time>2013-07-09T18:35:58Z</time>
      </trkpt>
      <trkpt lat="42.774046" lon="-7.346398">
        <ele>664.071</ele>
        <time>2013-07-09T18:36:08Z</time>
      </trkpt>
      <trkpt lat="42.774052" lon="-7.346477">
        <ele>661.081</ele>
        <time>2013-07-09T18:36:18Z</time>
      </trkpt>
      <trkpt lat="42.774007" lon="-7.346595">
        <ele>661.062</ele>
        <time>2013-07-09T18:36:26Z</time>
      </trkpt>
      <trkpt lat="42.773994" lon="-7.346687">
        <ele>662.083</ele>
        <time>2013-07-09T18:36:36Z</time>
      </trkpt>
      <trkpt lat="42.774069" lon="-7.346772">
        <ele>662.011</ele>
        <time>2013-07-09T18:36:46Z</time>
      </trkpt>
      <trkpt lat="42.774106" lon="-7.346893">
        <ele>662.007</ele>
        <time>2013-07-09T18:36:56Z</time>
      </trkpt>
      <trkpt lat="42.774056" lon="-7.346997">
        <ele>661.020</ele>
        <time>2013-07-09T18:37:04Z</time>
      </trkpt>
      <trkpt lat="42.774040" lon="-7.347124">
        <ele>662.044</ele>
        <time>2013-07-09T18:37:12Z</time>
      </trkpt>
      <trkpt lat="42.774057" lon="-7.347250">
        <ele>662.067</ele>
        <time>2013-07-09T18:37:19Z</time>
      </trkpt>
      <trkpt lat="42.774070" lon="-7.347376">
        <ele>662.051</ele>
        <time>2013-07-09T18:37:27Z</time>
      </trkpt>
      <trkpt lat="42.774089" lon="-7.347515">
        <ele>663.069</ele>
        <time>2013-07-09T18:37:34Z</time>
      </trkpt>
      <trkpt lat="42.774109" lon="-7.347636">
        <ele>663.039</ele>
        <time>2013-07-09T18:37:41Z</time>
      </trkpt>
      <trkpt lat="42.774114" lon="-7.347747">
        <ele>663.059</ele>
        <time>2013-07-09T18:37:51Z</time>
      </trkpt>
      <trkpt lat="42.774111" lon="-7.347812">
        <ele>663.094</ele>
        <time>2013-07-09T18:38:01Z</time>
      </trkpt>
      <trkpt lat="42.774142" lon="-7.347928">
        <ele>663.057</ele>
        <time>2013-07-09T18:38:11Z</time>
      </trkpt>
      <trkpt lat="42.774159" lon="-7.348056">
        <ele>662.022</ele>
        <time>2013-07-09T18:38:20Z</time>
      </trkpt>
      <trkpt lat="42.774106" lon="-7.348104">
        <ele>662.007</ele>
        <time>2013-07-09T18:38:30Z</time>
      </trkpt>
      <trkpt lat="42.774019" lon="-7.348161">
        <ele>662.083</ele>
        <time>2013-07-09T18:38:37Z</time>
      </trkpt>
      <trkpt lat="42.773953" lon="-7.348261">
        <ele>662.047</ele>
        <time>2013-07-09T18:38:43Z</time>
      </trkpt>
      <trkpt lat="42.773891" lon="-7.348308">
        <ele>661.010</ele>
        <time>2013-07-09T18:38:53Z</time>
      </trkpt>
      <trkpt lat="42.773892" lon="-7.348389">
        <ele>661.084</ele>
        <time>2013-07-09T18:39:03Z</time>
      </trkpt>
      <trkpt lat="42.773939" lon="-7.348503">
        <ele>660.082</ele>
        <time>2013-07-09T18:39:09Z</time>
      </trkpt>
      <trkpt lat="42.773941" lon="-7.348638">
        <ele>660.062</ele>
        <time>2013-07-09T18:39:19Z</time>
      </trkpt>
      <trkpt lat="42.773871" lon="-7.348715">
        <ele>659.082</ele>
        <time>2013-07-09T18:39:26Z</time>
      </trkpt>
      <trkpt lat="42.773872" lon="-7.348804">
        <ele>659.064</ele>
        <time>2013-07-09T18:39:36Z</time>
      </trkpt>
      <trkpt lat="42.773866" lon="-7.348927">
        <ele>659.006</ele>
        <time>2013-07-09T18:39:45Z</time>
      </trkpt>
      <trkpt lat="42.773882" lon="-7.349065">
        <ele>659.016</ele>
        <time>2013-07-09T18:39:51Z</time>
      </trkpt>
      <trkpt lat="42.773867" lon="-7.349205">
        <ele>659.007</ele>
        <time>2013-07-09T18:39:58Z</time>
      </trkpt>
      <trkpt lat="42.773815" lon="-7.349307">
        <ele>659.090</ele>
        <time>2013-07-09T18:40:05Z</time>
      </trkpt>
      <trkpt lat="42.773805" lon="-7.349446">
        <ele>659.024</ele>
        <time>2013-07-09T18:40:14Z</time>
      </trkpt>
      <trkpt lat="42.773804" lon="-7.349582">
        <ele>659.047</ele>
        <time>2013-07-09T18:40:24Z</time>
      </trkpt>
      <trkpt lat="42.773847" lon="-7.349704">
        <ele>660.011</ele>
        <time>2013-07-09T18:40:31Z</time>
      </trkpt>
      <trkpt lat="42.773900" lon="-7.349786">
        <ele>661.089</ele>
        <time>2013-07-09T18:40:41Z</time>
      </trkpt>
      <trkpt lat="42.773985" lon="-7.349850">
        <ele>661.079</ele>
        <time>2013-07-09T18:40:46Z</time>
      </trkpt>
      <trkpt lat="42.774074" lon="-7.349905">
        <ele>661.069</ele>
        <time>2013-07-09T18:40:52Z</time>
      </trkpt>
      <trkpt lat="42.774163" lon="-7.349961">
        <ele>661.054</ele>
        <time>2013-07-09T18:40:56Z</time>
      </trkpt>
      <trkpt lat="42.774212" lon="-7.350087">
        <ele>659.056</ele>
        <time>2013-07-09T18:41:02Z</time>
      </trkpt>
      <trkpt lat="42.774189" lon="-7.350208">
        <ele>654.011</ele>
        <time>2013-07-09T18:41:11Z</time>
      </trkpt>
      <trkpt lat="42.774090" lon="-7.350234">
        <ele>648.007</ele>
        <time>2013-07-09T18:41:20Z</time>
      </trkpt>
      <trkpt lat="42.774000" lon="-7.350215">
        <ele>646.079</ele>
        <time>2013-07-09T18:41:24Z</time>
      </trkpt>
      <trkpt lat="42.773903" lon="-7.350201">
        <ele>643.063</ele>
        <time>2013-07-09T18:41:32Z</time>
      </trkpt>
      <trkpt lat="42.773873" lon="-7.350209">
        <ele>639.036</ele>
        <time>2013-07-09T18:42:12Z</time>
      </trkpt>
      <trkpt lat="42.773918" lon="-7.350196">
        <ele>636.010</ele>
        <time>2013-07-09T18:42:50Z</time>
      </trkpt>
      <trkpt lat="42.773920" lon="-7.350261">
        <ele>636.018</ele>
        <time>2013-07-09T18:43:03Z</time>
      </trkpt>
      <trkpt lat="42.773966" lon="-7.350380">
        <ele>635.028</ele>
        <time>2013-07-09T18:43:07Z</time>
      </trkpt>
      <trkpt lat="42.774004" lon="-7.350458">
        <ele>635.048</ele>
        <time>2013-07-09T18:43:17Z</time>
      </trkpt>
      <trkpt lat="42.774017" lon="-7.350565">
        <ele>635.059</ele>
        <time>2013-07-09T18:43:27Z</time>
      </trkpt>
      <trkpt lat="42.774043" lon="-7.350696">
        <ele>635.003</ele>
        <time>2013-07-09T18:43:36Z</time>
      </trkpt>
      <trkpt lat="42.774120" lon="-7.350768">
        <ele>635.023</ele>
        <time>2013-07-09T18:43:38Z</time>
      </trkpt>
      <trkpt lat="42.774099" lon="-7.350899">
        <ele>634.007</ele>
        <time>2013-07-09T18:43:43Z</time>
      </trkpt>
      <trkpt lat="42.774161" lon="-7.351036">
        <ele>634.069</ele>
        <time>2013-07-09T18:43:47Z</time>
      </trkpt>
      <trkpt lat="42.774146" lon="-7.351144">
        <ele>633.053</ele>
        <time>2013-07-09T18:43:57Z</time>
      </trkpt>
      <trkpt lat="42.774054" lon="-7.351091">
        <ele>633.026</ele>
        <time>2013-07-09T18:44:06Z</time>
      </trkpt>
      <trkpt lat="42.773945" lon="-7.351022">
        <ele>633.080</ele>
        <time>2013-07-09T18:44:11Z</time>
      </trkpt>
      <trkpt lat="42.773866" lon="-7.351066">
        <ele>633.028</ele>
        <time>2013-07-09T18:44:21Z</time>
      </trkpt>
      <trkpt lat="42.773774" lon="-7.351102">
        <ele>633.068</ele>
        <time>2013-07-09T18:44:31Z</time>
      </trkpt>
      <trkpt lat="42.773742" lon="-7.351147">
        <ele>633.038</ele>
        <time>2013-07-09T18:44:57Z</time>
      </trkpt>
      <trkpt lat="42.773699" lon="-7.351187">
        <ele>632.036</ele>
        <time>2013-07-09T18:45:07Z</time>
      </trkpt>
      <trkpt lat="42.773608" lon="-7.351254">
        <ele>632.017</ele>
        <time>2013-07-09T18:45:16Z</time>
      </trkpt>
      <trkpt lat="42.773578" lon="-7.351372">
        <ele>632.018</ele>
        <time>2013-07-09T18:45:25Z</time>
      </trkpt>
      <trkpt lat="42.773618" lon="-7.351438">
        <ele>632.007</ele>
        <time>2013-07-09T18:45:38Z</time>
      </trkpt>
      <trkpt lat="42.773598" lon="-7.351606">
        <ele>632.067</ele>
        <time>2013-07-09T18:45:41Z</time>
      </trkpt>
      <trkpt lat="42.773554" lon="-7.351744">
        <ele>632.041</ele>
        <time>2013-07-09T18:45:45Z</time>
      </trkpt>
      <trkpt lat="42.773548" lon="-7.351806">
        <ele>631.094</ele>
        <time>2013-07-09T18:46:18Z</time>
      </trkpt>
      <trkpt lat="42.773576" lon="-7.351903">
        <ele>631.098</ele>
        <time>2013-07-09T18:46:28Z</time>
      </trkpt>
      <trkpt lat="42.773585" lon="-7.351990">
        <ele>631.016</ele>
        <time>2013-07-09T18:46:38Z</time>
      </trkpt>
      <trkpt lat="42.773581" lon="-7.352051">
        <ele>632.076</ele>
        <time>2013-07-09T18:46:49Z</time>
      </trkpt>
      <trkpt lat="42.773631" lon="-7.352029">
        <ele>632.056</ele>
        <time>2013-07-09T18:46:59Z</time>
      </trkpt>
      <trkpt lat="42.773676" lon="-7.352029">
        <ele>632.078</ele>
        <time>2013-07-09T18:47:09Z</time>
      </trkpt>
      <trkpt lat="42.773737" lon="-7.352113">
        <ele>632.033</ele>
        <time>2013-07-09T18:47:19Z</time>
      </trkpt>
      <trkpt lat="42.773781" lon="-7.352230">
        <ele>632.026</ele>
        <time>2013-07-09T18:47:26Z</time>
      </trkpt>
      <trkpt lat="42.773809" lon="-7.352355">
        <ele>631.007</ele>
        <time>2013-07-09T18:47:32Z</time>
      </trkpt>
      <trkpt lat="42.773818" lon="-7.352498">
        <ele>631.091</ele>
        <time>2013-07-09T18:47:37Z</time>
      </trkpt>
      <trkpt lat="42.773784" lon="-7.352613">
        <ele>630.095</ele>
        <time>2013-07-09T18:47:43Z</time>
      </trkpt>
      <trkpt lat="42.773759" lon="-7.352741">
        <ele>630.048</ele>
        <time>2013-07-09T18:47:49Z</time>
      </trkpt>
      <trkpt lat="42.773736" lon="-7.352882">
        <ele>630.052</ele>
        <time>2013-07-09T18:47:56Z</time>
      </trkpt>
      <trkpt lat="42.773766" lon="-7.352961">
        <ele>629.060</ele>
        <time>2013-07-09T18:48:06Z</time>
      </trkpt>
      <trkpt lat="42.773679" lon="-7.353011">
        <ele>629.080</ele>
        <time>2013-07-09T18:48:11Z</time>
      </trkpt>
      <trkpt lat="42.773573" lon="-7.353065">
        <ele>628.050</ele>
        <time>2013-07-09T18:48:16Z</time>
      </trkpt>
      <trkpt lat="42.773480" lon="-7.353084">
        <ele>628.028</ele>
        <time>2013-07-09T18:48:20Z</time>
      </trkpt>
      <trkpt lat="42.773449" lon="-7.353202">
        <ele>627.089</ele>
        <time>2013-07-09T18:48:27Z</time>
      </trkpt>
      <trkpt lat="42.773374" lon="-7.353279">
        <ele>628.017</ele>
        <time>2013-07-09T18:48:37Z</time>
      </trkpt>
      <trkpt lat="42.773420" lon="-7.353326">
        <ele>629.007</ele>
        <time>2013-07-09T18:48:47Z</time>
      </trkpt>
      <trkpt lat="42.773393" lon="-7.353392">
        <ele>628.056</ele>
        <time>2013-07-09T18:48:57Z</time>
      </trkpt>
      <trkpt lat="42.773296" lon="-7.353386">
        <ele>628.040</ele>
        <time>2013-07-09T18:49:07Z</time>
      </trkpt>
      <trkpt lat="42.773236" lon="-7.353422">
        <ele>630.013</ele>
        <time>2013-07-09T18:49:17Z</time>
      </trkpt>
      <trkpt lat="42.773171" lon="-7.353439">
        <ele>630.027</ele>
        <time>2013-07-09T18:49:27Z</time>
      </trkpt>
      <trkpt lat="42.773144" lon="-7.353535">
        <ele>631.085</ele>
        <time>2013-07-09T18:49:37Z</time>
      </trkpt>
      <trkpt lat="42.773067" lon="-7.353598">
        <ele>631.075</ele>
        <time>2013-07-09T18:49:43Z</time>
      </trkpt>
      <trkpt lat="42.773107" lon="-7.353711">
        <ele>629.055</ele>
        <time>2013-07-09T18:49:51Z</time>
      </trkpt>
      <trkpt lat="42.773161" lon="-7.353812">
        <ele>628.089</ele>
        <time>2013-07-09T18:49:55Z</time>
      </trkpt>
      <trkpt lat="42.773199" lon="-7.353935">
        <ele>626.006</ele>
        <time>2013-07-09T18:50:01Z</time>
      </trkpt>
      <trkpt lat="42.773297" lon="-7.354013">
        <ele>626.026</ele>
        <time>2013-07-09T18:50:08Z</time>
      </trkpt>
      <trkpt lat="42.773360" lon="-7.354101">
        <ele>625.007</ele>
        <time>2013-07-09T18:50:16Z</time>
      </trkpt>
      <trkpt lat="42.773446" lon="-7.354175">
        <ele>623.082</ele>
        <time>2013-07-09T18:50:22Z</time>
      </trkpt>
      <trkpt lat="42.773493" lon="-7.354279">
        <ele>622.076</ele>
        <time>2013-07-09T18:50:28Z</time>
      </trkpt>
      <trkpt lat="42.773544" lon="-7.354378">
        <ele>621.059</ele>
        <time>2013-07-09T18:50:38Z</time>
      </trkpt>
      <trkpt lat="42.773555" lon="-7.354502">
        <ele>619.073</ele>
        <time>2013-07-09T18:50:46Z</time>
      </trkpt>
      <trkpt lat="42.773524" lon="-7.354582">
        <ele>617.011</ele>
        <time>2013-07-09T18:50:56Z</time>
      </trkpt>
      <trkpt lat="42.773537" lon="-7.354679">
        <ele>615.061</ele>
        <time>2013-07-09T18:51:06Z</time>
      </trkpt>
      <trkpt lat="42.773577" lon="-7.354806">
        <ele>614.091</ele>
        <time>2013-07-09T18:51:15Z</time>
      </trkpt>
      <trkpt lat="42.773669" lon="-7.354980">
        <ele>613.063</ele>
        <time>2013-07-09T18:51:20Z</time>
      </trkpt>
      <trkpt lat="42.773698" lon="-7.355101">
        <ele>611.044</ele>
        <time>2013-07-09T18:51:24Z</time>
      </trkpt>
      <trkpt lat="42.773720" lon="-7.355249">
        <ele>605.018</ele>
        <time>2013-07-09T18:51:32Z</time>
      </trkpt>
      <trkpt lat="42.773731" lon="-7.355343">
        <ele>601.007</ele>
        <time>2013-07-09T18:51:42Z</time>
      </trkpt>
      <trkpt lat="42.773774" lon="-7.355376">
        <ele>596.060</ele>
        <time>2013-07-09T18:52:03Z</time>
      </trkpt>
      <trkpt lat="42.773830" lon="-7.355377">
        <ele>595.084</ele>
        <time>2013-07-09T18:52:13Z</time>
      </trkpt>
      <trkpt lat="42.773889" lon="-7.355418">
        <ele>594.037</ele>
        <time>2013-07-09T18:52:23Z</time>
      </trkpt>
      <trkpt lat="42.773850" lon="-7.355449">
        <ele>587.061</ele>
        <time>2013-07-09T18:52:35Z</time>
      </trkpt>
      <trkpt lat="42.773877" lon="-7.355461">
        <ele>577.019</ele>
        <time>2013-07-09T18:53:15Z</time>
      </trkpt>
      <trkpt lat="42.773924" lon="-7.355455">
        <ele>572.039</ele>
        <time>2013-07-09T18:53:41Z</time>
      </trkpt>
      <trkpt lat="42.773972" lon="-7.355453">
        <ele>569.039</ele>
        <time>2013-07-09T18:53:52Z</time>
      </trkpt>
      <trkpt lat="42.773996" lon="-7.355447">
        <ele>570.037</ele>
        <time>2013-07-09T18:54:32Z</time>
      </trkpt>
      <trkpt lat="42.774037" lon="-7.355415">
        <ele>570.049</ele>
        <time>2013-07-09T18:54:47Z</time>
      </trkpt>
      <trkpt lat="42.773952" lon="-7.355489">
        <ele>570.013</ele>
        <time>2013-07-09T18:54:54Z</time>
      </trkpt>
      <trkpt lat="42.773826" lon="-7.355511">
        <ele>571.007</ele>
        <time>2013-07-09T18:54:56Z</time>
      </trkpt>
      <trkpt lat="42.773830" lon="-7.355644">
        <ele>571.047</ele>
        <time>2013-07-09T18:55:04Z</time>
      </trkpt>
      <trkpt lat="42.773818" lon="-7.355745">
        <ele>571.091</ele>
        <time>2013-07-09T18:55:14Z</time>
      </trkpt>
      <trkpt lat="42.773744" lon="-7.355651">
        <ele>573.054</ele>
        <time>2013-07-09T18:55:21Z</time>
      </trkpt>
      <trkpt lat="42.773722" lon="-7.355716">
        <ele>574.018</ele>
        <time>2013-07-09T18:55:31Z</time>
      </trkpt>
      <trkpt lat="42.773708" lon="-7.355840">
        <ele>574.086</ele>
        <time>2013-07-09T18:55:40Z</time>
      </trkpt>
      <trkpt lat="42.773740" lon="-7.355962">
        <ele>575.066</ele>
        <time>2013-07-09T18:55:48Z</time>
      </trkpt>
      <trkpt lat="42.773761" lon="-7.356096">
        <ele>576.056</ele>
        <time>2013-07-09T18:55:55Z</time>
      </trkpt>
      <trkpt lat="42.773766" lon="-7.356228">
        <ele>576.016</ele>
        <time>2013-07-09T18:56:04Z</time>
      </trkpt>
      <trkpt lat="42.773788" lon="-7.356362">
        <ele>577.076</ele>
        <time>2013-07-09T18:56:11Z</time>
      </trkpt>
      <trkpt lat="42.773796" lon="-7.356490">
        <ele>577.013</ele>
        <time>2013-07-09T18:56:19Z</time>
      </trkpt>
      <trkpt lat="42.773772" lon="-7.356583">
        <ele>578.007</ele>
        <time>2013-07-09T18:56:29Z</time>
      </trkpt>
      <trkpt lat="42.773741" lon="-7.356699">
        <ele>578.025</ele>
        <time>2013-07-09T18:56:37Z</time>
      </trkpt>
      <trkpt lat="42.773707" lon="-7.356813">
        <ele>578.069</ele>
        <time>2013-07-09T18:56:46Z</time>
      </trkpt>
      <trkpt lat="42.773680" lon="-7.356934">
        <ele>579.082</ele>
        <time>2013-07-09T18:56:55Z</time>
      </trkpt>
      <trkpt lat="42.773659" lon="-7.357071">
        <ele>579.016</ele>
        <time>2013-07-09T18:57:02Z</time>
      </trkpt>
      <trkpt lat="42.773656" lon="-7.357212">
        <ele>579.074</ele>
        <time>2013-07-09T18:57:09Z</time>
      </trkpt>
      <trkpt lat="42.773681" lon="-7.357338">
        <ele>579.084</ele>
        <time>2013-07-09T18:57:18Z</time>
      </trkpt>
      <trkpt lat="42.773705" lon="-7.357458">
        <ele>579.094</ele>
        <time>2013-07-09T18:57:26Z</time>
      </trkpt>
      <trkpt lat="42.773755" lon="-7.357545">
        <ele>579.026</ele>
        <time>2013-07-09T18:57:36Z</time>
      </trkpt>
      <trkpt lat="42.773764" lon="-7.357667">
        <ele>579.047</ele>
        <time>2013-07-09T18:57:45Z</time>
      </trkpt>
      <trkpt lat="42.773753" lon="-7.357802">
        <ele>579.011</ele>
        <time>2013-07-09T18:57:52Z</time>
      </trkpt>
      <trkpt lat="42.773764" lon="-7.357930">
        <ele>579.007</ele>
        <time>2013-07-09T18:57:59Z</time>
      </trkpt>
      <trkpt lat="42.773716" lon="-7.358045">
        <ele>578.046</ele>
        <time>2013-07-09T18:58:08Z</time>
      </trkpt>
      <trkpt lat="42.773659" lon="-7.358133">
        <ele>579.020</ele>
        <time>2013-07-09T18:58:18Z</time>
      </trkpt>
      <trkpt lat="42.773605" lon="-7.358224">
        <ele>579.073</ele>
        <time>2013-07-09T18:58:28Z</time>
      </trkpt>
      <trkpt lat="42.773566" lon="-7.358345">
        <ele>580.047</ele>
        <time>2013-07-09T18:58:38Z</time>
      </trkpt>
      <trkpt lat="42.773522" lon="-7.358468">
        <ele>579.015</ele>
        <time>2013-07-09T18:58:44Z</time>
      </trkpt>
      <trkpt lat="42.773535" lon="-7.358611">
        <ele>579.015</ele>
        <time>2013-07-09T18:58:49Z</time>
      </trkpt>
      <trkpt lat="42.773563" lon="-7.358727">
        <ele>579.035</ele>
        <time>2013-07-09T18:58:54Z</time>
      </trkpt>
      <trkpt lat="42.773583" lon="-7.358848">
        <ele>577.094</ele>
        <time>2013-07-09T18:58:59Z</time>
      </trkpt>
      <trkpt lat="42.773619" lon="-7.358967">
        <ele>577.057</ele>
        <time>2013-07-09T18:59:05Z</time>
      </trkpt>
      <trkpt lat="42.773657" lon="-7.359088">
        <ele>576.022</ele>
        <time>2013-07-09T18:59:12Z</time>
      </trkpt>
      <trkpt lat="42.773699" lon="-7.359199">
        <ele>576.007</ele>
        <time>2013-07-09T18:59:20Z</time>
      </trkpt>
      <trkpt lat="42.773699" lon="-7.359265">
        <ele>576.033</ele>
        <time>2013-07-09T18:59:31Z</time>
      </trkpt>
      <trkpt lat="42.773717" lon="-7.359344">
        <ele>577.097</ele>
        <time>2013-07-09T18:59:41Z</time>
      </trkpt>
      <trkpt lat="42.773729" lon="-7.359482">
        <ele>577.090</ele>
        <time>2013-07-09T18:59:51Z</time>
      </trkpt>
      <trkpt lat="42.773766" lon="-7.359603">
        <ele>576.014</ele>
        <time>2013-07-09T18:59:58Z</time>
      </trkpt>
      <trkpt lat="42.773777" lon="-7.359741">
        <ele>576.012</ele>
        <time>2013-07-09T19:00:04Z</time>
      </trkpt>
      <trkpt lat="42.773791" lon="-7.359862">
        <ele>576.072</ele>
        <time>2013-07-09T19:00:10Z</time>
      </trkpt>
      <trkpt lat="42.773795" lon="-7.359990">
        <ele>576.032</ele>
        <time>2013-07-09T19:00:17Z</time>
      </trkpt>
      <trkpt lat="42.773800" lon="-7.360129">
        <ele>575.097</ele>
        <time>2013-07-09T19:00:24Z</time>
      </trkpt>
      <trkpt lat="42.773796" lon="-7.360258">
        <ele>574.023</ele>
        <time>2013-07-09T19:00:34Z</time>
      </trkpt>
      <trkpt lat="42.773827" lon="-7.360356">
        <ele>572.025</ele>
        <time>2013-07-09T19:00:44Z</time>
      </trkpt>
      <trkpt lat="42.773867" lon="-7.360449">
        <ele>572.007</ele>
        <time>2013-07-09T19:00:54Z</time>
      </trkpt>
      <trkpt lat="42.773892" lon="-7.360560">
        <ele>570.033</ele>
        <time>2013-07-09T19:01:04Z</time>
      </trkpt>
      <trkpt lat="42.773848" lon="-7.360673">
        <ele>567.047</ele>
        <time>2013-07-09T19:01:11Z</time>
      </trkpt>
      <trkpt lat="42.773804" lon="-7.360705">
        <ele>565.010</ele>
        <time>2013-07-09T19:01:21Z</time>
      </trkpt>
      <trkpt lat="42.773778" lon="-7.360763">
        <ele>563.024</ele>
        <time>2013-07-09T19:01:31Z</time>
      </trkpt>
      <trkpt lat="42.773808" lon="-7.360704">
        <ele>563.092</ele>
        <time>2013-07-09T19:01:43Z</time>
      </trkpt>
      <trkpt lat="42.773741" lon="-7.360655">
        <ele>563.032</ele>
        <time>2013-07-09T19:01:53Z</time>
      </trkpt>
      <trkpt lat="42.773796" lon="-7.360696">
        <ele>563.052</ele>
        <time>2013-07-09T19:02:04Z</time>
      </trkpt>
      <trkpt lat="42.773879" lon="-7.360748">
        <ele>563.047</ele>
        <time>2013-07-09T19:02:11Z</time>
      </trkpt>
      <trkpt lat="42.773908" lon="-7.360801">
        <ele>562.029</ele>
        <time>2013-07-09T19:02:21Z</time>
      </trkpt>
      <trkpt lat="42.773922" lon="-7.360863">
        <ele>561.021</ele>
        <time>2013-07-09T19:02:31Z</time>
      </trkpt>
      <trkpt lat="42.773952" lon="-7.361080">
        <ele>561.007</ele>
        <time>2013-07-09T19:02:36Z</time>
      </trkpt>
      <trkpt lat="42.773877" lon="-7.361172">
        <ele>561.028</ele>
        <time>2013-07-09T19:02:38Z</time>
      </trkpt>
      <trkpt lat="42.773837" lon="-7.361287">
        <ele>560.072</ele>
        <time>2013-07-09T19:02:45Z</time>
      </trkpt>
      <trkpt lat="42.773784" lon="-7.361396">
        <ele>560.065</ele>
        <time>2013-07-09T19:02:52Z</time>
      </trkpt>
      <trkpt lat="42.773684" lon="-7.361465">
        <ele>558.069</ele>
        <time>2013-07-09T19:02:58Z</time>
      </trkpt>
      <trkpt lat="42.773636" lon="-7.361575">
        <ele>556.057</ele>
        <time>2013-07-09T19:03:04Z</time>
      </trkpt>
      <trkpt lat="42.773624" lon="-7.361711">
        <ele>555.087</ele>
        <time>2013-07-09T19:03:13Z</time>
      </trkpt>
      <trkpt lat="42.773623" lon="-7.361841">
        <ele>554.047</ele>
        <time>2013-07-09T19:03:22Z</time>
      </trkpt>
      <trkpt lat="42.773623" lon="-7.361970">
        <ele>553.044</ele>
        <time>2013-07-09T19:03:31Z</time>
      </trkpt>
      <trkpt lat="42.773614" lon="-7.362091">
        <ele>554.005</ele>
        <time>2013-07-09T19:03:41Z</time>
      </trkpt>
      <trkpt lat="42.773594" lon="-7.362199">
        <ele>553.015</ele>
        <time>2013-07-09T19:03:51Z</time>
      </trkpt>
      <trkpt lat="42.773634" lon="-7.362290">
        <ele>553.007</ele>
        <time>2013-07-09T19:04:01Z</time>
      </trkpt>
      <trkpt lat="42.773713" lon="-7.362345">
        <ele>552.088</ele>
        <time>2013-07-09T19:04:11Z</time>
      </trkpt>
      <trkpt lat="42.773762" lon="-7.362375">
        <ele>552.082</ele>
        <time>2013-07-09T19:04:23Z</time>
      </trkpt>
      <trkpt lat="42.773853" lon="-7.362337">
        <ele>552.095</ele>
        <time>2013-07-09T19:04:33Z</time>
      </trkpt>
      <trkpt lat="42.773650" lon="-7.362361">
        <ele>550.099</ele>
        <time>2013-07-09T19:13:07Z</time>
      </trkpt>
      <trkpt lat="42.773657" lon="-7.362486">
        <ele>549.077</ele>
        <time>2013-07-09T19:13:13Z</time>
      </trkpt>
      <trkpt lat="42.773600" lon="-7.362470">
        <ele>549.077</ele>
        <time>2013-07-09T19:13:23Z</time>
      </trkpt>
      <trkpt lat="42.773635" lon="-7.362516">
        <ele>549.067</ele>
        <time>2013-07-09T19:13:35Z</time>
      </trkpt>
      <trkpt lat="42.773630" lon="-7.362578">
        <ele>549.082</ele>
        <time>2013-07-09T19:13:46Z</time>
      </trkpt>
      <trkpt lat="42.773597" lon="-7.362640">
        <ele>550.043</ele>
        <time>2013-07-09T19:14:10Z</time>
      </trkpt>
      <trkpt lat="42.773511" lon="-7.362699">
        <ele>550.017</ele>
        <time>2013-07-09T19:14:14Z</time>
      </trkpt>
      <trkpt lat="42.773421" lon="-7.362762">
        <ele>551.007</ele>
        <time>2013-07-09T19:14:19Z</time>
      </trkpt>
      <trkpt lat="42.773343" lon="-7.362829">
        <ele>551.062</ele>
        <time>2013-07-09T19:14:24Z</time>
      </trkpt>
      <trkpt lat="42.773296" lon="-7.362944">
        <ele>552.016</ele>
        <time>2013-07-09T19:14:31Z</time>
      </trkpt>
      <trkpt lat="42.773383" lon="-7.363020">
        <ele>553.029</ele>
        <time>2013-07-09T19:14:36Z</time>
      </trkpt>
      <trkpt lat="42.773450" lon="-7.363104">
        <ele>553.073</ele>
        <time>2013-07-09T19:14:42Z</time>
      </trkpt>
      <trkpt lat="42.773358" lon="-7.363170">
        <ele>553.051</ele>
        <time>2013-07-09T19:14:46Z</time>
      </trkpt>
      <trkpt lat="42.773277" lon="-7.363252">
        <ele>554.071</ele>
        <time>2013-07-09T19:14:52Z</time>
      </trkpt>
      <trkpt lat="42.773263" lon="-7.363320">
        <ele>554.041</ele>
        <time>2013-07-09T19:15:05Z</time>
      </trkpt>
      <trkpt lat="42.773211" lon="-7.363411">
        <ele>555.084</ele>
        <time>2013-07-09T19:15:15Z</time>
      </trkpt>
      <trkpt lat="42.773179" lon="-7.363459">
        <ele>555.007</ele>
        <time>2013-07-09T19:15:25Z</time>
      </trkpt>
      <trkpt lat="42.773157" lon="-7.363588">
        <ele>556.017</ele>
        <time>2013-07-09T19:15:34Z</time>
      </trkpt>
      <trkpt lat="42.773112" lon="-7.363687">
        <ele>556.007</ele>
        <time>2013-07-09T19:15:44Z</time>
      </trkpt>
      <trkpt lat="42.773080" lon="-7.363787">
        <ele>557.032</ele>
        <time>2013-07-09T19:15:54Z</time>
      </trkpt>
      <trkpt lat="42.773122" lon="-7.363907">
        <ele>557.046</ele>
        <time>2013-07-09T19:16:03Z</time>
      </trkpt>
      <trkpt lat="42.773105" lon="-7.364034">
        <ele>557.049</ele>
        <time>2013-07-09T19:16:11Z</time>
      </trkpt>
      <trkpt lat="42.773125" lon="-7.364161">
        <ele>557.043</ele>
        <time>2013-07-09T19:16:20Z</time>
      </trkpt>
      <trkpt lat="42.773110" lon="-7.364286">
        <ele>557.081</ele>
        <time>2013-07-09T19:16:27Z</time>
      </trkpt>
      <trkpt lat="42.773112" lon="-7.364416">
        <ele>556.071</ele>
        <time>2013-07-09T19:16:35Z</time>
      </trkpt>
      <trkpt lat="42.773107" lon="-7.364537">
        <ele>556.061</ele>
        <time>2013-07-09T19:16:45Z</time>
      </trkpt>
      <trkpt lat="42.773143" lon="-7.364592">
        <ele>555.036</ele>
        <time>2013-07-09T19:16:55Z</time>
      </trkpt>
      <trkpt lat="42.773164" lon="-7.364694">
        <ele>555.017</ele>
        <time>2013-07-09T19:17:05Z</time>
      </trkpt>
      <trkpt lat="42.773192" lon="-7.364820">
        <ele>555.018</ele>
        <time>2013-07-09T19:17:15Z</time>
      </trkpt>
      <trkpt lat="42.773204" lon="-7.364957">
        <ele>555.007</ele>
        <time>2013-07-09T19:17:24Z</time>
      </trkpt>
      <trkpt lat="42.773209" lon="-7.365087">
        <ele>553.037</ele>
        <time>2013-07-09T19:17:31Z</time>
      </trkpt>
      <trkpt lat="42.773260" lon="-7.365190">
        <ele>552.091</ele>
        <time>2013-07-09T19:17:38Z</time>
      </trkpt>
      <trkpt lat="42.773307" lon="-7.365313">
        <ele>552.084</ele>
        <time>2013-07-09T19:17:46Z</time>
      </trkpt>
      <trkpt lat="42.773339" lon="-7.365430">
        <ele>551.078</ele>
        <time>2013-07-09T19:17:56Z</time>
      </trkpt>
      <trkpt lat="42.773354" lon="-7.365559">
        <ele>551.096</ele>
        <time>2013-07-09T19:18:05Z</time>
      </trkpt>
      <trkpt lat="42.773368" lon="-7.365642">
        <ele>551.086</ele>
        <time>2013-07-09T19:18:15Z</time>
      </trkpt>
      <trkpt lat="42.773345" lon="-7.365763">
        <ele>551.056</ele>
        <time>2013-07-09T19:18:23Z</time>
      </trkpt>
      <trkpt lat="42.773350" lon="-7.365885">
        <ele>551.095</ele>
        <time>2013-07-09T19:18:32Z</time>
      </trkpt>
      <trkpt lat="42.773352" lon="-7.365990">
        <ele>551.049</ele>
        <time>2013-07-09T19:18:42Z</time>
      </trkpt>
      <trkpt lat="42.773337" lon="-7.366097">
        <ele>551.023</ele>
        <time>2013-07-09T19:18:52Z</time>
      </trkpt>
      <trkpt lat="42.773314" lon="-7.366219">
        <ele>551.007</ele>
        <time>2013-07-09T19:19:02Z</time>
      </trkpt>
      <trkpt lat="42.773269" lon="-7.366326">
        <ele>551.083</ele>
        <time>2013-07-09T19:19:12Z</time>
      </trkpt>
      <trkpt lat="42.773229" lon="-7.366459">
        <ele>551.037</ele>
        <time>2013-07-09T19:19:20Z</time>
      </trkpt>
      <trkpt lat="42.773162" lon="-7.366546">
        <ele>551.080</ele>
        <time>2013-07-09T19:19:24Z</time>
      </trkpt>
      <trkpt lat="42.773126" lon="-7.366665">
        <ele>551.064</ele>
        <time>2013-07-09T19:19:32Z</time>
      </trkpt>
      <trkpt lat="42.773103" lon="-7.366793">
        <ele>551.082</ele>
        <time>2013-07-09T19:19:41Z</time>
      </trkpt>
      <trkpt lat="42.773136" lon="-7.366869">
        <ele>551.032</ele>
        <time>2013-07-09T19:19:51Z</time>
      </trkpt>
      <trkpt lat="42.773194" lon="-7.366947">
        <ele>551.022</ele>
        <time>2013-07-09T19:20:01Z</time>
      </trkpt>
      <trkpt lat="42.773240" lon="-7.367036">
        <ele>552.085</ele>
        <time>2013-07-09T19:20:11Z</time>
      </trkpt>
      <trkpt lat="42.773216" lon="-7.367160">
        <ele>551.089</ele>
        <time>2013-07-09T19:20:21Z</time>
      </trkpt>
      <trkpt lat="42.773172" lon="-7.367287">
        <ele>550.017</ele>
        <time>2013-07-09T19:20:30Z</time>
      </trkpt>
      <trkpt lat="42.773098" lon="-7.367367">
        <ele>550.007</ele>
        <time>2013-07-09T19:20:36Z</time>
      </trkpt>
      <trkpt lat="42.773056" lon="-7.367489">
        <ele>549.052</ele>
        <time>2013-07-09T19:20:44Z</time>
      </trkpt>
      <trkpt lat="42.773003" lon="-7.367602">
        <ele>549.026</ele>
        <time>2013-07-09T19:20:51Z</time>
      </trkpt>
      <trkpt lat="42.772973" lon="-7.367695">
        <ele>549.099</ele>
        <time>2013-07-09T19:21:01Z</time>
      </trkpt>
      <trkpt lat="42.772956" lon="-7.367771">
        <ele>549.073</ele>
        <time>2013-07-09T19:21:11Z</time>
      </trkpt>
      <trkpt lat="42.772961" lon="-7.367894">
        <ele>549.041</ele>
        <time>2013-07-09T19:21:20Z</time>
      </trkpt>
      <trkpt lat="42.772942" lon="-7.368022">
        <ele>549.021</ele>
        <time>2013-07-09T19:21:26Z</time>
      </trkpt>
      <trkpt lat="42.772983" lon="-7.368131">
        <ele>550.031</ele>
        <time>2013-07-09T19:21:32Z</time>
      </trkpt>
      <trkpt lat="42.773049" lon="-7.368221">
        <ele>550.084</ele>
        <time>2013-07-09T19:21:39Z</time>
      </trkpt>
      <trkpt lat="42.773062" lon="-7.368349">
        <ele>550.007</ele>
        <time>2013-07-09T19:21:45Z</time>
      </trkpt>
      <trkpt lat="42.773065" lon="-7.368472">
        <ele>551.017</ele>
        <time>2013-07-09T19:21:52Z</time>
      </trkpt>
      <trkpt lat="42.773114" lon="-7.368581">
        <ele>551.007</ele>
        <time>2013-07-09T19:22:00Z</time>
      </trkpt>
      <trkpt lat="42.773157" lon="-7.368703">
        <ele>551.032</ele>
        <time>2013-07-09T19:22:09Z</time>
      </trkpt>
      <trkpt lat="42.773229" lon="-7.368790">
        <ele>551.086</ele>
        <time>2013-07-09T19:22:17Z</time>
      </trkpt>
      <trkpt lat="42.773280" lon="-7.368875">
        <ele>551.089</ele>
        <time>2013-07-09T19:22:27Z</time>
      </trkpt>
      <trkpt lat="42.773283" lon="-7.368945">
        <ele>551.023</ele>
        <time>2013-07-09T19:22:38Z</time>
      </trkpt>
      <trkpt lat="42.773289" lon="-7.369063">
        <ele>551.091</ele>
        <time>2013-07-09T19:22:48Z</time>
      </trkpt>
      <trkpt lat="42.773366" lon="-7.369160">
        <ele>552.071</ele>
        <time>2013-07-09T19:22:58Z</time>
      </trkpt>
      <trkpt lat="42.773268" lon="-7.369360">
        <ele>551.061</ele>
        <time>2013-07-09T19:23:01Z</time>
      </trkpt>
      <trkpt lat="42.773241" lon="-7.369494">
        <ele>552.039</ele>
        <time>2013-07-09T19:23:04Z</time>
      </trkpt>
      <trkpt lat="42.773240" lon="-7.369623">
        <ele>553.001</ele>
        <time>2013-07-09T19:23:09Z</time>
      </trkpt>
      <trkpt lat="42.773194" lon="-7.369734">
        <ele>552.021</ele>
        <time>2013-07-09T19:23:15Z</time>
      </trkpt>
      <trkpt lat="42.773164" lon="-7.369858">
        <ele>550.007</ele>
        <time>2013-07-09T19:23:22Z</time>
      </trkpt>
      <trkpt lat="42.773171" lon="-7.369990">
        <ele>548.037</ele>
        <time>2013-07-09T19:23:30Z</time>
      </trkpt>
      <trkpt lat="42.773149" lon="-7.370115">
        <ele>547.021</ele>
        <time>2013-07-09T19:23:38Z</time>
      </trkpt>
      <trkpt lat="42.773160" lon="-7.370244">
        <ele>546.074</ele>
        <time>2013-07-09T19:23:47Z</time>
      </trkpt>
      <trkpt lat="42.773194" lon="-7.370368">
        <ele>545.068</ele>
        <time>2013-07-09T19:23:56Z</time>
      </trkpt>
      <trkpt lat="42.773208" lon="-7.370482">
        <ele>545.086</ele>
        <time>2013-07-09T19:24:06Z</time>
      </trkpt>
      <trkpt lat="42.773219" lon="-7.370607">
        <ele>544.036</ele>
        <time>2013-07-09T19:24:15Z</time>
      </trkpt>
      <trkpt lat="42.773231" lon="-7.370731">
        <ele>544.096</ele>
        <time>2013-07-09T19:24:24Z</time>
      </trkpt>
      <trkpt lat="42.773258" lon="-7.370852">
        <ele>543.088</ele>
        <time>2013-07-09T19:24:34Z</time>
      </trkpt>
      <trkpt lat="42.773289" lon="-7.370950">
        <ele>543.024</ele>
        <time>2013-07-09T19:24:44Z</time>
      </trkpt>
      <trkpt lat="42.773261" lon="-7.371000">
        <ele>542.026</ele>
        <time>2013-07-09T19:25:02Z</time>
      </trkpt>
      <trkpt lat="42.773274" lon="-7.371097">
        <ele>541.007</ele>
        <time>2013-07-09T19:25:12Z</time>
      </trkpt>
      <trkpt lat="42.773306" lon="-7.371110">
        <ele>537.012</ele>
        <time>2013-07-09T19:25:52Z</time>
      </trkpt>
      <trkpt lat="42.773309" lon="-7.371177">
        <ele>535.016</ele>
        <time>2013-07-09T19:26:18Z</time>
      </trkpt>
      <trkpt lat="42.773313" lon="-7.371262">
        <ele>535.099</ele>
        <time>2013-07-09T19:26:28Z</time>
      </trkpt>
      <trkpt lat="42.773278" lon="-7.371341">
        <ele>535.073</ele>
        <time>2013-07-09T19:26:38Z</time>
      </trkpt>
      <trkpt lat="42.773270" lon="-7.371468">
        <ele>535.071</ele>
        <time>2013-07-09T19:26:48Z</time>
      </trkpt>
      <trkpt lat="42.773235" lon="-7.371600">
        <ele>535.051</ele>
        <time>2013-07-09T19:26:56Z</time>
      </trkpt>
      <trkpt lat="42.773277" lon="-7.371715">
        <ele>535.091</ele>
        <time>2013-07-09T19:27:05Z</time>
      </trkpt>
      <trkpt lat="42.773341" lon="-7.371755">
        <ele>536.062</ele>
        <time>2013-07-09T19:27:15Z</time>
      </trkpt>
      <trkpt lat="42.773386" lon="-7.371868">
        <ele>536.083</ele>
        <time>2013-07-09T19:27:24Z</time>
      </trkpt>
      <trkpt lat="42.773413" lon="-7.371987">
        <ele>536.011</ele>
        <time>2013-07-09T19:27:32Z</time>
      </trkpt>
      <trkpt lat="42.773449" lon="-7.372090">
        <ele>536.007</ele>
        <time>2013-07-09T19:27:42Z</time>
      </trkpt>
      <trkpt lat="42.773458" lon="-7.372158">
        <ele>536.050</ele>
        <time>2013-07-09T19:27:52Z</time>
      </trkpt>
      <trkpt lat="42.773490" lon="-7.372207">
        <ele>536.064</ele>
        <time>2013-07-09T19:28:02Z</time>
      </trkpt>
      <trkpt lat="42.773485" lon="-7.372334">
        <ele>537.067</ele>
        <time>2013-07-09T19:28:11Z</time>
      </trkpt>
      <trkpt lat="42.773493" lon="-7.372440">
        <ele>537.011</ele>
        <time>2013-07-09T19:28:21Z</time>
      </trkpt>
      <trkpt lat="42.773477" lon="-7.372563">
        <ele>537.069</ele>
        <time>2013-07-09T19:28:30Z</time>
      </trkpt>
      <trkpt lat="42.773518" lon="-7.372676">
        <ele>537.039</ele>
        <time>2013-07-09T19:28:40Z</time>
      </trkpt>
      <trkpt lat="42.773550" lon="-7.372783">
        <ele>537.069</ele>
        <time>2013-07-09T19:28:50Z</time>
      </trkpt>
      <trkpt lat="42.773617" lon="-7.372858">
        <ele>538.047</ele>
        <time>2013-07-09T19:29:00Z</time>
      </trkpt>
      <trkpt lat="42.773689" lon="-7.372946">
        <ele>538.029</ele>
        <time>2013-07-09T19:29:09Z</time>
      </trkpt>
      <trkpt lat="42.773712" lon="-7.373051">
        <ele>538.021</ele>
        <time>2013-07-09T19:29:19Z</time>
      </trkpt>
      <trkpt lat="42.773712" lon="-7.373171">
        <ele>539.007</ele>
        <time>2013-07-09T19:29:29Z</time>
      </trkpt>
      <trkpt lat="42.773726" lon="-7.373282">
        <ele>539.018</ele>
        <time>2013-07-09T19:29:39Z</time>
      </trkpt>
      <trkpt lat="42.773679" lon="-7.373392">
        <ele>540.012</ele>
        <time>2013-07-09T19:29:49Z</time>
      </trkpt>
      <trkpt lat="42.773636" lon="-7.373505">
        <ele>540.055</ele>
        <time>2013-07-09T19:29:59Z</time>
      </trkpt>
      <trkpt lat="42.773680" lon="-7.373607">
        <ele>541.099</ele>
        <time>2013-07-09T19:30:09Z</time>
      </trkpt>
      <trkpt lat="42.773739" lon="-7.373702">
        <ele>541.067</ele>
        <time>2013-07-09T19:30:16Z</time>
      </trkpt>
      <trkpt lat="42.773734" lon="-7.373826">
        <ele>542.057</ele>
        <time>2013-07-09T19:30:26Z</time>
      </trkpt>
      <trkpt lat="42.773658" lon="-7.373942">
        <ele>542.077</ele>
        <time>2013-07-09T19:30:33Z</time>
      </trkpt>
      <trkpt lat="42.773592" lon="-7.374029">
        <ele>542.036</ele>
        <time>2013-07-09T19:30:37Z</time>
      </trkpt>
      <trkpt lat="42.773546" lon="-7.374154">
        <ele>543.017</ele>
        <time>2013-07-09T19:30:43Z</time>
      </trkpt>
      <trkpt lat="42.773578" lon="-7.374282">
        <ele>545.018</ele>
        <time>2013-07-09T19:30:52Z</time>
      </trkpt>
      <trkpt lat="42.773582" lon="-7.374383">
        <ele>546.007</ele>
        <time>2013-07-09T19:31:02Z</time>
      </trkpt>
      <trkpt lat="42.773593" lon="-7.374490">
        <ele>547.037</ele>
        <time>2013-07-09T19:31:12Z</time>
      </trkpt>
      <trkpt lat="42.773671" lon="-7.374549">
        <ele>549.041</ele>
        <time>2013-07-09T19:31:22Z</time>
      </trkpt>
      <trkpt lat="42.773684" lon="-7.374672">
        <ele>551.084</ele>
        <time>2013-07-09T19:31:30Z</time>
      </trkpt>
      <trkpt lat="42.773730" lon="-7.374787">
        <ele>553.088</ele>
        <time>2013-07-09T19:31:38Z</time>
      </trkpt>
      <trkpt lat="42.773760" lon="-7.374911">
        <ele>554.066</ele>
        <time>2013-07-09T19:31:45Z</time>
      </trkpt>
      <trkpt lat="42.773835" lon="-7.374982">
        <ele>555.086</ele>
        <time>2013-07-09T19:31:51Z</time>
      </trkpt>
      <trkpt lat="42.773844" lon="-7.375103">
        <ele>558.036</ele>
        <time>2013-07-09T19:32:01Z</time>
      </trkpt>
      <trkpt lat="42.773875" lon="-7.375227">
        <ele>560.057</ele>
        <time>2013-07-09T19:32:09Z</time>
      </trkpt>
      <trkpt lat="42.773891" lon="-7.375351">
        <ele>561.000</ele>
        <time>2013-07-09T19:32:18Z</time>
      </trkpt>
      <trkpt lat="42.773959" lon="-7.375429">
        <ele>562.020</ele>
        <time>2013-07-09T19:32:28Z</time>
      </trkpt>
      <trkpt lat="42.774029" lon="-7.375522">
        <ele>562.007</ele>
        <time>2013-07-09T19:32:37Z</time>
      </trkpt>
      <trkpt lat="42.773972" lon="-7.375636">
        <ele>563.039</ele>
        <time>2013-07-09T19:32:45Z</time>
      </trkpt>
      <trkpt lat="42.773969" lon="-7.375772">
        <ele>564.013</ele>
        <time>2013-07-09T19:32:55Z</time>
      </trkpt>
      <trkpt lat="42.773925" lon="-7.375883">
        <ele>564.066</ele>
        <time>2013-07-09T19:33:02Z</time>
      </trkpt>
      <trkpt lat="42.773867" lon="-7.375986">
        <ele>562.060</ele>
        <time>2013-07-09T19:33:07Z</time>
      </trkpt>
      <trkpt lat="42.773831" lon="-7.376101">
        <ele>557.038</ele>
        <time>2013-07-09T19:33:16Z</time>
      </trkpt>
      <trkpt lat="42.773922" lon="-7.376151">
        <ele>557.018</ele>
        <time>2013-07-09T19:33:24Z</time>
      </trkpt>
      <trkpt lat="42.773965" lon="-7.376248">
        <ele>556.058</ele>
        <time>2013-07-09T19:33:34Z</time>
      </trkpt>
      <trkpt lat="42.773964" lon="-7.376372">
        <ele>556.059</ele>
        <time>2013-07-09T19:33:43Z</time>
      </trkpt>
      <trkpt lat="42.773940" lon="-7.376496">
        <ele>558.003</ele>
        <time>2013-07-09T19:33:51Z</time>
      </trkpt>
      <trkpt lat="42.773908" lon="-7.376583">
        <ele>560.023</ele>
        <time>2013-07-09T19:34:01Z</time>
      </trkpt>
      <trkpt lat="42.773942" lon="-7.376624">
        <ele>561.007</ele>
        <time>2013-07-09T19:34:11Z</time>
      </trkpt>
      <trkpt lat="42.773959" lon="-7.376683">
        <ele>565.019</ele>
        <time>2013-07-09T19:34:22Z</time>
      </trkpt>
      <trkpt lat="42.773994" lon="-7.376746">
        <ele>570.053</ele>
        <time>2013-07-09T19:34:32Z</time>
      </trkpt>
      <trkpt lat="42.774014" lon="-7.376809">
        <ele>569.036</ele>
        <time>2013-07-09T19:34:42Z</time>
      </trkpt>
      <trkpt lat="42.774033" lon="-7.376899">
        <ele>568.050</ele>
        <time>2013-07-09T19:34:52Z</time>
      </trkpt>
      <trkpt lat="42.774004" lon="-7.377022">
        <ele>568.068</ele>
        <time>2013-07-09T19:35:00Z</time>
      </trkpt>
      <trkpt lat="42.774022" lon="-7.377090">
        <ele>568.078</ele>
        <time>2013-07-09T19:35:10Z</time>
      </trkpt>
      <trkpt lat="42.774023" lon="-7.377151">
        <ele>569.078</ele>
        <time>2013-07-09T19:35:21Z</time>
      </trkpt>
      <trkpt lat="42.774043" lon="-7.377208">
        <ele>570.077</ele>
        <time>2013-07-09T19:35:31Z</time>
      </trkpt>
      <trkpt lat="42.774053" lon="-7.377340">
        <ele>571.061</ele>
        <time>2013-07-09T19:35:40Z</time>
      </trkpt>
      <trkpt lat="42.774016" lon="-7.377468">
        <ele>572.027</ele>
        <time>2013-07-09T19:35:46Z</time>
      </trkpt>
      <trkpt lat="42.773987" lon="-7.377592">
        <ele>572.007</ele>
        <time>2013-07-09T19:35:51Z</time>
      </trkpt>
      <trkpt lat="42.774072" lon="-7.377682">
        <ele>571.061</ele>
        <time>2013-07-09T19:35:58Z</time>
      </trkpt>
      <trkpt lat="42.774154" lon="-7.377737">
        <ele>570.085</ele>
        <time>2013-07-09T19:36:03Z</time>
      </trkpt>
      <trkpt lat="42.774217" lon="-7.377829">
        <ele>570.098</ele>
        <time>2013-07-09T19:36:10Z</time>
      </trkpt>
      <trkpt lat="42.774266" lon="-7.377941">
        <ele>570.022</ele>
        <time>2013-07-09T19:36:19Z</time>
      </trkpt>
      <trkpt lat="42.774323" lon="-7.378036">
        <ele>571.040</ele>
        <time>2013-07-09T19:36:27Z</time>
      </trkpt>
      <trkpt lat="42.774370" lon="-7.378119">
        <ele>572.060</ele>
        <time>2013-07-09T19:36:37Z</time>
      </trkpt>
      <trkpt lat="42.774378" lon="-7.378224">
        <ele>573.080</ele>
        <time>2013-07-09T19:36:47Z</time>
      </trkpt>
      <trkpt lat="42.774366" lon="-7.378311">
        <ele>573.064</ele>
        <time>2013-07-09T19:36:57Z</time>
      </trkpt>
      <trkpt lat="42.774362" lon="-7.378439">
        <ele>572.006</ele>
        <time>2013-07-09T19:37:07Z</time>
      </trkpt>
      <trkpt lat="42.774396" lon="-7.378511">
        <ele>571.016</ele>
        <time>2013-07-09T19:37:17Z</time>
      </trkpt>
      <trkpt lat="42.774457" lon="-7.378525">
        <ele>571.007</ele>
        <time>2013-07-09T19:37:27Z</time>
      </trkpt>
      <trkpt lat="42.774576" lon="-7.378482">
        <ele>571.040</ele>
        <time>2013-07-09T19:37:33Z</time>
      </trkpt>
      <trkpt lat="42.774675" lon="-7.378491">
        <ele>571.054</ele>
        <time>2013-07-09T19:37:36Z</time>
      </trkpt>
      <trkpt lat="42.774657" lon="-7.378618">
        <ele>570.097</ele>
        <time>2013-07-09T19:37:45Z</time>
      </trkpt>
      <trkpt lat="42.774587" lon="-7.378706">
        <ele>569.071</ele>
        <time>2013-07-09T19:37:49Z</time>
      </trkpt>
      <trkpt lat="42.774517" lon="-7.378783">
        <ele>569.039</ele>
        <time>2013-07-09T19:37:54Z</time>
      </trkpt>
      <trkpt lat="42.774488" lon="-7.378902">
        <ele>568.019</ele>
        <time>2013-07-09T19:38:02Z</time>
      </trkpt>
      <trkpt lat="42.774493" lon="-7.379034">
        <ele>567.069</ele>
        <time>2013-07-09T19:38:08Z</time>
      </trkpt>
      <trkpt lat="42.774515" lon="-7.379170">
        <ele>565.042</ele>
        <time>2013-07-09T19:38:13Z</time>
      </trkpt>
      <trkpt lat="42.774573" lon="-7.379272">
        <ele>563.022</ele>
        <time>2013-07-09T19:38:22Z</time>
      </trkpt>
      <trkpt lat="42.774664" lon="-7.379335">
        <ele>563.014</ele>
        <time>2013-07-09T19:38:28Z</time>
      </trkpt>
      <trkpt lat="42.774741" lon="-7.379418">
        <ele>563.007</ele>
        <time>2013-07-09T19:38:37Z</time>
      </trkpt>
      <trkpt lat="42.774773" lon="-7.379547">
        <ele>563.088</ele>
        <time>2013-07-09T19:38:45Z</time>
      </trkpt>
      <trkpt lat="42.774811" lon="-7.379659">
        <ele>563.062</ele>
        <time>2013-07-09T19:38:52Z</time>
      </trkpt>
      <trkpt lat="42.774866" lon="-7.379757">
        <ele>564.085</ele>
        <time>2013-07-09T19:39:02Z</time>
      </trkpt>
      <trkpt lat="42.774885" lon="-7.379887">
        <ele>565.099</ele>
        <time>2013-07-09T19:39:09Z</time>
      </trkpt>
      <trkpt lat="42.774926" lon="-7.380003">
        <ele>566.027</ele>
        <time>2013-07-09T19:39:19Z</time>
      </trkpt>
      <trkpt lat="42.775000" lon="-7.380109">
        <ele>566.067</ele>
        <time>2013-07-09T19:39:29Z</time>
      </trkpt>
      <trkpt lat="42.775040" lon="-7.380219">
        <ele>566.067</ele>
        <time>2013-07-09T19:39:36Z</time>
      </trkpt>
      <trkpt lat="42.775058" lon="-7.380335">
        <ele>567.077</ele>
        <time>2013-07-09T19:39:46Z</time>
      </trkpt>
      <trkpt lat="42.775131" lon="-7.380415">
        <ele>569.061</ele>
        <time>2013-07-09T19:39:56Z</time>
      </trkpt>
      <trkpt lat="42.775147" lon="-7.380538">
        <ele>570.027</ele>
        <time>2013-07-09T19:40:06Z</time>
      </trkpt>
      <trkpt lat="42.775146" lon="-7.380660">
        <ele>571.007</ele>
        <time>2013-07-09T19:40:14Z</time>
      </trkpt>
      <trkpt lat="42.775120" lon="-7.380784">
        <ele>572.011</ele>
        <time>2013-07-09T19:40:24Z</time>
      </trkpt>
      <trkpt lat="42.775150" lon="-7.380904">
        <ele>571.075</ele>
        <time>2013-07-09T19:40:32Z</time>
      </trkpt>
      <trkpt lat="42.775146" lon="-7.381043">
        <ele>570.018</ele>
        <time>2013-07-09T19:40:42Z</time>
      </trkpt>
      <trkpt lat="42.775182" lon="-7.381162">
        <ele>570.032</ele>
        <time>2013-07-09T19:40:50Z</time>
      </trkpt>
      <trkpt lat="42.775241" lon="-7.381266">
        <ele>570.030</ele>
        <time>2013-07-09T19:40:59Z</time>
      </trkpt>
      <trkpt lat="42.775285" lon="-7.381333">
        <ele>572.090</ele>
        <time>2013-07-09T19:41:09Z</time>
      </trkpt>
      <trkpt lat="42.775344" lon="-7.381432">
        <ele>573.040</ele>
        <time>2013-07-09T19:41:18Z</time>
      </trkpt>
      <trkpt lat="42.775376" lon="-7.381557">
        <ele>572.049</ele>
        <time>2013-07-09T19:41:27Z</time>
      </trkpt>
      <trkpt lat="42.775425" lon="-7.381673">
        <ele>572.002</ele>
        <time>2013-07-09T19:41:36Z</time>
      </trkpt>
      <trkpt lat="42.775457" lon="-7.381798">
        <ele>573.022</ele>
        <time>2013-07-09T19:41:43Z</time>
      </trkpt>
      <trkpt lat="42.775463" lon="-7.381942">
        <ele>574.007</ele>
        <time>2013-07-09T19:41:50Z</time>
      </trkpt>
      <trkpt lat="42.775438" lon="-7.382062">
        <ele>573.068</ele>
        <time>2013-07-09T19:42:00Z</time>
      </trkpt>
      <trkpt lat="42.775455" lon="-7.382163">
        <ele>574.012</ele>
        <time>2013-07-09T19:42:10Z</time>
      </trkpt>
      <trkpt lat="42.775431" lon="-7.382220">
        <ele>575.075</ele>
        <time>2013-07-09T19:42:21Z</time>
      </trkpt>
      <trkpt lat="42.775489" lon="-7.382331">
        <ele>576.039</ele>
        <time>2013-07-09T19:42:30Z</time>
      </trkpt>
      <trkpt lat="42.775525" lon="-7.382452">
        <ele>576.087</ele>
        <time>2013-07-09T19:42:37Z</time>
      </trkpt>
      <trkpt lat="42.775565" lon="-7.382580">
        <ele>575.047</ele>
        <time>2013-07-09T19:42:44Z</time>
      </trkpt>
      <trkpt lat="42.775625" lon="-7.382691">
        <ele>575.057</ele>
        <time>2013-07-09T19:42:52Z</time>
      </trkpt>
      <trkpt lat="42.775676" lon="-7.382805">
        <ele>575.029</ele>
        <time>2013-07-09T19:42:59Z</time>
      </trkpt>
      <trkpt lat="42.775713" lon="-7.382921">
        <ele>574.000</ele>
        <time>2013-07-09T19:43:08Z</time>
      </trkpt>
      <trkpt lat="42.775779" lon="-7.383009">
        <ele>572.020</ele>
        <time>2013-07-09T19:43:14Z</time>
      </trkpt>
      <trkpt lat="42.775785" lon="-7.383144">
        <ele>570.007</ele>
        <time>2013-07-09T19:43:24Z</time>
      </trkpt>
      <trkpt lat="42.775836" lon="-7.383268">
        <ele>565.086</ele>
        <time>2013-07-09T19:43:27Z</time>
      </trkpt>
      <trkpt lat="42.776058" lon="-7.383598">
        <ele>543.090</ele>
        <time>2013-07-09T19:43:45Z</time>
      </trkpt>
      <trkpt lat="42.776098" lon="-7.383709">
        <ele>535.073</ele>
        <time>2013-07-09T19:43:54Z</time>
      </trkpt>
      <trkpt lat="42.776188" lon="-7.383778">
        <ele>533.077</ele>
        <time>2013-07-09T19:44:04Z</time>
      </trkpt>
      <trkpt lat="42.776268" lon="-7.383837">
        <ele>532.095</ele>
        <time>2013-07-09T19:44:11Z</time>
      </trkpt>
      <trkpt lat="42.776336" lon="-7.383921">
        <ele>530.055</ele>
        <time>2013-07-09T19:44:19Z</time>
      </trkpt>
      <trkpt lat="42.776374" lon="-7.384013">
        <ele>528.025</ele>
        <time>2013-07-09T19:44:29Z</time>
      </trkpt>
      <trkpt lat="42.776460" lon="-7.384100">
        <ele>528.024</ele>
        <time>2013-07-09T19:44:39Z</time>
      </trkpt>
      <trkpt lat="42.776549" lon="-7.384134">
        <ele>527.004</ele>
        <time>2013-07-09T19:44:46Z</time>
      </trkpt>
      <trkpt lat="42.776615" lon="-7.384176">
        <ele>527.014</ele>
        <time>2013-07-09T19:44:56Z</time>
      </trkpt>
      <trkpt lat="42.776629" lon="-7.384291">
        <ele>527.007</ele>
        <time>2013-07-09T19:45:06Z</time>
      </trkpt>
      <trkpt lat="42.776602" lon="-7.384392">
        <ele>527.086</ele>
        <time>2013-07-09T19:45:16Z</time>
      </trkpt>
      <trkpt lat="42.776572" lon="-7.384496">
        <ele>527.060</ele>
        <time>2013-07-09T19:45:26Z</time>
      </trkpt>
      <trkpt lat="42.776532" lon="-7.384614">
        <ele>526.033</ele>
        <time>2013-07-09T19:45:34Z</time>
      </trkpt>
      <trkpt lat="42.776510" lon="-7.384731">
        <ele>526.027</ele>
        <time>2013-07-09T19:45:44Z</time>
      </trkpt>
      <trkpt lat="42.776458" lon="-7.384836">
        <ele>526.015</ele>
        <time>2013-07-09T19:45:51Z</time>
      </trkpt>
      <trkpt lat="42.776487" lon="-7.384912">
        <ele>526.085</ele>
        <time>2013-07-09T19:46:01Z</time>
      </trkpt>
      <trkpt lat="42.776433" lon="-7.385027">
        <ele>526.045</ele>
        <time>2013-07-09T19:46:10Z</time>
      </trkpt>
      <trkpt lat="42.776422" lon="-7.385129">
        <ele>527.083</ele>
        <time>2013-07-09T19:46:20Z</time>
      </trkpt>
      <trkpt lat="42.776399" lon="-7.385264">
        <ele>528.025</ele>
        <time>2013-07-09T19:46:28Z</time>
      </trkpt>
      <trkpt lat="42.776367" lon="-7.385386">
        <ele>528.017</ele>
        <time>2013-07-09T19:46:36Z</time>
      </trkpt>
      <trkpt lat="42.776323" lon="-7.385496">
        <ele>527.007</ele>
        <time>2013-07-09T19:46:43Z</time>
      </trkpt>
      <trkpt lat="42.776331" lon="-7.385650">
        <ele>527.062</ele>
        <time>2013-07-09T19:46:51Z</time>
      </trkpt>
      <trkpt lat="42.776320" lon="-7.385786">
        <ele>527.036</ele>
        <time>2013-07-09T19:47:00Z</time>
      </trkpt>
      <trkpt lat="42.776351" lon="-7.385891">
        <ele>526.099</ele>
        <time>2013-07-09T19:47:10Z</time>
      </trkpt>
      <trkpt lat="42.776330" lon="-7.386110">
        <ele>520.073</ele>
        <time>2013-07-09T19:47:13Z</time>
      </trkpt>
      <trkpt lat="42.776303" lon="-7.386235">
        <ele>515.041</ele>
        <time>2013-07-09T19:47:17Z</time>
      </trkpt>
      <trkpt lat="42.776244" lon="-7.386346">
        <ele>513.041</ele>
        <time>2013-07-09T19:47:22Z</time>
      </trkpt>
      <trkpt lat="42.776218" lon="-7.386471">
        <ele>511.011</ele>
        <time>2013-07-09T19:47:27Z</time>
      </trkpt>
      <trkpt lat="42.776189" lon="-7.386610">
        <ele>510.043</ele>
        <time>2013-07-09T19:47:34Z</time>
      </trkpt>
      <trkpt lat="42.776158" lon="-7.386749">
        <ele>509.064</ele>
        <time>2013-07-09T19:47:41Z</time>
      </trkpt>
      <trkpt lat="42.776148" lon="-7.386864">
        <ele>507.010</ele>
        <time>2013-07-09T19:47:51Z</time>
      </trkpt>
      <trkpt lat="42.776165" lon="-7.386930">
        <ele>507.007</ele>
        <time>2013-07-09T19:48:10Z</time>
      </trkpt>
      <trkpt lat="42.776195" lon="-7.387031">
        <ele>508.068</ele>
        <time>2013-07-09T19:48:20Z</time>
      </trkpt>
      <trkpt lat="42.776152" lon="-7.387143">
        <ele>508.072</ele>
        <time>2013-07-09T19:48:28Z</time>
      </trkpt>
      <trkpt lat="42.776101" lon="-7.387238">
        <ele>509.075</ele>
        <time>2013-07-09T19:48:38Z</time>
      </trkpt>
      <trkpt lat="42.776128" lon="-7.387309">
        <ele>510.059</ele>
        <time>2013-07-09T19:48:48Z</time>
      </trkpt>
      <trkpt lat="42.776144" lon="-7.387387">
        <ele>511.097</ele>
        <time>2013-07-09T19:48:58Z</time>
      </trkpt>
      <trkpt lat="42.776162" lon="-7.387474">
        <ele>511.057</ele>
        <time>2013-07-09T19:49:08Z</time>
      </trkpt>
      <trkpt lat="42.776204" lon="-7.387585">
        <ele>512.037</ele>
        <time>2013-07-09T19:49:16Z</time>
      </trkpt>
      <trkpt lat="42.776172" lon="-7.387705">
        <ele>512.035</ele>
        <time>2013-07-09T19:49:22Z</time>
      </trkpt>
      <trkpt lat="42.776119" lon="-7.387834">
        <ele>512.086</ele>
        <time>2013-07-09T19:49:27Z</time>
      </trkpt>
      <trkpt lat="42.776061" lon="-7.387953">
        <ele>513.014</ele>
        <time>2013-07-09T19:49:32Z</time>
      </trkpt>
      <trkpt lat="42.776082" lon="-7.388040">
        <ele>513.007</ele>
        <time>2013-07-09T19:49:42Z</time>
      </trkpt>
      <trkpt lat="42.776061" lon="-7.388143">
        <ele>515.097</ele>
        <time>2013-07-09T19:49:52Z</time>
      </trkpt>
      <trkpt lat="42.776056" lon="-7.388253">
        <ele>517.031</ele>
        <time>2013-07-09T19:50:02Z</time>
      </trkpt>
      <trkpt lat="42.776113" lon="-7.388327">
        <ele>519.044</ele>
        <time>2013-07-09T19:50:12Z</time>
      </trkpt>
      <trkpt lat="42.776126" lon="-7.388457">
        <ele>521.098</ele>
        <time>2013-07-09T19:50:20Z</time>
      </trkpt>
      <trkpt lat="42.776146" lon="-7.388582">
        <ele>522.026</ele>
        <time>2013-07-09T19:50:28Z</time>
      </trkpt>
      <trkpt lat="42.776129" lon="-7.388717">
        <ele>524.076</ele>
        <time>2013-07-09T19:50:33Z</time>
      </trkpt>
      <trkpt lat="42.776114" lon="-7.388839">
        <ele>525.096</ele>
        <time>2013-07-09T19:50:40Z</time>
      </trkpt>
      <trkpt lat="42.776108" lon="-7.388963">
        <ele>527.025</ele>
        <time>2013-07-09T19:50:47Z</time>
      </trkpt>
      <trkpt lat="42.776111" lon="-7.389090">
        <ele>528.026</ele>
        <time>2013-07-09T19:50:55Z</time>
      </trkpt>
      <trkpt lat="42.776091" lon="-7.389214">
        <ele>530.008</ele>
        <time>2013-07-09T19:51:05Z</time>
      </trkpt>
      <trkpt lat="42.776112" lon="-7.389341">
        <ele>531.007</ele>
        <time>2013-07-09T19:51:15Z</time>
      </trkpt>
      <trkpt lat="42.776123" lon="-7.389472">
        <ele>532.026</ele>
        <time>2013-07-09T19:51:25Z</time>
      </trkpt>
      <trkpt lat="42.776112" lon="-7.389594">
        <ele>533.080</ele>
        <time>2013-07-09T19:51:35Z</time>
      </trkpt>
      <trkpt lat="42.776130" lon="-7.389695">
        <ele>533.053</ele>
        <time>2013-07-09T19:51:45Z</time>
      </trkpt>
      <trkpt lat="42.776168" lon="-7.389745">
        <ele>533.037</ele>
        <time>2013-07-09T19:51:55Z</time>
      </trkpt>
      <trkpt lat="42.776159" lon="-7.389860">
        <ele>533.045</ele>
        <time>2013-07-09T19:52:05Z</time>
      </trkpt>
      <trkpt lat="42.776168" lon="-7.389964">
        <ele>533.045</ele>
        <time>2013-07-09T19:52:15Z</time>
      </trkpt>
      <trkpt lat="42.776161" lon="-7.390090">
        <ele>534.015</ele>
        <time>2013-07-09T19:52:20Z</time>
      </trkpt>
      <trkpt lat="42.776158" lon="-7.390218">
        <ele>534.076</ele>
        <time>2013-07-09T19:52:25Z</time>
      </trkpt>
      <trkpt lat="42.776167" lon="-7.390341">
        <ele>534.090</ele>
        <time>2013-07-09T19:52:29Z</time>
      </trkpt>
      <trkpt lat="42.776159" lon="-7.390463">
        <ele>535.019</ele>
        <time>2013-07-09T19:52:34Z</time>
      </trkpt>
      <trkpt lat="42.776133" lon="-7.390597">
        <ele>535.007</ele>
        <time>2013-07-09T19:52:39Z</time>
      </trkpt>
      <trkpt lat="42.776148" lon="-7.390725">
        <ele>535.011</ele>
        <time>2013-07-09T19:52:42Z</time>
      </trkpt>
      <trkpt lat="42.776184" lon="-7.390841">
        <ele>536.075</ele>
        <time>2013-07-09T19:52:46Z</time>
      </trkpt>
      <trkpt lat="42.776188" lon="-7.390905">
        <ele>536.078</ele>
        <time>2013-07-09T19:52:59Z</time>
      </trkpt>
      <trkpt lat="42.776217" lon="-7.391044">
        <ele>535.062</ele>
        <time>2013-07-09T19:53:09Z</time>
      </trkpt>
      <trkpt lat="42.776215" lon="-7.391162">
        <ele>533.050</ele>
        <time>2013-07-09T19:53:19Z</time>
      </trkpt>
      <trkpt lat="42.776194" lon="-7.391226">
        <ele>529.020</ele>
        <time>2013-07-09T19:53:34Z</time>
      </trkpt>
      <trkpt lat="42.776222" lon="-7.391277">
        <ele>529.030</ele>
        <time>2013-07-09T19:53:44Z</time>
      </trkpt>
      <trkpt lat="42.776213" lon="-7.391351">
        <ele>529.059</ele>
        <time>2013-07-09T19:53:54Z</time>
      </trkpt>
      <trkpt lat="42.776237" lon="-7.391404">
        <ele>529.003</ele>
        <time>2013-07-09T19:54:04Z</time>
      </trkpt>
      <trkpt lat="42.776270" lon="-7.391537">
        <ele>529.023</ele>
        <time>2013-07-09T19:54:11Z</time>
      </trkpt>
      <trkpt lat="42.776277" lon="-7.391625">
        <ele>528.007</ele>
        <time>2013-07-09T19:54:21Z</time>
      </trkpt>
      <trkpt lat="42.776251" lon="-7.391701">
        <ele>528.089</ele>
        <time>2013-07-09T19:54:31Z</time>
      </trkpt>
      <trkpt lat="42.776218" lon="-7.391901">
        <ele>527.043</ele>
        <time>2013-07-09T19:54:36Z</time>
      </trkpt>
      <trkpt lat="42.776245" lon="-7.392035">
        <ele>527.076</ele>
        <time>2013-07-09T19:54:42Z</time>
      </trkpt>
      <trkpt lat="42.776262" lon="-7.392167">
        <ele>526.060</ele>
        <time>2013-07-09T19:54:49Z</time>
      </trkpt>
      <trkpt lat="42.776250" lon="-7.392328">
        <ele>524.058</ele>
        <time>2013-07-09T19:54:56Z</time>
      </trkpt>
      <trkpt lat="42.776198" lon="-7.392452">
        <ele>521.058</ele>
        <time>2013-07-09T19:54:59Z</time>
      </trkpt>
      <trkpt lat="42.776309" lon="-7.392502">
        <ele>510.058</ele>
        <time>2013-07-09T19:55:05Z</time>
      </trkpt>
      <trkpt lat="42.776389" lon="-7.392563">
        <ele>499.079</ele>
        <time>2013-07-09T19:55:11Z</time>
      </trkpt>
      <trkpt lat="42.776388" lon="-7.392691">
        <ele>493.005</ele>
        <time>2013-07-09T19:55:20Z</time>
      </trkpt>
      <trkpt lat="42.776410" lon="-7.392812">
        <ele>489.025</ele>
        <time>2013-07-09T19:55:28Z</time>
      </trkpt>
      <trkpt lat="42.776388" lon="-7.392939">
        <ele>486.007</ele>
        <time>2013-07-09T19:55:35Z</time>
      </trkpt>
      <trkpt lat="42.776402" lon="-7.393066">
        <ele>485.031</ele>
        <time>2013-07-09T19:55:44Z</time>
      </trkpt>
      <trkpt lat="42.776435" lon="-7.393154">
        <ele>485.085</ele>
        <time>2013-07-09T19:55:54Z</time>
      </trkpt>
      <trkpt lat="42.776411" lon="-7.393283">
        <ele>484.058</ele>
        <time>2013-07-09T19:56:02Z</time>
      </trkpt>
      <trkpt lat="42.776389" lon="-7.393404">
        <ele>484.032</ele>
        <time>2013-07-09T19:56:08Z</time>
      </trkpt>
      <trkpt lat="42.776397" lon="-7.393534">
        <ele>485.030</ele>
        <time>2013-07-09T19:56:18Z</time>
      </trkpt>
      <trkpt lat="42.776397" lon="-7.393667">
        <ele>485.010</ele>
        <time>2013-07-09T19:56:28Z</time>
      </trkpt>
      <trkpt lat="42.776413" lon="-7.393799">
        <ele>485.040</ele>
        <time>2013-07-09T19:56:38Z</time>
      </trkpt>
      <trkpt lat="42.776376" lon="-7.393892">
        <ele>485.068</ele>
        <time>2013-07-09T19:56:48Z</time>
      </trkpt>
      <trkpt lat="42.776380" lon="-7.393975">
        <ele>485.042</ele>
        <time>2013-07-09T19:56:58Z</time>
      </trkpt>
      <trkpt lat="42.776378" lon="-7.394109">
        <ele>486.026</ele>
        <time>2013-07-09T19:57:07Z</time>
      </trkpt>
      <trkpt lat="42.776347" lon="-7.394235">
        <ele>486.007</ele>
        <time>2013-07-09T19:57:13Z</time>
      </trkpt>
      <trkpt lat="42.776359" lon="-7.394318">
        <ele>486.070</ele>
        <time>2013-07-09T19:57:23Z</time>
      </trkpt>
      <trkpt lat="42.776336" lon="-7.394454">
        <ele>486.064</ele>
        <time>2013-07-09T19:57:32Z</time>
      </trkpt>
      <trkpt lat="42.776348" lon="-7.394579">
        <ele>486.087</ele>
        <time>2013-07-09T19:57:39Z</time>
      </trkpt>
      <trkpt lat="42.776313" lon="-7.394710">
        <ele>486.031</ele>
        <time>2013-07-09T19:57:45Z</time>
      </trkpt>
      <trkpt lat="42.776295" lon="-7.394899">
        <ele>487.079</ele>
        <time>2013-07-09T19:57:53Z</time>
      </trkpt>
      <trkpt lat="42.776286" lon="-7.395027">
        <ele>484.089</ele>
        <time>2013-07-09T19:57:59Z</time>
      </trkpt>
      <trkpt lat="42.776274" lon="-7.395151">
        <ele>485.099</ele>
        <time>2013-07-09T19:58:07Z</time>
      </trkpt>
      <trkpt lat="42.776253" lon="-7.395273">
        <ele>485.018</ele>
        <time>2013-07-09T19:58:14Z</time>
      </trkpt>
      <trkpt lat="42.776250" lon="-7.395344">
        <ele>484.098</ele>
        <time>2013-07-09T19:58:24Z</time>
      </trkpt>
      <trkpt lat="42.776246" lon="-7.395467">
        <ele>484.017</ele>
        <time>2013-07-09T19:58:33Z</time>
      </trkpt>
      <trkpt lat="42.776256" lon="-7.395537">
        <ele>484.007</ele>
        <time>2013-07-09T19:58:43Z</time>
      </trkpt>
      <trkpt lat="42.776210" lon="-7.395616">
        <ele>484.015</ele>
        <time>2013-07-09T19:58:53Z</time>
      </trkpt>
      <trkpt lat="42.776181" lon="-7.395734">
        <ele>485.089</ele>
        <time>2013-07-09T19:59:03Z</time>
      </trkpt>
      <trkpt lat="42.776196" lon="-7.395832">
        <ele>485.032</ele>
        <time>2013-07-09T19:59:13Z</time>
      </trkpt>
      <trkpt lat="42.776151" lon="-7.395958">
        <ele>486.016</ele>
        <time>2013-07-09T19:59:23Z</time>
      </trkpt>
      <trkpt lat="42.776124" lon="-7.396038">
        <ele>487.054</ele>
        <time>2013-07-09T19:59:33Z</time>
      </trkpt>
      <trkpt lat="42.776109" lon="-7.396128">
        <ele>488.034</ele>
        <time>2013-07-09T19:59:43Z</time>
      </trkpt>
      <trkpt lat="42.776127" lon="-7.396238">
        <ele>488.094</ele>
        <time>2013-07-09T19:59:53Z</time>
      </trkpt>
      <trkpt lat="42.776130" lon="-7.396368">
        <ele>489.063</ele>
        <time>2013-07-09T20:00:02Z</time>
      </trkpt>
      <trkpt lat="42.776141" lon="-7.396499">
        <ele>489.044</ele>
        <time>2013-07-09T20:00:11Z</time>
      </trkpt>
      <trkpt lat="42.776155" lon="-7.396580">
        <ele>490.018</ele>
        <time>2013-07-09T20:00:21Z</time>
      </trkpt>
      <trkpt lat="42.776174" lon="-7.396713">
        <ele>490.007</ele>
        <time>2013-07-09T20:00:30Z</time>
      </trkpt>
      <trkpt lat="42.776165" lon="-7.396859">
        <ele>491.050</ele>
        <time>2013-07-09T20:00:40Z</time>
      </trkpt>
      <trkpt lat="42.776166" lon="-7.396992">
        <ele>492.034</ele>
        <time>2013-07-09T20:00:47Z</time>
      </trkpt>
      <trkpt lat="42.776159" lon="-7.397125">
        <ele>492.027</ele>
        <time>2013-07-09T20:00:54Z</time>
      </trkpt>
      <trkpt lat="42.776144" lon="-7.397248">
        <ele>493.071</ele>
        <time>2013-07-09T20:01:02Z</time>
      </trkpt>
      <trkpt lat="42.776140" lon="-7.397376">
        <ele>494.099</ele>
        <time>2013-07-09T20:01:10Z</time>
      </trkpt>
      <trkpt lat="42.776106" lon="-7.397501">
        <ele>495.059</ele>
        <time>2013-07-09T20:01:19Z</time>
      </trkpt>
      <trkpt lat="42.776105" lon="-7.397602">
        <ele>496.029</ele>
        <time>2013-07-09T20:01:29Z</time>
      </trkpt>
      <trkpt lat="42.776115" lon="-7.397704">
        <ele>498.089</ele>
        <time>2013-07-09T20:01:39Z</time>
      </trkpt>
      <trkpt lat="42.776103" lon="-7.397838">
        <ele>499.006</ele>
        <time>2013-07-09T20:01:49Z</time>
      </trkpt>
      <trkpt lat="42.776146" lon="-7.397933">
        <ele>499.026</ele>
        <time>2013-07-09T20:01:59Z</time>
      </trkpt>
      <trkpt lat="42.776131" lon="-7.398065">
        <ele>499.007</ele>
        <time>2013-07-09T20:02:07Z</time>
      </trkpt>
      <trkpt lat="42.776107" lon="-7.398196">
        <ele>499.042</ele>
        <time>2013-07-09T20:02:16Z</time>
      </trkpt>
      <trkpt lat="42.776062" lon="-7.398305">
        <ele>499.036</ele>
        <time>2013-07-09T20:02:22Z</time>
      </trkpt>
      <trkpt lat="42.776015" lon="-7.398418">
        <ele>500.099</ele>
        <time>2013-07-09T20:02:30Z</time>
      </trkpt>
      <trkpt lat="42.775977" lon="-7.398531">
        <ele>500.023</ele>
        <time>2013-07-09T20:02:40Z</time>
      </trkpt>
      <trkpt lat="42.775961" lon="-7.398635">
        <ele>500.011</ele>
        <time>2013-07-09T20:02:50Z</time>
      </trkpt>
      <trkpt lat="42.775955" lon="-7.398702">
        <ele>501.041</ele>
        <time>2013-07-09T20:03:01Z</time>
      </trkpt>
      <trkpt lat="42.775939" lon="-7.398762">
        <ele>501.031</ele>
        <time>2013-07-09T20:03:12Z</time>
      </trkpt>
      <trkpt lat="42.775934" lon="-7.398831">
        <ele>502.017</ele>
        <time>2013-07-09T20:03:26Z</time>
      </trkpt>
      <trkpt lat="42.775911" lon="-7.398914">
        <ele>503.087</ele>
        <time>2013-07-09T20:03:36Z</time>
      </trkpt>
      <trkpt lat="42.775854" lon="-7.399033">
        <ele>504.015</ele>
        <time>2013-07-09T20:03:46Z</time>
      </trkpt>
      <trkpt lat="42.775839" lon="-7.399152">
        <ele>504.007</ele>
        <time>2013-07-09T20:03:56Z</time>
      </trkpt>
      <trkpt lat="42.775797" lon="-7.399265">
        <ele>505.015</ele>
        <time>2013-07-09T20:04:04Z</time>
      </trkpt>
      <trkpt lat="42.775758" lon="-7.399394">
        <ele>506.089</ele>
        <time>2013-07-09T20:04:12Z</time>
      </trkpt>
      <trkpt lat="42.775736" lon="-7.399513">
        <ele>507.012</ele>
        <time>2013-07-09T20:04:20Z</time>
      </trkpt>
      <trkpt lat="42.775695" lon="-7.399623">
        <ele>507.086</ele>
        <time>2013-07-09T20:04:27Z</time>
      </trkpt>
      <trkpt lat="42.775705" lon="-7.399747">
        <ele>507.014</ele>
        <time>2013-07-09T20:04:36Z</time>
      </trkpt>
      <trkpt lat="42.775678" lon="-7.399866">
        <ele>506.064</ele>
        <time>2013-07-09T20:04:44Z</time>
      </trkpt>
      <trkpt lat="42.775622" lon="-7.399965">
        <ele>506.014</ele>
        <time>2013-07-09T20:04:50Z</time>
      </trkpt>
      <trkpt lat="42.775566" lon="-7.400078">
        <ele>505.017</ele>
        <time>2013-07-09T20:04:58Z</time>
      </trkpt>
      <trkpt lat="42.775525" lon="-7.400165">
        <ele>505.087</ele>
        <time>2013-07-09T20:05:08Z</time>
      </trkpt>
      <trkpt lat="42.775554" lon="-7.400251">
        <ele>506.015</ele>
        <time>2013-07-09T20:05:18Z</time>
      </trkpt>
      <trkpt lat="42.775603" lon="-7.400371">
        <ele>506.007</ele>
        <time>2013-07-09T20:05:27Z</time>
      </trkpt>
      <trkpt lat="42.775627" lon="-7.400477">
        <ele>507.065</ele>
        <time>2013-07-09T20:05:37Z</time>
      </trkpt>
      <trkpt lat="42.775681" lon="-7.400538">
        <ele>505.089</ele>
        <time>2013-07-09T20:05:47Z</time>
      </trkpt>
      <trkpt lat="42.775668" lon="-7.400599">
        <ele>502.042</ele>
        <time>2013-07-09T20:05:57Z</time>
      </trkpt>
      <trkpt lat="42.775697" lon="-7.400687">
        <ele>500.016</ele>
        <time>2013-07-09T20:06:07Z</time>
      </trkpt>
      <trkpt lat="42.775703" lon="-7.400805">
        <ele>500.044</ele>
        <time>2013-07-09T20:06:17Z</time>
      </trkpt>
      <trkpt lat="42.775669" lon="-7.400877">
        <ele>500.024</ele>
        <time>2013-07-09T20:06:27Z</time>
      </trkpt>
      <trkpt lat="42.775704" lon="-7.400924">
        <ele>501.074</ele>
        <time>2013-07-09T20:06:40Z</time>
      </trkpt>
      <trkpt lat="42.775725" lon="-7.401058">
        <ele>502.043</ele>
        <time>2013-07-09T20:06:49Z</time>
      </trkpt>
      <trkpt lat="42.775756" lon="-7.401180">
        <ele>501.064</ele>
        <time>2013-07-09T20:06:58Z</time>
      </trkpt>
      <trkpt lat="42.775737" lon="-7.401320">
        <ele>502.010</ele>
        <time>2013-07-09T20:07:07Z</time>
      </trkpt>
      <trkpt lat="42.775773" lon="-7.401440">
        <ele>502.007</ele>
        <time>2013-07-09T20:07:13Z</time>
      </trkpt>
      <trkpt lat="42.775824" lon="-7.401551">
        <ele>503.038</ele>
        <time>2013-07-09T20:07:20Z</time>
      </trkpt>
      <trkpt lat="42.775827" lon="-7.401686">
        <ele>503.092</ele>
        <time>2013-07-09T20:07:26Z</time>
      </trkpt>
      <trkpt lat="42.775817" lon="-7.401823">
        <ele>504.035</ele>
        <time>2013-07-09T20:07:32Z</time>
      </trkpt>
      <trkpt lat="42.775806" lon="-7.401961">
        <ele>503.099</ele>
        <time>2013-07-09T20:07:38Z</time>
      </trkpt>
      <trkpt lat="42.775821" lon="-7.402089">
        <ele>502.077</ele>
        <time>2013-07-09T20:07:45Z</time>
      </trkpt>
      <trkpt lat="42.775805" lon="-7.402245">
        <ele>503.017</ele>
        <time>2013-07-09T20:07:51Z</time>
      </trkpt>
      <trkpt lat="42.775812" lon="-7.402370">
        <ele>503.047</ele>
        <time>2013-07-09T20:07:58Z</time>
      </trkpt>
      <trkpt lat="42.775839" lon="-7.402505">
        <ele>499.055</ele>
        <time>2013-07-09T20:08:04Z</time>
      </trkpt>
      <trkpt lat="42.775878" lon="-7.402596">
        <ele>492.007</ele>
        <time>2013-07-09T20:08:14Z</time>
      </trkpt>
      <trkpt lat="42.775969" lon="-7.402628">
        <ele>490.017</ele>
        <time>2013-07-09T20:08:24Z</time>
      </trkpt>
      <trkpt lat="42.775907" lon="-7.402721">
        <ele>487.007</ele>
        <time>2013-07-09T20:08:29Z</time>
      </trkpt>
      <trkpt lat="42.775872" lon="-7.402692">
        <ele>481.059</ele>
        <time>2013-07-09T20:09:09Z</time>
      </trkpt>
      <trkpt lat="42.775870" lon="-7.402680">
        <ele>479.053</ele>
        <time>2013-07-09T20:09:49Z</time>
      </trkpt>
      <trkpt lat="42.775866" lon="-7.402807">
        <ele>479.066</ele>
        <time>2013-07-09T20:09:55Z</time>
      </trkpt>
      <trkpt lat="42.775840" lon="-7.402896">
        <ele>478.060</ele>
        <time>2013-07-09T20:10:05Z</time>
      </trkpt>
      <trkpt lat="42.775807" lon="-7.402948">
        <ele>478.018</ele>
        <time>2013-07-09T20:10:22Z</time>
      </trkpt>
      <trkpt lat="42.775716" lon="-7.402967">
        <ele>478.078</ele>
        <time>2013-07-09T20:10:25Z</time>
      </trkpt>
      <trkpt lat="42.775721" lon="-7.403092">
        <ele>479.078</ele>
        <time>2013-07-09T20:10:35Z</time>
      </trkpt>
      <trkpt lat="42.775694" lon="-7.403156">
        <ele>480.064</ele>
        <time>2013-07-09T20:10:54Z</time>
      </trkpt>
      <trkpt lat="42.775637" lon="-7.403221">
        <ele>480.006</ele>
        <time>2013-07-09T20:11:04Z</time>
      </trkpt>
      <trkpt lat="42.775662" lon="-7.403333">
        <ele>481.016</ele>
        <time>2013-07-09T20:11:14Z</time>
      </trkpt>
      <trkpt lat="42.775672" lon="-7.403456">
        <ele>481.007</ele>
        <time>2013-07-09T20:11:20Z</time>
      </trkpt>
      <trkpt lat="42.775632" lon="-7.403544">
        <ele>480.050</ele>
        <time>2013-07-09T20:11:30Z</time>
      </trkpt>
      <trkpt lat="42.775586" lon="-7.403637">
        <ele>481.084</ele>
        <time>2013-07-09T20:11:40Z</time>
      </trkpt>
      <trkpt lat="42.775618" lon="-7.403687">
        <ele>481.087</ele>
        <time>2013-07-09T20:11:50Z</time>
      </trkpt>
      <trkpt lat="42.775584" lon="-7.403793">
        <ele>481.081</ele>
        <time>2013-07-09T20:12:00Z</time>
      </trkpt>
      <trkpt lat="42.775598" lon="-7.403892">
        <ele>481.029</ele>
        <time>2013-07-09T20:12:10Z</time>
      </trkpt>
      <trkpt lat="42.775604" lon="-7.404016">
        <ele>482.049</ele>
        <time>2013-07-09T20:12:19Z</time>
      </trkpt>
      <trkpt lat="42.775588" lon="-7.404115">
        <ele>482.069</ele>
        <time>2013-07-09T20:12:29Z</time>
      </trkpt>
      <trkpt lat="42.775591" lon="-7.404249">
        <ele>482.077</ele>
        <time>2013-07-09T20:12:35Z</time>
      </trkpt>
      <trkpt lat="42.775689" lon="-7.404303">
        <ele>483.061</ele>
        <time>2013-07-09T20:12:43Z</time>
      </trkpt>
      <trkpt lat="42.775639" lon="-7.404416">
        <ele>484.027</ele>
        <time>2013-07-09T20:12:49Z</time>
      </trkpt>
      <trkpt lat="42.775669" lon="-7.404517">
        <ele>485.007</ele>
        <time>2013-07-09T20:12:59Z</time>
      </trkpt>
      <trkpt lat="42.775659" lon="-7.404648">
        <ele>485.041</ele>
        <time>2013-07-09T20:13:01Z</time>
      </trkpt>
      <trkpt lat="42.775765" lon="-7.404731">
        <ele>481.025</ele>
        <time>2013-07-09T20:13:06Z</time>
      </trkpt>
      <trkpt lat="42.775822" lon="-7.404832">
        <ele>479.098</ele>
        <time>2013-07-09T20:13:14Z</time>
      </trkpt>
      <trkpt lat="42.775845" lon="-7.404966">
        <ele>477.022</ele>
        <time>2013-07-09T20:13:24Z</time>
      </trkpt>
      <trkpt lat="42.775824" lon="-7.405096">
        <ele>476.040</ele>
        <time>2013-07-09T20:13:32Z</time>
      </trkpt>
      <trkpt lat="42.775826" lon="-7.405226">
        <ele>478.020</ele>
        <time>2013-07-09T20:13:40Z</time>
      </trkpt>
      <trkpt lat="42.775897" lon="-7.405308">
        <ele>480.070</ele>
        <time>2013-07-09T20:13:50Z</time>
      </trkpt>
      <trkpt lat="42.775898" lon="-7.405431">
        <ele>481.031</ele>
        <time>2013-07-09T20:13:58Z</time>
      </trkpt>
      <trkpt lat="42.775834" lon="-7.405529">
        <ele>482.061</ele>
        <time>2013-07-09T20:14:07Z</time>
      </trkpt>
      <trkpt lat="42.775788" lon="-7.405562">
        <ele>483.007</ele>
        <time>2013-07-09T20:14:17Z</time>
      </trkpt>
      <trkpt lat="42.775846" lon="-7.405590">
        <ele>483.007</ele>
        <time>2013-07-09T20:14:27Z</time>
      </trkpt>
      <trkpt lat="42.775870" lon="-7.405676">
        <ele>483.037</ele>
        <time>2013-07-09T20:14:37Z</time>
      </trkpt>
      <trkpt lat="42.775779" lon="-7.405747">
        <ele>484.021</ele>
        <time>2013-07-09T20:14:44Z</time>
      </trkpt>
      <trkpt lat="42.775715" lon="-7.405840">
        <ele>485.094</ele>
        <time>2013-07-09T20:14:49Z</time>
      </trkpt>
      <trkpt lat="42.775643" lon="-7.405926">
        <ele>485.018</ele>
        <time>2013-07-09T20:14:59Z</time>
      </trkpt>
      <trkpt lat="42.775588" lon="-7.406054">
        <ele>485.036</ele>
        <time>2013-07-09T20:15:05Z</time>
      </trkpt>
      <trkpt lat="42.775678" lon="-7.406156">
        <ele>485.046</ele>
        <time>2013-07-09T20:15:09Z</time>
      </trkpt>
      <trkpt lat="42.775730" lon="-7.406260">
        <ele>486.026</ele>
        <time>2013-07-09T20:15:19Z</time>
      </trkpt>
      <trkpt lat="42.775718" lon="-7.406403">
        <ele>487.057</ele>
        <time>2013-07-09T20:15:29Z</time>
      </trkpt>
      <trkpt lat="42.775677" lon="-7.406437">
        <ele>488.000</ele>
        <time>2013-07-09T20:15:40Z</time>
      </trkpt>
      <trkpt lat="42.775626" lon="-7.406488">
        <ele>488.020</ele>
        <time>2013-07-09T20:15:54Z</time>
      </trkpt>
      <trkpt lat="42.775746" lon="-7.406503">
        <ele>488.007</ele>
        <time>2013-07-09T20:16:02Z</time>
      </trkpt>
      <trkpt lat="42.775838" lon="-7.406509">
        <ele>489.049</ele>
        <time>2013-07-09T20:16:05Z</time>
      </trkpt>
      <trkpt lat="42.775721" lon="-7.406546">
        <ele>489.053</ele>
        <time>2013-07-09T20:16:12Z</time>
      </trkpt>
      <trkpt lat="42.775622" lon="-7.406569">
        <ele>489.036</ele>
        <time>2013-07-09T20:16:17Z</time>
      </trkpt>
      <trkpt lat="42.775526" lon="-7.406609">
        <ele>489.060</ele>
        <time>2013-07-09T20:16:21Z</time>
      </trkpt>
      <trkpt lat="42.775438" lon="-7.406646">
        <ele>489.048</ele>
        <time>2013-07-09T20:16:24Z</time>
      </trkpt>
      <trkpt lat="42.775394" lon="-7.406695">
        <ele>489.088</ele>
        <time>2013-07-09T20:16:34Z</time>
      </trkpt>
      <trkpt lat="42.775447" lon="-7.406799">
        <ele>488.028</ele>
        <time>2013-07-09T20:16:38Z</time>
      </trkpt>
      <trkpt lat="42.775473" lon="-7.406893">
        <ele>488.077</ele>
        <time>2013-07-09T20:16:48Z</time>
      </trkpt>
      <trkpt lat="42.775719" lon="-7.407200">
        <ele>488.061</ele>
        <time>2013-07-09T20:22:46Z</time>
      </trkpt>
      <trkpt lat="42.775657" lon="-7.407301">
        <ele>486.027</ele>
        <time>2013-07-09T20:22:57Z</time>
      </trkpt>
      <trkpt lat="42.775610" lon="-7.407214">
        <ele>490.007</ele>
        <time>2013-07-09T20:23:06Z</time>
      </trkpt>
      <trkpt lat="42.775558" lon="-7.407217">
        <ele>496.041</ele>
        <time>2013-07-09T20:23:24Z</time>
      </trkpt>
      <trkpt lat="42.775621" lon="-7.407179">
        <ele>496.095</ele>
        <time>2013-07-09T20:23:34Z</time>
      </trkpt>
      <trkpt lat="42.775551" lon="-7.407179">
        <ele>493.028</ele>
        <time>2013-07-09T20:23:44Z</time>
      </trkpt>
      <trkpt lat="42.775486" lon="-7.407187">
        <ele>490.072</ele>
        <time>2013-07-09T20:23:54Z</time>
      </trkpt>
      <trkpt lat="42.775486" lon="-7.407333">
        <ele>490.010</ele>
        <time>2013-07-09T20:24:02Z</time>
      </trkpt>
      <trkpt lat="42.775532" lon="-7.407457">
        <ele>486.090</ele>
        <time>2013-07-09T20:24:08Z</time>
      </trkpt>
      <trkpt lat="42.775572" lon="-7.407510">
        <ele>480.030</ele>
        <time>2013-07-09T20:24:18Z</time>
      </trkpt>
      <trkpt lat="42.775525" lon="-7.407460">
        <ele>480.098</ele>
        <time>2013-07-09T20:24:28Z</time>
      </trkpt>
      <trkpt lat="42.775429" lon="-7.407451">
        <ele>480.015</ele>
        <time>2013-07-09T20:24:34Z</time>
      </trkpt>
      <trkpt lat="42.775351" lon="-7.407452">
        <ele>482.026</ele>
        <time>2013-07-09T20:24:44Z</time>
      </trkpt>
      <trkpt lat="42.775291" lon="-7.407548">
        <ele>482.007</ele>
        <time>2013-07-09T20:24:54Z</time>
      </trkpt>
      <trkpt lat="42.775216" lon="-7.407631">
        <ele>481.083</ele>
        <time>2013-07-09T20:25:01Z</time>
      </trkpt>
      <trkpt lat="42.775163" lon="-7.407748">
        <ele>480.047</ele>
        <time>2013-07-09T20:25:11Z</time>
      </trkpt>
      <trkpt lat="42.775123" lon="-7.407847">
        <ele>480.050</ele>
        <time>2013-07-09T20:25:21Z</time>
      </trkpt>
      <trkpt lat="42.775076" lon="-7.407952">
        <ele>480.014</ele>
        <time>2013-07-09T20:25:29Z</time>
      </trkpt>
      <trkpt lat="42.775023" lon="-7.408056">
        <ele>480.052</ele>
        <time>2013-07-09T20:25:39Z</time>
      </trkpt>
      <trkpt lat="42.775022" lon="-7.408195">
        <ele>480.072</ele>
        <time>2013-07-09T20:25:48Z</time>
      </trkpt>
      <trkpt lat="42.774982" lon="-7.408320">
        <ele>479.092</ele>
        <time>2013-07-09T20:25:55Z</time>
      </trkpt>
      <trkpt lat="42.774903" lon="-7.408416">
        <ele>479.092</ele>
        <time>2013-07-09T20:25:59Z</time>
      </trkpt>
      <trkpt lat="42.774931" lon="-7.408534">
        <ele>479.073</ele>
        <time>2013-07-09T20:26:09Z</time>
      </trkpt>
      <trkpt lat="42.774968" lon="-7.408661">
        <ele>476.020</ele>
        <time>2013-07-09T20:26:18Z</time>
      </trkpt>
      <trkpt lat="42.774977" lon="-7.408790">
        <ele>476.007</ele>
        <time>2013-07-09T20:26:26Z</time>
      </trkpt>
      <trkpt lat="42.775001" lon="-7.408913">
        <ele>475.033</ele>
        <time>2013-07-09T20:26:33Z</time>
      </trkpt>
      <trkpt lat="42.775028" lon="-7.409048">
        <ele>475.067</ele>
        <time>2013-07-09T20:26:41Z</time>
      </trkpt>
      <trkpt lat="42.775114" lon="-7.409136">
        <ele>475.070</ele>
        <time>2013-07-09T20:26:50Z</time>
      </trkpt>
      <trkpt lat="42.775142" lon="-7.409222">
        <ele>475.054</ele>
        <time>2013-07-09T20:27:00Z</time>
      </trkpt>
      <trkpt lat="42.775228" lon="-7.409264">
        <ele>476.072</ele>
        <time>2013-07-09T20:27:07Z</time>
      </trkpt>
      <trkpt lat="42.775319" lon="-7.409314">
        <ele>475.022</ele>
        <time>2013-07-09T20:27:12Z</time>
      </trkpt>
      <trkpt lat="42.775415" lon="-7.409369">
        <ele>475.032</ele>
        <time>2013-07-09T20:27:18Z</time>
      </trkpt>
      <trkpt lat="42.775490" lon="-7.409439">
        <ele>474.015</ele>
        <time>2013-07-09T20:27:24Z</time>
      </trkpt>
      <trkpt lat="42.775527" lon="-7.409542">
        <ele>473.065</ele>
        <time>2013-07-09T20:27:34Z</time>
      </trkpt>
      <trkpt lat="42.775573" lon="-7.409651">
        <ele>473.011</ele>
        <time>2013-07-09T20:27:44Z</time>
      </trkpt>
      <trkpt lat="42.775613" lon="-7.409775">
        <ele>472.007</ele>
        <time>2013-07-09T20:27:54Z</time>
      </trkpt>
      <trkpt lat="42.775551" lon="-7.409915">
        <ele>473.085</ele>
        <time>2013-07-09T20:28:00Z</time>
      </trkpt>
      <trkpt lat="42.775547" lon="-7.410044">
        <ele>473.039</ele>
        <time>2013-07-09T20:28:08Z</time>
      </trkpt>
      <trkpt lat="42.775551" lon="-7.410178">
        <ele>474.012</ele>
        <time>2013-07-09T20:28:17Z</time>
      </trkpt>
      <trkpt lat="42.775547" lon="-7.410307">
        <ele>474.076</ele>
        <time>2013-07-09T20:28:27Z</time>
      </trkpt>
      <trkpt lat="42.775566" lon="-7.410428">
        <ele>475.094</ele>
        <time>2013-07-09T20:28:36Z</time>
      </trkpt>
      <trkpt lat="42.775620" lon="-7.410530">
        <ele>474.054</ele>
        <time>2013-07-09T20:28:43Z</time>
      </trkpt>
      <trkpt lat="42.775620" lon="-7.410662">
        <ele>474.064</ele>
        <time>2013-07-09T20:28:49Z</time>
      </trkpt>
      <trkpt lat="42.775639" lon="-7.410764">
        <ele>474.052</ele>
        <time>2013-07-09T20:28:59Z</time>
      </trkpt>
      <trkpt lat="42.775684" lon="-7.410863">
        <ele>474.053</ele>
        <time>2013-07-09T20:29:09Z</time>
      </trkpt>
      <trkpt lat="42.775676" lon="-7.410989">
        <ele>474.008</ele>
        <time>2013-07-09T20:29:19Z</time>
      </trkpt>
      <trkpt lat="42.775661" lon="-7.411121">
        <ele>474.007</ele>
        <time>2013-07-09T20:29:26Z</time>
      </trkpt>
      <trkpt lat="42.775619" lon="-7.411235">
        <ele>475.079</ele>
        <time>2013-07-09T20:29:32Z</time>
      </trkpt>
      <trkpt lat="42.775663" lon="-7.411353">
        <ele>475.093</ele>
        <time>2013-07-09T20:29:41Z</time>
      </trkpt>
      <trkpt lat="42.775727" lon="-7.411345">
        <ele>478.086</ele>
        <time>2013-07-09T20:29:51Z</time>
      </trkpt>
      <trkpt lat="42.775730" lon="-7.411424">
        <ele>476.030</ele>
        <time>2013-07-09T20:30:17Z</time>
      </trkpt>
      <trkpt lat="42.775720" lon="-7.411549">
        <ele>476.098</ele>
        <time>2013-07-09T20:30:26Z</time>
      </trkpt>
      <trkpt lat="42.775772" lon="-7.411658">
        <ele>476.048</ele>
        <time>2013-07-09T20:30:35Z</time>
      </trkpt>
      <trkpt lat="42.775788" lon="-7.411788">
        <ele>476.058</ele>
        <time>2013-07-09T20:30:42Z</time>
      </trkpt>
      <trkpt lat="42.775809" lon="-7.411733">
        <ele>476.064</ele>
        <time>2013-07-09T20:31:07Z</time>
      </trkpt>
      <trkpt lat="42.775855" lon="-7.411755">
        <ele>477.006</ele>
        <time>2013-07-09T20:31:23Z</time>
      </trkpt>
      <trkpt lat="42.775866" lon="-7.411837">
        <ele>475.016</ele>
        <time>2013-07-09T20:31:33Z</time>
      </trkpt>
      <trkpt lat="42.775914" lon="-7.411902">
        <ele>473.007</ele>
        <time>2013-07-09T20:31:43Z</time>
      </trkpt>
      <trkpt lat="42.775940" lon="-7.412028">
        <ele>473.040</ele>
        <time>2013-07-09T20:31:49Z</time>
      </trkpt>
      <trkpt lat="42.775967" lon="-7.412156">
        <ele>473.054</ele>
        <time>2013-07-09T20:31:56Z</time>
      </trkpt>
      <trkpt lat="42.776012" lon="-7.412267">
        <ele>473.097</ele>
        <time>2013-07-09T20:32:05Z</time>
      </trkpt>
      <trkpt lat="42.776072" lon="-7.412323">
        <ele>473.041</ele>
        <time>2013-07-09T20:32:15Z</time>
      </trkpt>
      <trkpt lat="42.776147" lon="-7.412404">
        <ele>473.099</ele>
        <time>2013-07-09T20:32:25Z</time>
      </trkpt>
      <trkpt lat="42.776236" lon="-7.412475">
        <ele>473.029</ele>
        <time>2013-07-09T20:32:32Z</time>
      </trkpt>
      <trkpt lat="42.776313" lon="-7.412550">
        <ele>474.079</ele>
        <time>2013-07-09T20:32:41Z</time>
      </trkpt>
      <trkpt lat="42.776364" lon="-7.412660">
        <ele>474.083</ele>
        <time>2013-07-09T20:32:51Z</time>
      </trkpt>
      <trkpt lat="42.776420" lon="-7.412782">
        <ele>474.025</ele>
        <time>2013-07-09T20:32:59Z</time>
      </trkpt>
      <trkpt lat="42.776441" lon="-7.412874">
        <ele>475.017</ele>
        <time>2013-07-09T20:33:09Z</time>
      </trkpt>
      <trkpt lat="42.776550" lon="-7.412871">
        <ele>477.007</ele>
        <time>2013-07-09T20:33:16Z</time>
      </trkpt>
      <trkpt lat="42.776615" lon="-7.412862">
        <ele>477.032</ele>
        <time>2013-07-09T20:33:26Z</time>
      </trkpt>
      <trkpt lat="42.776695" lon="-7.412842">
        <ele>478.066</ele>
        <time>2013-07-09T20:33:36Z</time>
      </trkpt>
      <trkpt lat="42.776740" lon="-7.412858">
        <ele>478.019</ele>
        <time>2013-07-09T20:34:00Z</time>
      </trkpt>
      <trkpt lat="42.776818" lon="-7.412928">
        <ele>479.063</ele>
        <time>2013-07-09T20:34:09Z</time>
      </trkpt>
      <trkpt lat="42.776906" lon="-7.413004">
        <ele>479.031</ele>
        <time>2013-07-09T20:34:17Z</time>
      </trkpt>
      <trkpt lat="42.776962" lon="-7.413116">
        <ele>479.081</ele>
        <time>2013-07-09T20:34:27Z</time>
      </trkpt>
      <trkpt lat="42.777002" lon="-7.413178">
        <ele>479.051</ele>
        <time>2013-07-09T20:34:37Z</time>
      </trkpt>
      <trkpt lat="42.777006" lon="-7.413290">
        <ele>479.063</ele>
        <time>2013-07-09T20:34:47Z</time>
      </trkpt>
      <trkpt lat="42.776999" lon="-7.413421">
        <ele>479.044</ele>
        <time>2013-07-09T20:34:55Z</time>
      </trkpt>
      <trkpt lat="42.777041" lon="-7.413480">
        <ele>479.018</ele>
        <time>2013-07-09T20:35:05Z</time>
      </trkpt>
      <trkpt lat="42.777055" lon="-7.413573">
        <ele>480.007</ele>
        <time>2013-07-09T20:35:15Z</time>
      </trkpt>
      <trkpt lat="42.777055" lon="-7.413644">
        <ele>480.040</ele>
        <time>2013-07-09T20:35:25Z</time>
      </trkpt>
      <trkpt lat="42.777086" lon="-7.413691">
        <ele>480.034</ele>
        <time>2013-07-09T20:35:35Z</time>
      </trkpt>
      <trkpt lat="42.777149" lon="-7.413732">
        <ele>480.097</ele>
        <time>2013-07-09T20:35:45Z</time>
      </trkpt>
      <trkpt lat="42.777242" lon="-7.413725">
        <ele>480.071</ele>
        <time>2013-07-09T20:35:50Z</time>
      </trkpt>
      <trkpt lat="42.777332" lon="-7.413693">
        <ele>480.059</ele>
        <time>2013-07-09T20:35:54Z</time>
      </trkpt>
      <trkpt lat="42.777274" lon="-7.413808">
        <ele>482.059</ele>
        <time>2013-07-09T20:36:03Z</time>
      </trkpt>
      <trkpt lat="42.777230" lon="-7.413931">
        <ele>483.099</ele>
        <time>2013-07-09T20:36:09Z</time>
      </trkpt>
      <trkpt lat="42.777219" lon="-7.414057">
        <ele>483.084</ele>
        <time>2013-07-09T20:36:16Z</time>
      </trkpt>
      <trkpt lat="42.777189" lon="-7.414182">
        <ele>486.007</ele>
        <time>2013-07-09T20:36:26Z</time>
      </trkpt>
      <trkpt lat="42.777188" lon="-7.414303">
        <ele>488.017</ele>
        <time>2013-07-09T20:36:36Z</time>
      </trkpt>
      <trkpt lat="42.777133" lon="-7.414380">
        <ele>492.007</ele>
        <time>2013-07-09T20:36:46Z</time>
      </trkpt>
      <trkpt lat="42.777193" lon="-7.414424">
        <ele>492.022</ele>
        <time>2013-07-09T20:36:56Z</time>
      </trkpt>
      <trkpt lat="42.777259" lon="-7.414506">
        <ele>492.036</ele>
        <time>2013-07-09T20:37:06Z</time>
      </trkpt>
      <trkpt lat="42.777308" lon="-7.414604">
        <ele>492.059</ele>
        <time>2013-07-09T20:37:16Z</time>
      </trkpt>
      <trkpt lat="42.777401" lon="-7.414588">
        <ele>493.033</ele>
        <time>2013-07-09T20:37:25Z</time>
      </trkpt>
      <trkpt lat="42.777444" lon="-7.414541">
        <ele>493.041</ele>
        <time>2013-07-09T20:37:36Z</time>
      </trkpt>
      <trkpt lat="42.777390" lon="-7.414551">
        <ele>495.011</ele>
        <time>2013-07-09T20:37:53Z</time>
      </trkpt>
      <trkpt lat="42.777263" lon="-7.414525">
        <ele>495.051</ele>
        <time>2013-07-09T20:38:01Z</time>
      </trkpt>
      <trkpt lat="42.777248" lon="-7.414398">
        <ele>495.085</ele>
        <time>2013-07-09T20:38:09Z</time>
      </trkpt>
      <trkpt lat="42.777169" lon="-7.414342">
        <ele>497.089</ele>
        <time>2013-07-09T20:38:19Z</time>
      </trkpt>
      <trkpt lat="42.777108" lon="-7.414373">
        <ele>498.017</ele>
        <time>2013-07-09T20:38:39Z</time>
      </trkpt>
      <trkpt lat="42.777159" lon="-7.414387">
        <ele>498.007</ele>
        <time>2013-07-09T20:38:52Z</time>
      </trkpt>
      <trkpt lat="42.777069" lon="-7.414302">
        <ele>498.062</ele>
        <time>2013-07-09T20:39:02Z</time>
      </trkpt>
      <trkpt lat="42.775426" lon="-7.407309">
        <ele>476.076</ele>
        <time>2015-08-16T08:21:45Z</time>
      </trkpt>
      <trkpt lat="42.775349" lon="-7.407379">
        <ele>480.090</ele>
        <time>2015-08-16T08:21:54Z</time>
      </trkpt>
      <trkpt lat="42.775349" lon="-7.407379">
        <ele>480.019</ele>
        <time>2015-08-16T08:21:55Z</time>
      </trkpt>
      <trkpt lat="42.775275" lon="-7.407483">
        <ele>485.008</ele>
        <time>2015-08-16T08:22:02Z</time>
      </trkpt>
      <trkpt lat="42.775220" lon="-7.407582">
        <ele>483.048</ele>
        <time>2015-08-16T08:22:09Z</time>
      </trkpt>
      <trkpt lat="42.775157" lon="-7.407677">
        <ele>483.087</ele>
        <time>2015-08-16T08:22:17Z</time>
      </trkpt>
      <trkpt lat="42.775091" lon="-7.407767">
        <ele>480.041</ele>
        <time>2015-08-16T08:22:26Z</time>
      </trkpt>
      <trkpt lat="42.775021" lon="-7.407846">
        <ele>482.086</ele>
        <time>2015-08-16T08:22:33Z</time>
      </trkpt>
      <trkpt lat="42.774985" lon="-7.407976">
        <ele>481.014</ele>
        <time>2015-08-16T08:22:40Z</time>
      </trkpt>
      <trkpt lat="42.774936" lon="-7.408084">
        <ele>481.041</ele>
        <time>2015-08-16T08:22:47Z</time>
      </trkpt>
      <trkpt lat="42.774904" lon="-7.408206">
        <ele>482.079</ele>
        <time>2015-08-16T08:22:54Z</time>
      </trkpt>
      <trkpt lat="42.774896" lon="-7.408338">
        <ele>482.073</ele>
        <time>2015-08-16T08:23:03Z</time>
      </trkpt>
      <trkpt lat="42.774889" lon="-7.408475">
        <ele>483.024</ele>
        <time>2015-08-16T08:23:11Z</time>
      </trkpt>
      <trkpt lat="42.774898" lon="-7.408597">
        <ele>482.004</ele>
        <time>2015-08-16T08:23:18Z</time>
      </trkpt>
      <trkpt lat="42.774918" lon="-7.408730">
        <ele>482.014</ele>
        <time>2015-08-16T08:23:25Z</time>
      </trkpt>
      <trkpt lat="42.774949" lon="-7.408852">
        <ele>480.008</ele>
        <time>2015-08-16T08:23:34Z</time>
      </trkpt>
      <trkpt lat="42.774989" lon="-7.408962">
        <ele>478.043</ele>
        <time>2015-08-16T08:23:41Z</time>
      </trkpt>
      <trkpt lat="42.775013" lon="-7.409090">
        <ele>477.052</ele>
        <time>2015-08-16T08:23:49Z</time>
      </trkpt>
      <trkpt lat="42.775069" lon="-7.409194">
        <ele>475.086</ele>
        <time>2015-08-16T08:23:58Z</time>
      </trkpt>
      <trkpt lat="42.775162" lon="-7.409201">
        <ele>477.081</ele>
        <time>2015-08-16T08:24:15Z</time>
      </trkpt>
      <trkpt lat="42.775254" lon="-7.409223">
        <ele>479.059</ele>
        <time>2015-08-16T08:24:27Z</time>
      </trkpt>
      <trkpt lat="42.775336" lon="-7.409303">
        <ele>477.036</ele>
        <time>2015-08-16T08:24:35Z</time>
      </trkpt>
      <trkpt lat="42.775402" lon="-7.409389">
        <ele>477.064</ele>
        <time>2015-08-16T08:24:41Z</time>
      </trkpt>
      <trkpt lat="42.775451" lon="-7.409502">
        <ele>477.018</ele>
        <time>2015-08-16T08:24:53Z</time>
      </trkpt>
      <trkpt lat="42.775483" lon="-7.409631">
        <ele>477.075</ele>
        <time>2015-08-16T08:25:00Z</time>
      </trkpt>
      <trkpt lat="42.775515" lon="-7.409753">
        <ele>477.028</ele>
        <time>2015-08-16T08:25:07Z</time>
      </trkpt>
      <trkpt lat="42.775528" lon="-7.409890">
        <ele>477.020</ele>
        <time>2015-08-16T08:25:15Z</time>
      </trkpt>
      <trkpt lat="42.775531" lon="-7.410029">
        <ele>477.008</ele>
        <time>2015-08-16T08:25:23Z</time>
      </trkpt>
      <trkpt lat="42.775564" lon="-7.410145">
        <ele>475.078</ele>
        <time>2015-08-16T08:25:41Z</time>
      </trkpt>
      <trkpt lat="42.775576" lon="-7.410276">
        <ele>475.087</ele>
        <time>2015-08-16T08:26:04Z</time>
      </trkpt>
      <trkpt lat="42.775589" lon="-7.410401">
        <ele>475.021</ele>
        <time>2015-08-16T08:26:12Z</time>
      </trkpt>
      <trkpt lat="42.775589" lon="-7.410401">
        <ele>475.066</ele>
        <time>2015-08-16T08:26:12Z</time>
      </trkpt>
      <trkpt lat="42.775639" lon="-7.410522">
        <ele>476.054</ele>
        <time>2015-08-16T08:26:19Z</time>
      </trkpt>
      <trkpt lat="42.775693" lon="-7.410626">
        <ele>475.051</ele>
        <time>2015-08-16T08:26:27Z</time>
      </trkpt>
      <trkpt lat="42.775783" lon="-7.410632">
        <ele>472.089</ele>
        <time>2015-08-16T08:26:46Z</time>
      </trkpt>
      <trkpt lat="42.775853" lon="-7.410544">
        <ele>466.073</ele>
        <time>2015-08-16T08:26:54Z</time>
      </trkpt>
      <trkpt lat="42.775950" lon="-7.410606">
        <ele>459.042</ele>
        <time>2015-08-16T08:27:15Z</time>
      </trkpt>
      <trkpt lat="42.776024" lon="-7.410690">
        <ele>455.022</ele>
        <time>2015-08-16T08:27:20Z</time>
      </trkpt>
      <trkpt lat="42.776099" lon="-7.410780">
        <ele>452.014</ele>
        <time>2015-08-16T08:27:25Z</time>
      </trkpt>
      <trkpt lat="42.776173" lon="-7.410850">
        <ele>452.008</ele>
        <time>2015-08-16T08:27:30Z</time>
      </trkpt>
      <trkpt lat="42.776266" lon="-7.410889">
        <ele>451.095</ele>
        <time>2015-08-16T08:27:35Z</time>
      </trkpt>
      <trkpt lat="42.776361" lon="-7.410909">
        <ele>454.054</ele>
        <time>2015-08-16T08:27:40Z</time>
      </trkpt>
      <trkpt lat="42.776455" lon="-7.410919">
        <ele>459.098</ele>
        <time>2015-08-16T08:27:45Z</time>
      </trkpt>
      <trkpt lat="42.776553" lon="-7.410952">
        <ele>464.053</ele>
        <time>2015-08-16T08:27:54Z</time>
      </trkpt>
      <trkpt lat="42.776619" lon="-7.411059">
        <ele>466.051</ele>
        <time>2015-08-16T08:28:02Z</time>
      </trkpt>
      <trkpt lat="42.776691" lon="-7.411141">
        <ele>467.088</ele>
        <time>2015-08-16T08:28:11Z</time>
      </trkpt>
      <trkpt lat="42.776769" lon="-7.411228">
        <ele>464.016</ele>
        <time>2015-08-16T08:28:19Z</time>
      </trkpt>
      <trkpt lat="42.776801" lon="-7.411356">
        <ele>466.070</ele>
        <time>2015-08-16T08:28:23Z</time>
      </trkpt>
      <trkpt lat="42.776738" lon="-7.411450">
        <ele>466.018</ele>
        <time>2015-08-16T08:28:29Z</time>
      </trkpt>
      <trkpt lat="42.776663" lon="-7.411517">
        <ele>469.098</ele>
        <time>2015-08-16T08:28:35Z</time>
      </trkpt>
      <trkpt lat="42.776587" lon="-7.411586">
        <ele>471.017</ele>
        <time>2015-08-16T08:28:41Z</time>
      </trkpt>
      <trkpt lat="42.776506" lon="-7.411661">
        <ele>471.008</ele>
        <time>2015-08-16T08:28:48Z</time>
      </trkpt>
      <trkpt lat="42.776421" lon="-7.411719">
        <ele>475.072</ele>
        <time>2015-08-16T08:28:55Z</time>
      </trkpt>
      <trkpt lat="42.776336" lon="-7.411760">
        <ele>476.021</ele>
        <time>2015-08-16T08:29:02Z</time>
      </trkpt>
      <trkpt lat="42.776254" lon="-7.411823">
        <ele>477.015</ele>
        <time>2015-08-16T08:29:10Z</time>
      </trkpt>
      <trkpt lat="42.776177" lon="-7.411907">
        <ele>477.020</ele>
        <time>2015-08-16T08:29:18Z</time>
      </trkpt>
      <trkpt lat="42.776140" lon="-7.412032">
        <ele>478.068</ele>
        <time>2015-08-16T08:29:26Z</time>
      </trkpt>
      <trkpt lat="42.776105" lon="-7.412154">
        <ele>483.015</ele>
        <time>2015-08-16T08:29:38Z</time>
      </trkpt>
      <trkpt lat="42.776134" lon="-7.412272">
        <ele>481.053</ele>
        <time>2015-08-16T08:29:47Z</time>
      </trkpt>
      <trkpt lat="42.776195" lon="-7.412372">
        <ele>483.067</ele>
        <time>2015-08-16T08:29:54Z</time>
      </trkpt>
      <trkpt lat="42.776248" lon="-7.412472">
        <ele>482.037</ele>
        <time>2015-08-16T08:30:02Z</time>
      </trkpt>
      <trkpt lat="42.776302" lon="-7.412571">
        <ele>479.049</ele>
        <time>2015-08-16T08:30:12Z</time>
      </trkpt>
      <trkpt lat="42.776370" lon="-7.412669">
        <ele>480.013</ele>
        <time>2015-08-16T08:30:21Z</time>
      </trkpt>
      <trkpt lat="42.776429" lon="-7.412778">
        <ele>481.008</ele>
        <time>2015-08-16T08:30:28Z</time>
      </trkpt>
      <trkpt lat="42.776429" lon="-7.412778">
        <ele>481.014</ele>
        <time>2015-08-16T08:30:28Z</time>
      </trkpt>
      <trkpt lat="42.776494" lon="-7.412874">
        <ele>483.063</ele>
        <time>2015-08-16T08:30:35Z</time>
      </trkpt>
      <trkpt lat="42.776573" lon="-7.412939">
        <ele>484.077</ele>
        <time>2015-08-16T08:30:43Z</time>
      </trkpt>
      <trkpt lat="42.776660" lon="-7.412888">
        <ele>485.072</ele>
        <time>2015-08-16T08:30:51Z</time>
      </trkpt>
      <trkpt lat="42.776749" lon="-7.412913">
        <ele>483.070</ele>
        <time>2015-08-16T08:31:06Z</time>
      </trkpt>
      <trkpt lat="42.776846" lon="-7.412953">
        <ele>477.077</ele>
        <time>2015-08-16T08:31:15Z</time>
      </trkpt>
      <trkpt lat="42.776909" lon="-7.413059">
        <ele>477.075</ele>
        <time>2015-08-16T08:31:24Z</time>
      </trkpt>
      <trkpt lat="42.776961" lon="-7.413160">
        <ele>475.079</ele>
        <time>2015-08-16T08:31:35Z</time>
      </trkpt>
      <trkpt lat="42.777024" lon="-7.413251">
        <ele>475.066</ele>
        <time>2015-08-16T08:31:46Z</time>
      </trkpt>
      <trkpt lat="42.777058" lon="-7.413372">
        <ele>477.029</ele>
        <time>2015-08-16T08:31:57Z</time>
      </trkpt>
      <trkpt lat="42.777088" lon="-7.413490">
        <ele>479.021</ele>
        <time>2015-08-16T08:32:08Z</time>
      </trkpt>
      <trkpt lat="42.777112" lon="-7.413613">
        <ele>476.008</ele>
        <time>2015-08-16T08:32:23Z</time>
      </trkpt>
      <trkpt lat="42.777166" lon="-7.413711">
        <ele>481.037</ele>
        <time>2015-08-16T08:32:42Z</time>
      </trkpt>
      <trkpt lat="42.777116" lon="-7.413821">
        <ele>482.046</ele>
        <time>2015-08-16T08:32:52Z</time>
      </trkpt>
      <trkpt lat="42.777131" lon="-7.413953">
        <ele>476.060</ele>
        <time>2015-08-16T08:33:03Z</time>
      </trkpt>
      <trkpt lat="42.777189" lon="-7.414055">
        <ele>480.055</ele>
        <time>2015-08-16T08:33:14Z</time>
      </trkpt>
      <trkpt lat="42.777255" lon="-7.414172">
        <ele>485.053</ele>
        <time>2015-08-16T08:33:21Z</time>
      </trkpt>
      <trkpt lat="42.777291" lon="-7.414291">
        <ele>482.010</ele>
        <time>2015-08-16T08:33:27Z</time>
      </trkpt>
      <trkpt lat="42.777340" lon="-7.414401">
        <ele>484.078</ele>
        <time>2015-08-16T08:33:34Z</time>
      </trkpt>
      <trkpt lat="42.777341" lon="-7.414524">
        <ele>486.012</ele>
        <time>2015-08-16T08:33:42Z</time>
      </trkpt>
      <trkpt lat="42.777381" lon="-7.414646">
        <ele>494.099</ele>
        <time>2015-08-16T08:33:57Z</time>
      </trkpt>
      <trkpt lat="42.777423" lon="-7.414756">
        <ele>502.007</ele>
        <time>2015-08-16T08:34:08Z</time>
      </trkpt>
      <trkpt lat="42.777428" lon="-7.414891">
        <ele>504.027</ele>
        <time>2015-08-16T08:34:17Z</time>
      </trkpt>
      <trkpt lat="42.777456" lon="-7.415017">
        <ele>503.008</ele>
        <time>2015-08-16T08:34:23Z</time>
      </trkpt>
      <trkpt lat="42.777467" lon="-7.415144">
        <ele>505.040</ele>
        <time>2015-08-16T08:34:30Z</time>
      </trkpt>
      <trkpt lat="42.777474" lon="-7.415272">
        <ele>507.099</ele>
        <time>2015-08-16T08:34:38Z</time>
      </trkpt>
      <trkpt lat="42.777401" lon="-7.415350">
        <ele>512.083</ele>
        <time>2015-08-16T08:34:55Z</time>
      </trkpt>
      <trkpt lat="42.777355" lon="-7.415502">
        <ele>510.038</ele>
        <time>2015-08-16T08:35:24Z</time>
      </trkpt>
      <trkpt lat="42.777299" lon="-7.415614">
        <ele>510.066</ele>
        <time>2015-08-16T08:35:27Z</time>
      </trkpt>
      <trkpt lat="42.777279" lon="-7.415769">
        <ele>507.063</ele>
        <time>2015-08-16T08:35:31Z</time>
      </trkpt>
      <trkpt lat="42.777247" lon="-7.415892">
        <ele>510.091</ele>
        <time>2015-08-16T08:35:35Z</time>
      </trkpt>
      <trkpt lat="42.777233" lon="-7.416028">
        <ele>507.045</ele>
        <time>2015-08-16T08:35:40Z</time>
      </trkpt>
      <trkpt lat="42.777233" lon="-7.416164">
        <ele>509.069</ele>
        <time>2015-08-16T08:35:45Z</time>
      </trkpt>
      <trkpt lat="42.777193" lon="-7.416295">
        <ele>514.004</ele>
        <time>2015-08-16T08:35:51Z</time>
      </trkpt>
      <trkpt lat="42.777148" lon="-7.416410">
        <ele>515.024</ele>
        <time>2015-08-16T08:35:57Z</time>
      </trkpt>
      <trkpt lat="42.777140" lon="-7.416547">
        <ele>512.008</ele>
        <time>2015-08-16T08:36:06Z</time>
      </trkpt>
      <trkpt lat="42.777095" lon="-7.416671">
        <ele>512.067</ele>
        <time>2015-08-16T08:36:13Z</time>
      </trkpt>
      <trkpt lat="42.777063" lon="-7.416803">
        <ele>517.026</ele>
        <time>2015-08-16T08:36:20Z</time>
      </trkpt>
      <trkpt lat="42.777006" lon="-7.416901">
        <ele>516.020</ele>
        <time>2015-08-16T08:36:28Z</time>
      </trkpt>
      <trkpt lat="42.776960" lon="-7.417020">
        <ele>517.095</ele>
        <time>2015-08-16T08:36:37Z</time>
      </trkpt>
      <trkpt lat="42.776950" lon="-7.417151">
        <ele>519.083</ele>
        <time>2015-08-16T08:36:44Z</time>
      </trkpt>
      <trkpt lat="42.776902" lon="-7.417262">
        <ele>519.080</ele>
        <time>2015-08-16T08:36:51Z</time>
      </trkpt>
      <trkpt lat="42.776861" lon="-7.417384">
        <ele>521.028</ele>
        <time>2015-08-16T08:36:59Z</time>
      </trkpt>
      <trkpt lat="42.776811" lon="-7.417491">
        <ele>525.022</ele>
        <time>2015-08-16T08:37:07Z</time>
      </trkpt>
      <trkpt lat="42.776825" lon="-7.417619">
        <ele>527.056</ele>
        <time>2015-08-16T08:37:16Z</time>
      </trkpt>
      <trkpt lat="42.776801" lon="-7.417744">
        <ele>529.059</ele>
        <time>2015-08-16T08:37:23Z</time>
      </trkpt>
      <trkpt lat="42.776905" lon="-7.417736">
        <ele>518.014</ele>
        <time>2015-08-16T08:37:48Z</time>
      </trkpt>
      <trkpt lat="42.776999" lon="-7.417704">
        <ele>517.008</ele>
        <time>2015-08-16T08:37:54Z</time>
      </trkpt>
      <trkpt lat="42.777095" lon="-7.417660">
        <ele>523.056</ele>
        <time>2015-08-16T08:38:12Z</time>
      </trkpt>
      <trkpt lat="42.777186" lon="-7.417681">
        <ele>524.045</ele>
        <time>2015-08-16T08:38:18Z</time>
      </trkpt>
      <trkpt lat="42.777274" lon="-7.417725">
        <ele>523.069</ele>
        <time>2015-08-16T08:38:26Z</time>
      </trkpt>
      <trkpt lat="42.777368" lon="-7.417753">
        <ele>523.014</ele>
        <time>2015-08-16T08:38:35Z</time>
      </trkpt>
      <trkpt lat="42.777409" lon="-7.417866">
        <ele>521.052</ele>
        <time>2015-08-16T08:38:44Z</time>
      </trkpt>
      <trkpt lat="42.777492" lon="-7.417944">
        <ele>525.099</ele>
        <time>2015-08-16T08:38:57Z</time>
      </trkpt>
      <trkpt lat="42.777557" lon="-7.418046">
        <ele>525.077</ele>
        <time>2015-08-16T08:39:05Z</time>
      </trkpt>
      <trkpt lat="42.777613" lon="-7.418159">
        <ele>527.041</ele>
        <time>2015-08-16T08:39:12Z</time>
      </trkpt>
      <trkpt lat="42.777657" lon="-7.418271">
        <ele>527.083</ele>
        <time>2015-08-16T08:39:19Z</time>
      </trkpt>
      <trkpt lat="42.777702" lon="-7.418379">
        <ele>527.025</ele>
        <time>2015-08-16T08:39:26Z</time>
      </trkpt>
      <trkpt lat="42.777739" lon="-7.418500">
        <ele>529.017</ele>
        <time>2015-08-16T08:39:33Z</time>
      </trkpt>
      <trkpt lat="42.777775" lon="-7.418612">
        <ele>529.008</ele>
        <time>2015-08-16T08:39:40Z</time>
      </trkpt>
      <trkpt lat="42.777799" lon="-7.418739">
        <ele>532.059</ele>
        <time>2015-08-16T08:39:49Z</time>
      </trkpt>
      <trkpt lat="42.777828" lon="-7.418856">
        <ele>535.018</ele>
        <time>2015-08-16T08:40:29Z</time>
      </trkpt>
      <trkpt lat="42.777832" lon="-7.418982">
        <ele>535.022</ele>
        <time>2015-08-16T08:41:49Z</time>
      </trkpt>
      <trkpt lat="42.777845" lon="-7.419120">
        <ele>535.047</ele>
        <time>2015-08-16T08:41:57Z</time>
      </trkpt>
      <trkpt lat="42.777858" lon="-7.419254">
        <ele>535.075</ele>
        <time>2015-08-16T08:42:04Z</time>
      </trkpt>
      <trkpt lat="42.777881" lon="-7.419378">
        <ele>536.032</ele>
        <time>2015-08-16T08:42:11Z</time>
      </trkpt>
      <trkpt lat="42.777911" lon="-7.419509">
        <ele>535.080</ele>
        <time>2015-08-16T08:42:19Z</time>
      </trkpt>
      <trkpt lat="42.777926" lon="-7.419635">
        <ele>535.024</ele>
        <time>2015-08-16T08:42:29Z</time>
      </trkpt>
      <trkpt lat="42.777969" lon="-7.419748">
        <ele>533.092</ele>
        <time>2015-08-16T08:42:36Z</time>
      </trkpt>
      <trkpt lat="42.778009" lon="-7.419861">
        <ele>535.073</ele>
        <time>2015-08-16T08:42:43Z</time>
      </trkpt>
      <trkpt lat="42.778052" lon="-7.419982">
        <ele>532.020</ele>
        <time>2015-08-16T08:42:51Z</time>
      </trkpt>
      <trkpt lat="42.778092" lon="-7.420102">
        <ele>533.008</ele>
        <time>2015-08-16T08:43:01Z</time>
      </trkpt>
      <trkpt lat="42.778140" lon="-7.420206">
        <ele>534.090</ele>
        <time>2015-08-16T08:43:09Z</time>
      </trkpt>
      <trkpt lat="42.778199" lon="-7.420308">
        <ele>532.049</ele>
        <time>2015-08-16T08:43:17Z</time>
      </trkpt>
      <trkpt lat="42.778272" lon="-7.420390">
        <ele>532.033</ele>
        <time>2015-08-16T08:43:23Z</time>
      </trkpt>
      <trkpt lat="42.778332" lon="-7.420496">
        <ele>531.098</ele>
        <time>2015-08-16T08:43:30Z</time>
      </trkpt>
      <trkpt lat="42.778397" lon="-7.420606">
        <ele>531.066</ele>
        <time>2015-08-16T08:43:37Z</time>
      </trkpt>
      <trkpt lat="42.778464" lon="-7.420709">
        <ele>532.063</ele>
        <time>2015-08-16T08:43:44Z</time>
      </trkpt>
      <trkpt lat="42.778519" lon="-7.420822">
        <ele>530.091</ele>
        <time>2015-08-16T08:43:52Z</time>
      </trkpt>
      <trkpt lat="42.778570" lon="-7.420933">
        <ele>529.095</ele>
        <time>2015-08-16T08:44:00Z</time>
      </trkpt>
      <trkpt lat="42.778602" lon="-7.421047">
        <ele>529.089</ele>
        <time>2015-08-16T08:44:10Z</time>
      </trkpt>
      <trkpt lat="42.778655" lon="-7.421158">
        <ele>527.006</ele>
        <time>2015-08-16T08:44:17Z</time>
      </trkpt>
      <trkpt lat="42.778687" lon="-7.421274">
        <ele>529.026</ele>
        <time>2015-08-16T08:44:26Z</time>
      </trkpt>
      <trkpt lat="42.778752" lon="-7.421370">
        <ele>529.008</ele>
        <time>2015-08-16T08:44:34Z</time>
      </trkpt>
      <trkpt lat="42.778825" lon="-7.421443">
        <ele>527.069</ele>
        <time>2015-08-16T08:44:42Z</time>
      </trkpt>
      <trkpt lat="42.779031" lon="-7.421269">
        <ele>520.038</ele>
        <time>2015-08-16T08:45:41Z</time>
      </trkpt>
      <trkpt lat="42.778941" lon="-7.421338">
        <ele>525.072</ele>
        <time>2015-08-16T08:45:44Z</time>
      </trkpt>
      <trkpt lat="42.778844" lon="-7.421372">
        <ele>529.027</ele>
        <time>2015-08-16T08:45:50Z</time>
      </trkpt>
      <trkpt lat="42.778758" lon="-7.421432">
        <ele>531.075</ele>
        <time>2015-08-16T08:46:05Z</time>
      </trkpt>
      <trkpt lat="42.778709" lon="-7.421318">
        <ele>529.012</ele>
        <time>2015-08-16T08:46:14Z</time>
      </trkpt>
      <trkpt lat="42.778692" lon="-7.421190">
        <ele>526.030</ele>
        <time>2015-08-16T08:47:04Z</time>
      </trkpt>
      <trkpt lat="42.778613" lon="-7.421123">
        <ele>535.044</ele>
        <time>2015-08-16T08:48:29Z</time>
      </trkpt>
      <trkpt lat="42.778598" lon="-7.421002">
        <ele>530.056</ele>
        <time>2015-08-16T08:48:38Z</time>
      </trkpt>
      <trkpt lat="42.778496" lon="-7.420938">
        <ele>534.059</ele>
        <time>2015-08-16T08:48:47Z</time>
      </trkpt>
      <trkpt lat="42.778407" lon="-7.420963">
        <ele>534.014</ele>
        <time>2015-08-16T08:48:54Z</time>
      </trkpt>
      <trkpt lat="42.778315" lon="-7.421020">
        <ele>533.008</ele>
        <time>2015-08-16T08:49:01Z</time>
      </trkpt>
      <trkpt lat="42.778231" lon="-7.421084">
        <ele>533.026</ele>
        <time>2015-08-16T08:49:06Z</time>
      </trkpt>
      <trkpt lat="42.778150" lon="-7.421176">
        <ele>532.085</ele>
        <time>2015-08-16T08:49:11Z</time>
      </trkpt>
      <trkpt lat="42.778066" lon="-7.421267">
        <ele>531.099</ele>
        <time>2015-08-16T08:49:16Z</time>
      </trkpt>
      <trkpt lat="42.777988" lon="-7.421337">
        <ele>531.074</ele>
        <time>2015-08-16T08:49:24Z</time>
      </trkpt>
      <trkpt lat="42.777892" lon="-7.421351">
        <ele>529.052</ele>
        <time>2015-08-16T08:50:41Z</time>
      </trkpt>
      <trkpt lat="42.777807" lon="-7.421410">
        <ele>528.079</ele>
        <time>2015-08-16T08:50:49Z</time>
      </trkpt>
      <trkpt lat="42.777725" lon="-7.421484">
        <ele>525.047</ele>
        <time>2015-08-16T08:50:58Z</time>
      </trkpt>
      <trkpt lat="42.777644" lon="-7.421547">
        <ele>524.071</ele>
        <time>2015-08-16T08:51:06Z</time>
      </trkpt>
      <trkpt lat="42.777559" lon="-7.421616">
        <ele>521.019</ele>
        <time>2015-08-16T08:51:15Z</time>
      </trkpt>
      <trkpt lat="42.777477" lon="-7.421689">
        <ele>519.009</ele>
        <time>2015-08-16T08:51:24Z</time>
      </trkpt>
      <trkpt lat="42.777398" lon="-7.421756">
        <ele>516.019</ele>
        <time>2015-08-16T08:51:32Z</time>
      </trkpt>
      <trkpt lat="42.777317" lon="-7.421836">
        <ele>513.008</ele>
        <time>2015-08-16T08:51:41Z</time>
      </trkpt>
      <trkpt lat="42.777230" lon="-7.421901">
        <ele>511.052</ele>
        <time>2015-08-16T08:51:53Z</time>
      </trkpt>
      <trkpt lat="42.777148" lon="-7.421954">
        <ele>509.021</ele>
        <time>2015-08-16T08:52:02Z</time>
      </trkpt>
      <trkpt lat="42.777066" lon="-7.422027">
        <ele>507.025</ele>
        <time>2015-08-16T08:52:11Z</time>
      </trkpt>
      <trkpt lat="42.776984" lon="-7.422115">
        <ele>505.060</ele>
        <time>2015-08-16T08:52:19Z</time>
      </trkpt>
      <trkpt lat="42.776891" lon="-7.422176">
        <ele>505.098</ele>
        <time>2015-08-16T08:52:27Z</time>
      </trkpt>
      <trkpt lat="42.776807" lon="-7.422245">
        <ele>503.015</ele>
        <time>2015-08-16T08:52:34Z</time>
      </trkpt>
      <trkpt lat="42.776723" lon="-7.422324">
        <ele>500.023</ele>
        <time>2015-08-16T08:52:41Z</time>
      </trkpt>
      <trkpt lat="42.776702" lon="-7.422453">
        <ele>497.027</ele>
        <time>2015-08-16T08:52:49Z</time>
      </trkpt>
      <trkpt lat="42.776773" lon="-7.422543">
        <ele>498.026</ele>
        <time>2015-08-16T08:53:07Z</time>
      </trkpt>
      <trkpt lat="42.776860" lon="-7.422616">
        <ele>496.047</ele>
        <time>2015-08-16T08:53:14Z</time>
      </trkpt>
      <trkpt lat="42.776951" lon="-7.422677">
        <ele>493.011</ele>
        <time>2015-08-16T08:53:20Z</time>
      </trkpt>
      <trkpt lat="42.777033" lon="-7.422747">
        <ele>493.008</ele>
        <time>2015-08-16T08:53:26Z</time>
      </trkpt>
      <trkpt lat="42.777110" lon="-7.422810">
        <ele>492.083</ele>
        <time>2015-08-16T08:53:35Z</time>
      </trkpt>
      <trkpt lat="42.777193" lon="-7.422889">
        <ele>493.092</ele>
        <time>2015-08-16T08:53:45Z</time>
      </trkpt>
      <trkpt lat="42.777283" lon="-7.422935">
        <ele>494.046</ele>
        <time>2015-08-16T08:53:52Z</time>
      </trkpt>
      <trkpt lat="42.777377" lon="-7.422970">
        <ele>495.011</ele>
        <time>2015-08-16T08:53:59Z</time>
      </trkpt>
      <trkpt lat="42.777468" lon="-7.423005">
        <ele>494.069</ele>
        <time>2015-08-16T08:54:07Z</time>
      </trkpt>
      <trkpt lat="42.777559" lon="-7.423037">
        <ele>492.096</ele>
        <time>2015-08-16T08:54:15Z</time>
      </trkpt>
      <trkpt lat="42.777650" lon="-7.423075">
        <ele>492.074</ele>
        <time>2015-08-16T08:54:23Z</time>
      </trkpt>
      <trkpt lat="42.777756" lon="-7.423106">
        <ele>490.098</ele>
        <time>2015-08-16T08:54:32Z</time>
      </trkpt>
      <trkpt lat="42.777850" lon="-7.423150">
        <ele>491.092</ele>
        <time>2015-08-16T08:54:40Z</time>
      </trkpt>
      <trkpt lat="42.777937" lon="-7.423195">
        <ele>491.073</ele>
        <time>2015-08-16T08:54:49Z</time>
      </trkpt>
      <trkpt lat="42.778035" lon="-7.423234">
        <ele>489.020</ele>
        <time>2015-08-16T08:54:56Z</time>
      </trkpt>
      <trkpt lat="42.778130" lon="-7.423281">
        <ele>488.008</ele>
        <time>2015-08-16T08:55:03Z</time>
      </trkpt>
      <trkpt lat="42.778217" lon="-7.423326">
        <ele>487.040</ele>
        <time>2015-08-16T08:55:10Z</time>
      </trkpt>
      <trkpt lat="42.778300" lon="-7.423384">
        <ele>485.069</ele>
        <time>2015-08-16T08:55:18Z</time>
      </trkpt>
      <trkpt lat="42.778392" lon="-7.423395">
        <ele>482.043</ele>
        <time>2015-08-16T08:56:01Z</time>
      </trkpt>
      <trkpt lat="42.778425" lon="-7.423520">
        <ele>480.088</ele>
        <time>2015-08-16T08:56:11Z</time>
      </trkpt>
      <trkpt lat="42.778431" lon="-7.423651">
        <ele>479.026</ele>
        <time>2015-08-16T08:56:38Z</time>
      </trkpt>
      <trkpt lat="42.778441" lon="-7.423785">
        <ele>477.053</ele>
        <time>2015-08-16T08:56:47Z</time>
      </trkpt>
      <trkpt lat="42.778427" lon="-7.423910">
        <ele>477.041</ele>
        <time>2015-08-16T08:56:56Z</time>
      </trkpt>
      <trkpt lat="42.778375" lon="-7.424016">
        <ele>477.065</ele>
        <time>2015-08-16T08:57:04Z</time>
      </trkpt>
      <trkpt lat="42.778312" lon="-7.424122">
        <ele>479.089</ele>
        <time>2015-08-16T08:57:12Z</time>
      </trkpt>
      <trkpt lat="42.778246" lon="-7.424226">
        <ele>479.006</ele>
        <time>2015-08-16T08:57:20Z</time>
      </trkpt>
      <trkpt lat="42.778196" lon="-7.424332">
        <ele>480.026</ele>
        <time>2015-08-16T08:57:28Z</time>
      </trkpt>
      <trkpt lat="42.778156" lon="-7.424443">
        <ele>480.008</ele>
        <time>2015-08-16T08:57:35Z</time>
      </trkpt>
      <trkpt lat="42.778124" lon="-7.424567">
        <ele>481.069</ele>
        <time>2015-08-16T08:57:44Z</time>
      </trkpt>
      <trkpt lat="42.778102" lon="-7.424702">
        <ele>482.018</ele>
        <time>2015-08-16T08:57:52Z</time>
      </trkpt>
      <trkpt lat="42.778065" lon="-7.424832">
        <ele>482.022</ele>
        <time>2015-08-16T08:58:00Z</time>
      </trkpt>
      <trkpt lat="42.778039" lon="-7.424963">
        <ele>481.047</ele>
        <time>2015-08-16T08:58:08Z</time>
      </trkpt>
      <trkpt lat="42.778007" lon="-7.425087">
        <ele>480.095</ele>
        <time>2015-08-16T08:58:17Z</time>
      </trkpt>
      <trkpt lat="42.777945" lon="-7.425191">
        <ele>483.072</ele>
        <time>2015-08-16T08:58:27Z</time>
      </trkpt>
      <trkpt lat="42.777878" lon="-7.425279">
        <ele>487.030</ele>
        <time>2015-08-16T08:58:43Z</time>
      </trkpt>
      <trkpt lat="42.777796" lon="-7.425339">
        <ele>486.074</ele>
        <time>2015-08-16T08:58:51Z</time>
      </trkpt>
      <trkpt lat="42.777706" lon="-7.425396">
        <ele>488.029</ele>
        <time>2015-08-16T08:58:58Z</time>
      </trkpt>
      <trkpt lat="42.777624" lon="-7.425466">
        <ele>490.000</ele>
        <time>2015-08-16T08:59:05Z</time>
      </trkpt>
      <trkpt lat="42.777532" lon="-7.425520">
        <ele>490.020</ele>
        <time>2015-08-16T08:59:13Z</time>
      </trkpt>
      <trkpt lat="42.777451" lon="-7.425587">
        <ele>493.008</ele>
        <time>2015-08-16T08:59:20Z</time>
      </trkpt>
      <trkpt lat="42.777368" lon="-7.425663">
        <ele>495.043</ele>
        <time>2015-08-16T08:59:27Z</time>
      </trkpt>
      <trkpt lat="42.777289" lon="-7.425745">
        <ele>496.082</ele>
        <time>2015-08-16T08:59:35Z</time>
      </trkpt>
      <trkpt lat="42.777213" lon="-7.425830">
        <ele>497.076</ele>
        <time>2015-08-16T08:59:45Z</time>
      </trkpt>
      <trkpt lat="42.777132" lon="-7.425893">
        <ele>504.071</ele>
        <time>2015-08-16T08:59:51Z</time>
      </trkpt>
      <trkpt lat="42.777070" lon="-7.425997">
        <ele>495.019</ele>
        <time>2015-08-16T08:59:59Z</time>
      </trkpt>
      <trkpt lat="42.777031" lon="-7.426111">
        <ele>487.086</ele>
        <time>2015-08-16T09:00:09Z</time>
      </trkpt>
      <trkpt lat="42.776973" lon="-7.426208">
        <ele>487.044</ele>
        <time>2015-08-16T09:00:18Z</time>
      </trkpt>
      <trkpt lat="42.776899" lon="-7.426309">
        <ele>490.028</ele>
        <time>2015-08-16T09:00:27Z</time>
      </trkpt>
      <trkpt lat="42.776827" lon="-7.426404">
        <ele>493.046</ele>
        <time>2015-08-16T09:00:34Z</time>
      </trkpt>
      <trkpt lat="42.776759" lon="-7.426501">
        <ele>496.088</ele>
        <time>2015-08-16T09:00:41Z</time>
      </trkpt>
      <trkpt lat="42.776695" lon="-7.426611">
        <ele>499.016</ele>
        <time>2015-08-16T09:00:48Z</time>
      </trkpt>
      <trkpt lat="42.776630" lon="-7.426714">
        <ele>498.008</ele>
        <time>2015-08-16T09:00:56Z</time>
      </trkpt>
      <trkpt lat="42.776559" lon="-7.426792">
        <ele>498.055</ele>
        <time>2015-08-16T09:01:02Z</time>
      </trkpt>
      <trkpt lat="42.776465" lon="-7.426743">
        <ele>495.044</ele>
        <time>2015-08-16T09:01:10Z</time>
      </trkpt>
      <trkpt lat="42.776430" lon="-7.426621">
        <ele>489.048</ele>
        <time>2015-08-16T09:01:18Z</time>
      </trkpt>
      <trkpt lat="42.776347" lon="-7.426560">
        <ele>488.023</ele>
        <time>2015-08-16T09:01:26Z</time>
      </trkpt>
      <trkpt lat="42.776256" lon="-7.426620">
        <ele>489.061</ele>
        <time>2015-08-16T09:01:34Z</time>
      </trkpt>
      <trkpt lat="42.776183" lon="-7.426713">
        <ele>488.018</ele>
        <time>2015-08-16T09:01:42Z</time>
      </trkpt>
      <trkpt lat="42.776116" lon="-7.426800">
        <ele>489.036</ele>
        <time>2015-08-16T09:01:49Z</time>
      </trkpt>
      <trkpt lat="42.776042" lon="-7.426881">
        <ele>489.030</ele>
        <time>2015-08-16T09:01:56Z</time>
      </trkpt>
      <trkpt lat="42.775969" lon="-7.426956">
        <ele>487.055</ele>
        <time>2015-08-16T09:02:03Z</time>
      </trkpt>
      <trkpt lat="42.775888" lon="-7.427021">
        <ele>488.007</ele>
        <time>2015-08-16T09:02:10Z</time>
      </trkpt>
      <trkpt lat="42.775809" lon="-7.427086">
        <ele>488.017</ele>
        <time>2015-08-16T09:02:17Z</time>
      </trkpt>
      <trkpt lat="42.775723" lon="-7.427129">
        <ele>487.008</ele>
        <time>2015-08-16T09:02:25Z</time>
      </trkpt>
      <trkpt lat="42.775648" lon="-7.427198">
        <ele>487.096</ele>
        <time>2015-08-16T09:02:33Z</time>
      </trkpt>
      <trkpt lat="42.775567" lon="-7.427281">
        <ele>487.085</ele>
        <time>2015-08-16T09:02:41Z</time>
      </trkpt>
      <trkpt lat="42.775464" lon="-7.427422">
        <ele>486.019</ele>
        <time>2015-08-16T09:02:53Z</time>
      </trkpt>
      <trkpt lat="42.775398" lon="-7.427519">
        <ele>486.034</ele>
        <time>2015-08-16T09:03:00Z</time>
      </trkpt>
      <trkpt lat="42.775331" lon="-7.427619">
        <ele>486.092</ele>
        <time>2015-08-16T09:03:08Z</time>
      </trkpt>
      <trkpt lat="42.775270" lon="-7.427725">
        <ele>486.049</ele>
        <time>2015-08-16T09:03:17Z</time>
      </trkpt>
      <trkpt lat="42.775270" lon="-7.427725">
        <ele>486.017</ele>
        <time>2015-08-16T09:03:17Z</time>
      </trkpt>
      <trkpt lat="42.775204" lon="-7.427834">
        <ele>485.041</ele>
        <time>2015-08-16T09:03:25Z</time>
      </trkpt>
      <trkpt lat="42.775140" lon="-7.427937">
        <ele>484.031</ele>
        <time>2015-08-16T09:03:34Z</time>
      </trkpt>
      <trkpt lat="42.775070" lon="-7.428034">
        <ele>485.061</ele>
        <time>2015-08-16T09:03:44Z</time>
      </trkpt>
      <trkpt lat="42.774999" lon="-7.428130">
        <ele>486.007</ele>
        <time>2015-08-16T09:03:53Z</time>
      </trkpt>
      <trkpt lat="42.774923" lon="-7.428202">
        <ele>487.008</ele>
        <time>2015-08-16T09:03:59Z</time>
      </trkpt>
      <trkpt lat="42.774836" lon="-7.428262">
        <ele>487.014</ele>
        <time>2015-08-16T09:04:06Z</time>
      </trkpt>
      <trkpt lat="42.774748" lon="-7.428309">
        <ele>487.053</ele>
        <time>2015-08-16T09:04:23Z</time>
      </trkpt>
      <trkpt lat="42.774702" lon="-7.428426">
        <ele>487.097</ele>
        <time>2015-08-16T09:04:52Z</time>
      </trkpt>
      <trkpt lat="42.774642" lon="-7.428540">
        <ele>490.082</ele>
        <time>2015-08-16T09:05:02Z</time>
      </trkpt>
      <trkpt lat="42.774576" lon="-7.428629">
        <ele>493.080</ele>
        <time>2015-08-16T09:05:09Z</time>
      </trkpt>
      <trkpt lat="42.774530" lon="-7.428746">
        <ele>492.027</ele>
        <time>2015-08-16T09:05:18Z</time>
      </trkpt>
      <trkpt lat="42.774495" lon="-7.428875">
        <ele>491.085</ele>
        <time>2015-08-16T09:05:27Z</time>
      </trkpt>
      <trkpt lat="42.774467" lon="-7.428997">
        <ele>492.029</ele>
        <time>2015-08-16T09:05:34Z</time>
      </trkpt>
      <trkpt lat="42.774438" lon="-7.429116">
        <ele>491.039</ele>
        <time>2015-08-16T09:05:42Z</time>
      </trkpt>
      <trkpt lat="42.774416" lon="-7.429235">
        <ele>491.001</ele>
        <time>2015-08-16T09:05:49Z</time>
      </trkpt>
      <trkpt lat="42.774386" lon="-7.429362">
        <ele>491.021</ele>
        <time>2015-08-16T09:05:57Z</time>
      </trkpt>
      <trkpt lat="42.774343" lon="-7.429480">
        <ele>489.008</ele>
        <time>2015-08-16T09:06:05Z</time>
      </trkpt>
      <trkpt lat="42.774323" lon="-7.429608">
        <ele>490.054</ele>
        <time>2015-08-16T09:06:09Z</time>
      </trkpt>
      <trkpt lat="42.774297" lon="-7.429751">
        <ele>491.063</ele>
        <time>2015-08-16T09:06:13Z</time>
      </trkpt>
      <trkpt lat="42.774259" lon="-7.429877">
        <ele>492.037</ele>
        <time>2015-08-16T09:06:17Z</time>
      </trkpt>
      <trkpt lat="42.774233" lon="-7.429996">
        <ele>494.062</ele>
        <time>2015-08-16T09:06:22Z</time>
      </trkpt>
      <trkpt lat="42.774205" lon="-7.430129">
        <ele>496.020</ele>
        <time>2015-08-16T09:06:33Z</time>
      </trkpt>
      <trkpt lat="42.774161" lon="-7.430236">
        <ele>497.017</ele>
        <time>2015-08-16T09:06:39Z</time>
      </trkpt>
      <trkpt lat="42.774194" lon="-7.430358">
        <ele>495.045</ele>
        <time>2015-08-16T09:07:05Z</time>
      </trkpt>
      <trkpt lat="42.774097" lon="-7.430322">
        <ele>493.079</ele>
        <time>2015-08-16T09:07:58Z</time>
      </trkpt>
      <trkpt lat="42.774018" lon="-7.430392">
        <ele>492.065</ele>
        <time>2015-08-16T09:08:04Z</time>
      </trkpt>
      <trkpt lat="42.773933" lon="-7.430456">
        <ele>492.068</ele>
        <time>2015-08-16T09:08:11Z</time>
      </trkpt>
      <trkpt lat="42.773848" lon="-7.430500">
        <ele>493.014</ele>
        <time>2015-08-16T09:08:17Z</time>
      </trkpt>
      <trkpt lat="42.773751" lon="-7.430539">
        <ele>493.008</ele>
        <time>2015-08-16T09:08:24Z</time>
      </trkpt>
      <trkpt lat="42.773652" lon="-7.430564">
        <ele>491.067</ele>
        <time>2015-08-16T09:08:31Z</time>
      </trkpt>
      <trkpt lat="42.773561" lon="-7.430570">
        <ele>491.026</ele>
        <time>2015-08-16T09:08:37Z</time>
      </trkpt>
      <trkpt lat="42.773472" lon="-7.430601">
        <ele>491.060</ele>
        <time>2015-08-16T09:08:44Z</time>
      </trkpt>
      <trkpt lat="42.773388" lon="-7.430649">
        <ele>492.065</ele>
        <time>2015-08-16T09:08:51Z</time>
      </trkpt>
      <trkpt lat="42.773301" lon="-7.430717">
        <ele>491.093</ele>
        <time>2015-08-16T09:08:57Z</time>
      </trkpt>
      <trkpt lat="42.773218" lon="-7.430785">
        <ele>492.070</ele>
        <time>2015-08-16T09:09:03Z</time>
      </trkpt>
      <trkpt lat="42.773130" lon="-7.430836">
        <ele>492.098</ele>
        <time>2015-08-16T09:09:10Z</time>
      </trkpt>
      <trkpt lat="42.773037" lon="-7.430884">
        <ele>489.042</ele>
        <time>2015-08-16T09:09:17Z</time>
      </trkpt>
      <trkpt lat="42.772945" lon="-7.430941">
        <ele>492.066</ele>
        <time>2015-08-16T09:09:23Z</time>
      </trkpt>
      <trkpt lat="42.772846" lon="-7.430978">
        <ele>492.029</ele>
        <time>2015-08-16T09:09:32Z</time>
      </trkpt>
      <trkpt lat="42.772786" lon="-7.431070">
        <ele>493.021</ele>
        <time>2015-08-16T09:09:39Z</time>
      </trkpt>
      <trkpt lat="42.772730" lon="-7.431174">
        <ele>493.008</ele>
        <time>2015-08-16T09:09:51Z</time>
      </trkpt>
      <trkpt lat="42.772736" lon="-7.431301">
        <ele>491.027</ele>
        <time>2015-08-16T09:09:59Z</time>
      </trkpt>
      <trkpt lat="42.772732" lon="-7.431426">
        <ele>492.076</ele>
        <time>2015-08-16T09:10:08Z</time>
      </trkpt>
      <trkpt lat="42.772752" lon="-7.431554">
        <ele>494.080</ele>
        <time>2015-08-16T09:10:16Z</time>
      </trkpt>
      <trkpt lat="42.772748" lon="-7.431693">
        <ele>496.065</ele>
        <time>2015-08-16T09:10:22Z</time>
      </trkpt>
      <trkpt lat="42.772757" lon="-7.431823">
        <ele>499.073</ele>
        <time>2015-08-16T09:10:28Z</time>
      </trkpt>
      <trkpt lat="42.772733" lon="-7.431950">
        <ele>496.010</ele>
        <time>2015-08-16T09:10:35Z</time>
      </trkpt>
      <trkpt lat="42.772704" lon="-7.432084">
        <ele>497.068</ele>
        <time>2015-08-16T09:10:43Z</time>
      </trkpt>
      <trkpt lat="42.772711" lon="-7.432223">
        <ele>504.092</ele>
        <time>2015-08-16T09:10:50Z</time>
      </trkpt>
      <trkpt lat="42.772718" lon="-7.432355">
        <ele>507.068</ele>
        <time>2015-08-16T09:10:57Z</time>
      </trkpt>
      <trkpt lat="42.772710" lon="-7.432482">
        <ele>508.042</ele>
        <time>2015-08-16T09:11:06Z</time>
      </trkpt>
      <trkpt lat="42.772690" lon="-7.432606">
        <ele>504.026</ele>
        <time>2015-08-16T09:11:48Z</time>
      </trkpt>
      <trkpt lat="42.772657" lon="-7.432720">
        <ele>506.008</ele>
        <time>2015-08-16T09:13:13Z</time>
      </trkpt>
      <trkpt lat="42.772621" lon="-7.432841">
        <ele>507.017</ele>
        <time>2015-08-16T09:13:22Z</time>
      </trkpt>
      <trkpt lat="42.772624" lon="-7.432964">
        <ele>514.096</ele>
        <time>2015-08-16T09:13:35Z</time>
      </trkpt>
      <trkpt lat="42.772546" lon="-7.433047">
        <ele>512.030</ele>
        <time>2015-08-16T09:13:50Z</time>
      </trkpt>
      <trkpt lat="42.772468" lon="-7.433119">
        <ele>508.035</ele>
        <time>2015-08-16T09:13:58Z</time>
      </trkpt>
      <trkpt lat="42.772418" lon="-7.433226">
        <ele>510.033</ele>
        <time>2015-08-16T09:14:07Z</time>
      </trkpt>
      <trkpt lat="42.772388" lon="-7.433342">
        <ele>516.020</ele>
        <time>2015-08-16T09:14:17Z</time>
      </trkpt>
      <trkpt lat="42.772427" lon="-7.433462">
        <ele>519.088</ele>
        <time>2015-08-16T09:14:26Z</time>
      </trkpt>
      <trkpt lat="42.772417" lon="-7.433593">
        <ele>522.052</ele>
        <time>2015-08-16T09:14:44Z</time>
      </trkpt>
      <trkpt lat="42.772415" lon="-7.433722">
        <ele>524.037</ele>
        <time>2015-08-16T09:14:52Z</time>
      </trkpt>
      <trkpt lat="42.772424" lon="-7.433852">
        <ele>526.049</ele>
        <time>2015-08-16T09:15:01Z</time>
      </trkpt>
      <trkpt lat="42.772394" lon="-7.433969">
        <ele>525.013</ele>
        <time>2015-08-16T09:15:09Z</time>
      </trkpt>
      <trkpt lat="42.772376" lon="-7.434094">
        <ele>525.008</ele>
        <time>2015-08-16T09:15:18Z</time>
      </trkpt>
      <trkpt lat="42.772368" lon="-7.434221">
        <ele>521.054</ele>
        <time>2015-08-16T09:15:30Z</time>
      </trkpt>
      <trkpt lat="42.772328" lon="-7.434336">
        <ele>525.023</ele>
        <time>2015-08-16T09:15:38Z</time>
      </trkpt>
      <trkpt lat="42.772344" lon="-7.434459">
        <ele>528.087</ele>
        <time>2015-08-16T09:15:52Z</time>
      </trkpt>
      <trkpt lat="42.772332" lon="-7.434587">
        <ele>521.052</ele>
        <time>2015-08-16T09:16:00Z</time>
      </trkpt>
      <trkpt lat="42.772355" lon="-7.434712">
        <ele>519.020</ele>
        <time>2015-08-16T09:16:10Z</time>
      </trkpt>
      <trkpt lat="42.772347" lon="-7.434835">
        <ele>518.047</ele>
        <time>2015-08-16T09:16:17Z</time>
      </trkpt>
      <trkpt lat="42.772361" lon="-7.434967">
        <ele>520.085</ele>
        <time>2015-08-16T09:16:25Z</time>
      </trkpt>
      <trkpt lat="42.772375" lon="-7.435104">
        <ele>527.079</ele>
        <time>2015-08-16T09:16:34Z</time>
      </trkpt>
      <trkpt lat="42.772364" lon="-7.435228">
        <ele>530.041</ele>
        <time>2015-08-16T09:16:43Z</time>
      </trkpt>
      <trkpt lat="42.772384" lon="-7.435350">
        <ele>533.081</ele>
        <time>2015-08-16T09:16:54Z</time>
      </trkpt>
      <trkpt lat="42.772384" lon="-7.435483">
        <ele>533.009</ele>
        <time>2015-08-16T09:17:02Z</time>
      </trkpt>
      <trkpt lat="42.772381" lon="-7.435611">
        <ele>538.008</ele>
        <time>2015-08-16T09:17:13Z</time>
      </trkpt>
      <trkpt lat="42.772389" lon="-7.435753">
        <ele>539.095</ele>
        <time>2015-08-16T09:17:24Z</time>
      </trkpt>
      <trkpt lat="42.772406" lon="-7.435905">
        <ele>537.024</ele>
        <time>2015-08-16T09:17:31Z</time>
      </trkpt>
      <trkpt lat="42.772430" lon="-7.436032">
        <ele>538.038</ele>
        <time>2015-08-16T09:17:39Z</time>
      </trkpt>
      <trkpt lat="42.772428" lon="-7.436240">
        <ele>538.053</ele>
        <time>2015-08-16T09:17:52Z</time>
      </trkpt>
      <trkpt lat="42.772334" lon="-7.436210">
        <ele>539.011</ele>
        <time>2015-08-16T09:18:11Z</time>
      </trkpt>
      <trkpt lat="42.772334" lon="-7.436210">
        <ele>539.048</ele>
        <time>2015-08-16T09:18:11Z</time>
      </trkpt>
      <trkpt lat="42.772308" lon="-7.436091">
        <ele>534.036</ele>
        <time>2015-08-16T09:18:20Z</time>
      </trkpt>
      <trkpt lat="42.772268" lon="-7.435981">
        <ele>537.080</ele>
        <time>2015-08-16T09:18:29Z</time>
      </trkpt>
      <trkpt lat="42.772207" lon="-7.435890">
        <ele>541.024</ele>
        <time>2015-08-16T09:18:52Z</time>
      </trkpt>
      <trkpt lat="42.772122" lon="-7.435823">
        <ele>543.004</ele>
        <time>2015-08-16T09:19:01Z</time>
      </trkpt>
      <trkpt lat="42.772032" lon="-7.435781">
        <ele>546.014</ele>
        <time>2015-08-16T09:19:11Z</time>
      </trkpt>
      <trkpt lat="42.771939" lon="-7.435780">
        <ele>547.008</ele>
        <time>2015-08-16T09:19:18Z</time>
      </trkpt>
      <trkpt lat="42.771840" lon="-7.435788">
        <ele>545.063</ele>
        <time>2015-08-16T09:19:31Z</time>
      </trkpt>
      <trkpt lat="42.771742" lon="-7.435810">
        <ele>544.042</ele>
        <time>2015-08-16T09:19:39Z</time>
      </trkpt>
      <trkpt lat="42.771652" lon="-7.435854">
        <ele>545.076</ele>
        <time>2015-08-16T09:19:54Z</time>
      </trkpt>
      <trkpt lat="42.771554" lon="-7.435861">
        <ele>546.031</ele>
        <time>2015-08-16T09:20:02Z</time>
      </trkpt>
      <trkpt lat="42.771467" lon="-7.435913">
        <ele>547.029</ele>
        <time>2015-08-16T09:20:09Z</time>
      </trkpt>
      <trkpt lat="42.771401" lon="-7.435998">
        <ele>548.096</ele>
        <time>2015-08-16T09:20:30Z</time>
      </trkpt>
      <trkpt lat="42.771341" lon="-7.436095">
        <ele>549.034</ele>
        <time>2015-08-16T09:20:38Z</time>
      </trkpt>
      <trkpt lat="42.771288" lon="-7.436209">
        <ele>550.018</ele>
        <time>2015-08-16T09:20:47Z</time>
      </trkpt>
      <trkpt lat="42.771251" lon="-7.436331">
        <ele>552.048</ele>
        <time>2015-08-16T09:20:56Z</time>
      </trkpt>
      <trkpt lat="42.771212" lon="-7.436454">
        <ele>551.061</ele>
        <time>2015-08-16T09:21:05Z</time>
      </trkpt>
      <trkpt lat="42.771170" lon="-7.436568">
        <ele>553.017</ele>
        <time>2015-08-16T09:21:15Z</time>
      </trkpt>
      <trkpt lat="42.771128" lon="-7.436678">
        <ele>553.008</ele>
        <time>2015-08-16T09:21:23Z</time>
      </trkpt>
      <trkpt lat="42.771083" lon="-7.436800">
        <ele>554.035</ele>
        <time>2015-08-16T09:21:30Z</time>
      </trkpt>
      <trkpt lat="42.771043" lon="-7.436923">
        <ele>555.074</ele>
        <time>2015-08-16T09:21:38Z</time>
      </trkpt>
      <trkpt lat="42.771001" lon="-7.437043">
        <ele>555.048</ele>
        <time>2015-08-16T09:21:46Z</time>
      </trkpt>
      <trkpt lat="42.770951" lon="-7.437155">
        <ele>555.083</ele>
        <time>2015-08-16T09:21:54Z</time>
      </trkpt>
      <trkpt lat="42.770926" lon="-7.437283">
        <ele>555.061</ele>
        <time>2015-08-16T09:22:02Z</time>
      </trkpt>
      <trkpt lat="42.770890" lon="-7.437401">
        <ele>555.068</ele>
        <time>2015-08-16T09:22:09Z</time>
      </trkpt>
      <trkpt lat="42.770851" lon="-7.437517">
        <ele>556.096</ele>
        <time>2015-08-16T09:22:16Z</time>
      </trkpt>
      <trkpt lat="42.770809" lon="-7.437634">
        <ele>557.050</ele>
        <time>2015-08-16T09:22:23Z</time>
      </trkpt>
      <trkpt lat="42.770763" lon="-7.437743">
        <ele>558.084</ele>
        <time>2015-08-16T09:22:31Z</time>
      </trkpt>
      <trkpt lat="42.770695" lon="-7.437831">
        <ele>558.007</ele>
        <time>2015-08-16T09:22:39Z</time>
      </trkpt>
      <trkpt lat="42.770625" lon="-7.437926">
        <ele>558.017</ele>
        <time>2015-08-16T09:22:47Z</time>
      </trkpt>
      <trkpt lat="42.770564" lon="-7.438025">
        <ele>559.008</ele>
        <time>2015-08-16T09:22:55Z</time>
      </trkpt>
      <trkpt lat="42.770500" lon="-7.438129">
        <ele>559.079</ele>
        <time>2015-08-16T09:23:03Z</time>
      </trkpt>
      <trkpt lat="42.770443" lon="-7.438236">
        <ele>560.018</ele>
        <time>2015-08-16T09:23:11Z</time>
      </trkpt>
      <trkpt lat="42.770383" lon="-7.438345">
        <ele>561.012</ele>
        <time>2015-08-16T09:23:19Z</time>
      </trkpt>
      <trkpt lat="42.770331" lon="-7.438449">
        <ele>561.067</ele>
        <time>2015-08-16T09:23:26Z</time>
      </trkpt>
      <trkpt lat="42.770265" lon="-7.438568">
        <ele>560.025</ele>
        <time>2015-08-16T09:23:32Z</time>
      </trkpt>
      <trkpt lat="42.770212" lon="-7.438679">
        <ele>558.052</ele>
        <time>2015-08-16T09:23:50Z</time>
      </trkpt>
      <trkpt lat="42.770164" lon="-7.438787">
        <ele>557.040</ele>
        <time>2015-08-16T09:23:59Z</time>
      </trkpt>
      <trkpt lat="42.770120" lon="-7.438907">
        <ele>556.014</ele>
        <time>2015-08-16T09:24:06Z</time>
      </trkpt>
      <trkpt lat="42.770075" lon="-7.439026">
        <ele>557.046</ele>
        <time>2015-08-16T09:24:13Z</time>
      </trkpt>
      <trkpt lat="42.770018" lon="-7.439146">
        <ele>557.088</ele>
        <time>2015-08-16T09:24:20Z</time>
      </trkpt>
      <trkpt lat="42.769968" lon="-7.439264">
        <ele>557.016</ele>
        <time>2015-08-16T09:24:27Z</time>
      </trkpt>
      <trkpt lat="42.769922" lon="-7.439370">
        <ele>558.008</ele>
        <time>2015-08-16T09:24:34Z</time>
      </trkpt>
      <trkpt lat="42.769864" lon="-7.439482">
        <ele>559.055</ele>
        <time>2015-08-16T09:24:43Z</time>
      </trkpt>
      <trkpt lat="42.769834" lon="-7.439600">
        <ele>557.034</ele>
        <time>2015-08-16T09:24:50Z</time>
      </trkpt>
      <trkpt lat="42.769896" lon="-7.439714">
        <ele>558.068</ele>
        <time>2015-08-16T09:25:06Z</time>
      </trkpt>
      <trkpt lat="42.769982" lon="-7.439792">
        <ele>559.083</ele>
        <time>2015-08-16T09:25:13Z</time>
      </trkpt>
      <trkpt lat="42.770059" lon="-7.439858">
        <ele>561.021</ele>
        <time>2015-08-16T09:25:20Z</time>
      </trkpt>
      <trkpt lat="42.770138" lon="-7.439925">
        <ele>561.078</ele>
        <time>2015-08-16T09:25:27Z</time>
      </trkpt>
      <trkpt lat="42.770224" lon="-7.440000">
        <ele>561.096</ele>
        <time>2015-08-16T09:25:35Z</time>
      </trkpt>
      <trkpt lat="42.770296" lon="-7.440077">
        <ele>561.070</ele>
        <time>2015-08-16T09:25:42Z</time>
      </trkpt>
      <trkpt lat="42.770363" lon="-7.440168">
        <ele>561.028</ele>
        <time>2015-08-16T09:25:51Z</time>
      </trkpt>
      <trkpt lat="42.770408" lon="-7.440286">
        <ele>560.089</ele>
        <time>2015-08-16T09:25:59Z</time>
      </trkpt>
      <trkpt lat="42.770433" lon="-7.440407">
        <ele>560.017</ele>
        <time>2015-08-16T09:26:06Z</time>
      </trkpt>
      <trkpt lat="42.770453" lon="-7.440526">
        <ele>560.008</ele>
        <time>2015-08-16T09:26:13Z</time>
      </trkpt>
      <trkpt lat="42.770477" lon="-7.440644">
        <ele>560.073</ele>
        <time>2015-08-16T09:26:20Z</time>
      </trkpt>
      <trkpt lat="42.770507" lon="-7.440761">
        <ele>560.012</ele>
        <time>2015-08-16T09:26:27Z</time>
      </trkpt>
      <trkpt lat="42.770526" lon="-7.440898">
        <ele>560.046</ele>
        <time>2015-08-16T09:26:35Z</time>
      </trkpt>
      <trkpt lat="42.770543" lon="-7.441032">
        <ele>561.071</ele>
        <time>2015-08-16T09:26:43Z</time>
      </trkpt>
      <trkpt lat="42.770568" lon="-7.441158">
        <ele>560.069</ele>
        <time>2015-08-16T09:26:51Z</time>
      </trkpt>
      <trkpt lat="42.770586" lon="-7.441278">
        <ele>560.086</ele>
        <time>2015-08-16T09:26:58Z</time>
      </trkpt>
      <trkpt lat="42.770602" lon="-7.441411">
        <ele>560.054</ele>
        <time>2015-08-16T09:27:06Z</time>
      </trkpt>
      <trkpt lat="42.770611" lon="-7.441545">
        <ele>560.088</ele>
        <time>2015-08-16T09:27:14Z</time>
      </trkpt>
      <trkpt lat="42.770619" lon="-7.441671">
        <ele>561.026</ele>
        <time>2015-08-16T09:27:21Z</time>
      </trkpt>
      <trkpt lat="42.770637" lon="-7.441797">
        <ele>560.047</ele>
        <time>2015-08-16T09:27:29Z</time>
      </trkpt>
      <trkpt lat="42.770659" lon="-7.441920">
        <ele>559.011</ele>
        <time>2015-08-16T09:27:36Z</time>
      </trkpt>
      <trkpt lat="42.770681" lon="-7.442058">
        <ele>558.008</ele>
        <time>2015-08-16T09:27:43Z</time>
      </trkpt>
      <trkpt lat="42.770716" lon="-7.442189">
        <ele>558.033</ele>
        <time>2015-08-16T09:27:50Z</time>
      </trkpt>
      <trkpt lat="42.770763" lon="-7.442305">
        <ele>558.062</ele>
        <time>2015-08-16T09:27:58Z</time>
      </trkpt>
      <trkpt lat="42.770805" lon="-7.442457">
        <ele>559.026</ele>
        <time>2015-08-16T09:28:05Z</time>
      </trkpt>
      <trkpt lat="42.770827" lon="-7.442580">
        <ele>559.021</ele>
        <time>2015-08-16T09:28:11Z</time>
      </trkpt>
      <trkpt lat="42.770845" lon="-7.442710">
        <ele>559.019</ele>
        <time>2015-08-16T09:28:21Z</time>
      </trkpt>
      <trkpt lat="42.770861" lon="-7.442846">
        <ele>558.016</ele>
        <time>2015-08-16T09:28:28Z</time>
      </trkpt>
      <trkpt lat="42.770890" lon="-7.442982">
        <ele>558.024</ele>
        <time>2015-08-16T09:28:35Z</time>
      </trkpt>
      <trkpt lat="42.770906" lon="-7.443108">
        <ele>558.058</ele>
        <time>2015-08-16T09:28:42Z</time>
      </trkpt>
      <trkpt lat="42.770903" lon="-7.443243">
        <ele>558.034</ele>
        <time>2015-08-16T09:28:49Z</time>
      </trkpt>
      <trkpt lat="42.770858" lon="-7.443351">
        <ele>558.055</ele>
        <time>2015-08-16T09:28:55Z</time>
      </trkpt>
      <trkpt lat="42.770771" lon="-7.443403">
        <ele>559.010</ele>
        <time>2015-08-16T09:29:01Z</time>
      </trkpt>
      <trkpt lat="42.770665" lon="-7.443441">
        <ele>560.008</ele>
        <time>2015-08-16T09:29:06Z</time>
      </trkpt>
      <trkpt lat="42.770567" lon="-7.443475">
        <ele>560.024</ele>
        <time>2015-08-16T09:29:09Z</time>
      </trkpt>
      <trkpt lat="42.770475" lon="-7.443522">
        <ele>560.033</ele>
        <time>2015-08-16T09:29:12Z</time>
      </trkpt>
      <trkpt lat="42.770380" lon="-7.443580">
        <ele>560.067</ele>
        <time>2015-08-16T09:29:16Z</time>
      </trkpt>
      <trkpt lat="42.770293" lon="-7.443615">
        <ele>562.072</ele>
        <time>2015-08-16T09:29:34Z</time>
      </trkpt>
      <trkpt lat="42.770208" lon="-7.443683">
        <ele>566.020</ele>
        <time>2015-08-16T09:29:42Z</time>
      </trkpt>
      <trkpt lat="42.770124" lon="-7.443750">
        <ele>563.027</ele>
        <time>2015-08-16T09:29:55Z</time>
      </trkpt>
      <trkpt lat="42.770044" lon="-7.443820">
        <ele>565.015</ele>
        <time>2015-08-16T09:30:04Z</time>
      </trkpt>
      <trkpt lat="42.769973" lon="-7.443895">
        <ele>566.099</ele>
        <time>2015-08-16T09:30:14Z</time>
      </trkpt>
      <trkpt lat="42.769914" lon="-7.443988">
        <ele>568.095</ele>
        <time>2015-08-16T09:30:22Z</time>
      </trkpt>
      <trkpt lat="42.769851" lon="-7.444097">
        <ele>567.049</ele>
        <time>2015-08-16T09:30:31Z</time>
      </trkpt>
      <trkpt lat="42.769786" lon="-7.444181">
        <ele>567.023</ele>
        <time>2015-08-16T09:30:38Z</time>
      </trkpt>
      <trkpt lat="42.769714" lon="-7.444264">
        <ele>566.008</ele>
        <time>2015-08-16T09:30:46Z</time>
      </trkpt>
      <trkpt lat="42.769637" lon="-7.444329">
        <ele>573.070</ele>
        <time>2015-08-16T09:30:53Z</time>
      </trkpt>
      <trkpt lat="42.769548" lon="-7.444383">
        <ele>574.059</ele>
        <time>2015-08-16T09:31:02Z</time>
      </trkpt>
      <trkpt lat="42.769452" lon="-7.444388">
        <ele>574.093</ele>
        <time>2015-08-16T09:31:13Z</time>
      </trkpt>
      <trkpt lat="42.769356" lon="-7.444385">
        <ele>574.048</ele>
        <time>2015-08-16T09:31:22Z</time>
      </trkpt>
      <trkpt lat="42.769356" lon="-7.444385">
        <ele>574.056</ele>
        <time>2015-08-16T09:31:22Z</time>
      </trkpt>
      <trkpt lat="42.769257" lon="-7.444375">
        <ele>575.033</ele>
        <time>2015-08-16T09:31:32Z</time>
      </trkpt>
      <trkpt lat="42.769158" lon="-7.444366">
        <ele>577.071</ele>
        <time>2015-08-16T09:31:41Z</time>
      </trkpt>
      <trkpt lat="42.769080" lon="-7.444294">
        <ele>579.055</ele>
        <time>2015-08-16T09:32:02Z</time>
      </trkpt>
      <trkpt lat="42.769001" lon="-7.444207">
        <ele>577.044</ele>
        <time>2015-08-16T09:32:10Z</time>
      </trkpt>
      <trkpt lat="42.768909" lon="-7.444155">
        <ele>577.005</ele>
        <time>2015-08-16T09:32:18Z</time>
      </trkpt>
      <trkpt lat="42.768814" lon="-7.444150">
        <ele>578.015</ele>
        <time>2015-08-16T09:32:26Z</time>
      </trkpt>
      <trkpt lat="42.768726" lon="-7.444187">
        <ele>579.008</ele>
        <time>2015-08-16T09:32:36Z</time>
      </trkpt>
      <trkpt lat="42.768677" lon="-7.444294">
        <ele>577.085</ele>
        <time>2015-08-16T09:33:32Z</time>
      </trkpt>
      <trkpt lat="42.768645" lon="-7.444422">
        <ele>575.094</ele>
        <time>2015-08-16T09:33:41Z</time>
      </trkpt>
      <trkpt lat="42.768595" lon="-7.444525">
        <ele>580.038</ele>
        <time>2015-08-16T09:33:49Z</time>
      </trkpt>
      <trkpt lat="42.768558" lon="-7.444648">
        <ele>579.033</ele>
        <time>2015-08-16T09:33:57Z</time>
      </trkpt>
      <trkpt lat="42.768562" lon="-7.444783">
        <ele>580.081</ele>
        <time>2015-08-16T09:34:06Z</time>
      </trkpt>
      <trkpt lat="42.768560" lon="-7.444911">
        <ele>584.078</ele>
        <time>2015-08-16T09:34:21Z</time>
      </trkpt>
      <trkpt lat="42.768574" lon="-7.445032">
        <ele>580.096</ele>
        <time>2015-08-16T09:34:35Z</time>
      </trkpt>
      <trkpt lat="42.768604" lon="-7.445150">
        <ele>576.050</ele>
        <time>2015-08-16T09:34:43Z</time>
      </trkpt>
      <trkpt lat="42.768592" lon="-7.445280">
        <ele>580.094</ele>
        <time>2015-08-16T09:34:51Z</time>
      </trkpt>
      <trkpt lat="42.768524" lon="-7.445382">
        <ele>578.057</ele>
        <time>2015-08-16T09:34:59Z</time>
      </trkpt>
      <trkpt lat="42.768443" lon="-7.445451">
        <ele>580.022</ele>
        <time>2015-08-16T09:35:08Z</time>
      </trkpt>
      <trkpt lat="42.768359" lon="-7.445526">
        <ele>583.008</ele>
        <time>2015-08-16T09:35:15Z</time>
      </trkpt>
      <trkpt lat="42.768290" lon="-7.445620">
        <ele>586.030</ele>
        <time>2015-08-16T09:35:26Z</time>
      </trkpt>
      <trkpt lat="42.768202" lon="-7.445677">
        <ele>584.069</ele>
        <time>2015-08-16T09:35:46Z</time>
      </trkpt>
      <trkpt lat="42.768124" lon="-7.445745">
        <ele>584.063</ele>
        <time>2015-08-16T09:35:54Z</time>
      </trkpt>
      <trkpt lat="42.768038" lon="-7.445811">
        <ele>586.048</ele>
        <time>2015-08-16T09:36:02Z</time>
      </trkpt>
      <trkpt lat="42.767961" lon="-7.445890">
        <ele>585.016</ele>
        <time>2015-08-16T09:36:10Z</time>
      </trkpt>
      <trkpt lat="42.767891" lon="-7.445981">
        <ele>585.043</ele>
        <time>2015-08-16T09:36:18Z</time>
      </trkpt>
      <trkpt lat="42.767819" lon="-7.446079">
        <ele>586.091</ele>
        <time>2015-08-16T09:36:26Z</time>
      </trkpt>
      <trkpt lat="42.767753" lon="-7.446163">
        <ele>587.065</ele>
        <time>2015-08-16T09:36:33Z</time>
      </trkpt>
      <trkpt lat="42.767683" lon="-7.446257">
        <ele>586.043</ele>
        <time>2015-08-16T09:36:42Z</time>
      </trkpt>
      <trkpt lat="42.767610" lon="-7.446329">
        <ele>587.064</ele>
        <time>2015-08-16T09:36:50Z</time>
      </trkpt>
      <trkpt lat="42.767532" lon="-7.446398">
        <ele>587.010</ele>
        <time>2015-08-16T09:36:58Z</time>
      </trkpt>
      <trkpt lat="42.767442" lon="-7.446462">
        <ele>588.008</ele>
        <time>2015-08-16T09:37:06Z</time>
      </trkpt>
      <trkpt lat="42.767367" lon="-7.446549">
        <ele>588.075</ele>
        <time>2015-08-16T09:37:13Z</time>
      </trkpt>
      <trkpt lat="42.767293" lon="-7.446636">
        <ele>589.074</ele>
        <time>2015-08-16T09:37:20Z</time>
      </trkpt>
      <trkpt lat="42.767223" lon="-7.446726">
        <ele>590.058</ele>
        <time>2015-08-16T09:37:27Z</time>
      </trkpt>
      <trkpt lat="42.767163" lon="-7.446820">
        <ele>591.013</ele>
        <time>2015-08-16T09:37:34Z</time>
      </trkpt>
      <trkpt lat="42.767089" lon="-7.446913">
        <ele>592.051</ele>
        <time>2015-08-16T09:37:42Z</time>
      </trkpt>
      <trkpt lat="42.767023" lon="-7.447006">
        <ele>591.038</ele>
        <time>2015-08-16T09:37:50Z</time>
      </trkpt>
      <trkpt lat="42.766961" lon="-7.447109">
        <ele>591.026</ele>
        <time>2015-08-16T09:37:58Z</time>
      </trkpt>
      <trkpt lat="42.766912" lon="-7.447221">
        <ele>591.060</ele>
        <time>2015-08-16T09:38:06Z</time>
      </trkpt>
      <trkpt lat="42.766876" lon="-7.447335">
        <ele>592.043</ele>
        <time>2015-08-16T09:38:14Z</time>
      </trkpt>
      <trkpt lat="42.766836" lon="-7.447451">
        <ele>593.064</ele>
        <time>2015-08-16T09:38:22Z</time>
      </trkpt>
      <trkpt lat="42.766786" lon="-7.447553">
        <ele>593.010</ele>
        <time>2015-08-16T09:38:31Z</time>
      </trkpt>
      <trkpt lat="42.766745" lon="-7.447675">
        <ele>597.008</ele>
        <time>2015-08-16T09:38:41Z</time>
      </trkpt>
      <trkpt lat="42.766696" lon="-7.447801">
        <ele>598.095</ele>
        <time>2015-08-16T09:38:49Z</time>
      </trkpt>
      <trkpt lat="42.766653" lon="-7.447913">
        <ele>599.034</ele>
        <time>2015-08-16T09:38:58Z</time>
      </trkpt>
      <trkpt lat="42.766627" lon="-7.448031">
        <ele>601.088</ele>
        <time>2015-08-16T09:39:06Z</time>
      </trkpt>
      <trkpt lat="42.766599" lon="-7.448159">
        <ele>601.093</ele>
        <time>2015-08-16T09:39:15Z</time>
      </trkpt>
      <trkpt lat="42.766593" lon="-7.448294">
        <ele>599.041</ele>
        <time>2015-08-16T09:39:23Z</time>
      </trkpt>
      <trkpt lat="42.766577" lon="-7.448415">
        <ele>598.028</ele>
        <time>2015-08-16T09:39:30Z</time>
      </trkpt>
      <trkpt lat="42.766569" lon="-7.448550">
        <ele>599.096</ele>
        <time>2015-08-16T09:39:38Z</time>
      </trkpt>
      <trkpt lat="42.766573" lon="-7.448684">
        <ele>600.070</ele>
        <time>2015-08-16T09:39:46Z</time>
      </trkpt>
      <trkpt lat="42.766568" lon="-7.448807">
        <ele>596.067</ele>
        <time>2015-08-16T09:39:53Z</time>
      </trkpt>
      <trkpt lat="42.766547" lon="-7.448926">
        <ele>597.081</ele>
        <time>2015-08-16T09:40:00Z</time>
      </trkpt>
      <trkpt lat="42.766509" lon="-7.449051">
        <ele>601.019</ele>
        <time>2015-08-16T09:40:08Z</time>
      </trkpt>
      <trkpt lat="42.766489" lon="-7.449186">
        <ele>600.008</ele>
        <time>2015-08-16T09:40:15Z</time>
      </trkpt>
      <trkpt lat="42.766460" lon="-7.449309">
        <ele>600.047</ele>
        <time>2015-08-16T09:40:22Z</time>
      </trkpt>
      <trkpt lat="42.766414" lon="-7.449431">
        <ele>600.076</ele>
        <time>2015-08-16T09:40:30Z</time>
      </trkpt>
      <trkpt lat="42.766360" lon="-7.449565">
        <ele>599.020</ele>
        <time>2015-08-16T09:40:36Z</time>
      </trkpt>
      <trkpt lat="42.766307" lon="-7.449671">
        <ele>597.035</ele>
        <time>2015-08-16T09:40:43Z</time>
      </trkpt>
      <trkpt lat="42.766263" lon="-7.449784">
        <ele>595.013</ele>
        <time>2015-08-16T09:40:52Z</time>
      </trkpt>
      <trkpt lat="42.766213" lon="-7.449904">
        <ele>593.040</ele>
        <time>2015-08-16T09:40:59Z</time>
      </trkpt>
      <trkpt lat="42.766144" lon="-7.450004">
        <ele>597.068</ele>
        <time>2015-08-16T09:41:06Z</time>
      </trkpt>
      <trkpt lat="42.766074" lon="-7.450098">
        <ele>599.042</ele>
        <time>2015-08-16T09:41:13Z</time>
      </trkpt>
      <trkpt lat="42.765995" lon="-7.450179">
        <ele>600.095</ele>
        <time>2015-08-16T09:41:24Z</time>
      </trkpt>
      <trkpt lat="42.765907" lon="-7.450225">
        <ele>600.049</ele>
        <time>2015-08-16T09:41:31Z</time>
      </trkpt>
      <trkpt lat="42.765815" lon="-7.450246">
        <ele>600.023</ele>
        <time>2015-08-16T09:41:38Z</time>
      </trkpt>
      <trkpt lat="42.765725" lon="-7.450246">
        <ele>602.008</ele>
        <time>2015-08-16T09:41:45Z</time>
      </trkpt>
      <trkpt lat="42.765632" lon="-7.450230">
        <ele>603.080</ele>
        <time>2015-08-16T09:41:53Z</time>
      </trkpt>
      <trkpt lat="42.765541" lon="-7.450213">
        <ele>602.099</ele>
        <time>2015-08-16T09:42:01Z</time>
      </trkpt>
      <trkpt lat="42.765457" lon="-7.450259">
        <ele>603.093</ele>
        <time>2015-08-16T09:42:09Z</time>
      </trkpt>
      <trkpt lat="42.765457" lon="-7.450259">
        <ele>603.038</ele>
        <time>2015-08-16T09:42:09Z</time>
      </trkpt>
      <trkpt lat="42.765398" lon="-7.450357">
        <ele>604.076</ele>
        <time>2015-08-16T09:42:17Z</time>
      </trkpt>
      <trkpt lat="42.765329" lon="-7.450445">
        <ele>605.083</ele>
        <time>2015-08-16T09:42:29Z</time>
      </trkpt>
      <trkpt lat="42.765278" lon="-7.450565">
        <ele>605.021</ele>
        <time>2015-08-16T09:42:37Z</time>
      </trkpt>
      <trkpt lat="42.765205" lon="-7.450641">
        <ele>604.065</ele>
        <time>2015-08-16T09:43:01Z</time>
      </trkpt>
      <trkpt lat="42.765164" lon="-7.450529">
        <ele>604.017</ele>
        <time>2015-08-16T09:44:00Z</time>
      </trkpt>
      <trkpt lat="42.765245" lon="-7.450586">
        <ele>602.087</ele>
        <time>2015-08-16T09:47:41Z</time>
      </trkpt>
      <trkpt lat="42.765298" lon="-7.450480">
        <ele>606.015</ele>
        <time>2015-08-16T09:47:51Z</time>
      </trkpt>
      <trkpt lat="42.765361" lon="-7.450373">
        <ele>605.008</ele>
        <time>2015-08-16T09:48:01Z</time>
      </trkpt>
      <trkpt lat="42.765421" lon="-7.450265">
        <ele>605.062</ele>
        <time>2015-08-16T09:48:10Z</time>
      </trkpt>
      <trkpt lat="42.765510" lon="-7.450200">
        <ele>604.061</ele>
        <time>2015-08-16T09:48:19Z</time>
      </trkpt>
      <trkpt lat="42.765601" lon="-7.450195">
        <ele>605.015</ele>
        <time>2015-08-16T09:48:26Z</time>
      </trkpt>
      <trkpt lat="42.765696" lon="-7.450212">
        <ele>604.010</ele>
        <time>2015-08-16T09:48:33Z</time>
      </trkpt>
      <trkpt lat="42.765795" lon="-7.450230">
        <ele>605.018</ele>
        <time>2015-08-16T09:48:43Z</time>
      </trkpt>
      <trkpt lat="42.765873" lon="-7.450315">
        <ele>604.075</ele>
        <time>2015-08-16T09:49:07Z</time>
      </trkpt>
      <trkpt lat="42.765951" lon="-7.450397">
        <ele>604.053</ele>
        <time>2015-08-16T09:49:14Z</time>
      </trkpt>
      <trkpt lat="42.766015" lon="-7.450503">
        <ele>604.027</ele>
        <time>2015-08-16T09:49:22Z</time>
      </trkpt>
      <trkpt lat="42.766076" lon="-7.450599">
        <ele>603.086</ele>
        <time>2015-08-16T09:49:29Z</time>
      </trkpt>
      <trkpt lat="42.766141" lon="-7.450702">
        <ele>603.060</ele>
        <time>2015-08-16T09:49:37Z</time>
      </trkpt>
      <trkpt lat="42.766213" lon="-7.450786">
        <ele>603.026</ele>
        <time>2015-08-16T09:49:44Z</time>
      </trkpt>
      <trkpt lat="42.766284" lon="-7.450878">
        <ele>605.008</ele>
        <time>2015-08-16T09:49:51Z</time>
      </trkpt>
      <trkpt lat="42.766358" lon="-7.450961">
        <ele>607.089</ele>
        <time>2015-08-16T09:50:00Z</time>
      </trkpt>
      <trkpt lat="42.766432" lon="-7.451043">
        <ele>609.048</ele>
        <time>2015-08-16T09:50:09Z</time>
      </trkpt>
      <trkpt lat="42.766503" lon="-7.451127">
        <ele>611.072</ele>
        <time>2015-08-16T09:50:18Z</time>
      </trkpt>
      <trkpt lat="42.766580" lon="-7.451216">
        <ele>612.077</ele>
        <time>2015-08-16T09:50:26Z</time>
      </trkpt>
      <trkpt lat="42.766653" lon="-7.451290">
        <ele>614.085</ele>
        <time>2015-08-16T09:50:33Z</time>
      </trkpt>
      <trkpt lat="42.766730" lon="-7.451380">
        <ele>614.072</ele>
        <time>2015-08-16T09:50:42Z</time>
      </trkpt>
      <trkpt lat="42.766826" lon="-7.451460">
        <ele>614.040</ele>
        <time>2015-08-16T09:50:50Z</time>
      </trkpt>
      <trkpt lat="42.766902" lon="-7.451530">
        <ele>615.094</ele>
        <time>2015-08-16T09:50:57Z</time>
      </trkpt>
      <trkpt lat="42.766980" lon="-7.451618">
        <ele>616.098</ele>
        <time>2015-08-16T09:51:05Z</time>
      </trkpt>
      <trkpt lat="42.767053" lon="-7.451698">
        <ele>617.015</ele>
        <time>2015-08-16T09:51:13Z</time>
      </trkpt>
      <trkpt lat="42.767142" lon="-7.451766">
        <ele>617.026</ele>
        <time>2015-08-16T09:51:21Z</time>
      </trkpt>
      <trkpt lat="42.767221" lon="-7.451844">
        <ele>618.008</ele>
        <time>2015-08-16T09:51:29Z</time>
      </trkpt>
      <trkpt lat="42.767295" lon="-7.451919">
        <ele>618.020</ele>
        <time>2015-08-16T09:51:37Z</time>
      </trkpt>
      <trkpt lat="42.767374" lon="-7.451983">
        <ele>618.059</ele>
        <time>2015-08-16T09:51:44Z</time>
      </trkpt>
      <trkpt lat="42.767464" lon="-7.452044">
        <ele>619.033</ele>
        <time>2015-08-16T09:51:51Z</time>
      </trkpt>
      <trkpt lat="42.767537" lon="-7.452121">
        <ele>623.098</ele>
        <time>2015-08-16T09:51:59Z</time>
      </trkpt>
      <trkpt lat="42.767625" lon="-7.452155">
        <ele>624.076</ele>
        <time>2015-08-16T09:52:09Z</time>
      </trkpt>
      <trkpt lat="42.767716" lon="-7.452189">
        <ele>626.073</ele>
        <time>2015-08-16T09:52:17Z</time>
      </trkpt>
      <trkpt lat="42.767793" lon="-7.452267">
        <ele>622.091</ele>
        <time>2015-08-16T09:52:28Z</time>
      </trkpt>
      <trkpt lat="42.767863" lon="-7.452348">
        <ele>623.085</ele>
        <time>2015-08-16T09:52:35Z</time>
      </trkpt>
      <trkpt lat="42.767948" lon="-7.452402">
        <ele>621.015</ele>
        <time>2015-08-16T09:52:42Z</time>
      </trkpt>
      <trkpt lat="42.768040" lon="-7.452464">
        <ele>624.065</ele>
        <time>2015-08-16T09:52:49Z</time>
      </trkpt>
      <trkpt lat="42.768040" lon="-7.452464">
        <ele>624.011</ele>
        <time>2015-08-16T09:52:49Z</time>
      </trkpt>
      <trkpt lat="42.768130" lon="-7.452530">
        <ele>624.008</ele>
        <time>2015-08-16T09:52:56Z</time>
      </trkpt>
      <trkpt lat="42.768217" lon="-7.452593">
        <ele>625.022</ele>
        <time>2015-08-16T09:53:03Z</time>
      </trkpt>
      <trkpt lat="42.768306" lon="-7.452639">
        <ele>624.011</ele>
        <time>2015-08-16T09:53:09Z</time>
      </trkpt>
      <trkpt lat="42.768392" lon="-7.452691">
        <ele>625.085</ele>
        <time>2015-08-16T09:53:17Z</time>
      </trkpt>
      <trkpt lat="42.768475" lon="-7.452745">
        <ele>625.090</ele>
        <time>2015-08-16T09:53:25Z</time>
      </trkpt>
      <trkpt lat="42.768562" lon="-7.452798">
        <ele>625.028</ele>
        <time>2015-08-16T09:53:33Z</time>
      </trkpt>
      <trkpt lat="42.768644" lon="-7.452874">
        <ele>626.075</ele>
        <time>2015-08-16T09:53:41Z</time>
      </trkpt>
      <trkpt lat="42.768719" lon="-7.452961">
        <ele>626.033</ele>
        <time>2015-08-16T09:53:49Z</time>
      </trkpt>
      <trkpt lat="42.768775" lon="-7.453060">
        <ele>627.097</ele>
        <time>2015-08-16T09:53:56Z</time>
      </trkpt>
      <trkpt lat="42.768820" lon="-7.453181">
        <ele>627.059</ele>
        <time>2015-08-16T09:54:04Z</time>
      </trkpt>
      <trkpt lat="42.768871" lon="-7.453293">
        <ele>626.003</ele>
        <time>2015-08-16T09:54:11Z</time>
      </trkpt>
      <trkpt lat="42.768920" lon="-7.453408">
        <ele>624.023</ele>
        <time>2015-08-16T09:54:21Z</time>
      </trkpt>
      <trkpt lat="42.768992" lon="-7.453500">
        <ele>624.008</ele>
        <time>2015-08-16T09:54:28Z</time>
      </trkpt>
      <trkpt lat="42.769059" lon="-7.453593">
        <ele>625.016</ele>
        <time>2015-08-16T09:54:37Z</time>
      </trkpt>
      <trkpt lat="42.769118" lon="-7.453707">
        <ele>624.055</ele>
        <time>2015-08-16T09:54:45Z</time>
      </trkpt>
      <trkpt lat="42.769156" lon="-7.453822">
        <ele>628.089</ele>
        <time>2015-08-16T09:54:52Z</time>
      </trkpt>
      <trkpt lat="42.769211" lon="-7.453935">
        <ele>628.094</ele>
        <time>2015-08-16T09:54:59Z</time>
      </trkpt>
      <trkpt lat="42.769243" lon="-7.454064">
        <ele>626.032</ele>
        <time>2015-08-16T09:55:07Z</time>
      </trkpt>
      <trkpt lat="42.769256" lon="-7.454196">
        <ele>626.099</ele>
        <time>2015-08-16T09:55:17Z</time>
      </trkpt>
      <trkpt lat="42.769309" lon="-7.454303">
        <ele>631.027</ele>
        <time>2015-08-16T09:55:25Z</time>
      </trkpt>
      <trkpt lat="42.769348" lon="-7.454424">
        <ele>630.081</ele>
        <time>2015-08-16T09:55:35Z</time>
      </trkpt>
      <trkpt lat="42.769383" lon="-7.454537">
        <ele>630.023</ele>
        <time>2015-08-16T09:55:43Z</time>
      </trkpt>
      <trkpt lat="42.769409" lon="-7.454666">
        <ele>630.083</ele>
        <time>2015-08-16T09:55:50Z</time>
      </trkpt>
      <trkpt lat="42.769421" lon="-7.454804">
        <ele>629.011</ele>
        <time>2015-08-16T09:55:56Z</time>
      </trkpt>
      <trkpt lat="42.769441" lon="-7.454942">
        <ele>627.008</ele>
        <time>2015-08-16T09:56:01Z</time>
      </trkpt>
      <trkpt lat="42.769446" lon="-7.455084">
        <ele>628.023</ele>
        <time>2015-08-16T09:56:07Z</time>
      </trkpt>
      <trkpt lat="42.769441" lon="-7.455225">
        <ele>629.022</ele>
        <time>2015-08-16T09:56:14Z</time>
      </trkpt>
      <trkpt lat="42.769474" lon="-7.455339">
        <ele>630.026</ele>
        <time>2015-08-16T09:56:19Z</time>
      </trkpt>
      <trkpt lat="42.769494" lon="-7.455469">
        <ele>631.021</ele>
        <time>2015-08-16T09:56:25Z</time>
      </trkpt>
      <trkpt lat="42.769536" lon="-7.455594">
        <ele>633.089</ele>
        <time>2015-08-16T09:56:33Z</time>
      </trkpt>
      <trkpt lat="42.769538" lon="-7.455717">
        <ele>637.046</ele>
        <time>2015-08-16T09:56:53Z</time>
      </trkpt>
      <trkpt lat="42.769567" lon="-7.455842">
        <ele>640.084</ele>
        <time>2015-08-16T09:56:59Z</time>
      </trkpt>
      <trkpt lat="42.769582" lon="-7.455967">
        <ele>642.098</ele>
        <time>2015-08-16T09:57:05Z</time>
      </trkpt>
      <trkpt lat="42.769565" lon="-7.456103">
        <ele>645.082</ele>
        <time>2015-08-16T09:57:13Z</time>
      </trkpt>
      <trkpt lat="42.769526" lon="-7.456231">
        <ele>647.043</ele>
        <time>2015-08-16T09:57:22Z</time>
      </trkpt>
      <trkpt lat="42.769474" lon="-7.456335">
        <ele>647.017</ele>
        <time>2015-08-16T09:57:29Z</time>
      </trkpt>
      <trkpt lat="42.769419" lon="-7.456436">
        <ele>647.008</ele>
        <time>2015-08-16T09:57:37Z</time>
      </trkpt>
      <trkpt lat="42.769342" lon="-7.456526">
        <ele>647.019</ele>
        <time>2015-08-16T09:57:46Z</time>
      </trkpt>
      <trkpt lat="42.769264" lon="-7.456613">
        <ele>646.088</ele>
        <time>2015-08-16T09:58:01Z</time>
      </trkpt>
      <trkpt lat="42.769184" lon="-7.456689">
        <ele>648.052</ele>
        <time>2015-08-16T09:58:09Z</time>
      </trkpt>
      <trkpt lat="42.769107" lon="-7.456770">
        <ele>649.087</ele>
        <time>2015-08-16T09:58:17Z</time>
      </trkpt>
      <trkpt lat="42.769024" lon="-7.456826">
        <ele>649.085</ele>
        <time>2015-08-16T09:58:24Z</time>
      </trkpt>
      <trkpt lat="42.768945" lon="-7.456912">
        <ele>650.012</ele>
        <time>2015-08-16T09:58:31Z</time>
      </trkpt>
      <trkpt lat="42.768892" lon="-7.457011">
        <ele>651.080</ele>
        <time>2015-08-16T09:59:07Z</time>
      </trkpt>
      <trkpt lat="42.768846" lon="-7.457135">
        <ele>652.064</ele>
        <time>2015-08-16T09:59:14Z</time>
      </trkpt>
      <trkpt lat="42.768802" lon="-7.457263">
        <ele>653.069</ele>
        <time>2015-08-16T09:59:21Z</time>
      </trkpt>
      <trkpt lat="42.768781" lon="-7.457393">
        <ele>652.004</ele>
        <time>2015-08-16T09:59:28Z</time>
      </trkpt>
      <trkpt lat="42.768740" lon="-7.457522">
        <ele>652.024</ele>
        <time>2015-08-16T09:59:55Z</time>
      </trkpt>
      <trkpt lat="42.768677" lon="-7.457623">
        <ele>649.008</ele>
        <time>2015-08-16T10:00:02Z</time>
      </trkpt>
      <trkpt lat="42.768622" lon="-7.457739">
        <ele>651.037</ele>
        <time>2015-08-16T10:00:11Z</time>
      </trkpt>
      <trkpt lat="42.768590" lon="-7.457863">
        <ele>651.056</ele>
        <time>2015-08-16T10:00:18Z</time>
      </trkpt>
      <trkpt lat="42.768536" lon="-7.457979">
        <ele>653.010</ele>
        <time>2015-08-16T10:00:24Z</time>
      </trkpt>
      <trkpt lat="42.768483" lon="-7.458101">
        <ele>660.055</ele>
        <time>2015-08-16T10:00:31Z</time>
      </trkpt>
      <trkpt lat="42.768421" lon="-7.458198">
        <ele>662.053</ele>
        <time>2015-08-16T10:00:37Z</time>
      </trkpt>
      <trkpt lat="42.768375" lon="-7.458320">
        <ele>656.090</ele>
        <time>2015-08-16T10:00:44Z</time>
      </trkpt>
      <trkpt lat="42.768343" lon="-7.458448">
        <ele>655.048</ele>
        <time>2015-08-16T10:00:52Z</time>
      </trkpt>
      <trkpt lat="42.768300" lon="-7.458562">
        <ele>654.022</ele>
        <time>2015-08-16T10:01:00Z</time>
      </trkpt>
      <trkpt lat="42.768255" lon="-7.458687">
        <ele>655.016</ele>
        <time>2015-08-16T10:01:07Z</time>
      </trkpt>
      <trkpt lat="42.768205" lon="-7.458791">
        <ele>654.076</ele>
        <time>2015-08-16T10:01:13Z</time>
      </trkpt>
      <trkpt lat="42.768132" lon="-7.458881">
        <ele>653.013</ele>
        <time>2015-08-16T10:01:20Z</time>
      </trkpt>
      <trkpt lat="42.768075" lon="-7.458994">
        <ele>651.008</ele>
        <time>2015-08-16T10:01:28Z</time>
      </trkpt>
      <trkpt lat="42.768113" lon="-7.459115">
        <ele>651.092</ele>
        <time>2015-08-16T10:01:38Z</time>
      </trkpt>
      <trkpt lat="42.768166" lon="-7.459233">
        <ele>649.091</ele>
        <time>2015-08-16T10:01:45Z</time>
      </trkpt>
      <trkpt lat="42.768222" lon="-7.459330">
        <ele>650.045</ele>
        <time>2015-08-16T10:01:52Z</time>
      </trkpt>
      <trkpt lat="42.768310" lon="-7.459398">
        <ele>652.060</ele>
        <time>2015-08-16T10:02:00Z</time>
      </trkpt>
      <trkpt lat="42.768388" lon="-7.459463">
        <ele>653.058</ele>
        <time>2015-08-16T10:02:07Z</time>
      </trkpt>
      <trkpt lat="42.768469" lon="-7.459520">
        <ele>655.045</ele>
        <time>2015-08-16T10:02:15Z</time>
      </trkpt>
      <trkpt lat="42.768555" lon="-7.459555">
        <ele>655.043</ele>
        <time>2015-08-16T10:02:22Z</time>
      </trkpt>
      <trkpt lat="42.768642" lon="-7.459626">
        <ele>655.057</ele>
        <time>2015-08-16T10:02:30Z</time>
      </trkpt>
      <trkpt lat="42.768710" lon="-7.459722">
        <ele>655.012</ele>
        <time>2015-08-16T10:02:37Z</time>
      </trkpt>
      <trkpt lat="42.768750" lon="-7.459840">
        <ele>654.032</ele>
        <time>2015-08-16T10:02:44Z</time>
      </trkpt>
      <trkpt lat="42.768797" lon="-7.459945">
        <ele>654.005</ele>
        <time>2015-08-16T10:02:52Z</time>
      </trkpt>
      <trkpt lat="42.768863" lon="-7.460047">
        <ele>652.008</ele>
        <time>2015-08-16T10:03:01Z</time>
      </trkpt>
      <trkpt lat="42.768924" lon="-7.460139">
        <ele>654.052</ele>
        <time>2015-08-16T10:03:08Z</time>
      </trkpt>
      <trkpt lat="42.768965" lon="-7.460248">
        <ele>655.021</ele>
        <time>2015-08-16T10:03:14Z</time>
      </trkpt>
      <trkpt lat="42.768986" lon="-7.460367">
        <ele>654.065</ele>
        <time>2015-08-16T10:03:21Z</time>
      </trkpt>
      <trkpt lat="42.769019" lon="-7.460496">
        <ele>652.060</ele>
        <time>2015-08-16T10:03:29Z</time>
      </trkpt>
      <trkpt lat="42.769083" lon="-7.460596">
        <ele>652.078</ele>
        <time>2015-08-16T10:03:37Z</time>
      </trkpt>
      <trkpt lat="42.769132" lon="-7.460703">
        <ele>652.095</ele>
        <time>2015-08-16T10:03:44Z</time>
      </trkpt>
      <trkpt lat="42.769172" lon="-7.460819">
        <ele>651.093</ele>
        <time>2015-08-16T10:03:52Z</time>
      </trkpt>
      <trkpt lat="42.769228" lon="-7.460935">
        <ele>648.037</ele>
        <time>2015-08-16T10:04:00Z</time>
      </trkpt>
      <trkpt lat="42.769233" lon="-7.461060">
        <ele>650.098</ele>
        <time>2015-08-16T10:04:10Z</time>
      </trkpt>
      <trkpt lat="42.769217" lon="-7.461183">
        <ele>652.015</ele>
        <time>2015-08-16T10:04:17Z</time>
      </trkpt>
      <trkpt lat="42.769207" lon="-7.461310">
        <ele>654.026</ele>
        <time>2015-08-16T10:04:23Z</time>
      </trkpt>
      <trkpt lat="42.769197" lon="-7.461443">
        <ele>655.008</ele>
        <time>2015-08-16T10:04:29Z</time>
      </trkpt>
      <trkpt lat="42.769197" lon="-7.461570">
        <ele>656.080</ele>
        <time>2015-08-16T10:04:36Z</time>
      </trkpt>
      <trkpt lat="42.769205" lon="-7.461703">
        <ele>655.029</ele>
        <time>2015-08-16T10:04:44Z</time>
      </trkpt>
      <trkpt lat="42.769222" lon="-7.461836">
        <ele>657.063</ele>
        <time>2015-08-16T10:04:52Z</time>
      </trkpt>
      <trkpt lat="42.769247" lon="-7.461965">
        <ele>657.068</ele>
        <time>2015-08-16T10:05:00Z</time>
      </trkpt>
      <trkpt lat="42.769273" lon="-7.462093">
        <ele>658.056</ele>
        <time>2015-08-16T10:05:08Z</time>
      </trkpt>
      <trkpt lat="42.769291" lon="-7.462218">
        <ele>660.093</ele>
        <time>2015-08-16T10:05:17Z</time>
      </trkpt>
      <trkpt lat="42.769323" lon="-7.462343">
        <ele>660.091</ele>
        <time>2015-08-16T10:05:25Z</time>
      </trkpt>
      <trkpt lat="42.769359" lon="-7.462458">
        <ele>661.025</ele>
        <time>2015-08-16T10:05:33Z</time>
      </trkpt>
      <trkpt lat="42.769337" lon="-7.462579">
        <ele>658.035</ele>
        <time>2015-08-16T10:05:41Z</time>
      </trkpt>
      <trkpt lat="42.769321" lon="-7.462712">
        <ele>656.086</ele>
        <time>2015-08-16T10:05:52Z</time>
      </trkpt>
      <trkpt lat="42.769306" lon="-7.462837">
        <ele>658.014</ele>
        <time>2015-08-16T10:06:00Z</time>
      </trkpt>
      <trkpt lat="42.769287" lon="-7.462965">
        <ele>654.008</ele>
        <time>2015-08-16T10:06:09Z</time>
      </trkpt>
      <trkpt lat="42.769281" lon="-7.463095">
        <ele>656.084</ele>
        <time>2015-08-16T10:06:17Z</time>
      </trkpt>
      <trkpt lat="42.769312" lon="-7.463219">
        <ele>657.043</ele>
        <time>2015-08-16T10:06:24Z</time>
      </trkpt>
      <trkpt lat="42.769351" lon="-7.463345">
        <ele>661.077</ele>
        <time>2015-08-16T10:06:32Z</time>
      </trkpt>
      <trkpt lat="42.769399" lon="-7.463457">
        <ele>664.042</ele>
        <time>2015-08-16T10:06:39Z</time>
      </trkpt>
      <trkpt lat="42.769462" lon="-7.463563">
        <ele>669.080</ele>
        <time>2015-08-16T10:06:46Z</time>
      </trkpt>
      <trkpt lat="42.769539" lon="-7.463657">
        <ele>674.047</ele>
        <time>2015-08-16T10:06:53Z</time>
      </trkpt>
      <trkpt lat="42.769601" lon="-7.463754">
        <ele>673.065</ele>
        <time>2015-08-16T10:07:01Z</time>
      </trkpt>
      <trkpt lat="42.769653" lon="-7.463863">
        <ele>673.059</ele>
        <time>2015-08-16T10:07:10Z</time>
      </trkpt>
      <trkpt lat="42.769668" lon="-7.463987">
        <ele>674.041</ele>
        <time>2015-08-16T10:07:21Z</time>
      </trkpt>
      <trkpt lat="42.769699" lon="-7.464102">
        <ele>673.081</ele>
        <time>2015-08-16T10:07:29Z</time>
      </trkpt>
      <trkpt lat="42.769696" lon="-7.464245">
        <ele>672.009</ele>
        <time>2015-08-16T10:07:38Z</time>
      </trkpt>
      <trkpt lat="42.769703" lon="-7.464381">
        <ele>672.008</ele>
        <time>2015-08-16T10:07:45Z</time>
      </trkpt>
      <trkpt lat="42.769702" lon="-7.464511">
        <ele>673.045</ele>
        <time>2015-08-16T10:07:52Z</time>
      </trkpt>
      <trkpt lat="42.769694" lon="-7.464635">
        <ele>675.024</ele>
        <time>2015-08-16T10:07:59Z</time>
      </trkpt>
      <trkpt lat="42.769700" lon="-7.464769">
        <ele>676.068</ele>
        <time>2015-08-16T10:08:06Z</time>
      </trkpt>
      <trkpt lat="42.769714" lon="-7.464890">
        <ele>677.083</ele>
        <time>2015-08-16T10:08:13Z</time>
      </trkpt>
      <trkpt lat="42.769764" lon="-7.465013">
        <ele>680.041</ele>
        <time>2015-08-16T10:08:21Z</time>
      </trkpt>
      <trkpt lat="42.769831" lon="-7.465114">
        <ele>681.048</ele>
        <time>2015-08-16T10:08:29Z</time>
      </trkpt>
      <trkpt lat="42.769922" lon="-7.465183">
        <ele>682.036</ele>
        <time>2015-08-16T10:08:36Z</time>
      </trkpt>
      <trkpt lat="42.770000" lon="-7.465263">
        <ele>683.070</ele>
        <time>2015-08-16T10:08:43Z</time>
      </trkpt>
      <trkpt lat="42.770060" lon="-7.465374">
        <ele>684.033</ele>
        <time>2015-08-16T10:08:51Z</time>
      </trkpt>
      <trkpt lat="42.770093" lon="-7.465505">
        <ele>683.023</ele>
        <time>2015-08-16T10:08:59Z</time>
      </trkpt>
      <trkpt lat="42.770116" lon="-7.465630">
        <ele>686.015</ele>
        <time>2015-08-16T10:09:07Z</time>
      </trkpt>
      <trkpt lat="42.770134" lon="-7.465758">
        <ele>687.008</ele>
        <time>2015-08-16T10:09:15Z</time>
      </trkpt>
      <trkpt lat="42.770149" lon="-7.465891">
        <ele>687.054</ele>
        <time>2015-08-16T10:09:24Z</time>
      </trkpt>
      <trkpt lat="42.770157" lon="-7.466024">
        <ele>689.073</ele>
        <time>2015-08-16T10:09:39Z</time>
      </trkpt>
      <trkpt lat="42.770168" lon="-7.466148">
        <ele>688.027</ele>
        <time>2015-08-16T10:10:01Z</time>
      </trkpt>
      <trkpt lat="42.770184" lon="-7.466276">
        <ele>686.052</ele>
        <time>2015-08-16T10:10:09Z</time>
      </trkpt>
      <trkpt lat="42.770200" lon="-7.466397">
        <ele>686.090</ele>
        <time>2015-08-16T10:10:14Z</time>
      </trkpt>
      <trkpt lat="42.770249" lon="-7.466501">
        <ele>685.067</ele>
        <time>2015-08-16T10:10:21Z</time>
      </trkpt>
      <trkpt lat="42.770332" lon="-7.466553">
        <ele>687.065</ele>
        <time>2015-08-16T10:10:30Z</time>
      </trkpt>
      <trkpt lat="42.770422" lon="-7.466577">
        <ele>686.039</ele>
        <time>2015-08-16T10:10:36Z</time>
      </trkpt>
      <trkpt lat="42.770521" lon="-7.466595">
        <ele>687.088</ele>
        <time>2015-08-16T10:10:43Z</time>
      </trkpt>
      <trkpt lat="42.770616" lon="-7.466622">
        <ele>686.024</ele>
        <time>2015-08-16T10:10:50Z</time>
      </trkpt>
      <trkpt lat="42.770708" lon="-7.466649">
        <ele>687.026</ele>
        <time>2015-08-16T10:10:57Z</time>
      </trkpt>
      <trkpt lat="42.770797" lon="-7.466698">
        <ele>687.008</ele>
        <time>2015-08-16T10:11:05Z</time>
      </trkpt>
      <trkpt lat="42.770886" lon="-7.466736">
        <ele>688.029</ele>
        <time>2015-08-16T10:11:13Z</time>
      </trkpt>
      <trkpt lat="42.770987" lon="-7.466708">
        <ele>688.088</ele>
        <time>2015-08-16T10:11:21Z</time>
      </trkpt>
      <trkpt lat="42.771074" lon="-7.466663">
        <ele>688.032</ele>
        <time>2015-08-16T10:11:28Z</time>
      </trkpt>
      <trkpt lat="42.771167" lon="-7.466654">
        <ele>688.027</ele>
        <time>2015-08-16T10:11:37Z</time>
      </trkpt>
      <trkpt lat="42.771243" lon="-7.466585">
        <ele>694.015</ele>
        <time>2015-08-16T10:46:46Z</time>
      </trkpt>
      <trkpt lat="42.771147" lon="-7.466627">
        <ele>694.012</ele>
        <time>2015-08-16T10:46:57Z</time>
      </trkpt>
      <trkpt lat="42.771067" lon="-7.466710">
        <ele>693.040</ele>
        <time>2015-08-16T10:47:04Z</time>
      </trkpt>
      <trkpt lat="42.770970" lon="-7.466798">
        <ele>693.014</ele>
        <time>2015-08-16T10:47:12Z</time>
      </trkpt>
      <trkpt lat="42.770970" lon="-7.466798">
        <ele>693.086</ele>
        <time>2015-08-16T10:47:12Z</time>
      </trkpt>
      <trkpt lat="42.770904" lon="-7.466898">
        <ele>693.060</ele>
        <time>2015-08-16T10:47:19Z</time>
      </trkpt>
      <trkpt lat="42.770904" lon="-7.466898">
        <ele>693.026</ele>
        <time>2015-08-16T10:47:20Z</time>
      </trkpt>
      <trkpt lat="42.770945" lon="-7.467040">
        <ele>692.008</ele>
        <time>2015-08-16T10:47:28Z</time>
      </trkpt>
      <trkpt lat="42.771001" lon="-7.467136">
        <ele>690.089</ele>
        <time>2015-08-16T10:47:34Z</time>
      </trkpt>
      <trkpt lat="42.771036" lon="-7.467254">
        <ele>685.058</ele>
        <time>2015-08-16T10:47:42Z</time>
      </trkpt>
      <trkpt lat="42.771120" lon="-7.467311">
        <ele>687.042</ele>
        <time>2015-08-16T10:47:49Z</time>
      </trkpt>
      <trkpt lat="42.771212" lon="-7.467297">
        <ele>687.057</ele>
        <time>2015-08-16T10:47:54Z</time>
      </trkpt>
      <trkpt lat="42.771313" lon="-7.467267">
        <ele>687.055</ele>
        <time>2015-08-16T10:48:01Z</time>
      </trkpt>
      <trkpt lat="42.771407" lon="-7.467215">
        <ele>686.032</ele>
        <time>2015-08-16T10:48:09Z</time>
      </trkpt>
      <trkpt lat="42.771505" lon="-7.467194">
        <ele>689.080</ele>
        <time>2015-08-16T10:48:18Z</time>
      </trkpt>
      <trkpt lat="42.771600" lon="-7.467227">
        <ele>690.024</ele>
        <time>2015-08-16T10:48:25Z</time>
      </trkpt>
      <trkpt lat="42.771666" lon="-7.467315">
        <ele>688.038</ele>
        <time>2015-08-16T10:48:32Z</time>
      </trkpt>
      <trkpt lat="42.771735" lon="-7.467403">
        <ele>688.070</ele>
        <time>2015-08-16T10:48:39Z</time>
      </trkpt>
      <trkpt lat="42.771810" lon="-7.467474">
        <ele>688.017</ele>
        <time>2015-08-16T10:48:46Z</time>
      </trkpt>
      <trkpt lat="42.771882" lon="-7.467547">
        <ele>689.008</ele>
        <time>2015-08-16T10:48:53Z</time>
      </trkpt>
      <trkpt lat="42.771948" lon="-7.467633">
        <ele>687.044</ele>
        <time>2015-08-16T10:49:00Z</time>
      </trkpt>
      <trkpt lat="42.772021" lon="-7.467724">
        <ele>685.093</ele>
        <time>2015-08-16T10:49:07Z</time>
      </trkpt>
      <trkpt lat="42.772063" lon="-7.467836">
        <ele>680.027</ele>
        <time>2015-08-16T10:49:16Z</time>
      </trkpt>
      <trkpt lat="42.772123" lon="-7.467928">
        <ele>679.032</ele>
        <time>2015-08-16T10:49:24Z</time>
      </trkpt>
      <trkpt lat="42.772213" lon="-7.467978">
        <ele>680.060</ele>
        <time>2015-08-16T10:49:31Z</time>
      </trkpt>
      <trkpt lat="42.772294" lon="-7.468068">
        <ele>683.087</ele>
        <time>2015-08-16T10:49:38Z</time>
      </trkpt>
      <trkpt lat="42.772371" lon="-7.468160">
        <ele>683.055</ele>
        <time>2015-08-16T10:49:45Z</time>
      </trkpt>
      <trkpt lat="42.772453" lon="-7.468238">
        <ele>683.029</ele>
        <time>2015-08-16T10:49:52Z</time>
      </trkpt>
      <trkpt lat="42.772530" lon="-7.468326">
        <ele>682.022</ele>
        <time>2015-08-16T10:49:58Z</time>
      </trkpt>
      <trkpt lat="42.772610" lon="-7.468412">
        <ele>678.062</ele>
        <time>2015-08-16T10:50:05Z</time>
      </trkpt>
      <trkpt lat="42.772678" lon="-7.468500">
        <ele>678.008</ele>
        <time>2015-08-16T10:50:11Z</time>
      </trkpt>
      <trkpt lat="42.772750" lon="-7.468586">
        <ele>677.008</ele>
        <time>2015-08-16T10:50:17Z</time>
      </trkpt>
      <trkpt lat="42.772828" lon="-7.468667">
        <ele>675.013</ele>
        <time>2015-08-16T10:50:23Z</time>
      </trkpt>
      <trkpt lat="42.772905" lon="-7.468751">
        <ele>676.032</ele>
        <time>2015-08-16T10:50:29Z</time>
      </trkpt>
      <trkpt lat="42.772989" lon="-7.468828">
        <ele>674.096</ele>
        <time>2015-08-16T10:50:36Z</time>
      </trkpt>
      <trkpt lat="42.773058" lon="-7.468929">
        <ele>675.091</ele>
        <time>2015-08-16T10:50:44Z</time>
      </trkpt>
      <trkpt lat="42.773058" lon="-7.468929">
        <ele>675.049</ele>
        <time>2015-08-16T10:50:44Z</time>
      </trkpt>
      <trkpt lat="42.773126" lon="-7.469036">
        <ele>674.046</ele>
        <time>2015-08-16T10:50:51Z</time>
      </trkpt>
      <trkpt lat="42.773184" lon="-7.469135">
        <ele>673.054</ele>
        <time>2015-08-16T10:50:57Z</time>
      </trkpt>
      <trkpt lat="42.773245" lon="-7.469225">
        <ele>674.028</ele>
        <time>2015-08-16T10:51:03Z</time>
      </trkpt>
      <trkpt lat="42.773245" lon="-7.469225">
        <ele>674.082</ele>
        <time>2015-08-16T10:51:04Z</time>
      </trkpt>
      <trkpt lat="42.773322" lon="-7.469342">
        <ele>675.043</ele>
        <time>2015-08-16T10:51:12Z</time>
      </trkpt>
      <trkpt lat="42.773376" lon="-7.469442">
        <ele>674.017</ele>
        <time>2015-08-16T10:51:20Z</time>
      </trkpt>
      <trkpt lat="42.773441" lon="-7.469548">
        <ele>673.008</ele>
        <time>2015-08-16T10:51:27Z</time>
      </trkpt>
      <trkpt lat="42.773481" lon="-7.469662">
        <ele>673.079</ele>
        <time>2015-08-16T10:51:33Z</time>
      </trkpt>
      <trkpt lat="42.773510" lon="-7.469783">
        <ele>674.048</ele>
        <time>2015-08-16T10:51:39Z</time>
      </trkpt>
      <trkpt lat="42.773555" lon="-7.469901">
        <ele>671.032</ele>
        <time>2015-08-16T10:51:46Z</time>
      </trkpt>
      <trkpt lat="42.773632" lon="-7.469987">
        <ele>673.037</ele>
        <time>2015-08-16T10:51:53Z</time>
      </trkpt>
      <trkpt lat="42.773698" lon="-7.470073">
        <ele>671.015</ele>
        <time>2015-08-16T10:52:00Z</time>
      </trkpt>
      <trkpt lat="42.773762" lon="-7.470179">
        <ele>673.082</ele>
        <time>2015-08-16T10:52:07Z</time>
      </trkpt>
      <trkpt lat="42.773834" lon="-7.470260">
        <ele>670.020</ele>
        <time>2015-08-16T10:52:13Z</time>
      </trkpt>
      <trkpt lat="42.773894" lon="-7.470353">
        <ele>668.084</ele>
        <time>2015-08-16T10:52:20Z</time>
      </trkpt>
      <trkpt lat="42.773946" lon="-7.470461">
        <ele>671.047</ele>
        <time>2015-08-16T10:52:27Z</time>
      </trkpt>
      <trkpt lat="42.773998" lon="-7.470567">
        <ele>674.029</ele>
        <time>2015-08-16T10:52:35Z</time>
      </trkpt>
      <trkpt lat="42.774051" lon="-7.470682">
        <ele>675.021</ele>
        <time>2015-08-16T10:52:46Z</time>
      </trkpt>
      <trkpt lat="42.774101" lon="-7.470791">
        <ele>674.008</ele>
        <time>2015-08-16T10:52:52Z</time>
      </trkpt>
      <trkpt lat="42.774167" lon="-7.470881">
        <ele>673.035</ele>
        <time>2015-08-16T10:52:58Z</time>
      </trkpt>
      <trkpt lat="42.774230" lon="-7.470969">
        <ele>671.014</ele>
        <time>2015-08-16T10:53:04Z</time>
      </trkpt>
      <trkpt lat="42.774314" lon="-7.471042">
        <ele>671.038</ele>
        <time>2015-08-16T10:53:11Z</time>
      </trkpt>
      <trkpt lat="42.774399" lon="-7.471109">
        <ele>670.033</ele>
        <time>2015-08-16T10:53:18Z</time>
      </trkpt>
      <trkpt lat="42.774494" lon="-7.471160">
        <ele>672.081</ele>
        <time>2015-08-16T10:53:25Z</time>
      </trkpt>
      <trkpt lat="42.774588" lon="-7.471214">
        <ele>674.048</ele>
        <time>2015-08-16T10:53:32Z</time>
      </trkpt>
      <trkpt lat="42.774668" lon="-7.471295">
        <ele>673.066</ele>
        <time>2015-08-16T10:53:39Z</time>
      </trkpt>
      <trkpt lat="42.774732" lon="-7.471390">
        <ele>673.020</ele>
        <time>2015-08-16T10:53:46Z</time>
      </trkpt>
      <trkpt lat="42.774780" lon="-7.471512">
        <ele>672.089</ele>
        <time>2015-08-16T10:53:54Z</time>
      </trkpt>
      <trkpt lat="42.774832" lon="-7.471613">
        <ele>672.006</ele>
        <time>2015-08-16T10:54:01Z</time>
      </trkpt>
      <trkpt lat="42.774875" lon="-7.471733">
        <ele>672.026</ele>
        <time>2015-08-16T10:54:10Z</time>
      </trkpt>
      <trkpt lat="42.774942" lon="-7.471816">
        <ele>670.008</ele>
        <time>2015-08-16T10:54:17Z</time>
      </trkpt>
      <trkpt lat="42.775017" lon="-7.471894">
        <ele>674.079</ele>
        <time>2015-08-16T10:54:26Z</time>
      </trkpt>
      <trkpt lat="42.775106" lon="-7.471851">
        <ele>676.018</ele>
        <time>2015-08-16T10:54:44Z</time>
      </trkpt>
      <trkpt lat="42.775027" lon="-7.471920">
        <ele>674.012</ele>
        <time>2015-08-16T10:55:11Z</time>
      </trkpt>
      <trkpt lat="42.775000" lon="-7.472044">
        <ele>671.047</ele>
        <time>2015-08-16T10:55:20Z</time>
      </trkpt>
      <trkpt lat="42.774962" lon="-7.472162">
        <ele>671.075</ele>
        <time>2015-08-16T10:55:31Z</time>
      </trkpt>
      <trkpt lat="42.774929" lon="-7.472294">
        <ele>670.092</ele>
        <time>2015-08-16T10:55:38Z</time>
      </trkpt>
      <trkpt lat="42.774897" lon="-7.472418">
        <ele>668.090</ele>
        <time>2015-08-16T10:55:45Z</time>
      </trkpt>
      <trkpt lat="42.774860" lon="-7.472535">
        <ele>669.044</ele>
        <time>2015-08-16T10:55:52Z</time>
      </trkpt>
      <trkpt lat="42.774819" lon="-7.472645">
        <ele>669.056</ele>
        <time>2015-08-16T10:56:00Z</time>
      </trkpt>
      <trkpt lat="42.774778" lon="-7.472755">
        <ele>671.059</ele>
        <time>2015-08-16T10:56:06Z</time>
      </trkpt>
      <trkpt lat="42.774741" lon="-7.472889">
        <ele>674.014</ele>
        <time>2015-08-16T10:56:13Z</time>
      </trkpt>
      <trkpt lat="42.774700" lon="-7.473014">
        <ele>673.008</ele>
        <time>2015-08-16T10:56:20Z</time>
      </trkpt>
      <trkpt lat="42.774664" lon="-7.473140">
        <ele>671.066</ele>
        <time>2015-08-16T10:56:27Z</time>
      </trkpt>
      <trkpt lat="42.774633" lon="-7.473266">
        <ele>671.075</ele>
        <time>2015-08-16T10:56:34Z</time>
      </trkpt>
      <trkpt lat="42.774600" lon="-7.473391">
        <ele>671.019</ele>
        <time>2015-08-16T10:56:41Z</time>
      </trkpt>
      <trkpt lat="42.774570" lon="-7.473509">
        <ele>670.094</ele>
        <time>2015-08-16T10:56:47Z</time>
      </trkpt>
      <trkpt lat="42.774533" lon="-7.473638">
        <ele>667.082</ele>
        <time>2015-08-16T10:56:54Z</time>
      </trkpt>
      <trkpt lat="42.774487" lon="-7.473762">
        <ele>665.089</ele>
        <time>2015-08-16T10:57:02Z</time>
      </trkpt>
      <trkpt lat="42.774432" lon="-7.473878">
        <ele>664.057</ele>
        <time>2015-08-16T10:57:09Z</time>
      </trkpt>
      <trkpt lat="42.774400" lon="-7.473998">
        <ele>662.061</ele>
        <time>2015-08-16T10:57:17Z</time>
      </trkpt>
      <trkpt lat="42.774364" lon="-7.474114">
        <ele>664.023</ele>
        <time>2015-08-16T10:57:23Z</time>
      </trkpt>
      <trkpt lat="42.774318" lon="-7.474256">
        <ele>663.083</ele>
        <time>2015-08-16T10:57:30Z</time>
      </trkpt>
      <trkpt lat="42.774286" lon="-7.474376">
        <ele>660.011</ele>
        <time>2015-08-16T10:57:37Z</time>
      </trkpt>
      <trkpt lat="42.774248" lon="-7.474504">
        <ele>659.008</ele>
        <time>2015-08-16T10:57:44Z</time>
      </trkpt>
      <trkpt lat="42.774215" lon="-7.474624">
        <ele>659.043</ele>
        <time>2015-08-16T10:57:49Z</time>
      </trkpt>
      <trkpt lat="42.774186" lon="-7.474749">
        <ele>661.092</ele>
        <time>2015-08-16T10:57:55Z</time>
      </trkpt>
      <trkpt lat="42.774149" lon="-7.474873">
        <ele>662.096</ele>
        <time>2015-08-16T10:58:01Z</time>
      </trkpt>
      <trkpt lat="42.774116" lon="-7.474996">
        <ele>662.081</ele>
        <time>2015-08-16T10:58:07Z</time>
      </trkpt>
      <trkpt lat="42.774084" lon="-7.475114">
        <ele>663.089</ele>
        <time>2015-08-16T10:58:13Z</time>
      </trkpt>
      <trkpt lat="42.774042" lon="-7.475238">
        <ele>660.096</ele>
        <time>2015-08-16T10:58:20Z</time>
      </trkpt>
      <trkpt lat="42.773997" lon="-7.475360">
        <ele>661.094</ele>
        <time>2015-08-16T10:58:27Z</time>
      </trkpt>
      <trkpt lat="42.773960" lon="-7.475490">
        <ele>664.058</ele>
        <time>2015-08-16T10:58:34Z</time>
      </trkpt>
      <trkpt lat="42.773932" lon="-7.475612">
        <ele>664.056</ele>
        <time>2015-08-16T10:58:40Z</time>
      </trkpt>
      <trkpt lat="42.773908" lon="-7.475745">
        <ele>668.059</ele>
        <time>2015-08-16T10:58:46Z</time>
      </trkpt>
      <trkpt lat="42.773869" lon="-7.475861">
        <ele>668.014</ele>
        <time>2015-08-16T10:58:52Z</time>
      </trkpt>
      <trkpt lat="42.773817" lon="-7.475968">
        <ele>666.008</ele>
        <time>2015-08-16T10:59:00Z</time>
      </trkpt>
      <trkpt lat="42.773747" lon="-7.476049">
        <ele>661.016</ele>
        <time>2015-08-16T10:59:09Z</time>
      </trkpt>
      <trkpt lat="42.773687" lon="-7.476142">
        <ele>664.035</ele>
        <time>2015-08-16T10:59:18Z</time>
      </trkpt>
      <trkpt lat="42.773637" lon="-7.476245">
        <ele>663.089</ele>
        <time>2015-08-16T10:59:26Z</time>
      </trkpt>
      <trkpt lat="42.773579" lon="-7.476345">
        <ele>670.044</ele>
        <time>2015-08-16T10:59:32Z</time>
      </trkpt>
      <trkpt lat="42.773558" lon="-7.476465">
        <ele>669.052</ele>
        <time>2015-08-16T10:59:37Z</time>
      </trkpt>
      <trkpt lat="42.773538" lon="-7.476595">
        <ele>670.079</ele>
        <time>2015-08-16T10:59:42Z</time>
      </trkpt>
      <trkpt lat="42.773484" lon="-7.476706">
        <ele>671.057</ele>
        <time>2015-08-16T10:59:49Z</time>
      </trkpt>
      <trkpt lat="42.773422" lon="-7.476814">
        <ele>670.091</ele>
        <time>2015-08-16T10:59:56Z</time>
      </trkpt>
      <trkpt lat="42.773346" lon="-7.476896">
        <ele>670.015</ele>
        <time>2015-08-16T11:00:03Z</time>
      </trkpt>
      <trkpt lat="42.773265" lon="-7.476972">
        <ele>670.065</ele>
        <time>2015-08-16T11:00:10Z</time>
      </trkpt>
      <trkpt lat="42.773220" lon="-7.477097">
        <ele>667.011</ele>
        <time>2015-08-16T11:00:17Z</time>
      </trkpt>
      <trkpt lat="42.773220" lon="-7.477097">
        <ele>667.008</ele>
        <time>2015-08-16T11:00:17Z</time>
      </trkpt>
      <trkpt lat="42.773191" lon="-7.477215">
        <ele>667.032</ele>
        <time>2015-08-16T11:00:24Z</time>
      </trkpt>
      <trkpt lat="42.773187" lon="-7.477337">
        <ele>664.081</ele>
        <time>2015-08-16T11:00:31Z</time>
      </trkpt>
      <trkpt lat="42.773189" lon="-7.477471">
        <ele>665.075</ele>
        <time>2015-08-16T11:00:38Z</time>
      </trkpt>
      <trkpt lat="42.773196" lon="-7.477602">
        <ele>666.020</ele>
        <time>2015-08-16T11:00:44Z</time>
      </trkpt>
      <trkpt lat="42.773189" lon="-7.477724">
        <ele>668.098</ele>
        <time>2015-08-16T11:00:50Z</time>
      </trkpt>
      <trkpt lat="42.773182" lon="-7.477860">
        <ele>670.025</ele>
        <time>2015-08-16T11:00:57Z</time>
      </trkpt>
      <trkpt lat="42.773161" lon="-7.477979">
        <ele>668.013</ele>
        <time>2015-08-16T11:01:04Z</time>
      </trkpt>
      <trkpt lat="42.773133" lon="-7.478103">
        <ele>663.047</ele>
        <time>2015-08-16T11:01:12Z</time>
      </trkpt>
      <trkpt lat="42.773105" lon="-7.478230">
        <ele>656.034</ele>
        <time>2015-08-16T11:01:21Z</time>
      </trkpt>
      <trkpt lat="42.773048" lon="-7.478346">
        <ele>653.055</ele>
        <time>2015-08-16T11:01:30Z</time>
      </trkpt>
      <trkpt lat="42.772997" lon="-7.478465">
        <ele>659.010</ele>
        <time>2015-08-16T11:01:37Z</time>
      </trkpt>
      <trkpt lat="42.772945" lon="-7.478566">
        <ele>660.008</ele>
        <time>2015-08-16T11:01:43Z</time>
      </trkpt>
      <trkpt lat="42.772891" lon="-7.478677">
        <ele>657.094</ele>
        <time>2015-08-16T11:01:51Z</time>
      </trkpt>
      <trkpt lat="42.772863" lon="-7.478808">
        <ele>654.063</ele>
        <time>2015-08-16T11:02:00Z</time>
      </trkpt>
      <trkpt lat="42.772850" lon="-7.478936">
        <ele>652.067</ele>
        <time>2015-08-16T11:02:10Z</time>
      </trkpt>
      <trkpt lat="42.772809" lon="-7.479067">
        <ele>652.062</ele>
        <time>2015-08-16T11:02:18Z</time>
      </trkpt>
      <trkpt lat="42.772769" lon="-7.479196">
        <ele>653.030</ele>
        <time>2015-08-16T11:02:24Z</time>
      </trkpt>
      <trkpt lat="42.772735" lon="-7.479311">
        <ele>647.077</ele>
        <time>2015-08-16T11:02:35Z</time>
      </trkpt>
      <trkpt lat="42.772691" lon="-7.479420">
        <ele>645.035</ele>
        <time>2015-08-16T11:02:41Z</time>
      </trkpt>
      <trkpt lat="42.772652" lon="-7.479535">
        <ele>646.029</ele>
        <time>2015-08-16T11:02:46Z</time>
      </trkpt>
      <trkpt lat="42.772615" lon="-7.479653">
        <ele>647.066</ele>
        <time>2015-08-16T11:02:53Z</time>
      </trkpt>
      <trkpt lat="42.772629" lon="-7.479791">
        <ele>651.029</ele>
        <time>2015-08-16T11:02:59Z</time>
      </trkpt>
      <trkpt lat="42.772693" lon="-7.479898">
        <ele>655.021</ele>
        <time>2015-08-16T11:03:05Z</time>
      </trkpt>
      <trkpt lat="42.772766" lon="-7.479984">
        <ele>657.008</ele>
        <time>2015-08-16T11:03:41Z</time>
      </trkpt>
      <trkpt lat="42.772855" lon="-7.480033">
        <ele>654.017</ele>
        <time>2015-08-16T11:03:50Z</time>
      </trkpt>
      <trkpt lat="42.772955" lon="-7.480030">
        <ele>652.066</ele>
        <time>2015-08-16T11:03:58Z</time>
      </trkpt>
      <trkpt lat="42.773046" lon="-7.479959">
        <ele>653.040</ele>
        <time>2015-08-16T11:04:05Z</time>
      </trkpt>
      <trkpt lat="42.773132" lon="-7.479892">
        <ele>654.025</ele>
        <time>2015-08-16T11:04:12Z</time>
      </trkpt>
      <trkpt lat="42.773221" lon="-7.479852">
        <ele>650.053</ele>
        <time>2015-08-16T11:04:23Z</time>
      </trkpt>
      <trkpt lat="42.773310" lon="-7.479876">
        <ele>649.080</ele>
        <time>2015-08-16T11:04:33Z</time>
      </trkpt>
      <trkpt lat="42.773401" lon="-7.479877">
        <ele>648.098</ele>
        <time>2015-08-16T11:04:42Z</time>
      </trkpt>
      <trkpt lat="42.773491" lon="-7.479894">
        <ele>651.022</ele>
        <time>2015-08-16T11:05:22Z</time>
      </trkpt>
      <trkpt lat="42.773578" lon="-7.479933">
        <ele>648.018</ele>
        <time>2015-08-16T11:05:39Z</time>
      </trkpt>
      <trkpt lat="42.773676" lon="-7.479939">
        <ele>650.098</ele>
        <time>2015-08-16T11:05:49Z</time>
      </trkpt>
      <trkpt lat="42.773764" lon="-7.479980">
        <ele>650.017</ele>
        <time>2015-08-16T11:05:59Z</time>
      </trkpt>
      <trkpt lat="42.773764" lon="-7.479980">
        <ele>650.008</ele>
        <time>2015-08-16T11:05:59Z</time>
      </trkpt>
      <trkpt lat="42.773855" lon="-7.480004">
        <ele>652.042</ele>
        <time>2015-08-16T11:06:07Z</time>
      </trkpt>
      <trkpt lat="42.773948" lon="-7.480003">
        <ele>653.091</ele>
        <time>2015-08-16T11:06:14Z</time>
      </trkpt>
      <trkpt lat="42.774043" lon="-7.480019">
        <ele>653.015</ele>
        <time>2015-08-16T11:06:21Z</time>
      </trkpt>
      <trkpt lat="42.774138" lon="-7.480044">
        <ele>654.020</ele>
        <time>2015-08-16T11:06:29Z</time>
      </trkpt>
      <trkpt lat="42.774233" lon="-7.480093">
        <ele>657.018</ele>
        <time>2015-08-16T11:06:41Z</time>
      </trkpt>
      <trkpt lat="42.774315" lon="-7.480148">
        <ele>658.045</ele>
        <time>2015-08-16T11:06:47Z</time>
      </trkpt>
      <trkpt lat="42.774404" lon="-7.480211">
        <ele>655.053</ele>
        <time>2015-08-16T11:06:55Z</time>
      </trkpt>
      <trkpt lat="42.774476" lon="-7.480293">
        <ele>654.057</ele>
        <time>2015-08-16T11:07:04Z</time>
      </trkpt>
      <trkpt lat="42.774545" lon="-7.480376">
        <ele>652.025</ele>
        <time>2015-08-16T11:07:13Z</time>
      </trkpt>
      <trkpt lat="42.774630" lon="-7.480435">
        <ele>651.026</ele>
        <time>2015-08-16T11:07:19Z</time>
      </trkpt>
      <trkpt lat="42.774705" lon="-7.480510">
        <ele>650.008</ele>
        <time>2015-08-16T11:07:25Z</time>
      </trkpt>
      <trkpt lat="42.774792" lon="-7.480557">
        <ele>654.008</ele>
        <time>2015-08-16T11:07:32Z</time>
      </trkpt>
      <trkpt lat="42.774885" lon="-7.480610">
        <ele>656.053</ele>
        <time>2015-08-16T11:07:39Z</time>
      </trkpt>
      <trkpt lat="42.774981" lon="-7.480645">
        <ele>658.012</ele>
        <time>2015-08-16T11:07:55Z</time>
      </trkpt>
      <trkpt lat="42.775059" lon="-7.480708">
        <ele>658.036</ele>
        <time>2015-08-16T11:08:00Z</time>
      </trkpt>
      <trkpt lat="42.775160" lon="-7.480703">
        <ele>660.041</ele>
        <time>2015-08-16T11:08:06Z</time>
      </trkpt>
      <trkpt lat="42.775254" lon="-7.480707">
        <ele>661.049</ele>
        <time>2015-08-16T11:08:13Z</time>
      </trkpt>
      <trkpt lat="42.775347" lon="-7.480728">
        <ele>662.086</ele>
        <time>2015-08-16T11:08:20Z</time>
      </trkpt>
      <trkpt lat="42.775443" lon="-7.480767">
        <ele>662.014</ele>
        <time>2015-08-16T11:08:28Z</time>
      </trkpt>
      <trkpt lat="42.775533" lon="-7.480803">
        <ele>663.098</ele>
        <time>2015-08-16T11:08:35Z</time>
      </trkpt>
      <trkpt lat="42.775637" lon="-7.480852">
        <ele>663.053</ele>
        <time>2015-08-16T11:08:43Z</time>
      </trkpt>
      <trkpt lat="42.775733" lon="-7.480893">
        <ele>664.004</ele>
        <time>2015-08-16T11:08:51Z</time>
      </trkpt>
      <trkpt lat="42.775830" lon="-7.480922">
        <ele>665.014</ele>
        <time>2015-08-16T11:08:59Z</time>
      </trkpt>
      <trkpt lat="42.775928" lon="-7.480968">
        <ele>665.008</ele>
        <time>2015-08-16T11:09:07Z</time>
      </trkpt>
      <trkpt lat="42.776016" lon="-7.481018">
        <ele>665.076</ele>
        <time>2015-08-16T11:09:14Z</time>
      </trkpt>
      <trkpt lat="42.776107" lon="-7.481061">
        <ele>664.065</ele>
        <time>2015-08-16T11:09:21Z</time>
      </trkpt>
      <trkpt lat="42.776196" lon="-7.481102">
        <ele>665.019</ele>
        <time>2015-08-16T11:09:29Z</time>
      </trkpt>
      <trkpt lat="42.776286" lon="-7.481132">
        <ele>665.054</ele>
        <time>2015-08-16T11:09:36Z</time>
      </trkpt>
      <trkpt lat="42.776389" lon="-7.481172">
        <ele>666.042</ele>
        <time>2015-08-16T11:09:43Z</time>
      </trkpt>
      <trkpt lat="42.776486" lon="-7.481209">
        <ele>666.019</ele>
        <time>2015-08-16T11:09:50Z</time>
      </trkpt>
      <trkpt lat="42.776578" lon="-7.481253">
        <ele>667.097</ele>
        <time>2015-08-16T11:09:57Z</time>
      </trkpt>
      <trkpt lat="42.776662" lon="-7.481304">
        <ele>667.091</ele>
        <time>2015-08-16T11:10:04Z</time>
      </trkpt>
      <trkpt lat="42.776740" lon="-7.481371">
        <ele>667.076</ele>
        <time>2015-08-16T11:10:11Z</time>
      </trkpt>
      <trkpt lat="42.776825" lon="-7.481430">
        <ele>668.090</ele>
        <time>2015-08-16T11:10:18Z</time>
      </trkpt>
      <trkpt lat="42.776882" lon="-7.481526">
        <ele>668.019</ele>
        <time>2015-08-16T11:10:26Z</time>
      </trkpt>
      <trkpt lat="42.776961" lon="-7.481587">
        <ele>666.008</ele>
        <time>2015-08-16T11:10:33Z</time>
      </trkpt>
      <trkpt lat="42.777047" lon="-7.481626">
        <ele>666.018</ele>
        <time>2015-08-16T11:10:40Z</time>
      </trkpt>
      <trkpt lat="42.777140" lon="-7.481655">
        <ele>667.027</ele>
        <time>2015-08-16T11:10:47Z</time>
      </trkpt>
      <trkpt lat="42.777231" lon="-7.481691">
        <ele>667.061</ele>
        <time>2015-08-16T11:10:54Z</time>
      </trkpt>
      <trkpt lat="42.777329" lon="-7.481717">
        <ele>667.056</ele>
        <time>2015-08-16T11:11:01Z</time>
      </trkpt>
      <trkpt lat="42.777421" lon="-7.481743">
        <ele>668.094</ele>
        <time>2015-08-16T11:11:08Z</time>
      </trkpt>
      <trkpt lat="42.777517" lon="-7.481756">
        <ele>667.071</ele>
        <time>2015-08-16T11:11:16Z</time>
      </trkpt>
      <trkpt lat="42.777611" lon="-7.481783">
        <ele>669.059</ele>
        <time>2015-08-16T11:11:24Z</time>
      </trkpt>
      <trkpt lat="42.777705" lon="-7.481816">
        <ele>669.023</ele>
        <time>2015-08-16T11:11:31Z</time>
      </trkpt>
      <trkpt lat="42.777792" lon="-7.481850">
        <ele>670.099</ele>
        <time>2015-08-16T11:11:39Z</time>
      </trkpt>
      <trkpt lat="42.777883" lon="-7.481890">
        <ele>670.007</ele>
        <time>2015-08-16T11:11:48Z</time>
      </trkpt>
      <trkpt lat="42.777971" lon="-7.481930">
        <ele>672.027</ele>
        <time>2015-08-16T11:11:56Z</time>
      </trkpt>
      <trkpt lat="42.778069" lon="-7.481961">
        <ele>674.008</ele>
        <time>2015-08-16T11:12:08Z</time>
      </trkpt>
      <trkpt lat="42.778152" lon="-7.482012">
        <ele>674.070</ele>
        <time>2015-08-16T11:12:14Z</time>
      </trkpt>
      <trkpt lat="42.778241" lon="-7.482065">
        <ele>674.029</ele>
        <time>2015-08-16T11:12:20Z</time>
      </trkpt>
      <trkpt lat="42.778328" lon="-7.482111">
        <ele>675.093</ele>
        <time>2015-08-16T11:12:26Z</time>
      </trkpt>
      <trkpt lat="42.778414" lon="-7.482145">
        <ele>676.018</ele>
        <time>2015-08-16T11:12:32Z</time>
      </trkpt>
      <trkpt lat="42.778505" lon="-7.482217">
        <ele>676.046</ele>
        <time>2015-08-16T11:12:39Z</time>
      </trkpt>
      <trkpt lat="42.778596" lon="-7.482277">
        <ele>676.023</ele>
        <time>2015-08-16T11:12:47Z</time>
      </trkpt>
      <trkpt lat="42.778684" lon="-7.482344">
        <ele>675.051</ele>
        <time>2015-08-16T11:12:55Z</time>
      </trkpt>
      <trkpt lat="42.778770" lon="-7.482415">
        <ele>677.065</ele>
        <time>2015-08-16T11:13:03Z</time>
      </trkpt>
      <trkpt lat="42.778854" lon="-7.482458">
        <ele>677.095</ele>
        <time>2015-08-16T11:13:09Z</time>
      </trkpt>
      <trkpt lat="42.778943" lon="-7.482520">
        <ele>679.049</ele>
        <time>2015-08-16T11:13:17Z</time>
      </trkpt>
      <trkpt lat="42.779030" lon="-7.482574">
        <ele>681.023</ele>
        <time>2015-08-16T11:13:25Z</time>
      </trkpt>
      <trkpt lat="42.779122" lon="-7.482635">
        <ele>681.008</ele>
        <time>2015-08-16T11:13:33Z</time>
      </trkpt>
      <trkpt lat="42.779209" lon="-7.482685">
        <ele>682.090</ele>
        <time>2015-08-16T11:13:40Z</time>
      </trkpt>
      <trkpt lat="42.779291" lon="-7.482741">
        <ele>683.099</ele>
        <time>2015-08-16T11:13:47Z</time>
      </trkpt>
      <trkpt lat="42.779384" lon="-7.482791">
        <ele>683.073</ele>
        <time>2015-08-16T11:13:56Z</time>
      </trkpt>
      <trkpt lat="42.779482" lon="-7.482826">
        <ele>686.028</ele>
        <time>2015-08-16T11:14:05Z</time>
      </trkpt>
      <trkpt lat="42.779569" lon="-7.482891">
        <ele>685.056</ele>
        <time>2015-08-16T11:14:14Z</time>
      </trkpt>
      <trkpt lat="42.779648" lon="-7.482960">
        <ele>686.033</ele>
        <time>2015-08-16T11:14:22Z</time>
      </trkpt>
      <trkpt lat="42.779732" lon="-7.483005">
        <ele>687.021</ele>
        <time>2015-08-16T11:14:28Z</time>
      </trkpt>
      <trkpt lat="42.779817" lon="-7.483045">
        <ele>686.025</ele>
        <time>2015-08-16T11:14:34Z</time>
      </trkpt>
      <trkpt lat="42.779909" lon="-7.483083">
        <ele>687.017</ele>
        <time>2015-08-16T11:14:42Z</time>
      </trkpt>
      <trkpt lat="42.780001" lon="-7.483127">
        <ele>687.087</ele>
        <time>2015-08-16T11:14:50Z</time>
      </trkpt>
      <trkpt lat="42.780095" lon="-7.483174">
        <ele>687.015</ele>
        <time>2015-08-16T11:14:57Z</time>
      </trkpt>
      <trkpt lat="42.780180" lon="-7.483248">
        <ele>685.008</ele>
        <time>2015-08-16T11:15:09Z</time>
      </trkpt>
      <trkpt lat="42.780271" lon="-7.483251">
        <ele>684.042</ele>
        <time>2015-08-16T11:15:16Z</time>
      </trkpt>
      <trkpt lat="42.780368" lon="-7.483264">
        <ele>685.091</ele>
        <time>2015-08-16T11:15:22Z</time>
      </trkpt>
      <trkpt lat="42.780486" lon="-7.483306">
        <ele>686.055</ele>
        <time>2015-08-16T11:15:28Z</time>
      </trkpt>
      <trkpt lat="42.780577" lon="-7.483343">
        <ele>685.090</ele>
        <time>2015-08-16T11:15:35Z</time>
      </trkpt>
      <trkpt lat="42.780659" lon="-7.483396">
        <ele>684.018</ele>
        <time>2015-08-16T11:15:42Z</time>
      </trkpt>
      <trkpt lat="42.780659" lon="-7.483396">
        <ele>684.065</ele>
        <time>2015-08-16T11:15:43Z</time>
      </trkpt>
      <trkpt lat="42.780739" lon="-7.483463">
        <ele>686.083</ele>
        <time>2015-08-16T11:15:49Z</time>
      </trkpt>
      <trkpt lat="42.780826" lon="-7.483530">
        <ele>685.067</ele>
        <time>2015-08-16T11:15:57Z</time>
      </trkpt>
      <trkpt lat="42.780925" lon="-7.483662">
        <ele>686.052</ele>
        <time>2015-08-16T11:16:09Z</time>
      </trkpt>
      <trkpt lat="42.780973" lon="-7.483776">
        <ele>688.053</ele>
        <time>2015-08-16T11:16:32Z</time>
      </trkpt>
      <trkpt lat="42.781038" lon="-7.483872">
        <ele>689.008</ele>
        <time>2015-08-16T11:16:38Z</time>
      </trkpt>
      <trkpt lat="42.781108" lon="-7.483975">
        <ele>691.008</ele>
        <time>2015-08-16T11:16:44Z</time>
      </trkpt>
      <trkpt lat="42.781159" lon="-7.484096">
        <ele>690.046</ele>
        <time>2015-08-16T11:16:51Z</time>
      </trkpt>
      <trkpt lat="42.781193" lon="-7.484230">
        <ele>688.025</ele>
        <time>2015-08-16T11:16:59Z</time>
      </trkpt>
      <trkpt lat="42.781202" lon="-7.484369">
        <ele>689.029</ele>
        <time>2015-08-16T11:17:06Z</time>
      </trkpt>
      <trkpt lat="42.781207" lon="-7.484497">
        <ele>690.044</ele>
        <time>2015-08-16T11:17:12Z</time>
      </trkpt>
      <trkpt lat="42.781207" lon="-7.484621">
        <ele>688.082</ele>
        <time>2015-08-16T11:17:19Z</time>
      </trkpt>
      <trkpt lat="42.781192" lon="-7.484751">
        <ele>687.049</ele>
        <time>2015-08-16T11:17:26Z</time>
      </trkpt>
      <trkpt lat="42.781180" lon="-7.484879">
        <ele>688.077</ele>
        <time>2015-08-16T11:17:33Z</time>
      </trkpt>
      <trkpt lat="42.781161" lon="-7.485011">
        <ele>688.081</ele>
        <time>2015-08-16T11:17:40Z</time>
      </trkpt>
      <trkpt lat="42.781150" lon="-7.485161">
        <ele>688.071</ele>
        <time>2015-08-16T11:17:47Z</time>
      </trkpt>
      <trkpt lat="42.781129" lon="-7.485284">
        <ele>688.041</ele>
        <time>2015-08-16T11:17:54Z</time>
      </trkpt>
      <trkpt lat="42.781114" lon="-7.485410">
        <ele>687.015</ele>
        <time>2015-08-16T11:18:01Z</time>
      </trkpt>
      <trkpt lat="42.781092" lon="-7.485537">
        <ele>686.008</ele>
        <time>2015-08-16T11:18:08Z</time>
      </trkpt>
      <trkpt lat="42.781072" lon="-7.485659">
        <ele>685.068</ele>
        <time>2015-08-16T11:18:15Z</time>
      </trkpt>
      <trkpt lat="42.781056" lon="-7.485786">
        <ele>685.057</ele>
        <time>2015-08-16T11:18:22Z</time>
      </trkpt>
      <trkpt lat="42.781043" lon="-7.485910">
        <ele>684.051</ele>
        <time>2015-08-16T11:18:29Z</time>
      </trkpt>
      <trkpt lat="42.781032" lon="-7.486037">
        <ele>684.066</ele>
        <time>2015-08-16T11:18:36Z</time>
      </trkpt>
      <trkpt lat="42.781021" lon="-7.486161">
        <ele>684.034</ele>
        <time>2015-08-16T11:18:43Z</time>
      </trkpt>
      <trkpt lat="42.781020" lon="-7.486293">
        <ele>684.041</ele>
        <time>2015-08-16T11:18:50Z</time>
      </trkpt>
      <trkpt lat="42.781017" lon="-7.486426">
        <ele>685.019</ele>
        <time>2015-08-16T11:18:57Z</time>
      </trkpt>
      <trkpt lat="42.781018" lon="-7.486549">
        <ele>685.063</ele>
        <time>2015-08-16T11:19:04Z</time>
      </trkpt>
      <trkpt lat="42.781031" lon="-7.486677">
        <ele>685.029</ele>
        <time>2015-08-16T11:19:11Z</time>
      </trkpt>
      <trkpt lat="42.781046" lon="-7.486805">
        <ele>685.000</ele>
        <time>2015-08-16T11:19:18Z</time>
      </trkpt>
      <trkpt lat="42.781056" lon="-7.486928">
        <ele>684.020</ele>
        <time>2015-08-16T11:19:25Z</time>
      </trkpt>
      <trkpt lat="42.781060" lon="-7.487061">
        <ele>683.008</ele>
        <time>2015-08-16T11:19:32Z</time>
      </trkpt>
      <trkpt lat="42.781052" lon="-7.487198">
        <ele>683.023</ele>
        <time>2015-08-16T11:19:40Z</time>
      </trkpt>
      <trkpt lat="42.781046" lon="-7.487332">
        <ele>683.062</ele>
        <time>2015-08-16T11:19:47Z</time>
      </trkpt>
      <trkpt lat="42.781047" lon="-7.487469">
        <ele>682.086</ele>
        <time>2015-08-16T11:19:54Z</time>
      </trkpt>
      <trkpt lat="42.781072" lon="-7.487603">
        <ele>683.051</ele>
        <time>2015-08-16T11:20:01Z</time>
      </trkpt>
      <trkpt lat="42.781092" lon="-7.487747">
        <ele>685.019</ele>
        <time>2015-08-16T11:20:07Z</time>
      </trkpt>
      <trkpt lat="42.781110" lon="-7.487886">
        <ele>686.056</ele>
        <time>2015-08-16T11:20:14Z</time>
      </trkpt>
      <trkpt lat="42.781135" lon="-7.488009">
        <ele>685.044</ele>
        <time>2015-08-16T11:20:21Z</time>
      </trkpt>
      <trkpt lat="42.781148" lon="-7.488136">
        <ele>684.098</ele>
        <time>2015-08-16T11:20:28Z</time>
      </trkpt>
      <trkpt lat="42.781151" lon="-7.488270">
        <ele>684.041</ele>
        <time>2015-08-16T11:20:35Z</time>
      </trkpt>
      <trkpt lat="42.781147" lon="-7.488393">
        <ele>685.081</ele>
        <time>2015-08-16T11:20:41Z</time>
      </trkpt>
      <trkpt lat="42.781141" lon="-7.488528">
        <ele>685.009</ele>
        <time>2015-08-16T11:20:49Z</time>
      </trkpt>
      <trkpt lat="42.781139" lon="-7.488662">
        <ele>685.008</ele>
        <time>2015-08-16T11:20:56Z</time>
      </trkpt>
      <trkpt lat="42.781131" lon="-7.488799">
        <ele>685.065</ele>
        <time>2015-08-16T11:21:02Z</time>
      </trkpt>
      <trkpt lat="42.781123" lon="-7.488934">
        <ele>685.014</ele>
        <time>2015-08-16T11:21:09Z</time>
      </trkpt>
      <trkpt lat="42.781119" lon="-7.489059">
        <ele>686.028</ele>
        <time>2015-08-16T11:21:15Z</time>
      </trkpt>
      <trkpt lat="42.781094" lon="-7.489193">
        <ele>687.023</ele>
        <time>2015-08-16T11:21:22Z</time>
      </trkpt>
      <trkpt lat="42.781058" lon="-7.489318">
        <ele>686.091</ele>
        <time>2015-08-16T11:21:29Z</time>
      </trkpt>
      <trkpt lat="42.781054" lon="-7.489447">
        <ele>686.098</ele>
        <time>2015-08-16T11:21:36Z</time>
      </trkpt>
      <trkpt lat="42.781059" lon="-7.489573">
        <ele>684.026</ele>
        <time>2015-08-16T11:21:43Z</time>
      </trkpt>
      <trkpt lat="42.781067" lon="-7.489704">
        <ele>685.040</ele>
        <time>2015-08-16T11:21:51Z</time>
      </trkpt>
      <trkpt lat="42.781062" lon="-7.489830">
        <ele>685.093</ele>
        <time>2015-08-16T11:21:58Z</time>
      </trkpt>
      <trkpt lat="42.781064" lon="-7.489958">
        <ele>685.065</ele>
        <time>2015-08-16T11:22:05Z</time>
      </trkpt>
      <trkpt lat="42.781062" lon="-7.490089">
        <ele>685.021</ele>
        <time>2015-08-16T11:22:12Z</time>
      </trkpt>
      <trkpt lat="42.781066" lon="-7.490222">
        <ele>685.008</ele>
        <time>2015-08-16T11:22:19Z</time>
      </trkpt>
      <trkpt lat="42.781047" lon="-7.490354">
        <ele>686.040</ele>
        <time>2015-08-16T11:22:27Z</time>
      </trkpt>
      <trkpt lat="42.781058" lon="-7.490484">
        <ele>685.069</ele>
        <time>2015-08-16T11:22:44Z</time>
      </trkpt>
      <trkpt lat="42.781057" lon="-7.490617">
        <ele>686.083</ele>
        <time>2015-08-16T11:22:51Z</time>
      </trkpt>
      <trkpt lat="42.781034" lon="-7.490751">
        <ele>684.088</ele>
        <time>2015-08-16T11:22:59Z</time>
      </trkpt>
      <trkpt lat="42.781031" lon="-7.490888">
        <ele>686.056</ele>
        <time>2015-08-16T11:23:08Z</time>
      </trkpt>
      <trkpt lat="42.781010" lon="-7.491015">
        <ele>687.043</ele>
        <time>2015-08-16T11:23:14Z</time>
      </trkpt>
      <trkpt lat="42.780995" lon="-7.491144">
        <ele>689.061</ele>
        <time>2015-08-16T11:23:21Z</time>
      </trkpt>
      <trkpt lat="42.780986" lon="-7.491271">
        <ele>693.085</ele>
        <time>2015-08-16T11:23:29Z</time>
      </trkpt>
      <trkpt lat="42.780978" lon="-7.491405">
        <ele>697.089</ele>
        <time>2015-08-16T11:23:37Z</time>
      </trkpt>
      <trkpt lat="42.780967" lon="-7.491528">
        <ele>693.006</ele>
        <time>2015-08-16T11:23:44Z</time>
      </trkpt>
      <trkpt lat="42.780929" lon="-7.491648">
        <ele>692.026</ele>
        <time>2015-08-16T11:23:51Z</time>
      </trkpt>
      <trkpt lat="42.780897" lon="-7.491787">
        <ele>690.008</ele>
        <time>2015-08-16T11:23:57Z</time>
      </trkpt>
      <trkpt lat="42.780857" lon="-7.491913">
        <ele>689.069</ele>
        <time>2015-08-16T11:24:04Z</time>
      </trkpt>
      <trkpt lat="42.780825" lon="-7.492049">
        <ele>689.018</ele>
        <time>2015-08-16T11:24:11Z</time>
      </trkpt>
      <trkpt lat="42.780794" lon="-7.492168">
        <ele>689.082</ele>
        <time>2015-08-16T11:24:17Z</time>
      </trkpt>
      <trkpt lat="42.780764" lon="-7.492291">
        <ele>690.037</ele>
        <time>2015-08-16T11:24:23Z</time>
      </trkpt>
      <trkpt lat="42.780729" lon="-7.492415">
        <ele>693.075</ele>
        <time>2015-08-16T11:24:29Z</time>
      </trkpt>
      <trkpt lat="42.780689" lon="-7.492541">
        <ele>692.042</ele>
        <time>2015-08-16T11:24:35Z</time>
      </trkpt>
      <trkpt lat="42.780662" lon="-7.492667">
        <ele>695.090</ele>
        <time>2015-08-16T11:24:41Z</time>
      </trkpt>
      <trkpt lat="42.780600" lon="-7.492771">
        <ele>690.024</ele>
        <time>2015-08-16T11:24:47Z</time>
      </trkpt>
      <trkpt lat="42.780599" lon="-7.492911">
        <ele>691.077</ele>
        <time>2015-08-16T11:25:00Z</time>
      </trkpt>
      <trkpt lat="42.780612" lon="-7.493033">
        <ele>690.061</ele>
        <time>2015-08-16T11:25:06Z</time>
      </trkpt>
      <trkpt lat="42.780601" lon="-7.493165">
        <ele>688.027</ele>
        <time>2015-08-16T11:25:13Z</time>
      </trkpt>
      <trkpt lat="42.780589" lon="-7.493301">
        <ele>689.008</ele>
        <time>2015-08-16T11:25:20Z</time>
      </trkpt>
      <trkpt lat="42.780555" lon="-7.493419">
        <ele>689.068</ele>
        <time>2015-08-16T11:25:26Z</time>
      </trkpt>
      <trkpt lat="42.780484" lon="-7.493501">
        <ele>686.027</ele>
        <time>2015-08-16T11:25:34Z</time>
      </trkpt>
      <trkpt lat="42.780431" lon="-7.493603">
        <ele>684.071</ele>
        <time>2015-08-16T11:25:41Z</time>
      </trkpt>
      <trkpt lat="42.780378" lon="-7.493711">
        <ele>680.046</ele>
        <time>2015-08-16T11:25:48Z</time>
      </trkpt>
      <trkpt lat="42.780317" lon="-7.493821">
        <ele>687.014</ele>
        <time>2015-08-16T11:26:01Z</time>
      </trkpt>
      <trkpt lat="42.780288" lon="-7.493952">
        <ele>686.071</ele>
        <time>2015-08-16T11:26:09Z</time>
      </trkpt>
      <trkpt lat="42.780281" lon="-7.493969">
        <ele>686.049</ele>
        <time>2015-08-16T11:26:10Z</time>
      </trkpt>
      <trkpt lat="42.780237" lon="-7.494077">
        <ele>685.093</ele>
        <time>2015-08-16T11:26:20Z</time>
      </trkpt>
      <trkpt lat="42.780227" lon="-7.494220">
        <ele>685.067</ele>
        <time>2015-08-16T11:26:27Z</time>
      </trkpt>
      <trkpt lat="42.780210" lon="-7.494347">
        <ele>685.081</ele>
        <time>2015-08-16T11:26:33Z</time>
      </trkpt>
      <trkpt lat="42.780214" lon="-7.494478">
        <ele>685.019</ele>
        <time>2015-08-16T11:26:40Z</time>
      </trkpt>
      <trkpt lat="42.780287" lon="-7.494558">
        <ele>687.008</ele>
        <time>2015-08-16T11:26:47Z</time>
      </trkpt>
      <trkpt lat="42.780380" lon="-7.494575">
        <ele>687.067</ele>
        <time>2015-08-16T11:27:33Z</time>
      </trkpt>
      <trkpt lat="42.780454" lon="-7.494663">
        <ele>690.026</ele>
        <time>2015-08-16T11:27:51Z</time>
      </trkpt>
      <trkpt lat="42.780514" lon="-7.494766">
        <ele>690.080</ele>
        <time>2015-08-16T11:27:57Z</time>
      </trkpt>
      <trkpt lat="42.780560" lon="-7.494887">
        <ele>688.055</ele>
        <time>2015-08-16T11:28:04Z</time>
      </trkpt>
      <trkpt lat="42.780639" lon="-7.494976">
        <ele>687.093</ele>
        <time>2015-08-16T11:28:10Z</time>
      </trkpt>
      <trkpt lat="42.780672" lon="-7.495104">
        <ele>685.090</ele>
        <time>2015-08-16T11:28:18Z</time>
      </trkpt>
      <trkpt lat="42.780737" lon="-7.495195">
        <ele>686.018</ele>
        <time>2015-08-16T11:28:25Z</time>
      </trkpt>
      <trkpt lat="42.780814" lon="-7.495286">
        <ele>687.052</ele>
        <time>2015-08-16T11:28:30Z</time>
      </trkpt>
      <trkpt lat="42.780881" lon="-7.495385">
        <ele>687.015</ele>
        <time>2015-08-16T11:28:36Z</time>
      </trkpt>
      <trkpt lat="42.780921" lon="-7.495507">
        <ele>686.065</ele>
        <time>2015-08-16T11:28:44Z</time>
      </trkpt>
      <trkpt lat="42.780963" lon="-7.495629">
        <ele>686.011</ele>
        <time>2015-08-16T11:28:54Z</time>
      </trkpt>
      <trkpt lat="42.780927" lon="-7.495741">
        <ele>684.008</ele>
        <time>2015-08-16T11:29:06Z</time>
      </trkpt>
      <trkpt lat="42.780829" lon="-7.495811">
        <ele>683.082</ele>
        <time>2015-08-16T11:29:15Z</time>
      </trkpt>
      <trkpt lat="42.780749" lon="-7.495869">
        <ele>682.081</ele>
        <time>2015-08-16T11:29:22Z</time>
      </trkpt>
      <trkpt lat="42.780673" lon="-7.495937">
        <ele>684.065</ele>
        <time>2015-08-16T11:29:28Z</time>
      </trkpt>
      <trkpt lat="42.780568" lon="-7.495955">
        <ele>685.090</ele>
        <time>2015-08-16T11:29:35Z</time>
      </trkpt>
      <trkpt lat="42.780471" lon="-7.495956">
        <ele>684.018</ele>
        <time>2015-08-16T11:29:41Z</time>
      </trkpt>
      <trkpt lat="42.780366" lon="-7.495925">
        <ele>692.065</ele>
        <time>2015-08-16T11:29:47Z</time>
      </trkpt>
      <trkpt lat="42.780277" lon="-7.495891">
        <ele>691.073</ele>
        <time>2015-08-16T11:29:54Z</time>
      </trkpt>
      <trkpt lat="42.780175" lon="-7.495860">
        <ele>688.067</ele>
        <time>2015-08-16T11:30:01Z</time>
      </trkpt>
      <trkpt lat="42.780079" lon="-7.495819">
        <ele>688.082</ele>
        <time>2015-08-16T11:30:08Z</time>
      </trkpt>
      <trkpt lat="42.779981" lon="-7.495815">
        <ele>687.043</ele>
        <time>2015-08-16T11:30:16Z</time>
      </trkpt>
      <trkpt lat="42.779892" lon="-7.495795">
        <ele>689.017</ele>
        <time>2015-08-16T11:30:24Z</time>
      </trkpt>
      <trkpt lat="42.779811" lon="-7.495857">
        <ele>691.008</ele>
        <time>2015-08-16T11:31:01Z</time>
      </trkpt>
      <trkpt lat="42.779730" lon="-7.495921">
        <ele>690.039</ele>
        <time>2015-08-16T11:31:11Z</time>
      </trkpt>
      <trkpt lat="42.779635" lon="-7.495939">
        <ele>685.038</ele>
        <time>2015-08-16T11:31:20Z</time>
      </trkpt>
      <trkpt lat="42.779593" lon="-7.496057">
        <ele>687.042</ele>
        <time>2015-08-16T11:31:33Z</time>
      </trkpt>
      <trkpt lat="42.779541" lon="-7.496162">
        <ele>686.037</ele>
        <time>2015-08-16T11:31:39Z</time>
      </trkpt>
      <trkpt lat="42.779533" lon="-7.496298">
        <ele>689.045</ele>
        <time>2015-08-16T11:31:47Z</time>
      </trkpt>
      <trkpt lat="42.779508" lon="-7.496437">
        <ele>696.042</ele>
        <time>2015-08-16T11:31:53Z</time>
      </trkpt>
      <trkpt lat="42.779514" lon="-7.496562">
        <ele>694.040</ele>
        <time>2015-08-16T11:32:00Z</time>
      </trkpt>
      <trkpt lat="42.779517" lon="-7.496700">
        <ele>690.014</ele>
        <time>2015-08-16T11:32:08Z</time>
      </trkpt>
      <trkpt lat="42.779500" lon="-7.496827">
        <ele>692.059</ele>
        <time>2015-08-16T11:32:16Z</time>
      </trkpt>
      <trkpt lat="42.779454" lon="-7.496941">
        <ele>693.003</ele>
        <time>2015-08-16T11:32:21Z</time>
      </trkpt>
      <trkpt lat="42.779424" lon="-7.497059">
        <ele>692.023</ele>
        <time>2015-08-16T11:32:26Z</time>
      </trkpt>
      <trkpt lat="42.779411" lon="-7.497185">
        <ele>692.008</ele>
        <time>2015-08-16T11:32:32Z</time>
      </trkpt>
      <trkpt lat="42.779396" lon="-7.497307">
        <ele>693.016</ele>
        <time>2015-08-16T11:32:37Z</time>
      </trkpt>
      <trkpt lat="42.779387" lon="-7.497435">
        <ele>692.095</ele>
        <time>2015-08-16T11:32:44Z</time>
      </trkpt>
      <trkpt lat="42.779376" lon="-7.497569">
        <ele>693.039</ele>
        <time>2015-08-16T11:32:51Z</time>
      </trkpt>
      <trkpt lat="42.779356" lon="-7.497698">
        <ele>694.054</ele>
        <time>2015-08-16T11:32:58Z</time>
      </trkpt>
      <trkpt lat="42.779349" lon="-7.497836">
        <ele>693.042</ele>
        <time>2015-08-16T11:33:05Z</time>
      </trkpt>
      <trkpt lat="42.779340" lon="-7.497977">
        <ele>692.029</ele>
        <time>2015-08-16T11:33:12Z</time>
      </trkpt>
      <trkpt lat="42.779326" lon="-7.498108">
        <ele>692.087</ele>
        <time>2015-08-16T11:33:19Z</time>
      </trkpt>
      <trkpt lat="42.779303" lon="-7.498237">
        <ele>692.011</ele>
        <time>2015-08-16T11:33:26Z</time>
      </trkpt>
      <trkpt lat="42.779283" lon="-7.498361">
        <ele>691.039</ele>
        <time>2015-08-16T11:33:33Z</time>
      </trkpt>
      <trkpt lat="42.779260" lon="-7.498480">
        <ele>690.001</ele>
        <time>2015-08-16T11:33:40Z</time>
      </trkpt>
      <trkpt lat="42.779223" lon="-7.498606">
        <ele>688.021</ele>
        <time>2015-08-16T11:33:47Z</time>
      </trkpt>
      <trkpt lat="42.779186" lon="-7.498736">
        <ele>686.008</ele>
        <time>2015-08-16T11:33:54Z</time>
      </trkpt>
      <trkpt lat="42.779154" lon="-7.498867">
        <ele>685.074</ele>
        <time>2015-08-16T11:34:01Z</time>
      </trkpt>
      <trkpt lat="42.779117" lon="-7.498999">
        <ele>683.033</ele>
        <time>2015-08-16T11:34:08Z</time>
      </trkpt>
      <trkpt lat="42.779096" lon="-7.499124">
        <ele>678.097</ele>
        <time>2015-08-16T11:34:18Z</time>
      </trkpt>
      <trkpt lat="42.779019" lon="-7.499219">
        <ele>674.062</ele>
        <time>2015-08-16T11:34:35Z</time>
      </trkpt>
      <trkpt lat="42.778918" lon="-7.499278">
        <ele>676.080</ele>
        <time>2015-08-16T11:34:41Z</time>
      </trkpt>
      <trkpt lat="42.778819" lon="-7.499330">
        <ele>677.057</ele>
        <time>2015-08-16T11:34:46Z</time>
      </trkpt>
      <trkpt lat="42.778725" lon="-7.499389">
        <ele>678.055</ele>
        <time>2015-08-16T11:34:51Z</time>
      </trkpt>
      <trkpt lat="42.778654" lon="-7.499487">
        <ele>673.059</ele>
        <time>2015-08-16T11:34:59Z</time>
      </trkpt>
      <trkpt lat="42.778576" lon="-7.499602">
        <ele>675.017</ele>
        <time>2015-08-16T11:35:05Z</time>
      </trkpt>
      <trkpt lat="42.778513" lon="-7.499691">
        <ele>677.087</ele>
        <time>2015-08-16T11:35:10Z</time>
      </trkpt>
      <trkpt lat="42.778433" lon="-7.499780">
        <ele>680.015</ele>
        <time>2015-08-16T11:35:16Z</time>
      </trkpt>
      <trkpt lat="42.778358" lon="-7.499865">
        <ele>682.008</ele>
        <time>2015-08-16T11:35:22Z</time>
      </trkpt>
      <trkpt lat="42.778287" lon="-7.499960">
        <ele>682.052</ele>
        <time>2015-08-16T11:35:29Z</time>
      </trkpt>
      <trkpt lat="42.778212" lon="-7.500036">
        <ele>682.031</ele>
        <time>2015-08-16T11:35:36Z</time>
      </trkpt>
      <trkpt lat="42.778137" lon="-7.500106">
        <ele>683.025</ele>
        <time>2015-08-16T11:35:43Z</time>
      </trkpt>
      <trkpt lat="42.778067" lon="-7.500199">
        <ele>682.030</ele>
        <time>2015-08-16T11:35:51Z</time>
      </trkpt>
      <trkpt lat="42.777989" lon="-7.500280">
        <ele>682.058</ele>
        <time>2015-08-16T11:35:58Z</time>
      </trkpt>
      <trkpt lat="42.777930" lon="-7.500388">
        <ele>680.015</ele>
        <time>2015-08-16T11:36:06Z</time>
      </trkpt>
      <trkpt lat="42.777896" lon="-7.500509">
        <ele>681.073</ele>
        <time>2015-08-16T11:36:13Z</time>
      </trkpt>
      <trkpt lat="42.777887" lon="-7.500664">
        <ele>682.087</ele>
        <time>2015-08-16T11:36:20Z</time>
      </trkpt>
      <trkpt lat="42.777893" lon="-7.500794">
        <ele>684.018</ele>
        <time>2015-08-16T11:36:27Z</time>
      </trkpt>
      <trkpt lat="42.777868" lon="-7.500925">
        <ele>686.098</ele>
        <time>2015-08-16T11:36:40Z</time>
      </trkpt>
      <trkpt lat="42.777836" lon="-7.501048">
        <ele>685.017</ele>
        <time>2015-08-16T11:36:48Z</time>
      </trkpt>
      <trkpt lat="42.777804" lon="-7.501172">
        <ele>685.008</ele>
        <time>2015-08-16T11:36:56Z</time>
      </trkpt>
      <trkpt lat="42.777780" lon="-7.501299">
        <ele>682.022</ele>
        <time>2015-08-16T11:37:05Z</time>
      </trkpt>
      <trkpt lat="42.777722" lon="-7.501411">
        <ele>680.091</ele>
        <time>2015-08-16T11:37:13Z</time>
      </trkpt>
      <trkpt lat="42.777665" lon="-7.501519">
        <ele>678.025</ele>
        <time>2015-08-16T11:37:21Z</time>
      </trkpt>
      <trkpt lat="42.777615" lon="-7.501635">
        <ele>679.040</ele>
        <time>2015-08-16T11:37:29Z</time>
      </trkpt>
      <trkpt lat="42.777566" lon="-7.501752">
        <ele>679.098</ele>
        <time>2015-08-16T11:37:38Z</time>
      </trkpt>
      <trkpt lat="42.777510" lon="-7.501874">
        <ele>682.085</ele>
        <time>2015-08-16T11:37:44Z</time>
      </trkpt>
      <trkpt lat="42.777475" lon="-7.502013">
        <ele>685.073</ele>
        <time>2015-08-16T11:37:50Z</time>
      </trkpt>
      <trkpt lat="42.777454" lon="-7.502144">
        <ele>687.017</ele>
        <time>2015-08-16T11:37:56Z</time>
      </trkpt>
      <trkpt lat="42.777445" lon="-7.502279">
        <ele>687.016</ele>
        <time>2015-08-16T11:38:03Z</time>
      </trkpt>
      <trkpt lat="42.777443" lon="-7.502402">
        <ele>689.076</ele>
        <time>2015-08-16T11:38:11Z</time>
      </trkpt>
      <trkpt lat="42.777413" lon="-7.502518">
        <ele>693.013</ele>
        <time>2015-08-16T11:38:18Z</time>
      </trkpt>
      <trkpt lat="42.777413" lon="-7.502518">
        <ele>693.008</ele>
        <time>2015-08-16T11:38:18Z</time>
      </trkpt>
      <trkpt lat="42.777410" lon="-7.502535">
        <ele>693.092</ele>
        <time>2015-08-16T11:38:23Z</time>
      </trkpt>
      <trkpt lat="42.777374" lon="-7.502650">
        <ele>694.051</ele>
        <time>2015-08-16T11:38:27Z</time>
      </trkpt>
      <trkpt lat="42.777369" lon="-7.502668">
        <ele>694.055</ele>
        <time>2015-08-16T11:38:28Z</time>
      </trkpt>
      <trkpt lat="42.777335" lon="-7.502797">
        <ele>694.020</ele>
        <time>2015-08-16T11:38:34Z</time>
      </trkpt>
      <trkpt lat="42.777339" lon="-7.502930">
        <ele>695.078</ele>
        <time>2015-08-16T11:38:41Z</time>
      </trkpt>
      <trkpt lat="42.777366" lon="-7.503058">
        <ele>693.015</ele>
        <time>2015-08-16T11:38:48Z</time>
      </trkpt>
      <trkpt lat="42.777375" lon="-7.503192">
        <ele>695.043</ele>
        <time>2015-08-16T11:38:55Z</time>
      </trkpt>
      <trkpt lat="42.777379" lon="-7.503324">
        <ele>696.067</ele>
        <time>2015-08-16T11:39:03Z</time>
      </trkpt>
      <trkpt lat="42.777406" lon="-7.503457">
        <ele>695.052</ele>
        <time>2015-08-16T11:39:11Z</time>
      </trkpt>
      <trkpt lat="42.777467" lon="-7.503572">
        <ele>695.053</ele>
        <time>2015-08-16T11:39:19Z</time>
      </trkpt>
      <trkpt lat="42.777538" lon="-7.503668">
        <ele>699.008</ele>
        <time>2015-08-16T11:39:25Z</time>
      </trkpt>
      <trkpt lat="42.777552" lon="-7.503794">
        <ele>697.008</ele>
        <time>2015-08-16T11:39:37Z</time>
      </trkpt>
      <trkpt lat="42.777551" lon="-7.503930">
        <ele>695.096</ele>
        <time>2015-08-16T11:39:45Z</time>
      </trkpt>
      <trkpt lat="42.777541" lon="-7.504062">
        <ele>696.015</ele>
        <time>2015-08-16T11:39:53Z</time>
      </trkpt>
      <trkpt lat="42.777537" lon="-7.504199">
        <ele>696.059</ele>
        <time>2015-08-16T11:40:01Z</time>
      </trkpt>
      <trkpt lat="42.777530" lon="-7.504324">
        <ele>696.094</ele>
        <time>2015-08-16T11:40:08Z</time>
      </trkpt>
      <trkpt lat="42.777532" lon="-7.504460">
        <ele>695.072</ele>
        <time>2015-08-16T11:40:15Z</time>
      </trkpt>
      <trkpt lat="42.777518" lon="-7.504600">
        <ele>694.059</ele>
        <time>2015-08-16T11:40:22Z</time>
      </trkpt>
      <trkpt lat="42.777478" lon="-7.504717">
        <ele>693.057</ele>
        <time>2015-08-16T11:40:29Z</time>
      </trkpt>
      <trkpt lat="42.777429" lon="-7.504819">
        <ele>691.071</ele>
        <time>2015-08-16T11:40:36Z</time>
      </trkpt>
      <trkpt lat="42.777383" lon="-7.504927">
        <ele>688.054</ele>
        <time>2015-08-16T11:40:44Z</time>
      </trkpt>
      <trkpt lat="42.777343" lon="-7.505039">
        <ele>686.056</ele>
        <time>2015-08-16T11:40:52Z</time>
      </trkpt>
      <trkpt lat="42.777310" lon="-7.505165">
        <ele>687.011</ele>
        <time>2015-08-16T11:40:59Z</time>
      </trkpt>
      <trkpt lat="42.777288" lon="-7.505285">
        <ele>688.008</ele>
        <time>2015-08-16T11:41:05Z</time>
      </trkpt>
      <trkpt lat="42.777261" lon="-7.505411">
        <ele>687.086</ele>
        <time>2015-08-16T11:41:13Z</time>
      </trkpt>
      <trkpt lat="42.777236" lon="-7.505532">
        <ele>688.065</ele>
        <time>2015-08-16T11:41:20Z</time>
      </trkpt>
      <trkpt lat="42.777225" lon="-7.505659">
        <ele>685.069</ele>
        <time>2015-08-16T11:41:27Z</time>
      </trkpt>
      <trkpt lat="42.777221" lon="-7.505783">
        <ele>685.034</ele>
        <time>2015-08-16T11:41:34Z</time>
      </trkpt>
      <trkpt lat="42.777226" lon="-7.505925">
        <ele>684.012</ele>
        <time>2015-08-16T11:41:41Z</time>
      </trkpt>
      <trkpt lat="42.777248" lon="-7.506058">
        <ele>684.039</ele>
        <time>2015-08-16T11:41:49Z</time>
      </trkpt>
      <trkpt lat="42.777292" lon="-7.506175">
        <ele>686.047</ele>
        <time>2015-08-16T11:41:56Z</time>
      </trkpt>
      <trkpt lat="42.777335" lon="-7.506293">
        <ele>687.051</ele>
        <time>2015-08-16T11:42:03Z</time>
      </trkpt>
      <trkpt lat="42.777376" lon="-7.506411">
        <ele>687.074</ele>
        <time>2015-08-16T11:42:10Z</time>
      </trkpt>
      <trkpt lat="42.777419" lon="-7.506521">
        <ele>686.056</ele>
        <time>2015-08-16T11:42:17Z</time>
      </trkpt>
      <trkpt lat="42.777477" lon="-7.506628">
        <ele>682.021</ele>
        <time>2015-08-16T11:42:25Z</time>
      </trkpt>
      <trkpt lat="42.777531" lon="-7.506740">
        <ele>684.008</ele>
        <time>2015-08-16T11:42:31Z</time>
      </trkpt>
      <trkpt lat="42.777593" lon="-7.506843">
        <ele>684.068</ele>
        <time>2015-08-16T11:42:38Z</time>
      </trkpt>
      <trkpt lat="42.777656" lon="-7.506932">
        <ele>685.087</ele>
        <time>2015-08-16T11:42:44Z</time>
      </trkpt>
      <trkpt lat="42.777726" lon="-7.507021">
        <ele>684.071</ele>
        <time>2015-08-16T11:42:50Z</time>
      </trkpt>
      <trkpt lat="42.777799" lon="-7.507122">
        <ele>685.066</ele>
        <time>2015-08-16T11:42:57Z</time>
      </trkpt>
      <trkpt lat="42.777867" lon="-7.507221">
        <ele>684.084</ele>
        <time>2015-08-16T11:43:04Z</time>
      </trkpt>
      <trkpt lat="42.777926" lon="-7.507328">
        <ele>683.041</ele>
        <time>2015-08-16T11:43:14Z</time>
      </trkpt>
      <trkpt lat="42.777999" lon="-7.507407">
        <ele>684.019</ele>
        <time>2015-08-16T11:43:20Z</time>
      </trkpt>
      <trkpt lat="42.778069" lon="-7.507493">
        <ele>685.033</ele>
        <time>2015-08-16T11:43:25Z</time>
      </trkpt>
      <trkpt lat="42.778134" lon="-7.507605">
        <ele>684.039</ele>
        <time>2015-08-16T11:43:32Z</time>
      </trkpt>
      <trkpt lat="42.778206" lon="-7.507685">
        <ele>685.001</ele>
        <time>2015-08-16T11:43:38Z</time>
      </trkpt>
      <trkpt lat="42.778275" lon="-7.507768">
        <ele>686.021</ele>
        <time>2015-08-16T11:43:44Z</time>
      </trkpt>
      <trkpt lat="42.778275" lon="-7.507768">
        <ele>686.008</ele>
        <time>2015-08-16T11:43:44Z</time>
      </trkpt>
      <trkpt lat="42.778341" lon="-7.507880">
        <ele>682.024</ele>
        <time>2015-08-16T11:43:57Z</time>
      </trkpt>
      <trkpt lat="42.778391" lon="-7.507985">
        <ele>680.043</ele>
        <time>2015-08-16T11:44:03Z</time>
      </trkpt>
      <trkpt lat="42.778442" lon="-7.508096">
        <ele>676.097</ele>
        <time>2015-08-16T11:44:10Z</time>
      </trkpt>
      <trkpt lat="42.778538" lon="-7.508163">
        <ele>673.012</ele>
        <time>2015-08-16T11:44:16Z</time>
      </trkpt>
      <trkpt lat="42.778638" lon="-7.508180">
        <ele>671.050</ele>
        <time>2015-08-16T11:44:21Z</time>
      </trkpt>
      <trkpt lat="42.778728" lon="-7.508225">
        <ele>668.057</ele>
        <time>2015-08-16T11:44:28Z</time>
      </trkpt>
      <trkpt lat="42.778800" lon="-7.508324">
        <ele>666.095</ele>
        <time>2015-08-16T11:44:36Z</time>
      </trkpt>
      <trkpt lat="42.778869" lon="-7.508412">
        <ele>661.069</ele>
        <time>2015-08-16T11:44:42Z</time>
      </trkpt>
      <trkpt lat="42.778861" lon="-7.508555">
        <ele>659.079</ele>
        <time>2015-08-16T11:44:49Z</time>
      </trkpt>
      <trkpt lat="42.778801" lon="-7.508669">
        <ele>658.005</ele>
        <time>2015-08-16T11:44:55Z</time>
      </trkpt>
      <trkpt lat="42.778765" lon="-7.508787">
        <ele>656.025</ele>
        <time>2015-08-16T11:45:01Z</time>
      </trkpt>
      <trkpt lat="42.778752" lon="-7.508928">
        <ele>657.008</ele>
        <time>2015-08-16T11:45:08Z</time>
      </trkpt>
      <trkpt lat="42.778719" lon="-7.509049">
        <ele>658.028</ele>
        <time>2015-08-16T11:45:14Z</time>
      </trkpt>
      <trkpt lat="42.778663" lon="-7.509169">
        <ele>660.057</ele>
        <time>2015-08-16T11:45:21Z</time>
      </trkpt>
      <trkpt lat="42.778602" lon="-7.509267">
        <ele>661.051</ele>
        <time>2015-08-16T11:45:31Z</time>
      </trkpt>
      <trkpt lat="42.778550" lon="-7.509368">
        <ele>668.086</ele>
        <time>2015-08-16T11:46:47Z</time>
      </trkpt>
      <trkpt lat="42.778517" lon="-7.509491">
        <ele>659.034</ele>
        <time>2015-08-16T11:47:03Z</time>
      </trkpt>
      <trkpt lat="42.778472" lon="-7.509608">
        <ele>663.031</ele>
        <time>2015-08-16T11:47:15Z</time>
      </trkpt>
      <trkpt lat="42.778456" lon="-7.509753">
        <ele>664.099</ele>
        <time>2015-08-16T11:47:24Z</time>
      </trkpt>
      <trkpt lat="42.778452" lon="-7.509882">
        <ele>667.043</ele>
        <time>2015-08-16T11:47:32Z</time>
      </trkpt>
      <trkpt lat="42.778448" lon="-7.510010">
        <ele>676.093</ele>
        <time>2015-08-16T11:47:42Z</time>
      </trkpt>
      <trkpt lat="42.778496" lon="-7.510128">
        <ele>678.065</ele>
        <time>2015-08-16T11:47:50Z</time>
      </trkpt>
      <trkpt lat="42.778526" lon="-7.510246">
        <ele>678.021</ele>
        <time>2015-08-16T11:47:58Z</time>
      </trkpt>
      <trkpt lat="42.778564" lon="-7.510368">
        <ele>676.008</ele>
        <time>2015-08-16T11:48:07Z</time>
      </trkpt>
      <trkpt lat="42.778596" lon="-7.510482">
        <ele>675.060</ele>
        <time>2015-08-16T11:48:16Z</time>
      </trkpt>
      <trkpt lat="42.778620" lon="-7.510605">
        <ele>675.089</ele>
        <time>2015-08-16T11:48:24Z</time>
      </trkpt>
      <trkpt lat="42.778659" lon="-7.510725">
        <ele>682.073</ele>
        <time>2015-08-16T11:49:20Z</time>
      </trkpt>
      <trkpt lat="42.778687" lon="-7.510856">
        <ele>684.068</ele>
        <time>2015-08-16T11:49:28Z</time>
      </trkpt>
      <trkpt lat="42.778715" lon="-7.510985">
        <ele>685.066</ele>
        <time>2015-08-16T11:49:36Z</time>
      </trkpt>
      <trkpt lat="42.778745" lon="-7.511102">
        <ele>687.093</ele>
        <time>2015-08-16T11:49:44Z</time>
      </trkpt>
      <trkpt lat="42.778805" lon="-7.511198">
        <ele>689.021</ele>
        <time>2015-08-16T11:49:51Z</time>
      </trkpt>
      <trkpt lat="42.778834" lon="-7.511314">
        <ele>690.055</ele>
        <time>2015-08-16T11:49:59Z</time>
      </trkpt>
      <trkpt lat="42.778835" lon="-7.511441">
        <ele>689.025</ele>
        <time>2015-08-16T11:50:07Z</time>
      </trkpt>
      <trkpt lat="42.778837" lon="-7.511570">
        <ele>687.026</ele>
        <time>2015-08-16T11:50:16Z</time>
      </trkpt>
      <trkpt lat="42.778839" lon="-7.511700">
        <ele>686.008</ele>
        <time>2015-08-16T11:50:25Z</time>
      </trkpt>
      <trkpt lat="42.778836" lon="-7.511838">
        <ele>686.008</ele>
        <time>2015-08-16T11:50:35Z</time>
      </trkpt>
      <trkpt lat="42.778827" lon="-7.511970">
        <ele>688.083</ele>
        <time>2015-08-16T11:50:43Z</time>
      </trkpt>
      <trkpt lat="42.778816" lon="-7.512092">
        <ele>686.092</ele>
        <time>2015-08-16T11:50:52Z</time>
      </trkpt>
      <trkpt lat="42.778806" lon="-7.512218">
        <ele>686.016</ele>
        <time>2015-08-16T11:50:59Z</time>
      </trkpt>
      <trkpt lat="42.778782" lon="-7.512350">
        <ele>684.081</ele>
        <time>2015-08-16T11:51:08Z</time>
      </trkpt>
      <trkpt lat="42.778777" lon="-7.512478">
        <ele>685.019</ele>
        <time>2015-08-16T11:51:16Z</time>
      </trkpt>
      <trkpt lat="42.778776" lon="-7.512615">
        <ele>691.086</ele>
        <time>2015-08-16T11:51:32Z</time>
      </trkpt>
      <trkpt lat="42.778795" lon="-7.512734">
        <ele>691.074</ele>
        <time>2015-08-16T11:51:39Z</time>
      </trkpt>
      <trkpt lat="42.778817" lon="-7.512867">
        <ele>690.068</ele>
        <time>2015-08-16T11:51:47Z</time>
      </trkpt>
      <trkpt lat="42.778840" lon="-7.512989">
        <ele>692.036</ele>
        <time>2015-08-16T11:51:55Z</time>
      </trkpt>
      <trkpt lat="42.778869" lon="-7.513117">
        <ele>692.017</ele>
        <time>2015-08-16T11:52:03Z</time>
      </trkpt>
      <trkpt lat="42.778914" lon="-7.513235">
        <ele>692.018</ele>
        <time>2015-08-16T11:52:11Z</time>
      </trkpt>
      <trkpt lat="42.778974" lon="-7.513339">
        <ele>691.008</ele>
        <time>2015-08-16T11:52:19Z</time>
      </trkpt>
      <trkpt lat="42.779028" lon="-7.513447">
        <ele>690.014</ele>
        <time>2015-08-16T11:52:28Z</time>
      </trkpt>
      <trkpt lat="42.779073" lon="-7.513570">
        <ele>690.023</ele>
        <time>2015-08-16T11:52:36Z</time>
      </trkpt>
      <trkpt lat="42.779076" lon="-7.513708">
        <ele>694.027</ele>
        <time>2015-08-16T11:52:43Z</time>
      </trkpt>
      <trkpt lat="42.779081" lon="-7.513844">
        <ele>694.022</ele>
        <time>2015-08-16T11:52:52Z</time>
      </trkpt>
      <trkpt lat="42.779052" lon="-7.513969">
        <ele>695.040</ele>
        <time>2015-08-16T11:53:00Z</time>
      </trkpt>
      <trkpt lat="42.779032" lon="-7.514103">
        <ele>694.017</ele>
        <time>2015-08-16T11:53:08Z</time>
      </trkpt>
      <trkpt lat="42.779017" lon="-7.514229">
        <ele>693.085</ele>
        <time>2015-08-16T11:53:15Z</time>
      </trkpt>
      <trkpt lat="42.778974" lon="-7.514342">
        <ele>689.089</ele>
        <time>2015-08-16T11:53:23Z</time>
      </trkpt>
      <trkpt lat="42.779024" lon="-7.514465">
        <ele>693.036</ele>
        <time>2015-08-16T11:53:31Z</time>
      </trkpt>
      <trkpt lat="42.779096" lon="-7.514560">
        <ele>695.017</ele>
        <time>2015-08-16T11:53:38Z</time>
      </trkpt>
      <trkpt lat="42.779160" lon="-7.514647">
        <ele>697.018</ele>
        <time>2015-08-16T11:53:45Z</time>
      </trkpt>
      <trkpt lat="42.779219" lon="-7.514741">
        <ele>700.008</ele>
        <time>2015-08-16T11:53:54Z</time>
      </trkpt>
      <trkpt lat="42.779268" lon="-7.514855">
        <ele>702.074</ele>
        <time>2015-08-16T11:54:04Z</time>
      </trkpt>
      <trkpt lat="42.779293" lon="-7.514983">
        <ele>702.053</ele>
        <time>2015-08-16T11:54:14Z</time>
      </trkpt>
      <trkpt lat="42.779291" lon="-7.515107">
        <ele>700.047</ele>
        <time>2015-08-16T11:54:25Z</time>
      </trkpt>
      <trkpt lat="42.779334" lon="-7.515225">
        <ele>704.012</ele>
        <time>2015-08-16T11:54:44Z</time>
      </trkpt>
      <trkpt lat="42.779394" lon="-7.515325">
        <ele>707.010</ele>
        <time>2015-08-16T11:54:52Z</time>
      </trkpt>
      <trkpt lat="42.779454" lon="-7.515427">
        <ele>710.057</ele>
        <time>2015-08-16T11:55:00Z</time>
      </trkpt>
      <trkpt lat="42.779534" lon="-7.515511">
        <ele>713.035</ele>
        <time>2015-08-16T11:55:08Z</time>
      </trkpt>
      <trkpt lat="42.779594" lon="-7.515620">
        <ele>713.079</ele>
        <time>2015-08-16T11:55:15Z</time>
      </trkpt>
      <trkpt lat="42.779647" lon="-7.515720">
        <ele>713.033</ele>
        <time>2015-08-16T11:55:22Z</time>
      </trkpt>
      <trkpt lat="42.779672" lon="-7.515848">
        <ele>712.023</ele>
        <time>2015-08-16T11:55:30Z</time>
      </trkpt>
      <trkpt lat="42.779708" lon="-7.515971">
        <ele>711.015</ele>
        <time>2015-08-16T11:55:39Z</time>
      </trkpt>
      <trkpt lat="42.779746" lon="-7.516099">
        <ele>711.008</ele>
        <time>2015-08-16T11:55:47Z</time>
      </trkpt>
      <trkpt lat="42.779771" lon="-7.516231">
        <ele>711.034</ele>
        <time>2015-08-16T11:55:54Z</time>
      </trkpt>
      <trkpt lat="42.779773" lon="-7.516365">
        <ele>710.073</ele>
        <time>2015-08-16T11:56:01Z</time>
      </trkpt>
      <trkpt lat="42.779759" lon="-7.516494">
        <ele>709.047</ele>
        <time>2015-08-16T11:56:08Z</time>
      </trkpt>
      <trkpt lat="42.779755" lon="-7.516623">
        <ele>709.072</ele>
        <time>2015-08-16T11:56:15Z</time>
      </trkpt>
      <trkpt lat="42.779766" lon="-7.516754">
        <ele>708.090</ele>
        <time>2015-08-16T11:56:22Z</time>
      </trkpt>
      <trkpt lat="42.779804" lon="-7.516874">
        <ele>708.027</ele>
        <time>2015-08-16T11:56:29Z</time>
      </trkpt>
      <trkpt lat="42.779852" lon="-7.516985">
        <ele>707.095</ele>
        <time>2015-08-16T11:56:36Z</time>
      </trkpt>
      <trkpt lat="42.779899" lon="-7.517094">
        <ele>708.089</ele>
        <time>2015-08-16T11:56:43Z</time>
      </trkpt>
      <trkpt lat="42.779946" lon="-7.517208">
        <ele>709.016</ele>
        <time>2015-08-16T11:56:50Z</time>
      </trkpt>
      <trkpt lat="42.779979" lon="-7.517326">
        <ele>712.076</ele>
        <time>2015-08-16T11:56:57Z</time>
      </trkpt>
      <trkpt lat="42.780024" lon="-7.517438">
        <ele>714.013</ele>
        <time>2015-08-16T11:57:04Z</time>
      </trkpt>
      <trkpt lat="42.780072" lon="-7.517548">
        <ele>713.008</ele>
        <time>2015-08-16T11:57:11Z</time>
      </trkpt>
      <trkpt lat="42.780119" lon="-7.517672">
        <ele>713.022</ele>
        <time>2015-08-16T11:57:18Z</time>
      </trkpt>
      <trkpt lat="42.780142" lon="-7.517796">
        <ele>716.071</ele>
        <time>2015-08-16T11:57:25Z</time>
      </trkpt>
      <trkpt lat="42.780163" lon="-7.517919">
        <ele>718.075</ele>
        <time>2015-08-16T11:57:33Z</time>
      </trkpt>
      <trkpt lat="42.780187" lon="-7.518049">
        <ele>717.060</ele>
        <time>2015-08-16T11:57:41Z</time>
      </trkpt>
      <trkpt lat="42.780217" lon="-7.518183">
        <ele>716.088</ele>
        <time>2015-08-16T11:57:49Z</time>
      </trkpt>
      <trkpt lat="42.780242" lon="-7.518309">
        <ele>718.025</ele>
        <time>2015-08-16T11:57:56Z</time>
      </trkpt>
      <trkpt lat="42.780262" lon="-7.518442">
        <ele>717.093</ele>
        <time>2015-08-16T11:58:06Z</time>
      </trkpt>
      <trkpt lat="42.780304" lon="-7.518555">
        <ele>720.037</ele>
        <time>2015-08-16T11:58:13Z</time>
      </trkpt>
      <trkpt lat="42.780321" lon="-7.518682">
        <ele>721.073</ele>
        <time>2015-08-16T11:58:21Z</time>
      </trkpt>
      <trkpt lat="42.780349" lon="-7.518798">
        <ele>721.085</ele>
        <time>2015-08-16T11:58:27Z</time>
      </trkpt>
      <trkpt lat="42.780384" lon="-7.518920">
        <ele>721.013</ele>
        <time>2015-08-16T11:58:34Z</time>
      </trkpt>
      <trkpt lat="42.780421" lon="-7.519045">
        <ele>719.008</ele>
        <time>2015-08-16T11:58:41Z</time>
      </trkpt>
      <trkpt lat="42.780459" lon="-7.519171">
        <ele>718.058</ele>
        <time>2015-08-16T11:58:48Z</time>
      </trkpt>
      <trkpt lat="42.780512" lon="-7.519277">
        <ele>719.077</ele>
        <time>2015-08-16T11:58:55Z</time>
      </trkpt>
      <trkpt lat="42.780581" lon="-7.519381">
        <ele>720.081</ele>
        <time>2015-08-16T11:59:03Z</time>
      </trkpt>
      <trkpt lat="42.780656" lon="-7.519463">
        <ele>720.096</ele>
        <time>2015-08-16T11:59:09Z</time>
      </trkpt>
      <trkpt lat="42.780738" lon="-7.519550">
        <ele>719.074</ele>
        <time>2015-08-16T11:59:16Z</time>
      </trkpt>
      <trkpt lat="42.780828" lon="-7.519615">
        <ele>718.041</ele>
        <time>2015-08-16T11:59:24Z</time>
      </trkpt>
      <trkpt lat="42.780911" lon="-7.519681">
        <ele>717.099</ele>
        <time>2015-08-16T11:59:30Z</time>
      </trkpt>
      <trkpt lat="42.780988" lon="-7.519765">
        <ele>718.083</ele>
        <time>2015-08-16T11:59:37Z</time>
      </trkpt>
      <trkpt lat="42.781062" lon="-7.519843">
        <ele>717.032</ele>
        <time>2015-08-16T11:59:44Z</time>
      </trkpt>
      <trkpt lat="42.781137" lon="-7.519939">
        <ele>718.092</ele>
        <time>2015-08-16T11:59:52Z</time>
      </trkpt>
      <trkpt lat="42.781201" lon="-7.520031">
        <ele>718.011</ele>
        <time>2015-08-16T11:59:59Z</time>
      </trkpt>
      <trkpt lat="42.781250" lon="-7.520140">
        <ele>717.008</ele>
        <time>2015-08-16T12:00:06Z</time>
      </trkpt>
      <trkpt lat="42.781276" lon="-7.520266">
        <ele>716.034</ele>
        <time>2015-08-16T12:00:13Z</time>
      </trkpt>
      <trkpt lat="42.781305" lon="-7.520387">
        <ele>715.033</ele>
        <time>2015-08-16T12:00:20Z</time>
      </trkpt>
      <trkpt lat="42.781346" lon="-7.520499">
        <ele>715.037</ele>
        <time>2015-08-16T12:00:27Z</time>
      </trkpt>
      <trkpt lat="42.781394" lon="-7.520608">
        <ele>715.032</ele>
        <time>2015-08-16T12:00:34Z</time>
      </trkpt>
      <trkpt lat="42.781448" lon="-7.520718">
        <ele>715.020</ele>
        <time>2015-08-16T12:00:41Z</time>
      </trkpt>
      <trkpt lat="42.781545" lon="-7.520778">
        <ele>714.077</ele>
        <time>2015-08-16T12:00:48Z</time>
      </trkpt>
      <trkpt lat="42.781637" lon="-7.520770">
        <ele>713.065</ele>
        <time>2015-08-16T12:00:54Z</time>
      </trkpt>
      <trkpt lat="42.781739" lon="-7.520738">
        <ele>711.029</ele>
        <time>2015-08-16T12:01:01Z</time>
      </trkpt>
      <trkpt lat="42.781837" lon="-7.520731">
        <ele>709.027</ele>
        <time>2015-08-16T12:01:08Z</time>
      </trkpt>
      <trkpt lat="42.781926" lon="-7.520773">
        <ele>712.068</ele>
        <time>2015-08-16T12:01:17Z</time>
      </trkpt>
      <trkpt lat="42.781996" lon="-7.520863">
        <ele>713.014</ele>
        <time>2015-08-16T12:01:24Z</time>
      </trkpt>
      <trkpt lat="42.782050" lon="-7.520979">
        <ele>711.008</ele>
        <time>2015-08-16T12:01:31Z</time>
      </trkpt>
      <trkpt lat="42.782100" lon="-7.521097">
        <ele>711.063</ele>
        <time>2015-08-16T12:01:38Z</time>
      </trkpt>
      <trkpt lat="42.782184" lon="-7.521158">
        <ele>709.032</ele>
        <time>2015-08-16T12:02:00Z</time>
      </trkpt>
      <trkpt lat="42.782279" lon="-7.521192">
        <ele>709.036</ele>
        <time>2015-08-16T12:02:11Z</time>
      </trkpt>
      <trkpt lat="42.782381" lon="-7.521180">
        <ele>709.081</ele>
        <time>2015-08-16T12:02:18Z</time>
      </trkpt>
      <trkpt lat="42.782470" lon="-7.521133">
        <ele>707.019</ele>
        <time>2015-08-16T12:02:25Z</time>
      </trkpt>
      <trkpt lat="42.782556" lon="-7.521079">
        <ele>705.026</ele>
        <time>2015-08-16T12:02:32Z</time>
      </trkpt>
      <trkpt lat="42.782655" lon="-7.521068">
        <ele>705.014</ele>
        <time>2015-08-16T12:02:39Z</time>
      </trkpt>
      <trkpt lat="42.782749" lon="-7.521061">
        <ele>706.078</ele>
        <time>2015-08-16T12:02:45Z</time>
      </trkpt>
      <trkpt lat="42.782856" lon="-7.521068">
        <ele>705.045</ele>
        <time>2015-08-16T12:02:51Z</time>
      </trkpt>
      <trkpt lat="42.782951" lon="-7.521122">
        <ele>706.047</ele>
        <time>2015-08-16T12:02:57Z</time>
      </trkpt>
      <trkpt lat="42.783023" lon="-7.521195">
        <ele>708.011</ele>
        <time>2015-08-16T12:03:03Z</time>
      </trkpt>
      <trkpt lat="42.783112" lon="-7.521213">
        <ele>708.008</ele>
        <time>2015-08-16T12:03:10Z</time>
      </trkpt>
      <trkpt lat="42.783201" lon="-7.521192">
        <ele>707.055</ele>
        <time>2015-08-16T12:03:17Z</time>
      </trkpt>
      <trkpt lat="42.783289" lon="-7.521227">
        <ele>707.034</ele>
        <time>2015-08-16T12:03:25Z</time>
      </trkpt>
      <trkpt lat="42.783373" lon="-7.521290">
        <ele>705.088</ele>
        <time>2015-08-16T12:03:38Z</time>
      </trkpt>
      <trkpt lat="42.783465" lon="-7.521359">
        <ele>701.033</ele>
        <time>2015-08-16T12:03:45Z</time>
      </trkpt>
      <trkpt lat="42.783563" lon="-7.521362">
        <ele>699.031</ele>
        <time>2015-08-16T12:03:51Z</time>
      </trkpt>
      <trkpt lat="42.783658" lon="-7.521315">
        <ele>696.058</ele>
        <time>2015-08-16T12:03:57Z</time>
      </trkpt>
      <trkpt lat="42.783752" lon="-7.521275">
        <ele>696.016</ele>
        <time>2015-08-16T12:04:03Z</time>
      </trkpt>
      <trkpt lat="42.783831" lon="-7.521212">
        <ele>700.010</ele>
        <time>2015-08-16T12:04:10Z</time>
      </trkpt>
      <trkpt lat="42.783900" lon="-7.521129">
        <ele>702.064</ele>
        <time>2015-08-16T12:04:19Z</time>
      </trkpt>
      <trkpt lat="42.783991" lon="-7.521064">
        <ele>701.006</ele>
        <time>2015-08-16T12:04:27Z</time>
      </trkpt>
      <trkpt lat="42.784095" lon="-7.521043">
        <ele>703.016</ele>
        <time>2015-08-16T12:04:34Z</time>
      </trkpt>
      <trkpt lat="42.784187" lon="-7.521082">
        <ele>702.008</ele>
        <time>2015-08-16T12:04:40Z</time>
      </trkpt>
      <trkpt lat="42.784273" lon="-7.521140">
        <ele>702.087</ele>
        <time>2015-08-16T12:04:47Z</time>
      </trkpt>
      <trkpt lat="42.784357" lon="-7.521191">
        <ele>703.036</ele>
        <time>2015-08-16T12:04:55Z</time>
      </trkpt>
      <trkpt lat="42.784443" lon="-7.521243">
        <ele>703.020</ele>
        <time>2015-08-16T12:05:03Z</time>
      </trkpt>
      <trkpt lat="42.784536" lon="-7.521290">
        <ele>703.015</ele>
        <time>2015-08-16T12:05:12Z</time>
      </trkpt>
      <trkpt lat="42.784620" lon="-7.521338">
        <ele>703.073</ele>
        <time>2015-08-16T12:05:20Z</time>
      </trkpt>
      <trkpt lat="42.784718" lon="-7.521383">
        <ele>705.050</ele>
        <time>2015-08-16T12:05:28Z</time>
      </trkpt>
      <trkpt lat="42.784803" lon="-7.521427">
        <ele>705.028</ele>
        <time>2015-08-16T12:05:38Z</time>
      </trkpt>
      <trkpt lat="42.784893" lon="-7.521478">
        <ele>705.062</ele>
        <time>2015-08-16T12:05:45Z</time>
      </trkpt>
      <trkpt lat="42.784976" lon="-7.521566">
        <ele>705.019</ele>
        <time>2015-08-16T12:05:53Z</time>
      </trkpt>
      <trkpt lat="42.785044" lon="-7.521664">
        <ele>706.009</ele>
        <time>2015-08-16T12:06:01Z</time>
      </trkpt>
      <trkpt lat="42.785044" lon="-7.521664">
        <ele>706.019</ele>
        <time>2015-08-16T12:06:01Z</time>
      </trkpt>
      <trkpt lat="42.785115" lon="-7.521760">
        <ele>704.008</ele>
        <time>2015-08-16T12:06:09Z</time>
      </trkpt>
      <trkpt lat="42.785115" lon="-7.521760">
        <ele>704.082</ele>
        <time>2015-08-16T12:06:09Z</time>
      </trkpt>
      <trkpt lat="42.785168" lon="-7.521869">
        <ele>704.061</ele>
        <time>2015-08-16T12:06:17Z</time>
      </trkpt>
      <trkpt lat="42.785239" lon="-7.521959">
        <ele>706.095</ele>
        <time>2015-08-16T12:06:25Z</time>
      </trkpt>
      <trkpt lat="42.785304" lon="-7.522058">
        <ele>705.020</ele>
        <time>2015-08-16T12:06:33Z</time>
      </trkpt>
      <trkpt lat="42.785315" lon="-7.522182">
        <ele>705.088</ele>
        <time>2015-08-16T12:06:42Z</time>
      </trkpt>
      <trkpt lat="42.785294" lon="-7.522301">
        <ele>706.035</ele>
        <time>2015-08-16T12:06:51Z</time>
      </trkpt>
      <trkpt lat="42.785270" lon="-7.522436">
        <ele>706.093</ele>
        <time>2015-08-16T12:07:04Z</time>
      </trkpt>
      <trkpt lat="42.785242" lon="-7.522554">
        <ele>709.077</ele>
        <time>2015-08-16T12:07:10Z</time>
      </trkpt>
      <trkpt lat="42.785202" lon="-7.522673">
        <ele>709.025</ele>
        <time>2015-08-16T12:07:17Z</time>
      </trkpt>
      <trkpt lat="42.785161" lon="-7.522794">
        <ele>708.026</ele>
        <time>2015-08-16T12:07:25Z</time>
      </trkpt>
      <trkpt lat="42.785120" lon="-7.522913">
        <ele>706.008</ele>
        <time>2015-08-16T12:07:33Z</time>
      </trkpt>
      <trkpt lat="42.785094" lon="-7.523035">
        <ele>708.008</ele>
        <time>2015-08-16T12:07:43Z</time>
      </trkpt>
      <trkpt lat="42.785042" lon="-7.523143">
        <ele>709.013</ele>
        <time>2015-08-16T12:07:48Z</time>
      </trkpt>
      <trkpt lat="42.784982" lon="-7.523251">
        <ele>711.022</ele>
        <time>2015-08-16T12:07:54Z</time>
      </trkpt>
      <trkpt lat="42.784934" lon="-7.523373">
        <ele>712.056</ele>
        <time>2015-08-16T12:08:03Z</time>
      </trkpt>
      <trkpt lat="42.784868" lon="-7.523484">
        <ele>713.071</ele>
        <time>2015-08-16T12:08:10Z</time>
      </trkpt>
      <trkpt lat="42.784814" lon="-7.523583">
        <ele>713.069</ele>
        <time>2015-08-16T12:08:16Z</time>
      </trkpt>
      <trkpt lat="42.784758" lon="-7.523697">
        <ele>714.076</ele>
        <time>2015-08-16T12:08:23Z</time>
      </trkpt>
      <trkpt lat="42.784698" lon="-7.523807">
        <ele>715.034</ele>
        <time>2015-08-16T12:08:31Z</time>
      </trkpt>
      <trkpt lat="42.784646" lon="-7.523938">
        <ele>716.078</ele>
        <time>2015-08-16T12:08:43Z</time>
      </trkpt>
      <trkpt lat="42.784614" lon="-7.524053">
        <ele>715.093</ele>
        <time>2015-08-16T12:08:49Z</time>
      </trkpt>
      <trkpt lat="42.784584" lon="-7.524172">
        <ele>716.065</ele>
        <time>2015-08-16T12:08:56Z</time>
      </trkpt>
      <trkpt lat="42.784535" lon="-7.524300">
        <ele>717.021</ele>
        <time>2015-08-16T12:09:03Z</time>
      </trkpt>
      <trkpt lat="42.784494" lon="-7.524419">
        <ele>718.008</ele>
        <time>2015-08-16T12:09:10Z</time>
      </trkpt>
      <trkpt lat="42.784457" lon="-7.524530">
        <ele>718.050</ele>
        <time>2015-08-16T12:09:17Z</time>
      </trkpt>
      <trkpt lat="42.784412" lon="-7.524638">
        <ele>720.039</ele>
        <time>2015-08-16T12:09:31Z</time>
      </trkpt>
      <trkpt lat="42.784382" lon="-7.524757">
        <ele>720.023</ele>
        <time>2015-08-16T12:09:57Z</time>
      </trkpt>
      <trkpt lat="42.784354" lon="-7.524877">
        <ele>718.018</ele>
        <time>2015-08-16T12:10:04Z</time>
      </trkpt>
      <trkpt lat="42.784322" lon="-7.524999">
        <ele>719.046</ele>
        <time>2015-08-16T12:10:12Z</time>
      </trkpt>
      <trkpt lat="42.784288" lon="-7.525124">
        <ele>718.093</ele>
        <time>2015-08-16T12:10:19Z</time>
      </trkpt>
      <trkpt lat="42.784244" lon="-7.525250">
        <ele>718.091</ele>
        <time>2015-08-16T12:10:26Z</time>
      </trkpt>
      <trkpt lat="42.784193" lon="-7.525367">
        <ele>717.015</ele>
        <time>2015-08-16T12:10:33Z</time>
      </trkpt>
      <trkpt lat="42.784133" lon="-7.525462">
        <ele>716.018</ele>
        <time>2015-08-16T12:10:41Z</time>
      </trkpt>
      <trkpt lat="42.784083" lon="-7.525575">
        <ele>716.098</ele>
        <time>2015-08-16T12:10:48Z</time>
      </trkpt>
      <trkpt lat="42.784061" lon="-7.525699">
        <ele>714.017</ele>
        <time>2015-08-16T12:10:55Z</time>
      </trkpt>
      <trkpt lat="42.784059" lon="-7.525827">
        <ele>713.008</ele>
        <time>2015-08-16T12:11:02Z</time>
      </trkpt>
      <trkpt lat="42.784060" lon="-7.525959">
        <ele>712.062</ele>
        <time>2015-08-16T12:11:08Z</time>
      </trkpt>
      <trkpt lat="42.784078" lon="-7.526096">
        <ele>713.011</ele>
        <time>2015-08-16T12:11:14Z</time>
      </trkpt>
      <trkpt lat="42.784088" lon="-7.526232">
        <ele>713.035</ele>
        <time>2015-08-16T12:11:20Z</time>
      </trkpt>
      <trkpt lat="42.784077" lon="-7.526367">
        <ele>713.010</ele>
        <time>2015-08-16T12:11:25Z</time>
      </trkpt>
      <trkpt lat="42.784054" lon="-7.526494">
        <ele>712.098</ele>
        <time>2015-08-16T12:11:31Z</time>
      </trkpt>
      <trkpt lat="42.784020" lon="-7.526607">
        <ele>713.025</ele>
        <time>2015-08-16T12:11:37Z</time>
      </trkpt>
      <trkpt lat="42.783971" lon="-7.526710">
        <ele>713.053</ele>
        <time>2015-08-16T12:11:43Z</time>
      </trkpt>
      <trkpt lat="42.783912" lon="-7.526819">
        <ele>712.087</ele>
        <time>2015-08-16T12:11:50Z</time>
      </trkpt>
      <trkpt lat="42.783859" lon="-7.526931">
        <ele>712.048</ele>
        <time>2015-08-16T12:11:57Z</time>
      </trkpt>
      <trkpt lat="42.783807" lon="-7.527044">
        <ele>711.061</ele>
        <time>2015-08-16T12:12:04Z</time>
      </trkpt>
      <trkpt lat="42.783757" lon="-7.527169">
        <ele>711.017</ele>
        <time>2015-08-16T12:12:11Z</time>
      </trkpt>
      <trkpt lat="42.783707" lon="-7.527285">
        <ele>710.008</ele>
        <time>2015-08-16T12:12:18Z</time>
      </trkpt>
      <trkpt lat="42.783675" lon="-7.527414">
        <ele>712.025</ele>
        <time>2015-08-16T12:12:26Z</time>
      </trkpt>
      <trkpt lat="42.783664" lon="-7.527543">
        <ele>711.054</ele>
        <time>2015-08-16T12:12:32Z</time>
      </trkpt>
      <trkpt lat="42.783649" lon="-7.527667">
        <ele>705.018</ele>
        <time>2015-08-16T12:12:39Z</time>
      </trkpt>
      <trkpt lat="42.783648" lon="-7.527819">
        <ele>705.083</ele>
        <time>2015-08-16T12:12:47Z</time>
      </trkpt>
      <trkpt lat="42.783661" lon="-7.527952">
        <ele>708.011</ele>
        <time>2015-08-16T12:12:55Z</time>
      </trkpt>
      <trkpt lat="42.783691" lon="-7.528086">
        <ele>708.098</ele>
        <time>2015-08-16T12:13:03Z</time>
      </trkpt>
      <trkpt lat="42.783711" lon="-7.528213">
        <ele>709.026</ele>
        <time>2015-08-16T12:13:10Z</time>
      </trkpt>
      <trkpt lat="42.783731" lon="-7.528338">
        <ele>708.010</ele>
        <time>2015-08-16T12:13:17Z</time>
      </trkpt>
      <trkpt lat="42.783747" lon="-7.528466">
        <ele>709.075</ele>
        <time>2015-08-16T12:13:24Z</time>
      </trkpt>
      <trkpt lat="42.783760" lon="-7.528592">
        <ele>711.028</ele>
        <time>2015-08-16T12:13:31Z</time>
      </trkpt>
      <trkpt lat="42.783769" lon="-7.528716">
        <ele>712.020</ele>
        <time>2015-08-16T12:13:38Z</time>
      </trkpt>
      <trkpt lat="42.783786" lon="-7.528840">
        <ele>710.008</ele>
        <time>2015-08-16T12:13:45Z</time>
      </trkpt>
      <trkpt lat="42.783791" lon="-7.528967">
        <ele>710.018</ele>
        <time>2015-08-16T12:13:52Z</time>
      </trkpt>
      <trkpt lat="42.783806" lon="-7.529091">
        <ele>710.027</ele>
        <time>2015-08-16T12:13:59Z</time>
      </trkpt>
      <trkpt lat="42.783831" lon="-7.529212">
        <ele>711.021</ele>
        <time>2015-08-16T12:14:06Z</time>
      </trkpt>
      <trkpt lat="42.783837" lon="-7.529346">
        <ele>710.086</ele>
        <time>2015-08-16T12:14:13Z</time>
      </trkpt>
      <trkpt lat="42.783833" lon="-7.529482">
        <ele>711.094</ele>
        <time>2015-08-16T12:14:20Z</time>
      </trkpt>
      <trkpt lat="42.783835" lon="-7.529612">
        <ele>705.051</ele>
        <time>2015-08-16T12:14:30Z</time>
      </trkpt>
      <trkpt lat="42.783912" lon="-7.529705">
        <ele>709.039</ele>
        <time>2015-08-16T12:14:38Z</time>
      </trkpt>
      <trkpt lat="42.783926" lon="-7.529828">
        <ele>709.073</ele>
        <time>2015-08-16T12:14:45Z</time>
      </trkpt>
      <trkpt lat="42.783934" lon="-7.529955">
        <ele>710.046</ele>
        <time>2015-08-16T12:14:53Z</time>
      </trkpt>
      <trkpt lat="42.783942" lon="-7.530082">
        <ele>713.088</ele>
        <time>2015-08-16T12:15:03Z</time>
      </trkpt>
      <trkpt lat="42.783947" lon="-7.530207">
        <ele>715.016</ele>
        <time>2015-08-16T12:15:09Z</time>
      </trkpt>
      <trkpt lat="42.784001" lon="-7.530311">
        <ele>713.008</ele>
        <time>2015-08-16T12:15:21Z</time>
      </trkpt>
      <trkpt lat="42.783979" lon="-7.530442">
        <ele>716.025</ele>
        <time>2015-08-16T12:15:27Z</time>
      </trkpt>
      <trkpt lat="42.783953" lon="-7.530572">
        <ele>718.064</ele>
        <time>2015-08-16T12:15:33Z</time>
      </trkpt>
      <trkpt lat="42.783920" lon="-7.530726">
        <ele>717.048</ele>
        <time>2015-08-16T12:15:40Z</time>
      </trkpt>
      <trkpt lat="42.783920" lon="-7.530726">
        <ele>717.073</ele>
        <time>2015-08-16T12:15:40Z</time>
      </trkpt>
      <trkpt lat="42.783870" lon="-7.530848">
        <ele>717.061</ele>
        <time>2015-08-16T12:15:47Z</time>
      </trkpt>
      <trkpt lat="42.783812" lon="-7.530951">
        <ele>718.078</ele>
        <time>2015-08-16T12:15:54Z</time>
      </trkpt>
      <trkpt lat="42.783740" lon="-7.531043">
        <ele>718.046</ele>
        <time>2015-08-16T12:16:00Z</time>
      </trkpt>
      <trkpt lat="42.783740" lon="-7.531043">
        <ele>718.070</ele>
        <time>2015-08-16T12:16:00Z</time>
      </trkpt>
      <trkpt lat="42.783668" lon="-7.531125">
        <ele>718.038</ele>
        <time>2015-08-16T12:16:06Z</time>
      </trkpt>
      <trkpt lat="42.783668" lon="-7.531125">
        <ele>718.070</ele>
        <time>2015-08-16T12:16:06Z</time>
      </trkpt>
      <trkpt lat="42.783602" lon="-7.531228">
        <ele>717.017</ele>
        <time>2015-08-16T12:16:12Z</time>
      </trkpt>
      <trkpt lat="42.783551" lon="-7.531330">
        <ele>717.008</ele>
        <time>2015-08-16T12:16:19Z</time>
      </trkpt>
      <trkpt lat="42.783539" lon="-7.531473">
        <ele>717.054</ele>
        <time>2015-08-16T12:16:30Z</time>
      </trkpt>
      <trkpt lat="42.783488" lon="-7.531592">
        <ele>716.083</ele>
        <time>2015-08-16T12:16:35Z</time>
      </trkpt>
      <trkpt lat="42.783475" lon="-7.531721">
        <ele>713.087</ele>
        <time>2015-08-16T12:16:41Z</time>
      </trkpt>
      <trkpt lat="42.783487" lon="-7.531850">
        <ele>713.022</ele>
        <time>2015-08-16T12:16:48Z</time>
      </trkpt>
      <trkpt lat="42.783491" lon="-7.531973">
        <ele>718.030</ele>
        <time>2015-08-16T12:16:57Z</time>
      </trkpt>
      <trkpt lat="42.783478" lon="-7.532102">
        <ele>716.097</ele>
        <time>2015-08-16T12:17:04Z</time>
      </trkpt>
      <trkpt lat="42.783501" lon="-7.532231">
        <ele>712.045</ele>
        <time>2015-08-16T12:17:12Z</time>
      </trkpt>
      <trkpt lat="42.783505" lon="-7.532361">
        <ele>714.049</ele>
        <time>2015-08-16T12:17:18Z</time>
      </trkpt>
      <trkpt lat="42.783514" lon="-7.532493">
        <ele>715.072</ele>
        <time>2015-08-16T12:17:25Z</time>
      </trkpt>
      <trkpt lat="42.783542" lon="-7.532625">
        <ele>717.013</ele>
        <time>2015-08-16T12:17:32Z</time>
      </trkpt>
      <trkpt lat="42.783573" lon="-7.532756">
        <ele>718.014</ele>
        <time>2015-08-16T12:17:45Z</time>
      </trkpt>
      <trkpt lat="42.783588" lon="-7.532893">
        <ele>716.008</ele>
        <time>2015-08-16T12:17:51Z</time>
      </trkpt>
      <trkpt lat="42.783596" lon="-7.533030">
        <ele>716.078</ele>
        <time>2015-08-16T12:17:58Z</time>
      </trkpt>
      <trkpt lat="42.783614" lon="-7.533155">
        <ele>716.047</ele>
        <time>2015-08-16T12:18:05Z</time>
      </trkpt>
      <trkpt lat="42.783625" lon="-7.533294">
        <ele>716.031</ele>
        <time>2015-08-16T12:18:12Z</time>
      </trkpt>
      <trkpt lat="42.783555" lon="-7.533390">
        <ele>718.016</ele>
        <time>2015-08-16T12:18:44Z</time>
      </trkpt>
      <trkpt lat="42.783507" lon="-7.533509">
        <ele>718.094</ele>
        <time>2015-08-16T12:18:53Z</time>
      </trkpt>
      <trkpt lat="42.783501" lon="-7.533646">
        <ele>718.011</ele>
        <time>2015-08-16T12:19:01Z</time>
      </trkpt>
      <trkpt lat="42.783492" lon="-7.533780">
        <ele>717.059</ele>
        <time>2015-08-16T12:19:08Z</time>
      </trkpt>
      <trkpt lat="42.783492" lon="-7.533916">
        <ele>718.073</ele>
        <time>2015-08-16T12:19:15Z</time>
      </trkpt>
      <trkpt lat="42.783500" lon="-7.534040">
        <ele>717.032</ele>
        <time>2015-08-16T12:19:22Z</time>
      </trkpt>
      <trkpt lat="42.783500" lon="-7.534040">
        <ele>717.092</ele>
        <time>2015-08-16T12:19:22Z</time>
      </trkpt>
      <trkpt lat="42.783503" lon="-7.534167">
        <ele>716.011</ele>
        <time>2015-08-16T12:19:29Z</time>
      </trkpt>
      <trkpt lat="42.783499" lon="-7.534296">
        <ele>716.008</ele>
        <time>2015-08-16T12:19:37Z</time>
      </trkpt>
      <trkpt lat="42.783511" lon="-7.534423">
        <ele>715.094</ele>
        <time>2015-08-16T12:19:46Z</time>
      </trkpt>
      <trkpt lat="42.783517" lon="-7.534577">
        <ele>713.023</ele>
        <time>2015-08-16T12:19:55Z</time>
      </trkpt>
      <trkpt lat="42.783516" lon="-7.534706">
        <ele>712.067</ele>
        <time>2015-08-16T12:20:03Z</time>
      </trkpt>
      <trkpt lat="42.783535" lon="-7.534836">
        <ele>710.062</ele>
        <time>2015-08-16T12:20:11Z</time>
      </trkpt>
      <trkpt lat="42.783545" lon="-7.534958">
        <ele>708.020</ele>
        <time>2015-08-16T12:20:18Z</time>
      </trkpt>
      <trkpt lat="42.783589" lon="-7.535071">
        <ele>708.077</ele>
        <time>2015-08-16T12:20:29Z</time>
      </trkpt>
      <trkpt lat="42.783621" lon="-7.535200">
        <ele>706.075</ele>
        <time>2015-08-16T12:20:35Z</time>
      </trkpt>
      <trkpt lat="42.783632" lon="-7.535330">
        <ele>705.069</ele>
        <time>2015-08-16T12:20:49Z</time>
      </trkpt>
      <trkpt lat="42.783655" lon="-7.535453">
        <ele>702.031</ele>
        <time>2015-08-16T12:20:56Z</time>
      </trkpt>
      <trkpt lat="42.783655" lon="-7.535577">
        <ele>700.061</ele>
        <time>2015-08-16T12:21:03Z</time>
      </trkpt>
      <trkpt lat="42.783670" lon="-7.535710">
        <ele>699.007</ele>
        <time>2015-08-16T12:21:11Z</time>
      </trkpt>
      <trkpt lat="42.783717" lon="-7.535819">
        <ele>696.008</ele>
        <time>2015-08-16T12:21:18Z</time>
      </trkpt>
      <trkpt lat="42.783752" lon="-7.535940">
        <ele>694.034</ele>
        <time>2015-08-16T12:21:25Z</time>
      </trkpt>
      <trkpt lat="42.783772" lon="-7.536068">
        <ele>693.043</ele>
        <time>2015-08-16T12:21:37Z</time>
      </trkpt>
      <trkpt lat="42.783793" lon="-7.536207">
        <ele>691.067</ele>
        <time>2015-08-16T12:21:44Z</time>
      </trkpt>
      <trkpt lat="42.783815" lon="-7.536344">
        <ele>690.062</ele>
        <time>2015-08-16T12:21:51Z</time>
      </trkpt>
      <trkpt lat="42.783815" lon="-7.536472">
        <ele>690.030</ele>
        <time>2015-08-16T12:21:58Z</time>
      </trkpt>
      <trkpt lat="42.783800" lon="-7.536594">
        <ele>690.017</ele>
        <time>2015-08-16T12:22:20Z</time>
      </trkpt>
      <trkpt lat="42.783781" lon="-7.536715">
        <ele>689.075</ele>
        <time>2015-08-16T12:22:38Z</time>
      </trkpt>
      <trkpt lat="42.783765" lon="-7.536837">
        <ele>689.079</ele>
        <time>2015-08-16T12:22:45Z</time>
      </trkpt>
      <trkpt lat="42.783797" lon="-7.536711">
        <ele>686.094</ele>
        <time>2015-08-16T12:24:42Z</time>
      </trkpt>
      <trkpt lat="42.783819" lon="-7.536593">
        <ele>688.057</ele>
        <time>2015-08-16T12:25:57Z</time>
      </trkpt>
      <trkpt lat="42.783853" lon="-7.536712">
        <ele>690.022</ele>
        <time>2015-08-16T12:27:02Z</time>
      </trkpt>
      <trkpt lat="42.783860" lon="-7.536836">
        <ele>690.008</ele>
        <time>2015-08-16T12:27:20Z</time>
      </trkpt>
      <trkpt lat="42.783881" lon="-7.536959">
        <ele>691.010</ele>
        <time>2015-08-16T12:27:30Z</time>
      </trkpt>
      <trkpt lat="42.783899" lon="-7.537091">
        <ele>690.059</ele>
        <time>2015-08-16T12:27:39Z</time>
      </trkpt>
      <trkpt lat="42.783915" lon="-7.537212">
        <ele>689.013</ele>
        <time>2015-08-16T12:27:48Z</time>
      </trkpt>
      <trkpt lat="42.783916" lon="-7.537338">
        <ele>689.058</ele>
        <time>2015-08-16T12:27:55Z</time>
      </trkpt>
      <trkpt lat="42.783934" lon="-7.537474">
        <ele>691.066</ele>
        <time>2015-08-16T12:28:03Z</time>
      </trkpt>
      <trkpt lat="42.783959" lon="-7.537607">
        <ele>691.043</ele>
        <time>2015-08-16T12:28:11Z</time>
      </trkpt>
      <trkpt lat="42.783983" lon="-7.537741">
        <ele>691.071</ele>
        <time>2015-08-16T12:28:19Z</time>
      </trkpt>
      <trkpt lat="42.784014" lon="-7.537873">
        <ele>693.045</ele>
        <time>2015-08-16T12:28:27Z</time>
      </trkpt>
      <trkpt lat="42.784048" lon="-7.538000">
        <ele>696.057</ele>
        <time>2015-08-16T12:28:37Z</time>
      </trkpt>
      <trkpt lat="42.784089" lon="-7.538126">
        <ele>695.000</ele>
        <time>2015-08-16T12:28:45Z</time>
      </trkpt>
      <trkpt lat="42.784122" lon="-7.538255">
        <ele>695.020</ele>
        <time>2015-08-16T12:28:52Z</time>
      </trkpt>
      <trkpt lat="42.784151" lon="-7.538387">
        <ele>697.008</ele>
        <time>2015-08-16T12:29:00Z</time>
      </trkpt>
      <trkpt lat="42.784180" lon="-7.538512">
        <ele>696.086</ele>
        <time>2015-08-16T12:29:08Z</time>
      </trkpt>
      <trkpt lat="42.784202" lon="-7.538637">
        <ele>697.015</ele>
        <time>2015-08-16T12:29:17Z</time>
      </trkpt>
      <trkpt lat="42.784228" lon="-7.538763">
        <ele>697.039</ele>
        <time>2015-08-16T12:29:25Z</time>
      </trkpt>
      <trkpt lat="42.784242" lon="-7.538899">
        <ele>697.024</ele>
        <time>2015-08-16T12:29:33Z</time>
      </trkpt>
      <trkpt lat="42.784245" lon="-7.539022">
        <ele>700.042</ele>
        <time>2015-08-16T12:29:41Z</time>
      </trkpt>
      <trkpt lat="42.784254" lon="-7.539153">
        <ele>701.099</ele>
        <time>2015-08-16T12:29:48Z</time>
      </trkpt>
      <trkpt lat="42.784249" lon="-7.539283">
        <ele>702.087</ele>
        <time>2015-08-16T12:29:55Z</time>
      </trkpt>
      <trkpt lat="42.784234" lon="-7.539417">
        <ele>700.071</ele>
        <time>2015-08-16T12:30:03Z</time>
      </trkpt>
      <trkpt lat="42.784226" lon="-7.539552">
        <ele>700.084</ele>
        <time>2015-08-16T12:30:11Z</time>
      </trkpt>
      <trkpt lat="42.784230" lon="-7.539675">
        <ele>699.007</ele>
        <time>2015-08-16T12:30:18Z</time>
      </trkpt>
      <trkpt lat="42.784245" lon="-7.539803">
        <ele>697.017</ele>
        <time>2015-08-16T12:30:25Z</time>
      </trkpt>
      <trkpt lat="42.784265" lon="-7.539930">
        <ele>698.008</ele>
        <time>2015-08-16T12:30:32Z</time>
      </trkpt>
      <trkpt lat="42.784277" lon="-7.540064">
        <ele>697.089</ele>
        <time>2015-08-16T12:30:40Z</time>
      </trkpt>
      <trkpt lat="42.784303" lon="-7.540186">
        <ele>695.028</ele>
        <time>2015-08-16T12:30:48Z</time>
      </trkpt>
      <trkpt lat="42.784320" lon="-7.540318">
        <ele>695.022</ele>
        <time>2015-08-16T12:30:55Z</time>
      </trkpt>
      <trkpt lat="42.784335" lon="-7.540448">
        <ele>693.027</ele>
        <time>2015-08-16T12:31:02Z</time>
      </trkpt>
      <trkpt lat="42.784370" lon="-7.540572">
        <ele>693.075</ele>
        <time>2015-08-16T12:31:09Z</time>
      </trkpt>
      <trkpt lat="42.784408" lon="-7.540696">
        <ele>691.012</ele>
        <time>2015-08-16T12:31:15Z</time>
      </trkpt>
      <trkpt lat="42.784443" lon="-7.540816">
        <ele>691.060</ele>
        <time>2015-08-16T12:31:22Z</time>
      </trkpt>
      <trkpt lat="42.784498" lon="-7.540917">
        <ele>691.074</ele>
        <time>2015-08-16T12:31:29Z</time>
      </trkpt>
      <trkpt lat="42.784565" lon="-7.541018">
        <ele>691.026</ele>
        <time>2015-08-16T12:31:36Z</time>
      </trkpt>
      <trkpt lat="42.784632" lon="-7.541103">
        <ele>691.047</ele>
        <time>2015-08-16T12:31:42Z</time>
      </trkpt>
      <trkpt lat="42.784699" lon="-7.541188">
        <ele>692.011</ele>
        <time>2015-08-16T12:31:48Z</time>
      </trkpt>
      <trkpt lat="42.784777" lon="-7.541275">
        <ele>692.008</ele>
        <time>2015-08-16T12:32:01Z</time>
      </trkpt>
      <trkpt lat="42.784827" lon="-7.541400">
        <ele>692.073</ele>
        <time>2015-08-16T12:32:09Z</time>
      </trkpt>
      <trkpt lat="42.784892" lon="-7.541519">
        <ele>693.032</ele>
        <time>2015-08-16T12:32:15Z</time>
      </trkpt>
      <trkpt lat="42.784942" lon="-7.541628">
        <ele>694.036</ele>
        <time>2015-08-16T12:32:21Z</time>
      </trkpt>
      <trkpt lat="42.784974" lon="-7.541751">
        <ele>694.081</ele>
        <time>2015-08-16T12:32:28Z</time>
      </trkpt>
      <trkpt lat="42.784976" lon="-7.541877">
        <ele>693.019</ele>
        <time>2015-08-16T12:32:35Z</time>
      </trkpt>
      <trkpt lat="42.785021" lon="-7.542001">
        <ele>690.026</ele>
        <time>2015-08-16T12:33:01Z</time>
      </trkpt>
      <trkpt lat="42.785050" lon="-7.542128">
        <ele>689.024</ele>
        <time>2015-08-16T12:33:08Z</time>
      </trkpt>
      <trkpt lat="42.785086" lon="-7.542249">
        <ele>690.048</ele>
        <time>2015-08-16T12:33:15Z</time>
      </trkpt>
      <trkpt lat="42.785173" lon="-7.542306">
        <ele>692.088</ele>
        <time>2015-08-16T12:33:22Z</time>
      </trkpt>
      <trkpt lat="42.785272" lon="-7.542341">
        <ele>693.024</ele>
        <time>2015-08-16T12:33:29Z</time>
      </trkpt>
      <trkpt lat="42.785337" lon="-7.542440">
        <ele>693.026</ele>
        <time>2015-08-16T12:33:36Z</time>
      </trkpt>
      <trkpt lat="42.785392" lon="-7.542548">
        <ele>695.008</ele>
        <time>2015-08-16T12:33:44Z</time>
      </trkpt>
      <trkpt lat="42.785453" lon="-7.542656">
        <ele>694.049</ele>
        <time>2015-08-16T12:33:53Z</time>
      </trkpt>
      <trkpt lat="42.785486" lon="-7.542782">
        <ele>696.098</ele>
        <time>2015-08-16T12:34:01Z</time>
      </trkpt>
      <trkpt lat="42.785519" lon="-7.542898">
        <ele>698.092</ele>
        <time>2015-08-16T12:34:14Z</time>
      </trkpt>
      <trkpt lat="42.785542" lon="-7.543035">
        <ele>699.017</ele>
        <time>2015-08-16T12:34:21Z</time>
      </trkpt>
      <trkpt lat="42.785561" lon="-7.543159">
        <ele>699.055</ele>
        <time>2015-08-16T12:34:28Z</time>
      </trkpt>
      <trkpt lat="42.785597" lon="-7.543280">
        <ele>697.082</ele>
        <time>2015-08-16T12:34:36Z</time>
      </trkpt>
      <trkpt lat="42.785662" lon="-7.543388">
        <ele>697.010</ele>
        <time>2015-08-16T12:34:44Z</time>
      </trkpt>
      <trkpt lat="42.785728" lon="-7.543481">
        <ele>699.024</ele>
        <time>2015-08-16T12:34:51Z</time>
      </trkpt>
      <trkpt lat="42.785791" lon="-7.543577">
        <ele>700.021</ele>
        <time>2015-08-16T12:34:58Z</time>
      </trkpt>
      <trkpt lat="42.785859" lon="-7.543680">
        <ele>699.041</ele>
        <time>2015-08-16T12:35:07Z</time>
      </trkpt>
      <trkpt lat="42.785906" lon="-7.543798">
        <ele>699.005</ele>
        <time>2015-08-16T12:35:16Z</time>
      </trkpt>
      <trkpt lat="42.785964" lon="-7.543901">
        <ele>699.008</ele>
        <time>2015-08-16T12:35:23Z</time>
      </trkpt>
      <trkpt lat="42.786021" lon="-7.544000">
        <ele>700.083</ele>
        <time>2015-08-16T12:35:30Z</time>
      </trkpt>
      <trkpt lat="42.786078" lon="-7.544104">
        <ele>700.092</ele>
        <time>2015-08-16T12:35:37Z</time>
      </trkpt>
      <trkpt lat="42.786136" lon="-7.544208">
        <ele>700.026</ele>
        <time>2015-08-16T12:35:45Z</time>
      </trkpt>
      <trkpt lat="42.786193" lon="-7.544311">
        <ele>699.081</ele>
        <time>2015-08-16T12:35:52Z</time>
      </trkpt>
      <trkpt lat="42.786227" lon="-7.544429">
        <ele>698.099</ele>
        <time>2015-08-16T12:35:58Z</time>
      </trkpt>
      <trkpt lat="42.786251" lon="-7.544552">
        <ele>701.086</ele>
        <time>2015-08-16T12:36:05Z</time>
      </trkpt>
      <trkpt lat="42.786251" lon="-7.544552">
        <ele>701.054</ele>
        <time>2015-08-16T12:36:05Z</time>
      </trkpt>
      <trkpt lat="42.786247" lon="-7.544680">
        <ele>701.088</ele>
        <time>2015-08-16T12:36:12Z</time>
      </trkpt>
      <trkpt lat="42.786241" lon="-7.544810">
        <ele>700.042</ele>
        <time>2015-08-16T12:36:19Z</time>
      </trkpt>
      <trkpt lat="42.786199" lon="-7.544941">
        <ele>701.022</ele>
        <time>2015-08-16T12:36:26Z</time>
      </trkpt>
      <trkpt lat="42.786161" lon="-7.545056">
        <ele>700.014</ele>
        <time>2015-08-16T12:36:32Z</time>
      </trkpt>
      <trkpt lat="42.786118" lon="-7.545183">
        <ele>702.008</ele>
        <time>2015-08-16T12:36:39Z</time>
      </trkpt>
      <trkpt lat="42.786067" lon="-7.545299">
        <ele>700.065</ele>
        <time>2015-08-16T12:36:46Z</time>
      </trkpt>
      <trkpt lat="42.786014" lon="-7.545415">
        <ele>699.034</ele>
        <time>2015-08-16T12:36:53Z</time>
      </trkpt>
      <trkpt lat="42.785958" lon="-7.545523">
        <ele>701.058</ele>
        <time>2015-08-16T12:37:00Z</time>
      </trkpt>
      <trkpt lat="42.785896" lon="-7.545621">
        <ele>699.053</ele>
        <time>2015-08-16T12:37:07Z</time>
      </trkpt>
      <trkpt lat="42.785821" lon="-7.545707">
        <ele>696.021</ele>
        <time>2015-08-16T12:37:16Z</time>
      </trkpt>
      <trkpt lat="42.785746" lon="-7.545799">
        <ele>694.058</ele>
        <time>2015-08-16T12:37:24Z</time>
      </trkpt>
      <trkpt lat="42.785673" lon="-7.545874">
        <ele>695.026</ele>
        <time>2015-08-16T12:37:31Z</time>
      </trkpt>
      <trkpt lat="42.785598" lon="-7.545948">
        <ele>695.080</ele>
        <time>2015-08-16T12:37:39Z</time>
      </trkpt>
      <trkpt lat="42.785517" lon="-7.546030">
        <ele>696.064</ele>
        <time>2015-08-16T12:37:48Z</time>
      </trkpt>
      <trkpt lat="42.785443" lon="-7.546118">
        <ele>695.006</ele>
        <time>2015-08-16T12:37:57Z</time>
      </trkpt>
      <trkpt lat="42.785359" lon="-7.546192">
        <ele>696.016</ele>
        <time>2015-08-16T12:38:06Z</time>
      </trkpt>
      <trkpt lat="42.785269" lon="-7.546244">
        <ele>694.008</ele>
        <time>2015-08-16T12:38:15Z</time>
      </trkpt>
      <trkpt lat="42.785194" lon="-7.546333">
        <ele>690.097</ele>
        <time>2015-08-16T12:38:23Z</time>
      </trkpt>
      <trkpt lat="42.785144" lon="-7.546446">
        <ele>689.066</ele>
        <time>2015-08-16T12:38:31Z</time>
      </trkpt>
      <trkpt lat="42.785085" lon="-7.546544">
        <ele>690.050</ele>
        <time>2015-08-16T12:38:37Z</time>
      </trkpt>
      <trkpt lat="42.785033" lon="-7.546664">
        <ele>691.055</ele>
        <time>2015-08-16T12:38:43Z</time>
      </trkpt>
      <trkpt lat="42.784999" lon="-7.546780">
        <ele>693.043</ele>
        <time>2015-08-16T12:38:49Z</time>
      </trkpt>
      <trkpt lat="42.784952" lon="-7.546888">
        <ele>695.040</ele>
        <time>2015-08-16T12:38:55Z</time>
      </trkpt>
      <trkpt lat="42.784888" lon="-7.546980">
        <ele>697.068</ele>
        <time>2015-08-16T12:39:01Z</time>
      </trkpt>
      <trkpt lat="42.784805" lon="-7.547055">
        <ele>698.042</ele>
        <time>2015-08-16T12:39:08Z</time>
      </trkpt>
      <trkpt lat="42.784724" lon="-7.547129">
        <ele>698.042</ele>
        <time>2015-08-16T12:39:15Z</time>
      </trkpt>
      <trkpt lat="42.784647" lon="-7.547199">
        <ele>698.022</ele>
        <time>2015-08-16T12:39:22Z</time>
      </trkpt>
      <trkpt lat="42.784585" lon="-7.547295">
        <ele>698.014</ele>
        <time>2015-08-16T12:39:29Z</time>
      </trkpt>
      <trkpt lat="42.784536" lon="-7.547407">
        <ele>696.008</ele>
        <time>2015-08-16T12:39:37Z</time>
      </trkpt>
      <trkpt lat="42.784513" lon="-7.547529">
        <ele>695.065</ele>
        <time>2015-08-16T12:39:44Z</time>
      </trkpt>
      <trkpt lat="42.784492" lon="-7.547652">
        <ele>696.084</ele>
        <time>2015-08-16T12:39:50Z</time>
      </trkpt>
      <trkpt lat="42.784464" lon="-7.547770">
        <ele>696.058</ele>
        <time>2015-08-16T12:39:57Z</time>
      </trkpt>
      <trkpt lat="42.784418" lon="-7.547894">
        <ele>696.023</ele>
        <time>2015-08-16T12:40:04Z</time>
      </trkpt>
      <trkpt lat="42.784368" lon="-7.548005">
        <ele>696.081</ele>
        <time>2015-08-16T12:40:11Z</time>
      </trkpt>
      <trkpt lat="42.784310" lon="-7.548102">
        <ele>698.068</ele>
        <time>2015-08-16T12:40:18Z</time>
      </trkpt>
      <trkpt lat="42.784247" lon="-7.548207">
        <ele>699.016</ele>
        <time>2015-08-16T12:40:25Z</time>
      </trkpt>
      <trkpt lat="42.784182" lon="-7.548311">
        <ele>699.010</ele>
        <time>2015-08-16T12:40:32Z</time>
      </trkpt>
      <trkpt lat="42.784140" lon="-7.548433">
        <ele>698.027</ele>
        <time>2015-08-16T12:40:40Z</time>
      </trkpt>
      <trkpt lat="42.784114" lon="-7.548559">
        <ele>698.068</ele>
        <time>2015-08-16T12:40:47Z</time>
      </trkpt>
      <trkpt lat="42.784079" lon="-7.548687">
        <ele>699.014</ele>
        <time>2015-08-16T12:40:55Z</time>
      </trkpt>
      <trkpt lat="42.784059" lon="-7.548818">
        <ele>698.008</ele>
        <time>2015-08-16T12:41:04Z</time>
      </trkpt>
      <trkpt lat="42.784046" lon="-7.548939">
        <ele>698.083</ele>
        <time>2015-08-16T12:41:11Z</time>
      </trkpt>
      <trkpt lat="42.784029" lon="-7.549067">
        <ele>697.052</ele>
        <time>2015-08-16T12:41:18Z</time>
      </trkpt>
      <trkpt lat="42.784022" lon="-7.549195">
        <ele>697.096</ele>
        <time>2015-08-16T12:41:25Z</time>
      </trkpt>
      <trkpt lat="42.784016" lon="-7.549323">
        <ele>696.011</ele>
        <time>2015-08-16T12:41:32Z</time>
      </trkpt>
      <trkpt lat="42.783999" lon="-7.549450">
        <ele>695.099</ele>
        <time>2015-08-16T12:41:39Z</time>
      </trkpt>
      <trkpt lat="42.783983" lon="-7.549581">
        <ele>694.096</ele>
        <time>2015-08-16T12:41:46Z</time>
      </trkpt>
      <trkpt lat="42.783974" lon="-7.549704">
        <ele>694.014</ele>
        <time>2015-08-16T12:41:53Z</time>
      </trkpt>
      <trkpt lat="42.783967" lon="-7.549832">
        <ele>693.078</ele>
        <time>2015-08-16T12:42:01Z</time>
      </trkpt>
      <trkpt lat="42.783970" lon="-7.549966">
        <ele>693.075</ele>
        <time>2015-08-16T12:42:09Z</time>
      </trkpt>
      <trkpt lat="42.783984" lon="-7.550089">
        <ele>692.028</ele>
        <time>2015-08-16T12:42:16Z</time>
      </trkpt>
      <trkpt lat="42.784008" lon="-7.550212">
        <ele>691.020</ele>
        <time>2015-08-16T12:42:23Z</time>
      </trkpt>
      <trkpt lat="42.784049" lon="-7.550328">
        <ele>692.008</ele>
        <time>2015-08-16T12:42:30Z</time>
      </trkpt>
      <trkpt lat="42.784066" lon="-7.550462">
        <ele>692.058</ele>
        <time>2015-08-16T12:42:37Z</time>
      </trkpt>
      <trkpt lat="42.784116" lon="-7.550573">
        <ele>691.057</ele>
        <time>2015-08-16T12:42:44Z</time>
      </trkpt>
      <trkpt lat="42.784172" lon="-7.550672">
        <ele>691.091</ele>
        <time>2015-08-16T12:42:51Z</time>
      </trkpt>
      <trkpt lat="42.784211" lon="-7.550790">
        <ele>689.036</ele>
        <time>2015-08-16T12:43:00Z</time>
      </trkpt>
      <trkpt lat="42.784230" lon="-7.550913">
        <ele>688.054</ele>
        <time>2015-08-16T12:43:08Z</time>
      </trkpt>
      <trkpt lat="42.784271" lon="-7.551037">
        <ele>688.031</ele>
        <time>2015-08-16T12:43:15Z</time>
      </trkpt>
      <trkpt lat="42.784293" lon="-7.551185">
        <ele>688.049</ele>
        <time>2015-08-16T12:43:22Z</time>
      </trkpt>
      <trkpt lat="42.784288" lon="-7.551318">
        <ele>690.043</ele>
        <time>2015-08-16T12:43:29Z</time>
      </trkpt>
      <trkpt lat="42.784273" lon="-7.551451">
        <ele>690.015</ele>
        <time>2015-08-16T12:43:36Z</time>
      </trkpt>
      <trkpt lat="42.784217" lon="-7.551715">
        <ele>690.065</ele>
        <time>2015-08-16T12:43:51Z</time>
      </trkpt>
      <trkpt lat="42.784204" lon="-7.551837">
        <ele>687.011</ele>
        <time>2015-08-16T12:43:58Z</time>
      </trkpt>
      <trkpt lat="42.784216" lon="-7.551961">
        <ele>689.008</ele>
        <time>2015-08-16T12:44:05Z</time>
      </trkpt>
      <trkpt lat="42.784229" lon="-7.552105">
        <ele>691.032</ele>
        <time>2015-08-16T12:44:13Z</time>
      </trkpt>
      <trkpt lat="42.784230" lon="-7.552122">
        <ele>692.011</ele>
        <time>2015-08-16T12:44:14Z</time>
      </trkpt>
      <trkpt lat="42.784224" lon="-7.552251">
        <ele>692.035</ele>
        <time>2015-08-16T12:44:22Z</time>
      </trkpt>
      <trkpt lat="42.784208" lon="-7.552385">
        <ele>693.030</ele>
        <time>2015-08-16T12:44:30Z</time>
      </trkpt>
      <trkpt lat="42.784208" lon="-7.552385">
        <ele>693.048</ele>
        <time>2015-08-16T12:44:30Z</time>
      </trkpt>
      <trkpt lat="42.784204" lon="-7.552510">
        <ele>692.045</ele>
        <time>2015-08-16T12:44:38Z</time>
      </trkpt>
      <trkpt lat="42.784185" lon="-7.552641">
        <ele>693.083</ele>
        <time>2015-08-16T12:44:46Z</time>
      </trkpt>
      <trkpt lat="42.784185" lon="-7.552641">
        <ele>693.047</ele>
        <time>2015-08-16T12:44:47Z</time>
      </trkpt>
      <trkpt lat="42.784139" lon="-7.552760">
        <ele>689.022</ele>
        <time>2015-08-16T12:44:54Z</time>
      </trkpt>
      <trkpt lat="42.784108" lon="-7.552879">
        <ele>690.062</ele>
        <time>2015-08-16T12:45:07Z</time>
      </trkpt>
      <trkpt lat="42.784067" lon="-7.552996">
        <ele>690.008</ele>
        <time>2015-08-16T12:45:14Z</time>
      </trkpt>
      <trkpt lat="42.784036" lon="-7.553124">
        <ele>690.008</ele>
        <time>2015-08-16T12:45:22Z</time>
      </trkpt>
      <trkpt lat="42.784023" lon="-7.553248">
        <ele>686.053</ele>
        <time>2015-08-16T12:45:30Z</time>
      </trkpt>
      <trkpt lat="42.784009" lon="-7.553376">
        <ele>684.072</ele>
        <time>2015-08-16T12:45:37Z</time>
      </trkpt>
      <trkpt lat="42.783979" lon="-7.553508">
        <ele>687.056</ele>
        <time>2015-08-16T12:45:42Z</time>
      </trkpt>
      <trkpt lat="42.783953" lon="-7.553640">
        <ele>689.051</ele>
        <time>2015-08-16T12:45:47Z</time>
      </trkpt>
      <trkpt lat="42.783927" lon="-7.553761">
        <ele>690.099</ele>
        <time>2015-08-16T12:45:52Z</time>
      </trkpt>
      <trkpt lat="42.783893" lon="-7.553888">
        <ele>691.046</ele>
        <time>2015-08-16T12:45:58Z</time>
      </trkpt>
      <trkpt lat="42.783880" lon="-7.554016">
        <ele>694.044</ele>
        <time>2015-08-16T12:46:07Z</time>
      </trkpt>
      <trkpt lat="42.783845" lon="-7.554136">
        <ele>694.078</ele>
        <time>2015-08-16T12:46:14Z</time>
      </trkpt>
      <trkpt lat="42.783810" lon="-7.554267">
        <ele>692.015</ele>
        <time>2015-08-16T12:46:21Z</time>
      </trkpt>
      <trkpt lat="42.783732" lon="-7.554354">
        <ele>692.065</ele>
        <time>2015-08-16T12:46:28Z</time>
      </trkpt>
      <trkpt lat="42.783662" lon="-7.554441">
        <ele>693.011</ele>
        <time>2015-08-16T12:46:35Z</time>
      </trkpt>
      <trkpt lat="42.783592" lon="-7.554517">
        <ele>690.008</ele>
        <time>2015-08-16T12:46:42Z</time>
      </trkpt>
      <trkpt lat="42.783520" lon="-7.554602">
        <ele>693.012</ele>
        <time>2015-08-16T12:46:51Z</time>
      </trkpt>
      <trkpt lat="42.783448" lon="-7.554688">
        <ele>692.041</ele>
        <time>2015-08-16T12:46:59Z</time>
      </trkpt>
      <trkpt lat="42.783381" lon="-7.554782">
        <ele>694.045</ele>
        <time>2015-08-16T12:47:07Z</time>
      </trkpt>
      <trkpt lat="42.783310" lon="-7.554871">
        <ele>696.040</ele>
        <time>2015-08-16T12:47:16Z</time>
      </trkpt>
      <trkpt lat="42.783232" lon="-7.554948">
        <ele>696.098</ele>
        <time>2015-08-16T12:47:25Z</time>
      </trkpt>
      <trkpt lat="42.783160" lon="-7.555038">
        <ele>696.055</ele>
        <time>2015-08-16T12:47:32Z</time>
      </trkpt>
      <trkpt lat="42.783087" lon="-7.555130">
        <ele>695.043</ele>
        <time>2015-08-16T12:47:38Z</time>
      </trkpt>
      <trkpt lat="42.783016" lon="-7.555223">
        <ele>697.087</ele>
        <time>2015-08-16T12:47:46Z</time>
      </trkpt>
      <trkpt lat="42.782947" lon="-7.555320">
        <ele>697.076</ele>
        <time>2015-08-16T12:47:54Z</time>
      </trkpt>
      <trkpt lat="42.782857" lon="-7.555386">
        <ele>697.090</ele>
        <time>2015-08-16T12:48:02Z</time>
      </trkpt>
      <trkpt lat="42.782813" lon="-7.555492">
        <ele>699.019</ele>
        <time>2015-08-16T12:48:09Z</time>
      </trkpt>
      <trkpt lat="42.782787" lon="-7.555622">
        <ele>698.008</ele>
        <time>2015-08-16T12:48:17Z</time>
      </trkpt>
      <trkpt lat="42.782790" lon="-7.555755">
        <ele>697.088</ele>
        <time>2015-08-16T12:48:25Z</time>
      </trkpt>
      <trkpt lat="42.782842" lon="-7.555863">
        <ele>697.077</ele>
        <time>2015-08-16T12:48:33Z</time>
      </trkpt>
      <trkpt lat="42.782872" lon="-7.555982">
        <ele>696.071</ele>
        <time>2015-08-16T12:48:43Z</time>
      </trkpt>
      <trkpt lat="42.782907" lon="-7.556094">
        <ele>695.076</ele>
        <time>2015-08-16T12:48:51Z</time>
      </trkpt>
      <trkpt lat="42.782936" lon="-7.556221">
        <ele>694.074</ele>
        <time>2015-08-16T12:48:58Z</time>
      </trkpt>
      <trkpt lat="42.782954" lon="-7.556349">
        <ele>693.041</ele>
        <time>2015-08-16T12:49:07Z</time>
      </trkpt>
      <trkpt lat="42.783025" lon="-7.556446">
        <ele>689.099</ele>
        <time>2015-08-16T12:49:16Z</time>
      </trkpt>
      <trkpt lat="42.783096" lon="-7.556535">
        <ele>690.053</ele>
        <time>2015-08-16T12:49:23Z</time>
      </trkpt>
      <trkpt lat="42.783165" lon="-7.556616">
        <ele>690.047</ele>
        <time>2015-08-16T12:49:30Z</time>
      </trkpt>
      <trkpt lat="42.783237" lon="-7.556694">
        <ele>692.029</ele>
        <time>2015-08-16T12:49:37Z</time>
      </trkpt>
      <trkpt lat="42.783317" lon="-7.556763">
        <ele>690.021</ele>
        <time>2015-08-16T12:49:45Z</time>
      </trkpt>
      <trkpt lat="42.783400" lon="-7.556839">
        <ele>693.008</ele>
        <time>2015-08-16T12:49:53Z</time>
      </trkpt>
      <trkpt lat="42.783490" lon="-7.556901">
        <ele>694.055</ele>
        <time>2015-08-16T12:50:02Z</time>
      </trkpt>
      <trkpt lat="42.783573" lon="-7.556966">
        <ele>695.044</ele>
        <time>2015-08-16T12:50:09Z</time>
      </trkpt>
      <trkpt lat="42.783660" lon="-7.557022">
        <ele>693.068</ele>
        <time>2015-08-16T12:50:16Z</time>
      </trkpt>
      <trkpt lat="42.783746" lon="-7.557074">
        <ele>692.033</ele>
        <time>2015-08-16T12:50:22Z</time>
      </trkpt>
      <trkpt lat="42.783842" lon="-7.557125">
        <ele>692.031</ele>
        <time>2015-08-16T12:50:30Z</time>
      </trkpt>
      <trkpt lat="42.783925" lon="-7.557183">
        <ele>692.048</ele>
        <time>2015-08-16T12:50:37Z</time>
      </trkpt>
      <trkpt lat="42.784011" lon="-7.557225">
        <ele>690.076</ele>
        <time>2015-08-16T12:50:44Z</time>
      </trkpt>
      <trkpt lat="42.784102" lon="-7.557279">
        <ele>691.090</ele>
        <time>2015-08-16T12:50:51Z</time>
      </trkpt>
      <trkpt lat="42.784190" lon="-7.557349">
        <ele>690.093</ele>
        <time>2015-08-16T12:50:58Z</time>
      </trkpt>
      <trkpt lat="42.784261" lon="-7.557427">
        <ele>687.065</ele>
        <time>2015-08-16T12:51:05Z</time>
      </trkpt>
      <trkpt lat="42.784326" lon="-7.557522">
        <ele>686.021</ele>
        <time>2015-08-16T12:51:12Z</time>
      </trkpt>
      <trkpt lat="42.784381" lon="-7.557621">
        <ele>687.008</ele>
        <time>2015-08-16T12:51:19Z</time>
      </trkpt>
      <trkpt lat="42.784425" lon="-7.557739">
        <ele>687.080</ele>
        <time>2015-08-16T12:51:27Z</time>
      </trkpt>
      <trkpt lat="42.784485" lon="-7.557851">
        <ele>686.079</ele>
        <time>2015-08-16T12:51:34Z</time>
      </trkpt>
      <trkpt lat="42.784517" lon="-7.557974">
        <ele>686.073</ele>
        <time>2015-08-16T12:51:41Z</time>
      </trkpt>
      <trkpt lat="42.784577" lon="-7.558092">
        <ele>687.048</ele>
        <time>2015-08-16T12:51:48Z</time>
      </trkpt>
      <trkpt lat="42.784627" lon="-7.558199">
        <ele>687.096</ele>
        <time>2015-08-16T12:51:54Z</time>
      </trkpt>
      <trkpt lat="42.784659" lon="-7.558313">
        <ele>685.013</ele>
        <time>2015-08-16T12:52:00Z</time>
      </trkpt>
      <trkpt lat="42.784662" lon="-7.558444">
        <ele>678.091</ele>
        <time>2015-08-16T12:52:08Z</time>
      </trkpt>
      <trkpt lat="42.784630" lon="-7.558563">
        <ele>681.035</ele>
        <time>2015-08-16T12:52:17Z</time>
      </trkpt>
      <trkpt lat="42.784592" lon="-7.558680">
        <ele>675.055</ele>
        <time>2015-08-16T12:52:28Z</time>
      </trkpt>
      <trkpt lat="42.784546" lon="-7.558800">
        <ele>673.007</ele>
        <time>2015-08-16T12:52:38Z</time>
      </trkpt>
      <trkpt lat="42.784537" lon="-7.558933">
        <ele>672.017</ele>
        <time>2015-08-16T12:52:50Z</time>
      </trkpt>
      <trkpt lat="42.784582" lon="-7.559068">
        <ele>673.008</ele>
        <time>2015-08-16T12:52:57Z</time>
      </trkpt>
      <trkpt lat="42.784653" lon="-7.559145">
        <ele>675.066</ele>
        <time>2015-08-16T12:53:03Z</time>
      </trkpt>
      <trkpt lat="42.784744" lon="-7.559208">
        <ele>673.085</ele>
        <time>2015-08-16T12:53:11Z</time>
      </trkpt>
      <trkpt lat="42.784786" lon="-7.559318">
        <ele>675.049</ele>
        <time>2015-08-16T12:53:19Z</time>
      </trkpt>
      <trkpt lat="42.784843" lon="-7.559422">
        <ele>676.034</ele>
        <time>2015-08-16T12:53:27Z</time>
      </trkpt>
      <trkpt lat="42.784913" lon="-7.559505">
        <ele>677.012</ele>
        <time>2015-08-16T12:53:37Z</time>
      </trkpt>
      <trkpt lat="42.784975" lon="-7.559597">
        <ele>677.059</ele>
        <time>2015-08-16T12:55:18Z</time>
      </trkpt>
      <trkpt lat="42.785022" lon="-7.559702">
        <ele>675.077</ele>
        <time>2015-08-16T12:55:29Z</time>
      </trkpt>
      <trkpt lat="42.785096" lon="-7.559797">
        <ele>675.071</ele>
        <time>2015-08-16T12:55:37Z</time>
      </trkpt>
      <trkpt lat="42.785169" lon="-7.559872">
        <ele>673.043</ele>
        <time>2015-08-16T12:55:50Z</time>
      </trkpt>
      <trkpt lat="42.785249" lon="-7.559936">
        <ele>676.064</ele>
        <time>2015-08-16T12:56:00Z</time>
      </trkpt>
      <trkpt lat="42.785325" lon="-7.560024">
        <ele>676.010</ele>
        <time>2015-08-16T12:56:09Z</time>
      </trkpt>
      <trkpt lat="42.785393" lon="-7.560121">
        <ele>674.008</ele>
        <time>2015-08-16T12:56:18Z</time>
      </trkpt>
      <trkpt lat="42.785461" lon="-7.560206">
        <ele>677.055</ele>
        <time>2015-08-16T12:56:27Z</time>
      </trkpt>
      <trkpt lat="42.785540" lon="-7.560290">
        <ele>674.074</ele>
        <time>2015-08-16T12:56:35Z</time>
      </trkpt>
      <trkpt lat="42.785613" lon="-7.560377">
        <ele>675.088</ele>
        <time>2015-08-16T12:56:42Z</time>
      </trkpt>
      <trkpt lat="42.785686" lon="-7.560458">
        <ele>673.093</ele>
        <time>2015-08-16T12:56:48Z</time>
      </trkpt>
      <trkpt lat="42.785761" lon="-7.560543">
        <ele>670.081</ele>
        <time>2015-08-16T12:57:00Z</time>
      </trkpt>
      <trkpt lat="42.785821" lon="-7.560640">
        <ele>670.088</ele>
        <time>2015-08-16T12:57:07Z</time>
      </trkpt>
      <trkpt lat="42.785899" lon="-7.560737">
        <ele>667.086</ele>
        <time>2015-08-16T12:57:13Z</time>
      </trkpt>
      <trkpt lat="42.785972" lon="-7.560829">
        <ele>664.060</ele>
        <time>2015-08-16T12:57:21Z</time>
      </trkpt>
      <trkpt lat="42.786015" lon="-7.560955">
        <ele>665.076</ele>
        <time>2015-08-16T12:57:29Z</time>
      </trkpt>
      <trkpt lat="42.786042" lon="-7.561076">
        <ele>666.090</ele>
        <time>2015-08-16T12:57:36Z</time>
      </trkpt>
      <trkpt lat="42.786053" lon="-7.561212">
        <ele>667.019</ele>
        <time>2015-08-16T12:57:43Z</time>
      </trkpt>
      <trkpt lat="42.786043" lon="-7.561336">
        <ele>664.008</ele>
        <time>2015-08-16T12:57:55Z</time>
      </trkpt>
      <trkpt lat="42.786061" lon="-7.561476">
        <ele>663.048</ele>
        <time>2015-08-16T12:58:05Z</time>
      </trkpt>
      <trkpt lat="42.786087" lon="-7.561605">
        <ele>661.097</ele>
        <time>2015-08-16T12:58:12Z</time>
      </trkpt>
      <trkpt lat="42.786141" lon="-7.561717">
        <ele>659.041</ele>
        <time>2015-08-16T12:58:19Z</time>
      </trkpt>
      <trkpt lat="42.786192" lon="-7.561837">
        <ele>660.036</ele>
        <time>2015-08-16T12:58:27Z</time>
      </trkpt>
      <trkpt lat="42.786217" lon="-7.561966">
        <ele>658.074</ele>
        <time>2015-08-16T12:58:37Z</time>
      </trkpt>
      <trkpt lat="42.786243" lon="-7.562093">
        <ele>656.081</ele>
        <time>2015-08-16T12:58:46Z</time>
      </trkpt>
      <trkpt lat="42.786292" lon="-7.562207">
        <ele>652.049</ele>
        <time>2015-08-16T12:58:56Z</time>
      </trkpt>
      <trkpt lat="42.786363" lon="-7.562287">
        <ele>653.033</ele>
        <time>2015-08-16T12:59:04Z</time>
      </trkpt>
      <trkpt lat="42.786422" lon="-7.562385">
        <ele>655.018</ele>
        <time>2015-08-16T12:59:13Z</time>
      </trkpt>
      <trkpt lat="42.786484" lon="-7.562475">
        <ele>654.098</ele>
        <time>2015-08-16T12:59:20Z</time>
      </trkpt>
      <trkpt lat="42.786562" lon="-7.562545">
        <ele>653.017</ele>
        <time>2015-08-16T12:59:27Z</time>
      </trkpt>
      <trkpt lat="42.786627" lon="-7.562632">
        <ele>651.008</ele>
        <time>2015-08-16T12:59:34Z</time>
      </trkpt>
      <trkpt lat="42.786693" lon="-7.562727">
        <ele>650.072</ele>
        <time>2015-08-16T12:59:41Z</time>
      </trkpt>
      <trkpt lat="42.786773" lon="-7.562798">
        <ele>648.031</ele>
        <time>2015-08-16T12:59:48Z</time>
      </trkpt>
      <trkpt lat="42.786876" lon="-7.562818">
        <ele>648.015</ele>
        <time>2015-08-16T12:59:55Z</time>
      </trkpt>
      <trkpt lat="42.786924" lon="-7.562950">
        <ele>647.090</ele>
        <time>2015-08-16T13:00:01Z</time>
      </trkpt>
      <trkpt lat="42.786963" lon="-7.563064">
        <ele>646.028</ele>
        <time>2015-08-16T13:00:07Z</time>
      </trkpt>
      <trkpt lat="42.786972" lon="-7.563197">
        <ele>643.055</ele>
        <time>2015-08-16T13:00:15Z</time>
      </trkpt>
      <trkpt lat="42.786956" lon="-7.563332">
        <ele>641.093</ele>
        <time>2015-08-16T13:00:30Z</time>
      </trkpt>
      <trkpt lat="42.786969" lon="-7.563459">
        <ele>641.077</ele>
        <time>2015-08-16T13:00:36Z</time>
      </trkpt>
      <trkpt lat="42.787024" lon="-7.563576">
        <ele>640.011</ele>
        <time>2015-08-16T13:00:43Z</time>
      </trkpt>
      <trkpt lat="42.787078" lon="-7.563687">
        <ele>639.021</ele>
        <time>2015-08-16T13:00:50Z</time>
      </trkpt>
      <trkpt lat="42.787136" lon="-7.563799">
        <ele>638.003</ele>
        <time>2015-08-16T13:00:58Z</time>
      </trkpt>
      <trkpt lat="42.787205" lon="-7.563906">
        <ele>638.008</ele>
        <time>2015-08-16T13:01:05Z</time>
      </trkpt>
      <trkpt lat="42.787267" lon="-7.563997">
        <ele>636.092</ele>
        <time>2015-08-16T13:01:11Z</time>
      </trkpt>
      <trkpt lat="42.787323" lon="-7.564098">
        <ele>636.011</ele>
        <time>2015-08-16T13:01:18Z</time>
      </trkpt>
      <trkpt lat="42.787377" lon="-7.564210">
        <ele>634.015</ele>
        <time>2015-08-16T13:01:25Z</time>
      </trkpt>
      <trkpt lat="42.787413" lon="-7.564331">
        <ele>633.060</ele>
        <time>2015-08-16T13:01:32Z</time>
      </trkpt>
      <trkpt lat="42.787436" lon="-7.564462">
        <ele>630.098</ele>
        <time>2015-08-16T13:01:40Z</time>
      </trkpt>
      <trkpt lat="42.787467" lon="-7.564592">
        <ele>628.055</ele>
        <time>2015-08-16T13:01:48Z</time>
      </trkpt>
      <trkpt lat="42.787493" lon="-7.564712">
        <ele>625.073</ele>
        <time>2015-08-16T13:01:56Z</time>
      </trkpt>
      <trkpt lat="42.787493" lon="-7.564712">
        <ele>625.077</ele>
        <time>2015-08-16T13:01:56Z</time>
      </trkpt>
      <trkpt lat="42.787517" lon="-7.564830">
        <ele>622.096</ele>
        <time>2015-08-16T13:02:04Z</time>
      </trkpt>
      <trkpt lat="42.787549" lon="-7.564954">
        <ele>622.031</ele>
        <time>2015-08-16T13:02:11Z</time>
      </trkpt>
      <trkpt lat="42.787549" lon="-7.564954">
        <ele>622.024</ele>
        <time>2015-08-16T13:02:11Z</time>
      </trkpt>
      <trkpt lat="42.787591" lon="-7.565081">
        <ele>622.008</ele>
        <time>2015-08-16T13:02:18Z</time>
      </trkpt>
      <trkpt lat="42.787639" lon="-7.565199">
        <ele>622.080</ele>
        <time>2015-08-16T13:02:25Z</time>
      </trkpt>
      <trkpt lat="42.787690" lon="-7.565319">
        <ele>621.089</ele>
        <time>2015-08-16T13:02:32Z</time>
      </trkpt>
      <trkpt lat="42.787736" lon="-7.565425">
        <ele>621.073</ele>
        <time>2015-08-16T13:02:38Z</time>
      </trkpt>
      <trkpt lat="42.787792" lon="-7.565537">
        <ele>621.038</ele>
        <time>2015-08-16T13:02:45Z</time>
      </trkpt>
      <trkpt lat="42.787868" lon="-7.565630">
        <ele>621.096</ele>
        <time>2015-08-16T13:02:52Z</time>
      </trkpt>
      <trkpt lat="42.787936" lon="-7.565726">
        <ele>621.083</ele>
        <time>2015-08-16T13:02:59Z</time>
      </trkpt>
      <trkpt lat="42.787975" lon="-7.565841">
        <ele>622.041</ele>
        <time>2015-08-16T13:03:15Z</time>
      </trkpt>
      <trkpt lat="42.787970" lon="-7.565967">
        <ele>623.075</ele>
        <time>2015-08-16T13:03:46Z</time>
      </trkpt>
      <trkpt lat="42.788011" lon="-7.566086">
        <ele>623.032</ele>
        <time>2015-08-16T13:03:58Z</time>
      </trkpt>
      <trkpt lat="42.788041" lon="-7.566202">
        <ele>623.092</ele>
        <time>2015-08-16T13:04:04Z</time>
      </trkpt>
      <trkpt lat="42.788070" lon="-7.566322">
        <ele>623.011</ele>
        <time>2015-08-16T13:04:11Z</time>
      </trkpt>
      <trkpt lat="42.788097" lon="-7.566444">
        <ele>623.008</ele>
        <time>2015-08-16T13:04:18Z</time>
      </trkpt>
      <trkpt lat="42.788139" lon="-7.566560">
        <ele>623.054</ele>
        <time>2015-08-16T13:04:25Z</time>
      </trkpt>
      <trkpt lat="42.788200" lon="-7.566664">
        <ele>622.053</ele>
        <time>2015-08-16T13:04:32Z</time>
      </trkpt>
      <trkpt lat="42.788257" lon="-7.566758">
        <ele>622.037</ele>
        <time>2015-08-16T13:04:38Z</time>
      </trkpt>
      <trkpt lat="42.788332" lon="-7.566840">
        <ele>622.042</ele>
        <time>2015-08-16T13:04:44Z</time>
      </trkpt>
      <trkpt lat="42.788410" lon="-7.566929">
        <ele>623.040</ele>
        <time>2015-08-16T13:04:50Z</time>
      </trkpt>
      <trkpt lat="42.788482" lon="-7.567027">
        <ele>623.077</ele>
        <time>2015-08-16T13:04:57Z</time>
      </trkpt>
      <trkpt lat="42.788532" lon="-7.567139">
        <ele>620.045</ele>
        <time>2015-08-16T13:05:05Z</time>
      </trkpt>
      <trkpt lat="42.788537" lon="-7.567261">
        <ele>617.059</ele>
        <time>2015-08-16T13:05:12Z</time>
      </trkpt>
      <trkpt lat="42.788545" lon="-7.567403">
        <ele>616.051</ele>
        <time>2015-08-16T13:05:20Z</time>
      </trkpt>
      <trkpt lat="42.788517" lon="-7.567531">
        <ele>618.001</ele>
        <time>2015-08-16T13:05:27Z</time>
      </trkpt>
      <trkpt lat="42.788511" lon="-7.567658">
        <ele>619.011</ele>
        <time>2015-08-16T13:05:37Z</time>
      </trkpt>
      <trkpt lat="42.788590" lon="-7.567745">
        <ele>615.008</ele>
        <time>2015-08-16T13:05:45Z</time>
      </trkpt>
      <trkpt lat="42.788657" lon="-7.567839">
        <ele>607.056</ele>
        <time>2015-08-16T13:05:59Z</time>
      </trkpt>
      <trkpt lat="42.788734" lon="-7.567905">
        <ele>607.095</ele>
        <time>2015-08-16T13:06:04Z</time>
      </trkpt>
      <trkpt lat="42.788750" lon="-7.568034">
        <ele>609.049</ele>
        <time>2015-08-16T13:06:11Z</time>
      </trkpt>
      <trkpt lat="42.788730" lon="-7.568164">
        <ele>608.074</ele>
        <time>2015-08-16T13:06:19Z</time>
      </trkpt>
      <trkpt lat="42.788713" lon="-7.568291">
        <ele>603.052</ele>
        <time>2015-08-16T13:06:28Z</time>
      </trkpt>
      <trkpt lat="42.788689" lon="-7.568424">
        <ele>602.029</ele>
        <time>2015-08-16T13:06:36Z</time>
      </trkpt>
      <trkpt lat="42.788676" lon="-7.568560">
        <ele>602.057</ele>
        <time>2015-08-16T13:06:43Z</time>
      </trkpt>
      <trkpt lat="42.788670" lon="-7.568689">
        <ele>602.021</ele>
        <time>2015-08-16T13:06:51Z</time>
      </trkpt>
      <trkpt lat="42.788718" lon="-7.568797">
        <ele>601.087</ele>
        <time>2015-08-16T13:09:38Z</time>
      </trkpt>
      <trkpt lat="42.788779" lon="-7.568891">
        <ele>601.042</ele>
        <time>2015-08-16T13:09:49Z</time>
      </trkpt>
      <trkpt lat="42.788779" lon="-7.569030">
        <ele>596.026</ele>
        <time>2015-08-16T13:09:56Z</time>
      </trkpt>
      <trkpt lat="42.788784" lon="-7.569154">
        <ele>594.008</ele>
        <time>2015-08-16T13:10:03Z</time>
      </trkpt>
      <trkpt lat="42.788808" lon="-7.569274">
        <ele>592.079</ele>
        <time>2015-08-16T13:10:10Z</time>
      </trkpt>
      <trkpt lat="42.788851" lon="-7.569402">
        <ele>592.038</ele>
        <time>2015-08-16T13:10:18Z</time>
      </trkpt>
      <trkpt lat="42.788917" lon="-7.569508">
        <ele>594.012</ele>
        <time>2015-08-16T13:10:25Z</time>
      </trkpt>
      <trkpt lat="42.788965" lon="-7.569618">
        <ele>595.037</ele>
        <time>2015-08-16T13:10:32Z</time>
      </trkpt>
      <trkpt lat="42.789024" lon="-7.569716">
        <ele>595.025</ele>
        <time>2015-08-16T13:10:38Z</time>
      </trkpt>
      <trkpt lat="42.789096" lon="-7.569815">
        <ele>593.052</ele>
        <time>2015-08-16T13:10:45Z</time>
      </trkpt>
      <trkpt lat="42.789143" lon="-7.569932">
        <ele>591.010</ele>
        <time>2015-08-16T13:10:52Z</time>
      </trkpt>
      <trkpt lat="42.789182" lon="-7.570044">
        <ele>591.054</ele>
        <time>2015-08-16T13:10:59Z</time>
      </trkpt>
      <trkpt lat="42.789225" lon="-7.570155">
        <ele>590.075</ele>
        <time>2015-08-16T13:11:06Z</time>
      </trkpt>
      <trkpt lat="42.789271" lon="-7.570272">
        <ele>589.028</ele>
        <time>2015-08-16T13:11:13Z</time>
      </trkpt>
      <trkpt lat="42.789326" lon="-7.570375">
        <ele>589.020</ele>
        <time>2015-08-16T13:11:21Z</time>
      </trkpt>
      <trkpt lat="42.789394" lon="-7.570479">
        <ele>590.008</ele>
        <time>2015-08-16T13:11:28Z</time>
      </trkpt>
      <trkpt lat="42.789454" lon="-7.570590">
        <ele>591.048</ele>
        <time>2015-08-16T13:11:35Z</time>
      </trkpt>
      <trkpt lat="42.789513" lon="-7.570696">
        <ele>590.067</ele>
        <time>2015-08-16T13:11:41Z</time>
      </trkpt>
      <trkpt lat="42.789576" lon="-7.570800">
        <ele>590.081</ele>
        <time>2015-08-16T13:11:48Z</time>
      </trkpt>
      <trkpt lat="42.789662" lon="-7.570856">
        <ele>589.076</ele>
        <time>2015-08-16T13:11:55Z</time>
      </trkpt>
      <trkpt lat="42.789756" lon="-7.570919">
        <ele>590.054</ele>
        <time>2015-08-16T13:12:02Z</time>
      </trkpt>
      <trkpt lat="42.789831" lon="-7.570989">
        <ele>590.071</ele>
        <time>2015-08-16T13:12:08Z</time>
      </trkpt>
      <trkpt lat="42.789831" lon="-7.570989">
        <ele>590.039</ele>
        <time>2015-08-16T13:12:08Z</time>
      </trkpt>
      <trkpt lat="42.789903" lon="-7.571082">
        <ele>590.093</ele>
        <time>2015-08-16T13:12:16Z</time>
      </trkpt>
      <trkpt lat="42.789973" lon="-7.571182">
        <ele>591.043</ele>
        <time>2015-08-16T13:12:23Z</time>
      </trkpt>
      <trkpt lat="42.790062" lon="-7.571274">
        <ele>590.064</ele>
        <time>2015-08-16T13:12:30Z</time>
      </trkpt>
      <trkpt lat="42.790136" lon="-7.571354">
        <ele>589.010</ele>
        <time>2015-08-16T13:12:37Z</time>
      </trkpt>
      <trkpt lat="42.790208" lon="-7.571430">
        <ele>589.008</ele>
        <time>2015-08-16T13:12:44Z</time>
      </trkpt>
      <trkpt lat="42.790290" lon="-7.571491">
        <ele>588.055</ele>
        <time>2015-08-16T13:12:51Z</time>
      </trkpt>
      <trkpt lat="42.790372" lon="-7.571566">
        <ele>590.094</ele>
        <time>2015-08-16T13:12:58Z</time>
      </trkpt>
      <trkpt lat="42.790439" lon="-7.571661">
        <ele>589.098</ele>
        <time>2015-08-16T13:13:05Z</time>
      </trkpt>
      <trkpt lat="42.790504" lon="-7.571758">
        <ele>590.053</ele>
        <time>2015-08-16T13:13:12Z</time>
      </trkpt>
      <trkpt lat="42.790561" lon="-7.571856">
        <ele>590.051</ele>
        <time>2015-08-16T13:13:19Z</time>
      </trkpt>
      <trkpt lat="42.790633" lon="-7.571933">
        <ele>591.038</ele>
        <time>2015-08-16T13:13:25Z</time>
      </trkpt>
      <trkpt lat="42.790696" lon="-7.572023">
        <ele>590.076</ele>
        <time>2015-08-16T13:13:32Z</time>
      </trkpt>
      <trkpt lat="42.790755" lon="-7.572129">
        <ele>588.030</ele>
        <time>2015-08-16T13:13:48Z</time>
      </trkpt>
      <trkpt lat="42.790820" lon="-7.572229">
        <ele>589.033</ele>
        <time>2015-08-16T13:14:11Z</time>
      </trkpt>
      <trkpt lat="42.790844" lon="-7.572348">
        <ele>588.023</ele>
        <time>2015-08-16T13:14:21Z</time>
      </trkpt>
      <trkpt lat="42.790880" lon="-7.572469">
        <ele>591.015</ele>
        <time>2015-08-16T13:15:48Z</time>
      </trkpt>
      <trkpt lat="42.790903" lon="-7.572600">
        <ele>589.008</ele>
        <time>2015-08-16T13:15:56Z</time>
      </trkpt>
      <trkpt lat="42.790919" lon="-7.572736">
        <ele>589.044</ele>
        <time>2015-08-16T13:16:04Z</time>
      </trkpt>
      <trkpt lat="42.790934" lon="-7.572864">
        <ele>588.073</ele>
        <time>2015-08-16T13:16:12Z</time>
      </trkpt>
      <trkpt lat="42.790933" lon="-7.572995">
        <ele>593.077</ele>
        <time>2015-08-16T13:16:20Z</time>
      </trkpt>
      <trkpt lat="42.790951" lon="-7.573119">
        <ele>592.082</ele>
        <time>2015-08-16T13:16:31Z</time>
      </trkpt>
      <trkpt lat="42.790953" lon="-7.573244">
        <ele>595.060</ele>
        <time>2015-08-16T13:16:39Z</time>
      </trkpt>
      <trkpt lat="42.790977" lon="-7.573366">
        <ele>594.027</ele>
        <time>2015-08-16T13:16:47Z</time>
      </trkpt>
      <trkpt lat="42.790977" lon="-7.573492">
        <ele>594.035</ele>
        <time>2015-08-16T13:16:56Z</time>
      </trkpt>
      <trkpt lat="42.790982" lon="-7.573628">
        <ele>597.079</ele>
        <time>2015-08-16T13:17:04Z</time>
      </trkpt>
      <trkpt lat="42.790984" lon="-7.573751">
        <ele>601.044</ele>
        <time>2015-08-16T13:17:10Z</time>
      </trkpt>
      <trkpt lat="42.790997" lon="-7.573878">
        <ele>601.005</ele>
        <time>2015-08-16T13:17:18Z</time>
      </trkpt>
      <trkpt lat="42.790997" lon="-7.574013">
        <ele>601.015</ele>
        <time>2015-08-16T13:17:27Z</time>
      </trkpt>
      <trkpt lat="42.790988" lon="-7.574136">
        <ele>600.008</ele>
        <time>2015-08-16T13:17:34Z</time>
      </trkpt>
      <trkpt lat="42.790967" lon="-7.574266">
        <ele>601.045</ele>
        <time>2015-08-16T13:17:42Z</time>
      </trkpt>
      <trkpt lat="42.790936" lon="-7.574382">
        <ele>604.084</ele>
        <time>2015-08-16T13:17:50Z</time>
      </trkpt>
      <trkpt lat="42.790925" lon="-7.574518">
        <ele>605.088</ele>
        <time>2015-08-16T13:17:58Z</time>
      </trkpt>
      <trkpt lat="42.790904" lon="-7.574638">
        <ele>605.043</ele>
        <time>2015-08-16T13:18:06Z</time>
      </trkpt>
      <trkpt lat="42.790919" lon="-7.574767">
        <ele>603.031</ele>
        <time>2015-08-16T13:18:19Z</time>
      </trkpt>
      <trkpt lat="42.790930" lon="-7.574901">
        <ele>604.068</ele>
        <time>2015-08-16T13:18:28Z</time>
      </trkpt>
      <trkpt lat="42.790942" lon="-7.575029">
        <ele>605.066</ele>
        <time>2015-08-16T13:18:35Z</time>
      </trkpt>
      <trkpt lat="42.790952" lon="-7.575157">
        <ele>605.010</ele>
        <time>2015-08-16T13:18:43Z</time>
      </trkpt>
      <trkpt lat="42.790979" lon="-7.575275">
        <ele>607.085</ele>
        <time>2015-08-16T13:18:50Z</time>
      </trkpt>
      <trkpt lat="42.791014" lon="-7.575389">
        <ele>608.089</ele>
        <time>2015-08-16T13:18:57Z</time>
      </trkpt>
      <trkpt lat="42.791038" lon="-7.575518">
        <ele>610.017</ele>
        <time>2015-08-16T13:19:05Z</time>
      </trkpt>
      <trkpt lat="42.791057" lon="-7.575651">
        <ele>609.008</ele>
        <time>2015-08-16T13:19:12Z</time>
      </trkpt>
      <trkpt lat="42.791077" lon="-7.575775">
        <ele>610.099</ele>
        <time>2015-08-16T13:19:19Z</time>
      </trkpt>
      <trkpt lat="42.791084" lon="-7.575905">
        <ele>610.058</ele>
        <time>2015-08-16T13:19:27Z</time>
      </trkpt>
      <trkpt lat="42.791093" lon="-7.576041">
        <ele>611.032</ele>
        <time>2015-08-16T13:19:35Z</time>
      </trkpt>
      <trkpt lat="42.791092" lon="-7.576173">
        <ele>611.087</ele>
        <time>2015-08-16T13:19:42Z</time>
      </trkpt>
      <trkpt lat="42.791074" lon="-7.576310">
        <ele>612.025</ele>
        <time>2015-08-16T13:19:49Z</time>
      </trkpt>
      <trkpt lat="42.791068" lon="-7.576446">
        <ele>612.082</ele>
        <time>2015-08-16T13:19:56Z</time>
      </trkpt>
      <trkpt lat="42.791058" lon="-7.576573">
        <ele>613.020</ele>
        <time>2015-08-16T13:20:03Z</time>
      </trkpt>
      <trkpt lat="42.791050" lon="-7.576701">
        <ele>615.034</ele>
        <time>2015-08-16T13:20:10Z</time>
      </trkpt>
      <trkpt lat="42.791039" lon="-7.576829">
        <ele>616.013</ele>
        <time>2015-08-16T13:20:17Z</time>
      </trkpt>
      <trkpt lat="42.791014" lon="-7.576952">
        <ele>615.043</ele>
        <time>2015-08-16T13:20:24Z</time>
      </trkpt>
      <trkpt lat="42.790979" lon="-7.577067">
        <ele>613.007</ele>
        <time>2015-08-16T13:20:31Z</time>
      </trkpt>
      <trkpt lat="42.790947" lon="-7.577186">
        <ele>612.008</ele>
        <time>2015-08-16T13:20:38Z</time>
      </trkpt>
      <trkpt lat="42.790926" lon="-7.577310">
        <ele>612.022</ele>
        <time>2015-08-16T13:20:45Z</time>
      </trkpt>
      <trkpt lat="42.790907" lon="-7.577442">
        <ele>613.071</ele>
        <time>2015-08-16T13:20:52Z</time>
      </trkpt>
      <trkpt lat="42.790900" lon="-7.577572">
        <ele>612.045</ele>
        <time>2015-08-16T13:20:58Z</time>
      </trkpt>
      <trkpt lat="42.790876" lon="-7.577690">
        <ele>612.070</ele>
        <time>2015-08-16T13:21:04Z</time>
      </trkpt>
      <trkpt lat="42.790868" lon="-7.577820">
        <ele>611.058</ele>
        <time>2015-08-16T13:21:12Z</time>
      </trkpt>
      <trkpt lat="42.790850" lon="-7.577941">
        <ele>612.025</ele>
        <time>2015-08-16T13:21:19Z</time>
      </trkpt>
      <trkpt lat="42.790830" lon="-7.578071">
        <ele>612.023</ele>
        <time>2015-08-16T13:21:26Z</time>
      </trkpt>
      <trkpt lat="42.790814" lon="-7.578200">
        <ele>612.087</ele>
        <time>2015-08-16T13:21:33Z</time>
      </trkpt>
      <trkpt lat="42.790802" lon="-7.578338">
        <ele>613.059</ele>
        <time>2015-08-16T13:21:40Z</time>
      </trkpt>
      <trkpt lat="42.790794" lon="-7.578476">
        <ele>613.003</ele>
        <time>2015-08-16T13:21:48Z</time>
      </trkpt>
      <trkpt lat="42.790783" lon="-7.578606">
        <ele>613.023</ele>
        <time>2015-08-16T13:21:55Z</time>
      </trkpt>
      <trkpt lat="42.790782" lon="-7.578760">
        <ele>613.008</ele>
        <time>2015-08-16T13:22:02Z</time>
      </trkpt>
      <trkpt lat="42.790776" lon="-7.578894">
        <ele>613.086</ele>
        <time>2015-08-16T13:22:09Z</time>
      </trkpt>
      <trkpt lat="42.790779" lon="-7.579020">
        <ele>613.055</ele>
        <time>2015-08-16T13:22:16Z</time>
      </trkpt>
      <trkpt lat="42.790791" lon="-7.579149">
        <ele>614.039</ele>
        <time>2015-08-16T13:22:23Z</time>
      </trkpt>
      <trkpt lat="42.790798" lon="-7.579280">
        <ele>614.084</ele>
        <time>2015-08-16T13:22:30Z</time>
      </trkpt>
      <trkpt lat="42.790812" lon="-7.579415">
        <ele>614.032</ele>
        <time>2015-08-16T13:22:37Z</time>
      </trkpt>
      <trkpt lat="42.790833" lon="-7.579537">
        <ele>616.039</ele>
        <time>2015-08-16T13:22:44Z</time>
      </trkpt>
      <trkpt lat="42.790852" lon="-7.579669">
        <ele>614.077</ele>
        <time>2015-08-16T13:22:51Z</time>
      </trkpt>
      <trkpt lat="42.790863" lon="-7.579798">
        <ele>614.081</ele>
        <time>2015-08-16T13:22:58Z</time>
      </trkpt>
      <trkpt lat="42.790876" lon="-7.579919">
        <ele>613.083</ele>
        <time>2015-08-16T13:23:05Z</time>
      </trkpt>
      <trkpt lat="42.790895" lon="-7.580047">
        <ele>611.025</ele>
        <time>2015-08-16T13:23:13Z</time>
      </trkpt>
      <trkpt lat="42.790914" lon="-7.580183">
        <ele>609.017</ele>
        <time>2015-08-16T13:23:22Z</time>
      </trkpt>
      <trkpt lat="42.790924" lon="-7.580312">
        <ele>610.008</ele>
        <time>2015-08-16T13:23:29Z</time>
      </trkpt>
      <trkpt lat="42.790936" lon="-7.580444">
        <ele>611.089</ele>
        <time>2015-08-16T13:23:36Z</time>
      </trkpt>
      <trkpt lat="42.790947" lon="-7.580579">
        <ele>611.018</ele>
        <time>2015-08-16T13:23:43Z</time>
      </trkpt>
      <trkpt lat="42.790960" lon="-7.580716">
        <ele>612.042</ele>
        <time>2015-08-16T13:23:50Z</time>
      </trkpt>
      <trkpt lat="42.790974" lon="-7.580848">
        <ele>611.067</ele>
        <time>2015-08-16T13:23:57Z</time>
      </trkpt>
      <trkpt lat="42.790991" lon="-7.580981">
        <ele>611.075</ele>
        <time>2015-08-16T13:24:04Z</time>
      </trkpt>
      <trkpt lat="42.791007" lon="-7.581110">
        <ele>609.062</ele>
        <time>2015-08-16T13:24:12Z</time>
      </trkpt>
      <trkpt lat="42.791026" lon="-7.581244">
        <ele>610.040</ele>
        <time>2015-08-16T13:24:19Z</time>
      </trkpt>
      <trkpt lat="42.791033" lon="-7.581368">
        <ele>609.064</ele>
        <time>2015-08-16T13:24:25Z</time>
      </trkpt>
      <trkpt lat="42.791056" lon="-7.581498">
        <ele>609.066</ele>
        <time>2015-08-16T13:24:32Z</time>
      </trkpt>
      <trkpt lat="42.791092" lon="-7.581616">
        <ele>608.029</ele>
        <time>2015-08-16T13:24:39Z</time>
      </trkpt>
      <trkpt lat="42.791106" lon="-7.581740">
        <ele>607.021</ele>
        <time>2015-08-16T13:24:50Z</time>
      </trkpt>
      <trkpt lat="42.791118" lon="-7.581872">
        <ele>607.008</ele>
        <time>2015-08-16T13:24:56Z</time>
      </trkpt>
      <trkpt lat="42.791132" lon="-7.581999">
        <ele>606.087</ele>
        <time>2015-08-16T13:25:02Z</time>
      </trkpt>
      <trkpt lat="42.791144" lon="-7.582139">
        <ele>604.066</ele>
        <time>2015-08-16T13:25:10Z</time>
      </trkpt>
      <trkpt lat="42.791159" lon="-7.582278">
        <ele>606.050</ele>
        <time>2015-08-16T13:25:17Z</time>
      </trkpt>
      <trkpt lat="42.791182" lon="-7.582411">
        <ele>605.075</ele>
        <time>2015-08-16T13:25:23Z</time>
      </trkpt>
      <trkpt lat="42.791188" lon="-7.582543">
        <ele>605.083</ele>
        <time>2015-08-16T13:25:34Z</time>
      </trkpt>
      <trkpt lat="42.791218" lon="-7.582677">
        <ele>604.020</ele>
        <time>2015-08-16T13:25:41Z</time>
      </trkpt>
      <trkpt lat="42.791248" lon="-7.582792">
        <ele>603.088</ele>
        <time>2015-08-16T13:25:49Z</time>
      </trkpt>
      <trkpt lat="42.791318" lon="-7.582888">
        <ele>602.082</ele>
        <time>2015-08-16T13:25:57Z</time>
      </trkpt>
      <trkpt lat="42.791347" lon="-7.583012">
        <ele>600.091</ele>
        <time>2015-08-16T13:26:04Z</time>
      </trkpt>
      <trkpt lat="42.791360" lon="-7.583144">
        <ele>597.081</ele>
        <time>2015-08-16T13:26:11Z</time>
      </trkpt>
      <trkpt lat="42.791386" lon="-7.583271">
        <ele>596.019</ele>
        <time>2015-08-16T13:26:19Z</time>
      </trkpt>
      <trkpt lat="42.791397" lon="-7.583284">
        <ele>596.008</ele>
        <time>2015-08-16T13:26:20Z</time>
      </trkpt>
      <trkpt lat="42.791444" lon="-7.583396">
        <ele>595.090</ele>
        <time>2015-08-16T13:26:26Z</time>
      </trkpt>
      <trkpt lat="42.791447" lon="-7.583415">
        <ele>595.039</ele>
        <time>2015-08-16T13:26:28Z</time>
      </trkpt>
      <trkpt lat="42.791505" lon="-7.583528">
        <ele>593.063</ele>
        <time>2015-08-16T13:26:34Z</time>
      </trkpt>
      <trkpt lat="42.791505" lon="-7.583528">
        <ele>593.098</ele>
        <time>2015-08-16T13:26:34Z</time>
      </trkpt>
      <trkpt lat="42.791580" lon="-7.583606">
        <ele>593.076</ele>
        <time>2015-08-16T13:26:41Z</time>
      </trkpt>
      <trkpt lat="42.791667" lon="-7.583671">
        <ele>593.023</ele>
        <time>2015-08-16T13:26:48Z</time>
      </trkpt>
      <trkpt lat="42.791744" lon="-7.583743">
        <ele>592.031</ele>
        <time>2015-08-16T13:26:55Z</time>
      </trkpt>
      <trkpt lat="42.791824" lon="-7.583820">
        <ele>591.025</ele>
        <time>2015-08-16T13:27:02Z</time>
      </trkpt>
      <trkpt lat="42.791904" lon="-7.583901">
        <ele>590.053</ele>
        <time>2015-08-16T13:27:09Z</time>
      </trkpt>
      <trkpt lat="42.791989" lon="-7.583958">
        <ele>589.004</ele>
        <time>2015-08-16T13:27:16Z</time>
      </trkpt>
      <trkpt lat="42.792081" lon="-7.583975">
        <ele>589.014</ele>
        <time>2015-08-16T13:27:23Z</time>
      </trkpt>
      <trkpt lat="42.792171" lon="-7.583973">
        <ele>589.008</ele>
        <time>2015-08-16T13:27:30Z</time>
      </trkpt>
      <trkpt lat="42.792274" lon="-7.583963">
        <ele>589.056</ele>
        <time>2015-08-16T13:27:39Z</time>
      </trkpt>
      <trkpt lat="42.792358" lon="-7.584012">
        <ele>587.055</ele>
        <time>2015-08-16T13:27:46Z</time>
      </trkpt>
      <trkpt lat="42.792427" lon="-7.584126">
        <ele>585.039</ele>
        <time>2015-08-16T13:27:53Z</time>
      </trkpt>
      <trkpt lat="42.792499" lon="-7.584219">
        <ele>588.014</ele>
        <time>2015-08-16T13:28:01Z</time>
      </trkpt>
      <trkpt lat="42.792559" lon="-7.584319">
        <ele>585.032</ele>
        <time>2015-08-16T13:28:08Z</time>
      </trkpt>
      <trkpt lat="42.792648" lon="-7.584375">
        <ele>585.039</ele>
        <time>2015-08-16T13:28:15Z</time>
      </trkpt>
      <trkpt lat="42.792739" lon="-7.584406">
        <ele>584.027</ele>
        <time>2015-08-16T13:28:21Z</time>
      </trkpt>
      <trkpt lat="42.792832" lon="-7.584454">
        <ele>585.031</ele>
        <time>2015-08-16T13:28:27Z</time>
      </trkpt>
      <trkpt lat="42.792924" lon="-7.584493">
        <ele>586.055</ele>
        <time>2015-08-16T13:28:34Z</time>
      </trkpt>
      <trkpt lat="42.793005" lon="-7.584552">
        <ele>595.007</ele>
        <time>2015-08-16T13:28:41Z</time>
      </trkpt>
      <trkpt lat="42.793094" lon="-7.584625">
        <ele>594.017</ele>
        <time>2015-08-16T13:28:48Z</time>
      </trkpt>
      <trkpt lat="42.793164" lon="-7.584705">
        <ele>596.008</ele>
        <time>2015-08-16T13:28:55Z</time>
      </trkpt>
      <trkpt lat="42.793220" lon="-7.584819">
        <ele>592.066</ele>
        <time>2015-08-16T13:29:03Z</time>
      </trkpt>
      <trkpt lat="42.793251" lon="-7.584947">
        <ele>588.095</ele>
        <time>2015-08-16T13:29:10Z</time>
      </trkpt>
      <trkpt lat="42.793295" lon="-7.585071">
        <ele>589.099</ele>
        <time>2015-08-16T13:29:17Z</time>
      </trkpt>
      <trkpt lat="42.793342" lon="-7.585189">
        <ele>585.014</ele>
        <time>2015-08-16T13:29:24Z</time>
      </trkpt>
      <trkpt lat="42.793396" lon="-7.585305">
        <ele>582.092</ele>
        <time>2015-08-16T13:29:31Z</time>
      </trkpt>
      <trkpt lat="42.793442" lon="-7.585418">
        <ele>586.079</ele>
        <time>2015-08-16T13:29:39Z</time>
      </trkpt>
      <trkpt lat="42.793493" lon="-7.585528">
        <ele>580.037</ele>
        <time>2015-08-16T13:29:46Z</time>
      </trkpt>
      <trkpt lat="42.793534" lon="-7.585653">
        <ele>589.031</ele>
        <time>2015-08-16T13:29:54Z</time>
      </trkpt>
      <trkpt lat="42.793561" lon="-7.585771">
        <ele>589.065</ele>
        <time>2015-08-16T13:30:01Z</time>
      </trkpt>
      <trkpt lat="42.793601" lon="-7.585887">
        <ele>597.068</ele>
        <time>2015-08-16T13:30:08Z</time>
      </trkpt>
      <trkpt lat="42.793654" lon="-7.585994">
        <ele>596.014</ele>
        <time>2015-08-16T13:30:15Z</time>
      </trkpt>
      <trkpt lat="42.793663" lon="-7.586119">
        <ele>600.008</ele>
        <time>2015-08-16T13:30:22Z</time>
      </trkpt>
      <trkpt lat="42.793710" lon="-7.586232">
        <ele>575.087</ele>
        <time>2015-08-16T13:30:29Z</time>
      </trkpt>
      <trkpt lat="42.793766" lon="-7.586343">
        <ele>560.026</ele>
        <time>2015-08-16T13:30:36Z</time>
      </trkpt>
      <trkpt lat="42.793832" lon="-7.586446">
        <ele>556.050</ele>
        <time>2015-08-16T13:30:43Z</time>
      </trkpt>
      <trkpt lat="42.793887" lon="-7.586559">
        <ele>556.035</ele>
        <time>2015-08-16T13:30:49Z</time>
      </trkpt>
      <trkpt lat="42.793944" lon="-7.586665">
        <ele>555.043</ele>
        <time>2015-08-16T13:30:56Z</time>
      </trkpt>
      <trkpt lat="42.794001" lon="-7.586780">
        <ele>554.020</ele>
        <time>2015-08-16T13:31:03Z</time>
      </trkpt>
      <trkpt lat="42.794042" lon="-7.586927">
        <ele>554.048</ele>
        <time>2015-08-16T13:31:10Z</time>
      </trkpt>
      <trkpt lat="42.794062" lon="-7.587059">
        <ele>553.092</ele>
        <time>2015-08-16T13:31:17Z</time>
      </trkpt>
      <trkpt lat="42.794063" lon="-7.587192">
        <ele>551.055</ele>
        <time>2015-08-16T13:31:24Z</time>
      </trkpt>
      <trkpt lat="42.794018" lon="-7.587320">
        <ele>550.007</ele>
        <time>2015-08-16T13:31:31Z</time>
      </trkpt>
      <trkpt lat="42.793972" lon="-7.587429">
        <ele>549.017</ele>
        <time>2015-08-16T13:31:37Z</time>
      </trkpt>
      <trkpt lat="42.793930" lon="-7.587558">
        <ele>549.008</ele>
        <time>2015-08-16T13:31:44Z</time>
      </trkpt>
      <trkpt lat="42.793920" lon="-7.587689">
        <ele>547.026</ele>
        <time>2015-08-16T13:31:54Z</time>
      </trkpt>
      <trkpt lat="42.793922" lon="-7.587824">
        <ele>546.065</ele>
        <time>2015-08-16T13:32:02Z</time>
      </trkpt>
      <trkpt lat="42.793938" lon="-7.587953">
        <ele>546.099</ele>
        <time>2015-08-16T13:32:09Z</time>
      </trkpt>
      <trkpt lat="42.793966" lon="-7.588077">
        <ele>545.044</ele>
        <time>2015-08-16T13:32:16Z</time>
      </trkpt>
      <trkpt lat="42.794033" lon="-7.588168">
        <ele>542.022</ele>
        <time>2015-08-16T13:32:23Z</time>
      </trkpt>
      <trkpt lat="42.794087" lon="-7.588288">
        <ele>542.079</ele>
        <time>2015-08-16T13:32:31Z</time>
      </trkpt>
      <trkpt lat="42.794129" lon="-7.588417">
        <ele>540.067</ele>
        <time>2015-08-16T13:32:38Z</time>
      </trkpt>
      <trkpt lat="42.794152" lon="-7.588553">
        <ele>541.061</ele>
        <time>2015-08-16T13:32:45Z</time>
      </trkpt>
      <trkpt lat="42.794194" lon="-7.588702">
        <ele>535.035</ele>
        <time>2015-08-16T13:32:56Z</time>
      </trkpt>
      <trkpt lat="42.794183" lon="-7.588846">
        <ele>532.086</ele>
        <time>2015-08-16T13:33:05Z</time>
      </trkpt>
      <trkpt lat="42.794183" lon="-7.588976">
        <ele>536.014</ele>
        <time>2015-08-16T13:33:11Z</time>
      </trkpt>
      <trkpt lat="42.794201" lon="-7.589099">
        <ele>540.008</ele>
        <time>2015-08-16T13:33:17Z</time>
      </trkpt>
      <trkpt lat="42.794231" lon="-7.589222">
        <ele>544.094</ele>
        <time>2015-08-16T13:33:24Z</time>
      </trkpt>
      <trkpt lat="42.794241" lon="-7.589347">
        <ele>543.083</ele>
        <time>2015-08-16T13:33:31Z</time>
      </trkpt>
      <trkpt lat="42.794248" lon="-7.589483">
        <ele>544.087</ele>
        <time>2015-08-16T13:33:40Z</time>
      </trkpt>
      <trkpt lat="42.794265" lon="-7.589618">
        <ele>542.072</ele>
        <time>2015-08-16T13:33:47Z</time>
      </trkpt>
      <trkpt lat="42.794279" lon="-7.589748">
        <ele>543.080</ele>
        <time>2015-08-16T13:33:53Z</time>
      </trkpt>
      <trkpt lat="42.794293" lon="-7.589889">
        <ele>541.077</ele>
        <time>2015-08-16T13:34:00Z</time>
      </trkpt>
      <trkpt lat="42.794307" lon="-7.590027">
        <ele>540.025</ele>
        <time>2015-08-16T13:34:07Z</time>
      </trkpt>
      <trkpt lat="42.794305" lon="-7.590154">
        <ele>537.029</ele>
        <time>2015-08-16T13:34:12Z</time>
      </trkpt>
      <trkpt lat="42.794326" lon="-7.590293">
        <ele>535.039</ele>
        <time>2015-08-16T13:34:18Z</time>
      </trkpt>
      <trkpt lat="42.794347" lon="-7.590422">
        <ele>536.001</ele>
        <time>2015-08-16T13:34:24Z</time>
      </trkpt>
      <trkpt lat="42.794375" lon="-7.590539">
        <ele>532.021</ele>
        <time>2015-08-16T13:34:31Z</time>
      </trkpt>
      <trkpt lat="42.794380" lon="-7.590678">
        <ele>532.008</ele>
        <time>2015-08-16T13:34:38Z</time>
      </trkpt>
      <trkpt lat="42.794362" lon="-7.590819">
        <ele>533.074</ele>
        <time>2015-08-16T13:34:44Z</time>
      </trkpt>
      <trkpt lat="42.794347" lon="-7.590955">
        <ele>538.023</ele>
        <time>2015-08-16T13:34:51Z</time>
      </trkpt>
      <trkpt lat="42.794325" lon="-7.591081">
        <ele>538.087</ele>
        <time>2015-08-16T13:34:57Z</time>
      </trkpt>
      <trkpt lat="42.794297" lon="-7.591206">
        <ele>537.062</ele>
        <time>2015-08-16T13:35:04Z</time>
      </trkpt>
      <trkpt lat="42.794302" lon="-7.591347">
        <ele>536.050</ele>
        <time>2015-08-16T13:35:13Z</time>
      </trkpt>
      <trkpt lat="42.794322" lon="-7.591469">
        <ele>534.057</ele>
        <time>2015-08-16T13:35:20Z</time>
      </trkpt>
      <trkpt lat="42.794326" lon="-7.591487">
        <ele>534.045</ele>
        <time>2015-08-16T13:35:21Z</time>
      </trkpt>
      <trkpt lat="42.794364" lon="-7.591618">
        <ele>535.079</ele>
        <time>2015-08-16T13:35:28Z</time>
      </trkpt>
      <trkpt lat="42.794405" lon="-7.591748">
        <ele>535.081</ele>
        <time>2015-08-16T13:35:34Z</time>
      </trkpt>
      <trkpt lat="42.794441" lon="-7.591878">
        <ele>535.061</ele>
        <time>2015-08-16T13:35:42Z</time>
      </trkpt>
      <trkpt lat="42.794468" lon="-7.592003">
        <ele>534.017</ele>
        <time>2015-08-16T13:35:49Z</time>
      </trkpt>
      <trkpt lat="42.794497" lon="-7.592120">
        <ele>533.008</ele>
        <time>2015-08-16T13:35:56Z</time>
      </trkpt>
      <trkpt lat="42.794529" lon="-7.592239">
        <ele>531.049</ele>
        <time>2015-08-16T13:36:03Z</time>
      </trkpt>
      <trkpt lat="42.794567" lon="-7.592357">
        <ele>530.068</ele>
        <time>2015-08-16T13:36:10Z</time>
      </trkpt>
      <trkpt lat="42.794612" lon="-7.592476">
        <ele>528.072</ele>
        <time>2015-08-16T13:36:16Z</time>
      </trkpt>
      <trkpt lat="42.794658" lon="-7.592600">
        <ele>529.027</ele>
        <time>2015-08-16T13:36:24Z</time>
      </trkpt>
      <trkpt lat="42.794689" lon="-7.592727">
        <ele>528.055</ele>
        <time>2015-08-16T13:36:31Z</time>
      </trkpt>
      <trkpt lat="42.794714" lon="-7.592864">
        <ele>528.062</ele>
        <time>2015-08-16T13:36:38Z</time>
      </trkpt>
      <trkpt lat="42.794742" lon="-7.592996">
        <ele>527.060</ele>
        <time>2015-08-16T13:36:45Z</time>
      </trkpt>
      <trkpt lat="42.794757" lon="-7.593130">
        <ele>527.084</ele>
        <time>2015-08-16T13:36:52Z</time>
      </trkpt>
      <trkpt lat="42.794783" lon="-7.593250">
        <ele>527.041</ele>
        <time>2015-08-16T13:36:58Z</time>
      </trkpt>
      <trkpt lat="42.794810" lon="-7.593369">
        <ele>527.081</ele>
        <time>2015-08-16T13:37:04Z</time>
      </trkpt>
      <trkpt lat="42.794830" lon="-7.593502">
        <ele>527.009</ele>
        <time>2015-08-16T13:37:11Z</time>
      </trkpt>
      <trkpt lat="42.794855" lon="-7.593633">
        <ele>527.008</ele>
        <time>2015-08-16T13:37:18Z</time>
      </trkpt>
      <trkpt lat="42.794873" lon="-7.593765">
        <ele>527.075</ele>
        <time>2015-08-16T13:37:26Z</time>
      </trkpt>
      <trkpt lat="42.794873" lon="-7.593765">
        <ele>527.024</ele>
        <time>2015-08-16T13:37:26Z</time>
      </trkpt>
      <trkpt lat="42.794880" lon="-7.593899">
        <ele>527.068</ele>
        <time>2015-08-16T13:37:32Z</time>
      </trkpt>
      <trkpt lat="42.794886" lon="-7.594030">
        <ele>527.063</ele>
        <time>2015-08-16T13:37:39Z</time>
      </trkpt>
      <trkpt lat="42.794893" lon="-7.594168">
        <ele>526.051</ele>
        <time>2015-08-16T13:37:46Z</time>
      </trkpt>
      <trkpt lat="42.794900" lon="-7.594303">
        <ele>525.048</ele>
        <time>2015-08-16T13:37:53Z</time>
      </trkpt>
      <trkpt lat="42.794927" lon="-7.594433">
        <ele>524.096</ele>
        <time>2015-08-16T13:38:00Z</time>
      </trkpt>
      <trkpt lat="42.794964" lon="-7.594546">
        <ele>525.060</ele>
        <time>2015-08-16T13:38:07Z</time>
      </trkpt>
      <trkpt lat="42.794984" lon="-7.594680">
        <ele>522.087</ele>
        <time>2015-08-16T13:38:16Z</time>
      </trkpt>
      <trkpt lat="42.795016" lon="-7.594811">
        <ele>518.042</ele>
        <time>2015-08-16T13:38:24Z</time>
      </trkpt>
      <trkpt lat="42.795043" lon="-7.594938">
        <ele>516.026</ele>
        <time>2015-08-16T13:38:32Z</time>
      </trkpt>
      <trkpt lat="42.795068" lon="-7.595070">
        <ele>516.008</ele>
        <time>2015-08-16T13:38:39Z</time>
      </trkpt>
      <trkpt lat="42.795097" lon="-7.595195">
        <ele>515.059</ele>
        <time>2015-08-16T13:38:46Z</time>
      </trkpt>
      <trkpt lat="42.795130" lon="-7.595322">
        <ele>514.078</ele>
        <time>2015-08-16T13:38:53Z</time>
      </trkpt>
      <trkpt lat="42.795156" lon="-7.595443">
        <ele>513.042</ele>
        <time>2015-08-16T13:39:00Z</time>
      </trkpt>
      <trkpt lat="42.795177" lon="-7.595573">
        <ele>511.077</ele>
        <time>2015-08-16T13:39:07Z</time>
      </trkpt>
      <trkpt lat="42.795191" lon="-7.595697">
        <ele>509.055</ele>
        <time>2015-08-16T13:39:14Z</time>
      </trkpt>
      <trkpt lat="42.795194" lon="-7.595832">
        <ele>507.092</ele>
        <time>2015-08-16T13:39:21Z</time>
      </trkpt>
      <trkpt lat="42.795201" lon="-7.595971">
        <ele>508.060</ele>
        <time>2015-08-16T13:39:28Z</time>
      </trkpt>
      <trkpt lat="42.795239" lon="-7.596097">
        <ele>509.084</ele>
        <time>2015-08-16T13:39:34Z</time>
      </trkpt>
      <trkpt lat="42.795269" lon="-7.596224">
        <ele>509.098</ele>
        <time>2015-08-16T13:39:42Z</time>
      </trkpt>
      <trkpt lat="42.795271" lon="-7.596361">
        <ele>508.015</ele>
        <time>2015-08-16T13:39:49Z</time>
      </trkpt>
      <trkpt lat="42.795248" lon="-7.596481">
        <ele>505.026</ele>
        <time>2015-08-16T13:39:56Z</time>
      </trkpt>
      <trkpt lat="42.795233" lon="-7.596620">
        <ele>507.008</ele>
        <time>2015-08-16T13:40:04Z</time>
      </trkpt>
      <trkpt lat="42.795214" lon="-7.596752">
        <ele>505.060</ele>
        <time>2015-08-16T13:40:11Z</time>
      </trkpt>
      <trkpt lat="42.795196" lon="-7.596887">
        <ele>505.019</ele>
        <time>2015-08-16T13:40:18Z</time>
      </trkpt>
      <trkpt lat="42.795182" lon="-7.597019">
        <ele>505.083</ele>
        <time>2015-08-16T13:40:25Z</time>
      </trkpt>
      <trkpt lat="42.795223" lon="-7.597143">
        <ele>503.038</ele>
        <time>2015-08-16T13:40:33Z</time>
      </trkpt>
      <trkpt lat="42.795261" lon="-7.597256">
        <ele>501.066</ele>
        <time>2015-08-16T13:40:40Z</time>
      </trkpt>
      <trkpt lat="42.795292" lon="-7.597374">
        <ele>501.043</ele>
        <time>2015-08-16T13:40:47Z</time>
      </trkpt>
      <trkpt lat="42.795335" lon="-7.597488">
        <ele>500.041</ele>
        <time>2015-08-16T13:40:54Z</time>
      </trkpt>
      <trkpt lat="42.795366" lon="-7.597605">
        <ele>498.035</ele>
        <time>2015-08-16T13:41:01Z</time>
      </trkpt>
      <trkpt lat="42.795384" lon="-7.597725">
        <ele>497.049</ele>
        <time>2015-08-16T13:41:08Z</time>
      </trkpt>
      <trkpt lat="42.795415" lon="-7.597858">
        <ele>495.002</ele>
        <time>2015-08-16T13:41:15Z</time>
      </trkpt>
      <trkpt lat="42.795440" lon="-7.597989">
        <ele>495.022</ele>
        <time>2015-08-16T13:41:22Z</time>
      </trkpt>
      <trkpt lat="42.795472" lon="-7.598115">
        <ele>494.008</ele>
        <time>2015-08-16T13:41:29Z</time>
      </trkpt>
      <trkpt lat="42.795496" lon="-7.598249">
        <ele>493.035</ele>
        <time>2015-08-16T13:41:36Z</time>
      </trkpt>
      <trkpt lat="42.795523" lon="-7.598382">
        <ele>492.074</ele>
        <time>2015-08-16T13:41:43Z</time>
      </trkpt>
      <trkpt lat="42.795542" lon="-7.598515">
        <ele>491.048</ele>
        <time>2015-08-16T13:41:49Z</time>
      </trkpt>
      <trkpt lat="42.795532" lon="-7.598643">
        <ele>490.083</ele>
        <time>2015-08-16T13:41:56Z</time>
      </trkpt>
      <trkpt lat="42.795527" lon="-7.598780">
        <ele>490.071</ele>
        <time>2015-08-16T13:42:04Z</time>
      </trkpt>
      <trkpt lat="42.795530" lon="-7.598909">
        <ele>490.018</ele>
        <time>2015-08-16T13:42:11Z</time>
      </trkpt>
      <trkpt lat="42.795505" lon="-7.599033">
        <ele>490.046</ele>
        <time>2015-08-16T13:42:18Z</time>
      </trkpt>
      <trkpt lat="42.795507" lon="-7.599167">
        <ele>490.010</ele>
        <time>2015-08-16T13:42:25Z</time>
      </trkpt>
      <trkpt lat="42.795499" lon="-7.599300">
        <ele>491.094</ele>
        <time>2015-08-16T13:42:32Z</time>
      </trkpt>
      <trkpt lat="42.795501" lon="-7.599427">
        <ele>491.057</ele>
        <time>2015-08-16T13:42:39Z</time>
      </trkpt>
      <trkpt lat="42.795504" lon="-7.599551">
        <ele>490.022</ele>
        <time>2015-08-16T13:42:46Z</time>
      </trkpt>
      <trkpt lat="42.795514" lon="-7.599679">
        <ele>489.008</ele>
        <time>2015-08-16T13:42:53Z</time>
      </trkpt>
      <trkpt lat="42.795522" lon="-7.599809">
        <ele>489.010</ele>
        <time>2015-08-16T13:43:00Z</time>
      </trkpt>
      <trkpt lat="42.795526" lon="-7.599938">
        <ele>489.019</ele>
        <time>2015-08-16T13:43:07Z</time>
      </trkpt>
      <trkpt lat="42.795537" lon="-7.600063">
        <ele>489.083</ele>
        <time>2015-08-16T13:43:14Z</time>
      </trkpt>
      <trkpt lat="42.795555" lon="-7.600189">
        <ele>489.028</ele>
        <time>2015-08-16T13:43:21Z</time>
      </trkpt>
      <trkpt lat="42.795566" lon="-7.600327">
        <ele>488.096</ele>
        <time>2015-08-16T13:43:29Z</time>
      </trkpt>
      <trkpt lat="42.795581" lon="-7.600459">
        <ele>489.083</ele>
        <time>2015-08-16T13:43:38Z</time>
      </trkpt>
      <trkpt lat="42.795603" lon="-7.600591">
        <ele>489.031</ele>
        <time>2015-08-16T13:43:45Z</time>
      </trkpt>
      <trkpt lat="42.795603" lon="-7.600591">
        <ele>489.065</ele>
        <time>2015-08-16T13:43:45Z</time>
      </trkpt>
      <trkpt lat="42.795611" lon="-7.600716">
        <ele>490.054</ele>
        <time>2015-08-16T13:43:52Z</time>
      </trkpt>
      <trkpt lat="42.795586" lon="-7.600849">
        <ele>489.056</ele>
        <time>2015-08-16T13:44:00Z</time>
      </trkpt>
      <trkpt lat="42.795550" lon="-7.600964">
        <ele>489.011</ele>
        <time>2015-08-16T13:44:07Z</time>
      </trkpt>
      <trkpt lat="42.795536" lon="-7.601095">
        <ele>489.008</ele>
        <time>2015-08-16T13:44:15Z</time>
      </trkpt>
      <trkpt lat="42.795523" lon="-7.601216">
        <ele>488.086</ele>
        <time>2015-08-16T13:44:25Z</time>
      </trkpt>
      <trkpt lat="42.795505" lon="-7.601351">
        <ele>488.015</ele>
        <time>2015-08-16T13:44:33Z</time>
      </trkpt>
      <trkpt lat="42.795492" lon="-7.601481">
        <ele>488.069</ele>
        <time>2015-08-16T13:44:40Z</time>
      </trkpt>
      <trkpt lat="42.795480" lon="-7.601610">
        <ele>489.064</ele>
        <time>2015-08-16T13:44:47Z</time>
      </trkpt>
      <trkpt lat="42.795456" lon="-7.601738">
        <ele>490.052</ele>
        <time>2015-08-16T13:44:54Z</time>
      </trkpt>
      <trkpt lat="42.795461" lon="-7.601874">
        <ele>490.019</ele>
        <time>2015-08-16T13:45:01Z</time>
      </trkpt>
      <trkpt lat="42.795469" lon="-7.602002">
        <ele>490.087</ele>
        <time>2015-08-16T13:45:08Z</time>
      </trkpt>
      <trkpt lat="42.795498" lon="-7.602131">
        <ele>487.031</ele>
        <time>2015-08-16T13:45:16Z</time>
      </trkpt>
      <trkpt lat="42.795577" lon="-7.602216">
        <ele>486.081</ele>
        <time>2015-08-16T13:45:23Z</time>
      </trkpt>
      <trkpt lat="42.795651" lon="-7.602303">
        <ele>485.061</ele>
        <time>2015-08-16T13:45:30Z</time>
      </trkpt>
      <trkpt lat="42.795681" lon="-7.602422">
        <ele>485.017</ele>
        <time>2015-08-16T13:45:36Z</time>
      </trkpt>
      <trkpt lat="42.795680" lon="-7.602545">
        <ele>485.008</ele>
        <time>2015-08-16T13:45:41Z</time>
      </trkpt>
      <trkpt lat="42.795691" lon="-7.602677">
        <ele>487.099</ele>
        <time>2015-08-16T13:45:48Z</time>
      </trkpt>
      <trkpt lat="42.795695" lon="-7.602811">
        <ele>486.028</ele>
        <time>2015-08-16T13:46:10Z</time>
      </trkpt>
      <trkpt lat="42.795685" lon="-7.602948">
        <ele>484.022</ele>
        <time>2015-08-16T13:46:19Z</time>
      </trkpt>
      <trkpt lat="42.795665" lon="-7.603071">
        <ele>482.047</ele>
        <time>2015-08-16T13:46:26Z</time>
      </trkpt>
      <trkpt lat="42.795657" lon="-7.603194">
        <ele>483.085</ele>
        <time>2015-08-16T13:46:33Z</time>
      </trkpt>
      <trkpt lat="42.795637" lon="-7.603350">
        <ele>482.022</ele>
        <time>2015-08-16T13:46:40Z</time>
      </trkpt>
      <trkpt lat="42.795598" lon="-7.603472">
        <ele>482.080</ele>
        <time>2015-08-16T13:46:47Z</time>
      </trkpt>
      <trkpt lat="42.795519" lon="-7.603558">
        <ele>480.054</ele>
        <time>2015-08-16T13:46:55Z</time>
      </trkpt>
      <trkpt lat="42.795427" lon="-7.603617">
        <ele>482.078</ele>
        <time>2015-08-16T13:47:03Z</time>
      </trkpt>
      <trkpt lat="42.795347" lon="-7.603690">
        <ele>482.033</ele>
        <time>2015-08-16T13:47:10Z</time>
      </trkpt>
      <trkpt lat="42.795297" lon="-7.603808">
        <ele>482.026</ele>
        <time>2015-08-16T13:47:17Z</time>
      </trkpt>
      <trkpt lat="42.795240" lon="-7.603905">
        <ele>480.008</ele>
        <time>2015-08-16T13:47:25Z</time>
      </trkpt>
      <trkpt lat="42.795181" lon="-7.603999">
        <ele>479.058</ele>
        <time>2015-08-16T13:47:32Z</time>
      </trkpt>
      <trkpt lat="42.795111" lon="-7.604097">
        <ele>480.087</ele>
        <time>2015-08-16T13:47:40Z</time>
      </trkpt>
      <trkpt lat="42.795069" lon="-7.604207">
        <ele>479.021</ele>
        <time>2015-08-16T13:47:47Z</time>
      </trkpt>
      <trkpt lat="42.795060" lon="-7.604340">
        <ele>480.086</ele>
        <time>2015-08-16T13:47:54Z</time>
      </trkpt>
      <trkpt lat="42.795062" lon="-7.604465">
        <ele>480.094</ele>
        <time>2015-08-16T13:48:01Z</time>
      </trkpt>
      <trkpt lat="42.795067" lon="-7.604588">
        <ele>482.011</ele>
        <time>2015-08-16T13:48:08Z</time>
      </trkpt>
      <trkpt lat="42.795067" lon="-7.604588">
        <ele>482.019</ele>
        <time>2015-08-16T13:48:08Z</time>
      </trkpt>
      <trkpt lat="42.795066" lon="-7.604605">
        <ele>482.063</ele>
        <time>2015-08-16T13:48:16Z</time>
      </trkpt>
      <trkpt lat="42.795087" lon="-7.604741">
        <ele>483.053</ele>
        <time>2015-08-16T13:48:17Z</time>
      </trkpt>
      <trkpt lat="42.795109" lon="-7.604871">
        <ele>482.004</ele>
        <time>2015-08-16T13:48:24Z</time>
      </trkpt>
      <trkpt lat="42.795138" lon="-7.604992">
        <ele>483.014</ele>
        <time>2015-08-16T13:48:31Z</time>
      </trkpt>
      <trkpt lat="42.795180" lon="-7.605118">
        <ele>482.008</ele>
        <time>2015-08-16T13:48:38Z</time>
      </trkpt>
      <trkpt lat="42.795214" lon="-7.605239">
        <ele>482.076</ele>
        <time>2015-08-16T13:48:45Z</time>
      </trkpt>
      <trkpt lat="42.795247" lon="-7.605367">
        <ele>481.035</ele>
        <time>2015-08-16T13:48:52Z</time>
      </trkpt>
      <trkpt lat="42.795272" lon="-7.605502">
        <ele>481.099</ele>
        <time>2015-08-16T13:48:59Z</time>
      </trkpt>
      <trkpt lat="42.795314" lon="-7.605632">
        <ele>480.054</ele>
        <time>2015-08-16T13:49:06Z</time>
      </trkpt>
      <trkpt lat="42.795357" lon="-7.605746">
        <ele>478.092</ele>
        <time>2015-08-16T13:49:13Z</time>
      </trkpt>
      <trkpt lat="42.795399" lon="-7.605877">
        <ele>478.049</ele>
        <time>2015-08-16T13:49:20Z</time>
      </trkpt>
      <trkpt lat="42.795432" lon="-7.605993">
        <ele>478.027</ele>
        <time>2015-08-16T13:49:26Z</time>
      </trkpt>
      <trkpt lat="42.795458" lon="-7.606133">
        <ele>478.081</ele>
        <time>2015-08-16T13:49:32Z</time>
      </trkpt>
      <trkpt lat="42.795483" lon="-7.606254">
        <ele>479.056</ele>
        <time>2015-08-16T13:49:38Z</time>
      </trkpt>
      <trkpt lat="42.795510" lon="-7.606371">
        <ele>479.059</ele>
        <time>2015-08-16T13:49:44Z</time>
      </trkpt>
      <trkpt lat="42.795541" lon="-7.606505">
        <ele>479.014</ele>
        <time>2015-08-16T13:49:51Z</time>
      </trkpt>
      <trkpt lat="42.795581" lon="-7.606634">
        <ele>478.008</ele>
        <time>2015-08-16T13:50:00Z</time>
      </trkpt>
      <trkpt lat="42.795605" lon="-7.606760">
        <ele>478.086</ele>
        <time>2015-08-16T13:50:07Z</time>
      </trkpt>
      <trkpt lat="42.795628" lon="-7.606878">
        <ele>479.015</ele>
        <time>2015-08-16T13:50:14Z</time>
      </trkpt>
      <trkpt lat="42.795639" lon="-7.607003">
        <ele>480.059</ele>
        <time>2015-08-16T13:50:21Z</time>
      </trkpt>
      <trkpt lat="42.795654" lon="-7.607137">
        <ele>481.014</ele>
        <time>2015-08-16T13:50:28Z</time>
      </trkpt>
      <trkpt lat="42.795663" lon="-7.607271">
        <ele>481.022</ele>
        <time>2015-08-16T13:50:35Z</time>
      </trkpt>
      <trkpt lat="42.795671" lon="-7.607400">
        <ele>480.049</ele>
        <time>2015-08-16T13:50:42Z</time>
      </trkpt>
      <trkpt lat="42.795683" lon="-7.607538">
        <ele>480.037</ele>
        <time>2015-08-16T13:50:49Z</time>
      </trkpt>
      <trkpt lat="42.795683" lon="-7.607538">
        <ele>480.021</ele>
        <time>2015-08-16T13:50:49Z</time>
      </trkpt>
      <trkpt lat="42.795698" lon="-7.607671">
        <ele>481.056</ele>
        <time>2015-08-16T13:50:56Z</time>
      </trkpt>
      <trkpt lat="42.795718" lon="-7.607797">
        <ele>481.059</ele>
        <time>2015-08-16T13:51:03Z</time>
      </trkpt>
      <trkpt lat="42.795743" lon="-7.607925">
        <ele>481.014</ele>
        <time>2015-08-16T13:51:10Z</time>
      </trkpt>
      <trkpt lat="42.795769" lon="-7.608051">
        <ele>481.008</ele>
        <time>2015-08-16T13:51:17Z</time>
      </trkpt>
      <trkpt lat="42.795804" lon="-7.608166">
        <ele>480.056</ele>
        <time>2015-08-16T13:51:24Z</time>
      </trkpt>
      <trkpt lat="42.795845" lon="-7.608281">
        <ele>479.065</ele>
        <time>2015-08-16T13:51:32Z</time>
      </trkpt>
      <trkpt lat="42.795888" lon="-7.608397">
        <ele>480.039</ele>
        <time>2015-08-16T13:51:39Z</time>
      </trkpt>
      <trkpt lat="42.795916" lon="-7.608528">
        <ele>479.034</ele>
        <time>2015-08-16T13:51:46Z</time>
      </trkpt>
      <trkpt lat="42.795936" lon="-7.608659">
        <ele>479.092</ele>
        <time>2015-08-16T13:51:53Z</time>
      </trkpt>
      <trkpt lat="42.795974" lon="-7.608793">
        <ele>477.029</ele>
        <time>2015-08-16T13:52:00Z</time>
      </trkpt>
      <trkpt lat="42.796004" lon="-7.608919">
        <ele>471.027</ele>
        <time>2015-08-16T13:52:08Z</time>
      </trkpt>
      <trkpt lat="42.796029" lon="-7.609046">
        <ele>475.051</ele>
        <time>2015-08-16T13:52:16Z</time>
      </trkpt>
      <trkpt lat="42.796100" lon="-7.609126">
        <ele>478.058</ele>
        <time>2015-08-16T13:52:23Z</time>
      </trkpt>
      <trkpt lat="42.796187" lon="-7.609202">
        <ele>480.052</ele>
        <time>2015-08-16T13:52:32Z</time>
      </trkpt>
      <trkpt lat="42.796281" lon="-7.609256">
        <ele>479.017</ele>
        <time>2015-08-16T13:52:40Z</time>
      </trkpt>
      <trkpt lat="42.796377" lon="-7.609218">
        <ele>478.008</ele>
        <time>2015-08-16T13:52:47Z</time>
      </trkpt>
      <trkpt lat="42.796458" lon="-7.609136">
        <ele>479.016</ele>
        <time>2015-08-16T13:52:53Z</time>
      </trkpt>
      <trkpt lat="42.796529" lon="-7.609051">
        <ele>480.035</ele>
        <time>2015-08-16T13:52:59Z</time>
      </trkpt>
      <trkpt lat="42.796593" lon="-7.608940">
        <ele>481.029</ele>
        <time>2015-08-16T13:53:06Z</time>
      </trkpt>
      <trkpt lat="42.796646" lon="-7.608822">
        <ele>481.064</ele>
        <time>2015-08-16T13:53:13Z</time>
      </trkpt>
      <trkpt lat="42.796725" lon="-7.608736">
        <ele>482.042</ele>
        <time>2015-08-16T13:53:20Z</time>
      </trkpt>
      <trkpt lat="42.796809" lon="-7.608666">
        <ele>481.049</ele>
        <time>2015-08-16T13:53:27Z</time>
      </trkpt>
      <trkpt lat="42.796896" lon="-7.608607">
        <ele>480.087</ele>
        <time>2015-08-16T13:53:33Z</time>
      </trkpt>
      <trkpt lat="42.796981" lon="-7.608539">
        <ele>480.091</ele>
        <time>2015-08-16T13:53:41Z</time>
      </trkpt>
      <trkpt lat="42.797071" lon="-7.608499">
        <ele>479.051</ele>
        <time>2015-08-16T13:53:48Z</time>
      </trkpt>
      <trkpt lat="42.797157" lon="-7.608448">
        <ele>480.001</ele>
        <time>2015-08-16T13:53:55Z</time>
      </trkpt>
      <trkpt lat="42.797240" lon="-7.608397">
        <ele>480.011</ele>
        <time>2015-08-16T13:54:01Z</time>
      </trkpt>
      <trkpt lat="42.797323" lon="-7.608338">
        <ele>480.008</ele>
        <time>2015-08-16T13:54:07Z</time>
      </trkpt>
      <trkpt lat="42.797417" lon="-7.608274">
        <ele>479.076</ele>
        <time>2015-08-16T13:54:14Z</time>
      </trkpt>
      <trkpt lat="42.797504" lon="-7.608221">
        <ele>478.055</ele>
        <time>2015-08-16T13:54:20Z</time>
      </trkpt>
      <trkpt lat="42.797593" lon="-7.608178">
        <ele>478.079</ele>
        <time>2015-08-16T13:54:26Z</time>
      </trkpt>
      <trkpt lat="42.797694" lon="-7.608148">
        <ele>477.024</ele>
        <time>2015-08-16T13:54:33Z</time>
      </trkpt>
      <trkpt lat="42.797789" lon="-7.608156">
        <ele>477.082</ele>
        <time>2015-08-16T13:54:39Z</time>
      </trkpt>
      <trkpt lat="42.797871" lon="-7.608223">
        <ele>476.059</ele>
        <time>2015-08-16T13:54:45Z</time>
      </trkpt>
      <trkpt lat="42.797957" lon="-7.608300">
        <ele>476.077</ele>
        <time>2015-08-16T13:54:51Z</time>
      </trkpt>
      <trkpt lat="42.798029" lon="-7.608386">
        <ele>476.011</ele>
        <time>2015-08-16T13:54:57Z</time>
      </trkpt>
      <trkpt lat="42.798109" lon="-7.608468">
        <ele>480.015</ele>
        <time>2015-08-16T13:55:04Z</time>
      </trkpt>
      <trkpt lat="42.798178" lon="-7.608552">
        <ele>480.065</ele>
        <time>2015-08-16T13:55:11Z</time>
      </trkpt>
      <trkpt lat="42.798267" lon="-7.608616">
        <ele>480.011</ele>
        <time>2015-08-16T13:55:18Z</time>
      </trkpt>
      <trkpt lat="42.798352" lon="-7.608676">
        <ele>472.008</ele>
        <time>2015-08-16T13:55:25Z</time>
      </trkpt>
      <trkpt lat="42.798446" lon="-7.608675">
        <ele>475.012</ele>
        <time>2015-08-16T13:55:32Z</time>
      </trkpt>
      <trkpt lat="42.798542" lon="-7.608676">
        <ele>475.081</ele>
        <time>2015-08-16T13:55:39Z</time>
      </trkpt>
      <trkpt lat="42.798637" lon="-7.608681">
        <ele>475.095</ele>
        <time>2015-08-16T13:55:47Z</time>
      </trkpt>
      <trkpt lat="42.798736" lon="-7.608721">
        <ele>474.020</ele>
        <time>2015-08-16T13:55:55Z</time>
      </trkpt>
      <trkpt lat="42.798828" lon="-7.608741">
        <ele>474.098</ele>
        <time>2015-08-16T13:56:03Z</time>
      </trkpt>
      <trkpt lat="42.798923" lon="-7.608769">
        <ele>475.015</ele>
        <time>2015-08-16T13:56:13Z</time>
      </trkpt>
      <trkpt lat="42.799017" lon="-7.608796">
        <ele>475.063</ele>
        <time>2015-08-16T13:56:19Z</time>
      </trkpt>
      <trkpt lat="42.799083" lon="-7.608888">
        <ele>474.057</ele>
        <time>2015-08-16T13:56:25Z</time>
      </trkpt>
      <trkpt lat="42.799174" lon="-7.608948">
        <ele>474.015</ele>
        <time>2015-08-16T13:56:31Z</time>
      </trkpt>
      <trkpt lat="42.799221" lon="-7.609055">
        <ele>475.065</ele>
        <time>2015-08-16T13:56:37Z</time>
      </trkpt>
      <trkpt lat="42.799261" lon="-7.609172">
        <ele>475.011</ele>
        <time>2015-08-16T13:56:46Z</time>
      </trkpt>
      <trkpt lat="42.799294" lon="-7.609309">
        <ele>475.008</ele>
        <time>2015-08-16T13:56:54Z</time>
      </trkpt>
      <trkpt lat="42.799325" lon="-7.609433">
        <ele>464.052</ele>
        <time>2015-08-16T13:57:00Z</time>
      </trkpt>
      <trkpt lat="42.799385" lon="-7.609562">
        <ele>457.061</ele>
        <time>2015-08-16T13:57:05Z</time>
      </trkpt>
      <trkpt lat="42.799425" lon="-7.609697">
        <ele>455.085</ele>
        <time>2015-08-16T13:57:10Z</time>
      </trkpt>
      <trkpt lat="42.799464" lon="-7.609833">
        <ele>453.040</ele>
        <time>2015-08-16T13:57:15Z</time>
      </trkpt>
      <trkpt lat="42.799476" lon="-7.609960">
        <ele>452.068</ele>
        <time>2015-08-16T13:57:21Z</time>
      </trkpt>
      <trkpt lat="42.799498" lon="-7.610095">
        <ele>452.065</ele>
        <time>2015-08-16T13:57:34Z</time>
      </trkpt>
      <trkpt lat="42.799523" lon="-7.610214">
        <ele>451.053</ele>
        <time>2015-08-16T13:57:41Z</time>
      </trkpt>
      <trkpt lat="42.799539" lon="-7.610346">
        <ele>449.047</ele>
        <time>2015-08-16T13:57:48Z</time>
      </trkpt>
      <trkpt lat="42.799565" lon="-7.610479">
        <ele>447.021</ele>
        <time>2015-08-16T13:57:55Z</time>
      </trkpt>
      <trkpt lat="42.799627" lon="-7.610588">
        <ele>443.041</ele>
        <time>2015-08-16T13:58:03Z</time>
      </trkpt>
      <trkpt lat="42.799708" lon="-7.610669">
        <ele>439.005</ele>
        <time>2015-08-16T13:58:11Z</time>
      </trkpt>
      <trkpt lat="42.799801" lon="-7.610703">
        <ele>437.008</ele>
        <time>2015-08-16T13:58:19Z</time>
      </trkpt>
      <trkpt lat="42.799890" lon="-7.610728">
        <ele>436.073</ele>
        <time>2015-08-16T13:58:26Z</time>
      </trkpt>
      <trkpt lat="42.799985" lon="-7.610773">
        <ele>435.082</ele>
        <time>2015-08-16T13:58:33Z</time>
      </trkpt>
      <trkpt lat="42.800072" lon="-7.610810">
        <ele>431.086</ele>
        <time>2015-08-16T13:58:39Z</time>
      </trkpt>
      <trkpt lat="42.800150" lon="-7.610872">
        <ele>429.081</ele>
        <time>2015-08-16T13:58:46Z</time>
      </trkpt>
      <trkpt lat="42.800226" lon="-7.610943">
        <ele>424.059</ele>
        <time>2015-08-16T13:58:52Z</time>
      </trkpt>
      <trkpt lat="42.800308" lon="-7.611010">
        <ele>419.036</ele>
        <time>2015-08-16T13:58:59Z</time>
      </trkpt>
      <trkpt lat="42.800356" lon="-7.611127">
        <ele>419.034</ele>
        <time>2015-08-16T13:59:06Z</time>
      </trkpt>
      <trkpt lat="42.800383" lon="-7.611251">
        <ele>418.078</ele>
        <time>2015-08-16T13:59:14Z</time>
      </trkpt>
      <trkpt lat="42.800397" lon="-7.611376">
        <ele>419.094</ele>
        <time>2015-08-16T13:59:20Z</time>
      </trkpt>
      <trkpt lat="42.800404" lon="-7.611511">
        <ele>420.057</ele>
        <time>2015-08-16T13:59:26Z</time>
      </trkpt>
      <trkpt lat="42.800426" lon="-7.611641">
        <ele>418.022</ele>
        <time>2015-08-16T13:59:32Z</time>
      </trkpt>
      <trkpt lat="42.800461" lon="-7.611755">
        <ele>418.008</ele>
        <time>2015-08-16T13:59:38Z</time>
      </trkpt>
      <trkpt lat="42.800551" lon="-7.611779">
        <ele>412.090</ele>
        <time>2015-08-16T13:59:44Z</time>
      </trkpt>
      <trkpt lat="42.800650" lon="-7.611825">
        <ele>408.089</ele>
        <time>2015-08-16T13:59:51Z</time>
      </trkpt>
      <trkpt lat="42.800753" lon="-7.611848">
        <ele>407.093</ele>
        <time>2015-08-16T13:59:58Z</time>
      </trkpt>
      <trkpt lat="42.800844" lon="-7.611867">
        <ele>407.028</ele>
        <time>2015-08-16T14:00:03Z</time>
      </trkpt>
      <trkpt lat="42.800940" lon="-7.611905">
        <ele>406.086</ele>
        <time>2015-08-16T14:00:09Z</time>
      </trkpt>
      <trkpt lat="42.800989" lon="-7.612020">
        <ele>407.063</ele>
        <time>2015-08-16T14:00:18Z</time>
      </trkpt>
      <trkpt lat="42.800957" lon="-7.612139">
        <ele>407.071</ele>
        <time>2015-08-16T14:00:26Z</time>
      </trkpt>
      <trkpt lat="42.800955" lon="-7.612277">
        <ele>410.095</ele>
        <time>2015-08-16T14:00:34Z</time>
      </trkpt>
      <trkpt lat="42.801007" lon="-7.612385">
        <ele>411.036</ele>
        <time>2015-08-16T14:00:47Z</time>
      </trkpt>
      <trkpt lat="42.801066" lon="-7.612495">
        <ele>409.017</ele>
        <time>2015-08-16T14:00:55Z</time>
      </trkpt>
      <trkpt lat="42.801147" lon="-7.612575">
        <ele>410.018</ele>
        <time>2015-08-16T14:01:05Z</time>
      </trkpt>
      <trkpt lat="42.801234" lon="-7.612640">
        <ele>409.008</ele>
        <time>2015-08-16T14:01:13Z</time>
      </trkpt>
      <trkpt lat="42.801314" lon="-7.612705">
        <ele>409.014</ele>
        <time>2015-08-16T14:01:20Z</time>
      </trkpt>
      <trkpt lat="42.801401" lon="-7.612775">
        <ele>408.023</ele>
        <time>2015-08-16T14:01:28Z</time>
      </trkpt>
      <trkpt lat="42.801484" lon="-7.612824">
        <ele>409.077</ele>
        <time>2015-08-16T14:01:35Z</time>
      </trkpt>
      <trkpt lat="42.801577" lon="-7.612869">
        <ele>411.012</ele>
        <time>2015-08-16T14:01:42Z</time>
      </trkpt>
      <trkpt lat="42.801672" lon="-7.612925">
        <ele>412.090</ele>
        <time>2015-08-16T14:01:49Z</time>
      </trkpt>
      <trkpt lat="42.801758" lon="-7.612965">
        <ele>414.057</ele>
        <time>2015-08-16T14:01:55Z</time>
      </trkpt>
      <trkpt lat="42.801852" lon="-7.613017">
        <ele>415.065</ele>
        <time>2015-08-16T14:02:09Z</time>
      </trkpt>
      <trkpt lat="42.801943" lon="-7.613064">
        <ele>414.079</ele>
        <time>2015-08-16T14:02:15Z</time>
      </trkpt>
      <trkpt lat="42.802024" lon="-7.613140">
        <ele>414.098</ele>
        <time>2015-08-16T14:02:23Z</time>
      </trkpt>
      <trkpt lat="42.802095" lon="-7.613233">
        <ele>413.015</ele>
        <time>2015-08-16T14:02:30Z</time>
      </trkpt>
      <trkpt lat="42.802152" lon="-7.613353">
        <ele>413.026</ele>
        <time>2015-08-16T14:02:37Z</time>
      </trkpt>
      <trkpt lat="42.802194" lon="-7.613466">
        <ele>411.008</ele>
        <time>2015-08-16T14:02:43Z</time>
      </trkpt>
      <trkpt lat="42.802218" lon="-7.613591">
        <ele>412.090</ele>
        <time>2015-08-16T14:02:49Z</time>
      </trkpt>
      <trkpt lat="42.802237" lon="-7.613720">
        <ele>413.019</ele>
        <time>2015-08-16T14:02:55Z</time>
      </trkpt>
      <trkpt lat="42.802272" lon="-7.613852">
        <ele>408.043</ele>
        <time>2015-08-16T14:03:11Z</time>
      </trkpt>
      <trkpt lat="42.802259" lon="-7.613985">
        <ele>409.038</ele>
        <time>2015-08-16T14:03:18Z</time>
      </trkpt>
      <trkpt lat="42.802239" lon="-7.614110">
        <ele>408.096</ele>
        <time>2015-08-16T14:03:26Z</time>
      </trkpt>
      <trkpt lat="42.802233" lon="-7.614252">
        <ele>408.043</ele>
        <time>2015-08-16T14:03:33Z</time>
      </trkpt>
      <trkpt lat="42.802212" lon="-7.614379">
        <ele>411.081</ele>
        <time>2015-08-16T14:03:47Z</time>
      </trkpt>
      <trkpt lat="42.802191" lon="-7.614499">
        <ele>409.035</ele>
        <time>2015-08-16T14:03:54Z</time>
      </trkpt>
      <trkpt lat="42.802160" lon="-7.614624">
        <ele>408.024</ele>
        <time>2015-08-16T14:04:02Z</time>
      </trkpt>
      <trkpt lat="42.802139" lon="-7.614762">
        <ele>409.004</ele>
        <time>2015-08-16T14:04:09Z</time>
      </trkpt>
      <trkpt lat="42.802117" lon="-7.614887">
        <ele>408.014</ele>
        <time>2015-08-16T14:04:16Z</time>
      </trkpt>
      <trkpt lat="42.802148" lon="-7.615013">
        <ele>406.008</ele>
        <time>2015-08-16T14:04:24Z</time>
      </trkpt>
      <trkpt lat="42.802081" lon="-7.615103">
        <ele>406.093</ele>
        <time>2015-08-16T14:04:36Z</time>
      </trkpt>
      <trkpt lat="42.802169" lon="-7.615074">
        <ele>404.092</ele>
        <time>2015-08-16T14:06:17Z</time>
      </trkpt>
      <trkpt lat="42.802260" lon="-7.615063">
        <ele>405.016</ele>
        <time>2015-08-16T14:06:27Z</time>
      </trkpt>
      <trkpt lat="42.802345" lon="-7.615108">
        <ele>405.011</ele>
        <time>2015-08-16T14:06:36Z</time>
      </trkpt>
      <trkpt lat="42.802427" lon="-7.615173">
        <ele>406.019</ele>
        <time>2015-08-16T14:06:54Z</time>
      </trkpt>
      <trkpt lat="42.802438" lon="-7.615181">
        <ele>407.066</ele>
        <time>2015-08-16T14:06:54Z</time>
      </trkpt>
      <trkpt lat="42.802518" lon="-7.615239">
        <ele>407.034</ele>
        <time>2015-08-16T14:07:02Z</time>
      </trkpt>
      <trkpt lat="42.802600" lon="-7.615296">
        <ele>406.068</ele>
        <time>2015-08-16T14:07:15Z</time>
      </trkpt>
      <trkpt lat="42.802686" lon="-7.615358">
        <ele>403.053</ele>
        <time>2015-08-16T14:07:26Z</time>
      </trkpt>
      <trkpt lat="42.802769" lon="-7.615428">
        <ele>403.004</ele>
        <time>2015-08-16T14:07:35Z</time>
      </trkpt>
      <trkpt lat="42.802853" lon="-7.615493">
        <ele>403.014</ele>
        <time>2015-08-16T14:07:43Z</time>
      </trkpt>
      <trkpt lat="42.802939" lon="-7.615542">
        <ele>402.008</ele>
        <time>2015-08-16T14:07:52Z</time>
      </trkpt>
      <trkpt lat="42.803029" lon="-7.615595">
        <ele>402.026</ele>
        <time>2015-08-16T14:08:03Z</time>
      </trkpt>
      <trkpt lat="42.803110" lon="-7.615652">
        <ele>401.015</ele>
        <time>2015-08-16T14:08:10Z</time>
      </trkpt>
      <trkpt lat="42.803192" lon="-7.615712">
        <ele>402.019</ele>
        <time>2015-08-16T14:08:17Z</time>
      </trkpt>
      <trkpt lat="42.803278" lon="-7.615770">
        <ele>403.034</ele>
        <time>2015-08-16T14:08:24Z</time>
      </trkpt>
      <trkpt lat="42.803368" lon="-7.615830">
        <ele>402.022</ele>
        <time>2015-08-16T14:08:32Z</time>
      </trkpt>
      <trkpt lat="42.803452" lon="-7.615882">
        <ele>403.029</ele>
        <time>2015-08-16T14:08:40Z</time>
      </trkpt>
      <trkpt lat="42.803536" lon="-7.615945">
        <ele>403.097</ele>
        <time>2015-08-16T14:08:47Z</time>
      </trkpt>
      <trkpt lat="42.803618" lon="-7.616011">
        <ele>403.091</ele>
        <time>2015-08-16T14:08:54Z</time>
      </trkpt>
      <trkpt lat="42.803706" lon="-7.616078">
        <ele>402.032</ele>
        <time>2015-08-16T14:09:01Z</time>
      </trkpt>
      <trkpt lat="42.803790" lon="-7.616127">
        <ele>402.092</ele>
        <time>2015-08-16T14:09:08Z</time>
      </trkpt>
      <trkpt lat="42.803878" lon="-7.616179">
        <ele>402.011</ele>
        <time>2015-08-16T14:09:15Z</time>
      </trkpt>
      <trkpt lat="42.803975" lon="-7.616234">
        <ele>403.008</ele>
        <time>2015-08-16T14:09:22Z</time>
      </trkpt>
      <trkpt lat="42.804063" lon="-7.616291">
        <ele>404.094</ele>
        <time>2015-08-16T14:09:28Z</time>
      </trkpt>
      <trkpt lat="42.804152" lon="-7.616349">
        <ele>405.063</ele>
        <time>2015-08-16T14:09:34Z</time>
      </trkpt>
      <trkpt lat="42.804232" lon="-7.616405">
        <ele>404.077</ele>
        <time>2015-08-16T14:09:40Z</time>
      </trkpt>
      <trkpt lat="42.804322" lon="-7.616455">
        <ele>404.072</ele>
        <time>2015-08-16T14:09:47Z</time>
      </trkpt>
      <trkpt lat="42.804414" lon="-7.616491">
        <ele>404.030</ele>
        <time>2015-08-16T14:09:55Z</time>
      </trkpt>
      <trkpt lat="42.804508" lon="-7.616550">
        <ele>405.067</ele>
        <time>2015-08-16T14:10:02Z</time>
      </trkpt>
      <trkpt lat="42.804590" lon="-7.616617">
        <ele>404.075</ele>
        <time>2015-08-16T14:10:10Z</time>
      </trkpt>
      <trkpt lat="42.804677" lon="-7.616672">
        <ele>404.089</ele>
        <time>2015-08-16T14:10:19Z</time>
      </trkpt>
      <trkpt lat="42.804768" lon="-7.616728">
        <ele>404.083</ele>
        <time>2015-08-16T14:10:27Z</time>
      </trkpt>
      <trkpt lat="42.804864" lon="-7.616739">
        <ele>403.025</ele>
        <time>2015-08-16T14:10:37Z</time>
      </trkpt>
      <trkpt lat="42.804963" lon="-7.616739">
        <ele>402.017</ele>
        <time>2015-08-16T14:10:44Z</time>
      </trkpt>
      <trkpt lat="42.805049" lon="-7.616778">
        <ele>405.008</ele>
        <time>2015-08-16T14:11:06Z</time>
      </trkpt>
      <trkpt lat="42.804989" lon="-7.616870">
        <ele>401.059</ele>
        <time>2015-08-16T14:12:37Z</time>
      </trkpt>
      <trkpt lat="42.805061" lon="-7.616951">
        <ele>408.098</ele>
        <time>2015-08-16T14:13:44Z</time>
      </trkpt>
      <trkpt lat="42.805163" lon="-7.616985">
        <ele>413.082</ele>
        <time>2015-08-16T14:14:40Z</time>
      </trkpt>
      <trkpt lat="42.805232" lon="-7.617072">
        <ele>410.077</ele>
        <time>2015-08-16T14:16:11Z</time>
      </trkpt>
      <trkpt lat="42.805318" lon="-7.617108">
        <ele>413.035</ele>
        <time>2015-08-16T14:16:29Z</time>
      </trkpt>
      <trkpt lat="42.805414" lon="-7.617144">
        <ele>417.062</ele>
        <time>2015-08-16T14:16:39Z</time>
      </trkpt>
      <trkpt lat="42.805506" lon="-7.617167">
        <ele>420.070</ele>
        <time>2015-08-16T14:16:49Z</time>
      </trkpt>
      <trkpt lat="42.805596" lon="-7.617128">
        <ele>423.044</ele>
        <time>2015-08-16T14:17:00Z</time>
      </trkpt>
      <trkpt lat="42.805596" lon="-7.617128">
        <ele>423.063</ele>
        <time>2015-08-16T14:17:01Z</time>
      </trkpt>
      <trkpt lat="42.805680" lon="-7.617067">
        <ele>421.044</ele>
        <time>2015-08-16T14:17:25Z</time>
      </trkpt>
      <trkpt lat="42.805745" lon="-7.616973">
        <ele>423.018</ele>
        <time>2015-08-16T14:17:42Z</time>
      </trkpt>
      <trkpt lat="42.805815" lon="-7.616885">
        <ele>425.008</ele>
        <time>2015-08-16T14:17:49Z</time>
      </trkpt>
      <trkpt lat="42.805890" lon="-7.616800">
        <ele>428.087</ele>
        <time>2015-08-16T14:17:56Z</time>
      </trkpt>
      <trkpt lat="42.805967" lon="-7.616712">
        <ele>427.076</ele>
        <time>2015-08-16T14:18:04Z</time>
      </trkpt>
      <trkpt lat="42.806059" lon="-7.616679">
        <ele>426.020</ele>
        <time>2015-08-16T14:18:11Z</time>
      </trkpt>
      <trkpt lat="42.806107" lon="-7.616573">
        <ele>427.095</ele>
        <time>2015-08-16T14:18:26Z</time>
      </trkpt>
      <trkpt lat="42.806152" lon="-7.616460">
        <ele>427.083</ele>
        <time>2015-08-16T14:18:34Z</time>
      </trkpt>
      <trkpt lat="42.806135" lon="-7.616338">
        <ele>428.010</ele>
        <time>2015-08-16T14:18:44Z</time>
      </trkpt>
      <trkpt lat="42.806163" lon="-7.616206">
        <ele>425.078</ele>
        <time>2015-08-16T14:18:53Z</time>
      </trkpt>
      <trkpt lat="42.806222" lon="-7.616099">
        <ele>426.092</ele>
        <time>2015-08-16T14:19:02Z</time>
      </trkpt>
      <trkpt lat="42.806281" lon="-7.616001">
        <ele>427.049</ele>
        <time>2015-08-16T14:19:11Z</time>
      </trkpt>
      <trkpt lat="42.806349" lon="-7.615906">
        <ele>428.002</ele>
        <time>2015-08-16T14:19:21Z</time>
      </trkpt>
      <trkpt lat="42.806411" lon="-7.615799">
        <ele>428.022</ele>
        <time>2015-08-16T14:19:31Z</time>
      </trkpt>
      <trkpt lat="42.806494" lon="-7.615739">
        <ele>429.008</ele>
        <time>2015-08-16T14:19:40Z</time>
      </trkpt>
      <trkpt lat="42.806564" lon="-7.615661">
        <ele>430.055</ele>
        <time>2015-08-16T14:19:52Z</time>
      </trkpt>
      <trkpt lat="42.806564" lon="-7.615661">
        <ele>430.014</ele>
        <time>2015-08-16T14:19:52Z</time>
      </trkpt>
      <trkpt lat="42.806637" lon="-7.615573">
        <ele>432.068</ele>
        <time>2015-08-16T14:20:01Z</time>
      </trkpt>
      <trkpt lat="42.806701" lon="-7.615471">
        <ele>434.033</ele>
        <time>2015-08-16T14:20:08Z</time>
      </trkpt>
      <trkpt lat="42.806763" lon="-7.615374">
        <ele>436.071</ele>
        <time>2015-08-16T14:20:15Z</time>
      </trkpt>
      <trkpt lat="42.806763" lon="-7.615374">
        <ele>436.038</ele>
        <time>2015-08-16T14:20:15Z</time>
      </trkpt>
      <trkpt lat="42.806826" lon="-7.615282">
        <ele>434.076</ele>
        <time>2015-08-16T14:20:23Z</time>
      </trkpt>
      <trkpt lat="42.806826" lon="-7.615282">
        <ele>434.030</ele>
        <time>2015-08-16T14:20:24Z</time>
      </trkpt>
      <trkpt lat="42.806902" lon="-7.615217">
        <ele>435.054</ele>
        <time>2015-08-16T14:20:32Z</time>
      </trkpt>
      <trkpt lat="42.806965" lon="-7.615128">
        <ele>436.056</ele>
        <time>2015-08-16T14:20:40Z</time>
      </trkpt>
      <trkpt lat="42.807037" lon="-7.615038">
        <ele>437.011</ele>
        <time>2015-08-16T14:20:48Z</time>
      </trkpt>
      <trkpt lat="42.807108" lon="-7.614955">
        <ele>436.008</ele>
        <time>2015-08-16T14:20:55Z</time>
      </trkpt>
      <trkpt lat="42.807117" lon="-7.614956">
        <ele>436.076</ele>
        <time>2015-08-16T14:20:56Z</time>
      </trkpt>
      <trkpt lat="42.807186" lon="-7.614874">
        <ele>437.085</ele>
        <time>2015-08-16T14:21:08Z</time>
      </trkpt>
      <trkpt lat="42.807283" lon="-7.614869">
        <ele>435.069</ele>
        <time>2015-08-16T14:21:19Z</time>
      </trkpt>
      <trkpt lat="42.807283" lon="-7.614869">
        <ele>435.064</ele>
        <time>2015-08-16T14:21:19Z</time>
      </trkpt>
      <trkpt lat="42.807362" lon="-7.614954">
        <ele>437.042</ele>
        <time>2015-08-16T14:21:27Z</time>
      </trkpt>
      <trkpt lat="42.807432" lon="-7.615035">
        <ele>441.079</ele>
        <time>2015-08-16T14:21:35Z</time>
      </trkpt>
      <trkpt lat="42.808183" lon="-7.614944">
        <ele>389.086</ele>
        <time>2013-02-15T19:15:50Z</time>
      </trkpt>
      <trkpt lat="42.808114" lon="-7.614888">
        <ele>389.060</ele>
        <time>2013-02-15T19:16:10Z</time>
      </trkpt>
      <trkpt lat="42.808004" lon="-7.615049">
        <ele>389.026</ele>
        <time>2013-02-15T19:16:30Z</time>
      </trkpt>
      <trkpt lat="42.807815" lon="-7.615263">
        <ele>392.007</ele>
        <time>2013-02-15T19:16:50Z</time>
      </trkpt>
      <trkpt lat="42.807689" lon="-7.615435">
        <ele>394.071</ele>
        <time>2013-02-15T19:17:10Z</time>
      </trkpt>
      <trkpt lat="42.807532" lon="-7.615650">
        <ele>394.027</ele>
        <time>2013-02-15T19:17:30Z</time>
      </trkpt>
      <trkpt lat="42.807311" lon="-7.615950">
        <ele>393.037</ele>
        <time>2013-02-15T19:17:50Z</time>
      </trkpt>
      <trkpt lat="42.807177" lon="-7.616186">
        <ele>394.080</ele>
        <time>2013-02-15T19:18:10Z</time>
      </trkpt>
      <trkpt lat="42.807004" lon="-7.616336">
        <ele>391.058</ele>
        <time>2013-02-15T19:18:30Z</time>
      </trkpt>
      <trkpt lat="42.806619" lon="-7.616916">
        <ele>387.056</ele>
        <time>2013-02-15T19:18:50Z</time>
      </trkpt>
      <trkpt lat="42.806524" lon="-7.616991">
        <ele>382.033</ele>
        <time>2013-02-15T19:19:10Z</time>
      </trkpt>
      <trkpt lat="42.806351" lon="-7.617377">
        <ele>380.018</ele>
        <time>2013-02-15T19:19:30Z</time>
      </trkpt>
      <trkpt lat="42.806233" lon="-7.617613">
        <ele>374.098</ele>
        <time>2013-02-15T19:19:50Z</time>
      </trkpt>
      <trkpt lat="42.806233" lon="-7.617785">
        <ele>371.017</ele>
        <time>2013-02-15T19:20:10Z</time>
      </trkpt>
      <trkpt lat="42.806233" lon="-7.617967">
        <ele>368.007</ele>
        <time>2013-02-15T19:20:30Z</time>
      </trkpt>
      <trkpt lat="42.806241" lon="-7.618107">
        <ele>368.084</ele>
        <time>2013-02-15T19:20:50Z</time>
      </trkpt>
      <trkpt lat="42.806272" lon="-7.618278">
        <ele>370.040</ele>
        <time>2013-02-15T19:21:10Z</time>
      </trkpt>
      <trkpt lat="42.806312" lon="-7.618471">
        <ele>370.050</ele>
        <time>2013-02-15T19:21:30Z</time>
      </trkpt>
      <trkpt lat="42.806359" lon="-7.618579">
        <ele>366.073</ele>
        <time>2013-02-15T19:21:50Z</time>
      </trkpt>
      <trkpt lat="42.806406" lon="-7.618675">
        <ele>366.011</ele>
        <time>2013-02-15T19:22:10Z</time>
      </trkpt>
      <trkpt lat="42.806438" lon="-7.618772">
        <ele>362.049</ele>
        <time>2013-02-15T19:22:30Z</time>
      </trkpt>
      <trkpt lat="42.806477" lon="-7.618954">
        <ele>362.026</ele>
        <time>2013-02-15T19:22:50Z</time>
      </trkpt>
      <trkpt lat="42.806508" lon="-7.619190">
        <ele>359.089</ele>
        <time>2013-02-15T19:23:10Z</time>
      </trkpt>
      <trkpt lat="42.806532" lon="-7.619330">
        <ele>365.006</ele>
        <time>2013-02-15T19:23:30Z</time>
      </trkpt>
      <trkpt lat="42.806548" lon="-7.619448">
        <ele>365.026</ele>
        <time>2013-02-15T19:23:50Z</time>
      </trkpt>
      <trkpt lat="42.806556" lon="-7.619737">
        <ele>364.007</ele>
        <time>2013-02-15T19:24:10Z</time>
      </trkpt>
      <trkpt lat="42.806563" lon="-7.619941">
        <ele>363.071</ele>
        <time>2013-02-15T19:24:30Z</time>
      </trkpt>
      <trkpt lat="42.806548" lon="-7.620188">
        <ele>363.097</ele>
        <time>2013-02-15T19:24:50Z</time>
      </trkpt>
      <trkpt lat="42.806540" lon="-7.620467">
        <ele>363.057</ele>
        <time>2013-02-15T19:25:10Z</time>
      </trkpt>
      <trkpt lat="42.806500" lon="-7.620649">
        <ele>354.090</ele>
        <time>2013-02-15T19:25:30Z</time>
      </trkpt>
      <trkpt lat="42.806469" lon="-7.620896">
        <ele>354.028</ele>
        <time>2013-02-15T19:25:50Z</time>
      </trkpt>
      <trkpt lat="42.806438" lon="-7.620982">
        <ele>355.076</ele>
        <time>2013-02-15T19:26:10Z</time>
      </trkpt>
      <trkpt lat="42.806367" lon="-7.620939">
        <ele>354.053</ele>
        <time>2013-02-15T19:26:30Z</time>
      </trkpt>
      <trkpt lat="42.806359" lon="-7.620338">
        <ele>354.098</ele>
        <time>2013-02-15T19:26:50Z</time>
      </trkpt>
      <trkpt lat="42.806359" lon="-7.620027">
        <ele>354.015</ele>
        <time>2013-02-15T19:27:10Z</time>
      </trkpt>
      <trkpt lat="42.806319" lon="-7.619802">
        <ele>355.026</ele>
        <time>2013-02-15T19:27:30Z</time>
      </trkpt>
      <trkpt lat="42.806272" lon="-7.619566">
        <ele>357.007</ele>
        <time>2013-02-15T19:27:50Z</time>
      </trkpt>
      <trkpt lat="42.806146" lon="-7.619308">
        <ele>351.032</ele>
        <time>2013-02-15T19:28:10Z</time>
      </trkpt>
      <trkpt lat="42.806060" lon="-7.619201">
        <ele>353.088</ele>
        <time>2013-02-15T19:28:30Z</time>
      </trkpt>
      <trkpt lat="42.805973" lon="-7.619094">
        <ele>353.028</ele>
        <time>2013-02-15T19:28:50Z</time>
      </trkpt>
      <trkpt lat="42.805902" lon="-7.619019">
        <ele>351.041</ele>
        <time>2013-02-15T19:29:10Z</time>
      </trkpt>
      <trkpt lat="42.805792" lon="-7.618954">
        <ele>351.039</ele>
        <time>2013-02-15T19:29:30Z</time>
      </trkpt>
      <trkpt lat="42.805729" lon="-7.618933">
        <ele>351.047</ele>
        <time>2013-02-15T19:29:50Z</time>
      </trkpt>
      <trkpt lat="42.805705" lon="-7.619040">
        <ele>348.064</ele>
        <time>2013-02-15T19:30:10Z</time>
      </trkpt>
      <trkpt lat="42.805627" lon="-7.619212">
        <ele>345.062</ele>
        <time>2013-02-15T19:30:30Z</time>
      </trkpt>
      <trkpt lat="42.805580" lon="-7.619319">
        <ele>345.083</ele>
        <time>2013-02-15T19:30:50Z</time>
      </trkpt>
      <trkpt lat="42.805532" lon="-7.619426">
        <ele>345.011</ele>
        <time>2013-02-15T19:31:10Z</time>
      </trkpt>
      <trkpt lat="42.805461" lon="-7.619544">
        <ele>345.007</ele>
        <time>2013-02-15T19:31:30Z</time>
      </trkpt>
      <trkpt lat="42.805399" lon="-7.619684">
        <ele>345.019</ele>
        <time>2013-02-15T19:31:50Z</time>
      </trkpt>
      <trkpt lat="42.805375" lon="-7.619834">
        <ele>345.055</ele>
        <time>2013-02-15T19:32:10Z</time>
      </trkpt>
      <trkpt lat="42.805359" lon="-7.620006">
        <ele>347.015</ele>
        <time>2013-02-15T19:32:30Z</time>
      </trkpt>
      <trkpt lat="42.805336" lon="-7.620027">
        <ele>347.068</ele>
        <time>2013-02-15T19:32:50Z</time>
      </trkpt>
      <trkpt lat="42.805399" lon="-7.620124">
        <ele>347.026</ele>
        <time>2013-02-15T19:33:10Z</time>
      </trkpt>
      <trkpt lat="42.805454" lon="-7.620252">
        <ele>348.024</ele>
        <time>2013-02-15T19:33:30Z</time>
      </trkpt>
      <trkpt lat="42.805454" lon="-7.620445">
        <ele>350.061</ele>
        <time>2013-02-15T19:33:50Z</time>
      </trkpt>
      <trkpt lat="42.805430" lon="-7.620542">
        <ele>350.047</ele>
        <time>2013-02-15T19:34:10Z</time>
      </trkpt>
      <trkpt lat="42.805406" lon="-7.620660">
        <ele>353.029</ele>
        <time>2013-02-15T19:34:30Z</time>
      </trkpt>
      <trkpt lat="42.805383" lon="-7.620864">
        <ele>355.021</ele>
        <time>2013-02-15T19:34:50Z</time>
      </trkpt>
      <trkpt lat="42.805359" lon="-7.620971">
        <ele>355.007</ele>
        <time>2013-02-15T19:35:10Z</time>
      </trkpt>
      <trkpt lat="42.805320" lon="-7.621132">
        <ele>356.027</ele>
        <time>2013-02-15T19:35:30Z</time>
      </trkpt>
      <trkpt lat="42.805273" lon="-7.621261">
        <ele>357.093</ele>
        <time>2013-02-15T19:35:50Z</time>
      </trkpt>
      <trkpt lat="42.805194" lon="-7.621379">
        <ele>357.053</ele>
        <time>2013-02-15T19:36:10Z</time>
      </trkpt>
      <trkpt lat="42.805217" lon="-7.621551">
        <ele>358.056</ele>
        <time>2013-02-15T19:36:30Z</time>
      </trkpt>
      <trkpt lat="42.805241" lon="-7.621808">
        <ele>359.064</ele>
        <time>2013-02-15T19:36:50Z</time>
      </trkpt>
      <trkpt lat="42.805233" lon="-7.621905">
        <ele>359.062</ele>
        <time>2013-02-15T19:37:10Z</time>
      </trkpt>
      <trkpt lat="42.805194" lon="-7.622055">
        <ele>359.039</ele>
        <time>2013-02-15T19:37:30Z</time>
      </trkpt>
      <trkpt lat="42.805147" lon="-7.622259">
        <ele>360.081</ele>
        <time>2013-02-15T19:37:50Z</time>
      </trkpt>
      <trkpt lat="42.805123" lon="-7.622344">
        <ele>366.061</ele>
        <time>2013-02-15T19:38:10Z</time>
      </trkpt>
      <trkpt lat="42.805099" lon="-7.622463">
        <ele>368.017</ele>
        <time>2013-02-15T19:38:30Z</time>
      </trkpt>
      <trkpt lat="42.805084" lon="-7.622623">
        <ele>368.007</ele>
        <time>2013-02-15T19:38:50Z</time>
      </trkpt>
      <trkpt lat="42.805060" lon="-7.622709">
        <ele>369.031</ele>
        <time>2013-02-15T19:39:10Z</time>
      </trkpt>
      <trkpt lat="42.804934" lon="-7.622935">
        <ele>370.097</ele>
        <time>2013-02-15T19:39:30Z</time>
      </trkpt>
      <trkpt lat="42.804848" lon="-7.623074">
        <ele>377.087</ele>
        <time>2013-02-15T19:39:50Z</time>
      </trkpt>
      <trkpt lat="42.804824" lon="-7.623160">
        <ele>377.010</ele>
        <time>2013-02-15T19:40:10Z</time>
      </trkpt>
      <trkpt lat="42.804785" lon="-7.623224">
        <ele>379.028</ele>
        <time>2013-02-15T19:40:30Z</time>
      </trkpt>
      <trkpt lat="42.804745" lon="-7.623342">
        <ele>379.036</ele>
        <time>2013-02-15T19:40:50Z</time>
      </trkpt>
      <trkpt lat="42.804722" lon="-7.623492">
        <ele>381.043</ele>
        <time>2013-02-15T19:41:10Z</time>
      </trkpt>
      <trkpt lat="42.804722" lon="-7.623621">
        <ele>381.081</ele>
        <time>2013-02-15T19:41:30Z</time>
      </trkpt>
      <trkpt lat="42.804714" lon="-7.624072">
        <ele>385.061</ele>
        <time>2013-02-15T19:41:50Z</time>
      </trkpt>
      <trkpt lat="42.804706" lon="-7.624308">
        <ele>387.017</ele>
        <time>2013-02-15T19:42:10Z</time>
      </trkpt>
      <trkpt lat="42.804737" lon="-7.624437">
        <ele>387.007</ele>
        <time>2013-02-15T19:42:30Z</time>
      </trkpt>
      <trkpt lat="42.804737" lon="-7.624716">
        <ele>389.061</ele>
        <time>2013-02-15T19:42:50Z</time>
      </trkpt>
      <trkpt lat="42.804722" lon="-7.624919">
        <ele>392.077</ele>
        <time>2013-02-15T19:43:10Z</time>
      </trkpt>
      <trkpt lat="42.804722" lon="-7.625241">
        <ele>396.027</ele>
        <time>2013-02-15T19:43:30Z</time>
      </trkpt>
      <trkpt lat="42.804714" lon="-7.625295">
        <ele>396.060</ele>
        <time>2013-02-15T19:43:50Z</time>
      </trkpt>
      <trkpt lat="42.804816" lon="-7.625499">
        <ele>399.098</ele>
        <time>2013-02-15T19:44:10Z</time>
      </trkpt>
      <trkpt lat="42.804887" lon="-7.625563">
        <ele>390.016</ele>
        <time>2013-02-15T19:44:30Z</time>
      </trkpt>
      <trkpt lat="42.804934" lon="-7.625703">
        <ele>394.023</ele>
        <time>2013-02-15T19:44:50Z</time>
      </trkpt>
      <trkpt lat="42.804973" lon="-7.625810">
        <ele>394.091</ele>
        <time>2013-02-15T19:45:10Z</time>
      </trkpt>
      <trkpt lat="42.804989" lon="-7.625992">
        <ele>399.081</ele>
        <time>2013-02-15T19:45:30Z</time>
      </trkpt>
      <trkpt lat="42.805052" lon="-7.626207">
        <ele>399.019</ele>
        <time>2013-02-15T19:45:50Z</time>
      </trkpt>
      <trkpt lat="42.805052" lon="-7.626432">
        <ele>405.007</ele>
        <time>2013-02-15T19:46:10Z</time>
      </trkpt>
      <trkpt lat="42.805076" lon="-7.626497">
        <ele>405.072</ele>
        <time>2013-02-15T19:46:30Z</time>
      </trkpt>
      <trkpt lat="42.805099" lon="-7.626636">
        <ele>410.038</ele>
        <time>2013-02-15T19:46:50Z</time>
      </trkpt>
      <trkpt lat="42.805115" lon="-7.626765">
        <ele>410.048</ele>
        <time>2013-02-15T19:47:10Z</time>
      </trkpt>
      <trkpt lat="42.805123" lon="-7.626840">
        <ele>415.041</ele>
        <time>2013-02-15T19:47:30Z</time>
      </trkpt>
      <trkpt lat="42.805241" lon="-7.627301">
        <ele>409.049</ele>
        <time>2013-02-15T19:47:50Z</time>
      </trkpt>
      <trkpt lat="42.805265" lon="-7.627451">
        <ele>413.087</ele>
        <time>2013-02-15T19:48:10Z</time>
      </trkpt>
      <trkpt lat="42.805312" lon="-7.627677">
        <ele>417.054</ele>
        <time>2013-02-15T19:48:30Z</time>
      </trkpt>
      <trkpt lat="42.805343" lon="-7.627805">
        <ele>417.017</ele>
        <time>2013-02-15T19:48:50Z</time>
      </trkpt>
      <trkpt lat="42.805383" lon="-7.627913">
        <ele>417.087</ele>
        <time>2013-02-15T19:49:10Z</time>
      </trkpt>
      <trkpt lat="42.805406" lon="-7.628042">
        <ele>420.015</ele>
        <time>2013-02-15T19:49:30Z</time>
      </trkpt>
      <trkpt lat="42.805414" lon="-7.628149">
        <ele>420.007</ele>
        <time>2013-02-15T19:49:50Z</time>
      </trkpt>
      <trkpt lat="42.805438" lon="-7.628224">
        <ele>412.024</ele>
        <time>2013-02-15T19:50:10Z</time>
      </trkpt>
      <trkpt lat="42.805461" lon="-7.628342">
        <ele>412.070</ele>
        <time>2013-02-15T19:50:30Z</time>
      </trkpt>
      <trkpt lat="42.805517" lon="-7.628514">
        <ele>416.080</ele>
        <time>2013-02-15T19:50:50Z</time>
      </trkpt>
      <trkpt lat="42.805564" lon="-7.628664">
        <ele>416.013</ele>
        <time>2013-02-15T19:51:10Z</time>
      </trkpt>
      <trkpt lat="42.805587" lon="-7.628814">
        <ele>419.061</ele>
        <time>2013-02-15T19:51:30Z</time>
      </trkpt>
      <trkpt lat="42.805643" lon="-7.628932">
        <ele>419.039</ele>
        <time>2013-02-15T19:51:50Z</time>
      </trkpt>
      <trkpt lat="42.805682" lon="-7.629179">
        <ele>423.086</ele>
        <time>2013-02-15T19:52:10Z</time>
      </trkpt>
      <trkpt lat="42.805776" lon="-7.629350">
        <ele>418.013</ele>
        <time>2013-02-15T19:52:30Z</time>
      </trkpt>
      <trkpt lat="42.805831" lon="-7.629458">
        <ele>418.043</ele>
        <time>2013-02-15T19:52:50Z</time>
      </trkpt>
      <trkpt lat="42.805879" lon="-7.629758">
        <ele>421.007</ele>
        <time>2013-02-15T19:53:10Z</time>
      </trkpt>
      <trkpt lat="42.805887" lon="-7.630037">
        <ele>424.007</ele>
        <time>2013-02-15T19:53:30Z</time>
      </trkpt>
      <trkpt lat="42.805950" lon="-7.630187">
        <ele>427.074</ele>
        <time>2013-02-15T19:53:50Z</time>
      </trkpt>
      <trkpt lat="42.805950" lon="-7.630316">
        <ele>427.080</ele>
        <time>2013-02-15T19:54:10Z</time>
      </trkpt>
      <trkpt lat="42.805950" lon="-7.630434">
        <ele>429.030</ele>
        <time>2013-02-15T19:54:30Z</time>
      </trkpt>
      <trkpt lat="42.805973" lon="-7.630574">
        <ele>421.063</ele>
        <time>2013-02-15T19:54:50Z</time>
      </trkpt>
      <trkpt lat="42.806036" lon="-7.630734">
        <ele>424.061</ele>
        <time>2013-02-15T19:55:10Z</time>
      </trkpt>
      <trkpt lat="42.806131" lon="-7.630928">
        <ele>424.079</ele>
        <time>2013-02-15T19:55:30Z</time>
      </trkpt>
      <trkpt lat="42.806241" lon="-7.631056">
        <ele>428.036</ele>
        <time>2013-02-15T19:55:50Z</time>
      </trkpt>
      <trkpt lat="42.806296" lon="-7.631164">
        <ele>423.084</ele>
        <time>2013-02-15T19:56:10Z</time>
      </trkpt>
      <trkpt lat="42.806375" lon="-7.631346">
        <ele>428.007</ele>
        <time>2013-02-15T19:56:30Z</time>
      </trkpt>
      <trkpt lat="42.806430" lon="-7.631432">
        <ele>428.017</ele>
        <time>2013-02-15T19:56:50Z</time>
      </trkpt>
      <trkpt lat="42.806500" lon="-7.631582">
        <ele>433.007</ele>
        <time>2013-02-15T19:57:10Z</time>
      </trkpt>
      <trkpt lat="42.806603" lon="-7.631668">
        <ele>429.051</ele>
        <time>2013-02-15T19:57:30Z</time>
      </trkpt>
      <trkpt lat="42.806674" lon="-7.631764">
        <ele>429.077</ele>
        <time>2013-02-15T19:57:50Z</time>
      </trkpt>
      <trkpt lat="42.806784" lon="-7.631925">
        <ele>433.057</ele>
        <time>2013-02-15T19:58:10Z</time>
      </trkpt>
      <trkpt lat="42.806886" lon="-7.632043">
        <ele>430.080</ele>
        <time>2013-02-15T19:58:30Z</time>
      </trkpt>
      <trkpt lat="42.806996" lon="-7.632215">
        <ele>433.078</ele>
        <time>2013-02-15T19:58:50Z</time>
      </trkpt>
      <trkpt lat="42.807059" lon="-7.632301">
        <ele>433.066</ele>
        <time>2013-02-15T19:59:10Z</time>
      </trkpt>
      <trkpt lat="42.807201" lon="-7.632558">
        <ele>433.093</ele>
        <time>2013-02-15T19:59:30Z</time>
      </trkpt>
      <trkpt lat="42.807264" lon="-7.632623">
        <ele>433.038</ele>
        <time>2013-02-15T19:59:50Z</time>
      </trkpt>
      <trkpt lat="42.807311" lon="-7.632784">
        <ele>436.070</ele>
        <time>2013-02-15T20:00:10Z</time>
      </trkpt>
      <trkpt lat="42.807382" lon="-7.632966">
        <ele>433.017</ele>
        <time>2013-02-15T20:00:30Z</time>
      </trkpt>
      <trkpt lat="42.807421" lon="-7.633106">
        <ele>433.007</ele>
        <time>2013-02-15T20:00:50Z</time>
      </trkpt>
      <trkpt lat="42.807461" lon="-7.633266">
        <ele>435.076</ele>
        <time>2013-02-15T20:01:10Z</time>
      </trkpt>
      <trkpt lat="42.807516" lon="-7.633438">
        <ele>435.092</ele>
        <time>2013-02-15T20:01:30Z</time>
      </trkpt>
      <trkpt lat="42.807595" lon="-7.633674">
        <ele>438.082</ele>
        <time>2013-02-15T20:01:50Z</time>
      </trkpt>
      <trkpt lat="42.807602" lon="-7.633739">
        <ele>438.095</ele>
        <time>2013-02-15T20:02:10Z</time>
      </trkpt>
      <trkpt lat="42.807602" lon="-7.633964">
        <ele>440.063</ele>
        <time>2013-02-15T20:02:30Z</time>
      </trkpt>
      <trkpt lat="42.807563" lon="-7.634178">
        <ele>441.091</ele>
        <time>2013-02-15T20:02:50Z</time>
      </trkpt>
      <trkpt lat="42.807453" lon="-7.634425">
        <ele>443.068</ele>
        <time>2013-02-15T20:03:10Z</time>
      </trkpt>
      <trkpt lat="42.807327" lon="-7.634758">
        <ele>446.072</ele>
        <time>2013-02-15T20:03:30Z</time>
      </trkpt>
      <trkpt lat="42.807225" lon="-7.635005">
        <ele>446.013</ele>
        <time>2013-02-15T20:03:50Z</time>
      </trkpt>
      <trkpt lat="42.807170" lon="-7.635133">
        <ele>446.014</ele>
        <time>2013-02-15T20:04:10Z</time>
      </trkpt>
      <trkpt lat="42.807091" lon="-7.635316">
        <ele>446.007</ele>
        <time>2013-02-15T20:04:30Z</time>
      </trkpt>
      <trkpt lat="42.807036" lon="-7.635573">
        <ele>448.080</ele>
        <time>2013-02-15T20:04:50Z</time>
      </trkpt>
      <trkpt lat="42.806965" lon="-7.635831">
        <ele>447.086</ele>
        <time>2013-02-15T20:05:10Z</time>
      </trkpt>
      <trkpt lat="42.806957" lon="-7.635992">
        <ele>445.076</ele>
        <time>2013-02-15T20:05:30Z</time>
      </trkpt>
      <trkpt lat="42.806886" lon="-7.636142">
        <ele>445.069</ele>
        <time>2013-02-15T20:05:50Z</time>
      </trkpt>
      <trkpt lat="42.806855" lon="-7.636228">
        <ele>445.017</ele>
        <time>2013-02-15T20:06:10Z</time>
      </trkpt>
      <trkpt lat="42.806768" lon="-7.636346">
        <ele>448.055</ele>
        <time>2013-02-15T20:06:30Z</time>
      </trkpt>
      <trkpt lat="42.806705" lon="-7.636549">
        <ele>447.082</ele>
        <time>2013-02-15T20:06:50Z</time>
      </trkpt>
      <trkpt lat="42.806666" lon="-7.636700">
        <ele>447.046</ele>
        <time>2013-02-15T20:07:10Z</time>
      </trkpt>
      <trkpt lat="42.806619" lon="-7.636925">
        <ele>446.088</ele>
        <time>2013-02-15T20:07:30Z</time>
      </trkpt>
      <trkpt lat="42.806611" lon="-7.637032">
        <ele>446.016</ele>
        <time>2013-02-15T20:07:50Z</time>
      </trkpt>
      <trkpt lat="42.806611" lon="-7.637258">
        <ele>446.007</ele>
        <time>2013-02-15T20:08:10Z</time>
      </trkpt>
      <trkpt lat="42.806611" lon="-7.637386">
        <ele>446.057</ele>
        <time>2013-02-15T20:08:30Z</time>
      </trkpt>
      <trkpt lat="42.806642" lon="-7.637719">
        <ele>447.053</ele>
        <time>2013-02-15T20:08:50Z</time>
      </trkpt>
      <trkpt lat="42.806682" lon="-7.637858">
        <ele>447.063</ele>
        <time>2013-02-15T20:09:10Z</time>
      </trkpt>
      <trkpt lat="42.806673" lon="-7.637928">
        <ele>445.056</ele>
        <time>2013-02-15T20:09:30Z</time>
      </trkpt>
      <trkpt lat="42.806697" lon="-7.638025">
        <ele>445.054</ele>
        <time>2013-02-15T20:09:50Z</time>
      </trkpt>
      <trkpt lat="42.806725" lon="-7.638094">
        <ele>445.032</ele>
        <time>2013-02-15T20:10:10Z</time>
      </trkpt>
      <trkpt lat="42.806748" lon="-7.638196">
        <ele>443.089</ele>
        <time>2013-02-15T20:10:30Z</time>
      </trkpt>
      <trkpt lat="42.806768" lon="-7.638266">
        <ele>443.024</ele>
        <time>2013-02-15T20:10:50Z</time>
      </trkpt>
      <trkpt lat="42.806788" lon="-7.638352">
        <ele>443.004</ele>
        <time>2013-02-15T20:11:10Z</time>
      </trkpt>
      <trkpt lat="42.806803" lon="-7.638422">
        <ele>443.014</ele>
        <time>2013-02-15T20:11:30Z</time>
      </trkpt>
      <trkpt lat="42.806815" lon="-7.638502">
        <ele>440.007</ele>
        <time>2013-02-15T20:11:50Z</time>
      </trkpt>
      <trkpt lat="42.806839" lon="-7.638615">
        <ele>440.015</ele>
        <time>2013-02-15T20:12:10Z</time>
      </trkpt>
      <trkpt lat="42.806878" lon="-7.638738">
        <ele>440.021</ele>
        <time>2013-02-15T20:12:30Z</time>
      </trkpt>
      <trkpt lat="42.806890" lon="-7.638797">
        <ele>439.051</ele>
        <time>2013-02-15T20:12:50Z</time>
      </trkpt>
      <trkpt lat="42.806921" lon="-7.638856">
        <ele>439.064</ele>
        <time>2013-02-15T20:13:10Z</time>
      </trkpt>
      <trkpt lat="42.806957" lon="-7.638980">
        <ele>439.072</ele>
        <time>2013-02-15T20:13:30Z</time>
      </trkpt>
      <trkpt lat="42.806992" lon="-7.639060">
        <ele>439.070</ele>
        <time>2013-02-15T20:13:50Z</time>
      </trkpt>
      <trkpt lat="42.807024" lon="-7.639146">
        <ele>439.017</ele>
        <time>2013-02-15T20:14:10Z</time>
      </trkpt>
      <trkpt lat="42.807055" lon="-7.639173">
        <ele>439.026</ele>
        <time>2013-02-15T20:14:30Z</time>
      </trkpt>
      <trkpt lat="42.807185" lon="-7.639419">
        <ele>438.047</ele>
        <time>2013-02-15T20:14:50Z</time>
      </trkpt>
      <trkpt lat="42.807346" lon="-7.639543">
        <ele>438.011</ele>
        <time>2013-02-15T20:15:10Z</time>
      </trkpt>
      <trkpt lat="42.807563" lon="-7.639570">
        <ele>438.007</ele>
        <time>2013-02-15T20:15:30Z</time>
      </trkpt>
      <trkpt lat="42.807870" lon="-7.639639">
        <ele>440.025</ele>
        <time>2013-02-15T20:15:50Z</time>
      </trkpt>
      <trkpt lat="42.807957" lon="-7.639790">
        <ele>441.051</ele>
        <time>2013-02-15T20:16:10Z</time>
      </trkpt>
      <trkpt lat="42.808075" lon="-7.639972">
        <ele>442.071</ele>
        <time>2013-02-15T20:16:30Z</time>
      </trkpt>
      <trkpt lat="42.808153" lon="-7.640090">
        <ele>442.014</ele>
        <time>2013-02-15T20:16:50Z</time>
      </trkpt>
      <trkpt lat="42.808216" lon="-7.640208">
        <ele>445.032</ele>
        <time>2013-02-15T20:17:10Z</time>
      </trkpt>
      <trkpt lat="42.808327" lon="-7.640380">
        <ele>445.050</ele>
        <time>2013-02-15T20:17:30Z</time>
      </trkpt>
      <trkpt lat="42.808342" lon="-7.640444">
        <ele>447.097</ele>
        <time>2013-02-15T20:17:50Z</time>
      </trkpt>
      <trkpt lat="42.808401" lon="-7.640525">
        <ele>447.036</ele>
        <time>2013-02-15T20:18:10Z</time>
      </trkpt>
      <trkpt lat="42.808500" lon="-7.640648">
        <ele>448.017</ele>
        <time>2013-02-15T20:18:30Z</time>
      </trkpt>
      <trkpt lat="42.808590" lon="-7.640803">
        <ele>449.018</ele>
        <time>2013-02-15T20:18:50Z</time>
      </trkpt>
      <trkpt lat="42.808653" lon="-7.640943">
        <ele>449.007</ele>
        <time>2013-02-15T20:19:10Z</time>
      </trkpt>
      <trkpt lat="42.808728" lon="-7.641077">
        <ele>450.086</ele>
        <time>2013-02-15T20:19:30Z</time>
      </trkpt>
      <trkpt lat="42.808803" lon="-7.641200">
        <ele>450.062</ele>
        <time>2013-02-15T20:19:50Z</time>
      </trkpt>
      <trkpt lat="42.808972" lon="-7.641426">
        <ele>451.062</ele>
        <time>2013-02-15T20:20:10Z</time>
      </trkpt>
      <trkpt lat="42.809039" lon="-7.641533">
        <ele>452.035</ele>
        <time>2013-02-15T20:20:30Z</time>
      </trkpt>
      <trkpt lat="42.809129" lon="-7.641667">
        <ele>452.073</ele>
        <time>2013-02-15T20:20:50Z</time>
      </trkpt>
      <trkpt lat="42.809192" lon="-7.641753">
        <ele>452.061</ele>
        <time>2013-02-15T20:21:10Z</time>
      </trkpt>
      <trkpt lat="42.809228" lon="-7.641785">
        <ele>452.078</ele>
        <time>2013-02-15T20:21:30Z</time>
      </trkpt>
      <trkpt lat="42.809326" lon="-7.641973">
        <ele>454.056</ele>
        <time>2013-02-15T20:21:50Z</time>
      </trkpt>
      <trkpt lat="42.809354" lon="-7.642016">
        <ele>454.059</ele>
        <time>2013-02-15T20:22:10Z</time>
      </trkpt>
      <trkpt lat="42.809377" lon="-7.642086">
        <ele>454.014</ele>
        <time>2013-02-15T20:22:30Z</time>
      </trkpt>
      <trkpt lat="42.809483" lon="-7.641989">
        <ele>454.007</ele>
        <time>2013-02-15T20:22:50Z</time>
      </trkpt>
      <trkpt lat="42.809535" lon="-7.642064">
        <ele>454.078</ele>
        <time>2013-02-15T20:23:10Z</time>
      </trkpt>
      <trkpt lat="42.809617" lon="-7.642204">
        <ele>454.014</ele>
        <time>2013-02-15T20:23:30Z</time>
      </trkpt>
      <trkpt lat="42.809657" lon="-7.642279">
        <ele>454.034</ele>
        <time>2013-02-15T20:23:50Z</time>
      </trkpt>
      <trkpt lat="42.809771" lon="-7.642488">
        <ele>454.087</ele>
        <time>2013-02-15T20:24:10Z</time>
      </trkpt>
      <trkpt lat="42.809810" lon="-7.642601">
        <ele>454.055</ele>
        <time>2013-02-15T20:24:30Z</time>
      </trkpt>
      <trkpt lat="42.809912" lon="-7.642778">
        <ele>456.023</ele>
        <time>2013-02-15T20:24:50Z</time>
      </trkpt>
      <trkpt lat="42.809948" lon="-7.642837">
        <ele>456.090</ele>
        <time>2013-02-15T20:25:10Z</time>
      </trkpt>
      <trkpt lat="42.810058" lon="-7.643062">
        <ele>455.069</ele>
        <time>2013-02-15T20:25:30Z</time>
      </trkpt>
      <trkpt lat="42.810255" lon="-7.643491">
        <ele>452.004</ele>
        <time>2013-02-15T20:25:50Z</time>
      </trkpt>
      <trkpt lat="42.810578" lon="-7.643974">
        <ele>450.024</ele>
        <time>2013-02-15T20:26:10Z</time>
      </trkpt>
      <trkpt lat="42.810641" lon="-7.644135">
        <ele>448.007</ele>
        <time>2013-02-15T20:26:30Z</time>
      </trkpt>
      <trkpt lat="42.810719" lon="-7.644349">
        <ele>446.069</ele>
        <time>2013-02-15T20:26:50Z</time>
      </trkpt>
      <trkpt lat="42.810869" lon="-7.644575">
        <ele>446.025</ele>
        <time>2013-02-15T20:27:10Z</time>
      </trkpt>
      <trkpt lat="42.810971" lon="-7.644725">
        <ele>445.055</ele>
        <time>2013-02-15T20:27:30Z</time>
      </trkpt>
      <trkpt lat="42.811097" lon="-7.644982">
        <ele>444.088</ele>
        <time>2013-02-15T20:27:50Z</time>
      </trkpt>
      <trkpt lat="42.811168" lon="-7.645154">
        <ele>444.026</ele>
        <time>2013-02-15T20:28:10Z</time>
      </trkpt>
      <trkpt lat="42.811262" lon="-7.645283">
        <ele>444.034</ele>
        <time>2013-02-15T20:28:30Z</time>
      </trkpt>
      <trkpt lat="42.811286" lon="-7.645336">
        <ele>444.011</ele>
        <time>2013-02-15T20:28:50Z</time>
      </trkpt>
      <trkpt lat="42.811420" lon="-7.645583">
        <ele>444.044</ele>
        <time>2013-02-15T20:29:10Z</time>
      </trkpt>
      <trkpt lat="42.811554" lon="-7.645937">
        <ele>446.005</ele>
        <time>2013-02-15T20:29:30Z</time>
      </trkpt>
      <trkpt lat="42.811640" lon="-7.646023">
        <ele>448.015</ele>
        <time>2013-02-15T20:29:50Z</time>
      </trkpt>
      <trkpt lat="42.811664" lon="-7.646120">
        <ele>448.007</ele>
        <time>2013-02-15T20:30:10Z</time>
      </trkpt>
      <trkpt lat="42.811735" lon="-7.646592">
        <ele>450.017</ele>
        <time>2013-02-15T20:30:30Z</time>
      </trkpt>
      <trkpt lat="42.811743" lon="-7.646828">
        <ele>451.033</ele>
        <time>2013-02-15T20:30:50Z</time>
      </trkpt>
      <trkpt lat="42.811750" lon="-7.647117">
        <ele>451.023</ele>
        <time>2013-02-15T20:31:10Z</time>
      </trkpt>
      <trkpt lat="42.811782" lon="-7.647504">
        <ele>452.066</ele>
        <time>2013-02-15T20:31:30Z</time>
      </trkpt>
      <trkpt lat="42.811782" lon="-7.647740">
        <ele>453.054</ele>
        <time>2013-02-15T20:31:50Z</time>
      </trkpt>
      <trkpt lat="42.811774" lon="-7.647986">
        <ele>453.052</ele>
        <time>2013-02-15T20:32:10Z</time>
      </trkpt>
      <trkpt lat="42.811766" lon="-7.648158">
        <ele>453.089</ele>
        <time>2013-02-15T20:32:30Z</time>
      </trkpt>
      <trkpt lat="42.811798" lon="-7.649263">
        <ele>456.073</ele>
        <time>2013-02-15T20:32:50Z</time>
      </trkpt>
      <trkpt lat="42.811813" lon="-7.649521">
        <ele>461.085</ele>
        <time>2013-02-15T20:33:10Z</time>
      </trkpt>
      <trkpt lat="42.811845" lon="-7.649961">
        <ele>463.013</ele>
        <time>2013-02-15T20:33:30Z</time>
      </trkpt>
      <trkpt lat="42.811845" lon="-7.650164">
        <ele>464.007</ele>
        <time>2013-02-15T20:33:50Z</time>
      </trkpt>
      <trkpt lat="42.811845" lon="-7.650433">
        <ele>465.060</ele>
        <time>2013-02-15T20:34:10Z</time>
      </trkpt>
      <trkpt lat="42.811845" lon="-7.650669">
        <ele>465.056</ele>
        <time>2013-02-15T20:34:30Z</time>
      </trkpt>
      <trkpt lat="42.811853" lon="-7.650872">
        <ele>466.086</ele>
        <time>2013-02-15T20:34:50Z</time>
      </trkpt>
      <trkpt lat="42.811876" lon="-7.651291">
        <ele>466.049</ele>
        <time>2013-02-15T20:35:10Z</time>
      </trkpt>
      <trkpt lat="42.811876" lon="-7.651548">
        <ele>465.097</ele>
        <time>2013-02-15T20:35:30Z</time>
      </trkpt>
      <trkpt lat="42.811861" lon="-7.651731">
        <ele>465.035</ele>
        <time>2013-02-15T20:35:50Z</time>
      </trkpt>
      <trkpt lat="42.811876" lon="-7.651913">
        <ele>464.062</ele>
        <time>2013-02-15T20:36:10Z</time>
      </trkpt>
      <trkpt lat="42.811892" lon="-7.652138">
        <ele>463.062</ele>
        <time>2013-02-15T20:36:30Z</time>
      </trkpt>
      <trkpt lat="42.811892" lon="-7.652353">
        <ele>463.083</ele>
        <time>2013-02-15T20:36:50Z</time>
      </trkpt>
      <trkpt lat="42.811939" lon="-7.652847">
        <ele>463.011</ele>
        <time>2013-02-15T20:37:10Z</time>
      </trkpt>
      <trkpt lat="42.811939" lon="-7.652997">
        <ele>462.007</ele>
        <time>2013-02-15T20:37:30Z</time>
      </trkpt>
      <trkpt lat="42.811947" lon="-7.653244">
        <ele>462.059</ele>
        <time>2013-02-15T20:37:50Z</time>
      </trkpt>
      <trkpt lat="42.811947" lon="-7.653362">
        <ele>462.095</ele>
        <time>2013-02-15T20:38:10Z</time>
      </trkpt>
      <trkpt lat="42.811947" lon="-7.653437">
        <ele>462.035</ele>
        <time>2013-02-15T20:38:30Z</time>
      </trkpt>
      <trkpt lat="42.811955" lon="-7.653501">
        <ele>462.038</ele>
        <time>2013-02-15T20:38:50Z</time>
      </trkpt>
      <trkpt lat="42.811971" lon="-7.653662">
        <ele>462.076</ele>
        <time>2013-02-15T20:39:10Z</time>
      </trkpt>
      <trkpt lat="42.811971" lon="-7.653877">
        <ele>462.074</ele>
        <time>2013-02-15T20:39:30Z</time>
      </trkpt>
      <trkpt lat="42.811979" lon="-7.654188">
        <ele>462.031</ele>
        <time>2013-02-15T20:39:50Z</time>
      </trkpt>
      <trkpt lat="42.811994" lon="-7.654477">
        <ele>462.039</ele>
        <time>2013-02-15T20:40:10Z</time>
      </trkpt>
      <trkpt lat="42.812026" lon="-7.655078">
        <ele>465.001</ele>
        <time>2013-02-15T20:40:30Z</time>
      </trkpt>
      <trkpt lat="42.812026" lon="-7.655314">
        <ele>467.021</ele>
        <time>2013-02-15T20:40:50Z</time>
      </trkpt>
      <trkpt lat="42.811994" lon="-7.655454">
        <ele>469.007</ele>
        <time>2013-02-15T20:41:10Z</time>
      </trkpt>
      <trkpt lat="42.812002" lon="-7.655700">
        <ele>471.086</ele>
        <time>2013-02-15T20:41:30Z</time>
      </trkpt>
      <trkpt lat="42.812026" lon="-7.656205">
        <ele>473.022</ele>
        <time>2013-02-15T20:41:50Z</time>
      </trkpt>
      <trkpt lat="42.812057" lon="-7.656430">
        <ele>475.052</ele>
        <time>2013-02-15T20:42:10Z</time>
      </trkpt>
      <trkpt lat="42.812073" lon="-7.657074">
        <ele>478.075</ele>
        <time>2013-02-15T20:42:30Z</time>
      </trkpt>
      <trkpt lat="42.812065" lon="-7.657192">
        <ele>480.073</ele>
        <time>2013-02-15T20:42:50Z</time>
      </trkpt>
      <trkpt lat="42.812097" lon="-7.657621">
        <ele>480.041</ele>
        <time>2013-02-15T20:43:10Z</time>
      </trkpt>
      <trkpt lat="42.812105" lon="-7.658093">
        <ele>481.068</ele>
        <time>2013-02-15T20:43:30Z</time>
      </trkpt>
      <trkpt lat="42.812144" lon="-7.658468">
        <ele>481.061</ele>
        <time>2013-02-15T20:43:50Z</time>
      </trkpt>
      <trkpt lat="42.812168" lon="-7.658554">
        <ele>480.021</ele>
        <time>2013-02-15T20:44:10Z</time>
      </trkpt>
      <trkpt lat="42.812183" lon="-7.658608">
        <ele>480.013</ele>
        <time>2013-02-15T20:44:30Z</time>
      </trkpt>
      <trkpt lat="42.812187" lon="-7.658764">
        <ele>480.007</ele>
        <time>2013-02-15T20:44:50Z</time>
      </trkpt>
      <trkpt lat="42.812104" lon="-7.658892">
        <ele>480.089</ele>
        <time>2013-02-15T20:45:10Z</time>
      </trkpt>
      <trkpt lat="42.812104" lon="-7.659000">
        <ele>480.035</ele>
        <time>2013-02-15T20:45:30Z</time>
      </trkpt>
      <trkpt lat="42.812104" lon="-7.659096">
        <ele>481.075</ele>
        <time>2013-02-15T20:45:50Z</time>
      </trkpt>
      <trkpt lat="42.812104" lon="-7.659166">
        <ele>481.018</ele>
        <time>2013-02-15T20:46:10Z</time>
      </trkpt>
      <trkpt lat="42.812124" lon="-7.659257">
        <ele>481.076</ele>
        <time>2013-02-15T20:46:30Z</time>
      </trkpt>
      <trkpt lat="42.812136" lon="-7.659316">
        <ele>482.054</ele>
        <time>2013-02-15T20:46:50Z</time>
      </trkpt>
      <trkpt lat="42.812144" lon="-7.659364">
        <ele>482.031</ele>
        <time>2013-02-15T20:47:10Z</time>
      </trkpt>
      <trkpt lat="42.812159" lon="-7.659402">
        <ele>482.091</ele>
        <time>2013-02-15T20:47:30Z</time>
      </trkpt>
      <trkpt lat="42.812171" lon="-7.659466">
        <ele>482.081</ele>
        <time>2013-02-15T20:47:50Z</time>
      </trkpt>
      <trkpt lat="42.812187" lon="-7.659531">
        <ele>482.019</ele>
        <time>2013-02-15T20:48:10Z</time>
      </trkpt>
      <trkpt lat="42.812199" lon="-7.659600">
        <ele>483.007</ele>
        <time>2013-02-15T20:48:30Z</time>
      </trkpt>
      <trkpt lat="42.812199" lon="-7.659713">
        <ele>483.062</ele>
        <time>2013-02-15T20:48:50Z</time>
      </trkpt>
      <trkpt lat="42.812250" lon="-7.659906">
        <ele>483.028</ele>
        <time>2013-02-15T20:49:10Z</time>
      </trkpt>
      <trkpt lat="42.812274" lon="-7.660013">
        <ele>483.098</ele>
        <time>2013-02-15T20:49:30Z</time>
      </trkpt>
      <trkpt lat="42.812297" lon="-7.660174">
        <ele>484.081</ele>
        <time>2013-02-15T20:49:50Z</time>
      </trkpt>
      <trkpt lat="42.812317" lon="-7.660341">
        <ele>484.019</ele>
        <time>2013-02-15T20:50:10Z</time>
      </trkpt>
      <trkpt lat="42.812307" lon="-7.660400">
        <ele>484.027</ele>
        <time>2013-02-15T20:50:30Z</time>
      </trkpt>
      <trkpt lat="42.812376" lon="-7.660778">
        <ele>482.094</ele>
        <time>2013-02-15T20:50:50Z</time>
      </trkpt>
      <trkpt lat="42.812435" lon="-7.661094">
        <ele>482.021</ele>
        <time>2013-02-15T20:51:10Z</time>
      </trkpt>
      <trkpt lat="42.812451" lon="-7.661220">
        <ele>482.041</ele>
        <time>2013-02-15T20:51:30Z</time>
      </trkpt>
      <trkpt lat="42.812456" lon="-7.661271">
        <ele>482.005</ele>
        <time>2013-02-15T20:51:50Z</time>
      </trkpt>
      <trkpt lat="42.812480" lon="-7.661373">
        <ele>482.007</ele>
        <time>2013-02-15T20:52:10Z</time>
      </trkpt>
      <trkpt lat="42.812484" lon="-7.661456">
        <ele>482.045</ele>
        <time>2013-02-15T20:52:30Z</time>
      </trkpt>
      <trkpt lat="42.812492" lon="-7.661501">
        <ele>482.081</ele>
        <time>2013-02-15T20:52:50Z</time>
      </trkpt>
      <trkpt lat="42.812502" lon="-7.661552">
        <ele>481.071</ele>
        <time>2013-02-15T20:53:10Z</time>
      </trkpt>
      <trkpt lat="42.812525" lon="-7.661705">
        <ele>481.044</ele>
        <time>2013-02-15T20:53:30Z</time>
      </trkpt>
      <trkpt lat="42.812527" lon="-7.661777">
        <ele>481.052</ele>
        <time>2013-02-15T20:53:50Z</time>
      </trkpt>
      <trkpt lat="42.812534" lon="-7.661809">
        <ele>481.050</ele>
        <time>2013-02-15T20:54:10Z</time>
      </trkpt>
      <trkpt lat="42.812559" lon="-7.661977">
        <ele>481.077</ele>
        <time>2013-02-15T20:54:30Z</time>
      </trkpt>
      <trkpt lat="42.812573" lon="-7.662030">
        <ele>481.089</ele>
        <time>2013-02-15T20:54:50Z</time>
      </trkpt>
      <trkpt lat="42.812574" lon="-7.662085">
        <ele>481.006</ele>
        <time>2013-02-15T20:55:10Z</time>
      </trkpt>
      <trkpt lat="42.812582" lon="-7.662155">
        <ele>481.026</ele>
        <time>2013-02-15T20:55:30Z</time>
      </trkpt>
      <trkpt lat="42.812588" lon="-7.662195">
        <ele>481.007</ele>
        <time>2013-02-15T20:55:50Z</time>
      </trkpt>
      <trkpt lat="42.812589" lon="-7.662242">
        <ele>481.051</ele>
        <time>2013-02-15T20:56:10Z</time>
      </trkpt>
      <trkpt lat="42.812624" lon="-7.662320">
        <ele>481.037</ele>
        <time>2013-02-15T20:56:30Z</time>
      </trkpt>
      <trkpt lat="42.812632" lon="-7.662481">
        <ele>482.017</ele>
        <time>2013-02-15T20:56:50Z</time>
      </trkpt>
      <trkpt lat="42.812632" lon="-7.662513">
        <ele>482.090</ele>
        <time>2013-02-15T20:57:10Z</time>
      </trkpt>
      <trkpt lat="42.812643" lon="-7.662583">
        <ele>484.028</ele>
        <time>2013-02-15T20:57:30Z</time>
      </trkpt>
      <trkpt lat="42.812651" lon="-7.662739">
        <ele>485.086</ele>
        <time>2013-02-15T20:57:50Z</time>
      </trkpt>
      <trkpt lat="42.812659" lon="-7.662824">
        <ele>485.083</ele>
        <time>2013-02-15T20:58:10Z</time>
      </trkpt>
      <trkpt lat="42.812675" lon="-7.662910">
        <ele>485.046</ele>
        <time>2013-02-15T20:58:30Z</time>
      </trkpt>
      <trkpt lat="42.812687" lon="-7.662996">
        <ele>487.088</ele>
        <time>2013-02-15T20:58:50Z</time>
      </trkpt>
      <trkpt lat="42.812718" lon="-7.663071">
        <ele>487.016</ele>
        <time>2013-02-15T20:59:10Z</time>
      </trkpt>
      <trkpt lat="42.812762" lon="-7.663232">
        <ele>489.007</ele>
        <time>2013-02-15T20:59:30Z</time>
      </trkpt>
      <trkpt lat="42.812762" lon="-7.663366">
        <ele>489.047</ele>
        <time>2013-02-15T20:59:50Z</time>
      </trkpt>
      <trkpt lat="42.812750" lon="-7.663516">
        <ele>492.063</ele>
        <time>2013-02-15T21:00:10Z</time>
      </trkpt>
      <trkpt lat="42.812734" lon="-7.663602">
        <ele>492.093</ele>
        <time>2013-02-15T21:00:30Z</time>
      </trkpt>
      <trkpt lat="42.812734" lon="-7.663720">
        <ele>492.036</ele>
        <time>2013-02-15T21:00:50Z</time>
      </trkpt>
      <trkpt lat="42.812762" lon="-7.663919">
        <ele>495.084</ele>
        <time>2013-02-15T21:01:10Z</time>
      </trkpt>
      <trkpt lat="42.812805" lon="-7.663946">
        <ele>495.062</ele>
        <time>2013-02-15T21:01:30Z</time>
      </trkpt>
      <trkpt lat="42.812880" lon="-7.664117">
        <ele>498.089</ele>
        <time>2013-02-15T21:01:50Z</time>
      </trkpt>
      <trkpt lat="42.812943" lon="-7.664176">
        <ele>499.077</ele>
        <time>2013-02-15T21:02:10Z</time>
      </trkpt>
      <trkpt lat="42.813120" lon="-7.664310">
        <ele>502.061</ele>
        <time>2013-02-15T21:02:30Z</time>
      </trkpt>
      <trkpt lat="42.813206" lon="-7.664391">
        <ele>502.027</ele>
        <time>2013-02-15T21:02:50Z</time>
      </trkpt>
      <trkpt lat="42.813348" lon="-7.664541">
        <ele>502.007</ele>
        <time>2013-02-15T21:03:10Z</time>
      </trkpt>
      <trkpt lat="42.813442" lon="-7.664670">
        <ele>504.060</ele>
        <time>2013-02-15T21:03:30Z</time>
      </trkpt>
      <trkpt lat="42.813450" lon="-7.664745">
        <ele>504.076</ele>
        <time>2013-02-15T21:03:50Z</time>
      </trkpt>
      <trkpt lat="42.813498" lon="-7.664820">
        <ele>504.026</ele>
        <time>2013-02-15T21:04:10Z</time>
      </trkpt>
      <trkpt lat="42.813584" lon="-7.665035">
        <ele>506.019</ele>
        <time>2013-02-15T21:04:30Z</time>
      </trkpt>
      <trkpt lat="42.813679" lon="-7.665217">
        <ele>508.077</ele>
        <time>2013-02-15T21:04:50Z</time>
      </trkpt>
      <trkpt lat="42.813742" lon="-7.665389">
        <ele>508.065</ele>
        <time>2013-02-15T21:05:10Z</time>
      </trkpt>
      <trkpt lat="42.813812" lon="-7.665582">
        <ele>510.092</ele>
        <time>2013-02-15T21:05:30Z</time>
      </trkpt>
      <trkpt lat="42.813883" lon="-7.665828">
        <ele>513.013</ele>
        <time>2013-02-15T21:05:50Z</time>
      </trkpt>
      <trkpt lat="42.814001" lon="-7.666129">
        <ele>515.043</ele>
        <time>2013-02-15T21:06:10Z</time>
      </trkpt>
      <trkpt lat="42.814104" lon="-7.666301">
        <ele>517.007</ele>
        <time>2013-02-15T21:06:30Z</time>
      </trkpt>
      <trkpt lat="42.814237" lon="-7.666526">
        <ele>517.007</ele>
        <time>2013-02-15T21:06:50Z</time>
      </trkpt>
      <trkpt lat="42.814300" lon="-7.666687">
        <ele>519.024</ele>
        <time>2013-02-15T21:07:10Z</time>
      </trkpt>
      <trkpt lat="42.814387" lon="-7.666848">
        <ele>521.090</ele>
        <time>2013-02-15T21:07:30Z</time>
      </trkpt>
      <trkpt lat="42.814450" lon="-7.667094">
        <ele>523.060</ele>
        <time>2013-02-15T21:07:50Z</time>
      </trkpt>
      <trkpt lat="42.814544" lon="-7.667277">
        <ele>523.043</ele>
        <time>2013-02-15T21:08:10Z</time>
      </trkpt>
      <trkpt lat="42.814623" lon="-7.667470">
        <ele>524.091</ele>
        <time>2013-02-15T21:08:30Z</time>
      </trkpt>
      <trkpt lat="42.814678" lon="-7.667599">
        <ele>524.049</ele>
        <time>2013-02-15T21:08:50Z</time>
      </trkpt>
      <trkpt lat="42.814733" lon="-7.667749">
        <ele>525.096</ele>
        <time>2013-02-15T21:09:10Z</time>
      </trkpt>
      <trkpt lat="42.814812" lon="-7.667910">
        <ele>525.091</ele>
        <time>2013-02-15T21:09:30Z</time>
      </trkpt>
      <trkpt lat="42.814836" lon="-7.668135">
        <ele>526.081</ele>
        <time>2013-02-15T21:09:50Z</time>
      </trkpt>
      <trkpt lat="42.814883" lon="-7.668318">
        <ele>528.019</ele>
        <time>2013-02-15T21:10:10Z</time>
      </trkpt>
      <trkpt lat="42.814938" lon="-7.668436">
        <ele>528.007</ele>
        <time>2013-02-15T21:10:30Z</time>
      </trkpt>
      <trkpt lat="42.815017" lon="-7.668672">
        <ele>528.022</ele>
        <time>2013-02-15T21:10:50Z</time>
      </trkpt>
      <trkpt lat="42.815095" lon="-7.668908">
        <ele>528.088</ele>
        <time>2013-02-15T21:11:10Z</time>
      </trkpt>
      <trkpt lat="42.815182" lon="-7.669047">
        <ele>529.038</ele>
        <time>2013-02-15T21:11:30Z</time>
      </trkpt>
      <trkpt lat="42.815261" lon="-7.669187">
        <ele>529.081</ele>
        <time>2013-02-15T21:11:50Z</time>
      </trkpt>
      <trkpt lat="42.815347" lon="-7.669412">
        <ele>527.089</ele>
        <time>2013-02-15T21:12:10Z</time>
      </trkpt>
      <trkpt lat="42.815473" lon="-7.669809">
        <ele>527.097</ele>
        <time>2013-02-15T21:12:30Z</time>
      </trkpt>
      <trkpt lat="42.815505" lon="-7.669991">
        <ele>528.014</ele>
        <time>2013-02-15T21:12:50Z</time>
      </trkpt>
      <trkpt lat="42.815567" lon="-7.670141">
        <ele>528.055</ele>
        <time>2013-02-15T21:13:10Z</time>
      </trkpt>
      <trkpt lat="42.815670" lon="-7.670345">
        <ele>528.007</ele>
        <time>2013-02-15T21:13:30Z</time>
      </trkpt>
      <trkpt lat="42.815741" lon="-7.670560">
        <ele>530.017</ele>
        <time>2013-02-15T21:13:50Z</time>
      </trkpt>
      <trkpt lat="42.815772" lon="-7.670785">
        <ele>530.007</ele>
        <time>2013-02-15T21:14:10Z</time>
      </trkpt>
      <trkpt lat="42.815867" lon="-7.671010">
        <ele>530.018</ele>
        <time>2013-02-15T21:14:30Z</time>
      </trkpt>
      <trkpt lat="42.815992" lon="-7.671257">
        <ele>531.084</ele>
        <time>2013-02-15T21:14:50Z</time>
      </trkpt>
      <trkpt lat="42.816040" lon="-7.671440">
        <ele>531.074</ele>
        <time>2013-02-15T21:15:10Z</time>
      </trkpt>
      <trkpt lat="42.816134" lon="-7.671708">
        <ele>530.027</ele>
        <time>2013-02-15T21:15:30Z</time>
      </trkpt>
      <trkpt lat="42.816197" lon="-7.671922">
        <ele>529.015</ele>
        <time>2013-02-15T21:15:50Z</time>
      </trkpt>
      <trkpt lat="42.816268" lon="-7.672126">
        <ele>531.063</ele>
        <time>2013-02-15T21:16:10Z</time>
      </trkpt>
      <trkpt lat="42.816276" lon="-7.672244">
        <ele>531.030</ele>
        <time>2013-02-15T21:16:30Z</time>
      </trkpt>
      <trkpt lat="42.816276" lon="-7.672620">
        <ele>531.042</ele>
        <time>2013-02-15T21:16:50Z</time>
      </trkpt>
      <trkpt lat="42.816276" lon="-7.672834">
        <ele>530.022</ele>
        <time>2013-02-15T21:17:10Z</time>
      </trkpt>
      <trkpt lat="42.816276" lon="-7.673092">
        <ele>530.014</ele>
        <time>2013-02-15T21:17:30Z</time>
      </trkpt>
      <trkpt lat="42.816284" lon="-7.673221">
        <ele>529.007</ele>
        <time>2013-02-15T21:17:50Z</time>
      </trkpt>
      <trkpt lat="42.816284" lon="-7.673382">
        <ele>529.067</ele>
        <time>2013-02-15T21:18:10Z</time>
      </trkpt>
      <trkpt lat="42.816331" lon="-7.673575">
        <ele>529.053</ele>
        <time>2013-02-15T21:18:30Z</time>
      </trkpt>
      <trkpt lat="42.816370" lon="-7.673714">
        <ele>529.083</ele>
        <time>2013-02-15T21:18:50Z</time>
      </trkpt>
      <trkpt lat="42.816410" lon="-7.673897">
        <ele>529.086</ele>
        <time>2013-02-15T21:19:10Z</time>
      </trkpt>
      <trkpt lat="42.816480" lon="-7.674036">
        <ele>530.024</ele>
        <time>2013-02-15T21:19:30Z</time>
      </trkpt>
      <trkpt lat="42.816543" lon="-7.674186">
        <ele>531.012</ele>
        <time>2013-02-15T21:19:50Z</time>
      </trkpt>
      <trkpt lat="42.816827" lon="-7.674583">
        <ele>530.099</ele>
        <time>2013-02-15T21:20:10Z</time>
      </trkpt>
      <trkpt lat="42.817141" lon="-7.674927">
        <ele>526.014</ele>
        <time>2013-02-15T21:20:30Z</time>
      </trkpt>
      <trkpt lat="42.817393" lon="-7.675205">
        <ele>524.054</ele>
        <time>2013-02-15T21:20:50Z</time>
      </trkpt>
      <trkpt lat="42.817803" lon="-7.675463">
        <ele>521.009</ele>
        <time>2013-02-15T21:21:10Z</time>
      </trkpt>
      <trkpt lat="42.818078" lon="-7.675602">
        <ele>523.007</ele>
        <time>2013-02-15T21:21:30Z</time>
      </trkpt>
      <trkpt lat="42.818361" lon="-7.675785">
        <ele>523.034</ele>
        <time>2013-02-15T21:21:50Z</time>
      </trkpt>
      <trkpt lat="42.818542" lon="-7.675946">
        <ele>526.030</ele>
        <time>2013-02-15T21:22:10Z</time>
      </trkpt>
      <trkpt lat="42.818810" lon="-7.676171">
        <ele>528.010</ele>
        <time>2013-02-15T21:22:30Z</time>
      </trkpt>
      <trkpt lat="42.818912" lon="-7.676289">
        <ele>528.063</ele>
        <time>2013-02-15T21:22:50Z</time>
      </trkpt>
      <trkpt lat="42.819077" lon="-7.676471">
        <ele>533.091</ele>
        <time>2013-02-15T21:23:10Z</time>
      </trkpt>
      <trkpt lat="42.819140" lon="-7.676600">
        <ele>534.099</ele>
        <time>2013-02-15T21:23:30Z</time>
      </trkpt>
      <trkpt lat="42.819282" lon="-7.676772">
        <ele>534.086</ele>
        <time>2013-02-15T21:23:50Z</time>
      </trkpt>
      <trkpt lat="42.819589" lon="-7.676536">
        <ele>539.032</ele>
        <time>2013-02-15T21:24:10Z</time>
      </trkpt>
      <trkpt lat="42.819841" lon="-7.676944">
        <ele>540.092</ele>
        <time>2013-02-15T21:24:30Z</time>
      </trkpt>
      <trkpt lat="42.819912" lon="-7.677115">
        <ele>538.011</ele>
        <time>2013-02-15T21:24:50Z</time>
      </trkpt>
      <trkpt lat="42.820148" lon="-7.677577">
        <ele>537.007</ele>
        <time>2013-02-15T21:25:10Z</time>
      </trkpt>
      <trkpt lat="42.820203" lon="-7.677716">
        <ele>538.076</ele>
        <time>2013-02-15T21:25:30Z</time>
      </trkpt>
      <trkpt lat="42.820226" lon="-7.678006">
        <ele>540.012</ele>
        <time>2013-02-15T21:25:50Z</time>
      </trkpt>
      <trkpt lat="42.820313" lon="-7.678124">
        <ele>540.082</ele>
        <time>2013-02-15T21:26:10Z</time>
      </trkpt>
      <trkpt lat="42.820494" lon="-7.678403">
        <ele>541.035</ele>
        <time>2013-02-15T21:26:30Z</time>
      </trkpt>
      <trkpt lat="42.820683" lon="-7.678682">
        <ele>543.033</ele>
        <time>2013-02-15T21:26:50Z</time>
      </trkpt>
      <trkpt lat="42.820864" lon="-7.678939">
        <ele>544.071</ele>
        <time>2013-02-15T21:27:10Z</time>
      </trkpt>
      <trkpt lat="42.820974" lon="-7.679154">
        <ele>546.028</ele>
        <time>2013-02-15T21:27:30Z</time>
      </trkpt>
      <trkpt lat="42.821053" lon="-7.679368">
        <ele>546.016</ele>
        <time>2013-02-15T21:27:50Z</time>
      </trkpt>
      <trkpt lat="42.821163" lon="-7.679862">
        <ele>545.076</ele>
        <time>2013-02-15T21:28:10Z</time>
      </trkpt>
      <trkpt lat="42.821234" lon="-7.680248">
        <ele>544.013</ele>
        <time>2013-02-15T21:28:30Z</time>
      </trkpt>
      <trkpt lat="42.821281" lon="-7.680581">
        <ele>543.007</ele>
        <time>2013-02-15T21:28:50Z</time>
      </trkpt>
      <trkpt lat="42.821320" lon="-7.680924">
        <ele>542.024</ele>
        <time>2013-02-15T21:29:10Z</time>
      </trkpt>
      <trkpt lat="42.821493" lon="-7.681578">
        <ele>542.070</ele>
        <time>2013-02-15T21:29:30Z</time>
      </trkpt>
      <trkpt lat="42.821556" lon="-7.681997">
        <ele>543.070</ele>
        <time>2013-02-15T21:29:50Z</time>
      </trkpt>
      <trkpt lat="42.821572" lon="-7.682265">
        <ele>542.073</ele>
        <time>2013-02-15T21:30:10Z</time>
      </trkpt>
      <trkpt lat="42.821611" lon="-7.682587">
        <ele>540.041</ele>
        <time>2013-02-15T21:30:30Z</time>
      </trkpt>
      <trkpt lat="42.821682" lon="-7.683005">
        <ele>537.089</ele>
        <time>2013-02-15T21:30:50Z</time>
      </trkpt>
      <trkpt lat="42.821761" lon="-7.683531">
        <ele>536.096</ele>
        <time>2013-02-15T21:31:10Z</time>
      </trkpt>
      <trkpt lat="42.821800" lon="-7.683660">
        <ele>536.092</ele>
        <time>2013-02-15T21:31:30Z</time>
      </trkpt>
      <trkpt lat="42.821816" lon="-7.684078">
        <ele>539.073</ele>
        <time>2013-02-15T21:31:50Z</time>
      </trkpt>
      <trkpt lat="42.821848" lon="-7.684239">
        <ele>539.020</ele>
        <time>2013-02-15T21:32:10Z</time>
      </trkpt>
      <trkpt lat="42.822005" lon="-7.685012">
        <ele>536.007</ele>
        <time>2013-02-15T21:32:30Z</time>
      </trkpt>
      <trkpt lat="42.822052" lon="-7.685355">
        <ele>535.012</ele>
        <time>2013-02-15T21:32:50Z</time>
      </trkpt>
      <trkpt lat="42.822091" lon="-7.685773">
        <ele>533.048</ele>
        <time>2013-02-15T21:33:10Z</time>
      </trkpt>
      <trkpt lat="42.822131" lon="-7.685891">
        <ele>533.028</ele>
        <time>2013-02-15T21:33:30Z</time>
      </trkpt>
      <trkpt lat="42.822217" lon="-7.686192">
        <ele>531.071</ele>
        <time>2013-02-15T21:33:50Z</time>
      </trkpt>
      <trkpt lat="42.822312" lon="-7.686417">
        <ele>528.069</ele>
        <time>2013-02-15T21:34:10Z</time>
      </trkpt>
      <trkpt lat="42.822375" lon="-7.686589">
        <ele>528.087</ele>
        <time>2013-02-15T21:34:30Z</time>
      </trkpt>
      <trkpt lat="42.822485" lon="-7.686889">
        <ele>526.084</ele>
        <time>2013-02-15T21:34:50Z</time>
      </trkpt>
      <trkpt lat="42.822611" lon="-7.687050">
        <ele>526.028</ele>
        <time>2013-02-15T21:35:10Z</time>
      </trkpt>
      <trkpt lat="42.822752" lon="-7.687265">
        <ele>526.089</ele>
        <time>2013-02-15T21:35:30Z</time>
      </trkpt>
      <trkpt lat="42.822871" lon="-7.687490">
        <ele>525.017</ele>
        <time>2013-02-15T21:35:50Z</time>
      </trkpt>
      <trkpt lat="42.822981" lon="-7.687672">
        <ele>526.007</ele>
        <time>2013-02-15T21:36:10Z</time>
      </trkpt>
      <trkpt lat="42.823130" lon="-7.687919">
        <ele>526.095</ele>
        <time>2013-02-15T21:36:30Z</time>
      </trkpt>
      <trkpt lat="42.823225" lon="-7.688112">
        <ele>528.081</ele>
        <time>2013-02-15T21:36:50Z</time>
      </trkpt>
      <trkpt lat="42.823335" lon="-7.688295">
        <ele>529.011</ele>
        <time>2013-02-15T21:37:10Z</time>
      </trkpt>
      <trkpt lat="42.823469" lon="-7.688509">
        <ele>529.034</ele>
        <time>2013-02-15T21:37:30Z</time>
      </trkpt>
      <trkpt lat="42.823571" lon="-7.688713">
        <ele>530.022</ele>
        <time>2013-02-15T21:37:50Z</time>
      </trkpt>
      <trkpt lat="42.823650" lon="-7.688960">
        <ele>529.080</ele>
        <time>2013-02-15T21:38:10Z</time>
      </trkpt>
      <trkpt lat="42.823712" lon="-7.689121">
        <ele>529.037</ele>
        <time>2013-02-15T21:38:30Z</time>
      </trkpt>
      <trkpt lat="42.823815" lon="-7.689325">
        <ele>530.026</ele>
        <time>2013-02-15T21:38:50Z</time>
      </trkpt>
      <trkpt lat="42.823878" lon="-7.689410">
        <ele>530.047</ele>
        <time>2013-02-15T21:39:10Z</time>
      </trkpt>
      <trkpt lat="42.823941" lon="-7.689539">
        <ele>530.011</ele>
        <time>2013-02-15T21:39:30Z</time>
      </trkpt>
      <trkpt lat="42.824145" lon="-7.689925">
        <ele>530.007</ele>
        <time>2013-02-15T21:39:50Z</time>
      </trkpt>
      <trkpt lat="42.824255" lon="-7.690043">
        <ele>530.015</ele>
        <time>2013-02-15T21:40:10Z</time>
      </trkpt>
      <trkpt lat="42.824429" lon="-7.690290">
        <ele>531.051</ele>
        <time>2013-02-15T21:40:30Z</time>
      </trkpt>
      <trkpt lat="42.824531" lon="-7.690419">
        <ele>532.091</ele>
        <time>2013-02-15T21:40:50Z</time>
      </trkpt>
      <trkpt lat="42.824602" lon="-7.690537">
        <ele>534.034</ele>
        <time>2013-02-15T21:41:10Z</time>
      </trkpt>
      <trkpt lat="42.824649" lon="-7.690655">
        <ele>534.012</ele>
        <time>2013-02-15T21:41:30Z</time>
      </trkpt>
      <trkpt lat="42.824704" lon="-7.690912">
        <ele>535.030</ele>
        <time>2013-02-15T21:41:50Z</time>
      </trkpt>
      <trkpt lat="42.824751" lon="-7.691020">
        <ele>536.017</ele>
        <time>2013-02-15T21:42:10Z</time>
      </trkpt>
      <trkpt lat="42.824814" lon="-7.691234">
        <ele>536.099</ele>
        <time>2013-02-15T21:42:30Z</time>
      </trkpt>
      <trkpt lat="42.824877" lon="-7.691406">
        <ele>539.007</ele>
        <time>2013-02-15T21:42:50Z</time>
      </trkpt>
      <trkpt lat="42.824932" lon="-7.691717">
        <ele>540.027</ele>
        <time>2013-02-15T21:43:10Z</time>
      </trkpt>
      <trkpt lat="42.825066" lon="-7.692028">
        <ele>539.007</ele>
        <time>2013-02-15T21:43:30Z</time>
      </trkpt>
      <trkpt lat="42.825129" lon="-7.692211">
        <ele>538.042</ele>
        <time>2013-02-15T21:43:50Z</time>
      </trkpt>
      <trkpt lat="42.825168" lon="-7.692382">
        <ele>540.088</ele>
        <time>2013-02-15T21:44:10Z</time>
      </trkpt>
      <trkpt lat="42.825215" lon="-7.692575">
        <ele>540.048</ele>
        <time>2013-02-15T21:44:30Z</time>
      </trkpt>
      <trkpt lat="42.825278" lon="-7.692747">
        <ele>540.091</ele>
        <time>2013-02-15T21:44:50Z</time>
      </trkpt>
      <trkpt lat="42.825341" lon="-7.692972">
        <ele>539.069</ele>
        <time>2013-02-15T21:45:10Z</time>
      </trkpt>
      <trkpt lat="42.825404" lon="-7.693176">
        <ele>539.077</ele>
        <time>2013-02-15T21:45:30Z</time>
      </trkpt>
      <trkpt lat="42.825585" lon="-7.693638">
        <ele>546.024</ele>
        <time>2013-02-15T21:45:50Z</time>
      </trkpt>
      <trkpt lat="42.825656" lon="-7.693863">
        <ele>547.044</ele>
        <time>2013-02-15T21:46:10Z</time>
      </trkpt>
      <trkpt lat="42.825703" lon="-7.694088">
        <ele>550.005</ele>
        <time>2013-02-15T21:46:30Z</time>
      </trkpt>
      <trkpt lat="42.825766" lon="-7.694281">
        <ele>550.015</ele>
        <time>2013-02-15T21:46:50Z</time>
      </trkpt>
      <trkpt lat="42.825798" lon="-7.694432">
        <ele>549.007</ele>
        <time>2013-02-15T21:47:10Z</time>
      </trkpt>
      <trkpt lat="42.825876" lon="-7.694678">
        <ele>548.027</ele>
        <time>2013-02-15T21:47:30Z</time>
      </trkpt>
      <trkpt lat="42.825916" lon="-7.694764">
        <ele>548.063</ele>
        <time>2013-02-15T21:47:50Z</time>
      </trkpt>
      <trkpt lat="42.825994" lon="-7.695011">
        <ele>549.083</ele>
        <time>2013-02-15T21:48:10Z</time>
      </trkpt>
      <trkpt lat="42.826057" lon="-7.695268">
        <ele>547.016</ele>
        <time>2013-02-15T21:48:30Z</time>
      </trkpt>
      <trkpt lat="42.826128" lon="-7.695429">
        <ele>545.034</ele>
        <time>2013-02-15T21:48:50Z</time>
      </trkpt>
      <trkpt lat="42.826191" lon="-7.695590">
        <ele>545.012</ele>
        <time>2013-02-15T21:49:10Z</time>
      </trkpt>
      <trkpt lat="42.826270" lon="-7.695891">
        <ele>547.069</ele>
        <time>2013-02-15T21:49:30Z</time>
      </trkpt>
      <trkpt lat="42.826356" lon="-7.696062">
        <ele>546.052</ele>
        <time>2013-02-15T21:49:50Z</time>
      </trkpt>
      <trkpt lat="42.826561" lon="-7.696427">
        <ele>550.053</ele>
        <time>2013-02-15T21:50:10Z</time>
      </trkpt>
      <trkpt lat="42.826616" lon="-7.696577">
        <ele>549.008</ele>
        <time>2013-02-15T21:50:30Z</time>
      </trkpt>
      <trkpt lat="42.826884" lon="-7.696985">
        <ele>551.007</ele>
        <time>2013-02-15T21:50:50Z</time>
      </trkpt>
      <trkpt lat="42.827002" lon="-7.697210">
        <ele>552.028</ele>
        <time>2013-02-15T21:51:10Z</time>
      </trkpt>
      <trkpt lat="42.826970" lon="-7.697307">
        <ele>552.014</ele>
        <time>2013-02-15T21:51:30Z</time>
      </trkpt>
      <trkpt lat="42.826923" lon="-7.697650">
        <ele>553.014</ele>
        <time>2013-02-15T21:51:50Z</time>
      </trkpt>
      <trkpt lat="42.826884" lon="-7.697843">
        <ele>553.087</ele>
        <time>2013-02-15T21:52:10Z</time>
      </trkpt>
      <trkpt lat="42.826750" lon="-7.698187">
        <ele>550.015</ele>
        <time>2013-02-15T21:52:30Z</time>
      </trkpt>
      <trkpt lat="42.826821" lon="-7.698390">
        <ele>553.093</ele>
        <time>2013-02-15T21:52:50Z</time>
      </trkpt>
      <trkpt lat="42.826884" lon="-7.698519">
        <ele>553.030</ele>
        <time>2013-02-15T21:53:10Z</time>
      </trkpt>
      <trkpt lat="42.826986" lon="-7.698723">
        <ele>553.044</ele>
        <time>2013-02-15T21:53:30Z</time>
      </trkpt>
      <trkpt lat="42.827065" lon="-7.698905">
        <ele>553.005</ele>
        <time>2013-02-15T21:53:50Z</time>
      </trkpt>
      <trkpt lat="42.827159" lon="-7.699099">
        <ele>556.015</ele>
        <time>2013-02-15T21:54:10Z</time>
      </trkpt>
      <trkpt lat="42.827269" lon="-7.699206">
        <ele>556.007</ele>
        <time>2013-02-15T21:54:30Z</time>
      </trkpt>
      <trkpt lat="42.827427" lon="-7.699356">
        <ele>558.087</ele>
        <time>2013-02-15T21:54:50Z</time>
      </trkpt>
      <trkpt lat="42.827537" lon="-7.699496">
        <ele>558.053</ele>
        <time>2013-02-15T21:55:10Z</time>
      </trkpt>
      <trkpt lat="42.827899" lon="-7.700011">
        <ele>558.093</ele>
        <time>2013-02-15T21:55:30Z</time>
      </trkpt>
      <trkpt lat="42.828025" lon="-7.700193">
        <ele>560.056</ele>
        <time>2013-02-15T21:55:50Z</time>
      </trkpt>
      <trkpt lat="42.828166" lon="-7.700375">
        <ele>560.084</ele>
        <time>2013-02-15T21:56:10Z</time>
      </trkpt>
      <trkpt lat="42.828276" lon="-7.700558">
        <ele>564.082</ele>
        <time>2013-02-15T21:56:30Z</time>
      </trkpt>
      <trkpt lat="42.828418" lon="-7.700762">
        <ele>565.049</ele>
        <time>2013-02-15T21:56:50Z</time>
      </trkpt>
      <trkpt lat="42.828520" lon="-7.701041">
        <ele>571.082</ele>
        <time>2013-02-15T21:57:10Z</time>
      </trkpt>
      <trkpt lat="42.828670" lon="-7.701212">
        <ele>571.043</ele>
        <time>2013-02-15T21:57:30Z</time>
      </trkpt>
      <trkpt lat="42.828867" lon="-7.701405">
        <ele>576.017</ele>
        <time>2013-02-15T21:57:50Z</time>
      </trkpt>
      <trkpt lat="42.829008" lon="-7.701598">
        <ele>577.007</ele>
        <time>2013-02-15T21:58:10Z</time>
      </trkpt>
      <trkpt lat="42.829158" lon="-7.701749">
        <ele>579.011</ele>
        <time>2013-02-15T21:58:30Z</time>
      </trkpt>
      <trkpt lat="42.829362" lon="-7.702006">
        <ele>580.047</ele>
        <time>2013-02-15T21:58:50Z</time>
      </trkpt>
      <trkpt lat="42.829622" lon="-7.702156">
        <ele>581.017</ele>
        <time>2013-02-15T21:59:10Z</time>
      </trkpt>
      <trkpt lat="42.829630" lon="-7.702414">
        <ele>581.040</ele>
        <time>2013-02-15T21:59:30Z</time>
      </trkpt>
      <trkpt lat="42.829693" lon="-7.702693">
        <ele>582.028</ele>
        <time>2013-02-15T21:59:50Z</time>
      </trkpt>
      <trkpt lat="42.829764" lon="-7.702886">
        <ele>582.056</ele>
        <time>2013-02-15T22:00:10Z</time>
      </trkpt>
      <trkpt lat="42.829858" lon="-7.703186">
        <ele>583.073</ele>
        <time>2013-02-15T22:00:30Z</time>
      </trkpt>
      <trkpt lat="42.829858" lon="-7.703347">
        <ele>583.064</ele>
        <time>2013-02-15T22:00:50Z</time>
      </trkpt>
      <trkpt lat="42.829874" lon="-7.703444">
        <ele>584.006</ele>
        <time>2013-02-15T22:01:10Z</time>
      </trkpt>
      <trkpt lat="42.829944" lon="-7.703733">
        <ele>585.016</ele>
        <time>2013-02-15T22:01:30Z</time>
      </trkpt>
      <trkpt lat="42.829992" lon="-7.703830">
        <ele>585.007</ele>
        <time>2013-02-15T22:01:50Z</time>
      </trkpt>
      <trkpt lat="42.830118" lon="-7.704120">
        <ele>586.039</ele>
        <time>2013-02-15T22:02:10Z</time>
      </trkpt>
      <trkpt lat="42.830188" lon="-7.704313">
        <ele>587.095</ele>
        <time>2013-02-15T22:02:30Z</time>
      </trkpt>
      <trkpt lat="42.830236" lon="-7.704484">
        <ele>587.065</ele>
        <time>2013-02-15T22:02:50Z</time>
      </trkpt>
      <trkpt lat="42.830440" lon="-7.704817">
        <ele>589.058</ele>
        <time>2013-02-15T22:03:10Z</time>
      </trkpt>
      <trkpt lat="42.830542" lon="-7.705042">
        <ele>590.026</ele>
        <time>2013-02-15T22:03:30Z</time>
      </trkpt>
      <trkpt lat="42.830653" lon="-7.705257">
        <ele>590.054</ele>
        <time>2013-02-15T22:03:50Z</time>
      </trkpt>
      <trkpt lat="42.830700" lon="-7.705396">
        <ele>594.071</ele>
        <time>2013-02-15T22:04:10Z</time>
      </trkpt>
      <trkpt lat="42.830857" lon="-7.705590">
        <ele>594.042</ele>
        <time>2013-02-15T22:04:30Z</time>
      </trkpt>
      <trkpt lat="42.830857" lon="-7.705708">
        <ele>593.022</ele>
        <time>2013-02-15T22:04:50Z</time>
      </trkpt>
      <trkpt lat="42.830928" lon="-7.705986">
        <ele>592.014</ele>
        <time>2013-02-15T22:05:10Z</time>
      </trkpt>
      <trkpt lat="42.830991" lon="-7.706169">
        <ele>597.007</ele>
        <time>2013-02-15T22:05:30Z</time>
      </trkpt>
      <trkpt lat="42.831054" lon="-7.706373">
        <ele>596.067</ele>
        <time>2013-02-15T22:05:50Z</time>
      </trkpt>
      <trkpt lat="42.831109" lon="-7.706534">
        <ele>594.023</ele>
        <time>2013-02-15T22:06:10Z</time>
      </trkpt>
      <trkpt lat="42.831164" lon="-7.706770">
        <ele>594.053</ele>
        <time>2013-02-15T22:06:30Z</time>
      </trkpt>
      <trkpt lat="42.831196" lon="-7.707006">
        <ele>592.016</ele>
        <time>2013-02-15T22:06:50Z</time>
      </trkpt>
      <trkpt lat="42.831274" lon="-7.707285">
        <ele>597.044</ele>
        <time>2013-02-15T22:07:10Z</time>
      </trkpt>
      <trkpt lat="42.831329" lon="-7.707467">
        <ele>596.052</ele>
        <time>2013-02-15T22:07:30Z</time>
      </trkpt>
      <trkpt lat="42.831424" lon="-7.707649">
        <ele>595.039</ele>
        <time>2013-02-15T22:07:50Z</time>
      </trkpt>
      <trkpt lat="42.831494" lon="-7.707886">
        <ele>595.051</ele>
        <time>2013-02-15T22:08:10Z</time>
      </trkpt>
      <trkpt lat="42.831534" lon="-7.708068">
        <ele>598.001</ele>
        <time>2013-02-15T22:08:30Z</time>
      </trkpt>
      <trkpt lat="42.831542" lon="-7.708261">
        <ele>597.011</ele>
        <time>2013-02-15T22:08:50Z</time>
      </trkpt>
      <trkpt lat="42.831565" lon="-7.708497">
        <ele>597.007</ele>
        <time>2013-02-15T22:09:10Z</time>
      </trkpt>
      <trkpt lat="42.831613" lon="-7.708583">
        <ele>597.048</ele>
        <time>2013-02-15T22:09:30Z</time>
      </trkpt>
      <trkpt lat="42.831715" lon="-7.708776">
        <ele>597.044</ele>
        <time>2013-02-15T22:09:50Z</time>
      </trkpt>
      <trkpt lat="42.831762" lon="-7.708905">
        <ele>597.064</ele>
        <time>2013-02-15T22:10:10Z</time>
      </trkpt>
      <trkpt lat="42.831786" lon="-7.709162">
        <ele>598.067</ele>
        <time>2013-02-15T22:10:30Z</time>
      </trkpt>
      <trkpt lat="42.831856" lon="-7.709366">
        <ele>600.035</ele>
        <time>2013-02-15T22:10:50Z</time>
      </trkpt>
      <trkpt lat="42.831912" lon="-7.709548">
        <ele>600.023</ele>
        <time>2013-02-15T22:11:10Z</time>
      </trkpt>
      <trkpt lat="42.831967" lon="-7.709720">
        <ele>601.060</ele>
        <time>2013-02-15T22:11:30Z</time>
      </trkpt>
      <trkpt lat="42.832100" lon="-7.709913">
        <ele>603.098</ele>
        <time>2013-02-15T22:11:50Z</time>
      </trkpt>
      <trkpt lat="42.832187" lon="-7.710171">
        <ele>603.015</ele>
        <time>2013-02-15T22:12:10Z</time>
      </trkpt>
      <trkpt lat="42.832297" lon="-7.710460">
        <ele>602.026</ele>
        <time>2013-02-15T22:12:30Z</time>
      </trkpt>
      <trkpt lat="42.832431" lon="-7.710664">
        <ele>606.007</ele>
        <time>2013-02-15T22:12:50Z</time>
      </trkpt>
      <trkpt lat="42.832517" lon="-7.710890">
        <ele>605.082</ele>
        <time>2013-02-15T22:13:10Z</time>
      </trkpt>
      <trkpt lat="42.832746" lon="-7.711211">
        <ele>608.028</ele>
        <time>2013-02-15T22:13:30Z</time>
      </trkpt>
      <trkpt lat="42.832816" lon="-7.711372">
        <ele>608.088</ele>
        <time>2013-02-15T22:13:50Z</time>
      </trkpt>
      <trkpt lat="42.833005" lon="-7.711598">
        <ele>611.041</ele>
        <time>2013-02-15T22:14:10Z</time>
      </trkpt>
      <trkpt lat="42.833155" lon="-7.711866">
        <ele>612.049</ele>
        <time>2013-02-15T22:14:30Z</time>
      </trkpt>
      <trkpt lat="42.833288" lon="-7.712123">
        <ele>617.077</ele>
        <time>2013-02-15T22:14:50Z</time>
      </trkpt>
      <trkpt lat="42.833406" lon="-7.712306">
        <ele>617.094</ele>
        <time>2013-02-15T22:15:10Z</time>
      </trkpt>
      <trkpt lat="42.833517" lon="-7.712488">
        <ele>624.032</ele>
        <time>2013-02-15T22:15:30Z</time>
      </trkpt>
      <trkpt lat="42.833635" lon="-7.712713">
        <ele>627.092</ele>
        <time>2013-02-15T22:15:50Z</time>
      </trkpt>
      <trkpt lat="42.833808" lon="-7.713003">
        <ele>636.011</ele>
        <time>2013-02-15T22:16:10Z</time>
      </trkpt>
      <trkpt lat="42.833910" lon="-7.713143">
        <ele>636.007</ele>
        <time>2013-02-15T22:16:30Z</time>
      </trkpt>
      <trkpt lat="42.834028" lon="-7.713336">
        <ele>642.046</ele>
        <time>2013-02-15T22:16:50Z</time>
      </trkpt>
      <trkpt lat="42.834146" lon="-7.713615">
        <ele>642.032</ele>
        <time>2013-02-15T22:17:10Z</time>
      </trkpt>
      <trkpt lat="42.834272" lon="-7.713808">
        <ele>643.022</ele>
        <time>2013-02-15T22:17:30Z</time>
      </trkpt>
      <trkpt lat="42.834437" lon="-7.714151">
        <ele>646.015</ele>
        <time>2013-02-15T22:17:50Z</time>
      </trkpt>
      <trkpt lat="42.834547" lon="-7.714366">
        <ele>647.073</ele>
        <time>2013-02-15T22:18:10Z</time>
      </trkpt>
      <trkpt lat="42.834665" lon="-7.714473">
        <ele>648.061</ele>
        <time>2013-02-15T22:18:30Z</time>
      </trkpt>
      <trkpt lat="42.834909" lon="-7.714945">
        <ele>649.018</ele>
        <time>2013-02-15T22:18:50Z</time>
      </trkpt>
      <trkpt lat="42.835066" lon="-7.715181">
        <ele>650.097</ele>
        <time>2013-02-15T22:19:10Z</time>
      </trkpt>
      <trkpt lat="42.835192" lon="-7.715428">
        <ele>650.023</ele>
        <time>2013-02-15T22:19:30Z</time>
      </trkpt>
      <trkpt lat="42.835271" lon="-7.715653">
        <ele>650.025</ele>
        <time>2013-02-15T22:19:50Z</time>
      </trkpt>
      <trkpt lat="42.835263" lon="-7.715997">
        <ele>652.007</ele>
        <time>2013-02-15T22:20:10Z</time>
      </trkpt>
      <trkpt lat="42.835287" lon="-7.716383">
        <ele>653.062</ele>
        <time>2013-02-15T22:20:30Z</time>
      </trkpt>
      <trkpt lat="42.835287" lon="-7.716587">
        <ele>655.078</ele>
        <time>2013-02-15T22:20:50Z</time>
      </trkpt>
      <trkpt lat="42.835240" lon="-7.717155">
        <ele>661.068</ele>
        <time>2013-02-15T22:21:10Z</time>
      </trkpt>
      <trkpt lat="42.835232" lon="-7.717434">
        <ele>664.021</ele>
        <time>2013-02-15T22:21:30Z</time>
      </trkpt>
      <trkpt lat="42.835279" lon="-7.718035">
        <ele>669.029</ele>
        <time>2013-02-15T22:21:50Z</time>
      </trkpt>
      <trkpt lat="42.835295" lon="-7.718410">
        <ele>671.097</ele>
        <time>2013-02-15T22:22:10Z</time>
      </trkpt>
      <trkpt lat="42.835318" lon="-7.718700">
        <ele>674.034</ele>
        <time>2013-02-15T22:22:30Z</time>
      </trkpt>
      <trkpt lat="42.835303" lon="-7.718904">
        <ele>677.057</ele>
        <time>2013-02-15T22:22:50Z</time>
      </trkpt>
      <trkpt lat="42.835310" lon="-7.719215">
        <ele>680.000</ele>
        <time>2013-02-15T22:23:10Z</time>
      </trkpt>
      <trkpt lat="42.835326" lon="-7.719430">
        <ele>681.020</ele>
        <time>2013-02-15T22:23:30Z</time>
      </trkpt>
      <trkpt lat="42.835334" lon="-7.719569">
        <ele>681.007</ele>
        <time>2013-02-15T22:23:50Z</time>
      </trkpt>
      <trkpt lat="42.835334" lon="-7.719784">
        <ele>681.048</ele>
        <time>2013-02-15T22:24:10Z</time>
      </trkpt>
      <trkpt lat="42.835334" lon="-7.720073">
        <ele>681.034</ele>
        <time>2013-02-15T22:24:30Z</time>
      </trkpt>
      <trkpt lat="42.835334" lon="-7.720213">
        <ele>681.014</ele>
        <time>2013-02-15T22:24:50Z</time>
      </trkpt>
      <trkpt lat="42.835342" lon="-7.720331">
        <ele>681.067</ele>
        <time>2013-02-15T22:25:10Z</time>
      </trkpt>
      <trkpt lat="42.835476" lon="-7.720449">
        <ele>678.085</ele>
        <time>2013-02-15T22:25:30Z</time>
      </trkpt>
      <trkpt lat="42.835483" lon="-7.720664">
        <ele>678.053</ele>
        <time>2013-02-15T22:25:50Z</time>
      </trkpt>
      <trkpt lat="42.835491" lon="-7.720953">
        <ele>678.020</ele>
        <time>2013-02-15T22:26:10Z</time>
      </trkpt>
      <trkpt lat="42.835515" lon="-7.721179">
        <ele>677.043</ele>
        <time>2013-02-15T22:26:30Z</time>
      </trkpt>
      <trkpt lat="42.835531" lon="-7.721522">
        <ele>677.064</ele>
        <time>2013-02-15T22:26:50Z</time>
      </trkpt>
      <trkpt lat="42.835531" lon="-7.721608">
        <ele>676.010</ele>
        <time>2013-02-15T22:27:10Z</time>
      </trkpt>
      <trkpt lat="42.835586" lon="-7.721854">
        <ele>675.007</ele>
        <time>2013-02-15T22:27:30Z</time>
      </trkpt>
      <trkpt lat="42.835657" lon="-7.722230">
        <ele>674.067</ele>
        <time>2013-02-15T22:27:50Z</time>
      </trkpt>
      <trkpt lat="42.835712" lon="-7.722402">
        <ele>675.013</ele>
        <time>2013-02-15T22:28:10Z</time>
      </trkpt>
      <trkpt lat="42.835767" lon="-7.722670">
        <ele>675.033</ele>
        <time>2013-02-15T22:28:30Z</time>
      </trkpt>
      <trkpt lat="42.835830" lon="-7.722938">
        <ele>675.046</ele>
        <time>2013-02-15T22:28:50Z</time>
      </trkpt>
      <trkpt lat="42.835900" lon="-7.723217">
        <ele>675.014</ele>
        <time>2013-02-15T22:29:10Z</time>
      </trkpt>
      <trkpt lat="42.835948" lon="-7.723324">
        <ele>675.032</ele>
        <time>2013-02-15T22:29:30Z</time>
      </trkpt>
      <trkpt lat="42.836011" lon="-7.723485">
        <ele>675.069</ele>
        <time>2013-02-15T22:29:50Z</time>
      </trkpt>
      <trkpt lat="42.836081" lon="-7.723711">
        <ele>675.077</ele>
        <time>2013-02-15T22:30:10Z</time>
      </trkpt>
      <trkpt lat="42.836176" lon="-7.724000">
        <ele>675.061</ele>
        <time>2013-02-15T22:30:30Z</time>
      </trkpt>
      <trkpt lat="42.836231" lon="-7.724183">
        <ele>675.027</ele>
        <time>2013-02-15T22:30:50Z</time>
      </trkpt>
      <trkpt lat="42.836380" lon="-7.724580">
        <ele>673.007</ele>
        <time>2013-02-15T22:31:10Z</time>
      </trkpt>
      <trkpt lat="42.836404" lon="-7.724698">
        <ele>674.010</ele>
        <time>2013-02-15T22:31:30Z</time>
      </trkpt>
      <trkpt lat="42.836467" lon="-7.724912">
        <ele>675.026</ele>
        <time>2013-02-15T22:31:50Z</time>
      </trkpt>
      <trkpt lat="42.836530" lon="-7.725062">
        <ele>675.046</ele>
        <time>2013-02-15T22:32:10Z</time>
      </trkpt>
      <trkpt lat="42.836734" lon="-7.725674">
        <ele>675.019</ele>
        <time>2013-02-15T22:32:30Z</time>
      </trkpt>
      <trkpt lat="42.836978" lon="-7.726543">
        <ele>675.097</ele>
        <time>2013-02-15T22:32:50Z</time>
      </trkpt>
      <trkpt lat="42.837057" lon="-7.726768">
        <ele>675.055</ele>
        <time>2013-02-15T22:33:10Z</time>
      </trkpt>
      <trkpt lat="42.837144" lon="-7.726983">
        <ele>681.032</ele>
        <time>2013-02-15T22:33:30Z</time>
      </trkpt>
      <trkpt lat="42.837254" lon="-7.727262">
        <ele>681.032</ele>
        <time>2013-02-15T22:33:50Z</time>
      </trkpt>
      <trkpt lat="42.837403" lon="-7.727734">
        <ele>684.092</ele>
        <time>2013-02-15T22:34:10Z</time>
      </trkpt>
      <trkpt lat="42.837545" lon="-7.728206">
        <ele>679.011</ele>
        <time>2013-02-15T22:34:30Z</time>
      </trkpt>
      <trkpt lat="42.837623" lon="-7.728356">
        <ele>679.007</ele>
        <time>2013-02-15T22:34:50Z</time>
      </trkpt>
      <trkpt lat="42.837726" lon="-7.728699">
        <ele>681.046</ele>
        <time>2013-02-15T22:35:10Z</time>
      </trkpt>
      <trkpt lat="42.837804" lon="-7.728817">
        <ele>680.082</ele>
        <time>2013-02-15T22:35:30Z</time>
      </trkpt>
      <trkpt lat="42.837852" lon="-7.728968">
        <ele>680.092</ele>
        <time>2013-02-15T22:35:50Z</time>
      </trkpt>
      <trkpt lat="42.837930" lon="-7.729322">
        <ele>681.045</ele>
        <time>2013-02-15T22:36:10Z</time>
      </trkpt>
      <trkpt lat="42.837985" lon="-7.729483">
        <ele>681.043</ele>
        <time>2013-02-15T22:36:30Z</time>
      </trkpt>
      <trkpt lat="42.837970" lon="-7.729665">
        <ele>681.041</ele>
        <time>2013-02-15T22:36:50Z</time>
      </trkpt>
      <trkpt lat="42.838040" lon="-7.729837">
        <ele>681.018</ele>
        <time>2013-02-15T22:37:10Z</time>
      </trkpt>
      <trkpt lat="42.838072" lon="-7.729944">
        <ele>681.089</ele>
        <time>2013-02-15T22:37:30Z</time>
      </trkpt>
      <trkpt lat="42.838182" lon="-7.730169">
        <ele>681.006</ele>
        <time>2013-02-15T22:37:50Z</time>
      </trkpt>
      <trkpt lat="42.838339" lon="-7.730480">
        <ele>681.026</ele>
        <time>2013-02-15T22:38:10Z</time>
      </trkpt>
      <trkpt lat="42.838418" lon="-7.730674">
        <ele>681.007</ele>
        <time>2013-02-15T22:38:30Z</time>
      </trkpt>
      <trkpt lat="42.838520" lon="-7.730899">
        <ele>681.031</ele>
        <time>2013-02-15T22:38:50Z</time>
      </trkpt>
      <trkpt lat="42.838638" lon="-7.731092">
        <ele>680.027</ele>
        <time>2013-02-15T22:39:10Z</time>
      </trkpt>
      <trkpt lat="42.838796" lon="-7.731285">
        <ele>681.047</ele>
        <time>2013-02-15T22:39:30Z</time>
      </trkpt>
      <trkpt lat="42.839024" lon="-7.731489">
        <ele>681.060</ele>
        <time>2013-02-15T22:39:50Z</time>
      </trkpt>
      <trkpt lat="42.839134" lon="-7.731661">
        <ele>681.088</ele>
        <time>2013-02-15T22:40:10Z</time>
      </trkpt>
      <trkpt lat="42.839291" lon="-7.731768">
        <ele>681.066</ele>
        <time>2013-02-15T22:40:30Z</time>
      </trkpt>
      <trkpt lat="42.839378" lon="-7.731843">
        <ele>678.083</ele>
        <time>2013-02-15T22:40:50Z</time>
      </trkpt>
      <trkpt lat="42.839574" lon="-7.732058">
        <ele>678.091</ele>
        <time>2013-02-15T22:41:10Z</time>
      </trkpt>
      <trkpt lat="42.839677" lon="-7.732229">
        <ele>676.081</ele>
        <time>2013-02-15T22:41:30Z</time>
      </trkpt>
      <trkpt lat="42.839779" lon="-7.732390">
        <ele>675.019</ele>
        <time>2013-02-15T22:41:50Z</time>
      </trkpt>
      <trkpt lat="42.839858" lon="-7.732455">
        <ele>675.007</ele>
        <time>2013-02-15T22:42:10Z</time>
      </trkpt>
      <trkpt lat="42.839913" lon="-7.732626">
        <ele>676.092</ele>
        <time>2013-02-15T22:42:30Z</time>
      </trkpt>
      <trkpt lat="42.840015" lon="-7.732819">
        <ele>675.058</ele>
        <time>2013-02-15T22:42:50Z</time>
      </trkpt>
      <trkpt lat="42.840188" lon="-7.733195">
        <ele>676.048</ele>
        <time>2013-02-15T22:43:10Z</time>
      </trkpt>
      <trkpt lat="42.840306" lon="-7.733366">
        <ele>676.041</ele>
        <time>2013-02-15T22:43:30Z</time>
      </trkpt>
      <trkpt lat="42.840401" lon="-7.733538">
        <ele>675.099</ele>
        <time>2013-02-15T22:43:50Z</time>
      </trkpt>
      <trkpt lat="42.840511" lon="-7.733699">
        <ele>678.017</ele>
        <time>2013-02-15T22:44:10Z</time>
      </trkpt>
      <trkpt lat="42.840652" lon="-7.733935">
        <ele>676.064</ele>
        <time>2013-02-15T22:44:30Z</time>
      </trkpt>
      <trkpt lat="42.840747" lon="-7.734010">
        <ele>679.096</ele>
        <time>2013-02-15T22:44:50Z</time>
      </trkpt>
      <trkpt lat="42.840794" lon="-7.734096">
        <ele>678.031</ele>
        <time>2013-02-15T22:45:10Z</time>
      </trkpt>
      <trkpt lat="42.840888" lon="-7.734128">
        <ele>678.024</ele>
        <time>2013-02-15T22:45:30Z</time>
      </trkpt>
      <trkpt lat="42.840975" lon="-7.734268">
        <ele>682.007</ele>
        <time>2013-02-15T22:45:50Z</time>
      </trkpt>
      <trkpt lat="42.841069" lon="-7.734375">
        <ele>682.052</ele>
        <time>2013-02-15T22:46:10Z</time>
      </trkpt>
      <trkpt lat="42.841227" lon="-7.734643">
        <ele>681.038</ele>
        <time>2013-02-15T22:46:30Z</time>
      </trkpt>
      <trkpt lat="42.841525" lon="-7.734718">
        <ele>686.088</ele>
        <time>2013-02-15T22:46:50Z</time>
      </trkpt>
      <trkpt lat="42.841557" lon="-7.734611">
        <ele>691.071</ele>
        <time>2013-02-15T22:47:10Z</time>
      </trkpt>
      <trkpt lat="42.841659" lon="-7.734246">
        <ele>692.099</ele>
        <time>2013-02-15T22:47:30Z</time>
      </trkpt>
      <trkpt lat="42.841714" lon="-7.734085">
        <ele>692.097</ele>
        <time>2013-02-15T22:47:50Z</time>
      </trkpt>
      <trkpt lat="42.841761" lon="-7.733849">
        <ele>691.074</ele>
        <time>2013-02-15T22:48:10Z</time>
      </trkpt>
      <trkpt lat="42.841864" lon="-7.733560">
        <ele>693.053</ele>
        <time>2013-02-15T22:48:30Z</time>
      </trkpt>
      <trkpt lat="42.842068" lon="-7.733699">
        <ele>693.004</ele>
        <time>2013-02-15T22:48:50Z</time>
      </trkpt>
      <trkpt lat="42.842147" lon="-7.733871">
        <ele>697.014</ele>
        <time>2013-02-15T22:49:10Z</time>
      </trkpt>
      <trkpt lat="42.842249" lon="-7.734075">
        <ele>698.007</ele>
        <time>2013-02-15T22:49:30Z</time>
      </trkpt>
      <trkpt lat="42.842430" lon="-7.734396">
        <ele>698.098</ele>
        <time>2013-02-15T22:49:50Z</time>
      </trkpt>
      <trkpt lat="42.842414" lon="-7.734493">
        <ele>698.034</ele>
        <time>2013-02-15T22:50:10Z</time>
      </trkpt>
      <trkpt lat="42.842296" lon="-7.734622">
        <ele>697.044</ele>
        <time>2013-02-15T22:50:30Z</time>
      </trkpt>
      <trkpt lat="42.842249" lon="-7.734729">
        <ele>697.067</ele>
        <time>2013-02-15T22:50:50Z</time>
      </trkpt>
      <trkpt lat="42.842139" lon="-7.734901">
        <ele>696.025</ele>
        <time>2013-02-15T22:51:10Z</time>
      </trkpt>
      <trkpt lat="42.842029" lon="-7.735137">
        <ele>693.073</ele>
        <time>2013-02-15T22:51:30Z</time>
      </trkpt>
      <trkpt lat="42.841950" lon="-7.735298">
        <ele>692.050</ele>
        <time>2013-02-15T22:51:50Z</time>
      </trkpt>
      <trkpt lat="42.841958" lon="-7.735502">
        <ele>690.097</ele>
        <time>2013-02-15T22:52:10Z</time>
      </trkpt>
      <trkpt lat="42.842005" lon="-7.735662">
        <ele>690.023</ele>
        <time>2013-02-15T22:52:30Z</time>
      </trkpt>
      <trkpt lat="42.842053" lon="-7.735866">
        <ele>689.025</ele>
        <time>2013-02-15T22:52:50Z</time>
      </trkpt>
      <trkpt lat="42.842092" lon="-7.736113">
        <ele>688.007</ele>
        <time>2013-02-15T22:53:10Z</time>
      </trkpt>
      <trkpt lat="42.842115" lon="-7.736231">
        <ele>688.072</ele>
        <time>2013-02-15T22:53:30Z</time>
      </trkpt>
      <trkpt lat="42.842131" lon="-7.736285">
        <ele>686.058</ele>
        <time>2013-02-15T22:53:50Z</time>
      </trkpt>
      <trkpt lat="42.842186" lon="-7.736510">
        <ele>686.088</ele>
        <time>2013-02-15T22:54:10Z</time>
      </trkpt>
      <trkpt lat="42.842289" lon="-7.736768">
        <ele>687.011</ele>
        <time>2013-02-15T22:54:30Z</time>
      </trkpt>
      <trkpt lat="42.842359" lon="-7.737004">
        <ele>687.049</ele>
        <time>2013-02-15T22:54:50Z</time>
      </trkpt>
      <trkpt lat="42.842399" lon="-7.737122">
        <ele>691.087</ele>
        <time>2013-02-15T22:55:10Z</time>
      </trkpt>
      <trkpt lat="42.842454" lon="-7.737283">
        <ele>691.024</ele>
        <time>2013-02-15T22:55:30Z</time>
      </trkpt>
      <trkpt lat="42.842493" lon="-7.737411">
        <ele>692.093</ele>
        <time>2013-02-15T22:55:50Z</time>
      </trkpt>
      <trkpt lat="42.842564" lon="-7.738001">
        <ele>693.065</ele>
        <time>2013-02-15T22:56:10Z</time>
      </trkpt>
      <trkpt lat="42.842572" lon="-7.738194">
        <ele>694.021</ele>
        <time>2013-02-15T22:56:30Z</time>
      </trkpt>
      <trkpt lat="42.842635" lon="-7.738431">
        <ele>694.007</ele>
        <time>2013-02-15T22:56:50Z</time>
      </trkpt>
      <trkpt lat="42.842635" lon="-7.738785">
        <ele>694.062</ele>
        <time>2013-02-15T22:57:10Z</time>
      </trkpt>
      <trkpt lat="42.842674" lon="-7.739149">
        <ele>698.048</ele>
        <time>2013-02-15T22:57:30Z</time>
      </trkpt>
      <trkpt lat="42.842690" lon="-7.739353">
        <ele>700.028</ele>
        <time>2013-02-15T22:57:50Z</time>
      </trkpt>
      <trkpt lat="42.842713" lon="-7.739654">
        <ele>702.051</ele>
        <time>2013-02-15T22:58:10Z</time>
      </trkpt>
      <trkpt lat="42.842737" lon="-7.739986">
        <ele>703.089</ele>
        <time>2013-02-15T22:58:30Z</time>
      </trkpt>
      <trkpt lat="42.842745" lon="-7.740115">
        <ele>703.027</ele>
        <time>2013-02-15T22:58:50Z</time>
      </trkpt>
      <trkpt lat="42.842784" lon="-7.740684">
        <ele>705.014</ele>
        <time>2013-02-15T22:59:10Z</time>
      </trkpt>
      <trkpt lat="42.842800" lon="-7.740866">
        <ele>705.022</ele>
        <time>2013-02-15T22:59:30Z</time>
      </trkpt>
      <trkpt lat="42.842863" lon="-7.741134">
        <ele>705.062</ele>
        <time>2013-02-15T22:59:50Z</time>
      </trkpt>
      <trkpt lat="42.843044" lon="-7.741542">
        <ele>706.008</ele>
        <time>2013-02-15T23:00:10Z</time>
      </trkpt>
      <trkpt lat="42.843146" lon="-7.741789">
        <ele>706.007</ele>
        <time>2013-02-15T23:00:30Z</time>
      </trkpt>
      <trkpt lat="42.843185" lon="-7.742057">
        <ele>705.085</ele>
        <time>2013-02-15T23:00:50Z</time>
      </trkpt>
      <trkpt lat="42.843233" lon="-7.742518">
        <ele>704.021</ele>
        <time>2013-02-15T23:01:10Z</time>
      </trkpt>
      <trkpt lat="42.843248" lon="-7.742797">
        <ele>704.071</ele>
        <time>2013-02-15T23:01:30Z</time>
      </trkpt>
      <trkpt lat="42.843295" lon="-7.743495">
        <ele>705.084</ele>
        <time>2013-02-15T23:01:50Z</time>
      </trkpt>
      <trkpt lat="42.843311" lon="-7.743655">
        <ele>705.082</ele>
        <time>2013-02-15T23:02:10Z</time>
      </trkpt>
      <trkpt lat="42.843319" lon="-7.743945">
        <ele>706.090</ele>
        <time>2013-02-15T23:02:30Z</time>
      </trkpt>
      <trkpt lat="42.843335" lon="-7.744406">
        <ele>704.087</ele>
        <time>2013-02-15T23:02:50Z</time>
      </trkpt>
      <trkpt lat="42.843366" lon="-7.744814">
        <ele>703.017</ele>
        <time>2013-02-15T23:03:10Z</time>
      </trkpt>
      <trkpt lat="42.843437" lon="-7.745190">
        <ele>699.087</ele>
        <time>2013-02-15T23:03:30Z</time>
      </trkpt>
      <trkpt lat="42.843484" lon="-7.745501">
        <ele>701.015</ele>
        <time>2013-02-15T23:03:50Z</time>
      </trkpt>
      <trkpt lat="42.843508" lon="-7.745801">
        <ele>701.007</ele>
        <time>2013-02-15T23:04:10Z</time>
      </trkpt>
      <trkpt lat="42.843555" lon="-7.746059">
        <ele>701.094</ele>
        <time>2013-02-15T23:04:30Z</time>
      </trkpt>
      <trkpt lat="42.843634" lon="-7.746338">
        <ele>702.040</ele>
        <time>2013-02-15T23:04:50Z</time>
      </trkpt>
      <trkpt lat="42.843705" lon="-7.746627">
        <ele>701.060</ele>
        <time>2013-02-15T23:05:10Z</time>
      </trkpt>
      <trkpt lat="42.843775" lon="-7.746885">
        <ele>703.053</ele>
        <time>2013-02-15T23:05:30Z</time>
      </trkpt>
      <trkpt lat="42.843933" lon="-7.747121">
        <ele>702.081</ele>
        <time>2013-02-15T23:05:50Z</time>
      </trkpt>
      <trkpt lat="42.844153" lon="-7.747582">
        <ele>705.059</ele>
        <time>2013-02-15T23:06:10Z</time>
      </trkpt>
      <trkpt lat="42.844169" lon="-7.747689">
        <ele>705.066</ele>
        <time>2013-02-15T23:06:30Z</time>
      </trkpt>
      <trkpt lat="42.844208" lon="-7.747818">
        <ele>705.085</ele>
        <time>2013-02-15T23:06:50Z</time>
      </trkpt>
      <trkpt lat="42.844263" lon="-7.747968">
        <ele>706.089</ele>
        <time>2013-02-15T23:07:10Z</time>
      </trkpt>
      <trkpt lat="42.844279" lon="-7.748129">
        <ele>706.017</ele>
        <time>2013-02-15T23:07:30Z</time>
      </trkpt>
      <trkpt lat="42.844295" lon="-7.748204">
        <ele>706.007</ele>
        <time>2013-02-15T23:07:50Z</time>
      </trkpt>
      <trkpt lat="42.844247" lon="-7.748419">
        <ele>706.031</ele>
        <time>2013-02-15T23:08:10Z</time>
      </trkpt>
      <trkpt lat="42.844247" lon="-7.748537">
        <ele>706.097</ele>
        <time>2013-02-15T23:08:30Z</time>
      </trkpt>
      <trkpt lat="42.844247" lon="-7.748859">
        <ele>706.047</ele>
        <time>2013-02-15T23:08:50Z</time>
      </trkpt>
      <trkpt lat="42.844357" lon="-7.749224">
        <ele>705.070</ele>
        <time>2013-02-15T23:09:10Z</time>
      </trkpt>
      <trkpt lat="42.844468" lon="-7.749449">
        <ele>704.048</ele>
        <time>2013-02-15T23:09:30Z</time>
      </trkpt>
      <trkpt lat="42.844515" lon="-7.749642">
        <ele>703.086</ele>
        <time>2013-02-15T23:09:50Z</time>
      </trkpt>
      <trkpt lat="42.844570" lon="-7.749835">
        <ele>703.093</ele>
        <time>2013-02-15T23:10:10Z</time>
      </trkpt>
      <trkpt lat="42.844672" lon="-7.750071">
        <ele>701.084</ele>
        <time>2013-02-15T23:10:30Z</time>
      </trkpt>
      <trkpt lat="42.844680" lon="-7.750211">
        <ele>701.007</ele>
        <time>2013-02-15T23:10:50Z</time>
      </trkpt>
      <trkpt lat="42.844751" lon="-7.750361">
        <ele>701.017</ele>
        <time>2013-02-15T23:11:10Z</time>
      </trkpt>
      <trkpt lat="42.844853" lon="-7.750597">
        <ele>702.007</ele>
        <time>2013-02-15T23:11:30Z</time>
      </trkpt>
      <trkpt lat="42.844877" lon="-7.750683">
        <ele>700.031</ele>
        <time>2013-02-15T23:11:50Z</time>
      </trkpt>
      <trkpt lat="42.844924" lon="-7.750876">
        <ele>702.027</ele>
        <time>2013-02-15T23:12:10Z</time>
      </trkpt>
      <trkpt lat="42.844979" lon="-7.751015">
        <ele>705.087</ele>
        <time>2013-02-15T23:12:30Z</time>
      </trkpt>
      <trkpt lat="42.845026" lon="-7.751187">
        <ele>705.010</ele>
        <time>2013-02-15T23:12:50Z</time>
      </trkpt>
      <trkpt lat="42.845065" lon="-7.751348">
        <ele>709.068</ele>
        <time>2013-02-15T23:13:10Z</time>
      </trkpt>
      <trkpt lat="42.845105" lon="-7.751520">
        <ele>709.086</ele>
        <time>2013-02-15T23:13:30Z</time>
      </trkpt>
      <trkpt lat="42.845136" lon="-7.751681">
        <ele>714.083</ele>
        <time>2013-02-15T23:13:50Z</time>
      </trkpt>
      <trkpt lat="42.845191" lon="-7.751917">
        <ele>715.034</ele>
        <time>2013-02-15T23:14:10Z</time>
      </trkpt>
      <trkpt lat="42.845254" lon="-7.752131">
        <ele>716.055</ele>
        <time>2013-02-15T23:14:30Z</time>
      </trkpt>
      <trkpt lat="42.845325" lon="-7.752399">
        <ele>716.010</ele>
        <time>2013-02-15T23:14:50Z</time>
      </trkpt>
      <trkpt lat="42.845364" lon="-7.752528">
        <ele>716.007</ele>
        <time>2013-02-15T23:15:10Z</time>
      </trkpt>
      <trkpt lat="42.845435" lon="-7.752786">
        <ele>716.046</ele>
        <time>2013-02-15T23:15:30Z</time>
      </trkpt>
      <trkpt lat="42.845451" lon="-7.752957">
        <ele>716.042</ele>
        <time>2013-02-15T23:15:50Z</time>
      </trkpt>
      <trkpt lat="42.845467" lon="-7.753183">
        <ele>716.042</ele>
        <time>2013-02-15T23:16:10Z</time>
      </trkpt>
      <trkpt lat="42.845474" lon="-7.753408">
        <ele>717.075</ele>
        <time>2013-02-15T23:16:30Z</time>
      </trkpt>
      <trkpt lat="42.845474" lon="-7.753955">
        <ele>714.093</ele>
        <time>2013-02-15T23:16:50Z</time>
      </trkpt>
      <trkpt lat="42.845474" lon="-7.754041">
        <ele>714.011</ele>
        <time>2013-02-15T23:17:10Z</time>
      </trkpt>
      <trkpt lat="42.845498" lon="-7.754352">
        <ele>715.058</ele>
        <time>2013-02-15T23:17:30Z</time>
      </trkpt>
      <trkpt lat="42.845561" lon="-7.754620">
        <ele>716.044</ele>
        <time>2013-02-15T23:17:50Z</time>
      </trkpt>
      <trkpt lat="42.845632" lon="-7.754856">
        <ele>716.005</ele>
        <time>2013-02-15T23:18:10Z</time>
      </trkpt>
      <trkpt lat="42.845687" lon="-7.755125">
        <ele>717.015</ele>
        <time>2013-02-15T23:18:30Z</time>
      </trkpt>
      <trkpt lat="42.845726" lon="-7.755339">
        <ele>715.007</ele>
        <time>2013-02-15T23:18:50Z</time>
      </trkpt>
      <trkpt lat="42.845773" lon="-7.755597">
        <ele>718.097</ele>
        <time>2013-02-15T23:19:10Z</time>
      </trkpt>
      <trkpt lat="42.845828" lon="-7.755715">
        <ele>721.023</ele>
        <time>2013-02-15T23:19:30Z</time>
      </trkpt>
      <trkpt lat="42.845907" lon="-7.755929">
        <ele>721.023</ele>
        <time>2013-02-15T23:19:50Z</time>
      </trkpt>
      <trkpt lat="42.846009" lon="-7.756112">
        <ele>720.086</ele>
        <time>2013-02-15T23:20:10Z</time>
      </trkpt>
      <trkpt lat="42.846143" lon="-7.756358">
        <ele>722.014</ele>
        <time>2013-02-15T23:20:30Z</time>
      </trkpt>
      <trkpt lat="42.846285" lon="-7.756498">
        <ele>720.082</ele>
        <time>2013-02-15T23:20:50Z</time>
      </trkpt>
      <trkpt lat="42.846411" lon="-7.756616">
        <ele>721.039</ele>
        <time>2013-02-15T23:21:10Z</time>
      </trkpt>
      <trkpt lat="42.846591" lon="-7.756906">
        <ele>720.027</ele>
        <time>2013-02-15T23:21:30Z</time>
      </trkpt>
      <trkpt lat="42.846969" lon="-7.757270">
        <ele>719.068</ele>
        <time>2013-02-15T23:21:50Z</time>
      </trkpt>
      <trkpt lat="42.847118" lon="-7.757378">
        <ele>719.014</ele>
        <time>2013-02-15T23:22:10Z</time>
      </trkpt>
      <trkpt lat="42.847229" lon="-7.757463">
        <ele>719.007</ele>
        <time>2013-02-15T23:22:30Z</time>
      </trkpt>
      <trkpt lat="42.847433" lon="-7.757603">
        <ele>720.055</ele>
        <time>2013-02-15T23:22:50Z</time>
      </trkpt>
      <trkpt lat="42.847638" lon="-7.757818">
        <ele>721.071</ele>
        <time>2013-02-15T23:23:10Z</time>
      </trkpt>
      <trkpt lat="42.847771" lon="-7.757925">
        <ele>725.071</ele>
        <time>2013-02-15T23:23:30Z</time>
      </trkpt>
      <trkpt lat="42.847944" lon="-7.758064">
        <ele>724.094</ele>
        <time>2013-02-15T23:23:50Z</time>
      </trkpt>
      <trkpt lat="42.848165" lon="-7.758311">
        <ele>725.072</ele>
        <time>2013-02-15T23:24:10Z</time>
      </trkpt>
      <trkpt lat="42.848298" lon="-7.758601">
        <ele>724.020</ele>
        <time>2013-02-15T23:24:30Z</time>
      </trkpt>
      <trkpt lat="42.848566" lon="-7.758837">
        <ele>723.027</ele>
        <time>2013-02-15T23:24:50Z</time>
      </trkpt>
      <trkpt lat="42.848644" lon="-7.758998">
        <ele>723.015</ele>
        <time>2013-02-15T23:25:10Z</time>
      </trkpt>
      <trkpt lat="42.848762" lon="-7.759244">
        <ele>720.065</ele>
        <time>2013-02-15T23:25:30Z</time>
      </trkpt>
      <trkpt lat="42.849014" lon="-7.759491">
        <ele>719.011</ele>
        <time>2013-02-15T23:25:50Z</time>
      </trkpt>
      <trkpt lat="42.849164" lon="-7.759663">
        <ele>715.007</ele>
        <time>2013-02-15T23:26:10Z</time>
      </trkpt>
      <trkpt lat="42.849352" lon="-7.759953">
        <ele>713.024</ele>
        <time>2013-02-15T23:26:30Z</time>
      </trkpt>
      <trkpt lat="42.849478" lon="-7.760124">
        <ele>713.070</ele>
        <time>2013-02-15T23:26:50Z</time>
      </trkpt>
      <trkpt lat="42.849604" lon="-7.760392">
        <ele>713.050</ele>
        <time>2013-02-15T23:27:10Z</time>
      </trkpt>
      <trkpt lat="42.849683" lon="-7.760596">
        <ele>713.043</ele>
        <time>2013-02-15T23:27:30Z</time>
      </trkpt>
      <trkpt lat="42.849793" lon="-7.760897">
        <ele>711.011</ele>
        <time>2013-02-15T23:27:50Z</time>
      </trkpt>
      <trkpt lat="42.849840" lon="-7.761079">
        <ele>709.039</ele>
        <time>2013-02-15T23:28:10Z</time>
      </trkpt>
      <trkpt lat="42.849974" lon="-7.761583">
        <ele>705.046</ele>
        <time>2013-02-15T23:28:30Z</time>
      </trkpt>
      <trkpt lat="42.850320" lon="-7.762506">
        <ele>702.015</ele>
        <time>2013-02-15T23:28:50Z</time>
      </trkpt>
      <trkpt lat="42.850430" lon="-7.762678">
        <ele>702.065</ele>
        <time>2013-02-15T23:29:10Z</time>
      </trkpt>
      <trkpt lat="42.850540" lon="-7.762892">
        <ele>702.011</ele>
        <time>2013-02-15T23:29:30Z</time>
      </trkpt>
      <trkpt lat="42.850587" lon="-7.763150">
        <ele>701.007</ele>
        <time>2013-02-15T23:29:50Z</time>
      </trkpt>
      <trkpt lat="42.850682" lon="-7.763397">
        <ele>700.074</ele>
        <time>2013-02-15T23:30:10Z</time>
      </trkpt>
      <trkpt lat="42.850815" lon="-7.763783">
        <ele>699.030</ele>
        <time>2013-02-15T23:30:30Z</time>
      </trkpt>
      <trkpt lat="42.850973" lon="-7.764255">
        <ele>698.010</ele>
        <time>2013-02-15T23:30:50Z</time>
      </trkpt>
      <trkpt lat="42.851051" lon="-7.764738">
        <ele>695.013</ele>
        <time>2013-02-15T23:31:10Z</time>
      </trkpt>
      <trkpt lat="42.851154" lon="-7.765070">
        <ele>694.021</ele>
        <time>2013-02-15T23:31:30Z</time>
      </trkpt>
      <trkpt lat="42.851264" lon="-7.765499">
        <ele>691.059</ele>
        <time>2013-02-15T23:31:50Z</time>
      </trkpt>
      <trkpt lat="42.851374" lon="-7.766014">
        <ele>686.016</ele>
        <time>2013-02-15T23:32:10Z</time>
      </trkpt>
      <trkpt lat="42.851523" lon="-7.766594">
        <ele>680.039</ele>
        <time>2013-02-15T23:32:30Z</time>
      </trkpt>
      <trkpt lat="42.851563" lon="-7.766894">
        <ele>678.001</ele>
        <time>2013-02-15T23:32:50Z</time>
      </trkpt>
      <trkpt lat="42.851665" lon="-7.767280">
        <ele>676.021</ele>
        <time>2013-02-15T23:33:10Z</time>
      </trkpt>
      <trkpt lat="42.851712" lon="-7.767634">
        <ele>674.007</ele>
        <time>2013-02-15T23:33:30Z</time>
      </trkpt>
      <trkpt lat="42.851814" lon="-7.767881">
        <ele>674.086</ele>
        <time>2013-02-15T23:33:50Z</time>
      </trkpt>
      <trkpt lat="42.851932" lon="-7.768182">
        <ele>672.062</ele>
        <time>2013-02-15T23:34:10Z</time>
      </trkpt>
      <trkpt lat="42.851956" lon="-7.768385">
        <ele>669.042</ele>
        <time>2013-02-15T23:34:30Z</time>
      </trkpt>
      <trkpt lat="42.852050" lon="-7.768600">
        <ele>667.025</ele>
        <time>2013-02-15T23:34:50Z</time>
      </trkpt>
      <trkpt lat="42.852137" lon="-7.768804">
        <ele>667.013</ele>
        <time>2013-02-15T23:35:10Z</time>
      </trkpt>
      <trkpt lat="42.852200" lon="-7.768975">
        <ele>667.031</ele>
        <time>2013-02-15T23:35:30Z</time>
      </trkpt>
      <trkpt lat="42.852271" lon="-7.769233">
        <ele>664.048</ele>
        <time>2013-02-15T23:35:50Z</time>
      </trkpt>
      <trkpt lat="42.852349" lon="-7.769394">
        <ele>662.015</ele>
        <time>2013-02-15T23:36:10Z</time>
      </trkpt>
      <trkpt lat="42.852436" lon="-7.769673">
        <ele>663.065</ele>
        <time>2013-02-15T23:36:30Z</time>
      </trkpt>
      <trkpt lat="42.852483" lon="-7.769834">
        <ele>663.011</ele>
        <time>2013-02-15T23:36:50Z</time>
      </trkpt>
      <trkpt lat="42.852522" lon="-7.770005">
        <ele>661.007</ele>
        <time>2013-02-15T23:37:10Z</time>
      </trkpt>
      <trkpt lat="42.852546" lon="-7.770241">
        <ele>659.094</ele>
        <time>2013-02-15T23:37:30Z</time>
      </trkpt>
      <trkpt lat="42.852538" lon="-7.770542">
        <ele>657.080</ele>
        <time>2013-02-15T23:37:50Z</time>
      </trkpt>
      <trkpt lat="42.852569" lon="-7.770853">
        <ele>657.050</ele>
        <time>2013-02-15T23:38:10Z</time>
      </trkpt>
      <trkpt lat="42.852554" lon="-7.771314">
        <ele>656.013</ele>
        <time>2013-02-15T23:38:30Z</time>
      </trkpt>
      <trkpt lat="42.852546" lon="-7.771486">
        <ele>656.021</ele>
        <time>2013-02-15T23:38:50Z</time>
      </trkpt>
      <trkpt lat="42.852546" lon="-7.771840">
        <ele>654.049</ele>
        <time>2013-02-15T23:39:10Z</time>
      </trkpt>
      <trkpt lat="42.852546" lon="-7.772173">
        <ele>652.066</ele>
        <time>2013-02-15T23:39:30Z</time>
      </trkpt>
      <trkpt lat="42.852617" lon="-7.772430">
        <ele>649.095</ele>
        <time>2013-02-15T23:39:50Z</time>
      </trkpt>
      <trkpt lat="42.852680" lon="-7.772580">
        <ele>649.049</ele>
        <time>2013-02-15T23:40:10Z</time>
      </trkpt>
      <trkpt lat="42.852774" lon="-7.772720">
        <ele>646.023</ele>
        <time>2013-02-15T23:40:30Z</time>
      </trkpt>
      <trkpt lat="42.852939" lon="-7.772924">
        <ele>644.007</ele>
        <time>2013-02-15T23:40:50Z</time>
      </trkpt>
      <trkpt lat="42.853104" lon="-7.773203">
        <ele>643.042</ele>
        <time>2013-02-15T23:41:10Z</time>
      </trkpt>
      <trkpt lat="42.853214" lon="-7.773374">
        <ele>643.088</ele>
        <time>2013-02-15T23:41:30Z</time>
      </trkpt>
      <trkpt lat="42.853702" lon="-7.773900">
        <ele>640.058</ele>
        <time>2013-02-15T23:41:50Z</time>
      </trkpt>
      <trkpt lat="42.853867" lon="-7.774168">
        <ele>640.061</ele>
        <time>2013-02-15T23:42:10Z</time>
      </trkpt>
      <trkpt lat="42.854009" lon="-7.774372">
        <ele>639.079</ele>
        <time>2013-02-15T23:42:30Z</time>
      </trkpt>
      <trkpt lat="42.854158" lon="-7.774705">
        <ele>640.077</ele>
        <time>2013-02-15T23:42:50Z</time>
      </trkpt>
      <trkpt lat="42.854253" lon="-7.774855">
        <ele>640.094</ele>
        <time>2013-02-15T23:43:10Z</time>
      </trkpt>
      <trkpt lat="42.854378" lon="-7.775112">
        <ele>642.064</ele>
        <time>2013-02-15T23:43:30Z</time>
      </trkpt>
      <trkpt lat="42.854504" lon="-7.775316">
        <ele>640.006</ele>
        <time>2013-02-15T23:43:50Z</time>
      </trkpt>
      <trkpt lat="42.854591" lon="-7.775531">
        <ele>640.016</ele>
        <time>2013-02-15T23:44:10Z</time>
      </trkpt>
      <trkpt lat="42.854654" lon="-7.775627">
        <ele>640.007</ele>
        <time>2013-02-15T23:44:30Z</time>
      </trkpt>
      <trkpt lat="42.854772" lon="-7.775885">
        <ele>638.049</ele>
        <time>2013-02-15T23:44:50Z</time>
      </trkpt>
      <trkpt lat="42.854890" lon="-7.776099">
        <ele>638.015</ele>
        <time>2013-02-15T23:45:10Z</time>
      </trkpt>
      <trkpt lat="42.854968" lon="-7.776325">
        <ele>639.025</ele>
        <time>2013-02-15T23:45:30Z</time>
      </trkpt>
      <trkpt lat="42.855071" lon="-7.776668">
        <ele>638.058</ele>
        <time>2013-02-15T23:45:50Z</time>
      </trkpt>
      <trkpt lat="42.855110" lon="-7.776947">
        <ele>637.096</ele>
        <time>2013-02-15T23:46:10Z</time>
      </trkpt>
      <trkpt lat="42.855204" lon="-7.777194">
        <ele>634.094</ele>
        <time>2013-02-15T23:46:30Z</time>
      </trkpt>
      <trkpt lat="42.855307" lon="-7.777365">
        <ele>631.011</ele>
        <time>2013-02-15T23:46:50Z</time>
      </trkpt>
      <trkpt lat="42.855778" lon="-7.777741">
        <ele>629.072</ele>
        <time>2013-02-15T23:47:10Z</time>
      </trkpt>
      <trkpt lat="42.856109" lon="-7.777816">
        <ele>628.013</ele>
        <time>2013-02-15T23:47:30Z</time>
      </trkpt>
      <trkpt lat="42.856439" lon="-7.778009">
        <ele>626.014</ele>
        <time>2013-02-15T23:47:50Z</time>
      </trkpt>
      <trkpt lat="42.856738" lon="-7.778342">
        <ele>625.007</ele>
        <time>2013-02-15T23:48:10Z</time>
      </trkpt>
      <trkpt lat="42.857045" lon="-7.778524">
        <ele>623.020</ele>
        <time>2013-02-15T23:48:30Z</time>
      </trkpt>
      <trkpt lat="42.857438" lon="-7.778889">
        <ele>624.046</ele>
        <time>2013-02-15T23:48:50Z</time>
      </trkpt>
      <trkpt lat="42.857579" lon="-7.779050">
        <ele>623.066</ele>
        <time>2013-02-15T23:49:10Z</time>
      </trkpt>
      <trkpt lat="42.857941" lon="-7.779168">
        <ele>625.069</ele>
        <time>2013-02-15T23:49:30Z</time>
      </trkpt>
      <trkpt lat="42.858169" lon="-7.779286">
        <ele>625.017</ele>
        <time>2013-02-15T23:49:50Z</time>
      </trkpt>
      <trkpt lat="42.858397" lon="-7.779425">
        <ele>625.025</ele>
        <time>2013-02-15T23:50:10Z</time>
      </trkpt>
      <trkpt lat="42.858570" lon="-7.779576">
        <ele>626.092</ele>
        <time>2013-02-15T23:50:30Z</time>
      </trkpt>
      <trkpt lat="42.858743" lon="-7.779747">
        <ele>625.079</ele>
        <time>2013-02-15T23:50:50Z</time>
      </trkpt>
      <trkpt lat="42.859082" lon="-7.780133">
        <ele>628.005</ele>
        <time>2013-02-15T23:51:10Z</time>
      </trkpt>
      <trkpt lat="42.859255" lon="-7.780391">
        <ele>626.025</ele>
        <time>2013-02-15T23:51:30Z</time>
      </trkpt>
      <trkpt lat="42.859357" lon="-7.780552">
        <ele>624.007</ele>
        <time>2013-02-15T23:51:50Z</time>
      </trkpt>
      <trkpt lat="42.859593" lon="-7.780885">
        <ele>623.080</ele>
        <time>2013-02-15T23:52:10Z</time>
      </trkpt>
      <trkpt lat="42.859703" lon="-7.781110">
        <ele>622.046</ele>
        <time>2013-02-15T23:52:30Z</time>
      </trkpt>
      <trkpt lat="42.859884" lon="-7.781292">
        <ele>620.046</ele>
        <time>2013-02-15T23:52:50Z</time>
      </trkpt>
      <trkpt lat="42.860104" lon="-7.781496">
        <ele>620.039</ele>
        <time>2013-02-15T23:53:10Z</time>
      </trkpt>
      <trkpt lat="42.860442" lon="-7.781603">
        <ele>616.077</ele>
        <time>2013-02-15T23:53:30Z</time>
      </trkpt>
      <trkpt lat="42.860615" lon="-7.781818">
        <ele>614.085</ele>
        <time>2013-02-15T23:53:50Z</time>
      </trkpt>
      <trkpt lat="42.860859" lon="-7.782032">
        <ele>614.022</ele>
        <time>2013-02-15T23:54:10Z</time>
      </trkpt>
      <trkpt lat="42.861244" lon="-7.782472">
        <ele>608.027</ele>
        <time>2013-02-15T23:54:30Z</time>
      </trkpt>
      <trkpt lat="42.861425" lon="-7.782623">
        <ele>609.068</ele>
        <time>2013-02-15T23:54:50Z</time>
      </trkpt>
      <trkpt lat="42.861433" lon="-7.782724">
        <ele>606.014</ele>
        <time>2013-02-15T23:55:10Z</time>
      </trkpt>
      <trkpt lat="42.861456" lon="-7.782853">
        <ele>606.007</ele>
        <time>2013-02-15T23:55:30Z</time>
      </trkpt>
      <trkpt lat="42.861594" lon="-7.783046">
        <ele>605.025</ele>
        <time>2013-02-15T23:55:50Z</time>
      </trkpt>
      <trkpt lat="42.861747" lon="-7.783180">
        <ele>605.091</ele>
        <time>2013-02-15T23:56:10Z</time>
      </trkpt>
      <trkpt lat="42.861901" lon="-7.783288">
        <ele>604.041</ele>
        <time>2013-02-15T23:56:30Z</time>
      </trkpt>
      <trkpt lat="42.862180" lon="-7.783422">
        <ele>605.074</ele>
        <time>2013-02-15T23:56:50Z</time>
      </trkpt>
      <trkpt lat="42.862329" lon="-7.783840">
        <ele>604.032</ele>
        <time>2013-02-15T23:57:10Z</time>
      </trkpt>
      <trkpt lat="42.862373" lon="-7.783964">
        <ele>604.030</ele>
        <time>2013-02-15T23:57:30Z</time>
      </trkpt>
      <trkpt lat="42.862420" lon="-7.784184">
        <ele>605.077</ele>
        <time>2013-02-15T23:57:50Z</time>
      </trkpt>
      <trkpt lat="42.862491" lon="-7.784355">
        <ele>606.087</ele>
        <time>2013-02-15T23:58:10Z</time>
      </trkpt>
      <trkpt lat="42.862597" lon="-7.784650">
        <ele>607.042</ele>
        <time>2013-02-15T23:58:30Z</time>
      </trkpt>
      <trkpt lat="42.862640" lon="-7.784779">
        <ele>608.026</ele>
        <time>2013-02-15T23:58:50Z</time>
      </trkpt>
      <trkpt lat="42.862707" lon="-7.784961">
        <ele>609.007</ele>
        <time>2013-02-15T23:59:10Z</time>
      </trkpt>
      <trkpt lat="42.863211" lon="-7.785230">
        <ele>613.081</ele>
        <time>2013-02-15T23:59:30Z</time>
      </trkpt>
      <trkpt lat="42.863683" lon="-7.785466">
        <ele>615.097</ele>
        <time>2013-02-15T23:59:50Z</time>
      </trkpt>
      <trkpt lat="42.863981" lon="-7.785852">
        <ele>617.087</ele>
        <time>2013-02-16T00:00:10Z</time>
      </trkpt>
      <trkpt lat="42.864249" lon="-7.786217">
        <ele>620.070</ele>
        <time>2013-02-16T00:00:30Z</time>
      </trkpt>
      <trkpt lat="42.864453" lon="-7.786453">
        <ele>623.018</ele>
        <time>2013-02-16T00:00:50Z</time>
      </trkpt>
      <trkpt lat="42.864705" lon="-7.786689">
        <ele>627.096</ele>
        <time>2013-02-16T00:01:10Z</time>
      </trkpt>
      <trkpt lat="42.865051" lon="-7.786925">
        <ele>628.013</ele>
        <time>2013-02-16T00:01:30Z</time>
      </trkpt>
      <trkpt lat="42.865413" lon="-7.787225">
        <ele>629.029</ele>
        <time>2013-02-16T00:01:50Z</time>
      </trkpt>
      <trkpt lat="42.865523" lon="-7.787483">
        <ele>629.000</ele>
        <time>2013-02-16T00:02:10Z</time>
      </trkpt>
      <trkpt lat="42.865570" lon="-7.788212">
        <ele>627.020</ele>
        <time>2013-02-16T00:02:30Z</time>
      </trkpt>
      <trkpt lat="42.865633" lon="-7.788534">
        <ele>627.007</ele>
        <time>2013-02-16T00:02:50Z</time>
      </trkpt>
      <trkpt lat="42.865649" lon="-7.789350">
        <ele>631.015</ele>
        <time>2013-02-16T00:03:10Z</time>
      </trkpt>
      <trkpt lat="42.865601" lon="-7.790101">
        <ele>630.071</ele>
        <time>2013-02-16T00:03:30Z</time>
      </trkpt>
      <trkpt lat="42.865617" lon="-7.790508">
        <ele>627.051</ele>
        <time>2013-02-16T00:03:50Z</time>
      </trkpt>
      <trkpt lat="42.865759" lon="-7.790980">
        <ele>626.074</ele>
        <time>2013-02-16T00:04:10Z</time>
      </trkpt>
      <trkpt lat="42.865932" lon="-7.791388">
        <ele>625.032</ele>
        <time>2013-02-16T00:04:30Z</time>
      </trkpt>
      <trkpt lat="42.866010" lon="-7.791624">
        <ele>625.070</ele>
        <time>2013-02-16T00:04:50Z</time>
      </trkpt>
      <trkpt lat="42.866042" lon="-7.791903">
        <ele>625.097</ele>
        <time>2013-02-16T00:05:10Z</time>
      </trkpt>
      <trkpt lat="42.866073" lon="-7.792439">
        <ele>626.033</ele>
        <time>2013-02-16T00:05:30Z</time>
      </trkpt>
      <trkpt lat="42.866089" lon="-7.792847">
        <ele>626.023</ele>
        <time>2013-02-16T00:05:50Z</time>
      </trkpt>
      <trkpt lat="42.866183" lon="-7.793212">
        <ele>628.015</ele>
        <time>2013-02-16T00:06:10Z</time>
      </trkpt>
      <trkpt lat="42.866293" lon="-7.793641">
        <ele>632.007</ele>
        <time>2013-02-16T00:06:30Z</time>
      </trkpt>
      <trkpt lat="42.866451" lon="-7.793899">
        <ele>634.036</ele>
        <time>2013-02-16T00:06:50Z</time>
      </trkpt>
      <trkpt lat="42.866639" lon="-7.794328">
        <ele>638.072</ele>
        <time>2013-02-16T00:07:10Z</time>
      </trkpt>
      <trkpt lat="42.866938" lon="-7.795014">
        <ele>640.042</ele>
        <time>2013-02-16T00:07:30Z</time>
      </trkpt>
      <trkpt lat="42.867080" lon="-7.795293">
        <ele>641.035</ele>
        <time>2013-02-16T00:07:50Z</time>
      </trkpt>
      <trkpt lat="42.867284" lon="-7.795722">
        <ele>645.073</ele>
        <time>2013-02-16T00:08:10Z</time>
      </trkpt>
      <trkpt lat="42.867426" lon="-7.795959">
        <ele>645.071</ele>
        <time>2013-02-16T00:08:30Z</time>
      </trkpt>
      <trkpt lat="42.867536" lon="-7.796173">
        <ele>645.028</ele>
        <time>2013-02-16T00:08:50Z</time>
      </trkpt>
      <trkpt lat="42.867709" lon="-7.796474">
        <ele>642.086</ele>
        <time>2013-02-16T00:09:10Z</time>
      </trkpt>
      <trkpt lat="42.867929" lon="-7.796903">
        <ele>640.060</ele>
        <time>2013-02-16T00:09:30Z</time>
      </trkpt>
      <trkpt lat="42.868228" lon="-7.797353">
        <ele>639.026</ele>
        <time>2013-02-16T00:09:50Z</time>
      </trkpt>
      <trkpt lat="42.868432" lon="-7.797847">
        <ele>641.007</ele>
        <time>2013-02-16T00:10:10Z</time>
      </trkpt>
      <trkpt lat="42.868495" lon="-7.797954">
        <ele>642.031</ele>
        <time>2013-02-16T00:10:30Z</time>
      </trkpt>
      <trkpt lat="42.868668" lon="-7.798169">
        <ele>642.077</ele>
        <time>2013-02-16T00:10:50Z</time>
      </trkpt>
      <trkpt lat="42.869219" lon="-7.798812">
        <ele>641.047</ele>
        <time>2013-02-16T00:11:10Z</time>
      </trkpt>
      <trkpt lat="42.869407" lon="-7.799091">
        <ele>639.060</ele>
        <time>2013-02-16T00:11:30Z</time>
      </trkpt>
      <trkpt lat="42.869722" lon="-7.799392">
        <ele>638.038</ele>
        <time>2013-02-16T00:11:50Z</time>
      </trkpt>
      <trkpt lat="42.869942" lon="-7.799778">
        <ele>636.096</ele>
        <time>2013-02-16T00:12:10Z</time>
      </trkpt>
      <trkpt lat="42.870178" lon="-7.800100">
        <ele>633.013</ele>
        <time>2013-02-16T00:12:30Z</time>
      </trkpt>
      <trkpt lat="42.870430" lon="-7.800314">
        <ele>633.034</ele>
        <time>2013-02-16T00:12:50Z</time>
      </trkpt>
      <trkpt lat="42.870650" lon="-7.800615">
        <ele>633.055</ele>
        <time>2013-02-16T00:13:10Z</time>
      </trkpt>
      <trkpt lat="42.870964" lon="-7.800915">
        <ele>631.010</ele>
        <time>2013-02-16T00:13:30Z</time>
      </trkpt>
      <trkpt lat="42.871043" lon="-7.801065">
        <ele>631.007</ele>
        <time>2013-02-16T00:13:50Z</time>
      </trkpt>
      <trkpt lat="42.871247" lon="-7.801387">
        <ele>629.026</ele>
        <time>2013-02-16T00:14:10Z</time>
      </trkpt>
      <trkpt lat="42.871373" lon="-7.801902">
        <ele>623.092</ele>
        <time>2013-02-16T00:14:30Z</time>
      </trkpt>
      <trkpt lat="42.871593" lon="-7.802353">
        <ele>619.032</ele>
        <time>2013-02-16T00:14:50Z</time>
      </trkpt>
      <trkpt lat="42.871703" lon="-7.802804">
        <ele>612.055</ele>
        <time>2013-02-16T00:15:10Z</time>
      </trkpt>
      <trkpt lat="42.872018" lon="-7.803383">
        <ele>604.093</ele>
        <time>2013-02-16T00:15:30Z</time>
      </trkpt>
      <trkpt lat="42.872096" lon="-7.803555">
        <ele>600.031</ele>
        <time>2013-02-16T00:15:50Z</time>
      </trkpt>
      <trkpt lat="42.872285" lon="-7.803855">
        <ele>597.098</ele>
        <time>2013-02-16T00:16:10Z</time>
      </trkpt>
      <trkpt lat="42.872458" lon="-7.804220">
        <ele>595.056</ele>
        <time>2013-02-16T00:16:30Z</time>
      </trkpt>
      <trkpt lat="42.872788" lon="-7.804499">
        <ele>593.059</ele>
        <time>2013-02-16T00:16:50Z</time>
      </trkpt>
      <trkpt lat="42.873024" lon="-7.804778">
        <ele>591.014</ele>
        <time>2013-02-16T00:17:10Z</time>
      </trkpt>
      <trkpt lat="42.873229" lon="-7.805057">
        <ele>588.007</ele>
        <time>2013-02-16T00:17:30Z</time>
      </trkpt>
      <trkpt lat="42.873386" lon="-7.805314">
        <ele>584.028</ele>
        <time>2013-02-16T00:17:50Z</time>
      </trkpt>
      <trkpt lat="42.873575" lon="-7.805486">
        <ele>580.084</ele>
        <time>2013-02-16T00:18:10Z</time>
      </trkpt>
      <trkpt lat="42.873732" lon="-7.805829">
        <ele>578.054</ele>
        <time>2013-02-16T00:18:30Z</time>
      </trkpt>
      <trkpt lat="42.873763" lon="-7.806022">
        <ele>576.037</ele>
        <time>2013-02-16T00:18:50Z</time>
      </trkpt>
      <trkpt lat="42.873763" lon="-7.806494">
        <ele>576.015</ele>
        <time>2013-02-16T00:19:10Z</time>
      </trkpt>
      <trkpt lat="42.873669" lon="-7.806945">
        <ele>576.013</ele>
        <time>2013-02-16T00:19:30Z</time>
      </trkpt>
      <trkpt lat="42.873575" lon="-7.807202">
        <ele>578.010</ele>
        <time>2013-02-16T00:19:50Z</time>
      </trkpt>
      <trkpt lat="42.873543" lon="-7.807438">
        <ele>579.075</ele>
        <time>2013-02-16T00:20:10Z</time>
      </trkpt>
      <trkpt lat="42.873543" lon="-7.807717">
        <ele>580.028</ele>
        <time>2013-02-16T00:20:30Z</time>
      </trkpt>
      <trkpt lat="42.873575" lon="-7.807889">
        <ele>580.020</ele>
        <time>2013-02-16T00:20:50Z</time>
      </trkpt>
      <trkpt lat="42.873622" lon="-7.808125">
        <ele>582.007</ele>
        <time>2013-02-16T00:21:10Z</time>
      </trkpt>
      <trkpt lat="42.873653" lon="-7.808232">
        <ele>583.020</ele>
        <time>2013-02-16T00:21:30Z</time>
      </trkpt>
      <trkpt lat="42.873763" lon="-7.808468">
        <ele>580.026</ele>
        <time>2013-02-16T00:21:50Z</time>
      </trkpt>
      <trkpt lat="42.873779" lon="-7.808726">
        <ele>581.066</ele>
        <time>2013-02-16T00:22:10Z</time>
      </trkpt>
      <trkpt lat="42.873700" lon="-7.809134">
        <ele>586.049</ele>
        <time>2013-02-16T00:22:30Z</time>
      </trkpt>
      <trkpt lat="42.873606" lon="-7.809370">
        <ele>586.037</ele>
        <time>2013-02-16T00:22:50Z</time>
      </trkpt>
      <trkpt lat="42.873433" lon="-7.809691">
        <ele>588.055</ele>
        <time>2013-02-16T00:23:10Z</time>
      </trkpt>
      <trkpt lat="42.873307" lon="-7.810056">
        <ele>587.052</ele>
        <time>2013-02-16T00:23:30Z</time>
      </trkpt>
      <trkpt lat="42.873229" lon="-7.810249">
        <ele>586.055</ele>
        <time>2013-02-16T00:23:50Z</time>
      </trkpt>
      <trkpt lat="42.873087" lon="-7.810464">
        <ele>586.007</ele>
        <time>2013-02-16T00:24:10Z</time>
      </trkpt>
      <trkpt lat="42.872946" lon="-7.810657">
        <ele>586.017</ele>
        <time>2013-02-16T00:24:30Z</time>
      </trkpt>
      <trkpt lat="42.872820" lon="-7.810915">
        <ele>587.007</ele>
        <time>2013-02-16T00:24:50Z</time>
      </trkpt>
      <trkpt lat="42.872615" lon="-7.811279">
        <ele>587.028</ele>
        <time>2013-02-16T00:25:10Z</time>
      </trkpt>
      <trkpt lat="42.872395" lon="-7.811601">
        <ele>588.084</ele>
        <time>2013-02-16T00:25:30Z</time>
      </trkpt>
      <trkpt lat="42.872254" lon="-7.812052">
        <ele>588.094</ele>
        <time>2013-02-16T00:25:50Z</time>
      </trkpt>
      <trkpt lat="42.872269" lon="-7.812610">
        <ele>589.077</ele>
        <time>2013-02-16T00:26:10Z</time>
      </trkpt>
      <trkpt lat="42.872238" lon="-7.813339">
        <ele>588.025</ele>
        <time>2013-02-16T00:26:30Z</time>
      </trkpt>
      <trkpt lat="42.872238" lon="-7.813725">
        <ele>588.083</ele>
        <time>2013-02-16T00:26:50Z</time>
      </trkpt>
      <trkpt lat="42.872175" lon="-7.814004">
        <ele>589.020</ele>
        <time>2013-02-16T00:27:10Z</time>
      </trkpt>
      <trkpt lat="42.872144" lon="-7.814326">
        <ele>592.084</ele>
        <time>2013-02-16T00:27:30Z</time>
      </trkpt>
      <trkpt lat="42.872065" lon="-7.814670">
        <ele>597.007</ele>
        <time>2013-02-16T00:27:50Z</time>
      </trkpt>
      <trkpt lat="42.871939" lon="-7.815142">
        <ele>599.017</ele>
        <time>2013-02-16T00:28:10Z</time>
      </trkpt>
      <trkpt lat="42.871892" lon="-7.815399">
        <ele>599.007</ele>
        <time>2013-02-16T00:28:30Z</time>
      </trkpt>
      <trkpt lat="42.871798" lon="-7.815700">
        <ele>602.011</ele>
        <time>2013-02-16T00:28:50Z</time>
      </trkpt>
      <trkpt lat="42.871640" lon="-7.816236">
        <ele>603.027</ele>
        <time>2013-02-16T00:29:10Z</time>
      </trkpt>
      <trkpt lat="42.871625" lon="-7.816408">
        <ele>605.067</ele>
        <time>2013-02-16T00:29:30Z</time>
      </trkpt>
      <trkpt lat="42.871625" lon="-7.816987">
        <ele>611.040</ele>
        <time>2013-02-16T00:29:50Z</time>
      </trkpt>
      <trkpt lat="42.871625" lon="-7.817352">
        <ele>612.018</ele>
        <time>2013-02-16T00:30:10Z</time>
      </trkpt>
      <trkpt lat="42.871656" lon="-7.817760">
        <ele>613.096</ele>
        <time>2013-02-16T00:30:30Z</time>
      </trkpt>
      <trkpt lat="42.871656" lon="-7.817974">
        <ele>616.083</ele>
        <time>2013-02-16T00:30:50Z</time>
      </trkpt>
      <trkpt lat="42.871719" lon="-7.818210">
        <ele>618.031</ele>
        <time>2013-02-16T00:31:10Z</time>
      </trkpt>
      <trkpt lat="42.871861" lon="-7.818575">
        <ele>619.061</ele>
        <time>2013-02-16T00:31:30Z</time>
      </trkpt>
      <trkpt lat="42.871876" lon="-7.818832">
        <ele>620.007</ele>
        <time>2013-02-16T00:31:50Z</time>
      </trkpt>
      <trkpt lat="42.871971" lon="-7.819412">
        <ele>622.007</ele>
        <time>2013-02-16T00:32:10Z</time>
      </trkpt>
      <trkpt lat="42.872018" lon="-7.819712">
        <ele>622.086</ele>
        <time>2013-02-16T00:32:30Z</time>
      </trkpt>
      <trkpt lat="42.872065" lon="-7.819970">
        <ele>623.042</ele>
        <time>2013-02-16T00:32:50Z</time>
      </trkpt>
      <trkpt lat="42.872112" lon="-7.820292">
        <ele>624.032</ele>
        <time>2013-02-16T00:33:10Z</time>
      </trkpt>
      <trkpt lat="42.872191" lon="-7.820549">
        <ele>625.025</ele>
        <time>2013-02-16T00:33:30Z</time>
      </trkpt>
      <trkpt lat="42.872238" lon="-7.820849">
        <ele>627.093</ele>
        <time>2013-02-16T00:33:50Z</time>
      </trkpt>
      <trkpt lat="42.872317" lon="-7.821064">
        <ele>629.061</ele>
        <time>2013-02-16T00:34:10Z</time>
      </trkpt>
      <trkpt lat="42.872521" lon="-7.821772">
        <ele>634.068</ele>
        <time>2013-02-16T00:34:30Z</time>
      </trkpt>
      <trkpt lat="42.872851" lon="-7.821772">
        <ele>632.017</ele>
        <time>2013-02-16T00:34:50Z</time>
      </trkpt>
      <trkpt lat="42.873158" lon="-7.821761">
        <ele>630.087</ele>
        <time>2013-02-16T00:35:10Z</time>
      </trkpt>
      <trkpt lat="42.873142" lon="-7.822094">
        <ele>633.015</ele>
        <time>2013-02-16T00:35:30Z</time>
      </trkpt>
      <trkpt lat="42.873142" lon="-7.822255">
        <ele>633.007</ele>
        <time>2013-02-16T00:35:50Z</time>
      </trkpt>
      <trkpt lat="42.873103" lon="-7.822502">
        <ele>633.084</ele>
        <time>2013-02-16T00:36:10Z</time>
      </trkpt>
      <trkpt lat="42.873055" lon="-7.822727">
        <ele>633.020</ele>
        <time>2013-02-16T00:36:30Z</time>
      </trkpt>
      <trkpt lat="42.873024" lon="-7.823113">
        <ele>633.040</ele>
        <time>2013-02-16T00:36:50Z</time>
      </trkpt>
      <trkpt lat="42.873024" lon="-7.823339">
        <ele>633.093</ele>
        <time>2013-02-16T00:37:10Z</time>
      </trkpt>
      <trkpt lat="42.873055" lon="-7.823532">
        <ele>633.031</ele>
        <time>2013-02-16T00:37:30Z</time>
      </trkpt>
      <trkpt lat="42.873008" lon="-7.823800">
        <ele>633.099</ele>
        <time>2013-02-16T00:37:50Z</time>
      </trkpt>
      <trkpt lat="42.873008" lon="-7.823939">
        <ele>633.056</ele>
        <time>2013-02-16T00:38:10Z</time>
      </trkpt>
      <trkpt lat="42.873000" lon="-7.824165">
        <ele>634.019</ele>
        <time>2013-02-16T00:38:30Z</time>
      </trkpt>
      <trkpt lat="42.872969" lon="-7.824336">
        <ele>634.009</ele>
        <time>2013-02-16T00:38:50Z</time>
      </trkpt>
      <trkpt lat="42.872969" lon="-7.824615">
        <ele>634.019</ele>
        <time>2013-02-16T00:39:10Z</time>
      </trkpt>
      <trkpt lat="42.872969" lon="-7.824959">
        <ele>634.007</ele>
        <time>2013-02-16T00:39:30Z</time>
      </trkpt>
      <trkpt lat="42.872992" lon="-7.825034">
        <ele>634.044</ele>
        <time>2013-02-16T00:39:50Z</time>
      </trkpt>
      <trkpt lat="42.873071" lon="-7.825334">
        <ele>634.070</ele>
        <time>2013-02-16T00:40:10Z</time>
      </trkpt>
      <trkpt lat="42.873173" lon="-7.825817">
        <ele>632.020</ele>
        <time>2013-02-16T00:40:30Z</time>
      </trkpt>
      <trkpt lat="42.873236" lon="-7.826021">
        <ele>625.033</ele>
        <time>2013-02-16T00:40:50Z</time>
      </trkpt>
      <trkpt lat="42.873299" lon="-7.826289">
        <ele>624.011</ele>
        <time>2013-02-16T00:41:10Z</time>
      </trkpt>
      <trkpt lat="42.873496" lon="-7.826600">
        <ele>620.039</ele>
        <time>2013-02-16T00:41:30Z</time>
      </trkpt>
      <trkpt lat="42.873842" lon="-7.826900">
        <ele>618.026</ele>
        <time>2013-02-16T00:41:50Z</time>
      </trkpt>
      <trkpt lat="42.873999" lon="-7.827244">
        <ele>616.043</ele>
        <time>2013-02-16T00:42:10Z</time>
      </trkpt>
      <trkpt lat="42.874157" lon="-7.827523">
        <ele>614.064</ele>
        <time>2013-02-16T00:42:30Z</time>
      </trkpt>
      <trkpt lat="42.874329" lon="-7.827866">
        <ele>611.010</ele>
        <time>2013-02-16T00:42:50Z</time>
      </trkpt>
      <trkpt lat="42.874565" lon="-7.828338">
        <ele>609.007</ele>
        <time>2013-02-16T00:43:10Z</time>
      </trkpt>
      <trkpt lat="42.874628" lon="-7.828724">
        <ele>607.027</ele>
        <time>2013-02-16T00:43:30Z</time>
      </trkpt>
      <trkpt lat="42.874927" lon="-7.829132">
        <ele>607.063</ele>
        <time>2013-02-16T00:43:50Z</time>
      </trkpt>
      <trkpt lat="42.875006" lon="-7.829432">
        <ele>607.093</ele>
        <time>2013-02-16T00:44:10Z</time>
      </trkpt>
      <trkpt lat="42.875226" lon="-7.829540">
        <ele>607.026</ele>
        <time>2013-02-16T00:44:30Z</time>
      </trkpt>
      <trkpt lat="42.875304" lon="-7.829862">
        <ele>606.034</ele>
        <time>2013-02-16T00:44:50Z</time>
      </trkpt>
      <trkpt lat="42.875352" lon="-7.830226">
        <ele>606.092</ele>
        <time>2013-02-16T00:45:10Z</time>
      </trkpt>
      <trkpt lat="42.875525" lon="-7.830591">
        <ele>606.039</ele>
        <time>2013-02-16T00:45:30Z</time>
      </trkpt>
      <trkpt lat="42.875603" lon="-7.830956">
        <ele>606.099</ele>
        <time>2013-02-16T00:45:50Z</time>
      </trkpt>
      <trkpt lat="42.875619" lon="-7.831106">
        <ele>606.007</ele>
        <time>2013-02-16T00:46:10Z</time>
      </trkpt>
      <trkpt lat="42.875650" lon="-7.831407">
        <ele>607.027</ele>
        <time>2013-02-16T00:46:30Z</time>
      </trkpt>
      <trkpt lat="42.875745" lon="-7.831771">
        <ele>608.007</ele>
        <time>2013-02-16T00:46:50Z</time>
      </trkpt>
      <trkpt lat="42.875776" lon="-7.832115">
        <ele>610.092</ele>
        <time>2013-02-16T00:47:10Z</time>
      </trkpt>
      <trkpt lat="42.875823" lon="-7.832394">
        <ele>610.078</ele>
        <time>2013-02-16T00:47:30Z</time>
      </trkpt>
      <trkpt lat="42.875886" lon="-7.832716">
        <ele>611.098</ele>
        <time>2013-02-16T00:47:50Z</time>
      </trkpt>
      <trkpt lat="42.875918" lon="-7.833295">
        <ele>612.011</ele>
        <time>2013-02-16T00:48:10Z</time>
      </trkpt>
      <trkpt lat="42.875965" lon="-7.833724">
        <ele>612.019</ele>
        <time>2013-02-16T00:48:30Z</time>
      </trkpt>
      <trkpt lat="42.875996" lon="-7.834239">
        <ele>617.087</ele>
        <time>2013-02-16T00:48:50Z</time>
      </trkpt>
      <trkpt lat="42.875981" lon="-7.834389">
        <ele>619.084</ele>
        <time>2013-02-16T00:49:10Z</time>
      </trkpt>
      <trkpt lat="42.876012" lon="-7.834775">
        <ele>621.096</ele>
        <time>2013-02-16T00:49:30Z</time>
      </trkpt>
      <trkpt lat="42.876028" lon="-7.835290">
        <ele>622.031</ele>
        <time>2013-02-16T00:49:50Z</time>
      </trkpt>
      <trkpt lat="42.875981" lon="-7.835805">
        <ele>624.024</ele>
        <time>2013-02-16T00:50:10Z</time>
      </trkpt>
      <trkpt lat="42.875933" lon="-7.835956">
        <ele>623.007</ele>
        <time>2013-02-16T00:50:30Z</time>
      </trkpt>
      <trkpt lat="42.875871" lon="-7.836170">
        <ele>623.042</ele>
        <time>2013-02-16T00:50:50Z</time>
      </trkpt>
      <trkpt lat="42.875823" lon="-7.836363">
        <ele>623.028</ele>
        <time>2013-02-16T00:51:10Z</time>
      </trkpt>
      <trkpt lat="42.875823" lon="-7.836707">
        <ele>624.018</ele>
        <time>2013-02-16T00:51:30Z</time>
      </trkpt>
      <trkpt lat="42.875776" lon="-7.836986">
        <ele>625.061</ele>
        <time>2013-02-16T00:51:50Z</time>
      </trkpt>
      <trkpt lat="42.875713" lon="-7.837222">
        <ele>625.019</ele>
        <time>2013-02-16T00:52:10Z</time>
      </trkpt>
      <trkpt lat="42.875619" lon="-7.837372">
        <ele>626.027</ele>
        <time>2013-02-16T00:52:30Z</time>
      </trkpt>
      <trkpt lat="42.875540" lon="-7.837458">
        <ele>626.064</ele>
        <time>2013-02-16T00:52:50Z</time>
      </trkpt>
      <trkpt lat="42.875477" lon="-7.837865">
        <ele>626.075</ele>
        <time>2013-02-16T00:53:10Z</time>
      </trkpt>
      <trkpt lat="42.875336" lon="-7.838123">
        <ele>627.028</ele>
        <time>2013-02-16T00:53:30Z</time>
      </trkpt>
      <trkpt lat="42.875131" lon="-7.838531">
        <ele>628.020</ele>
        <time>2013-02-16T00:53:50Z</time>
      </trkpt>
      <trkpt lat="42.874974" lon="-7.838767">
        <ele>628.007</ele>
        <time>2013-02-16T00:54:10Z</time>
      </trkpt>
      <trkpt lat="42.874723" lon="-7.839260">
        <ele>629.040</ele>
        <time>2013-02-16T00:54:30Z</time>
      </trkpt>
      <trkpt lat="42.874628" lon="-7.839389">
        <ele>628.046</ele>
        <time>2013-02-16T00:54:50Z</time>
      </trkpt>
      <trkpt lat="42.874502" lon="-7.839646">
        <ele>628.016</ele>
        <time>2013-02-16T00:55:10Z</time>
      </trkpt>
      <trkpt lat="42.874471" lon="-7.839711">
        <ele>628.049</ele>
        <time>2013-02-16T00:55:30Z</time>
      </trkpt>
      <trkpt lat="42.874502" lon="-7.839861">
        <ele>628.057</ele>
        <time>2013-02-16T00:55:50Z</time>
      </trkpt>
      <trkpt lat="42.874455" lon="-7.840097">
        <ele>629.075</ele>
        <time>2013-02-16T00:56:10Z</time>
      </trkpt>
      <trkpt lat="42.874471" lon="-7.840633">
        <ele>630.032</ele>
        <time>2013-02-16T00:56:30Z</time>
      </trkpt>
      <trkpt lat="42.874471" lon="-7.841020">
        <ele>631.055</ele>
        <time>2013-02-16T00:56:50Z</time>
      </trkpt>
      <trkpt lat="42.874361" lon="-7.841449">
        <ele>632.007</ele>
        <time>2013-02-16T00:57:10Z</time>
      </trkpt>
      <trkpt lat="42.874298" lon="-7.841856">
        <ele>633.017</ele>
        <time>2013-02-16T00:57:30Z</time>
      </trkpt>
      <trkpt lat="42.874314" lon="-7.842071">
        <ele>635.007</ele>
        <time>2013-02-16T00:57:50Z</time>
      </trkpt>
      <trkpt lat="42.874345" lon="-7.842500">
        <ele>638.088</ele>
        <time>2013-02-16T00:58:10Z</time>
      </trkpt>
      <trkpt lat="42.874361" lon="-7.843122">
        <ele>641.054</ele>
        <time>2013-02-16T00:58:30Z</time>
      </trkpt>
      <trkpt lat="42.874377" lon="-7.843487">
        <ele>642.054</ele>
        <time>2013-02-16T00:58:50Z</time>
      </trkpt>
      <trkpt lat="42.874392" lon="-7.844195">
        <ele>641.097</ele>
        <time>2013-02-16T00:59:10Z</time>
      </trkpt>
      <trkpt lat="42.874408" lon="-7.844560">
        <ele>640.025</ele>
        <time>2013-02-16T00:59:30Z</time>
      </trkpt>
      <trkpt lat="42.874377" lon="-7.844861">
        <ele>640.063</ele>
        <time>2013-02-16T00:59:50Z</time>
      </trkpt>
      <trkpt lat="42.874392" lon="-7.845247">
        <ele>638.060</ele>
        <time>2013-02-16T01:00:10Z</time>
      </trkpt>
      <trkpt lat="42.874408" lon="-7.845848">
        <ele>635.063</ele>
        <time>2013-02-16T01:00:30Z</time>
      </trkpt>
      <trkpt lat="42.874377" lon="-7.846084">
        <ele>634.044</ele>
        <time>2013-02-16T01:00:50Z</time>
      </trkpt>
      <trkpt lat="42.874345" lon="-7.846406">
        <ele>633.018</ele>
        <time>2013-02-16T01:01:10Z</time>
      </trkpt>
      <trkpt lat="42.874314" lon="-7.846727">
        <ele>633.007</ele>
        <time>2013-02-16T01:01:30Z</time>
      </trkpt>
      <trkpt lat="42.874314" lon="-7.846856">
        <ele>633.079</ele>
        <time>2013-02-16T01:01:50Z</time>
      </trkpt>
      <trkpt lat="42.874329" lon="-7.847371">
        <ele>632.075</ele>
        <time>2013-02-16T01:02:10Z</time>
      </trkpt>
      <trkpt lat="42.874329" lon="-7.847908">
        <ele>631.055</ele>
        <time>2013-02-16T01:02:30Z</time>
      </trkpt>
      <trkpt lat="42.874345" lon="-7.848573">
        <ele>629.088</ele>
        <time>2013-02-16T01:02:50Z</time>
      </trkpt>
      <trkpt lat="42.874424" lon="-7.849066">
        <ele>627.036</ele>
        <time>2013-02-16T01:03:10Z</time>
      </trkpt>
      <trkpt lat="42.874534" lon="-7.849431">
        <ele>625.094</ele>
        <time>2013-02-16T01:03:30Z</time>
      </trkpt>
      <trkpt lat="42.874550" lon="-7.849710">
        <ele>624.061</ele>
        <time>2013-02-16T01:03:50Z</time>
      </trkpt>
      <trkpt lat="42.874628" lon="-7.849989">
        <ele>625.065</ele>
        <time>2013-02-16T01:04:10Z</time>
      </trkpt>
      <trkpt lat="42.874707" lon="-7.850161">
        <ele>624.068</ele>
        <time>2013-02-16T01:04:30Z</time>
      </trkpt>
      <trkpt lat="42.874786" lon="-7.850440">
        <ele>622.014</ele>
        <time>2013-02-16T01:04:50Z</time>
      </trkpt>
      <trkpt lat="42.874833" lon="-7.850718">
        <ele>620.007</ele>
        <time>2013-02-16T01:05:10Z</time>
      </trkpt>
      <trkpt lat="42.874911" lon="-7.850997">
        <ele>621.029</ele>
        <time>2013-02-16T01:05:30Z</time>
      </trkpt>
      <trkpt lat="42.874895" lon="-7.851083">
        <ele>621.095</ele>
        <time>2013-02-16T01:05:50Z</time>
      </trkpt>
      <trkpt lat="42.874832" lon="-7.851459">
        <ele>619.085</ele>
        <time>2013-02-16T01:06:10Z</time>
      </trkpt>
      <trkpt lat="42.874762" lon="-7.851706">
        <ele>620.098</ele>
        <time>2013-02-16T01:06:30Z</time>
      </trkpt>
      <trkpt lat="42.874714" lon="-7.851877">
        <ele>621.016</ele>
        <time>2013-02-16T01:06:50Z</time>
      </trkpt>
      <trkpt lat="42.874691" lon="-7.851974">
        <ele>621.094</ele>
        <time>2013-02-16T01:07:10Z</time>
      </trkpt>
      <trkpt lat="42.874541" lon="-7.852038">
        <ele>622.031</ele>
        <time>2013-02-16T01:07:30Z</time>
      </trkpt>
      <trkpt lat="42.874534" lon="-7.852199">
        <ele>624.018</ele>
        <time>2013-02-16T01:07:50Z</time>
      </trkpt>
      <trkpt lat="42.874337" lon="-7.852886">
        <ele>626.098</ele>
        <time>2013-02-16T01:08:10Z</time>
      </trkpt>
      <trkpt lat="42.874282" lon="-7.853111">
        <ele>627.017</ele>
        <time>2013-02-16T01:08:30Z</time>
      </trkpt>
      <trkpt lat="42.874258" lon="-7.853605">
        <ele>626.007</ele>
        <time>2013-02-16T01:08:50Z</time>
      </trkpt>
      <trkpt lat="42.874219" lon="-7.853862">
        <ele>625.064</ele>
        <time>2013-02-16T01:09:10Z</time>
      </trkpt>
      <trkpt lat="42.874195" lon="-7.854248">
        <ele>624.050</ele>
        <time>2013-02-16T01:09:30Z</time>
      </trkpt>
      <trkpt lat="42.874109" lon="-7.854495">
        <ele>623.060</ele>
        <time>2013-02-16T01:09:50Z</time>
      </trkpt>
      <trkpt lat="42.874077" lon="-7.854753">
        <ele>621.053</ele>
        <time>2013-02-16T01:10:10Z</time>
      </trkpt>
      <trkpt lat="42.873991" lon="-7.855203">
        <ele>617.031</ele>
        <time>2013-02-16T01:10:30Z</time>
      </trkpt>
      <trkpt lat="42.873991" lon="-7.855428">
        <ele>615.029</ele>
        <time>2013-02-16T01:10:50Z</time>
      </trkpt>
      <trkpt lat="42.873960" lon="-7.855664">
        <ele>615.016</ele>
        <time>2013-02-16T01:11:10Z</time>
      </trkpt>
      <trkpt lat="42.873967" lon="-7.855901">
        <ele>613.073</ele>
        <time>2013-02-16T01:11:30Z</time>
      </trkpt>
      <trkpt lat="42.873952" lon="-7.856448">
        <ele>608.085</ele>
        <time>2013-02-16T01:11:50Z</time>
      </trkpt>
      <trkpt lat="42.873944" lon="-7.856598">
        <ele>606.013</ele>
        <time>2013-02-16T01:12:10Z</time>
      </trkpt>
      <trkpt lat="42.873936" lon="-7.856888">
        <ele>604.007</ele>
        <time>2013-02-16T01:12:30Z</time>
      </trkpt>
      <trkpt lat="42.873912" lon="-7.857188">
        <ele>602.050</ele>
        <time>2013-02-16T01:12:50Z</time>
      </trkpt>
      <trkpt lat="42.873912" lon="-7.857445">
        <ele>601.056</ele>
        <time>2013-02-16T01:13:10Z</time>
      </trkpt>
      <trkpt lat="42.873889" lon="-7.857703">
        <ele>600.066</ele>
        <time>2013-02-16T01:13:30Z</time>
      </trkpt>
      <trkpt lat="42.873873" lon="-7.858025">
        <ele>600.079</ele>
        <time>2013-02-16T01:13:50Z</time>
      </trkpt>
      <trkpt lat="42.873865" lon="-7.858164">
        <ele>600.097</ele>
        <time>2013-02-16T01:14:10Z</time>
      </trkpt>
      <trkpt lat="42.873802" lon="-7.858465">
        <ele>600.055</ele>
        <time>2013-02-16T01:14:30Z</time>
      </trkpt>
      <trkpt lat="42.873755" lon="-7.858658">
        <ele>600.012</ele>
        <time>2013-02-16T01:14:50Z</time>
      </trkpt>
      <trkpt lat="42.873755" lon="-7.858958">
        <ele>600.071</ele>
        <time>2013-02-16T01:15:10Z</time>
      </trkpt>
      <trkpt lat="42.873732" lon="-7.859441">
        <ele>599.041</ele>
        <time>2013-02-16T01:15:30Z</time>
      </trkpt>
      <trkpt lat="42.873700" lon="-7.859720">
        <ele>599.015</ele>
        <time>2013-02-16T01:15:50Z</time>
      </trkpt>
      <trkpt lat="42.873676" lon="-7.859977">
        <ele>599.007</ele>
        <time>2013-02-16T01:16:10Z</time>
      </trkpt>
      <trkpt lat="42.873661" lon="-7.860332">
        <ele>600.040</ele>
        <time>2013-02-16T01:16:30Z</time>
      </trkpt>
      <trkpt lat="42.873614" lon="-7.860610">
        <ele>600.066</ele>
        <time>2013-02-16T01:16:50Z</time>
      </trkpt>
      <trkpt lat="42.873606" lon="-7.860836">
        <ele>602.026</ele>
        <time>2013-02-16T01:17:10Z</time>
      </trkpt>
      <trkpt lat="42.873543" lon="-7.861372">
        <ele>603.079</ele>
        <time>2013-02-16T01:17:30Z</time>
      </trkpt>
      <trkpt lat="42.873472" lon="-7.861952">
        <ele>602.017</ele>
        <time>2013-02-16T01:17:50Z</time>
      </trkpt>
      <trkpt lat="42.873433" lon="-7.862027">
        <ele>602.095</ele>
        <time>2013-02-16T01:18:10Z</time>
      </trkpt>
      <trkpt lat="42.873370" lon="-7.862316">
        <ele>601.052</ele>
        <time>2013-02-16T01:18:30Z</time>
      </trkpt>
      <trkpt lat="42.873338" lon="-7.862445">
        <ele>600.095</ele>
        <time>2013-02-16T01:18:50Z</time>
      </trkpt>
      <trkpt lat="42.873315" lon="-7.862563">
        <ele>600.049</ele>
        <time>2013-02-16T01:19:10Z</time>
      </trkpt>
      <trkpt lat="42.873338" lon="-7.862960">
        <ele>598.023</ele>
        <time>2013-02-16T01:19:30Z</time>
      </trkpt>
      <trkpt lat="42.873362" lon="-7.863110">
        <ele>598.007</ele>
        <time>2013-02-16T01:19:50Z</time>
      </trkpt>
      <trkpt lat="42.873425" lon="-7.863497">
        <ele>596.012</ele>
        <time>2013-02-16T01:20:10Z</time>
      </trkpt>
      <trkpt lat="42.873448" lon="-7.863700">
        <ele>596.068</ele>
        <time>2013-02-16T01:20:30Z</time>
      </trkpt>
      <trkpt lat="42.873441" lon="-7.863904">
        <ele>595.098</ele>
        <time>2013-02-16T01:20:50Z</time>
      </trkpt>
      <trkpt lat="42.873362" lon="-7.864194">
        <ele>593.071</ele>
        <time>2013-02-16T01:21:10Z</time>
      </trkpt>
      <trkpt lat="42.873323" lon="-7.864355">
        <ele>591.019</ele>
        <time>2013-02-16T01:21:30Z</time>
      </trkpt>
      <trkpt lat="42.873181" lon="-7.864559">
        <ele>593.097</ele>
        <time>2013-02-16T01:21:50Z</time>
      </trkpt>
      <trkpt lat="42.873110" lon="-7.864752">
        <ele>590.054</ele>
        <time>2013-02-16T01:22:10Z</time>
      </trkpt>
      <trkpt lat="42.872992" lon="-7.864891">
        <ele>586.084</ele>
        <time>2013-02-16T01:22:30Z</time>
      </trkpt>
      <trkpt lat="42.872874" lon="-7.865320">
        <ele>582.007</ele>
        <time>2013-02-16T01:22:50Z</time>
      </trkpt>
      <trkpt lat="42.872851" lon="-7.865514">
        <ele>579.017</ele>
        <time>2013-02-16T01:23:10Z</time>
      </trkpt>
      <trkpt lat="42.872819" lon="-7.865696">
        <ele>575.007</ele>
        <time>2013-02-16T01:23:30Z</time>
      </trkpt>
      <trkpt lat="42.872796" lon="-7.865921">
        <ele>575.051</ele>
        <time>2013-02-16T01:23:50Z</time>
      </trkpt>
      <trkpt lat="42.872772" lon="-7.866061">
        <ele>572.067</ele>
        <time>2013-02-16T01:24:10Z</time>
      </trkpt>
      <trkpt lat="42.872764" lon="-7.866307">
        <ele>570.097</ele>
        <time>2013-02-16T01:24:30Z</time>
      </trkpt>
      <trkpt lat="42.872764" lon="-7.866393">
        <ele>570.080</ele>
        <time>2013-02-16T01:24:50Z</time>
      </trkpt>
      <trkpt lat="42.872874" lon="-7.866629">
        <ele>568.068</ele>
        <time>2013-02-16T01:25:10Z</time>
      </trkpt>
      <trkpt lat="42.872874" lon="-7.866672">
        <ele>568.056</ele>
        <time>2013-02-16T01:25:30Z</time>
      </trkpt>
      <trkpt lat="42.872890" lon="-7.866753">
        <ele>568.093</ele>
        <time>2013-02-16T01:25:50Z</time>
      </trkpt>
      <trkpt lat="42.872890" lon="-7.866871">
        <ele>567.081</ele>
        <time>2013-02-16T01:26:10Z</time>
      </trkpt>
      <trkpt lat="42.872886" lon="-7.866967">
        <ele>567.061</ele>
        <time>2013-02-16T01:26:30Z</time>
      </trkpt>
      <trkpt lat="42.872859" lon="-7.867010">
        <ele>567.017</ele>
        <time>2013-02-16T01:26:50Z</time>
      </trkpt>
      <trkpt lat="42.872839" lon="-7.867118">
        <ele>565.007</ele>
        <time>2013-02-16T01:27:10Z</time>
      </trkpt>
      <trkpt lat="42.872823" lon="-7.867219">
        <ele>565.021</ele>
        <time>2013-02-16T01:27:30Z</time>
      </trkpt>
      <trkpt lat="42.872804" lon="-7.867321">
        <ele>565.077</ele>
        <time>2013-02-16T01:27:50Z</time>
      </trkpt>
      <trkpt lat="42.872804" lon="-7.867429">
        <ele>564.057</ele>
        <time>2013-02-16T01:28:10Z</time>
      </trkpt>
      <trkpt lat="42.872804" lon="-7.867493">
        <ele>564.050</ele>
        <time>2013-02-16T01:28:30Z</time>
      </trkpt>
      <trkpt lat="42.872792" lon="-7.867536">
        <ele>564.018</ele>
        <time>2013-02-16T01:28:50Z</time>
      </trkpt>
      <trkpt lat="42.872717" lon="-7.867584">
        <ele>564.056</ele>
        <time>2013-02-16T01:29:10Z</time>
      </trkpt>
      <trkpt lat="42.872670" lon="-7.867670">
        <ele>563.043</ele>
        <time>2013-02-16T01:29:30Z</time>
      </trkpt>
      <trkpt lat="42.872658" lon="-7.867718">
        <ele>563.097</ele>
        <time>2013-02-16T01:29:50Z</time>
      </trkpt>
      <trkpt lat="42.872631" lon="-7.867783">
        <ele>561.023</ele>
        <time>2013-02-16T01:30:10Z</time>
      </trkpt>
      <trkpt lat="42.872607" lon="-7.867895">
        <ele>561.025</ele>
        <time>2013-02-16T01:30:30Z</time>
      </trkpt>
      <trkpt lat="42.872556" lon="-7.868046">
        <ele>559.007</ele>
        <time>2013-02-16T01:30:50Z</time>
      </trkpt>
      <trkpt lat="42.872544" lon="-7.868147">
        <ele>559.022</ele>
        <time>2013-02-16T01:31:10Z</time>
      </trkpt>
      <trkpt lat="42.872764" lon="-7.868319">
        <ele>560.098</ele>
        <time>2013-02-16T01:31:30Z</time>
      </trkpt>
      <trkpt lat="42.872898" lon="-7.868410">
        <ele>560.078</ele>
        <time>2013-02-16T01:31:50Z</time>
      </trkpt>
      <trkpt lat="42.873004" lon="-7.868464">
        <ele>562.031</ele>
        <time>2013-02-16T01:32:10Z</time>
      </trkpt>
      <trkpt lat="42.873091" lon="-7.868598">
        <ele>560.079</ele>
        <time>2013-02-16T01:32:30Z</time>
      </trkpt>
      <trkpt lat="42.873134" lon="-7.868700">
        <ele>560.077</ele>
        <time>2013-02-16T01:32:50Z</time>
      </trkpt>
      <trkpt lat="42.873177" lon="-7.868850">
        <ele>558.074</ele>
        <time>2013-02-16T01:33:10Z</time>
      </trkpt>
      <trkpt lat="42.873208" lon="-7.868966">
        <ele>559.049</ele>
        <time>2013-02-16T01:33:30Z</time>
      </trkpt>
      <trkpt lat="42.873244" lon="-7.869092">
        <ele>556.002</ele>
        <time>2013-02-16T01:33:50Z</time>
      </trkpt>
      <trkpt lat="42.873149" lon="-7.869100">
        <ele>555.022</ele>
        <time>2013-02-16T01:34:10Z</time>
      </trkpt>
      <trkpt lat="42.873057" lon="-7.869038">
        <ele>555.007</ele>
        <time>2013-02-16T01:34:30Z</time>
      </trkpt>
      <trkpt lat="42.873073" lon="-7.869057">
        <ele>555.045</ele>
        <time>2013-02-16T11:15:25Z</time>
      </trkpt>
      <trkpt lat="42.873147" lon="-7.869102">
        <ele>555.047</ele>
        <time>2013-02-16T11:15:45Z</time>
      </trkpt>
      <trkpt lat="42.873222" lon="-7.869145">
        <ele>556.011</ele>
        <time>2013-02-16T11:16:05Z</time>
      </trkpt>
      <trkpt lat="42.873256" lon="-7.869242">
        <ele>556.007</ele>
        <time>2013-02-16T11:16:25Z</time>
      </trkpt>
      <trkpt lat="42.873283" lon="-7.869293">
        <ele>556.097</ele>
        <time>2013-02-16T11:16:45Z</time>
      </trkpt>
      <trkpt lat="42.873289" lon="-7.869400">
        <ele>553.053</ele>
        <time>2013-02-16T11:17:05Z</time>
      </trkpt>
      <trkpt lat="42.873279" lon="-7.869491">
        <ele>553.093</ele>
        <time>2013-02-16T11:17:25Z</time>
      </trkpt>
      <trkpt lat="42.873275" lon="-7.869591">
        <ele>550.017</ele>
        <time>2013-02-16T11:17:45Z</time>
      </trkpt>
      <trkpt lat="42.873258" lon="-7.869660">
        <ele>550.071</ele>
        <time>2013-02-16T11:18:05Z</time>
      </trkpt>
      <trkpt lat="42.873248" lon="-7.869768">
        <ele>550.014</ele>
        <time>2013-02-16T11:18:25Z</time>
      </trkpt>
      <trkpt lat="42.873242" lon="-7.869824">
        <ele>550.031</ele>
        <time>2013-02-16T11:18:45Z</time>
      </trkpt>
      <trkpt lat="42.873242" lon="-7.869918">
        <ele>547.098</ele>
        <time>2013-02-16T11:19:05Z</time>
      </trkpt>
      <trkpt lat="42.873224" lon="-7.870022">
        <ele>547.015</ele>
        <time>2013-02-16T11:19:25Z</time>
      </trkpt>
      <trkpt lat="42.873220" lon="-7.870084">
        <ele>547.026</ele>
        <time>2013-02-16T11:19:45Z</time>
      </trkpt>
      <trkpt lat="42.873216" lon="-7.870124">
        <ele>547.007</ele>
        <time>2013-02-16T11:20:05Z</time>
      </trkpt>
      <trkpt lat="42.873216" lon="-7.870143">
        <ele>544.082</ele>
        <time>2013-02-16T11:20:25Z</time>
      </trkpt>
      <trkpt lat="42.873265" lon="-7.870183">
        <ele>544.038</ele>
        <time>2013-02-16T11:20:45Z</time>
      </trkpt>
      <trkpt lat="42.873305" lon="-7.870226">
        <ele>544.028</ele>
        <time>2013-02-16T11:21:05Z</time>
      </trkpt>
      <trkpt lat="42.873338" lon="-7.870256">
        <ele>544.042</ele>
        <time>2013-02-16T11:21:25Z</time>
      </trkpt>
      <trkpt lat="42.873318" lon="-7.870358">
        <ele>544.066</ele>
        <time>2013-02-16T11:21:45Z</time>
      </trkpt>
      <trkpt lat="42.873417" lon="-7.870438">
        <ele>541.089</ele>
        <time>2013-02-16T11:22:05Z</time>
      </trkpt>
      <trkpt lat="42.873527" lon="-7.870556">
        <ele>542.016</ele>
        <time>2013-02-16T11:22:25Z</time>
      </trkpt>
      <trkpt lat="42.873606" lon="-7.870674">
        <ele>542.055</ele>
        <time>2013-02-16T11:22:45Z</time>
      </trkpt>
      <trkpt lat="42.873653" lon="-7.870781">
        <ele>540.007</ele>
        <time>2013-02-16T11:23:05Z</time>
      </trkpt>
      <trkpt lat="42.873708" lon="-7.870878">
        <ele>540.017</ele>
        <time>2013-02-16T11:23:25Z</time>
      </trkpt>
      <trkpt lat="42.873759" lon="-7.870937">
        <ele>541.007</ele>
        <time>2013-02-16T11:23:45Z</time>
      </trkpt>
      <trkpt lat="42.873798" lon="-7.871044">
        <ele>539.078</ele>
        <time>2013-02-16T11:24:05Z</time>
      </trkpt>
      <trkpt lat="42.873845" lon="-7.871135">
        <ele>539.034</ele>
        <time>2013-02-16T11:24:25Z</time>
      </trkpt>
      <trkpt lat="42.873877" lon="-7.871227">
        <ele>539.034</ele>
        <time>2013-02-16T11:24:45Z</time>
      </trkpt>
      <trkpt lat="42.873924" lon="-7.871329">
        <ele>538.018</ele>
        <time>2013-02-16T11:25:05Z</time>
      </trkpt>
      <trkpt lat="42.873944" lon="-7.871404">
        <ele>538.092</ele>
        <time>2013-02-16T11:25:25Z</time>
      </trkpt>
      <trkpt lat="42.873951" lon="-7.871506">
        <ele>538.015</ele>
        <time>2013-02-16T11:25:45Z</time>
      </trkpt>
      <trkpt lat="42.873967" lon="-7.871688">
        <ele>536.042</ele>
        <time>2013-02-16T11:26:05Z</time>
      </trkpt>
      <trkpt lat="42.873967" lon="-7.871838">
        <ele>534.074</ele>
        <time>2013-02-16T11:26:25Z</time>
      </trkpt>
      <trkpt lat="42.873975" lon="-7.872074">
        <ele>534.056</ele>
        <time>2013-02-16T11:26:45Z</time>
      </trkpt>
      <trkpt lat="42.873971" lon="-7.872251">
        <ele>532.021</ele>
        <time>2013-02-16T11:27:05Z</time>
      </trkpt>
      <trkpt lat="42.873955" lon="-7.872359">
        <ele>532.007</ele>
        <time>2013-02-16T11:27:25Z</time>
      </trkpt>
      <trkpt lat="42.873920" lon="-7.872541">
        <ele>531.050</ele>
        <time>2013-02-16T11:27:45Z</time>
      </trkpt>
      <trkpt lat="42.873841" lon="-7.873040">
        <ele>530.076</ele>
        <time>2013-02-16T11:28:05Z</time>
      </trkpt>
      <trkpt lat="42.873810" lon="-7.873179">
        <ele>530.076</ele>
        <time>2013-02-16T11:28:25Z</time>
      </trkpt>
      <trkpt lat="42.873779" lon="-7.873335">
        <ele>530.050</ele>
        <time>2013-02-16T11:28:45Z</time>
      </trkpt>
      <trkpt lat="42.873735" lon="-7.873453">
        <ele>530.034</ele>
        <time>2013-02-16T11:29:05Z</time>
      </trkpt>
      <trkpt lat="42.873723" lon="-7.873566">
        <ele>530.067</ele>
        <time>2013-02-16T11:29:25Z</time>
      </trkpt>
      <trkpt lat="42.873692" lon="-7.873710">
        <ele>530.084</ele>
        <time>2013-02-16T11:29:45Z</time>
      </trkpt>
      <trkpt lat="42.873668" lon="-7.873839">
        <ele>529.022</ele>
        <time>2013-02-16T11:30:05Z</time>
      </trkpt>
      <trkpt lat="42.873641" lon="-7.874005">
        <ele>529.062</ele>
        <time>2013-02-16T11:30:25Z</time>
      </trkpt>
      <trkpt lat="42.873617" lon="-7.874145">
        <ele>528.008</ele>
        <time>2013-02-16T11:30:45Z</time>
      </trkpt>
      <trkpt lat="42.873609" lon="-7.874247">
        <ele>528.007</ele>
        <time>2013-02-16T11:31:05Z</time>
      </trkpt>
      <trkpt lat="42.873527" lon="-7.874628">
        <ele>526.015</ele>
        <time>2013-02-16T11:31:25Z</time>
      </trkpt>
      <trkpt lat="42.873499" lon="-7.874826">
        <ele>526.011</ele>
        <time>2013-02-16T11:31:45Z</time>
      </trkpt>
      <trkpt lat="42.873472" lon="-7.874950">
        <ele>524.051</ele>
        <time>2013-02-16T11:32:05Z</time>
      </trkpt>
      <trkpt lat="42.873448" lon="-7.875019">
        <ele>524.075</ele>
        <time>2013-02-16T11:32:25Z</time>
      </trkpt>
      <trkpt lat="42.873409" lon="-7.875175">
        <ele>523.079</ele>
        <time>2013-02-16T11:32:45Z</time>
      </trkpt>
      <trkpt lat="42.873374" lon="-7.875266">
        <ele>523.022</ele>
        <time>2013-02-16T11:33:05Z</time>
      </trkpt>
      <trkpt lat="42.873358" lon="-7.875507">
        <ele>523.039</ele>
        <time>2013-02-16T11:33:25Z</time>
      </trkpt>
      <trkpt lat="42.873307" lon="-7.875824">
        <ele>522.029</ele>
        <time>2013-02-16T11:33:45Z</time>
      </trkpt>
      <trkpt lat="42.873267" lon="-7.875985">
        <ele>522.000</ele>
        <time>2013-02-16T11:34:05Z</time>
      </trkpt>
      <trkpt lat="42.873244" lon="-7.876157">
        <ele>522.020</ele>
        <time>2013-02-16T11:34:25Z</time>
      </trkpt>
      <trkpt lat="42.873220" lon="-7.876360">
        <ele>521.007</ele>
        <time>2013-02-16T11:34:45Z</time>
      </trkpt>
      <trkpt lat="42.873189" lon="-7.876495">
        <ele>520.045</ele>
        <time>2013-02-16T11:35:05Z</time>
      </trkpt>
      <trkpt lat="42.873138" lon="-7.876639">
        <ele>519.071</ele>
        <time>2013-02-16T11:35:25Z</time>
      </trkpt>
      <trkpt lat="42.873114" lon="-7.876773">
        <ele>519.021</ele>
        <time>2013-02-16T11:35:45Z</time>
      </trkpt>
      <trkpt lat="42.873067" lon="-7.877074">
        <ele>518.015</ele>
        <time>2013-02-16T11:36:05Z</time>
      </trkpt>
      <trkpt lat="42.873008" lon="-7.877219">
        <ele>517.079</ele>
        <time>2013-02-16T11:36:25Z</time>
      </trkpt>
      <trkpt lat="42.872945" lon="-7.877508">
        <ele>517.092</ele>
        <time>2013-02-16T11:36:45Z</time>
      </trkpt>
      <trkpt lat="42.872851" lon="-7.877927">
        <ele>517.049</ele>
        <time>2013-02-16T11:37:05Z</time>
      </trkpt>
      <trkpt lat="42.872812" lon="-7.878206">
        <ele>515.029</ele>
        <time>2013-02-16T11:37:25Z</time>
      </trkpt>
      <trkpt lat="42.872764" lon="-7.878442">
        <ele>515.000</ele>
        <time>2013-02-16T11:37:45Z</time>
      </trkpt>
      <trkpt lat="42.872741" lon="-7.878571">
        <ele>514.020</ele>
        <time>2013-02-16T11:38:05Z</time>
      </trkpt>
      <trkpt lat="42.872670" lon="-7.878785">
        <ele>512.007</ele>
        <time>2013-02-16T11:38:25Z</time>
      </trkpt>
      <trkpt lat="42.872654" lon="-7.878946">
        <ele>512.075</ele>
        <time>2013-02-16T11:38:45Z</time>
      </trkpt>
      <trkpt lat="42.872631" lon="-7.879107">
        <ele>509.021</ele>
        <time>2013-02-16T11:39:05Z</time>
      </trkpt>
      <trkpt lat="42.872607" lon="-7.879397">
        <ele>508.041</ele>
        <time>2013-02-16T11:39:25Z</time>
      </trkpt>
      <trkpt lat="42.872591" lon="-7.879547">
        <ele>508.045</ele>
        <time>2013-02-16T11:39:45Z</time>
      </trkpt>
      <trkpt lat="42.872576" lon="-7.879686">
        <ele>507.029</ele>
        <time>2013-02-16T11:40:05Z</time>
      </trkpt>
      <trkpt lat="42.872560" lon="-7.880051">
        <ele>507.052</ele>
        <time>2013-02-16T11:40:25Z</time>
      </trkpt>
      <trkpt lat="42.872536" lon="-7.880276">
        <ele>507.049</ele>
        <time>2013-02-16T11:40:45Z</time>
      </trkpt>
      <trkpt lat="42.872529" lon="-7.880480">
        <ele>508.064</ele>
        <time>2013-02-16T11:41:05Z</time>
      </trkpt>
      <trkpt lat="42.872536" lon="-7.880920">
        <ele>508.006</ele>
        <time>2013-02-16T11:41:25Z</time>
      </trkpt>
      <trkpt lat="42.872473" lon="-7.881135">
        <ele>507.016</ele>
        <time>2013-02-16T11:41:45Z</time>
      </trkpt>
      <trkpt lat="42.872434" lon="-7.881296">
        <ele>508.007</ele>
        <time>2013-02-16T11:42:05Z</time>
      </trkpt>
      <trkpt lat="42.872395" lon="-7.881478">
        <ele>508.019</ele>
        <time>2013-02-16T11:42:25Z</time>
      </trkpt>
      <trkpt lat="42.872324" lon="-7.881757">
        <ele>506.015</ele>
        <time>2013-02-16T11:42:45Z</time>
      </trkpt>
      <trkpt lat="42.872269" lon="-7.881875">
        <ele>507.055</ele>
        <time>2013-02-16T11:43:05Z</time>
      </trkpt>
      <trkpt lat="42.872167" lon="-7.882100">
        <ele>509.029</ele>
        <time>2013-02-16T11:43:25Z</time>
      </trkpt>
      <trkpt lat="42.872104" lon="-7.882229">
        <ele>509.023</ele>
        <time>2013-02-16T11:43:45Z</time>
      </trkpt>
      <trkpt lat="42.872057" lon="-7.882336">
        <ele>506.056</ele>
        <time>2013-02-16T11:44:05Z</time>
      </trkpt>
      <trkpt lat="42.871947" lon="-7.882540">
        <ele>509.093</ele>
        <time>2013-02-16T11:44:25Z</time>
      </trkpt>
      <trkpt lat="42.871915" lon="-7.882583">
        <ele>509.083</ele>
        <time>2013-02-16T11:44:45Z</time>
      </trkpt>
      <trkpt lat="42.871805" lon="-7.882712">
        <ele>509.025</ele>
        <time>2013-02-16T11:45:05Z</time>
      </trkpt>
      <trkpt lat="42.871624" lon="-7.882980">
        <ele>511.017</ele>
        <time>2013-02-16T11:45:25Z</time>
      </trkpt>
      <trkpt lat="42.871483" lon="-7.883216">
        <ele>512.007</ele>
        <time>2013-02-16T11:45:45Z</time>
      </trkpt>
      <trkpt lat="42.871396" lon="-7.883323">
        <ele>512.071</ele>
        <time>2013-02-16T11:46:05Z</time>
      </trkpt>
      <trkpt lat="42.871310" lon="-7.883484">
        <ele>514.047</ele>
        <time>2013-02-16T11:46:25Z</time>
      </trkpt>
      <trkpt lat="42.871208" lon="-7.883613">
        <ele>512.047</ele>
        <time>2013-02-16T11:46:45Z</time>
      </trkpt>
      <trkpt lat="42.871113" lon="-7.883753">
        <ele>515.031</ele>
        <time>2013-02-16T11:47:05Z</time>
      </trkpt>
      <trkpt lat="42.870987" lon="-7.883914">
        <ele>515.075</ele>
        <time>2013-02-16T11:47:25Z</time>
      </trkpt>
      <trkpt lat="42.870901" lon="-7.884042">
        <ele>517.058</ele>
        <time>2013-02-16T11:47:45Z</time>
      </trkpt>
      <trkpt lat="42.870830" lon="-7.884192">
        <ele>517.075</ele>
        <time>2013-02-16T11:48:05Z</time>
      </trkpt>
      <trkpt lat="42.870744" lon="-7.884353">
        <ele>518.052</ele>
        <time>2013-02-16T11:48:25Z</time>
      </trkpt>
      <trkpt lat="42.870523" lon="-7.884879">
        <ele>515.053</ele>
        <time>2013-02-16T11:48:45Z</time>
      </trkpt>
      <trkpt lat="42.870476" lon="-7.885201">
        <ele>516.008</ele>
        <time>2013-02-16T11:49:05Z</time>
      </trkpt>
      <trkpt lat="42.870429" lon="-7.885469">
        <ele>516.007</ele>
        <time>2013-02-16T11:49:25Z</time>
      </trkpt>
      <trkpt lat="42.870398" lon="-7.885823">
        <ele>516.088</ele>
        <time>2013-02-16T11:49:45Z</time>
      </trkpt>
      <trkpt lat="42.870390" lon="-7.886027">
        <ele>517.094</ele>
        <time>2013-02-16T11:50:05Z</time>
      </trkpt>
      <trkpt lat="42.870382" lon="-7.886317">
        <ele>519.094</ele>
        <time>2013-02-16T11:50:25Z</time>
      </trkpt>
      <trkpt lat="42.870319" lon="-7.886639">
        <ele>521.088</ele>
        <time>2013-02-16T11:50:45Z</time>
      </trkpt>
      <trkpt lat="42.870327" lon="-7.887207">
        <ele>523.062</ele>
        <time>2013-02-16T11:51:05Z</time>
      </trkpt>
      <trkpt lat="42.870303" lon="-7.887443">
        <ele>524.055</ele>
        <time>2013-02-16T11:51:25Z</time>
      </trkpt>
      <trkpt lat="42.870288" lon="-7.887808">
        <ele>525.062</ele>
        <time>2013-02-16T11:51:45Z</time>
      </trkpt>
      <trkpt lat="42.870288" lon="-7.888108">
        <ele>526.042</ele>
        <time>2013-02-16T11:52:05Z</time>
      </trkpt>
      <trkpt lat="42.870272" lon="-7.888312">
        <ele>528.022</ele>
        <time>2013-02-16T11:52:25Z</time>
      </trkpt>
      <trkpt lat="42.870256" lon="-7.888827">
        <ele>527.014</ele>
        <time>2013-02-16T11:52:45Z</time>
      </trkpt>
      <trkpt lat="42.870256" lon="-7.889053">
        <ele>526.007</ele>
        <time>2013-02-16T11:53:05Z</time>
      </trkpt>
      <trkpt lat="42.870264" lon="-7.889256">
        <ele>526.097</ele>
        <time>2013-02-16T11:53:25Z</time>
      </trkpt>
      <trkpt lat="42.870256" lon="-7.889546">
        <ele>526.023</ele>
        <time>2013-02-16T11:53:45Z</time>
      </trkpt>
      <trkpt lat="42.870256" lon="-7.889729">
        <ele>525.093</ele>
        <time>2013-02-16T11:54:05Z</time>
      </trkpt>
      <trkpt lat="42.870256" lon="-7.889857">
        <ele>525.027</ele>
        <time>2013-02-16T11:54:25Z</time>
      </trkpt>
      <trkpt lat="42.870288" lon="-7.890179">
        <ele>523.021</ele>
        <time>2013-02-16T11:54:45Z</time>
      </trkpt>
      <trkpt lat="42.870303" lon="-7.890340">
        <ele>523.024</ele>
        <time>2013-02-16T11:55:05Z</time>
      </trkpt>
      <trkpt lat="42.870288" lon="-7.890640">
        <ele>521.021</ele>
        <time>2013-02-16T11:55:25Z</time>
      </trkpt>
      <trkpt lat="42.870248" lon="-7.890801">
        <ele>519.022</ele>
        <time>2013-02-16T11:55:45Z</time>
      </trkpt>
      <trkpt lat="42.870288" lon="-7.891198">
        <ele>517.062</ele>
        <time>2013-02-16T11:56:05Z</time>
      </trkpt>
      <trkpt lat="42.870295" lon="-7.891231">
        <ele>517.008</ele>
        <time>2013-02-16T11:56:25Z</time>
      </trkpt>
      <trkpt lat="42.870307" lon="-7.891359">
        <ele>516.007</ele>
        <time>2013-02-16T11:56:45Z</time>
      </trkpt>
      <trkpt lat="42.870346" lon="-7.891445">
        <ele>516.045</ele>
        <time>2013-02-16T11:57:05Z</time>
      </trkpt>
      <trkpt lat="42.870386" lon="-7.891542">
        <ele>515.051</ele>
        <time>2013-02-16T11:57:25Z</time>
      </trkpt>
      <trkpt lat="42.870413" lon="-7.891638">
        <ele>515.091</ele>
        <time>2013-02-16T11:57:45Z</time>
      </trkpt>
      <trkpt lat="42.870456" lon="-7.891788">
        <ele>517.075</ele>
        <time>2013-02-16T11:58:05Z</time>
      </trkpt>
      <trkpt lat="42.870484" lon="-7.891853">
        <ele>516.079</ele>
        <time>2013-02-16T11:58:25Z</time>
      </trkpt>
      <trkpt lat="42.870519" lon="-7.891987">
        <ele>516.032</ele>
        <time>2013-02-16T11:58:45Z</time>
      </trkpt>
      <trkpt lat="42.870535" lon="-7.892062">
        <ele>516.069</ele>
        <time>2013-02-16T11:59:05Z</time>
      </trkpt>
      <trkpt lat="42.870559" lon="-7.892261">
        <ele>516.068</ele>
        <time>2013-02-16T11:59:25Z</time>
      </trkpt>
      <trkpt lat="42.870598" lon="-7.892443">
        <ele>516.042</ele>
        <time>2013-02-16T11:59:45Z</time>
      </trkpt>
      <trkpt lat="42.870622" lon="-7.892540">
        <ele>516.026</ele>
        <time>2013-02-16T12:00:05Z</time>
      </trkpt>
      <trkpt lat="42.870653" lon="-7.892690">
        <ele>515.007</ele>
        <time>2013-02-16T12:00:25Z</time>
      </trkpt>
      <trkpt lat="42.870661" lon="-7.892770">
        <ele>515.059</ele>
        <time>2013-02-16T12:00:45Z</time>
      </trkpt>
      <trkpt lat="42.870712" lon="-7.892947">
        <ele>516.025</ele>
        <time>2013-02-16T12:01:05Z</time>
      </trkpt>
      <trkpt lat="42.870732" lon="-7.893140">
        <ele>516.035</ele>
        <time>2013-02-16T12:01:25Z</time>
      </trkpt>
      <trkpt lat="42.870740" lon="-7.893253">
        <ele>515.069</ele>
        <time>2013-02-16T12:01:45Z</time>
      </trkpt>
      <trkpt lat="42.870763" lon="-7.893451">
        <ele>515.013</ele>
        <time>2013-02-16T12:02:05Z</time>
      </trkpt>
      <trkpt lat="42.870787" lon="-7.893655">
        <ele>514.036</ele>
        <time>2013-02-16T12:02:25Z</time>
      </trkpt>
      <trkpt lat="42.870795" lon="-7.893773">
        <ele>513.063</ele>
        <time>2013-02-16T12:02:45Z</time>
      </trkpt>
      <trkpt lat="42.870791" lon="-7.893897">
        <ele>513.015</ele>
        <time>2013-02-16T12:03:05Z</time>
      </trkpt>
      <trkpt lat="42.870783" lon="-7.894042">
        <ele>513.065</ele>
        <time>2013-02-16T12:03:25Z</time>
      </trkpt>
      <trkpt lat="42.870783" lon="-7.894133">
        <ele>513.011</ele>
        <time>2013-02-16T12:03:45Z</time>
      </trkpt>
      <trkpt lat="42.870818" lon="-7.894240">
        <ele>513.007</ele>
        <time>2013-02-16T12:04:05Z</time>
      </trkpt>
      <trkpt lat="42.870846" lon="-7.894326">
        <ele>513.054</ele>
        <time>2013-02-16T12:04:25Z</time>
      </trkpt>
      <trkpt lat="42.870885" lon="-7.894503">
        <ele>513.040</ele>
        <time>2013-02-16T12:04:45Z</time>
      </trkpt>
      <trkpt lat="42.870905" lon="-7.894610">
        <ele>513.050</ele>
        <time>2013-02-16T12:05:05Z</time>
      </trkpt>
      <trkpt lat="42.870952" lon="-7.894862">
        <ele>511.074</ele>
        <time>2013-02-16T12:05:25Z</time>
      </trkpt>
      <trkpt lat="42.870987" lon="-7.894996">
        <ele>512.028</ele>
        <time>2013-02-16T12:05:45Z</time>
      </trkpt>
      <trkpt lat="42.871019" lon="-7.895147">
        <ele>508.011</ele>
        <time>2013-02-16T12:06:05Z</time>
      </trkpt>
      <trkpt lat="42.871034" lon="-7.895211">
        <ele>508.058</ele>
        <time>2013-02-16T12:06:25Z</time>
      </trkpt>
      <trkpt lat="42.871101" lon="-7.895517">
        <ele>505.073</ele>
        <time>2013-02-16T12:06:45Z</time>
      </trkpt>
      <trkpt lat="42.871125" lon="-7.895710">
        <ele>503.085</ele>
        <time>2013-02-16T12:07:05Z</time>
      </trkpt>
      <trkpt lat="42.871160" lon="-7.895876">
        <ele>503.013</ele>
        <time>2013-02-16T12:07:25Z</time>
      </trkpt>
      <trkpt lat="42.871231" lon="-7.896010">
        <ele>500.007</ele>
        <time>2013-02-16T12:07:45Z</time>
      </trkpt>
      <trkpt lat="42.871302" lon="-7.896219">
        <ele>502.030</ele>
        <time>2013-02-16T12:08:05Z</time>
      </trkpt>
      <trkpt lat="42.871321" lon="-7.896316">
        <ele>499.036</ele>
        <time>2013-02-16T12:08:25Z</time>
      </trkpt>
      <trkpt lat="42.871341" lon="-7.896477">
        <ele>499.096</ele>
        <time>2013-02-16T12:08:45Z</time>
      </trkpt>
      <trkpt lat="42.871353" lon="-7.896638">
        <ele>498.030</ele>
        <time>2013-02-16T12:09:05Z</time>
      </trkpt>
      <trkpt lat="42.871380" lon="-7.896756">
        <ele>498.044</ele>
        <time>2013-02-16T12:09:25Z</time>
      </trkpt>
      <trkpt lat="42.871396" lon="-7.896879">
        <ele>496.017</ele>
        <time>2013-02-16T12:09:45Z</time>
      </trkpt>
      <trkpt lat="42.871428" lon="-7.897019">
        <ele>496.034</ele>
        <time>2013-02-16T12:10:05Z</time>
      </trkpt>
      <trkpt lat="42.871443" lon="-7.897099">
        <ele>495.085</ele>
        <time>2013-02-16T12:10:25Z</time>
      </trkpt>
      <trkpt lat="42.871475" lon="-7.897185">
        <ele>495.089</ele>
        <time>2013-02-16T12:10:45Z</time>
      </trkpt>
      <trkpt lat="42.871510" lon="-7.897282">
        <ele>495.017</ele>
        <time>2013-02-16T12:11:05Z</time>
      </trkpt>
      <trkpt lat="42.871534" lon="-7.897384">
        <ele>495.007</ele>
        <time>2013-02-16T12:11:25Z</time>
      </trkpt>
      <trkpt lat="42.871553" lon="-7.897496">
        <ele>495.011</ele>
        <time>2013-02-16T12:11:45Z</time>
      </trkpt>
      <trkpt lat="42.871577" lon="-7.897555">
        <ele>495.077</ele>
        <time>2013-02-16T12:12:05Z</time>
      </trkpt>
      <trkpt lat="42.871612" lon="-7.897636">
        <ele>495.077</ele>
        <time>2013-02-16T12:12:25Z</time>
      </trkpt>
      <trkpt lat="42.871656" lon="-7.897716">
        <ele>494.081</ele>
        <time>2013-02-16T12:12:45Z</time>
      </trkpt>
      <trkpt lat="42.871722" lon="-7.897829">
        <ele>494.085</ele>
        <time>2013-02-16T12:13:05Z</time>
      </trkpt>
      <trkpt lat="42.871789" lon="-7.897958">
        <ele>493.048</ele>
        <time>2013-02-16T12:13:25Z</time>
      </trkpt>
      <trkpt lat="42.871809" lon="-7.898017">
        <ele>494.065</ele>
        <time>2013-02-16T12:13:45Z</time>
      </trkpt>
      <trkpt lat="42.871884" lon="-7.898108">
        <ele>494.062</ele>
        <time>2013-02-16T12:14:05Z</time>
      </trkpt>
      <trkpt lat="42.871966" lon="-7.898188">
        <ele>494.083</ele>
        <time>2013-02-16T12:14:25Z</time>
      </trkpt>
      <trkpt lat="42.872088" lon="-7.898285">
        <ele>496.011</ele>
        <time>2013-02-16T12:14:45Z</time>
      </trkpt>
      <trkpt lat="42.872422" lon="-7.898633">
        <ele>497.007</ele>
        <time>2013-02-16T12:15:05Z</time>
      </trkpt>
      <trkpt lat="42.872544" lon="-7.898735">
        <ele>497.099</ele>
        <time>2013-02-16T12:15:25Z</time>
      </trkpt>
      <trkpt lat="42.872599" lon="-7.898821">
        <ele>494.065</ele>
        <time>2013-02-16T12:15:45Z</time>
      </trkpt>
      <trkpt lat="42.872670" lon="-7.898864">
        <ele>495.045</ele>
        <time>2013-02-16T12:16:05Z</time>
      </trkpt>
      <trkpt lat="42.872921" lon="-7.899100">
        <ele>493.019</ele>
        <time>2013-02-16T12:16:25Z</time>
      </trkpt>
      <trkpt lat="42.873035" lon="-7.899197">
        <ele>493.083</ele>
        <time>2013-02-16T12:16:45Z</time>
      </trkpt>
      <trkpt lat="42.873153" lon="-7.899336">
        <ele>491.036</ele>
        <time>2013-02-16T12:17:05Z</time>
      </trkpt>
      <trkpt lat="42.873220" lon="-7.899449">
        <ele>493.033</ele>
        <time>2013-02-16T12:17:25Z</time>
      </trkpt>
      <trkpt lat="42.873295" lon="-7.899551">
        <ele>493.064</ele>
        <time>2013-02-16T12:17:45Z</time>
      </trkpt>
      <trkpt lat="42.873358" lon="-7.899621">
        <ele>491.006</ele>
        <time>2013-02-16T12:18:05Z</time>
      </trkpt>
      <trkpt lat="42.873381" lon="-7.899653">
        <ele>491.016</ele>
        <time>2013-02-16T12:18:25Z</time>
      </trkpt>
      <trkpt lat="42.873464" lon="-7.899792">
        <ele>491.007</ele>
        <time>2013-02-16T12:18:45Z</time>
      </trkpt>
      <trkpt lat="42.873550" lon="-7.899894">
        <ele>492.089</ele>
        <time>2013-02-16T12:19:05Z</time>
      </trkpt>
      <trkpt lat="42.873684" lon="-7.900232">
        <ele>492.095</ele>
        <time>2013-02-16T12:19:25Z</time>
      </trkpt>
      <trkpt lat="42.873727" lon="-7.900345">
        <ele>492.045</ele>
        <time>2013-02-16T12:19:45Z</time>
      </trkpt>
      <trkpt lat="42.873845" lon="-7.900624">
        <ele>491.099</ele>
        <time>2013-02-16T12:20:05Z</time>
      </trkpt>
      <trkpt lat="42.873920" lon="-7.900806">
        <ele>490.033</ele>
        <time>2013-02-16T12:20:25Z</time>
      </trkpt>
      <trkpt lat="42.873975" lon="-7.900919">
        <ele>490.066</ele>
        <time>2013-02-16T12:20:45Z</time>
      </trkpt>
      <trkpt lat="42.874290" lon="-7.901359">
        <ele>485.093</ele>
        <time>2013-02-16T12:21:05Z</time>
      </trkpt>
      <trkpt lat="42.874282" lon="-7.901396">
        <ele>485.081</ele>
        <time>2013-02-16T12:21:25Z</time>
      </trkpt>
      <trkpt lat="42.874368" lon="-7.901482">
        <ele>484.061</ele>
        <time>2013-02-16T12:21:45Z</time>
      </trkpt>
      <trkpt lat="42.874419" lon="-7.901584">
        <ele>480.017</ele>
        <time>2013-02-16T12:22:05Z</time>
      </trkpt>
      <trkpt lat="42.874510" lon="-7.901756">
        <ele>480.007</ele>
        <time>2013-02-16T12:22:25Z</time>
      </trkpt>
      <trkpt lat="42.874549" lon="-7.901825">
        <ele>477.071</ele>
        <time>2013-02-16T12:22:45Z</time>
      </trkpt>
      <trkpt lat="42.874525" lon="-7.901938">
        <ele>477.027</ele>
        <time>2013-02-16T12:23:05Z</time>
      </trkpt>
      <trkpt lat="42.874510" lon="-7.902313">
        <ele>473.027</ele>
        <time>2013-02-16T12:23:25Z</time>
      </trkpt>
      <trkpt lat="42.874525" lon="-7.902474">
        <ele>470.061</ele>
        <time>2013-02-16T12:23:45Z</time>
      </trkpt>
      <trkpt lat="42.874545" lon="-7.902571">
        <ele>470.095</ele>
        <time>2013-02-16T12:24:05Z</time>
      </trkpt>
      <trkpt lat="42.874545" lon="-7.902737">
        <ele>467.018</ele>
        <time>2013-02-16T12:24:25Z</time>
      </trkpt>
      <trkpt lat="42.874514" lon="-7.902882">
        <ele>467.085</ele>
        <time>2013-02-16T12:24:45Z</time>
      </trkpt>
      <trkpt lat="42.874474" lon="-7.902941">
        <ele>465.059</ele>
        <time>2013-02-16T12:25:05Z</time>
      </trkpt>
      <trkpt lat="42.874478" lon="-7.902957">
        <ele>465.003</ele>
        <time>2013-02-16T12:25:25Z</time>
      </trkpt>
      <trkpt lat="42.874431" lon="-7.903075">
        <ele>465.023</ele>
        <time>2013-02-16T12:25:45Z</time>
      </trkpt>
      <trkpt lat="42.874431" lon="-7.903231">
        <ele>463.007</ele>
        <time>2013-02-16T12:26:05Z</time>
      </trkpt>
      <trkpt lat="42.874470" lon="-7.903295">
        <ele>463.018</ele>
        <time>2013-02-16T12:26:25Z</time>
      </trkpt>
      <trkpt lat="42.874506" lon="-7.903408">
        <ele>463.024</ele>
        <time>2013-02-16T12:26:45Z</time>
      </trkpt>
      <trkpt lat="42.874533" lon="-7.903467">
        <ele>463.084</ele>
        <time>2013-02-16T12:27:05Z</time>
      </trkpt>
      <trkpt lat="42.874522" lon="-7.903676">
        <ele>461.088</ele>
        <time>2013-02-16T12:27:25Z</time>
      </trkpt>
      <trkpt lat="42.874502" lon="-7.903773">
        <ele>459.052</ele>
        <time>2013-02-16T12:27:45Z</time>
      </trkpt>
      <trkpt lat="42.874459" lon="-7.903858">
        <ele>459.025</ele>
        <time>2013-02-16T12:28:05Z</time>
      </trkpt>
      <trkpt lat="42.874423" lon="-7.903928">
        <ele>459.012</ele>
        <time>2013-02-16T12:28:25Z</time>
      </trkpt>
      <trkpt lat="42.874435" lon="-7.904121">
        <ele>457.023</ele>
        <time>2013-02-16T12:28:45Z</time>
      </trkpt>
      <trkpt lat="42.874443" lon="-7.904212">
        <ele>457.083</ele>
        <time>2013-02-16T12:29:05Z</time>
      </trkpt>
      <trkpt lat="42.874478" lon="-7.904304">
        <ele>457.011</ele>
        <time>2013-02-16T12:29:25Z</time>
      </trkpt>
      <trkpt lat="42.874529" lon="-7.904384">
        <ele>456.007</ele>
        <time>2013-02-16T12:29:45Z</time>
      </trkpt>
      <trkpt lat="42.874789" lon="-7.904561">
        <ele>455.015</ele>
        <time>2013-02-16T12:30:05Z</time>
      </trkpt>
      <trkpt lat="42.874860" lon="-7.904593">
        <ele>454.021</ele>
        <time>2013-02-16T12:30:25Z</time>
      </trkpt>
      <trkpt lat="42.874915" lon="-7.904685">
        <ele>454.071</ele>
        <time>2013-02-16T12:30:45Z</time>
      </trkpt>
      <trkpt lat="42.874966" lon="-7.904862">
        <ele>454.065</ele>
        <time>2013-02-16T12:31:05Z</time>
      </trkpt>
      <trkpt lat="42.875005" lon="-7.905001">
        <ele>454.099</ele>
        <time>2013-02-16T12:31:25Z</time>
      </trkpt>
      <trkpt lat="42.875052" lon="-7.905124">
        <ele>454.022</ele>
        <time>2013-02-16T12:31:45Z</time>
      </trkpt>
      <trkpt lat="42.875103" lon="-7.905291">
        <ele>454.019</ele>
        <time>2013-02-16T12:32:05Z</time>
      </trkpt>
      <trkpt lat="42.875123" lon="-7.905419">
        <ele>455.093</ele>
        <time>2013-02-16T12:32:25Z</time>
      </trkpt>
      <trkpt lat="42.875131" lon="-7.905645">
        <ele>455.065</ele>
        <time>2013-02-16T12:32:45Z</time>
      </trkpt>
      <trkpt lat="42.875139" lon="-7.905784">
        <ele>455.021</ele>
        <time>2013-02-16T12:33:05Z</time>
      </trkpt>
      <trkpt lat="42.875206" lon="-7.906122">
        <ele>457.007</ele>
        <time>2013-02-16T12:33:25Z</time>
      </trkpt>
      <trkpt lat="42.875217" lon="-7.906197">
        <ele>457.082</ele>
        <time>2013-02-16T12:33:45Z</time>
      </trkpt>
      <trkpt lat="42.875233" lon="-7.906439">
        <ele>456.048</ele>
        <time>2013-02-16T12:34:05Z</time>
      </trkpt>
      <trkpt lat="42.875331" lon="-7.906825">
        <ele>454.038</ele>
        <time>2013-02-16T12:34:25Z</time>
      </trkpt>
      <trkpt lat="42.875355" lon="-7.906970">
        <ele>454.072</ele>
        <time>2013-02-16T12:34:45Z</time>
      </trkpt>
      <trkpt lat="42.875382" lon="-7.907233">
        <ele>453.086</ele>
        <time>2013-02-16T12:35:05Z</time>
      </trkpt>
      <trkpt lat="42.875410" lon="-7.907458">
        <ele>452.049</ele>
        <time>2013-02-16T12:35:25Z</time>
      </trkpt>
      <trkpt lat="42.875453" lon="-7.907581">
        <ele>455.066</ele>
        <time>2013-02-16T12:35:45Z</time>
      </trkpt>
      <trkpt lat="42.875516" lon="-7.907758">
        <ele>454.086</ele>
        <time>2013-02-16T12:36:05Z</time>
      </trkpt>
      <trkpt lat="42.875575" lon="-7.907973">
        <ele>454.060</ele>
        <time>2013-02-16T12:36:25Z</time>
      </trkpt>
      <trkpt lat="42.875626" lon="-7.908236">
        <ele>453.026</ele>
        <time>2013-02-16T12:36:45Z</time>
      </trkpt>
      <trkpt lat="42.875685" lon="-7.908407">
        <ele>453.007</ele>
        <time>2013-02-16T12:37:05Z</time>
      </trkpt>
      <trkpt lat="42.875740" lon="-7.908579">
        <ele>454.051</ele>
        <time>2013-02-16T12:37:25Z</time>
      </trkpt>
      <trkpt lat="42.875772" lon="-7.908660">
        <ele>454.037</ele>
        <time>2013-02-16T12:37:45Z</time>
      </trkpt>
      <trkpt lat="42.875819" lon="-7.908783">
        <ele>454.087</ele>
        <time>2013-02-16T12:38:05Z</time>
      </trkpt>
      <trkpt lat="42.875897" lon="-7.908906">
        <ele>454.031</ele>
        <time>2013-02-16T12:38:25Z</time>
      </trkpt>
      <trkpt lat="42.875941" lon="-7.908998">
        <ele>454.035</ele>
        <time>2013-02-16T12:38:45Z</time>
      </trkpt>
      <trkpt lat="42.875992" lon="-7.909051">
        <ele>456.098</ele>
        <time>2013-02-16T12:39:05Z</time>
      </trkpt>
      <trkpt lat="42.876138" lon="-7.909255">
        <ele>456.025</ele>
        <time>2013-02-16T12:39:25Z</time>
      </trkpt>
      <trkpt lat="42.876342" lon="-7.909384">
        <ele>458.055</ele>
        <time>2013-02-16T12:39:45Z</time>
      </trkpt>
      <trkpt lat="42.876437" lon="-7.909534">
        <ele>458.007</ele>
        <time>2013-02-16T12:40:05Z</time>
      </trkpt>
      <trkpt lat="42.876578" lon="-7.909770">
        <ele>458.017</ele>
        <time>2013-02-16T12:40:25Z</time>
      </trkpt>
      <trkpt lat="42.876657" lon="-7.909963">
        <ele>456.007</ele>
        <time>2013-02-16T12:40:45Z</time>
      </trkpt>
      <trkpt lat="42.876720" lon="-7.910156">
        <ele>454.098</ele>
        <time>2013-02-16T12:41:05Z</time>
      </trkpt>
      <trkpt lat="42.876830" lon="-7.910457">
        <ele>451.084</ele>
        <time>2013-02-16T12:41:25Z</time>
      </trkpt>
      <trkpt lat="42.877066" lon="-7.910843">
        <ele>449.094</ele>
        <time>2013-02-16T12:41:45Z</time>
      </trkpt>
      <trkpt lat="42.877176" lon="-7.911036">
        <ele>443.038</ele>
        <time>2013-02-16T12:42:05Z</time>
      </trkpt>
      <trkpt lat="42.877270" lon="-7.911444">
        <ele>440.092</ele>
        <time>2013-02-16T12:42:25Z</time>
      </trkpt>
      <trkpt lat="42.877364" lon="-7.911658">
        <ele>434.015</ele>
        <time>2013-02-16T12:42:45Z</time>
      </trkpt>
      <trkpt lat="42.877474" lon="-7.911959">
        <ele>430.022</ele>
        <time>2013-02-16T12:43:05Z</time>
      </trkpt>
      <trkpt lat="42.877569" lon="-7.912259">
        <ele>426.029</ele>
        <time>2013-02-16T12:43:25Z</time>
      </trkpt>
      <trkpt lat="42.877679" lon="-7.912517">
        <ele>420.000</ele>
        <time>2013-02-16T12:43:45Z</time>
      </trkpt>
      <trkpt lat="42.877757" lon="-7.912688">
        <ele>416.020</ele>
        <time>2013-02-16T12:44:05Z</time>
      </trkpt>
      <trkpt lat="42.877883" lon="-7.913053">
        <ele>414.007</ele>
        <time>2013-02-16T12:44:25Z</time>
      </trkpt>
      <trkpt lat="42.877962" lon="-7.913203">
        <ele>413.035</ele>
        <time>2013-02-16T12:44:45Z</time>
      </trkpt>
      <trkpt lat="42.877914" lon="-7.913235">
        <ele>412.031</ele>
        <time>2013-02-16T12:45:05Z</time>
      </trkpt>
      <trkpt lat="42.877891" lon="-7.913375">
        <ele>412.081</ele>
        <time>2013-02-16T12:45:25Z</time>
      </trkpt>
      <trkpt lat="42.877930" lon="-7.913504">
        <ele>413.015</ele>
        <time>2013-02-16T12:45:45Z</time>
      </trkpt>
      <trkpt lat="42.878001" lon="-7.913622">
        <ele>413.099</ele>
        <time>2013-02-16T12:46:05Z</time>
      </trkpt>
      <trkpt lat="42.878056" lon="-7.913740">
        <ele>413.082</ele>
        <time>2013-02-16T12:46:25Z</time>
      </trkpt>
      <trkpt lat="42.878056" lon="-7.913944">
        <ele>414.029</ele>
        <time>2013-02-16T12:46:45Z</time>
      </trkpt>
      <trkpt lat="42.878111" lon="-7.914088">
        <ele>415.096</ele>
        <time>2013-02-16T12:47:05Z</time>
      </trkpt>
      <trkpt lat="42.878217" lon="-7.914287">
        <ele>417.031</ele>
        <time>2013-02-16T12:47:25Z</time>
      </trkpt>
      <trkpt lat="42.878429" lon="-7.914464">
        <ele>419.024</ele>
        <time>2013-02-16T12:47:45Z</time>
      </trkpt>
      <trkpt lat="42.878551" lon="-7.914534">
        <ele>420.007</ele>
        <time>2013-02-16T12:48:05Z</time>
      </trkpt>
      <trkpt lat="42.878696" lon="-7.914657">
        <ele>422.092</ele>
        <time>2013-02-16T12:48:25Z</time>
      </trkpt>
      <trkpt lat="42.878873" lon="-7.914936">
        <ele>424.058</ele>
        <time>2013-02-16T12:48:45Z</time>
      </trkpt>
      <trkpt lat="42.878920" lon="-7.915000">
        <ele>424.078</ele>
        <time>2013-02-16T12:49:05Z</time>
      </trkpt>
      <trkpt lat="42.879042" lon="-7.915290">
        <ele>428.022</ele>
        <time>2013-02-16T12:49:25Z</time>
      </trkpt>
      <trkpt lat="42.879097" lon="-7.915628">
        <ele>430.016</ele>
        <time>2013-02-16T12:49:45Z</time>
      </trkpt>
      <trkpt lat="42.879109" lon="-7.915816">
        <ele>430.099</ele>
        <time>2013-02-16T12:50:05Z</time>
      </trkpt>
      <trkpt lat="42.879093" lon="-7.916036">
        <ele>431.086</ele>
        <time>2013-02-16T12:50:25Z</time>
      </trkpt>
      <trkpt lat="42.879086" lon="-7.916068">
        <ele>431.049</ele>
        <time>2013-02-16T12:50:45Z</time>
      </trkpt>
      <trkpt lat="42.879086" lon="-7.916197">
        <ele>431.002</ele>
        <time>2013-02-16T12:51:05Z</time>
      </trkpt>
      <trkpt lat="42.879141" lon="-7.916400">
        <ele>431.022</ele>
        <time>2013-02-16T12:51:25Z</time>
      </trkpt>
      <trkpt lat="42.879172" lon="-7.916518">
        <ele>431.007</ele>
        <time>2013-02-16T12:51:45Z</time>
      </trkpt>
      <trkpt lat="42.879204" lon="-7.916626">
        <ele>432.077</ele>
        <time>2013-02-16T12:52:05Z</time>
      </trkpt>
      <trkpt lat="42.879259" lon="-7.916851">
        <ele>432.083</ele>
        <time>2013-02-16T12:52:25Z</time>
      </trkpt>
      <trkpt lat="42.879322" lon="-7.917076">
        <ele>430.043</ele>
        <time>2013-02-16T12:52:45Z</time>
      </trkpt>
      <trkpt lat="42.879447" lon="-7.917377">
        <ele>431.067</ele>
        <time>2013-02-16T12:53:05Z</time>
      </trkpt>
      <trkpt lat="42.879565" lon="-7.917849">
        <ele>435.051</ele>
        <time>2013-02-16T12:53:25Z</time>
      </trkpt>
      <trkpt lat="42.879644" lon="-7.918074">
        <ele>437.054</ele>
        <time>2013-02-16T12:53:45Z</time>
      </trkpt>
      <trkpt lat="42.879691" lon="-7.918342">
        <ele>441.071</ele>
        <time>2013-02-16T12:54:05Z</time>
      </trkpt>
      <trkpt lat="42.879762" lon="-7.918568">
        <ele>443.088</ele>
        <time>2013-02-16T12:54:25Z</time>
      </trkpt>
      <trkpt lat="42.879801" lon="-7.918772">
        <ele>444.024</ele>
        <time>2013-02-16T12:54:45Z</time>
      </trkpt>
      <trkpt lat="42.879880" lon="-7.919126">
        <ele>443.026</ele>
        <time>2013-02-16T12:55:05Z</time>
      </trkpt>
      <trkpt lat="42.879943" lon="-7.919694">
        <ele>443.007</ele>
        <time>2013-02-16T12:55:25Z</time>
      </trkpt>
      <trkpt lat="42.879943" lon="-7.919780">
        <ele>443.061</ele>
        <time>2013-02-16T12:55:45Z</time>
      </trkpt>
      <trkpt lat="42.879943" lon="-7.920123">
        <ele>444.087</ele>
        <time>2013-02-16T12:56:05Z</time>
      </trkpt>
      <trkpt lat="42.879966" lon="-7.920295">
        <ele>447.087</ele>
        <time>2013-02-16T12:56:25Z</time>
      </trkpt>
      <trkpt lat="42.879982" lon="-7.920617">
        <ele>449.061</ele>
        <time>2013-02-16T12:56:45Z</time>
      </trkpt>
      <trkpt lat="42.879982" lon="-7.920789">
        <ele>452.055</ele>
        <time>2013-02-16T12:57:05Z</time>
      </trkpt>
      <trkpt lat="42.879982" lon="-7.920982">
        <ele>454.048</ele>
        <time>2013-02-16T12:57:25Z</time>
      </trkpt>
      <trkpt lat="42.879966" lon="-7.921218">
        <ele>454.035</ele>
        <time>2013-02-16T12:57:45Z</time>
      </trkpt>
      <trkpt lat="42.879943" lon="-7.921314">
        <ele>457.018</ele>
        <time>2013-02-16T12:58:05Z</time>
      </trkpt>
      <trkpt lat="42.879951" lon="-7.921368">
        <ele>457.098</ele>
        <time>2013-02-16T12:58:25Z</time>
      </trkpt>
      <trkpt lat="42.879919" lon="-7.921658">
        <ele>459.017</ele>
        <time>2013-02-16T12:58:45Z</time>
      </trkpt>
      <trkpt lat="42.879864" lon="-7.922044">
        <ele>459.007</ele>
        <time>2013-02-16T12:59:05Z</time>
      </trkpt>
      <trkpt lat="42.879841" lon="-7.922205">
        <ele>458.034</ele>
        <time>2013-02-16T12:59:25Z</time>
      </trkpt>
      <trkpt lat="42.879778" lon="-7.922312">
        <ele>458.040</ele>
        <time>2013-02-16T12:59:45Z</time>
      </trkpt>
      <trkpt lat="42.879738" lon="-7.922548">
        <ele>459.070</ele>
        <time>2013-02-16T13:00:05Z</time>
      </trkpt>
      <trkpt lat="42.879668" lon="-7.922806">
        <ele>462.054</ele>
        <time>2013-02-16T13:00:25Z</time>
      </trkpt>
      <trkpt lat="42.879589" lon="-7.923074">
        <ele>464.058</ele>
        <time>2013-02-16T13:00:45Z</time>
      </trkpt>
      <trkpt lat="42.879526" lon="-7.923363">
        <ele>466.081</ele>
        <time>2013-02-16T13:01:05Z</time>
      </trkpt>
      <trkpt lat="42.879463" lon="-7.923803">
        <ele>468.018</ele>
        <time>2013-02-16T13:01:25Z</time>
      </trkpt>
      <trkpt lat="42.879369" lon="-7.924136">
        <ele>469.028</ele>
        <time>2013-02-16T13:01:45Z</time>
      </trkpt>
      <trkpt lat="42.879345" lon="-7.924351">
        <ele>470.089</ele>
        <time>2013-02-16T13:02:05Z</time>
      </trkpt>
      <trkpt lat="42.879330" lon="-7.924865">
        <ele>469.017</ele>
        <time>2013-02-16T13:02:25Z</time>
      </trkpt>
      <trkpt lat="42.879314" lon="-7.925295">
        <ele>469.007</ele>
        <time>2013-02-16T13:02:45Z</time>
      </trkpt>
      <trkpt lat="42.879282" lon="-7.925477">
        <ele>468.045</ele>
        <time>2013-02-16T13:03:05Z</time>
      </trkpt>
      <trkpt lat="42.879243" lon="-7.925842">
        <ele>467.041</ele>
        <time>2013-02-16T13:03:25Z</time>
      </trkpt>
      <trkpt lat="42.879180" lon="-7.925960">
        <ele>467.011</ele>
        <time>2013-02-16T13:03:45Z</time>
      </trkpt>
      <trkpt lat="42.879070" lon="-7.926282">
        <ele>469.015</ele>
        <time>2013-02-16T13:04:05Z</time>
      </trkpt>
      <trkpt lat="42.878976" lon="-7.926475">
        <ele>467.039</ele>
        <time>2013-02-16T13:04:25Z</time>
      </trkpt>
      <trkpt lat="42.878936" lon="-7.926689">
        <ele>468.052</ele>
        <time>2013-02-16T13:04:45Z</time>
      </trkpt>
      <trkpt lat="42.878803" lon="-7.926936">
        <ele>470.029</ele>
        <time>2013-02-16T13:05:05Z</time>
      </trkpt>
      <trkpt lat="42.878763" lon="-7.927161">
        <ele>471.066</ele>
        <time>2013-02-16T13:05:25Z</time>
      </trkpt>
      <trkpt lat="42.878724" lon="-7.927344">
        <ele>470.029</ele>
        <time>2013-02-16T13:05:45Z</time>
      </trkpt>
      <trkpt lat="42.878724" lon="-7.927644">
        <ele>473.021</ele>
        <time>2013-02-16T13:06:05Z</time>
      </trkpt>
      <trkpt lat="42.878732" lon="-7.927880">
        <ele>473.007</ele>
        <time>2013-02-16T13:06:25Z</time>
      </trkpt>
      <trkpt lat="42.878740" lon="-7.928234">
        <ele>475.089</ele>
        <time>2013-02-16T13:06:45Z</time>
      </trkpt>
      <trkpt lat="42.878740" lon="-7.928417">
        <ele>475.095</ele>
        <time>2013-02-16T13:07:05Z</time>
      </trkpt>
      <trkpt lat="42.878748" lon="-7.928621">
        <ele>477.045</ele>
        <time>2013-02-16T13:07:25Z</time>
      </trkpt>
      <trkpt lat="42.878795" lon="-7.929028">
        <ele>482.089</ele>
        <time>2013-02-16T13:07:45Z</time>
      </trkpt>
      <trkpt lat="42.878834" lon="-7.929254">
        <ele>482.073</ele>
        <time>2013-02-16T13:08:05Z</time>
      </trkpt>
      <trkpt lat="42.878866" lon="-7.929382">
        <ele>484.086</ele>
        <time>2013-02-16T13:08:25Z</time>
      </trkpt>
      <trkpt lat="42.878929" lon="-7.929608">
        <ele>486.073</ele>
        <time>2013-02-16T13:08:45Z</time>
      </trkpt>
      <trkpt lat="42.878999" lon="-7.929801">
        <ele>486.087</ele>
        <time>2013-02-16T13:09:05Z</time>
      </trkpt>
      <trkpt lat="42.879031" lon="-7.929919">
        <ele>489.042</ele>
        <time>2013-02-16T13:09:25Z</time>
      </trkpt>
      <trkpt lat="42.879078" lon="-7.930123">
        <ele>489.026</ele>
        <time>2013-02-16T13:09:45Z</time>
      </trkpt>
      <trkpt lat="42.879109" lon="-7.930337">
        <ele>490.007</ele>
        <time>2013-02-16T13:10:05Z</time>
      </trkpt>
      <trkpt lat="42.879125" lon="-7.930552">
        <ele>491.021</ele>
        <time>2013-02-16T13:10:25Z</time>
      </trkpt>
      <trkpt lat="42.879133" lon="-7.930799">
        <ele>492.077</ele>
        <time>2013-02-16T13:10:45Z</time>
      </trkpt>
      <trkpt lat="42.879133" lon="-7.930938">
        <ele>492.067</ele>
        <time>2013-02-16T13:11:05Z</time>
      </trkpt>
      <trkpt lat="42.879157" lon="-7.931013">
        <ele>493.031</ele>
        <time>2013-02-16T13:11:25Z</time>
      </trkpt>
      <trkpt lat="42.879361" lon="-7.931260">
        <ele>493.055</ele>
        <time>2013-02-16T13:11:45Z</time>
      </trkpt>
      <trkpt lat="42.879510" lon="-7.931389">
        <ele>493.048</ele>
        <time>2013-02-16T13:12:05Z</time>
      </trkpt>
      <trkpt lat="42.879660" lon="-7.931571">
        <ele>493.065</ele>
        <time>2013-02-16T13:12:25Z</time>
      </trkpt>
      <trkpt lat="42.879801" lon="-7.931668">
        <ele>493.064</ele>
        <time>2013-02-16T13:12:45Z</time>
      </trkpt>
      <trkpt lat="42.879927" lon="-7.931818">
        <ele>494.006</ele>
        <time>2013-02-16T13:13:05Z</time>
      </trkpt>
      <trkpt lat="42.879966" lon="-7.931839">
        <ele>494.016</ele>
        <time>2013-02-16T13:13:25Z</time>
      </trkpt>
      <trkpt lat="42.880084" lon="-7.932172">
        <ele>494.007</ele>
        <time>2013-02-16T13:13:45Z</time>
      </trkpt>
      <trkpt lat="42.880061" lon="-7.932279">
        <ele>494.019</ele>
        <time>2013-02-16T13:14:05Z</time>
      </trkpt>
      <trkpt lat="42.880131" lon="-7.932504">
        <ele>494.015</ele>
        <time>2013-02-16T13:14:25Z</time>
      </trkpt>
      <trkpt lat="42.880155" lon="-7.932558">
        <ele>496.085</ele>
        <time>2013-02-16T13:14:45Z</time>
      </trkpt>
      <trkpt lat="42.880234" lon="-7.932805">
        <ele>497.099</ele>
        <time>2013-02-16T13:15:05Z</time>
      </trkpt>
      <trkpt lat="42.880304" lon="-7.932998">
        <ele>496.053</ele>
        <time>2013-02-16T13:15:25Z</time>
      </trkpt>
      <trkpt lat="42.880414" lon="-7.933277">
        <ele>495.096</ele>
        <time>2013-02-16T13:15:45Z</time>
      </trkpt>
      <trkpt lat="42.880454" lon="-7.933459">
        <ele>497.093</ele>
        <time>2013-02-16T13:16:05Z</time>
      </trkpt>
      <trkpt lat="42.880548" lon="-7.933717">
        <ele>496.091</ele>
        <time>2013-02-16T13:16:25Z</time>
      </trkpt>
      <trkpt lat="42.880619" lon="-7.933964">
        <ele>494.081</ele>
        <time>2013-02-16T13:16:45Z</time>
      </trkpt>
      <trkpt lat="42.880658" lon="-7.934049">
        <ele>493.019</ele>
        <time>2013-02-16T13:17:05Z</time>
      </trkpt>
      <trkpt lat="42.880697" lon="-7.934296">
        <ele>493.007</ele>
        <time>2013-02-16T13:17:25Z</time>
      </trkpt>
      <trkpt lat="42.880753" lon="-7.934393">
        <ele>492.082</ele>
        <time>2013-02-16T13:17:45Z</time>
      </trkpt>
      <trkpt lat="42.880831" lon="-7.934543">
        <ele>492.028</ele>
        <time>2013-02-16T13:18:05Z</time>
      </trkpt>
      <trkpt lat="42.880870" lon="-7.934704">
        <ele>490.098</ele>
        <time>2013-02-16T13:18:25Z</time>
      </trkpt>
      <trkpt lat="42.880768" lon="-7.935326">
        <ele>485.052</ele>
        <time>2013-02-16T13:18:45Z</time>
      </trkpt>
      <trkpt lat="42.880713" lon="-7.935433">
        <ele>484.056</ele>
        <time>2013-02-16T13:19:05Z</time>
      </trkpt>
      <trkpt lat="42.880650" lon="-7.935766">
        <ele>481.079</ele>
        <time>2013-02-16T13:19:25Z</time>
      </trkpt>
      <trkpt lat="42.880611" lon="-7.935991">
        <ele>479.056</ele>
        <time>2013-02-16T13:19:45Z</time>
      </trkpt>
      <trkpt lat="42.880572" lon="-7.936206">
        <ele>479.016</ele>
        <time>2013-02-16T13:20:05Z</time>
      </trkpt>
      <trkpt lat="42.880525" lon="-7.936388">
        <ele>476.076</ele>
        <time>2013-02-16T13:20:25Z</time>
      </trkpt>
      <trkpt lat="42.880501" lon="-7.936721">
        <ele>472.013</ele>
        <time>2013-02-16T13:20:45Z</time>
      </trkpt>
      <trkpt lat="42.880493" lon="-7.936882">
        <ele>468.007</ele>
        <time>2013-02-16T13:21:05Z</time>
      </trkpt>
      <trkpt lat="42.880493" lon="-7.937086">
        <ele>465.084</ele>
        <time>2013-02-16T13:21:25Z</time>
      </trkpt>
      <trkpt lat="42.880525" lon="-7.937268">
        <ele>465.080</ele>
        <time>2013-02-16T13:21:45Z</time>
      </trkpt>
      <trkpt lat="42.880587" lon="-7.937429">
        <ele>462.010</ele>
        <time>2013-02-16T13:22:05Z</time>
      </trkpt>
      <trkpt lat="42.880682" lon="-7.937536">
        <ele>462.064</ele>
        <time>2013-02-16T13:22:25Z</time>
      </trkpt>
      <trkpt lat="42.880768" lon="-7.937622">
        <ele>462.078</ele>
        <time>2013-02-16T13:22:45Z</time>
      </trkpt>
      <trkpt lat="42.880902" lon="-7.937858">
        <ele>460.091</ele>
        <time>2013-02-16T13:23:05Z</time>
      </trkpt>
      <trkpt lat="42.880988" lon="-7.938062">
        <ele>459.018</ele>
        <time>2013-02-16T13:23:25Z</time>
      </trkpt>
      <trkpt lat="42.881075" lon="-7.938169">
        <ele>459.072</ele>
        <time>2013-02-16T13:23:45Z</time>
      </trkpt>
      <trkpt lat="42.881138" lon="-7.938330">
        <ele>459.013</ele>
        <time>2013-02-16T13:24:05Z</time>
      </trkpt>
      <trkpt lat="42.881208" lon="-7.938555">
        <ele>459.014</ele>
        <time>2013-02-16T13:24:25Z</time>
      </trkpt>
      <trkpt lat="42.881216" lon="-7.938588">
        <ele>459.007</ele>
        <time>2013-02-16T13:24:45Z</time>
      </trkpt>
      <trkpt lat="42.881185" lon="-7.938802">
        <ele>459.070</ele>
        <time>2013-02-16T13:25:05Z</time>
      </trkpt>
      <trkpt lat="42.881185" lon="-7.939049">
        <ele>459.056</ele>
        <time>2013-02-16T13:25:25Z</time>
      </trkpt>
      <trkpt lat="42.881185" lon="-7.939306">
        <ele>459.036</ele>
        <time>2013-02-16T13:25:45Z</time>
      </trkpt>
      <trkpt lat="42.881153" lon="-7.939500">
        <ele>459.070</ele>
        <time>2013-02-16T13:26:05Z</time>
      </trkpt>
      <trkpt lat="42.881091" lon="-7.939886">
        <ele>457.034</ele>
        <time>2013-02-16T13:26:25Z</time>
      </trkpt>
      <trkpt lat="42.881075" lon="-7.940100">
        <ele>457.017</ele>
        <time>2013-02-16T13:26:45Z</time>
      </trkpt>
      <trkpt lat="42.881043" lon="-7.940326">
        <ele>455.074</ele>
        <time>2013-02-16T13:27:05Z</time>
      </trkpt>
      <trkpt lat="42.881004" lon="-7.940605">
        <ele>453.041</ele>
        <time>2013-02-16T13:27:25Z</time>
      </trkpt>
      <trkpt lat="42.880902" lon="-7.940905">
        <ele>454.081</ele>
        <time>2013-02-16T13:27:45Z</time>
      </trkpt>
      <trkpt lat="42.880808" lon="-7.941206">
        <ele>451.009</ele>
        <time>2013-02-16T13:28:05Z</time>
      </trkpt>
      <trkpt lat="42.880753" lon="-7.941463">
        <ele>449.007</ele>
        <time>2013-02-16T13:28:25Z</time>
      </trkpt>
      <trkpt lat="42.880627" lon="-7.941946">
        <ele>446.097</ele>
        <time>2013-02-16T13:28:45Z</time>
      </trkpt>
      <trkpt lat="42.880493" lon="-7.942300">
        <ele>443.043</ele>
        <time>2013-02-16T13:29:05Z</time>
      </trkpt>
      <trkpt lat="42.880446" lon="-7.942461">
        <ele>440.083</ele>
        <time>2013-02-16T13:29:25Z</time>
      </trkpt>
      <trkpt lat="42.880304" lon="-7.942643">
        <ele>439.087</ele>
        <time>2013-02-16T13:29:45Z</time>
      </trkpt>
      <trkpt lat="42.880289" lon="-7.942922">
        <ele>436.051</ele>
        <time>2013-02-16T13:30:05Z</time>
      </trkpt>
      <trkpt lat="42.880281" lon="-7.943019">
        <ele>436.014</ele>
        <time>2013-02-16T13:30:25Z</time>
      </trkpt>
      <trkpt lat="42.880375" lon="-7.943265">
        <ele>433.051</ele>
        <time>2013-02-16T13:30:45Z</time>
      </trkpt>
      <trkpt lat="42.880438" lon="-7.943544">
        <ele>428.035</ele>
        <time>2013-02-16T13:31:05Z</time>
      </trkpt>
      <trkpt lat="42.880477" lon="-7.943705">
        <ele>428.086</ele>
        <time>2013-02-16T13:31:25Z</time>
      </trkpt>
      <trkpt lat="42.880540" lon="-7.943898">
        <ele>426.014</ele>
        <time>2013-02-16T13:31:45Z</time>
      </trkpt>
      <trkpt lat="42.880595" lon="-7.944027">
        <ele>426.007</ele>
        <time>2013-02-16T13:32:05Z</time>
      </trkpt>
      <trkpt lat="42.880650" lon="-7.944156">
        <ele>425.036</ele>
        <time>2013-02-16T13:32:25Z</time>
      </trkpt>
      <trkpt lat="42.880650" lon="-7.944317">
        <ele>425.082</ele>
        <time>2013-02-16T13:32:45Z</time>
      </trkpt>
      <trkpt lat="42.880658" lon="-7.944392">
        <ele>425.082</ele>
        <time>2013-02-16T13:33:05Z</time>
      </trkpt>
      <trkpt lat="42.880642" lon="-7.944800">
        <ele>425.056</ele>
        <time>2013-02-16T13:33:25Z</time>
      </trkpt>
      <trkpt lat="42.880674" lon="-7.945122">
        <ele>425.060</ele>
        <time>2013-02-16T13:33:45Z</time>
      </trkpt>
      <trkpt lat="42.880863" lon="-7.945272">
        <ele>426.013</ele>
        <time>2013-02-16T13:34:05Z</time>
      </trkpt>
      <trkpt lat="42.880941" lon="-7.945551">
        <ele>427.070</ele>
        <time>2013-02-16T13:34:25Z</time>
      </trkpt>
      <trkpt lat="42.881122" lon="-7.945733">
        <ele>429.063</ele>
        <time>2013-02-16T13:34:45Z</time>
      </trkpt>
      <trkpt lat="42.881295" lon="-7.945894">
        <ele>430.044</ele>
        <time>2013-02-16T13:35:05Z</time>
      </trkpt>
      <trkpt lat="42.881413" lon="-7.945980">
        <ele>432.018</ele>
        <time>2013-02-16T13:35:25Z</time>
      </trkpt>
      <trkpt lat="42.881515" lon="-7.946119">
        <ele>432.007</ele>
        <time>2013-02-16T13:35:45Z</time>
      </trkpt>
      <trkpt lat="42.881586" lon="-7.946398">
        <ele>435.019</ele>
        <time>2013-02-16T13:36:05Z</time>
      </trkpt>
      <trkpt lat="42.881641" lon="-7.946581">
        <ele>436.035</ele>
        <time>2013-02-16T13:36:25Z</time>
      </trkpt>
      <trkpt lat="42.881680" lon="-7.946784">
        <ele>436.075</ele>
        <time>2013-02-16T13:36:45Z</time>
      </trkpt>
      <trkpt lat="42.881727" lon="-7.947010">
        <ele>438.079</ele>
        <time>2013-02-16T13:37:05Z</time>
      </trkpt>
      <trkpt lat="42.881751" lon="-7.947214">
        <ele>440.043</ele>
        <time>2013-02-16T13:37:25Z</time>
      </trkpt>
      <trkpt lat="42.881806" lon="-7.947525">
        <ele>442.036</ele>
        <time>2013-02-16T13:37:45Z</time>
      </trkpt>
      <trkpt lat="42.881861" lon="-7.947836">
        <ele>443.023</ele>
        <time>2013-02-16T13:38:05Z</time>
      </trkpt>
      <trkpt lat="42.881861" lon="-7.948018">
        <ele>444.087</ele>
        <time>2013-02-16T13:38:25Z</time>
      </trkpt>
      <trkpt lat="42.881869" lon="-7.948340">
        <ele>445.042</ele>
        <time>2013-02-16T13:38:45Z</time>
      </trkpt>
      <trkpt lat="42.881877" lon="-7.948490">
        <ele>446.026</ele>
        <time>2013-02-16T13:39:05Z</time>
      </trkpt>
      <trkpt lat="42.881877" lon="-7.948651">
        <ele>446.007</ele>
        <time>2013-02-16T13:39:25Z</time>
      </trkpt>
      <trkpt lat="42.881877" lon="-7.948823">
        <ele>448.071</ele>
        <time>2013-02-16T13:39:45Z</time>
      </trkpt>
      <trkpt lat="42.881814" lon="-7.948887">
        <ele>448.057</ele>
        <time>2013-02-16T13:40:05Z</time>
      </trkpt>
      <trkpt lat="42.881704" lon="-7.949134">
        <ele>450.057</ele>
        <time>2013-02-16T13:40:25Z</time>
      </trkpt>
      <trkpt lat="42.881657" lon="-7.949327">
        <ele>451.071</ele>
        <time>2013-02-16T13:40:45Z</time>
      </trkpt>
      <trkpt lat="42.881641" lon="-7.949445">
        <ele>451.015</ele>
        <time>2013-02-16T13:41:05Z</time>
      </trkpt>
      <trkpt lat="42.881602" lon="-7.949595">
        <ele>453.058</ele>
        <time>2013-02-16T13:41:25Z</time>
      </trkpt>
      <trkpt lat="42.881554" lon="-7.949756">
        <ele>453.075</ele>
        <time>2013-02-16T13:41:45Z</time>
      </trkpt>
      <trkpt lat="42.881523" lon="-7.949971">
        <ele>454.033</ele>
        <time>2013-02-16T13:42:05Z</time>
      </trkpt>
      <trkpt lat="42.881499" lon="-7.950304">
        <ele>456.023</ele>
        <time>2013-02-16T13:42:25Z</time>
      </trkpt>
      <trkpt lat="42.881499" lon="-7.950604">
        <ele>458.015</ele>
        <time>2013-02-16T13:42:45Z</time>
      </trkpt>
      <trkpt lat="42.881523" lon="-7.950937">
        <ele>459.007</ele>
        <time>2013-02-16T13:43:05Z</time>
      </trkpt>
      <trkpt lat="42.881523" lon="-7.951280">
        <ele>462.086</ele>
        <time>2013-02-16T13:43:25Z</time>
      </trkpt>
      <trkpt lat="42.881531" lon="-7.951580">
        <ele>464.042</ele>
        <time>2013-02-16T13:43:45Z</time>
      </trkpt>
      <trkpt lat="42.881515" lon="-7.951891">
        <ele>466.072</ele>
        <time>2013-02-16T13:44:05Z</time>
      </trkpt>
      <trkpt lat="42.881523" lon="-7.952213">
        <ele>468.076</ele>
        <time>2013-02-16T13:44:25Z</time>
      </trkpt>
      <trkpt lat="42.881523" lon="-7.952578">
        <ele>470.090</ele>
        <time>2013-02-16T13:44:45Z</time>
      </trkpt>
      <trkpt lat="42.881539" lon="-7.952921">
        <ele>472.023</ele>
        <time>2013-02-16T13:45:05Z</time>
      </trkpt>
      <trkpt lat="42.881539" lon="-7.953007">
        <ele>472.010</ele>
        <time>2013-02-16T13:45:25Z</time>
      </trkpt>
      <trkpt lat="42.881790" lon="-7.953383">
        <ele>471.058</ele>
        <time>2013-02-16T13:45:45Z</time>
      </trkpt>
      <trkpt lat="42.881900" lon="-7.953533">
        <ele>470.052</ele>
        <time>2013-02-16T13:46:05Z</time>
      </trkpt>
      <trkpt lat="42.881979" lon="-7.953715">
        <ele>470.017</ele>
        <time>2013-02-16T13:46:25Z</time>
      </trkpt>
      <trkpt lat="42.882058" lon="-7.953758">
        <ele>470.007</ele>
        <time>2013-02-16T13:46:45Z</time>
      </trkpt>
      <trkpt lat="42.882152" lon="-7.953887">
        <ele>470.018</ele>
        <time>2013-02-16T13:47:05Z</time>
      </trkpt>
      <trkpt lat="42.882286" lon="-7.953994">
        <ele>470.024</ele>
        <time>2013-02-16T13:47:25Z</time>
      </trkpt>
      <trkpt lat="42.882372" lon="-7.954327">
        <ele>470.014</ele>
        <time>2013-02-16T13:47:45Z</time>
      </trkpt>
      <trkpt lat="42.882451" lon="-7.954520">
        <ele>470.078</ele>
        <time>2013-02-16T13:48:05Z</time>
      </trkpt>
      <trkpt lat="42.882569" lon="-7.954745">
        <ele>470.012</ele>
        <time>2013-02-16T13:48:25Z</time>
      </trkpt>
      <trkpt lat="42.882671" lon="-7.955024">
        <ele>472.055</ele>
        <time>2013-02-16T13:48:45Z</time>
      </trkpt>
      <trkpt lat="42.882789" lon="-7.955250">
        <ele>473.032</ele>
        <time>2013-02-16T13:49:05Z</time>
      </trkpt>
      <trkpt lat="42.882875" lon="-7.955432">
        <ele>474.058</ele>
        <time>2013-02-16T13:49:25Z</time>
      </trkpt>
      <trkpt lat="42.882954" lon="-7.955604">
        <ele>476.052</ele>
        <time>2013-02-16T13:49:45Z</time>
      </trkpt>
      <trkpt lat="42.883064" lon="-7.955722">
        <ele>477.017</ele>
        <time>2013-02-16T13:50:05Z</time>
      </trkpt>
      <trkpt lat="42.883276" lon="-7.956022">
        <ele>479.007</ele>
        <time>2013-02-16T13:50:25Z</time>
      </trkpt>
      <trkpt lat="42.883378" lon="-7.956172">
        <ele>479.028</ele>
        <time>2013-02-16T13:50:45Z</time>
      </trkpt>
      <trkpt lat="42.883480" lon="-7.956301">
        <ele>479.014</ele>
        <time>2013-02-16T13:51:05Z</time>
      </trkpt>
      <trkpt lat="42.883591" lon="-7.956451">
        <ele>479.014</ele>
        <time>2013-02-16T13:51:25Z</time>
      </trkpt>
      <trkpt lat="42.883716" lon="-7.956601">
        <ele>479.038</ele>
        <time>2013-02-16T13:51:45Z</time>
      </trkpt>
      <trkpt lat="42.883795" lon="-7.956730">
        <ele>478.012</ele>
        <time>2013-02-16T13:52:05Z</time>
      </trkpt>
      <trkpt lat="42.883913" lon="-7.956848">
        <ele>476.015</ele>
        <time>2013-02-16T13:52:25Z</time>
      </trkpt>
      <trkpt lat="42.884180" lon="-7.957234">
        <ele>474.022</ele>
        <time>2013-02-16T13:52:45Z</time>
      </trkpt>
      <trkpt lat="42.884243" lon="-7.957374">
        <ele>473.072</ele>
        <time>2013-02-16T13:53:05Z</time>
      </trkpt>
      <trkpt lat="42.884337" lon="-7.957588">
        <ele>472.013</ele>
        <time>2013-02-16T13:53:25Z</time>
      </trkpt>
      <trkpt lat="42.884408" lon="-7.957749">
        <ele>472.014</ele>
        <time>2013-02-16T13:53:45Z</time>
      </trkpt>
      <trkpt lat="42.884518" lon="-7.957932">
        <ele>471.007</ele>
        <time>2013-02-16T13:54:05Z</time>
      </trkpt>
      <trkpt lat="42.884557" lon="-7.958028">
        <ele>471.040</ele>
        <time>2013-02-16T13:54:25Z</time>
      </trkpt>
      <trkpt lat="42.884668" lon="-7.958339">
        <ele>472.016</ele>
        <time>2013-02-16T13:54:45Z</time>
      </trkpt>
      <trkpt lat="42.884770" lon="-7.958500">
        <ele>471.056</ele>
        <time>2013-02-16T13:55:05Z</time>
      </trkpt>
      <trkpt lat="42.884770" lon="-7.958575">
        <ele>471.090</ele>
        <time>2013-02-16T13:55:25Z</time>
      </trkpt>
      <trkpt lat="42.884809" lon="-7.958919">
        <ele>471.014</ele>
        <time>2013-02-16T13:55:45Z</time>
      </trkpt>
      <trkpt lat="42.884903" lon="-7.959187">
        <ele>471.077</ele>
        <time>2013-02-16T13:56:05Z</time>
      </trkpt>
      <trkpt lat="42.884990" lon="-7.959359">
        <ele>470.054</ele>
        <time>2013-02-16T13:56:25Z</time>
      </trkpt>
      <trkpt lat="42.885013" lon="-7.959509">
        <ele>470.034</ele>
        <time>2013-02-16T13:56:45Z</time>
      </trkpt>
      <trkpt lat="42.885084" lon="-7.959766">
        <ele>469.055</ele>
        <time>2013-02-16T13:57:05Z</time>
      </trkpt>
      <trkpt lat="42.885163" lon="-7.959917">
        <ele>468.010</ele>
        <time>2013-02-16T13:57:25Z</time>
      </trkpt>
      <trkpt lat="42.885273" lon="-7.960174">
        <ele>466.007</ele>
        <time>2013-02-16T13:57:45Z</time>
      </trkpt>
      <trkpt lat="42.885359" lon="-7.960314">
        <ele>466.076</ele>
        <time>2013-02-16T13:58:05Z</time>
      </trkpt>
      <trkpt lat="42.885462" lon="-7.960582">
        <ele>465.042</ele>
        <time>2013-02-16T13:58:25Z</time>
      </trkpt>
      <trkpt lat="42.885548" lon="-7.960764">
        <ele>463.092</ele>
        <time>2013-02-16T13:58:45Z</time>
      </trkpt>
      <trkpt lat="42.885627" lon="-7.960957">
        <ele>463.016</ele>
        <time>2013-02-16T13:59:05Z</time>
      </trkpt>
      <trkpt lat="42.885713" lon="-7.961215">
        <ele>463.090</ele>
        <time>2013-02-16T13:59:25Z</time>
      </trkpt>
      <trkpt lat="42.885768" lon="-7.961429">
        <ele>461.033</ele>
        <time>2013-02-16T13:59:45Z</time>
      </trkpt>
      <trkpt lat="42.885855" lon="-7.961612">
        <ele>458.090</ele>
        <time>2013-02-16T14:00:05Z</time>
      </trkpt>
      <trkpt lat="42.885933" lon="-7.961912">
        <ele>456.095</ele>
        <time>2013-02-16T14:00:25Z</time>
      </trkpt>
      <trkpt lat="42.886004" lon="-7.962095">
        <ele>455.049</ele>
        <time>2013-02-16T14:00:45Z</time>
      </trkpt>
      <trkpt lat="42.886090" lon="-7.962341">
        <ele>455.023</ele>
        <time>2013-02-16T14:01:05Z</time>
      </trkpt>
      <trkpt lat="42.886153" lon="-7.962577">
        <ele>452.007</ele>
        <time>2013-02-16T14:01:25Z</time>
      </trkpt>
      <trkpt lat="42.886256" lon="-7.962781">
        <ele>452.052</ele>
        <time>2013-02-16T14:01:45Z</time>
      </trkpt>
      <trkpt lat="42.886421" lon="-7.963157">
        <ele>451.058</ele>
        <time>2013-02-16T14:02:05Z</time>
      </trkpt>
      <trkpt lat="42.886617" lon="-7.963500">
        <ele>449.038</ele>
        <time>2013-02-16T14:02:25Z</time>
      </trkpt>
      <trkpt lat="42.886664" lon="-7.963779">
        <ele>447.082</ele>
        <time>2013-02-16T14:02:45Z</time>
      </trkpt>
      <trkpt lat="42.886696" lon="-7.963972">
        <ele>447.056</ele>
        <time>2013-02-16T14:03:05Z</time>
      </trkpt>
      <trkpt lat="42.886790" lon="-7.964262">
        <ele>445.039</ele>
        <time>2013-02-16T14:03:25Z</time>
      </trkpt>
      <trkpt lat="42.886845" lon="-7.964412">
        <ele>444.096</ele>
        <time>2013-02-16T14:03:45Z</time>
      </trkpt>
      <trkpt lat="42.886987" lon="-7.964637">
        <ele>442.081</ele>
        <time>2013-02-16T14:04:05Z</time>
      </trkpt>
      <trkpt lat="42.887057" lon="-7.964809">
        <ele>442.061</ele>
        <time>2013-02-16T14:04:25Z</time>
      </trkpt>
      <trkpt lat="42.887128" lon="-7.964927">
        <ele>440.017</ele>
        <time>2013-02-16T14:04:45Z</time>
      </trkpt>
      <trkpt lat="42.887191" lon="-7.964991">
        <ele>440.007</ele>
        <time>2013-02-16T14:05:05Z</time>
      </trkpt>
      <trkpt lat="42.887419" lon="-7.965184">
        <ele>441.081</ele>
        <time>2013-02-16T14:05:25Z</time>
      </trkpt>
      <trkpt lat="42.887576" lon="-7.965356">
        <ele>441.067</ele>
        <time>2013-02-16T14:05:45Z</time>
      </trkpt>
      <trkpt lat="42.887718" lon="-7.965571">
        <ele>441.097</ele>
        <time>2013-02-16T14:06:05Z</time>
      </trkpt>
      <trkpt lat="42.887836" lon="-7.965764">
        <ele>441.071</ele>
        <time>2013-02-16T14:06:25Z</time>
      </trkpt>
      <trkpt lat="42.887946" lon="-7.965903">
        <ele>442.035</ele>
        <time>2013-02-16T14:06:45Z</time>
      </trkpt>
      <trkpt lat="42.888048" lon="-7.966021">
        <ele>441.078</ele>
        <time>2013-02-16T14:07:05Z</time>
      </trkpt>
      <trkpt lat="42.888126" lon="-7.966118">
        <ele>441.025</ele>
        <time>2013-02-16T14:07:25Z</time>
      </trkpt>
      <trkpt lat="42.888252" lon="-7.966354">
        <ele>441.064</ele>
        <time>2013-02-16T14:07:45Z</time>
      </trkpt>
      <trkpt lat="42.888480" lon="-7.966493">
        <ele>440.006</ele>
        <time>2013-02-16T14:08:05Z</time>
      </trkpt>
      <trkpt lat="42.888928" lon="-7.966697">
        <ele>439.016</ele>
        <time>2013-02-16T14:08:25Z</time>
      </trkpt>
      <trkpt lat="42.889101" lon="-7.966815">
        <ele>439.007</ele>
        <time>2013-02-16T14:08:45Z</time>
      </trkpt>
      <trkpt lat="42.889274" lon="-7.966923">
        <ele>439.069</ele>
        <time>2013-02-16T14:09:05Z</time>
      </trkpt>
      <trkpt lat="42.889596" lon="-7.967083">
        <ele>437.075</ele>
        <time>2013-02-16T14:09:25Z</time>
      </trkpt>
      <trkpt lat="42.889691" lon="-7.967201">
        <ele>437.045</ele>
        <time>2013-02-16T14:09:45Z</time>
      </trkpt>
      <trkpt lat="42.889785" lon="-7.967352">
        <ele>437.029</ele>
        <time>2013-02-16T14:10:05Z</time>
      </trkpt>
      <trkpt lat="42.889911" lon="-7.967652">
        <ele>437.013</ele>
        <time>2013-02-16T14:10:25Z</time>
      </trkpt>
      <trkpt lat="42.889966" lon="-7.967802">
        <ele>437.056</ele>
        <time>2013-02-16T14:10:45Z</time>
      </trkpt>
      <trkpt lat="42.890013" lon="-7.968071">
        <ele>437.063</ele>
        <time>2013-02-16T14:11:05Z</time>
      </trkpt>
      <trkpt lat="42.890013" lon="-7.968264">
        <ele>437.032</ele>
        <time>2013-02-16T14:11:25Z</time>
      </trkpt>
      <trkpt lat="42.890021" lon="-7.968467">
        <ele>437.092</ele>
        <time>2013-02-16T14:11:45Z</time>
      </trkpt>
      <trkpt lat="42.890037" lon="-7.968682">
        <ele>436.011</ele>
        <time>2013-02-16T14:12:05Z</time>
      </trkpt>
      <trkpt lat="42.890052" lon="-7.968757">
        <ele>435.007</ele>
        <time>2013-02-16T14:12:25Z</time>
      </trkpt>
      <trkpt lat="42.890154" lon="-7.968918">
        <ele>434.076</ele>
        <time>2013-02-16T14:12:45Z</time>
      </trkpt>
      <trkpt lat="42.890280" lon="-7.969047">
        <ele>434.032</ele>
        <time>2013-02-16T14:13:05Z</time>
      </trkpt>
      <trkpt lat="42.890406" lon="-7.969197">
        <ele>434.032</ele>
        <time>2013-02-16T14:13:25Z</time>
      </trkpt>
      <trkpt lat="42.890492" lon="-7.969315">
        <ele>433.026</ele>
        <time>2013-02-16T14:13:45Z</time>
      </trkpt>
      <trkpt lat="42.890634" lon="-7.969444">
        <ele>433.050</ele>
        <time>2013-02-16T14:14:05Z</time>
      </trkpt>
      <trkpt lat="42.890823" lon="-7.969615">
        <ele>434.073</ele>
        <time>2013-02-16T14:14:25Z</time>
      </trkpt>
      <trkpt lat="42.890917" lon="-7.969744">
        <ele>434.040</ele>
        <time>2013-02-16T14:14:45Z</time>
      </trkpt>
      <trkpt lat="42.891145" lon="-7.970023">
        <ele>436.091</ele>
        <time>2013-02-16T14:15:05Z</time>
      </trkpt>
      <trkpt lat="42.891279" lon="-7.970238">
        <ele>438.081</ele>
        <time>2013-02-16T14:15:25Z</time>
      </trkpt>
      <trkpt lat="42.891444" lon="-7.970463">
        <ele>439.019</ele>
        <time>2013-02-16T14:15:45Z</time>
      </trkpt>
      <trkpt lat="42.891562" lon="-7.970549">
        <ele>440.007</ele>
        <time>2013-02-16T14:16:05Z</time>
      </trkpt>
      <trkpt lat="42.891727" lon="-7.970785">
        <ele>440.042</ele>
        <time>2013-02-16T14:16:25Z</time>
      </trkpt>
      <trkpt lat="42.891876" lon="-7.970978">
        <ele>441.038</ele>
        <time>2013-02-16T14:16:45Z</time>
      </trkpt>
      <trkpt lat="42.892033" lon="-7.971160">
        <ele>441.018</ele>
        <time>2013-02-16T14:17:05Z</time>
      </trkpt>
      <trkpt lat="42.892230" lon="-7.971396">
        <ele>442.022</ele>
        <time>2013-02-16T14:17:25Z</time>
      </trkpt>
      <trkpt lat="42.892426" lon="-7.971536">
        <ele>445.026</ele>
        <time>2013-02-16T14:17:45Z</time>
      </trkpt>
      <trkpt lat="42.892513" lon="-7.971740">
        <ele>445.049</ele>
        <time>2013-02-16T14:18:05Z</time>
      </trkpt>
      <trkpt lat="42.892686" lon="-7.971879">
        <ele>448.096</ele>
        <time>2013-02-16T14:18:25Z</time>
      </trkpt>
      <trkpt lat="42.892764" lon="-7.972019">
        <ele>448.028</ele>
        <time>2013-02-16T14:18:45Z</time>
      </trkpt>
      <trkpt lat="42.892882" lon="-7.972287">
        <ele>449.089</ele>
        <time>2013-02-16T14:19:05Z</time>
      </trkpt>
      <trkpt lat="42.893008" lon="-7.972416">
        <ele>450.017</ele>
        <time>2013-02-16T14:19:25Z</time>
      </trkpt>
      <trkpt lat="42.893189" lon="-7.972695">
        <ele>450.007</ele>
        <time>2013-02-16T14:19:45Z</time>
      </trkpt>
      <trkpt lat="42.893472" lon="-7.973242">
        <ele>451.055</ele>
        <time>2013-02-16T14:20:05Z</time>
      </trkpt>
      <trkpt lat="42.893700" lon="-7.973381">
        <ele>450.081</ele>
        <time>2013-02-16T14:20:25Z</time>
      </trkpt>
      <trkpt lat="42.893927" lon="-7.973521">
        <ele>451.041</ele>
        <time>2013-02-16T14:20:45Z</time>
      </trkpt>
      <trkpt lat="42.894030" lon="-7.973714">
        <ele>451.035</ele>
        <time>2013-02-16T14:21:05Z</time>
      </trkpt>
      <trkpt lat="42.894140" lon="-7.973982">
        <ele>452.089</ele>
        <time>2013-02-16T14:21:25Z</time>
      </trkpt>
      <trkpt lat="42.894218" lon="-7.974122">
        <ele>454.022</ele>
        <time>2013-02-16T14:21:45Z</time>
      </trkpt>
      <trkpt lat="42.894289" lon="-7.974508">
        <ele>455.059</ele>
        <time>2013-02-16T14:22:05Z</time>
      </trkpt>
      <trkpt lat="42.894124" lon="-7.974808">
        <ele>456.075</ele>
        <time>2013-02-16T14:22:25Z</time>
      </trkpt>
      <trkpt lat="42.893998" lon="-7.974969">
        <ele>457.028</ele>
        <time>2013-02-16T14:22:45Z</time>
      </trkpt>
      <trkpt lat="42.893904" lon="-7.975270">
        <ele>456.020</ele>
        <time>2013-02-16T14:23:05Z</time>
      </trkpt>
      <trkpt lat="42.893810" lon="-7.975388">
        <ele>456.007</ele>
        <time>2013-02-16T14:23:25Z</time>
      </trkpt>
      <trkpt lat="42.893739" lon="-7.975581">
        <ele>454.040</ele>
        <time>2013-02-16T14:23:45Z</time>
      </trkpt>
      <trkpt lat="42.893684" lon="-7.975827">
        <ele>453.026</ele>
        <time>2013-02-16T14:24:05Z</time>
      </trkpt>
      <trkpt lat="42.893637" lon="-7.975945">
        <ele>453.036</ele>
        <time>2013-02-16T14:24:25Z</time>
      </trkpt>
      <trkpt lat="42.893605" lon="-7.976149">
        <ele>452.030</ele>
        <time>2013-02-16T14:24:45Z</time>
      </trkpt>
      <trkpt lat="42.893723" lon="-7.976375">
        <ele>451.054</ele>
        <time>2013-02-16T14:25:05Z</time>
      </trkpt>
      <trkpt lat="42.893865" lon="-7.976557">
        <ele>451.017</ele>
        <time>2013-02-16T14:25:25Z</time>
      </trkpt>
      <trkpt lat="42.894006" lon="-7.976664">
        <ele>451.034</ele>
        <time>2013-02-16T14:25:45Z</time>
      </trkpt>
      <trkpt lat="42.894116" lon="-7.976793">
        <ele>452.024</ele>
        <time>2013-02-16T14:26:05Z</time>
      </trkpt>
      <trkpt lat="42.894297" lon="-7.976954">
        <ele>451.004</ele>
        <time>2013-02-16T14:26:25Z</time>
      </trkpt>
      <trkpt lat="42.894415" lon="-7.977158">
        <ele>450.014</ele>
        <time>2013-02-16T14:26:45Z</time>
      </trkpt>
      <trkpt lat="42.894596" lon="-7.977372">
        <ele>448.007</ele>
        <time>2013-02-16T14:27:05Z</time>
      </trkpt>
      <trkpt lat="42.894816" lon="-7.977630">
        <ele>448.045</ele>
        <time>2013-02-16T14:27:25Z</time>
      </trkpt>
      <trkpt lat="42.894996" lon="-7.977898">
        <ele>445.041</ele>
        <time>2013-02-16T14:27:45Z</time>
      </trkpt>
      <trkpt lat="42.895303" lon="-7.978145">
        <ele>442.071</ele>
        <time>2013-02-16T14:28:05Z</time>
      </trkpt>
      <trkpt lat="42.895460" lon="-7.978349">
        <ele>443.055</ele>
        <time>2013-02-16T14:28:25Z</time>
      </trkpt>
      <trkpt lat="42.895609" lon="-7.978456">
        <ele>443.019</ele>
        <time>2013-02-16T14:28:45Z</time>
      </trkpt>
      <trkpt lat="42.895775" lon="-7.978671">
        <ele>442.072</ele>
        <time>2013-02-16T14:29:05Z</time>
      </trkpt>
      <trkpt lat="42.895908" lon="-7.978789">
        <ele>438.069</ele>
        <time>2013-02-16T14:29:25Z</time>
      </trkpt>
      <trkpt lat="42.896018" lon="-7.978874">
        <ele>438.058</ele>
        <time>2013-02-16T14:29:45Z</time>
      </trkpt>
      <trkpt lat="42.896128" lon="-7.978982">
        <ele>438.052</ele>
        <time>2013-02-16T14:30:05Z</time>
      </trkpt>
      <trkpt lat="42.896223" lon="-7.979100">
        <ele>436.017</ele>
        <time>2013-02-16T14:30:25Z</time>
      </trkpt>
      <trkpt lat="42.896325" lon="-7.979304">
        <ele>437.007</ele>
        <time>2013-02-16T14:30:45Z</time>
      </trkpt>
      <trkpt lat="42.896411" lon="-7.979454">
        <ele>437.028</ele>
        <time>2013-02-16T14:31:05Z</time>
      </trkpt>
      <trkpt lat="42.896623" lon="-7.979722">
        <ele>438.014</ele>
        <time>2013-02-16T14:31:25Z</time>
      </trkpt>
      <trkpt lat="42.896694" lon="-7.979829">
        <ele>438.094</ele>
        <time>2013-02-16T14:31:45Z</time>
      </trkpt>
      <trkpt lat="42.896843" lon="-7.979990">
        <ele>439.088</ele>
        <time>2013-02-16T14:32:05Z</time>
      </trkpt>
      <trkpt lat="42.896977" lon="-7.980098">
        <ele>439.022</ele>
        <time>2013-02-16T14:32:25Z</time>
      </trkpt>
      <trkpt lat="42.897150" lon="-7.980269">
        <ele>439.075</ele>
        <time>2013-02-16T14:32:45Z</time>
      </trkpt>
      <trkpt lat="42.897252" lon="-7.980366">
        <ele>439.092</ele>
        <time>2013-02-16T14:33:05Z</time>
      </trkpt>
      <trkpt lat="42.897457" lon="-7.980548">
        <ele>440.088</ele>
        <time>2013-02-16T14:33:25Z</time>
      </trkpt>
      <trkpt lat="42.897653" lon="-7.980784">
        <ele>441.024</ele>
        <time>2013-02-16T14:33:45Z</time>
      </trkpt>
      <trkpt lat="42.897795" lon="-7.981052">
        <ele>442.026</ele>
        <time>2013-02-16T14:34:05Z</time>
      </trkpt>
      <trkpt lat="42.897920" lon="-7.981364">
        <ele>444.007</ele>
        <time>2013-02-16T14:34:25Z</time>
      </trkpt>
      <trkpt lat="42.898125" lon="-7.981728">
        <ele>445.061</ele>
        <time>2013-02-16T14:34:45Z</time>
      </trkpt>
      <trkpt lat="42.898376" lon="-7.982286">
        <ele>443.017</ele>
        <time>2013-02-16T14:35:05Z</time>
      </trkpt>
      <trkpt lat="42.898486" lon="-7.982587">
        <ele>439.097</ele>
        <time>2013-02-16T14:35:25Z</time>
      </trkpt>
      <trkpt lat="42.898573" lon="-7.982801">
        <ele>440.021</ele>
        <time>2013-02-16T14:35:45Z</time>
      </trkpt>
      <trkpt lat="42.898722" lon="-7.983123">
        <ele>440.045</ele>
        <time>2013-02-16T14:36:05Z</time>
      </trkpt>
      <trkpt lat="42.898879" lon="-7.983348">
        <ele>439.018</ele>
        <time>2013-02-16T14:36:25Z</time>
      </trkpt>
      <trkpt lat="42.899115" lon="-7.983724">
        <ele>438.065</ele>
        <time>2013-02-16T14:36:45Z</time>
      </trkpt>
      <trkpt lat="42.899201" lon="-7.983896">
        <ele>437.027</ele>
        <time>2013-02-16T14:37:05Z</time>
      </trkpt>
      <trkpt lat="42.899319" lon="-7.984228">
        <ele>437.068</ele>
        <time>2013-02-16T14:37:25Z</time>
      </trkpt>
      <trkpt lat="42.899610" lon="-7.984668">
        <ele>436.014</ele>
        <time>2013-02-16T14:37:45Z</time>
      </trkpt>
      <trkpt lat="42.899728" lon="-7.984968">
        <ele>435.007</ele>
        <time>2013-02-16T14:38:05Z</time>
      </trkpt>
      <trkpt lat="42.899869" lon="-7.985194">
        <ele>436.095</ele>
        <time>2013-02-16T14:38:25Z</time>
      </trkpt>
      <trkpt lat="42.900129" lon="-7.985644">
        <ele>435.041</ele>
        <time>2013-02-16T14:38:45Z</time>
      </trkpt>
      <trkpt lat="42.900207" lon="-7.985891">
        <ele>436.081</ele>
        <time>2013-02-16T14:39:05Z</time>
      </trkpt>
      <trkpt lat="42.900372" lon="-7.986149">
        <ele>436.025</ele>
        <time>2013-02-16T14:39:25Z</time>
      </trkpt>
      <trkpt lat="42.900585" lon="-7.986202">
        <ele>438.029</ele>
        <time>2013-02-16T14:39:45Z</time>
      </trkpt>
      <trkpt lat="42.900711" lon="-7.986481">
        <ele>441.042</ele>
        <time>2013-02-16T14:40:05Z</time>
      </trkpt>
      <trkpt lat="42.900805" lon="-7.986717">
        <ele>441.069</ele>
        <time>2013-02-16T14:40:25Z</time>
      </trkpt>
      <trkpt lat="42.900899" lon="-7.986910">
        <ele>441.043</ele>
        <time>2013-02-16T14:40:45Z</time>
      </trkpt>
      <trkpt lat="42.900994" lon="-7.987103">
        <ele>443.064</ele>
        <time>2013-02-16T14:41:05Z</time>
      </trkpt>
      <trkpt lat="42.901119" lon="-7.987232">
        <ele>443.010</ele>
        <time>2013-02-16T14:41:25Z</time>
      </trkpt>
      <trkpt lat="42.901198" lon="-7.987425">
        <ele>442.007</ele>
        <time>2013-02-16T14:41:45Z</time>
      </trkpt>
      <trkpt lat="42.901528" lon="-7.987962">
        <ele>440.087</ele>
        <time>2013-02-16T14:42:05Z</time>
      </trkpt>
      <trkpt lat="42.901638" lon="-7.988155">
        <ele>440.083</ele>
        <time>2013-02-16T14:42:25Z</time>
      </trkpt>
      <trkpt lat="42.901748" lon="-7.988348">
        <ele>437.073</ele>
        <time>2013-02-16T14:42:45Z</time>
      </trkpt>
      <trkpt lat="42.901937" lon="-7.988756">
        <ele>435.047</ele>
        <time>2013-02-16T14:43:05Z</time>
      </trkpt>
      <trkpt lat="42.902063" lon="-7.988949">
        <ele>435.051</ele>
        <time>2013-02-16T14:43:25Z</time>
      </trkpt>
      <trkpt lat="42.902235" lon="-7.989357">
        <ele>435.064</ele>
        <time>2013-02-16T14:43:45Z</time>
      </trkpt>
      <trkpt lat="42.902393" lon="-7.989657">
        <ele>437.091</ele>
        <time>2013-02-16T14:44:05Z</time>
      </trkpt>
      <trkpt lat="42.902518" lon="-7.989957">
        <ele>434.016</ele>
        <time>2013-02-16T14:44:25Z</time>
      </trkpt>
      <trkpt lat="42.902660" lon="-7.990236">
        <ele>433.076</ele>
        <time>2013-02-16T14:44:45Z</time>
      </trkpt>
      <trkpt lat="42.902754" lon="-7.990322">
        <ele>433.013</ele>
        <time>2013-02-16T14:45:05Z</time>
      </trkpt>
      <trkpt lat="42.902801" lon="-7.990665">
        <ele>431.007</ele>
        <time>2013-02-16T14:45:25Z</time>
      </trkpt>
      <trkpt lat="42.902833" lon="-7.990901">
        <ele>431.084</ele>
        <time>2013-02-16T14:45:45Z</time>
      </trkpt>
      <trkpt lat="42.902754" lon="-7.991009">
        <ele>431.070</ele>
        <time>2013-02-16T14:46:05Z</time>
      </trkpt>
      <trkpt lat="42.902786" lon="-7.991309">
        <ele>431.020</ele>
        <time>2013-02-16T14:46:25Z</time>
      </trkpt>
      <trkpt lat="42.902927" lon="-7.991695">
        <ele>431.014</ele>
        <time>2013-02-16T14:46:45Z</time>
      </trkpt>
      <trkpt lat="42.903053" lon="-7.991953">
        <ele>433.048</ele>
        <time>2013-02-16T14:47:05Z</time>
      </trkpt>
      <trkpt lat="42.903147" lon="-7.992232">
        <ele>436.011</ele>
        <time>2013-02-16T14:47:25Z</time>
      </trkpt>
      <trkpt lat="42.903241" lon="-7.992318">
        <ele>436.068</ele>
        <time>2013-02-16T14:47:45Z</time>
      </trkpt>
      <trkpt lat="42.903304" lon="-7.992468">
        <ele>439.049</ele>
        <time>2013-02-16T14:48:05Z</time>
      </trkpt>
      <trkpt lat="42.903399" lon="-7.992640">
        <ele>442.002</ele>
        <time>2013-02-16T14:48:25Z</time>
      </trkpt>
      <trkpt lat="42.903556" lon="-7.992768">
        <ele>441.022</ele>
        <time>2013-02-16T14:48:45Z</time>
      </trkpt>
      <trkpt lat="42.903681" lon="-7.992940">
        <ele>445.007</ele>
        <time>2013-02-16T14:49:05Z</time>
      </trkpt>
      <trkpt lat="42.903791" lon="-7.993112">
        <ele>444.057</ele>
        <time>2013-02-16T14:49:25Z</time>
      </trkpt>
      <trkpt lat="42.903839" lon="-7.993391">
        <ele>448.063</ele>
        <time>2013-02-16T14:49:45Z</time>
      </trkpt>
      <trkpt lat="42.903917" lon="-7.993755">
        <ele>455.053</ele>
        <time>2013-02-16T14:50:05Z</time>
      </trkpt>
      <trkpt lat="42.904027" lon="-7.993927">
        <ele>455.047</ele>
        <time>2013-02-16T14:50:25Z</time>
      </trkpt>
      <trkpt lat="42.904169" lon="-7.994292">
        <ele>455.011</ele>
        <time>2013-02-16T14:50:45Z</time>
      </trkpt>
      <trkpt lat="42.904184" lon="-7.994421">
        <ele>456.094</ele>
        <time>2013-02-16T14:51:05Z</time>
      </trkpt>
      <trkpt lat="42.904232" lon="-7.994742">
        <ele>457.041</ele>
        <time>2013-02-16T14:51:25Z</time>
      </trkpt>
      <trkpt lat="42.904404" lon="-7.995000">
        <ele>455.079</ele>
        <time>2013-02-16T14:51:45Z</time>
      </trkpt>
      <trkpt lat="42.904515" lon="-7.995150">
        <ele>457.005</ele>
        <time>2013-02-16T14:52:05Z</time>
      </trkpt>
      <trkpt lat="42.904735" lon="-7.995408">
        <ele>454.025</ele>
        <time>2013-02-16T14:52:25Z</time>
      </trkpt>
      <trkpt lat="42.905111" lon="-7.995794">
        <ele>457.007</ele>
        <time>2013-02-16T14:52:45Z</time>
      </trkpt>
      <trkpt lat="42.905599" lon="-7.996094">
        <ele>451.060</ele>
        <time>2013-02-16T14:53:05Z</time>
      </trkpt>
      <trkpt lat="42.905693" lon="-7.996309">
        <ele>453.036</ele>
        <time>2013-02-16T14:53:25Z</time>
      </trkpt>
      <trkpt lat="42.905756" lon="-7.996438">
        <ele>450.076</ele>
        <time>2013-02-16T14:53:45Z</time>
      </trkpt>
      <trkpt lat="42.906039" lon="-7.996759">
        <ele>448.040</ele>
        <time>2013-02-16T14:54:05Z</time>
      </trkpt>
      <trkpt lat="42.906181" lon="-7.996888">
        <ele>447.084</ele>
        <time>2013-02-16T14:54:25Z</time>
      </trkpt>
      <trkpt lat="42.906715" lon="-7.996931">
        <ele>442.077</ele>
        <time>2013-02-16T14:54:45Z</time>
      </trkpt>
      <trkpt lat="42.907312" lon="-7.997081">
        <ele>432.054</ele>
        <time>2013-02-16T14:55:05Z</time>
      </trkpt>
      <trkpt lat="42.907501" lon="-7.997317">
        <ele>428.053</ele>
        <time>2013-02-16T14:55:25Z</time>
      </trkpt>
      <trkpt lat="42.907658" lon="-7.997489">
        <ele>422.004</ele>
        <time>2013-02-16T14:55:45Z</time>
      </trkpt>
      <trkpt lat="42.907831" lon="-7.997789">
        <ele>422.014</ele>
        <time>2013-02-16T14:56:05Z</time>
      </trkpt>
      <trkpt lat="42.908004" lon="-7.998047">
        <ele>417.007</ele>
        <time>2013-02-16T14:56:25Z</time>
      </trkpt>
      <trkpt lat="42.908019" lon="-7.998133">
        <ele>417.078</ele>
        <time>2013-02-16T14:56:45Z</time>
      </trkpt>
      <trkpt lat="42.908067" lon="-7.998412">
        <ele>417.054</ele>
        <time>2013-02-16T14:57:05Z</time>
      </trkpt>
      <trkpt lat="42.908129" lon="-7.998755">
        <ele>417.044</ele>
        <time>2013-02-16T14:57:25Z</time>
      </trkpt>
      <trkpt lat="42.908239" lon="-7.998862">
        <ele>414.048</ele>
        <time>2013-02-16T14:57:45Z</time>
      </trkpt>
      <trkpt lat="42.908392" lon="-7.998819">
        <ele>414.082</ele>
        <time>2013-02-16T14:58:05Z</time>
      </trkpt>
      <trkpt lat="42.908549" lon="-7.998809">
        <ele>412.025</ele>
        <time>2013-02-16T14:58:25Z</time>
      </trkpt>
      <trkpt lat="42.908702" lon="-7.998803">
        <ele>412.082</ele>
        <time>2013-02-16T14:58:45Z</time>
      </trkpt>
      <trkpt lat="42.908824" lon="-7.998857">
        <ele>412.085</ele>
        <time>2013-02-16T14:59:05Z</time>
      </trkpt>
      <trkpt lat="42.908871" lon="-7.998964">
        <ele>412.089</ele>
        <time>2013-02-16T14:59:25Z</time>
      </trkpt>
      <trkpt lat="42.908911" lon="-7.999066">
        <ele>409.017</ele>
        <time>2013-02-16T14:59:45Z</time>
      </trkpt>
      <trkpt lat="42.908915" lon="-7.999029">
        <ele>409.007</ele>
        <time>2013-02-16T15:00:05Z</time>
      </trkpt>
      <trkpt lat="42.908946" lon="-7.999136">
        <ele>409.041</ele>
        <time>2013-02-16T15:00:25Z</time>
      </trkpt>
      <trkpt lat="42.908993" lon="-7.999243">
        <ele>409.077</ele>
        <time>2013-02-16T15:00:45Z</time>
      </trkpt>
      <trkpt lat="42.909068" lon="-7.999297">
        <ele>409.087</ele>
        <time>2013-02-16T15:01:05Z</time>
      </trkpt>
      <trkpt lat="42.909131" lon="-7.999527">
        <ele>406.061</ele>
        <time>2013-02-16T15:01:25Z</time>
      </trkpt>
      <trkpt lat="42.909162" lon="-7.999597">
        <ele>404.095</ele>
        <time>2013-02-16T15:01:45Z</time>
      </trkpt>
      <trkpt lat="42.909209" lon="-7.999769">
        <ele>404.038</ele>
        <time>2013-02-16T15:02:05Z</time>
      </trkpt>
      <trkpt lat="42.909225" lon="-7.999849">
        <ele>404.035</ele>
        <time>2013-02-16T15:02:25Z</time>
      </trkpt>
      <trkpt lat="42.909237" lon="-8.000010">
        <ele>402.072</ele>
        <time>2013-02-16T15:02:45Z</time>
      </trkpt>
      <trkpt lat="42.909241" lon="-8.000118">
        <ele>402.013</ele>
        <time>2013-02-16T15:03:05Z</time>
      </trkpt>
      <trkpt lat="42.909233" lon="-8.000343">
        <ele>401.014</ele>
        <time>2013-02-16T15:03:25Z</time>
      </trkpt>
      <trkpt lat="42.909229" lon="-8.000547">
        <ele>400.007</ele>
        <time>2013-02-16T15:03:45Z</time>
      </trkpt>
      <trkpt lat="42.909217" lon="-8.000734">
        <ele>400.070</ele>
        <time>2013-02-16T15:04:05Z</time>
      </trkpt>
      <trkpt lat="42.909194" lon="-8.000869">
        <ele>400.076</ele>
        <time>2013-02-16T15:04:25Z</time>
      </trkpt>
      <trkpt lat="42.909209" lon="-8.001046">
        <ele>399.046</ele>
        <time>2013-02-16T15:04:45Z</time>
      </trkpt>
      <trkpt lat="42.909233" lon="-8.001094">
        <ele>399.070</ele>
        <time>2013-02-16T15:05:05Z</time>
      </trkpt>
      <trkpt lat="42.909230" lon="-8.001330">
        <ele>399.034</ele>
        <time>2013-02-16T15:05:25Z</time>
      </trkpt>
      <trkpt lat="42.909214" lon="-8.001630">
        <ele>398.027</ele>
        <time>2013-02-16T15:05:45Z</time>
      </trkpt>
      <trkpt lat="42.909135" lon="-8.001781">
        <ele>398.034</ele>
        <time>2013-02-16T15:06:05Z</time>
      </trkpt>
      <trkpt lat="42.909120" lon="-8.002059">
        <ele>397.097</ele>
        <time>2013-02-16T15:06:25Z</time>
      </trkpt>
      <trkpt lat="42.909198" lon="-8.002424">
        <ele>397.023</ele>
        <time>2013-02-16T15:06:45Z</time>
      </trkpt>
      <trkpt lat="42.909340" lon="-8.002682">
        <ele>400.025</ele>
        <time>2013-02-16T15:07:05Z</time>
      </trkpt>
      <trkpt lat="42.909528" lon="-8.002918">
        <ele>401.007</ele>
        <time>2013-02-16T15:07:25Z</time>
      </trkpt>
      <trkpt lat="42.909685" lon="-8.003261">
        <ele>406.082</ele>
        <time>2013-02-16T15:07:45Z</time>
      </trkpt>
      <trkpt lat="42.909843" lon="-8.003476">
        <ele>408.098</ele>
        <time>2013-02-16T15:08:05Z</time>
      </trkpt>
      <trkpt lat="42.910000" lon="-8.003669">
        <ele>411.068</ele>
        <time>2013-02-16T15:08:25Z</time>
      </trkpt>
      <trkpt lat="42.910141" lon="-8.004012">
        <ele>413.042</ele>
        <time>2013-02-16T15:08:45Z</time>
      </trkpt>
      <trkpt lat="42.910283" lon="-8.004441">
        <ele>414.036</ele>
        <time>2013-02-16T15:09:05Z</time>
      </trkpt>
      <trkpt lat="42.910471" lon="-8.004806">
        <ele>415.079</ele>
        <time>2013-02-16T15:09:25Z</time>
      </trkpt>
      <trkpt lat="42.910597" lon="-8.004978">
        <ele>415.096</ele>
        <time>2013-02-16T15:09:45Z</time>
      </trkpt>
      <trkpt lat="42.910785" lon="-8.005557">
        <ele>419.079</ele>
        <time>2013-02-16T15:10:05Z</time>
      </trkpt>
      <trkpt lat="42.910990" lon="-8.006158">
        <ele>422.005</ele>
        <time>2013-02-16T15:10:25Z</time>
      </trkpt>
      <trkpt lat="42.911147" lon="-8.006372">
        <ele>423.025</ele>
        <time>2013-02-16T15:10:45Z</time>
      </trkpt>
      <trkpt lat="42.911273" lon="-8.006523">
        <ele>423.007</ele>
        <time>2013-02-16T15:11:05Z</time>
      </trkpt>
      <trkpt lat="42.911414" lon="-8.006930">
        <ele>424.030</ele>
        <time>2013-02-16T15:11:25Z</time>
      </trkpt>
      <trkpt lat="42.911603" lon="-8.007617">
        <ele>425.076</ele>
        <time>2013-02-16T15:11:45Z</time>
      </trkpt>
      <trkpt lat="42.911713" lon="-8.007703">
        <ele>426.026</ele>
        <time>2013-02-16T15:12:05Z</time>
      </trkpt>
      <trkpt lat="42.911854" lon="-8.008304">
        <ele>429.060</ele>
        <time>2013-02-16T15:12:25Z</time>
      </trkpt>
      <trkpt lat="42.911933" lon="-8.008561">
        <ele>430.054</ele>
        <time>2013-02-16T15:12:45Z</time>
      </trkpt>
      <trkpt lat="42.911964" lon="-8.008797">
        <ele>431.047</ele>
        <time>2013-02-16T15:13:05Z</time>
      </trkpt>
      <trkpt lat="42.912011" lon="-8.009462">
        <ele>433.024</ele>
        <time>2013-02-16T15:13:25Z</time>
      </trkpt>
      <trkpt lat="42.912137" lon="-8.009763">
        <ele>436.072</ele>
        <time>2013-02-16T15:13:45Z</time>
      </trkpt>
      <trkpt lat="42.912278" lon="-8.009999">
        <ele>435.013</ele>
        <time>2013-02-16T15:14:05Z</time>
      </trkpt>
      <trkpt lat="42.912404" lon="-8.010278">
        <ele>434.014</ele>
        <time>2013-02-16T15:14:25Z</time>
      </trkpt>
      <trkpt lat="42.912546" lon="-8.010771">
        <ele>433.007</ele>
        <time>2013-02-16T15:14:45Z</time>
      </trkpt>
      <trkpt lat="42.912671" lon="-8.010986">
        <ele>436.010</ele>
        <time>2013-02-16T15:15:05Z</time>
      </trkpt>
      <trkpt lat="42.912702" lon="-8.011050">
        <ele>436.026</ele>
        <time>2013-02-16T15:15:25Z</time>
      </trkpt>
      <trkpt lat="42.912899" lon="-8.011190">
        <ele>436.036</ele>
        <time>2013-02-16T15:15:45Z</time>
      </trkpt>
      <trkpt lat="42.913056" lon="-8.011318">
        <ele>439.020</ele>
        <time>2013-02-16T15:16:05Z</time>
      </trkpt>
      <trkpt lat="42.913221" lon="-8.011436">
        <ele>441.094</ele>
        <time>2013-02-16T15:16:25Z</time>
      </trkpt>
      <trkpt lat="42.913331" lon="-8.011780">
        <ele>443.017</ele>
        <time>2013-02-16T15:16:45Z</time>
      </trkpt>
      <trkpt lat="42.913355" lon="-8.011962">
        <ele>445.014</ele>
        <time>2013-02-16T15:17:05Z</time>
      </trkpt>
      <trkpt lat="42.913433" lon="-8.012177">
        <ele>449.092</ele>
        <time>2013-02-16T15:17:25Z</time>
      </trkpt>
      <trkpt lat="42.913520" lon="-8.012563">
        <ele>456.073</ele>
        <time>2013-02-16T15:17:45Z</time>
      </trkpt>
      <trkpt lat="42.913535" lon="-8.012799">
        <ele>456.020</ele>
        <time>2013-02-16T15:18:05Z</time>
      </trkpt>
      <trkpt lat="42.913567" lon="-8.013035">
        <ele>454.007</ele>
        <time>2013-02-16T15:18:25Z</time>
      </trkpt>
      <trkpt lat="42.913590" lon="-8.013250">
        <ele>453.082</ele>
        <time>2013-02-16T15:18:45Z</time>
      </trkpt>
      <trkpt lat="42.913661" lon="-8.013647">
        <ele>453.028</ele>
        <time>2013-02-16T15:19:05Z</time>
      </trkpt>
      <trkpt lat="42.913732" lon="-8.014011">
        <ele>453.028</ele>
        <time>2013-02-16T15:19:25Z</time>
      </trkpt>
      <trkpt lat="42.913787" lon="-8.014215">
        <ele>453.052</ele>
        <time>2013-02-16T15:19:45Z</time>
      </trkpt>
      <trkpt lat="42.913826" lon="-8.014387">
        <ele>453.066</ele>
        <time>2013-02-16T15:20:05Z</time>
      </trkpt>
      <trkpt lat="42.913842" lon="-8.014719">
        <ele>453.069</ele>
        <time>2013-02-16T15:20:25Z</time>
      </trkpt>
      <trkpt lat="42.913850" lon="-8.014784">
        <ele>453.016</ele>
        <time>2013-02-16T15:20:45Z</time>
      </trkpt>
      <trkpt lat="42.913936" lon="-8.015063">
        <ele>453.027</ele>
        <time>2013-02-16T15:21:05Z</time>
      </trkpt>
      <trkpt lat="42.913857" lon="-8.015256">
        <ele>454.068</ele>
        <time>2013-02-16T15:21:25Z</time>
      </trkpt>
      <trkpt lat="42.913802" lon="-8.015621">
        <ele>454.014</ele>
        <time>2013-02-16T15:21:45Z</time>
      </trkpt>
      <trkpt lat="42.913669" lon="-8.015867">
        <ele>454.007</ele>
        <time>2013-02-16T15:22:05Z</time>
      </trkpt>
      <trkpt lat="42.913637" lon="-8.016071">
        <ele>454.025</ele>
        <time>2013-02-16T15:22:25Z</time>
      </trkpt>
      <trkpt lat="42.913457" lon="-8.016490">
        <ele>454.061</ele>
        <time>2013-02-16T15:22:45Z</time>
      </trkpt>
      <trkpt lat="42.913339" lon="-8.016887">
        <ele>453.041</ele>
        <time>2013-02-16T15:23:05Z</time>
      </trkpt>
      <trkpt lat="42.913260" lon="-8.017123">
        <ele>454.065</ele>
        <time>2013-02-16T15:23:25Z</time>
      </trkpt>
      <trkpt lat="42.913197" lon="-8.017370">
        <ele>454.069</ele>
        <time>2013-02-16T15:23:45Z</time>
      </trkpt>
      <trkpt lat="42.913158" lon="-8.017509">
        <ele>453.042</ele>
        <time>2013-02-16T15:24:05Z</time>
      </trkpt>
      <trkpt lat="42.913087" lon="-8.017895">
        <ele>453.029</ele>
        <time>2013-02-16T15:24:25Z</time>
      </trkpt>
      <trkpt lat="42.913032" lon="-8.018013">
        <ele>453.035</ele>
        <time>2013-02-16T15:24:45Z</time>
      </trkpt>
      <trkpt lat="42.912985" lon="-8.018153">
        <ele>453.086</ele>
        <time>2013-02-16T15:25:05Z</time>
      </trkpt>
      <trkpt lat="42.912922" lon="-8.018346">
        <ele>453.014</ele>
        <time>2013-02-16T15:25:25Z</time>
      </trkpt>
      <trkpt lat="42.912899" lon="-8.018528">
        <ele>452.007</ele>
        <time>2013-02-16T15:25:45Z</time>
      </trkpt>
      <trkpt lat="42.912820" lon="-8.018657">
        <ele>452.026</ele>
        <time>2013-02-16T15:26:05Z</time>
      </trkpt>
      <trkpt lat="42.912742" lon="-8.018893">
        <ele>452.062</ele>
        <time>2013-02-16T15:26:25Z</time>
      </trkpt>
      <trkpt lat="42.912687" lon="-8.018957">
        <ele>452.032</ele>
        <time>2013-02-16T15:26:45Z</time>
      </trkpt>
      <trkpt lat="42.912600" lon="-8.019086">
        <ele>452.076</ele>
        <time>2013-02-16T15:27:05Z</time>
      </trkpt>
      <trkpt lat="42.912561" lon="-8.019193">
        <ele>452.060</ele>
        <time>2013-02-16T15:27:25Z</time>
      </trkpt>
      <trkpt lat="42.912514" lon="-8.019269">
        <ele>452.073</ele>
        <time>2013-02-16T15:27:45Z</time>
      </trkpt>
      <trkpt lat="42.912459" lon="-8.019322">
        <ele>451.040</ele>
        <time>2013-02-16T15:28:05Z</time>
      </trkpt>
      <trkpt lat="42.912349" lon="-8.019526">
        <ele>450.024</ele>
        <time>2013-02-16T15:28:25Z</time>
      </trkpt>
      <trkpt lat="42.912286" lon="-8.019687">
        <ele>448.004</ele>
        <time>2013-02-16T15:28:45Z</time>
      </trkpt>
      <trkpt lat="42.912207" lon="-8.019880">
        <ele>445.014</ele>
        <time>2013-02-16T15:29:05Z</time>
      </trkpt>
      <trkpt lat="42.912160" lon="-8.020020">
        <ele>445.007</ele>
        <time>2013-02-16T15:29:25Z</time>
      </trkpt>
      <trkpt lat="42.912121" lon="-8.020159">
        <ele>442.055</ele>
        <time>2013-02-16T15:29:45Z</time>
      </trkpt>
      <trkpt lat="42.912113" lon="-8.020331">
        <ele>442.041</ele>
        <time>2013-02-16T15:30:05Z</time>
      </trkpt>
      <trkpt lat="42.912129" lon="-8.020502">
        <ele>439.081</ele>
        <time>2013-02-16T15:30:25Z</time>
      </trkpt>
      <trkpt lat="42.912129" lon="-8.020610">
        <ele>439.015</ele>
        <time>2013-02-16T15:30:45Z</time>
      </trkpt>
      <trkpt lat="42.912168" lon="-8.020931">
        <ele>435.069</ele>
        <time>2013-02-16T15:31:05Z</time>
      </trkpt>
      <trkpt lat="42.912184" lon="-8.020985">
        <ele>432.072</ele>
        <time>2013-02-16T15:31:25Z</time>
      </trkpt>
      <trkpt lat="42.912215" lon="-8.021253">
        <ele>429.039</ele>
        <time>2013-02-16T15:31:45Z</time>
      </trkpt>
      <trkpt lat="42.912247" lon="-8.021350">
        <ele>429.085</ele>
        <time>2013-02-16T15:32:05Z</time>
      </trkpt>
      <trkpt lat="42.912302" lon="-8.021532">
        <ele>427.089</ele>
        <time>2013-02-16T15:32:25Z</time>
      </trkpt>
      <trkpt lat="42.912325" lon="-8.021736">
        <ele>427.017</ele>
        <time>2013-02-16T15:32:45Z</time>
      </trkpt>
      <trkpt lat="42.912365" lon="-8.021876">
        <ele>427.007</ele>
        <time>2013-02-16T15:33:05Z</time>
      </trkpt>
      <trkpt lat="42.912404" lon="-8.022090">
        <ele>425.011</ele>
        <time>2013-02-16T15:33:25Z</time>
      </trkpt>
      <trkpt lat="42.912435" lon="-8.022283">
        <ele>425.077</ele>
        <time>2013-02-16T15:33:45Z</time>
      </trkpt>
      <trkpt lat="42.912451" lon="-8.022391">
        <ele>423.027</ele>
        <time>2013-02-16T15:34:05Z</time>
      </trkpt>
      <trkpt lat="42.912420" lon="-8.022434">
        <ele>423.031</ele>
        <time>2013-02-16T15:34:25Z</time>
      </trkpt>
      <trkpt lat="42.912333" lon="-8.022605">
        <ele>423.095</ele>
        <time>2013-02-16T15:34:45Z</time>
      </trkpt>
      <trkpt lat="42.912294" lon="-8.022680">
        <ele>422.088</ele>
        <time>2013-02-16T15:35:05Z</time>
      </trkpt>
      <trkpt lat="42.912247" lon="-8.022745">
        <ele>422.085</ele>
        <time>2013-02-16T15:35:25Z</time>
      </trkpt>
      <trkpt lat="42.912121" lon="-8.022884">
        <ele>422.018</ele>
        <time>2013-02-16T15:35:45Z</time>
      </trkpt>
      <trkpt lat="42.912089" lon="-8.022959">
        <ele>421.098</ele>
        <time>2013-02-16T15:36:05Z</time>
      </trkpt>
      <trkpt lat="42.911972" lon="-8.023109">
        <ele>422.017</ele>
        <time>2013-02-16T15:36:25Z</time>
      </trkpt>
      <trkpt lat="42.911909" lon="-8.023238">
        <ele>422.007</ele>
        <time>2013-02-16T15:36:45Z</time>
      </trkpt>
      <trkpt lat="42.911830" lon="-8.023367">
        <ele>422.054</ele>
        <time>2013-02-16T15:37:05Z</time>
      </trkpt>
      <trkpt lat="42.911673" lon="-8.023689">
        <ele>422.080</ele>
        <time>2013-02-16T15:37:25Z</time>
      </trkpt>
      <trkpt lat="42.911618" lon="-8.023796">
        <ele>422.050</ele>
        <time>2013-02-16T15:37:45Z</time>
      </trkpt>
      <trkpt lat="42.911484" lon="-8.023925">
        <ele>422.024</ele>
        <time>2013-02-16T15:38:05Z</time>
      </trkpt>
      <trkpt lat="42.911343" lon="-8.024129">
        <ele>422.058</ele>
        <time>2013-02-16T15:38:25Z</time>
      </trkpt>
      <trkpt lat="42.911280" lon="-8.024204">
        <ele>422.071</ele>
        <time>2013-02-16T15:38:45Z</time>
      </trkpt>
      <trkpt lat="42.911194" lon="-8.024311">
        <ele>422.058</ele>
        <time>2013-02-16T15:39:05Z</time>
      </trkpt>
      <trkpt lat="42.911139" lon="-8.024418">
        <ele>422.044</ele>
        <time>2013-02-16T15:39:25Z</time>
      </trkpt>
      <trkpt lat="42.911162" lon="-8.024515">
        <ele>422.005</ele>
        <time>2013-02-16T15:39:45Z</time>
      </trkpt>
      <trkpt lat="42.911225" lon="-8.024751">
        <ele>421.015</ele>
        <time>2013-02-16T15:40:05Z</time>
      </trkpt>
      <trkpt lat="42.911264" lon="-8.024815">
        <ele>421.007</ele>
        <time>2013-02-16T15:40:25Z</time>
      </trkpt>
      <trkpt lat="42.911312" lon="-8.024966">
        <ele>419.027</ele>
        <time>2013-02-16T15:40:45Z</time>
      </trkpt>
      <trkpt lat="42.911343" lon="-8.025030">
        <ele>419.083</ele>
        <time>2013-02-16T15:41:05Z</time>
      </trkpt>
      <trkpt lat="42.911390" lon="-8.025223">
        <ele>418.043</ele>
        <time>2013-02-16T15:41:25Z</time>
      </trkpt>
      <trkpt lat="42.911422" lon="-8.025309">
        <ele>418.037</ele>
        <time>2013-02-16T15:41:45Z</time>
      </trkpt>
      <trkpt lat="42.911453" lon="-8.025427">
        <ele>418.081</ele>
        <time>2013-02-16T15:42:05Z</time>
      </trkpt>
      <trkpt lat="42.911500" lon="-8.025609">
        <ele>418.044</ele>
        <time>2013-02-16T15:42:25Z</time>
      </trkpt>
      <trkpt lat="42.911547" lon="-8.025727">
        <ele>415.011</ele>
        <time>2013-02-16T15:42:45Z</time>
      </trkpt>
      <trkpt lat="42.911642" lon="-8.026049">
        <ele>414.063</ele>
        <time>2013-02-16T15:43:05Z</time>
      </trkpt>
      <trkpt lat="42.911657" lon="-8.026146">
        <ele>414.044</ele>
        <time>2013-02-16T15:43:25Z</time>
      </trkpt>
      <trkpt lat="42.911697" lon="-8.026328">
        <ele>413.018</ele>
        <time>2013-02-16T15:43:45Z</time>
      </trkpt>
      <trkpt lat="42.911759" lon="-8.026553">
        <ele>413.007</ele>
        <time>2013-02-16T15:44:05Z</time>
      </trkpt>
      <trkpt lat="42.911807" lon="-8.026693">
        <ele>412.069</ele>
        <time>2013-02-16T15:44:25Z</time>
      </trkpt>
      <trkpt lat="42.911869" lon="-8.026875">
        <ele>412.015</ele>
        <time>2013-02-16T15:44:45Z</time>
      </trkpt>
      <trkpt lat="42.911917" lon="-8.027025">
        <ele>412.015</ele>
        <time>2013-02-16T15:45:05Z</time>
      </trkpt>
      <trkpt lat="42.911987" lon="-8.027197">
        <ele>412.069</ele>
        <time>2013-02-16T15:45:25Z</time>
      </trkpt>
      <trkpt lat="42.912027" lon="-8.027337">
        <ele>412.063</ele>
        <time>2013-02-16T15:45:45Z</time>
      </trkpt>
      <trkpt lat="42.912034" lon="-8.027422">
        <ele>409.066</ele>
        <time>2013-02-16T15:46:05Z</time>
      </trkpt>
      <trkpt lat="42.912034" lon="-8.027841">
        <ele>407.033</ele>
        <time>2013-02-16T15:46:25Z</time>
      </trkpt>
      <trkpt lat="42.912034" lon="-8.027905">
        <ele>407.039</ele>
        <time>2013-02-16T15:46:45Z</time>
      </trkpt>
      <trkpt lat="42.912066" lon="-8.028098">
        <ele>408.001</ele>
        <time>2013-02-16T15:47:05Z</time>
      </trkpt>
      <trkpt lat="42.912105" lon="-8.028399">
        <ele>412.021</ele>
        <time>2013-02-16T15:47:25Z</time>
      </trkpt>
      <trkpt lat="42.912176" lon="-8.028753">
        <ele>413.007</ele>
        <time>2013-02-16T15:47:45Z</time>
      </trkpt>
      <trkpt lat="42.912176" lon="-8.028967">
        <ele>413.016</ele>
        <time>2013-02-16T15:48:05Z</time>
      </trkpt>
      <trkpt lat="42.912192" lon="-8.029311">
        <ele>415.042</ele>
        <time>2013-02-16T15:48:25Z</time>
      </trkpt>
      <trkpt lat="42.912215" lon="-8.029912">
        <ele>414.032</ele>
        <time>2013-02-16T15:48:45Z</time>
      </trkpt>
      <trkpt lat="42.912207" lon="-8.030051">
        <ele>414.076</ele>
        <time>2013-02-16T15:49:05Z</time>
      </trkpt>
      <trkpt lat="42.912192" lon="-8.030427">
        <ele>413.020</ele>
        <time>2013-02-16T15:49:25Z</time>
      </trkpt>
      <trkpt lat="42.912199" lon="-8.030555">
        <ele>413.093</ele>
        <time>2013-02-16T15:49:45Z</time>
      </trkpt>
      <trkpt lat="42.912207" lon="-8.030899">
        <ele>412.090</ele>
        <time>2013-02-16T15:50:05Z</time>
      </trkpt>
      <trkpt lat="42.912215" lon="-8.031049">
        <ele>411.052</ele>
        <time>2013-02-16T15:50:25Z</time>
      </trkpt>
      <trkpt lat="42.912144" lon="-8.031285">
        <ele>411.053</ele>
        <time>2013-02-16T15:50:45Z</time>
      </trkpt>
      <trkpt lat="42.912121" lon="-8.031521">
        <ele>411.008</ele>
        <time>2013-02-16T15:51:05Z</time>
      </trkpt>
      <trkpt lat="42.912066" lon="-8.031650">
        <ele>410.007</ele>
        <time>2013-02-16T15:51:25Z</time>
      </trkpt>
      <trkpt lat="42.912019" lon="-8.031811">
        <ele>411.048</ele>
        <time>2013-02-16T15:51:45Z</time>
      </trkpt>
      <trkpt lat="42.912042" lon="-8.031971">
        <ele>411.044</ele>
        <time>2013-02-16T15:52:05Z</time>
      </trkpt>
      <trkpt lat="42.912050" lon="-8.032175">
        <ele>412.044</ele>
        <time>2013-02-16T15:52:25Z</time>
      </trkpt>
      <trkpt lat="42.912074" lon="-8.032229">
        <ele>412.018</ele>
        <time>2013-02-16T15:52:45Z</time>
      </trkpt>
      <trkpt lat="42.912113" lon="-8.032444">
        <ele>416.052</ele>
        <time>2013-02-16T15:53:05Z</time>
      </trkpt>
      <trkpt lat="42.912113" lon="-8.032583">
        <ele>416.045</ele>
        <time>2013-02-16T15:53:25Z</time>
      </trkpt>
      <trkpt lat="42.912042" lon="-8.032830">
        <ele>415.012</ele>
        <time>2013-02-16T15:53:45Z</time>
      </trkpt>
      <trkpt lat="42.912042" lon="-8.033195">
        <ele>420.065</ele>
        <time>2013-02-16T15:54:05Z</time>
      </trkpt>
      <trkpt lat="42.912042" lon="-8.033420">
        <ele>420.068</ele>
        <time>2013-02-16T15:54:25Z</time>
      </trkpt>
      <trkpt lat="42.912074" lon="-8.033763">
        <ele>413.014</ele>
        <time>2013-02-16T15:54:45Z</time>
      </trkpt>
      <trkpt lat="42.912089" lon="-8.033903">
        <ele>416.007</ele>
        <time>2013-02-16T15:55:05Z</time>
      </trkpt>
      <trkpt lat="42.912113" lon="-8.034139">
        <ele>413.039</ele>
        <time>2013-02-16T15:55:25Z</time>
      </trkpt>
      <trkpt lat="42.912160" lon="-8.034332">
        <ele>412.095</ele>
        <time>2013-02-16T15:55:45Z</time>
      </trkpt>
      <trkpt lat="42.912223" lon="-8.034589">
        <ele>411.055</ele>
        <time>2013-02-16T15:56:05Z</time>
      </trkpt>
      <trkpt lat="42.912294" lon="-8.034879">
        <ele>410.029</ele>
        <time>2013-02-16T15:56:25Z</time>
      </trkpt>
      <trkpt lat="42.912333" lon="-8.034986">
        <ele>410.083</ele>
        <time>2013-02-16T15:56:45Z</time>
      </trkpt>
      <trkpt lat="42.912388" lon="-8.035244">
        <ele>413.096</ele>
        <time>2013-02-16T15:57:05Z</time>
      </trkpt>
      <trkpt lat="42.912412" lon="-8.035362">
        <ele>413.093</ele>
        <time>2013-02-16T15:57:25Z</time>
      </trkpt>
      <trkpt lat="42.912451" lon="-8.035480">
        <ele>412.075</ele>
        <time>2013-02-16T15:57:45Z</time>
      </trkpt>
      <trkpt lat="42.912490" lon="-8.035587">
        <ele>412.028</ele>
        <time>2013-02-16T15:58:05Z</time>
      </trkpt>
      <trkpt lat="42.912514" lon="-8.035780">
        <ele>411.020</ele>
        <time>2013-02-16T15:58:25Z</time>
      </trkpt>
      <trkpt lat="42.912530" lon="-8.035845">
        <ele>411.007</ele>
        <time>2013-02-16T15:58:45Z</time>
      </trkpt>
      <trkpt lat="42.912569" lon="-8.035930">
        <ele>411.010</ele>
        <time>2013-02-16T15:59:05Z</time>
      </trkpt>
      <trkpt lat="42.912577" lon="-8.036016">
        <ele>410.086</ele>
        <time>2013-02-16T15:59:25Z</time>
      </trkpt>
      <trkpt lat="42.912577" lon="-8.036166">
        <ele>410.076</ele>
        <time>2013-02-16T15:59:45Z</time>
      </trkpt>
      <trkpt lat="42.912569" lon="-8.036424">
        <ele>410.040</ele>
        <time>2013-02-16T16:00:05Z</time>
      </trkpt>
      <trkpt lat="42.912577" lon="-8.036660">
        <ele>411.024</ele>
        <time>2013-02-16T16:00:25Z</time>
      </trkpt>
      <trkpt lat="42.912592" lon="-8.036896">
        <ele>413.067</ele>
        <time>2013-02-16T16:00:45Z</time>
      </trkpt>
      <trkpt lat="42.912640" lon="-8.037100">
        <ele>416.024</ele>
        <time>2013-02-16T16:01:05Z</time>
      </trkpt>
      <trkpt lat="42.912797" lon="-8.037508">
        <ele>417.083</ele>
        <time>2013-02-16T16:01:25Z</time>
      </trkpt>
      <trkpt lat="42.912844" lon="-8.037572">
        <ele>417.025</ele>
        <time>2013-02-16T16:01:45Z</time>
      </trkpt>
      <trkpt lat="42.912836" lon="-8.037626">
        <ele>417.017</ele>
        <time>2013-02-16T16:02:05Z</time>
      </trkpt>
      <trkpt lat="42.912915" lon="-8.037722">
        <ele>416.007</ele>
        <time>2013-02-16T16:02:25Z</time>
      </trkpt>
      <trkpt lat="42.913040" lon="-8.038098">
        <ele>418.051</ele>
        <time>2013-02-16T16:02:45Z</time>
      </trkpt>
      <trkpt lat="42.913087" lon="-8.038162">
        <ele>418.067</ele>
        <time>2013-02-16T16:03:05Z</time>
      </trkpt>
      <trkpt lat="42.913190" lon="-8.038452">
        <ele>419.037</ele>
        <time>2013-02-16T16:03:25Z</time>
      </trkpt>
      <trkpt lat="42.913252" lon="-8.038580">
        <ele>422.071</ele>
        <time>2013-02-16T16:03:45Z</time>
      </trkpt>
      <trkpt lat="42.913331" lon="-8.038838">
        <ele>422.035</ele>
        <time>2013-02-16T16:04:05Z</time>
      </trkpt>
      <trkpt lat="42.913402" lon="-8.038956">
        <ele>422.058</ele>
        <time>2013-02-16T16:04:25Z</time>
      </trkpt>
      <trkpt lat="42.913480" lon="-8.039085">
        <ele>427.015</ele>
        <time>2013-02-16T16:04:45Z</time>
      </trkpt>
      <trkpt lat="42.913575" lon="-8.039267">
        <ele>427.015</ele>
        <time>2013-02-16T16:05:05Z</time>
      </trkpt>
      <trkpt lat="42.913834" lon="-8.039460">
        <ele>430.065</ele>
        <time>2013-02-16T16:05:25Z</time>
      </trkpt>
      <trkpt lat="42.913975" lon="-8.039600">
        <ele>424.011</ele>
        <time>2013-02-16T16:05:45Z</time>
      </trkpt>
      <trkpt lat="42.914085" lon="-8.039793">
        <ele>428.007</ele>
        <time>2013-02-16T16:06:05Z</time>
      </trkpt>
      <trkpt lat="42.914195" lon="-8.039868">
        <ele>426.084</ele>
        <time>2013-02-16T16:06:25Z</time>
      </trkpt>
      <trkpt lat="42.914345" lon="-8.040061">
        <ele>427.070</ele>
        <time>2013-02-16T16:06:45Z</time>
      </trkpt>
      <trkpt lat="42.914557" lon="-8.040297">
        <ele>426.090</ele>
        <time>2013-02-16T16:07:05Z</time>
      </trkpt>
      <trkpt lat="42.914683" lon="-8.040458">
        <ele>419.084</ele>
        <time>2013-02-16T16:07:25Z</time>
      </trkpt>
      <trkpt lat="42.914824" lon="-8.040619">
        <ele>419.098</ele>
        <time>2013-02-16T16:07:45Z</time>
      </trkpt>
      <trkpt lat="42.914934" lon="-8.040683">
        <ele>415.011</ele>
        <time>2013-02-16T16:08:05Z</time>
      </trkpt>
      <trkpt lat="42.915060" lon="-8.040812">
        <ele>413.068</ele>
        <time>2013-02-16T16:08:25Z</time>
      </trkpt>
      <trkpt lat="42.915130" lon="-8.041016">
        <ele>413.082</ele>
        <time>2013-02-16T16:08:45Z</time>
      </trkpt>
      <trkpt lat="42.915170" lon="-8.041134">
        <ele>411.043</ele>
        <time>2013-02-16T16:09:05Z</time>
      </trkpt>
      <trkpt lat="42.915217" lon="-8.041381">
        <ele>412.017</ele>
        <time>2013-02-16T16:09:25Z</time>
      </trkpt>
      <trkpt lat="42.915335" lon="-8.041681">
        <ele>415.007</ele>
        <time>2013-02-16T16:09:45Z</time>
      </trkpt>
      <trkpt lat="42.915476" lon="-8.041906">
        <ele>416.061</ele>
        <time>2013-02-16T16:10:05Z</time>
      </trkpt>
      <trkpt lat="42.915657" lon="-8.042121">
        <ele>419.077</ele>
        <time>2013-02-16T16:10:25Z</time>
      </trkpt>
      <trkpt lat="42.915783" lon="-8.042228">
        <ele>417.097</ele>
        <time>2013-02-16T16:10:45Z</time>
      </trkpt>
      <trkpt lat="42.915916" lon="-8.042368">
        <ele>420.081</ele>
        <time>2013-02-16T16:11:05Z</time>
      </trkpt>
      <trkpt lat="42.916042" lon="-8.042421">
        <ele>419.095</ele>
        <time>2013-02-16T16:11:25Z</time>
      </trkpt>
      <trkpt lat="42.916215" lon="-8.042614">
        <ele>419.088</ele>
        <time>2013-02-16T16:11:45Z</time>
      </trkpt>
      <trkpt lat="42.916262" lon="-8.042711">
        <ele>424.025</ele>
        <time>2013-02-16T16:12:05Z</time>
      </trkpt>
      <trkpt lat="42.916301" lon="-8.043033">
        <ele>431.031</ele>
        <time>2013-02-16T16:12:25Z</time>
      </trkpt>
      <trkpt lat="42.916293" lon="-8.043355">
        <ele>434.061</ele>
        <time>2013-02-16T16:12:45Z</time>
      </trkpt>
      <trkpt lat="42.916333" lon="-8.043655">
        <ele>437.007</ele>
        <time>2013-02-16T16:13:05Z</time>
      </trkpt>
      <trkpt lat="42.916364" lon="-8.043891">
        <ele>442.007</ele>
        <time>2013-02-16T16:13:25Z</time>
      </trkpt>
      <trkpt lat="42.916403" lon="-8.044159">
        <ele>446.086</ele>
        <time>2013-02-16T16:13:45Z</time>
      </trkpt>
      <trkpt lat="42.916419" lon="-8.044363">
        <ele>449.072</ele>
        <time>2013-02-16T16:14:05Z</time>
      </trkpt>
      <trkpt lat="42.916419" lon="-8.044674">
        <ele>450.022</ele>
        <time>2013-02-16T16:14:25Z</time>
      </trkpt>
      <trkpt lat="42.916411" lon="-8.044846">
        <ele>450.026</ele>
        <time>2013-02-16T16:14:45Z</time>
      </trkpt>
      <trkpt lat="42.916388" lon="-8.045071">
        <ele>450.090</ele>
        <time>2013-02-16T16:15:05Z</time>
      </trkpt>
      <trkpt lat="42.916348" lon="-8.045232">
        <ele>450.013</ele>
        <time>2013-02-16T16:15:25Z</time>
      </trkpt>
      <trkpt lat="42.916278" lon="-8.045425">
        <ele>448.080</ele>
        <time>2013-02-16T16:15:45Z</time>
      </trkpt>
      <trkpt lat="42.916230" lon="-8.045726">
        <ele>447.099</ele>
        <time>2013-02-16T16:16:05Z</time>
      </trkpt>
      <trkpt lat="42.916160" lon="-8.046134">
        <ele>445.007</ele>
        <time>2013-02-16T16:16:25Z</time>
      </trkpt>
      <trkpt lat="42.916136" lon="-8.046530">
        <ele>445.027</ele>
        <time>2013-02-16T16:16:45Z</time>
      </trkpt>
      <trkpt lat="42.916168" lon="-8.046670">
        <ele>445.007</ele>
        <time>2013-02-16T16:17:05Z</time>
      </trkpt>
      <trkpt lat="42.916215" lon="-8.046852">
        <ele>445.042</ele>
        <time>2013-02-16T16:17:25Z</time>
      </trkpt>
      <trkpt lat="42.916340" lon="-8.047035">
        <ele>444.098</ele>
        <time>2013-02-16T16:17:45Z</time>
      </trkpt>
      <trkpt lat="42.916427" lon="-8.047228">
        <ele>443.048</ele>
        <time>2013-02-16T16:18:05Z</time>
      </trkpt>
      <trkpt lat="42.916521" lon="-8.047464">
        <ele>442.052</ele>
        <time>2013-02-16T16:18:25Z</time>
      </trkpt>
      <trkpt lat="42.916615" lon="-8.047700">
        <ele>442.016</ele>
        <time>2013-02-16T16:18:45Z</time>
      </trkpt>
      <trkpt lat="42.916655" lon="-8.047818">
        <ele>442.039</ele>
        <time>2013-02-16T16:19:05Z</time>
      </trkpt>
      <trkpt lat="42.916694" lon="-8.047979">
        <ele>440.056</ele>
        <time>2013-02-16T16:19:25Z</time>
      </trkpt>
      <trkpt lat="42.916710" lon="-8.048140">
        <ele>440.051</ele>
        <time>2013-02-16T16:19:45Z</time>
      </trkpt>
      <trkpt lat="42.916710" lon="-8.048226">
        <ele>440.001</ele>
        <time>2013-02-16T16:20:05Z</time>
      </trkpt>
      <trkpt lat="42.916678" lon="-8.048655">
        <ele>441.011</ele>
        <time>2013-02-16T16:20:25Z</time>
      </trkpt>
      <trkpt lat="42.916631" lon="-8.048794">
        <ele>444.007</ele>
        <time>2013-02-16T16:20:45Z</time>
      </trkpt>
      <trkpt lat="42.916623" lon="-8.048955">
        <ele>444.048</ele>
        <time>2013-02-16T16:21:05Z</time>
      </trkpt>
      <trkpt lat="42.916851" lon="-8.049084">
        <ele>448.084</ele>
        <time>2013-02-16T16:21:25Z</time>
      </trkpt>
      <trkpt lat="42.917040" lon="-8.049363">
        <ele>446.014</ele>
        <time>2013-02-16T16:21:45Z</time>
      </trkpt>
      <trkpt lat="42.917134" lon="-8.049535">
        <ele>449.068</ele>
        <time>2013-02-16T16:22:05Z</time>
      </trkpt>
      <trkpt lat="42.917268" lon="-8.049642">
        <ele>445.062</ele>
        <time>2013-02-16T16:22:25Z</time>
      </trkpt>
      <trkpt lat="42.917385" lon="-8.049792">
        <ele>447.055</ele>
        <time>2013-02-16T16:22:45Z</time>
      </trkpt>
      <trkpt lat="42.917433" lon="-8.049964">
        <ele>446.022</ele>
        <time>2013-02-16T16:23:05Z</time>
      </trkpt>
      <trkpt lat="42.917472" lon="-8.049996">
        <ele>446.052</ele>
        <time>2013-02-16T16:23:25Z</time>
      </trkpt>
      <trkpt lat="42.917527" lon="-8.050307">
        <ele>446.053</ele>
        <time>2013-02-16T16:23:45Z</time>
      </trkpt>
      <trkpt lat="42.917543" lon="-8.050436">
        <ele>448.008</ele>
        <time>2013-02-16T16:24:05Z</time>
      </trkpt>
      <trkpt lat="42.917590" lon="-8.050758">
        <ele>450.007</ele>
        <time>2013-02-16T16:24:25Z</time>
      </trkpt>
      <trkpt lat="42.917598" lon="-8.050897">
        <ele>450.078</ele>
        <time>2013-02-16T16:24:45Z</time>
      </trkpt>
      <trkpt lat="42.917613" lon="-8.051294">
        <ele>456.094</ele>
        <time>2013-02-16T16:25:05Z</time>
      </trkpt>
      <trkpt lat="42.917609" lon="-8.051337">
        <ele>456.024</ele>
        <time>2013-02-16T16:25:25Z</time>
      </trkpt>
      <trkpt lat="42.917629" lon="-8.051482">
        <ele>456.088</ele>
        <time>2013-02-16T16:25:45Z</time>
      </trkpt>
      <trkpt lat="42.917672" lon="-8.051713">
        <ele>459.012</ele>
        <time>2013-02-16T16:26:05Z</time>
      </trkpt>
      <trkpt lat="42.917621" lon="-8.051723">
        <ele>458.035</ele>
        <time>2013-02-16T16:26:25Z</time>
      </trkpt>
      <trkpt lat="42.917527" lon="-8.051809">
        <ele>459.052</ele>
        <time>2013-02-16T16:26:45Z</time>
      </trkpt>
      <trkpt lat="42.917354" lon="-8.051873">
        <ele>459.072</ele>
        <time>2013-02-16T16:27:05Z</time>
      </trkpt>
      <trkpt lat="42.917197" lon="-8.051938">
        <ele>459.013</ele>
        <time>2013-02-16T16:27:25Z</time>
      </trkpt>
      <trkpt lat="42.917079" lon="-8.052045">
        <ele>457.014</ele>
        <time>2013-02-16T16:27:45Z</time>
      </trkpt>
      <trkpt lat="42.917024" lon="-8.052077">
        <ele>457.007</ele>
        <time>2013-02-16T16:28:05Z</time>
      </trkpt>
      <trkpt lat="42.916922" lon="-8.052227">
        <ele>459.080</ele>
        <time>2013-02-16T16:28:25Z</time>
      </trkpt>
      <trkpt lat="42.916875" lon="-8.052281">
        <ele>459.076</ele>
        <time>2013-02-16T16:28:45Z</time>
      </trkpt>
      <trkpt lat="42.916859" lon="-8.052399">
        <ele>459.076</ele>
        <time>2013-02-16T16:29:05Z</time>
      </trkpt>
      <trkpt lat="42.916820" lon="-8.052539">
        <ele>459.030</ele>
        <time>2013-02-16T16:29:25Z</time>
      </trkpt>
      <trkpt lat="42.916757" lon="-8.052732">
        <ele>458.084</ele>
        <time>2013-02-16T16:29:45Z</time>
      </trkpt>
      <trkpt lat="42.916655" lon="-8.052957">
        <ele>459.057</ele>
        <time>2013-02-16T16:30:05Z</time>
      </trkpt>
      <trkpt lat="42.916482" lon="-8.053515">
        <ele>458.014</ele>
        <time>2013-02-16T16:30:25Z</time>
      </trkpt>
      <trkpt lat="42.916388" lon="-8.053730">
        <ele>458.054</ele>
        <time>2013-02-16T16:30:45Z</time>
      </trkpt>
      <trkpt lat="42.916333" lon="-8.053933">
        <ele>460.056</ele>
        <time>2013-02-16T16:31:05Z</time>
      </trkpt>
      <trkpt lat="42.916230" lon="-8.054212">
        <ele>459.011</ele>
        <time>2013-02-16T16:31:25Z</time>
      </trkpt>
      <trkpt lat="42.916136" lon="-8.054405">
        <ele>460.007</ele>
        <time>2013-02-16T16:31:45Z</time>
      </trkpt>
      <trkpt lat="42.916042" lon="-8.054620">
        <ele>460.078</ele>
        <time>2013-02-16T16:32:05Z</time>
      </trkpt>
      <trkpt lat="42.915963" lon="-8.054802">
        <ele>458.034</ele>
        <time>2013-02-16T16:32:25Z</time>
      </trkpt>
      <trkpt lat="42.915869" lon="-8.055006">
        <ele>457.014</ele>
        <time>2013-02-16T16:32:45Z</time>
      </trkpt>
      <trkpt lat="42.915830" lon="-8.055221">
        <ele>456.088</ele>
        <time>2013-02-16T16:33:05Z</time>
      </trkpt>
      <trkpt lat="42.915814" lon="-8.055328">
        <ele>456.072</ele>
        <time>2013-02-16T16:33:25Z</time>
      </trkpt>
      <trkpt lat="42.915775" lon="-8.055511">
        <ele>454.075</ele>
        <time>2013-02-16T16:33:45Z</time>
      </trkpt>
      <trkpt lat="42.915735" lon="-8.055671">
        <ele>454.072</ele>
        <time>2013-02-16T16:34:05Z</time>
      </trkpt>
      <trkpt lat="42.915673" lon="-8.055950">
        <ele>450.038</ele>
        <time>2013-02-16T16:34:25Z</time>
      </trkpt>
      <trkpt lat="42.915680" lon="-8.056219">
        <ele>449.070</ele>
        <time>2013-02-16T16:34:45Z</time>
      </trkpt>
      <trkpt lat="42.915594" lon="-8.056659">
        <ele>448.017</ele>
        <time>2013-02-16T16:35:05Z</time>
      </trkpt>
      <trkpt lat="42.915523" lon="-8.056830">
        <ele>449.007</ele>
        <time>2013-02-16T16:35:25Z</time>
      </trkpt>
      <trkpt lat="42.915508" lon="-8.057088">
        <ele>450.016</ele>
        <time>2013-02-16T16:35:45Z</time>
      </trkpt>
      <trkpt lat="42.915468" lon="-8.057334">
        <ele>450.092</ele>
        <time>2013-02-16T16:36:05Z</time>
      </trkpt>
      <trkpt lat="42.915405" lon="-8.057710">
        <ele>456.022</ele>
        <time>2013-02-16T16:36:25Z</time>
      </trkpt>
      <trkpt lat="42.915398" lon="-8.058085">
        <ele>457.056</ele>
        <time>2013-02-16T16:36:45Z</time>
      </trkpt>
      <trkpt lat="42.915437" lon="-8.058386">
        <ele>455.080</ele>
        <time>2013-02-16T16:37:05Z</time>
      </trkpt>
      <trkpt lat="42.915437" lon="-8.058558">
        <ele>456.063</ele>
        <time>2013-02-16T16:37:25Z</time>
      </trkpt>
      <trkpt lat="42.915468" lon="-8.058826">
        <ele>456.080</ele>
        <time>2013-02-16T16:37:45Z</time>
      </trkpt>
      <trkpt lat="42.915468" lon="-8.059019">
        <ele>456.063</ele>
        <time>2013-02-16T16:38:05Z</time>
      </trkpt>
      <trkpt lat="42.915468" lon="-8.059309">
        <ele>458.044</ele>
        <time>2013-02-16T16:38:25Z</time>
      </trkpt>
      <trkpt lat="42.915594" lon="-8.059652">
        <ele>459.018</ele>
        <time>2013-02-16T16:38:45Z</time>
      </trkpt>
      <trkpt lat="42.915830" lon="-8.060167">
        <ele>456.007</ele>
        <time>2013-02-16T16:39:05Z</time>
      </trkpt>
      <trkpt lat="42.915924" lon="-8.060489">
        <ele>453.059</ele>
        <time>2013-02-16T16:39:25Z</time>
      </trkpt>
      <trkpt lat="42.916129" lon="-8.060896">
        <ele>449.055</ele>
        <time>2013-02-16T16:39:45Z</time>
      </trkpt>
      <trkpt lat="42.916270" lon="-8.061347">
        <ele>443.055</ele>
        <time>2013-02-16T16:40:05Z</time>
      </trkpt>
      <trkpt lat="42.916317" lon="-8.061604">
        <ele>441.059</ele>
        <time>2013-02-16T16:40:25Z</time>
      </trkpt>
      <trkpt lat="42.916427" lon="-8.061969">
        <ele>439.083</ele>
        <time>2013-02-16T16:40:45Z</time>
      </trkpt>
      <trkpt lat="42.916569" lon="-8.062184">
        <ele>436.056</ele>
        <time>2013-02-16T16:41:05Z</time>
      </trkpt>
      <trkpt lat="42.916553" lon="-8.062463">
        <ele>434.043</ele>
        <time>2013-02-16T16:41:25Z</time>
      </trkpt>
      <trkpt lat="42.916726" lon="-8.062871">
        <ele>432.073</ele>
        <time>2013-02-16T16:41:45Z</time>
      </trkpt>
      <trkpt lat="42.916852" lon="-8.063257">
        <ele>426.085</ele>
        <time>2013-02-16T16:42:05Z</time>
      </trkpt>
      <trkpt lat="42.916914" lon="-8.063514">
        <ele>424.013</ele>
        <time>2013-02-16T16:42:25Z</time>
      </trkpt>
      <trkpt lat="42.917009" lon="-8.063815">
        <ele>421.007</ele>
        <time>2013-02-16T16:42:45Z</time>
      </trkpt>
      <trkpt lat="42.917040" lon="-8.064029">
        <ele>418.050</ele>
        <time>2013-02-16T16:43:05Z</time>
      </trkpt>
      <trkpt lat="42.917056" lon="-8.064244">
        <ele>418.036</ele>
        <time>2013-02-16T16:43:25Z</time>
      </trkpt>
      <trkpt lat="42.917072" lon="-8.064437">
        <ele>416.026</ele>
        <time>2013-02-16T16:43:45Z</time>
      </trkpt>
      <trkpt lat="42.916946" lon="-8.064909">
        <ele>412.080</ele>
        <time>2013-02-16T16:44:05Z</time>
      </trkpt>
      <trkpt lat="42.916852" lon="-8.065124">
        <ele>412.084</ele>
        <time>2013-02-16T16:44:25Z</time>
      </trkpt>
      <trkpt lat="42.916742" lon="-8.065445">
        <ele>410.087</ele>
        <time>2013-02-16T16:44:45Z</time>
      </trkpt>
      <trkpt lat="42.916726" lon="-8.065724">
        <ele>410.064</ele>
        <time>2013-02-16T16:45:05Z</time>
      </trkpt>
      <trkpt lat="42.916569" lon="-8.066196">
        <ele>411.091</ele>
        <time>2013-02-16T16:45:25Z</time>
      </trkpt>
      <trkpt lat="42.916506" lon="-8.066518">
        <ele>412.081</ele>
        <time>2013-02-16T16:45:45Z</time>
      </trkpt>
      <trkpt lat="42.916490" lon="-8.066690">
        <ele>412.019</ele>
        <time>2013-02-16T16:46:05Z</time>
      </trkpt>
      <trkpt lat="42.916254" lon="-8.067634">
        <ele>412.007</ele>
        <time>2013-02-16T16:46:25Z</time>
      </trkpt>
      <trkpt lat="42.916192" lon="-8.067827">
        <ele>412.082</ele>
        <time>2013-02-16T16:46:45Z</time>
      </trkpt>
      <trkpt lat="42.916176" lon="-8.068278">
        <ele>413.038</ele>
        <time>2013-02-16T16:47:05Z</time>
      </trkpt>
      <trkpt lat="42.916082" lon="-8.068664">
        <ele>415.068</ele>
        <time>2013-02-16T16:47:25Z</time>
      </trkpt>
      <trkpt lat="42.916066" lon="-8.069093">
        <ele>418.062</ele>
        <time>2013-02-16T16:47:45Z</time>
      </trkpt>
      <trkpt lat="42.916034" lon="-8.069265">
        <ele>418.016</ele>
        <time>2013-02-16T16:48:05Z</time>
      </trkpt>
      <trkpt lat="42.915909" lon="-8.069458">
        <ele>417.019</ele>
        <time>2013-02-16T16:48:25Z</time>
      </trkpt>
      <trkpt lat="42.915814" lon="-8.069973">
        <ele>414.076</ele>
        <time>2013-02-16T16:48:45Z</time>
      </trkpt>
      <trkpt lat="42.915799" lon="-8.070488">
        <ele>411.054</ele>
        <time>2013-02-16T16:49:05Z</time>
      </trkpt>
      <trkpt lat="42.915799" lon="-8.070660">
        <ele>411.056</ele>
        <time>2013-02-16T16:49:25Z</time>
      </trkpt>
      <trkpt lat="42.915814" lon="-8.070982">
        <ele>409.011</ele>
        <time>2013-02-16T16:49:45Z</time>
      </trkpt>
      <trkpt lat="42.915814" lon="-8.071496">
        <ele>409.007</ele>
        <time>2013-02-16T16:50:05Z</time>
      </trkpt>
      <trkpt lat="42.915846" lon="-8.071754">
        <ele>410.098</ele>
        <time>2013-02-16T16:50:25Z</time>
      </trkpt>
      <trkpt lat="42.915909" lon="-8.072033">
        <ele>411.084</ele>
        <time>2013-02-16T16:50:45Z</time>
      </trkpt>
      <trkpt lat="42.915972" lon="-8.072140">
        <ele>411.014</ele>
        <time>2013-02-16T16:51:05Z</time>
      </trkpt>
      <trkpt lat="42.915909" lon="-8.072484">
        <ele>413.018</ele>
        <time>2013-02-16T16:51:25Z</time>
      </trkpt>
      <trkpt lat="42.915862" lon="-8.072655">
        <ele>416.092</ele>
        <time>2013-02-16T16:51:45Z</time>
      </trkpt>
      <trkpt lat="42.915830" lon="-8.072784">
        <ele>416.085</ele>
        <time>2013-02-16T16:52:05Z</time>
      </trkpt>
      <trkpt lat="42.915752" lon="-8.072977">
        <ele>417.042</ele>
        <time>2013-02-16T16:52:25Z</time>
      </trkpt>
      <trkpt lat="42.915657" lon="-8.073127">
        <ele>414.099</ele>
        <time>2013-02-16T16:52:45Z</time>
      </trkpt>
      <trkpt lat="42.915594" lon="-8.073299">
        <ele>410.007</ele>
        <time>2013-02-16T16:53:05Z</time>
      </trkpt>
      <trkpt lat="42.915469" lon="-8.073514">
        <ele>405.027</ele>
        <time>2013-02-16T16:53:25Z</time>
      </trkpt>
      <trkpt lat="42.915594" lon="-8.073685">
        <ele>405.007</ele>
        <time>2013-02-16T16:53:45Z</time>
      </trkpt>
      <trkpt lat="42.915720" lon="-8.073835">
        <ele>402.032</ele>
        <time>2013-02-16T16:54:05Z</time>
      </trkpt>
      <trkpt lat="42.915830" lon="-8.074114">
        <ele>400.058</ele>
        <time>2013-02-16T16:54:25Z</time>
      </trkpt>
      <trkpt lat="42.915909" lon="-8.074393">
        <ele>399.088</ele>
        <time>2013-02-16T16:54:45Z</time>
      </trkpt>
      <trkpt lat="42.915956" lon="-8.074672">
        <ele>399.012</ele>
        <time>2013-02-16T16:55:05Z</time>
      </trkpt>
      <trkpt lat="42.915972" lon="-8.075294">
        <ele>397.016</ele>
        <time>2013-02-16T16:55:25Z</time>
      </trkpt>
      <trkpt lat="42.915987" lon="-8.075724">
        <ele>395.079</ele>
        <time>2013-02-16T16:55:45Z</time>
      </trkpt>
      <trkpt lat="42.916003" lon="-8.075895">
        <ele>395.086</ele>
        <time>2013-02-16T16:56:05Z</time>
      </trkpt>
      <trkpt lat="42.916050" lon="-8.076174">
        <ele>393.091</ele>
        <time>2013-02-16T16:56:25Z</time>
      </trkpt>
      <trkpt lat="42.916097" lon="-8.076453">
        <ele>391.081</ele>
        <time>2013-02-16T16:56:45Z</time>
      </trkpt>
      <trkpt lat="42.916097" lon="-8.076818">
        <ele>389.019</ele>
        <time>2013-02-16T16:57:05Z</time>
      </trkpt>
      <trkpt lat="42.916113" lon="-8.077590">
        <ele>386.007</ele>
        <time>2013-02-16T16:57:25Z</time>
      </trkpt>
      <trkpt lat="42.916113" lon="-8.077934">
        <ele>383.052</ele>
        <time>2013-02-16T16:57:45Z</time>
      </trkpt>
      <trkpt lat="42.916199" lon="-8.077998">
        <ele>383.098</ele>
        <time>2013-02-16T16:58:05Z</time>
      </trkpt>
      <trkpt lat="42.916411" lon="-8.078138">
        <ele>386.058</ele>
        <time>2013-02-16T16:58:25Z</time>
      </trkpt>
      <trkpt lat="42.916529" lon="-8.078299">
        <ele>384.042</ele>
        <time>2013-02-16T16:58:45Z</time>
      </trkpt>
      <trkpt lat="42.916615" lon="-8.078460">
        <ele>384.086</ele>
        <time>2013-02-16T16:59:05Z</time>
      </trkpt>
      <trkpt lat="42.916686" lon="-8.078685">
        <ele>383.019</ele>
        <time>2013-02-16T16:59:25Z</time>
      </trkpt>
      <trkpt lat="42.916765" lon="-8.078792">
        <ele>381.056</ele>
        <time>2013-02-16T16:59:45Z</time>
      </trkpt>
      <trkpt lat="42.916961" lon="-8.079039">
        <ele>379.017</ele>
        <time>2013-02-16T17:00:05Z</time>
      </trkpt>
      <trkpt lat="42.917315" lon="-8.079071">
        <ele>380.087</ele>
        <time>2013-02-16T17:00:25Z</time>
      </trkpt>
      <trkpt lat="42.917645" lon="-8.079103">
        <ele>380.015</ele>
        <time>2013-02-16T17:00:45Z</time>
      </trkpt>
      <trkpt lat="42.917770" lon="-8.079253">
        <ele>380.007</ele>
        <time>2013-02-16T17:01:05Z</time>
      </trkpt>
      <trkpt lat="42.917873" lon="-8.079414">
        <ele>377.054</ele>
        <time>2013-02-16T17:01:25Z</time>
      </trkpt>
      <trkpt lat="42.917959" lon="-8.079554">
        <ele>372.050</ele>
        <time>2013-02-16T17:01:45Z</time>
      </trkpt>
      <trkpt lat="42.918022" lon="-8.079747">
        <ele>370.070</ele>
        <time>2013-02-16T17:02:05Z</time>
      </trkpt>
      <trkpt lat="42.918116" lon="-8.080155">
        <ele>371.084</ele>
        <time>2013-02-16T17:02:25Z</time>
      </trkpt>
      <trkpt lat="42.918163" lon="-8.080380">
        <ele>371.078</ele>
        <time>2013-02-16T17:02:45Z</time>
      </trkpt>
      <trkpt lat="42.918203" lon="-8.080573">
        <ele>364.041</ele>
        <time>2013-02-16T17:03:05Z</time>
      </trkpt>
      <trkpt lat="42.918234" lon="-8.080927">
        <ele>364.038</ele>
        <time>2013-02-16T17:03:25Z</time>
      </trkpt>
      <trkpt lat="42.918281" lon="-8.081034">
        <ele>363.088</ele>
        <time>2013-02-16T17:03:45Z</time>
      </trkpt>
      <trkpt lat="42.918305" lon="-8.081281">
        <ele>362.024</ele>
        <time>2013-02-16T17:04:05Z</time>
      </trkpt>
      <trkpt lat="42.918305" lon="-8.081506">
        <ele>362.026</ele>
        <time>2013-02-16T17:04:25Z</time>
      </trkpt>
      <trkpt lat="42.918297" lon="-8.081743">
        <ele>361.007</ele>
        <time>2013-02-16T17:04:45Z</time>
      </trkpt>
      <trkpt lat="42.918289" lon="-8.081968">
        <ele>359.021</ele>
        <time>2013-02-16T17:05:05Z</time>
      </trkpt>
      <trkpt lat="42.918289" lon="-8.082129">
        <ele>357.077</ele>
        <time>2013-02-16T17:05:25Z</time>
      </trkpt>
      <trkpt lat="42.918305" lon="-8.082461">
        <ele>355.027</ele>
        <time>2013-02-16T17:05:45Z</time>
      </trkpt>
      <trkpt lat="42.918305" lon="-8.082697">
        <ele>353.021</ele>
        <time>2013-02-16T17:06:05Z</time>
      </trkpt>
      <trkpt lat="42.918305" lon="-8.082880">
        <ele>353.035</ele>
        <time>2013-02-16T17:06:25Z</time>
      </trkpt>
      <trkpt lat="42.918305" lon="-8.083073">
        <ele>351.068</ele>
        <time>2013-02-16T17:06:45Z</time>
      </trkpt>
      <trkpt lat="42.918305" lon="-8.083556">
        <ele>347.085</ele>
        <time>2013-02-16T17:07:05Z</time>
      </trkpt>
      <trkpt lat="42.918297" lon="-8.083642">
        <ele>347.059</ele>
        <time>2013-02-16T17:07:25Z</time>
      </trkpt>
      <trkpt lat="42.918289" lon="-8.083963">
        <ele>344.003</ele>
        <time>2013-02-16T17:07:45Z</time>
      </trkpt>
      <trkpt lat="42.918234" lon="-8.084285">
        <ele>341.023</ele>
        <time>2013-02-16T17:08:05Z</time>
      </trkpt>
      <trkpt lat="42.918210" lon="-8.084532">
        <ele>338.007</ele>
        <time>2013-02-16T17:08:25Z</time>
      </trkpt>
      <trkpt lat="42.918187" lon="-8.084961">
        <ele>336.088</ele>
        <time>2013-02-16T17:08:45Z</time>
      </trkpt>
      <trkpt lat="42.918210" lon="-8.085111">
        <ele>329.074</ele>
        <time>2013-02-16T17:09:05Z</time>
      </trkpt>
      <trkpt lat="42.918242" lon="-8.085304">
        <ele>325.084</ele>
        <time>2013-02-16T17:09:25Z</time>
      </trkpt>
      <trkpt lat="42.918313" lon="-8.085508">
        <ele>323.058</ele>
        <time>2013-02-16T17:09:45Z</time>
      </trkpt>
      <trkpt lat="42.918368" lon="-8.085787">
        <ele>323.032</ele>
        <time>2013-02-16T17:10:05Z</time>
      </trkpt>
      <trkpt lat="42.918485" lon="-8.086077">
        <ele>320.065</ele>
        <time>2013-02-16T17:10:25Z</time>
      </trkpt>
      <trkpt lat="42.918540" lon="-8.086174">
        <ele>320.052</ele>
        <time>2013-02-16T17:10:45Z</time>
      </trkpt>
      <trkpt lat="42.918588" lon="-8.086259">
        <ele>321.082</ele>
        <time>2013-02-16T17:11:05Z</time>
      </trkpt>
      <trkpt lat="42.918595" lon="-8.086377">
        <ele>321.043</ele>
        <time>2013-02-16T17:11:25Z</time>
      </trkpt>
      <trkpt lat="42.918619" lon="-8.086528">
        <ele>321.017</ele>
        <time>2013-02-16T17:11:45Z</time>
      </trkpt>
      <trkpt lat="42.918650" lon="-8.086807">
        <ele>324.007</ele>
        <time>2013-02-16T17:12:05Z</time>
      </trkpt>
      <trkpt lat="42.918650" lon="-8.086989">
        <ele>324.081</ele>
        <time>2013-02-16T17:12:25Z</time>
      </trkpt>
      <trkpt lat="42.918698" lon="-8.087182">
        <ele>325.077</ele>
        <time>2013-02-16T17:12:45Z</time>
      </trkpt>
      <trkpt lat="42.918721" lon="-8.087332">
        <ele>325.067</ele>
        <time>2013-02-16T17:13:05Z</time>
      </trkpt>
      <trkpt lat="42.918800" lon="-8.087718">
        <ele>335.021</ele>
        <time>2013-02-16T17:13:25Z</time>
      </trkpt>
      <trkpt lat="42.918870" lon="-8.087879">
        <ele>335.035</ele>
        <time>2013-02-16T17:13:45Z</time>
      </trkpt>
      <trkpt lat="42.918949" lon="-8.088105">
        <ele>338.078</ele>
        <time>2013-02-16T17:14:05Z</time>
      </trkpt>
      <trkpt lat="42.919028" lon="-8.088309">
        <ele>341.075</ele>
        <time>2013-02-16T17:14:25Z</time>
      </trkpt>
      <trkpt lat="42.919090" lon="-8.088577">
        <ele>352.029</ele>
        <time>2013-02-16T17:14:45Z</time>
      </trkpt>
      <trkpt lat="42.919130" lon="-8.088824">
        <ele>355.000</ele>
        <time>2013-02-16T17:15:05Z</time>
      </trkpt>
      <trkpt lat="42.919216" lon="-8.089113">
        <ele>357.020</ele>
        <time>2013-02-16T17:15:25Z</time>
      </trkpt>
      <trkpt lat="42.919255" lon="-8.089328">
        <ele>359.007</ele>
        <time>2013-02-16T17:15:45Z</time>
      </trkpt>
      <trkpt lat="42.919326" lon="-8.089575">
        <ele>363.095</ele>
        <time>2013-02-16T17:16:05Z</time>
      </trkpt>
      <trkpt lat="42.919397" lon="-8.089864">
        <ele>365.071</ele>
        <time>2013-02-16T17:16:25Z</time>
      </trkpt>
      <trkpt lat="42.919428" lon="-8.090143">
        <ele>365.081</ele>
        <time>2013-02-16T17:16:45Z</time>
      </trkpt>
      <trkpt lat="42.919428" lon="-8.090293">
        <ele>365.055</ele>
        <time>2013-02-16T17:17:05Z</time>
      </trkpt>
      <trkpt lat="42.919475" lon="-8.090765">
        <ele>367.029</ele>
        <time>2013-02-16T17:17:25Z</time>
      </trkpt>
      <trkpt lat="42.919578" lon="-8.091173">
        <ele>370.092</ele>
        <time>2013-02-16T17:17:45Z</time>
      </trkpt>
      <trkpt lat="42.919680" lon="-8.091323">
        <ele>377.059</ele>
        <time>2013-02-16T17:18:05Z</time>
      </trkpt>
      <trkpt lat="42.919805" lon="-8.091538">
        <ele>381.028</ele>
        <time>2013-02-16T17:18:25Z</time>
      </trkpt>
      <trkpt lat="42.919923" lon="-8.091667">
        <ele>388.089</ele>
        <time>2013-02-16T17:18:45Z</time>
      </trkpt>
      <trkpt lat="42.920080" lon="-8.091881">
        <ele>391.017</ele>
        <time>2013-02-16T17:19:05Z</time>
      </trkpt>
      <trkpt lat="42.920245" lon="-8.092107">
        <ele>395.007</ele>
        <time>2013-02-16T17:19:25Z</time>
      </trkpt>
      <trkpt lat="42.920512" lon="-8.092450">
        <ele>393.095</ele>
        <time>2013-02-16T17:19:45Z</time>
      </trkpt>
      <trkpt lat="42.920599" lon="-8.092504">
        <ele>393.081</ele>
        <time>2013-02-16T17:20:05Z</time>
      </trkpt>
      <trkpt lat="42.921000" lon="-8.092707">
        <ele>380.071</ele>
        <time>2013-02-16T17:20:25Z</time>
      </trkpt>
      <trkpt lat="42.921377" lon="-8.092847">
        <ele>379.035</ele>
        <time>2013-02-16T17:20:45Z</time>
      </trkpt>
      <trkpt lat="42.921707" lon="-8.092943">
        <ele>392.089</ele>
        <time>2013-02-16T17:21:05Z</time>
      </trkpt>
      <trkpt lat="42.922005" lon="-8.093115">
        <ele>401.042</ele>
        <time>2013-02-16T17:21:25Z</time>
      </trkpt>
      <trkpt lat="42.922249" lon="-8.093319">
        <ele>398.049</ele>
        <time>2013-02-16T17:21:45Z</time>
      </trkpt>
      <trkpt lat="42.922555" lon="-8.093501">
        <ele>388.079</ele>
        <time>2013-02-16T17:22:05Z</time>
      </trkpt>
      <trkpt lat="42.922736" lon="-8.093641">
        <ele>386.005</ele>
        <time>2013-02-16T17:22:25Z</time>
      </trkpt>
      <trkpt lat="42.923074" lon="-8.093963">
        <ele>386.025</ele>
        <time>2013-02-16T17:22:45Z</time>
      </trkpt>
      <trkpt lat="42.923420" lon="-8.094199">
        <ele>390.007</ele>
        <time>2013-02-16T17:23:05Z</time>
      </trkpt>
      <trkpt lat="42.923703" lon="-8.094435">
        <ele>397.030</ele>
        <time>2013-02-16T17:23:25Z</time>
      </trkpt>
      <trkpt lat="42.923923" lon="-8.094735">
        <ele>400.026</ele>
        <time>2013-02-16T17:23:45Z</time>
      </trkpt>
      <trkpt lat="42.924111" lon="-8.094907">
        <ele>401.046</ele>
        <time>2013-02-16T17:24:05Z</time>
      </trkpt>
      <trkpt lat="42.924205" lon="-8.095186">
        <ele>399.090</ele>
        <time>2013-02-16T17:24:25Z</time>
      </trkpt>
      <trkpt lat="42.924331" lon="-8.095508">
        <ele>400.034</ele>
        <time>2013-02-16T17:24:45Z</time>
      </trkpt>
      <trkpt lat="42.924504" lon="-8.096044">
        <ele>400.097</ele>
        <time>2013-02-16T17:25:05Z</time>
      </trkpt>
      <trkpt lat="42.924598" lon="-8.096387">
        <ele>402.014</ele>
        <time>2013-02-16T17:25:25Z</time>
      </trkpt>
      <trkpt lat="42.924724" lon="-8.096795">
        <ele>403.082</ele>
        <time>2013-02-16T17:25:45Z</time>
      </trkpt>
      <trkpt lat="42.924834" lon="-8.097460">
        <ele>404.043</ele>
        <time>2013-02-16T17:26:05Z</time>
      </trkpt>
      <trkpt lat="42.924755" lon="-8.097439">
        <ele>404.017</ele>
        <time>2013-02-16T17:26:25Z</time>
      </trkpt>
      <trkpt lat="42.924692" lon="-8.097761">
        <ele>403.007</ele>
        <time>2013-02-16T17:26:45Z</time>
      </trkpt>
      <trkpt lat="42.924677" lon="-8.098233">
        <ele>401.051</ele>
        <time>2013-02-16T17:27:05Z</time>
      </trkpt>
      <trkpt lat="42.924645" lon="-8.098447">
        <ele>401.077</ele>
        <time>2013-02-16T17:27:25Z</time>
      </trkpt>
      <trkpt lat="42.924661" lon="-8.098726">
        <ele>399.037</ele>
        <time>2013-02-16T17:27:45Z</time>
      </trkpt>
      <trkpt lat="42.924677" lon="-8.098962">
        <ele>398.061</ele>
        <time>2013-02-16T17:28:05Z</time>
      </trkpt>
      <trkpt lat="42.924677" lon="-8.099778">
        <ele>393.015</ele>
        <time>2013-02-16T17:28:25Z</time>
      </trkpt>
      <trkpt lat="42.924661" lon="-8.100035">
        <ele>391.028</ele>
        <time>2013-02-16T17:28:45Z</time>
      </trkpt>
      <trkpt lat="42.924630" lon="-8.100400">
        <ele>390.025</ele>
        <time>2013-02-16T17:29:05Z</time>
      </trkpt>
      <trkpt lat="42.924630" lon="-8.100765">
        <ele>389.059</ele>
        <time>2013-02-16T17:29:25Z</time>
      </trkpt>
      <trkpt lat="42.924661" lon="-8.101215">
        <ele>389.003</ele>
        <time>2013-02-16T17:29:45Z</time>
      </trkpt>
      <trkpt lat="42.924677" lon="-8.101537">
        <ele>388.023</ele>
        <time>2013-02-16T17:30:05Z</time>
      </trkpt>
      <trkpt lat="42.924724" lon="-8.101945">
        <ele>387.007</ele>
        <time>2013-02-16T17:30:25Z</time>
      </trkpt>
      <trkpt lat="42.924818" lon="-8.102331">
        <ele>386.028</ele>
        <time>2013-02-16T17:30:45Z</time>
      </trkpt>
      <trkpt lat="42.924912" lon="-8.102481">
        <ele>382.044</ele>
        <time>2013-02-16T17:31:05Z</time>
      </trkpt>
      <trkpt lat="42.925007" lon="-8.102782">
        <ele>379.044</ele>
        <time>2013-02-16T17:31:25Z</time>
      </trkpt>
      <trkpt lat="42.925148" lon="-8.103211">
        <ele>375.048</ele>
        <time>2013-02-16T17:31:45Z</time>
      </trkpt>
      <trkpt lat="42.925242" lon="-8.103490">
        <ele>374.082</ele>
        <time>2013-02-16T17:32:05Z</time>
      </trkpt>
      <trkpt lat="42.925462" lon="-8.103919">
        <ele>370.035</ele>
        <time>2013-02-16T17:32:25Z</time>
      </trkpt>
      <trkpt lat="42.926012" lon="-8.104219">
        <ele>357.042</ele>
        <time>2013-02-16T17:32:45Z</time>
      </trkpt>
      <trkpt lat="42.926704" lon="-8.104219">
        <ele>354.082</ele>
        <time>2013-02-16T17:33:05Z</time>
      </trkpt>
      <trkpt lat="42.926719" lon="-8.104563">
        <ele>351.043</ele>
        <time>2013-02-16T17:33:25Z</time>
      </trkpt>
      <trkpt lat="42.926986" lon="-8.105485">
        <ele>346.017</ele>
        <time>2013-02-16T17:33:45Z</time>
      </trkpt>
      <trkpt lat="42.927081" lon="-8.105721">
        <ele>346.007</ele>
        <time>2013-02-16T17:34:05Z</time>
      </trkpt>
      <trkpt lat="42.927175" lon="-8.106086">
        <ele>344.061</ele>
        <time>2013-02-16T17:34:25Z</time>
      </trkpt>
      <trkpt lat="42.927332" lon="-8.106472">
        <ele>348.037</ele>
        <time>2013-02-16T17:34:45Z</time>
      </trkpt>
      <trkpt lat="42.927395" lon="-8.106859">
        <ele>353.057</ele>
        <time>2013-02-16T17:35:05Z</time>
      </trkpt>
      <trkpt lat="42.927474" lon="-8.107352">
        <ele>358.041</ele>
        <time>2013-02-16T17:35:25Z</time>
      </trkpt>
      <trkpt lat="42.927489" lon="-8.107417">
        <ele>362.025</ele>
        <time>2013-02-16T17:35:45Z</time>
      </trkpt>
      <trkpt lat="42.927741" lon="-8.108039">
        <ele>366.068</ele>
        <time>2013-02-16T17:36:05Z</time>
      </trkpt>
      <trkpt lat="42.927835" lon="-8.108339">
        <ele>368.045</ele>
        <time>2013-02-16T17:36:25Z</time>
      </trkpt>
      <trkpt lat="42.927929" lon="-8.108597">
        <ele>370.098</ele>
        <time>2013-02-16T17:36:45Z</time>
      </trkpt>
      <trkpt lat="42.927992" lon="-8.108919">
        <ele>373.015</ele>
        <time>2013-02-16T17:37:05Z</time>
      </trkpt>
      <trkpt lat="42.928071" lon="-8.109305">
        <ele>376.026</ele>
        <time>2013-02-16T17:37:25Z</time>
      </trkpt>
      <trkpt lat="42.928102" lon="-8.109412">
        <ele>379.007</ele>
        <time>2013-02-16T17:37:45Z</time>
      </trkpt>
      <trkpt lat="42.928133" lon="-8.109670">
        <ele>384.082</ele>
        <time>2013-02-16T17:38:05Z</time>
      </trkpt>
      <trkpt lat="42.928149" lon="-8.109927">
        <ele>390.018</ele>
        <time>2013-02-16T17:38:25Z</time>
      </trkpt>
      <trkpt lat="42.928149" lon="-8.110185">
        <ele>397.098</ele>
        <time>2013-02-16T17:38:45Z</time>
      </trkpt>
      <trkpt lat="42.928149" lon="-8.110378">
        <ele>397.042</ele>
        <time>2013-02-16T17:39:05Z</time>
      </trkpt>
      <trkpt lat="42.928133" lon="-8.110635">
        <ele>404.076</ele>
        <time>2013-02-16T17:39:25Z</time>
      </trkpt>
      <trkpt lat="42.928086" lon="-8.110936">
        <ele>410.039</ele>
        <time>2013-02-16T17:39:45Z</time>
      </trkpt>
      <trkpt lat="42.928086" lon="-8.111086">
        <ele>415.076</ele>
        <time>2013-02-16T17:40:05Z</time>
      </trkpt>
      <trkpt lat="42.927913" lon="-8.111365">
        <ele>413.047</ele>
        <time>2013-02-16T17:40:25Z</time>
      </trkpt>
      <trkpt lat="42.927866" lon="-8.111515">
        <ele>413.029</ele>
        <time>2013-02-16T17:40:45Z</time>
      </trkpt>
      <trkpt lat="42.927693" lon="-8.111858">
        <ele>418.021</ele>
        <time>2013-02-16T17:41:05Z</time>
      </trkpt>
      <trkpt lat="42.927583" lon="-8.111987">
        <ele>413.007</ele>
        <time>2013-02-16T17:41:25Z</time>
      </trkpt>
      <trkpt lat="42.927426" lon="-8.112245">
        <ele>416.037</ele>
        <time>2013-02-16T17:41:45Z</time>
      </trkpt>
      <trkpt lat="42.927301" lon="-8.112309">
        <ele>411.073</ele>
        <time>2013-02-16T17:42:05Z</time>
      </trkpt>
      <trkpt lat="42.927175" lon="-8.112609">
        <ele>415.063</ele>
        <time>2013-02-16T17:42:25Z</time>
      </trkpt>
      <trkpt lat="42.927489" lon="-8.112974">
        <ele>420.017</ele>
        <time>2013-02-16T17:42:45Z</time>
      </trkpt>
      <trkpt lat="42.928086" lon="-8.113189">
        <ele>419.011</ele>
        <time>2013-02-16T17:43:05Z</time>
      </trkpt>
      <trkpt lat="42.928338" lon="-8.113382">
        <ele>414.034</ele>
        <time>2013-02-16T17:43:25Z</time>
      </trkpt>
      <trkpt lat="42.928510" lon="-8.113725">
        <ele>410.031</ele>
        <time>2013-02-16T17:43:45Z</time>
      </trkpt>
      <trkpt lat="42.928620" lon="-8.113875">
        <ele>407.048</ele>
        <time>2013-02-16T17:44:05Z</time>
      </trkpt>
      <trkpt lat="42.928715" lon="-8.114326">
        <ele>403.061</ele>
        <time>2013-02-16T17:44:25Z</time>
      </trkpt>
      <trkpt lat="42.928809" lon="-8.114734">
        <ele>402.017</ele>
        <time>2013-02-16T17:44:45Z</time>
      </trkpt>
      <trkpt lat="42.928888" lon="-8.115098">
        <ele>400.007</ele>
        <time>2013-02-16T17:45:05Z</time>
      </trkpt>
      <trkpt lat="42.928935" lon="-8.115292">
        <ele>398.077</ele>
        <time>2013-02-16T17:45:25Z</time>
      </trkpt>
      <trkpt lat="42.928966" lon="-8.115485">
        <ele>396.063</ele>
        <time>2013-02-16T17:45:45Z</time>
      </trkpt>
      <trkpt lat="42.929013" lon="-8.115635">
        <ele>396.073</ele>
        <time>2013-02-16T17:46:05Z</time>
      </trkpt>
      <trkpt lat="42.929029" lon="-8.115892">
        <ele>392.027</ele>
        <time>2013-02-16T17:46:25Z</time>
      </trkpt>
      <trkpt lat="42.929076" lon="-8.115978">
        <ele>391.071</ele>
        <time>2013-02-16T17:46:45Z</time>
      </trkpt>
      <trkpt lat="42.929139" lon="-8.116343">
        <ele>391.014</ele>
        <time>2013-02-16T17:47:05Z</time>
      </trkpt>
      <trkpt lat="42.929170" lon="-8.116643">
        <ele>391.091</ele>
        <time>2013-02-16T17:47:25Z</time>
      </trkpt>
      <trkpt lat="42.929249" lon="-8.116944">
        <ele>393.077</ele>
        <time>2013-02-16T17:47:45Z</time>
      </trkpt>
      <trkpt lat="42.929312" lon="-8.117266">
        <ele>398.061</ele>
        <time>2013-02-16T17:48:05Z</time>
      </trkpt>
      <trkpt lat="42.929390" lon="-8.117630">
        <ele>401.027</ele>
        <time>2013-02-16T17:48:25Z</time>
      </trkpt>
      <trkpt lat="42.929453" lon="-8.118081">
        <ele>405.007</ele>
        <time>2013-02-16T17:48:45Z</time>
      </trkpt>
      <trkpt lat="42.929500" lon="-8.118510">
        <ele>406.010</ele>
        <time>2013-02-16T17:49:05Z</time>
      </trkpt>
      <trkpt lat="42.929547" lon="-8.118768">
        <ele>406.056</ele>
        <time>2013-02-16T17:49:25Z</time>
      </trkpt>
      <trkpt lat="42.929563" lon="-8.119090">
        <ele>406.096</ele>
        <time>2013-02-16T17:49:45Z</time>
      </trkpt>
      <trkpt lat="42.929563" lon="-8.119347">
        <ele>405.030</ele>
        <time>2013-02-16T17:50:05Z</time>
      </trkpt>
      <trkpt lat="42.929516" lon="-8.119669">
        <ele>404.074</ele>
        <time>2013-02-16T17:50:25Z</time>
      </trkpt>
      <trkpt lat="42.929516" lon="-8.120012">
        <ele>402.097</ele>
        <time>2013-02-16T17:50:45Z</time>
      </trkpt>
      <trkpt lat="42.929485" lon="-8.120399">
        <ele>398.014</ele>
        <time>2013-02-16T17:51:05Z</time>
      </trkpt>
      <trkpt lat="42.929642" lon="-8.120592">
        <ele>387.029</ele>
        <time>2013-02-16T17:51:25Z</time>
      </trkpt>
      <trkpt lat="42.929767" lon="-8.120935">
        <ele>381.000</ele>
        <time>2013-02-16T17:51:45Z</time>
      </trkpt>
      <trkpt lat="42.929830" lon="-8.121278">
        <ele>379.020</ele>
        <time>2013-02-16T17:52:05Z</time>
      </trkpt>
      <trkpt lat="42.929877" lon="-8.121407">
        <ele>373.007</ele>
        <time>2013-02-16T17:52:25Z</time>
      </trkpt>
      <trkpt lat="42.929924" lon="-8.121622">
        <ele>374.055</ele>
        <time>2013-02-16T17:52:45Z</time>
      </trkpt>
      <trkpt lat="42.929972" lon="-8.121836">
        <ele>374.081</ele>
        <time>2013-02-16T17:53:05Z</time>
      </trkpt>
      <trkpt lat="42.930050" lon="-8.122115">
        <ele>375.061</ele>
        <time>2013-02-16T17:53:25Z</time>
      </trkpt>
      <trkpt lat="42.930066" lon="-8.122351">
        <ele>375.095</ele>
        <time>2013-02-16T17:53:45Z</time>
      </trkpt>
      <trkpt lat="42.930066" lon="-8.122566">
        <ele>375.069</ele>
        <time>2013-02-16T17:54:05Z</time>
      </trkpt>
      <trkpt lat="42.930113" lon="-8.122802">
        <ele>373.062</ele>
        <time>2013-02-16T17:54:25Z</time>
      </trkpt>
      <trkpt lat="42.930129" lon="-8.123038">
        <ele>370.079</ele>
        <time>2013-02-16T17:54:45Z</time>
      </trkpt>
      <trkpt lat="42.930129" lon="-8.123124">
        <ele>370.057</ele>
        <time>2013-02-16T17:55:05Z</time>
      </trkpt>
      <trkpt lat="42.930129" lon="-8.123381">
        <ele>366.000</ele>
        <time>2013-02-16T17:55:25Z</time>
      </trkpt>
      <trkpt lat="42.930192" lon="-8.123982">
        <ele>358.020</ele>
        <time>2013-02-16T17:55:45Z</time>
      </trkpt>
      <trkpt lat="42.930223" lon="-8.124583">
        <ele>349.007</ele>
        <time>2013-02-16T17:56:05Z</time>
      </trkpt>
      <trkpt lat="42.930317" lon="-8.124969">
        <ele>341.088</ele>
        <time>2013-02-16T17:56:25Z</time>
      </trkpt>
      <trkpt lat="42.930396" lon="-8.125248">
        <ele>337.044</ele>
        <time>2013-02-16T17:56:45Z</time>
      </trkpt>
      <trkpt lat="42.930584" lon="-8.125591">
        <ele>333.024</ele>
        <time>2013-02-16T17:57:05Z</time>
      </trkpt>
      <trkpt lat="42.930679" lon="-8.125827">
        <ele>327.018</ele>
        <time>2013-02-16T17:57:25Z</time>
      </trkpt>
      <trkpt lat="42.930804" lon="-8.126042">
        <ele>322.012</ele>
        <time>2013-02-16T17:57:45Z</time>
      </trkpt>
      <trkpt lat="42.930867" lon="-8.126364">
        <ele>314.075</ele>
        <time>2013-02-16T17:58:05Z</time>
      </trkpt>
      <trkpt lat="42.930914" lon="-8.126557">
        <ele>307.012</ele>
        <time>2013-02-16T17:58:25Z</time>
      </trkpt>
      <trkpt lat="42.930977" lon="-8.127072">
        <ele>303.038</ele>
        <time>2013-02-16T17:58:45Z</time>
      </trkpt>
      <trkpt lat="42.931056" lon="-8.127329">
        <ele>299.070</ele>
        <time>2013-02-16T17:59:05Z</time>
      </trkpt>
      <trkpt lat="42.931056" lon="-8.127587">
        <ele>296.017</ele>
        <time>2013-02-16T17:59:25Z</time>
      </trkpt>
      <trkpt lat="42.931024" lon="-8.127995">
        <ele>290.007</ele>
        <time>2013-02-16T17:59:45Z</time>
      </trkpt>
      <trkpt lat="42.931009" lon="-8.128145">
        <ele>290.036</ele>
        <time>2013-02-16T18:00:05Z</time>
      </trkpt>
      <trkpt lat="42.931009" lon="-8.128638">
        <ele>289.022</ele>
        <time>2013-02-16T18:00:25Z</time>
      </trkpt>
      <trkpt lat="42.930993" lon="-8.128810">
        <ele>288.092</ele>
        <time>2013-02-16T18:00:45Z</time>
      </trkpt>
      <trkpt lat="42.931009" lon="-8.129303">
        <ele>286.096</ele>
        <time>2013-02-16T18:01:05Z</time>
      </trkpt>
      <trkpt lat="42.931056" lon="-8.129539">
        <ele>283.050</ele>
        <time>2013-02-16T18:01:25Z</time>
      </trkpt>
      <trkpt lat="42.931056" lon="-8.129733">
        <ele>280.093</ele>
        <time>2013-02-16T18:01:45Z</time>
      </trkpt>
      <trkpt lat="42.930946" lon="-8.129883">
        <ele>283.070</ele>
        <time>2013-02-16T18:02:05Z</time>
      </trkpt>
      <trkpt lat="42.930851" lon="-8.130419">
        <ele>283.038</ele>
        <time>2013-02-16T18:02:25Z</time>
      </trkpt>
      <trkpt lat="42.930789" lon="-8.130505">
        <ele>283.070</ele>
        <time>2013-02-16T18:02:45Z</time>
      </trkpt>
      <trkpt lat="42.930600" lon="-8.131063">
        <ele>290.017</ele>
        <time>2013-02-16T18:03:05Z</time>
      </trkpt>
      <trkpt lat="42.930522" lon="-8.131149">
        <ele>290.007</ele>
        <time>2013-02-16T18:03:25Z</time>
      </trkpt>
      <trkpt lat="42.930522" lon="-8.131428">
        <ele>294.086</ele>
        <time>2013-02-16T18:03:45Z</time>
      </trkpt>
      <trkpt lat="42.930522" lon="-8.131685">
        <ele>297.052</ele>
        <time>2013-02-16T18:04:05Z</time>
      </trkpt>
      <trkpt lat="42.930553" lon="-8.132029">
        <ele>301.052</ele>
        <time>2013-02-16T18:04:25Z</time>
      </trkpt>
      <trkpt lat="42.930600" lon="-8.132501">
        <ele>307.036</ele>
        <time>2013-02-16T18:04:45Z</time>
      </trkpt>
      <trkpt lat="42.930631" lon="-8.132737">
        <ele>310.090</ele>
        <time>2013-02-16T18:05:05Z</time>
      </trkpt>
      <trkpt lat="42.930710" lon="-8.133101">
        <ele>314.023</ele>
        <time>2013-02-16T18:05:25Z</time>
      </trkpt>
      <trkpt lat="42.930804" lon="-8.133488">
        <ele>316.050</ele>
        <time>2013-02-16T18:05:45Z</time>
      </trkpt>
      <trkpt lat="42.930804" lon="-8.133810">
        <ele>316.094</ele>
        <time>2013-02-16T18:06:05Z</time>
      </trkpt>
      <trkpt lat="42.930804" lon="-8.134046">
        <ele>314.057</ele>
        <time>2013-02-16T18:06:25Z</time>
      </trkpt>
      <trkpt lat="42.930993" lon="-8.134689">
        <ele>307.022</ele>
        <time>2013-02-16T18:06:45Z</time>
      </trkpt>
      <trkpt lat="42.930898" lon="-8.134775">
        <ele>310.007</ele>
        <time>2013-02-16T18:07:05Z</time>
      </trkpt>
      <trkpt lat="42.930780" lon="-8.134882">
        <ele>309.012</ele>
        <time>2013-02-16T18:07:25Z</time>
      </trkpt>
      <trkpt lat="42.930710" lon="-8.134990">
        <ele>309.038</ele>
        <time>2013-02-16T18:07:45Z</time>
      </trkpt>
      <trkpt lat="42.930631" lon="-8.135118">
        <ele>309.098</ele>
        <time>2013-02-16T18:08:05Z</time>
      </trkpt>
      <trkpt lat="42.930553" lon="-8.135194">
        <ele>307.032</ele>
        <time>2013-02-16T18:08:25Z</time>
      </trkpt>
      <trkpt lat="42.930529" lon="-8.135269">
        <ele>307.076</ele>
        <time>2013-02-16T18:08:45Z</time>
      </trkpt>
      <trkpt lat="42.930490" lon="-8.135365">
        <ele>307.059</ele>
        <time>2013-02-16T18:09:05Z</time>
      </trkpt>
      <trkpt lat="42.930490" lon="-8.135473">
        <ele>309.096</ele>
        <time>2013-02-16T18:09:25Z</time>
      </trkpt>
      <trkpt lat="42.930458" lon="-8.135515">
        <ele>309.037</ele>
        <time>2013-02-16T18:09:45Z</time>
      </trkpt>
      <trkpt lat="42.930364" lon="-8.135537">
        <ele>308.049</ele>
        <time>2013-02-16T18:10:05Z</time>
      </trkpt>
      <trkpt lat="42.930301" lon="-8.135633">
        <ele>308.013</ele>
        <time>2013-02-16T18:10:25Z</time>
      </trkpt>
      <trkpt lat="42.930207" lon="-8.135751">
        <ele>312.007</ele>
        <time>2013-02-16T18:10:45Z</time>
      </trkpt>
      <trkpt lat="42.930073" lon="-8.135923">
        <ele>313.066</ele>
        <time>2013-02-16T18:11:05Z</time>
      </trkpt>
      <trkpt lat="42.930026" lon="-8.136073">
        <ele>317.072</ele>
        <time>2013-02-16T18:11:25Z</time>
      </trkpt>
      <trkpt lat="42.930042" lon="-8.136148">
        <ele>317.032</ele>
        <time>2013-02-16T18:11:45Z</time>
      </trkpt>
      <trkpt lat="42.930348" lon="-8.136170">
        <ele>320.076</ele>
        <time>2013-02-16T18:12:05Z</time>
      </trkpt>
      <trkpt lat="42.930631" lon="-8.136374">
        <ele>327.030</ele>
        <time>2013-02-16T18:12:25Z</time>
      </trkpt>
      <trkpt lat="42.930757" lon="-8.136642">
        <ele>332.043</ele>
        <time>2013-02-16T18:12:45Z</time>
      </trkpt>
      <trkpt lat="42.930835" lon="-8.136942">
        <ele>338.080</ele>
        <time>2013-02-16T18:13:05Z</time>
      </trkpt>
      <trkpt lat="42.930906" lon="-8.137318">
        <ele>344.037</ele>
        <time>2013-02-16T18:13:25Z</time>
      </trkpt>
      <trkpt lat="42.930937" lon="-8.137726">
        <ele>354.049</ele>
        <time>2013-02-16T18:13:45Z</time>
      </trkpt>
      <trkpt lat="42.930945" lon="-8.138241">
        <ele>359.013</ele>
        <time>2013-02-16T18:14:05Z</time>
      </trkpt>
      <trkpt lat="42.930930" lon="-8.138734">
        <ele>359.007</ele>
        <time>2013-02-16T18:14:25Z</time>
      </trkpt>
      <trkpt lat="42.930914" lon="-8.139024">
        <ele>360.086</ele>
        <time>2013-02-16T18:14:45Z</time>
      </trkpt>
      <trkpt lat="42.930851" lon="-8.139249">
        <ele>360.022</ele>
        <time>2013-02-16T18:15:05Z</time>
      </trkpt>
      <trkpt lat="42.930820" lon="-8.139549">
        <ele>360.092</ele>
        <time>2013-02-16T18:15:25Z</time>
      </trkpt>
      <trkpt lat="42.930812" lon="-8.139743">
        <ele>361.056</ele>
        <time>2013-02-16T18:15:45Z</time>
      </trkpt>
      <trkpt lat="42.930788" lon="-8.139957">
        <ele>359.020</ele>
        <time>2013-02-16T18:16:05Z</time>
      </trkpt>
      <trkpt lat="42.930663" lon="-8.140343">
        <ele>358.033</ele>
        <time>2013-02-16T18:16:25Z</time>
      </trkpt>
      <trkpt lat="42.930584" lon="-8.140526">
        <ele>362.090</ele>
        <time>2013-02-16T18:16:45Z</time>
      </trkpt>
      <trkpt lat="42.930560" lon="-8.140655">
        <ele>362.059</ele>
        <time>2013-02-16T18:17:05Z</time>
      </trkpt>
      <trkpt lat="42.930474" lon="-8.140751">
        <ele>371.003</ele>
        <time>2013-02-16T18:17:25Z</time>
      </trkpt>
      <trkpt lat="42.930403" lon="-8.140783">
        <ele>375.023</ele>
        <time>2013-02-16T18:17:45Z</time>
      </trkpt>
      <trkpt lat="42.930309" lon="-8.140826">
        <ele>375.007</ele>
        <time>2013-02-16T18:18:05Z</time>
      </trkpt>
      <trkpt lat="42.930199" lon="-8.140987">
        <ele>380.028</ele>
        <time>2013-02-16T18:18:25Z</time>
      </trkpt>
      <trkpt lat="42.930136" lon="-8.141105">
        <ele>380.074</ele>
        <time>2013-02-16T18:18:45Z</time>
      </trkpt>
      <trkpt lat="42.930073" lon="-8.141159">
        <ele>380.024</ele>
        <time>2013-02-16T18:19:05Z</time>
      </trkpt>
      <trkpt lat="42.930018" lon="-8.141942">
        <ele>372.018</ele>
        <time>2013-02-16T18:19:25Z</time>
      </trkpt>
      <trkpt lat="42.929963" lon="-8.142103">
        <ele>373.052</ele>
        <time>2013-02-16T18:19:45Z</time>
      </trkpt>
      <trkpt lat="42.929924" lon="-8.142232">
        <ele>373.075</ele>
        <time>2013-02-16T18:20:05Z</time>
      </trkpt>
      <trkpt lat="42.929924" lon="-8.142403">
        <ele>374.072</ele>
        <time>2013-02-16T18:20:25Z</time>
      </trkpt>
      <trkpt lat="42.929940" lon="-8.142822">
        <ele>378.019</ele>
        <time>2013-02-16T18:20:45Z</time>
      </trkpt>
      <trkpt lat="42.929948" lon="-8.142886">
        <ele>378.009</ele>
        <time>2013-02-16T18:21:05Z</time>
      </trkpt>
      <trkpt lat="42.929948" lon="-8.143047">
        <ele>383.019</ele>
        <time>2013-02-16T18:21:25Z</time>
      </trkpt>
      <trkpt lat="42.929948" lon="-8.143197">
        <ele>386.007</ele>
        <time>2013-02-16T18:21:45Z</time>
      </trkpt>
      <trkpt lat="42.929963" lon="-8.143390">
        <ele>386.054</ele>
        <time>2013-02-16T18:22:05Z</time>
      </trkpt>
      <trkpt lat="42.929956" lon="-8.144002">
        <ele>386.090</ele>
        <time>2013-02-16T18:22:25Z</time>
      </trkpt>
      <trkpt lat="42.929956" lon="-8.144184">
        <ele>387.090</ele>
        <time>2013-02-16T18:22:45Z</time>
      </trkpt>
      <trkpt lat="42.929948" lon="-8.144377">
        <ele>387.084</ele>
        <time>2013-02-16T18:23:05Z</time>
      </trkpt>
      <trkpt lat="42.929940" lon="-8.144624">
        <ele>384.058</ele>
        <time>2013-02-16T18:23:25Z</time>
      </trkpt>
      <trkpt lat="42.929940" lon="-8.145107">
        <ele>379.011</ele>
        <time>2013-02-16T18:23:45Z</time>
      </trkpt>
      <trkpt lat="42.929948" lon="-8.145365">
        <ele>377.098</ele>
        <time>2013-02-16T18:24:05Z</time>
      </trkpt>
      <trkpt lat="42.929971" lon="-8.145633">
        <ele>377.074</ele>
        <time>2013-02-16T18:24:25Z</time>
      </trkpt>
      <trkpt lat="42.929979" lon="-8.145933">
        <ele>378.056</ele>
        <time>2013-02-16T18:24:45Z</time>
      </trkpt>
      <trkpt lat="42.929979" lon="-8.146223">
        <ele>378.021</ele>
        <time>2013-02-16T18:25:05Z</time>
      </trkpt>
      <trkpt lat="42.929987" lon="-8.146545">
        <ele>378.007</ele>
        <time>2013-02-16T18:25:25Z</time>
      </trkpt>
      <trkpt lat="42.929987" lon="-8.146985">
        <ele>378.080</ele>
        <time>2013-02-16T18:25:45Z</time>
      </trkpt>
      <trkpt lat="42.929987" lon="-8.147414">
        <ele>379.076</ele>
        <time>2013-02-16T18:26:05Z</time>
      </trkpt>
      <trkpt lat="42.929987" lon="-8.147585">
        <ele>379.036</ele>
        <time>2013-02-16T18:26:25Z</time>
      </trkpt>
      <trkpt lat="42.930003" lon="-8.147961">
        <ele>378.030</ele>
        <time>2013-02-16T18:26:45Z</time>
      </trkpt>
      <trkpt lat="42.930003" lon="-8.148251">
        <ele>378.084</ele>
        <time>2013-02-16T18:27:05Z</time>
      </trkpt>
      <trkpt lat="42.930011" lon="-8.148637">
        <ele>377.027</ele>
        <time>2013-02-16T18:27:25Z</time>
      </trkpt>
      <trkpt lat="42.930026" lon="-8.148884">
        <ele>376.094</ele>
        <time>2013-02-16T18:27:45Z</time>
      </trkpt>
      <trkpt lat="42.930011" lon="-8.149130">
        <ele>374.018</ele>
        <time>2013-02-16T18:28:05Z</time>
      </trkpt>
      <trkpt lat="42.930011" lon="-8.149431">
        <ele>373.098</ele>
        <time>2013-02-16T18:28:25Z</time>
      </trkpt>
      <trkpt lat="42.930018" lon="-8.149624">
        <ele>372.017</ele>
        <time>2013-02-16T18:28:45Z</time>
      </trkpt>
      <trkpt lat="42.930026" lon="-8.149978">
        <ele>372.007</ele>
        <time>2013-02-16T18:29:05Z</time>
      </trkpt>
      <trkpt lat="42.930034" lon="-8.150150">
        <ele>372.014</ele>
        <time>2013-02-16T18:29:25Z</time>
      </trkpt>
      <trkpt lat="42.930034" lon="-8.150353">
        <ele>372.080</ele>
        <time>2013-02-16T18:29:45Z</time>
      </trkpt>
      <trkpt lat="42.930050" lon="-8.150568">
        <ele>372.040</ele>
        <time>2013-02-16T18:30:05Z</time>
      </trkpt>
      <trkpt lat="42.930065" lon="-8.150815">
        <ele>373.094</ele>
        <time>2013-02-16T18:30:25Z</time>
      </trkpt>
      <trkpt lat="42.930073" lon="-8.151126">
        <ele>374.078</ele>
        <time>2013-02-16T18:30:45Z</time>
      </trkpt>
      <trkpt lat="42.930073" lon="-8.151308">
        <ele>376.031</ele>
        <time>2013-02-16T18:31:05Z</time>
      </trkpt>
      <trkpt lat="42.930081" lon="-8.151716">
        <ele>377.088</ele>
        <time>2013-02-16T18:31:25Z</time>
      </trkpt>
      <trkpt lat="42.930058" lon="-8.151963">
        <ele>378.035</ele>
        <time>2013-02-16T18:31:45Z</time>
      </trkpt>
      <trkpt lat="42.930034" lon="-8.152177">
        <ele>379.086</ele>
        <time>2013-02-16T18:32:05Z</time>
      </trkpt>
      <trkpt lat="42.929979" lon="-8.152478">
        <ele>380.014</ele>
        <time>2013-02-16T18:32:25Z</time>
      </trkpt>
      <trkpt lat="42.929908" lon="-8.152843">
        <ele>380.007</ele>
        <time>2013-02-16T18:32:45Z</time>
      </trkpt>
      <trkpt lat="42.929861" lon="-8.153079">
        <ele>382.076</ele>
        <time>2013-02-16T18:33:05Z</time>
      </trkpt>
      <trkpt lat="42.929791" lon="-8.153379">
        <ele>382.082</ele>
        <time>2013-02-16T18:33:25Z</time>
      </trkpt>
      <trkpt lat="42.929571" lon="-8.154023">
        <ele>393.062</ele>
        <time>2013-02-16T18:33:45Z</time>
      </trkpt>
      <trkpt lat="42.929461" lon="-8.154463">
        <ele>403.066</ele>
        <time>2013-02-16T18:34:05Z</time>
      </trkpt>
      <trkpt lat="42.929358" lon="-8.154742">
        <ele>405.080</ele>
        <time>2013-02-16T18:34:25Z</time>
      </trkpt>
      <trkpt lat="42.929241" lon="-8.154956">
        <ele>406.033</ele>
        <time>2013-02-16T18:34:45Z</time>
      </trkpt>
      <trkpt lat="42.929146" lon="-8.155246">
        <ele>405.070</ele>
        <time>2013-02-16T18:35:05Z</time>
      </trkpt>
      <trkpt lat="42.929068" lon="-8.155493">
        <ele>403.063</ele>
        <time>2013-02-16T18:35:25Z</time>
      </trkpt>
      <trkpt lat="42.929029" lon="-8.155578">
        <ele>403.044</ele>
        <time>2013-02-16T18:35:45Z</time>
      </trkpt>
      <trkpt lat="42.928919" lon="-8.155793">
        <ele>402.018</ele>
        <time>2013-02-16T18:36:05Z</time>
      </trkpt>
      <trkpt lat="42.928856" lon="-8.156029">
        <ele>399.007</ele>
        <time>2013-02-16T18:36:25Z</time>
      </trkpt>
      <trkpt lat="42.928746" lon="-8.156276">
        <ele>397.059</ele>
        <time>2013-02-16T18:36:45Z</time>
      </trkpt>
      <trkpt lat="42.928636" lon="-8.156555">
        <ele>394.085</ele>
        <time>2013-02-16T18:37:05Z</time>
      </trkpt>
      <trkpt lat="42.928565" lon="-8.156662">
        <ele>394.015</ele>
        <time>2013-02-16T18:37:25Z</time>
      </trkpt>
      <trkpt lat="42.928455" lon="-8.156941">
        <ele>392.019</ele>
        <time>2013-02-16T18:37:45Z</time>
      </trkpt>
      <trkpt lat="42.928400" lon="-8.157166">
        <ele>391.033</ele>
        <time>2013-02-16T18:38:05Z</time>
      </trkpt>
      <trkpt lat="42.928274" lon="-8.157424">
        <ele>391.056</ele>
        <time>2013-02-16T18:38:25Z</time>
      </trkpt>
      <trkpt lat="42.928102" lon="-8.157917">
        <ele>391.093</ele>
        <time>2013-02-16T18:38:45Z</time>
      </trkpt>
      <trkpt lat="42.928039" lon="-8.158218">
        <ele>393.053</ele>
        <time>2013-02-16T18:39:05Z</time>
      </trkpt>
      <trkpt lat="42.927984" lon="-8.158368">
        <ele>393.004</ele>
        <time>2013-02-16T18:39:25Z</time>
      </trkpt>
      <trkpt lat="42.927905" lon="-8.158550">
        <ele>393.014</ele>
        <time>2013-02-16T18:39:45Z</time>
      </trkpt>
      <trkpt lat="42.927819" lon="-8.158733">
        <ele>393.007</ele>
        <time>2013-02-16T18:40:05Z</time>
      </trkpt>
      <trkpt lat="42.927701" lon="-8.158979">
        <ele>394.088</ele>
        <time>2013-02-16T18:40:25Z</time>
      </trkpt>
      <trkpt lat="42.927654" lon="-8.159087">
        <ele>393.084</ele>
        <time>2013-02-16T18:40:45Z</time>
      </trkpt>
      <trkpt lat="42.927583" lon="-8.159366">
        <ele>391.044</ele>
        <time>2013-02-16T18:41:05Z</time>
      </trkpt>
      <trkpt lat="42.927520" lon="-8.159612">
        <ele>388.068</ele>
        <time>2013-02-16T18:41:25Z</time>
      </trkpt>
      <trkpt lat="42.927426" lon="-8.159816">
        <ele>388.022</ele>
        <time>2013-02-16T18:41:45Z</time>
      </trkpt>
      <trkpt lat="42.927387" lon="-8.159988">
        <ele>387.045</ele>
        <time>2013-02-16T18:42:05Z</time>
      </trkpt>
      <trkpt lat="42.927340" lon="-8.160106">
        <ele>386.042</ele>
        <time>2013-02-16T18:42:25Z</time>
      </trkpt>
      <trkpt lat="42.927332" lon="-8.160160">
        <ele>385.068</ele>
        <time>2013-02-16T18:42:45Z</time>
      </trkpt>
      <trkpt lat="42.927277" lon="-8.160514">
        <ele>383.042</ele>
        <time>2013-02-16T18:43:05Z</time>
      </trkpt>
      <trkpt lat="42.927229" lon="-8.160557">
        <ele>383.026</ele>
        <time>2013-02-16T18:43:25Z</time>
      </trkpt>
      <trkpt lat="42.927178" lon="-8.160734">
        <ele>382.007</ele>
        <time>2013-02-16T18:43:45Z</time>
      </trkpt>
      <trkpt lat="42.927147" lon="-8.160819">
        <ele>382.069</ele>
        <time>2013-02-16T18:44:05Z</time>
      </trkpt>
      <trkpt lat="42.927115" lon="-8.160948">
        <ele>382.015</ele>
        <time>2013-02-16T18:44:25Z</time>
      </trkpt>
      <trkpt lat="42.927096" lon="-8.161045">
        <ele>380.085</ele>
        <time>2013-02-16T18:44:45Z</time>
      </trkpt>
      <trkpt lat="42.927053" lon="-8.161195">
        <ele>379.069</ele>
        <time>2013-02-16T18:45:05Z</time>
      </trkpt>
      <trkpt lat="42.927029" lon="-8.161243">
        <ele>379.023</ele>
        <time>2013-02-16T18:45:25Z</time>
      </trkpt>
      <trkpt lat="42.927002" lon="-8.161297">
        <ele>379.036</ele>
        <time>2013-02-16T18:45:45Z</time>
      </trkpt>
      <trkpt lat="42.926970" lon="-8.161388">
        <ele>379.053</ele>
        <time>2013-02-16T18:46:05Z</time>
      </trkpt>
      <trkpt lat="42.926931" lon="-8.161522">
        <ele>379.062</ele>
        <time>2013-02-16T18:46:25Z</time>
      </trkpt>
      <trkpt lat="42.926903" lon="-8.161624">
        <ele>379.083</ele>
        <time>2013-02-16T18:46:45Z</time>
      </trkpt>
      <trkpt lat="42.926837" lon="-8.161737">
        <ele>379.011</ele>
        <time>2013-02-16T18:47:05Z</time>
      </trkpt>
      <trkpt lat="42.926813" lon="-8.161855">
        <ele>379.007</ele>
        <time>2013-02-16T18:47:25Z</time>
      </trkpt>
      <trkpt lat="42.926786" lon="-8.161973">
        <ele>377.049</ele>
        <time>2013-02-16T18:47:45Z</time>
      </trkpt>
      <trkpt lat="42.926723" lon="-8.162252">
        <ele>378.085</ele>
        <time>2013-02-16T18:48:05Z</time>
      </trkpt>
      <trkpt lat="42.926660" lon="-8.162461">
        <ele>379.015</ele>
        <time>2013-02-16T18:48:25Z</time>
      </trkpt>
      <trkpt lat="42.926640" lon="-8.162622">
        <ele>379.099</ele>
        <time>2013-02-16T18:48:45Z</time>
      </trkpt>
      <trkpt lat="42.926628" lon="-8.162788">
        <ele>380.053</ele>
        <time>2013-02-16T18:49:05Z</time>
      </trkpt>
      <trkpt lat="42.926640" lon="-8.162981">
        <ele>380.026</ele>
        <time>2013-02-16T18:49:25Z</time>
      </trkpt>
      <trkpt lat="42.926652" lon="-8.163089">
        <ele>380.073</ele>
        <time>2013-02-16T18:49:45Z</time>
      </trkpt>
      <trkpt lat="42.926687" lon="-8.163260">
        <ele>380.015</ele>
        <time>2013-02-16T18:50:05Z</time>
      </trkpt>
      <trkpt lat="42.926719" lon="-8.163518">
        <ele>380.065</ele>
        <time>2013-02-16T18:50:25Z</time>
      </trkpt>
      <trkpt lat="42.926754" lon="-8.163705">
        <ele>380.011</ele>
        <time>2013-02-16T18:50:45Z</time>
      </trkpt>
      <trkpt lat="42.926793" lon="-8.163882">
        <ele>380.007</ele>
        <time>2013-02-16T18:51:05Z</time>
      </trkpt>
      <trkpt lat="42.926774" lon="-8.163925">
        <ele>380.094</ele>
        <time>2013-02-16T18:51:25Z</time>
      </trkpt>
      <trkpt lat="42.926711" lon="-8.163952">
        <ele>380.080</ele>
        <time>2013-02-16T18:51:45Z</time>
      </trkpt>
      <trkpt lat="42.926711" lon="-8.164011">
        <ele>380.010</ele>
        <time>2013-02-16T18:52:05Z</time>
      </trkpt>
      <trkpt lat="42.926719" lon="-8.164086">
        <ele>380.024</ele>
        <time>2013-02-16T18:52:25Z</time>
      </trkpt>
      <trkpt lat="42.926719" lon="-8.164140">
        <ele>380.018</ele>
        <time>2013-02-16T18:52:45Z</time>
      </trkpt>
      <trkpt lat="42.926731" lon="-8.164188">
        <ele>380.081</ele>
        <time>2013-02-16T18:53:05Z</time>
      </trkpt>
      <trkpt lat="42.926746" lon="-8.164360">
        <ele>379.068</ele>
        <time>2013-02-16T18:53:25Z</time>
      </trkpt>
      <trkpt lat="42.926742" lon="-8.164451">
        <ele>379.033</ele>
        <time>2013-02-16T18:53:45Z</time>
      </trkpt>
      <trkpt lat="42.926734" lon="-8.164478">
        <ele>379.023</ele>
        <time>2013-02-16T18:54:05Z</time>
      </trkpt>
      <trkpt lat="42.926648" lon="-8.164489">
        <ele>379.015</ele>
        <time>2013-02-16T18:54:25Z</time>
      </trkpt>
      <trkpt lat="42.926593" lon="-8.164505">
        <ele>379.007</ele>
        <time>2013-02-16T18:54:45Z</time>
      </trkpt>
      <trkpt lat="42.926667" lon="-8.163685">
        <ele>398.087</ele>
        <time>2013-05-20T07:14:50Z</time>
      </trkpt>
      <trkpt lat="42.926667" lon="-8.163685">
        <ele>398.042</ele>
        <time>2013-05-20T07:15:20Z</time>
      </trkpt>
      <trkpt lat="42.926601" lon="-8.163733">
        <ele>391.026</ele>
        <time>2013-05-20T07:15:35Z</time>
      </trkpt>
      <trkpt lat="42.926520" lon="-8.163805">
        <ele>392.007</ele>
        <time>2013-05-20T07:15:44Z</time>
      </trkpt>
      <trkpt lat="42.926426" lon="-8.163783">
        <ele>392.082</ele>
        <time>2013-05-20T07:15:51Z</time>
      </trkpt>
      <trkpt lat="42.926327" lon="-8.163760">
        <ele>391.083</ele>
        <time>2013-05-20T07:15:57Z</time>
      </trkpt>
      <trkpt lat="42.926251" lon="-8.163837">
        <ele>389.089</ele>
        <time>2013-05-20T07:16:05Z</time>
      </trkpt>
      <trkpt lat="42.926195" lon="-8.163948">
        <ele>389.025</ele>
        <time>2013-05-20T07:16:12Z</time>
      </trkpt>
      <trkpt lat="42.926167" lon="-8.164069">
        <ele>388.068</ele>
        <time>2013-05-20T07:16:18Z</time>
      </trkpt>
      <trkpt lat="42.926208" lon="-8.164203">
        <ele>388.057</ele>
        <time>2013-05-20T07:16:24Z</time>
      </trkpt>
      <trkpt lat="42.926253" lon="-8.164325">
        <ele>388.026</ele>
        <time>2013-05-20T07:16:29Z</time>
      </trkpt>
      <trkpt lat="42.926279" lon="-8.164446">
        <ele>387.047</ele>
        <time>2013-05-20T07:16:34Z</time>
      </trkpt>
      <trkpt lat="42.926321" lon="-8.164571">
        <ele>387.029</ele>
        <time>2013-05-20T07:16:41Z</time>
      </trkpt>
      <trkpt lat="42.926296" lon="-8.164652">
        <ele>385.021</ele>
        <time>2013-05-20T07:16:51Z</time>
      </trkpt>
      <trkpt lat="42.926319" lon="-8.164790">
        <ele>383.007</ele>
        <time>2013-05-20T07:17:00Z</time>
      </trkpt>
      <trkpt lat="42.926349" lon="-8.164923">
        <ele>387.098</ele>
        <time>2013-05-20T07:17:07Z</time>
      </trkpt>
      <trkpt lat="42.926374" lon="-8.165009">
        <ele>385.069</ele>
        <time>2013-05-20T07:17:33Z</time>
      </trkpt>
      <trkpt lat="42.926350" lon="-8.165147">
        <ele>383.025</ele>
        <time>2013-05-20T07:17:41Z</time>
      </trkpt>
      <trkpt lat="42.926350" lon="-8.165296">
        <ele>377.031</ele>
        <time>2013-05-20T07:17:51Z</time>
      </trkpt>
      <trkpt lat="42.926359" lon="-8.165424">
        <ele>378.094</ele>
        <time>2013-05-20T07:17:58Z</time>
      </trkpt>
      <trkpt lat="42.926382" lon="-8.165564">
        <ele>375.013</ele>
        <time>2013-05-20T07:18:06Z</time>
      </trkpt>
      <trkpt lat="42.926405" lon="-8.165686">
        <ele>371.072</ele>
        <time>2013-05-20T07:18:13Z</time>
      </trkpt>
      <trkpt lat="42.926444" lon="-8.165814">
        <ele>368.088</ele>
        <time>2013-05-20T07:18:21Z</time>
      </trkpt>
      <trkpt lat="42.926492" lon="-8.165937">
        <ele>369.024</ele>
        <time>2013-05-20T07:18:30Z</time>
      </trkpt>
      <trkpt lat="42.926552" lon="-8.166035">
        <ele>371.026</ele>
        <time>2013-05-20T07:18:37Z</time>
      </trkpt>
      <trkpt lat="42.926595" lon="-8.166155">
        <ele>371.007</ele>
        <time>2013-05-20T07:18:45Z</time>
      </trkpt>
      <trkpt lat="42.926637" lon="-8.166271">
        <ele>370.052</ele>
        <time>2013-05-20T07:18:53Z</time>
      </trkpt>
      <trkpt lat="42.926687" lon="-8.166386">
        <ele>366.063</ele>
        <time>2013-05-20T07:19:00Z</time>
      </trkpt>
      <trkpt lat="42.926739" lon="-8.166502">
        <ele>363.019</ele>
        <time>2013-05-20T07:19:09Z</time>
      </trkpt>
      <trkpt lat="42.926771" lon="-8.166636">
        <ele>364.055</ele>
        <time>2013-05-20T07:19:16Z</time>
      </trkpt>
      <trkpt lat="42.926801" lon="-8.166767">
        <ele>364.088</ele>
        <time>2013-05-20T07:19:24Z</time>
      </trkpt>
      <trkpt lat="42.926819" lon="-8.166900">
        <ele>363.017</ele>
        <time>2013-05-20T07:19:32Z</time>
      </trkpt>
      <trkpt lat="42.926835" lon="-8.167026">
        <ele>359.036</ele>
        <time>2013-05-20T07:19:39Z</time>
      </trkpt>
      <trkpt lat="42.926818" lon="-8.167156">
        <ele>358.086</ele>
        <time>2013-05-20T07:19:49Z</time>
      </trkpt>
      <trkpt lat="42.926819" lon="-8.167290">
        <ele>358.060</ele>
        <time>2013-05-20T07:19:56Z</time>
      </trkpt>
      <trkpt lat="42.926840" lon="-8.167420">
        <ele>357.026</ele>
        <time>2013-05-20T07:20:04Z</time>
      </trkpt>
      <trkpt lat="42.926854" lon="-8.167541">
        <ele>352.007</ele>
        <time>2013-05-20T07:20:13Z</time>
      </trkpt>
      <trkpt lat="42.926863" lon="-8.167606">
        <ele>345.012</ele>
        <time>2013-05-20T07:20:23Z</time>
      </trkpt>
      <trkpt lat="42.926862" lon="-8.167729">
        <ele>340.093</ele>
        <time>2013-05-20T07:20:32Z</time>
      </trkpt>
      <trkpt lat="42.926856" lon="-8.167857">
        <ele>342.069</ele>
        <time>2013-05-20T07:20:39Z</time>
      </trkpt>
      <trkpt lat="42.926880" lon="-8.167990">
        <ele>342.035</ele>
        <time>2013-05-20T07:20:46Z</time>
      </trkpt>
      <trkpt lat="42.926895" lon="-8.168123">
        <ele>341.038</ele>
        <time>2013-05-20T07:20:53Z</time>
      </trkpt>
      <trkpt lat="42.926906" lon="-8.168255">
        <ele>343.047</ele>
        <time>2013-05-20T07:21:00Z</time>
      </trkpt>
      <trkpt lat="42.926929" lon="-8.168375">
        <ele>344.026</ele>
        <time>2013-05-20T07:21:07Z</time>
      </trkpt>
      <trkpt lat="42.926948" lon="-8.168519">
        <ele>343.036</ele>
        <time>2013-05-20T07:21:14Z</time>
      </trkpt>
      <trkpt lat="42.926967" lon="-8.168646">
        <ele>342.017</ele>
        <time>2013-05-20T07:21:20Z</time>
      </trkpt>
      <trkpt lat="42.926979" lon="-8.168771">
        <ele>341.018</ele>
        <time>2013-05-20T07:21:26Z</time>
      </trkpt>
      <trkpt lat="42.927002" lon="-8.168909">
        <ele>340.007</ele>
        <time>2013-05-20T07:21:34Z</time>
      </trkpt>
      <trkpt lat="42.927005" lon="-8.169032">
        <ele>337.077</ele>
        <time>2013-05-20T07:21:44Z</time>
      </trkpt>
      <trkpt lat="42.927027" lon="-8.169152">
        <ele>339.098</ele>
        <time>2013-05-20T07:21:50Z</time>
      </trkpt>
      <trkpt lat="42.927041" lon="-8.169281">
        <ele>340.034</ele>
        <time>2013-05-20T07:21:56Z</time>
      </trkpt>
      <trkpt lat="42.927062" lon="-8.169407">
        <ele>341.040</ele>
        <time>2013-05-20T07:22:04Z</time>
      </trkpt>
      <trkpt lat="42.927092" lon="-8.169538">
        <ele>342.043</ele>
        <time>2013-05-20T07:22:12Z</time>
      </trkpt>
      <trkpt lat="42.927110" lon="-8.169676">
        <ele>341.062</ele>
        <time>2013-05-20T07:22:18Z</time>
      </trkpt>
      <trkpt lat="42.927126" lon="-8.169810">
        <ele>343.071</ele>
        <time>2013-05-20T07:22:27Z</time>
      </trkpt>
      <trkpt lat="42.927121" lon="-8.169942">
        <ele>344.029</ele>
        <time>2013-05-20T07:22:36Z</time>
      </trkpt>
      <trkpt lat="42.927105" lon="-8.170073">
        <ele>344.000</ele>
        <time>2013-05-20T07:22:46Z</time>
      </trkpt>
      <trkpt lat="42.927081" lon="-8.170210">
        <ele>343.020</ele>
        <time>2013-05-20T07:22:53Z</time>
      </trkpt>
      <trkpt lat="42.927071" lon="-8.170339">
        <ele>345.007</ele>
        <time>2013-05-20T07:23:00Z</time>
      </trkpt>
      <trkpt lat="42.927042" lon="-8.170457">
        <ele>343.056</ele>
        <time>2013-05-20T07:23:07Z</time>
      </trkpt>
      <trkpt lat="42.927016" lon="-8.170590">
        <ele>343.057</ele>
        <time>2013-05-20T07:23:13Z</time>
      </trkpt>
      <trkpt lat="42.927001" lon="-8.170727">
        <ele>344.023</ele>
        <time>2013-05-20T07:23:20Z</time>
      </trkpt>
      <trkpt lat="42.926975" lon="-8.170845">
        <ele>344.069</ele>
        <time>2013-05-20T07:23:27Z</time>
      </trkpt>
      <trkpt lat="42.926960" lon="-8.170960">
        <ele>347.022</ele>
        <time>2013-05-20T07:23:37Z</time>
      </trkpt>
      <trkpt lat="42.926996" lon="-8.171076">
        <ele>347.021</ele>
        <time>2013-05-20T07:23:43Z</time>
      </trkpt>
      <trkpt lat="42.927031" lon="-8.171195">
        <ele>347.020</ele>
        <time>2013-05-20T07:23:48Z</time>
      </trkpt>
      <trkpt lat="42.927036" lon="-8.171320">
        <ele>347.033</ele>
        <time>2013-05-20T07:23:58Z</time>
      </trkpt>
      <trkpt lat="42.927045" lon="-8.171453">
        <ele>347.023</ele>
        <time>2013-05-20T07:24:05Z</time>
      </trkpt>
      <trkpt lat="42.927070" lon="-8.171587">
        <ele>346.015</ele>
        <time>2013-05-20T07:24:11Z</time>
      </trkpt>
      <trkpt lat="42.927120" lon="-8.171696">
        <ele>347.007</ele>
        <time>2013-05-20T07:24:20Z</time>
      </trkpt>
      <trkpt lat="42.927157" lon="-8.171737">
        <ele>347.077</ele>
        <time>2013-05-20T07:24:30Z</time>
      </trkpt>
      <trkpt lat="42.927179" lon="-8.171851">
        <ele>348.038</ele>
        <time>2013-05-20T07:24:40Z</time>
      </trkpt>
      <trkpt lat="42.927246" lon="-8.171959">
        <ele>349.034</ele>
        <time>2013-05-20T07:24:49Z</time>
      </trkpt>
      <trkpt lat="42.927254" lon="-8.172089">
        <ele>350.040</ele>
        <time>2013-05-20T07:24:55Z</time>
      </trkpt>
      <trkpt lat="42.927281" lon="-8.172224">
        <ele>351.033</ele>
        <time>2013-05-20T07:25:00Z</time>
      </trkpt>
      <trkpt lat="42.927347" lon="-8.172280">
        <ele>351.062</ele>
        <time>2013-05-20T07:25:10Z</time>
      </trkpt>
      <trkpt lat="42.927365" lon="-8.172371">
        <ele>350.081</ele>
        <time>2013-05-20T07:25:20Z</time>
      </trkpt>
      <trkpt lat="42.927387" lon="-8.172504">
        <ele>349.078</ele>
        <time>2013-05-20T07:25:27Z</time>
      </trkpt>
      <trkpt lat="42.927380" lon="-8.172643">
        <ele>349.033</ele>
        <time>2013-05-20T07:25:32Z</time>
      </trkpt>
      <trkpt lat="42.927386" lon="-8.172770">
        <ele>349.026</ele>
        <time>2013-05-20T07:25:38Z</time>
      </trkpt>
      <trkpt lat="42.927413" lon="-8.172891">
        <ele>348.007</ele>
        <time>2013-05-20T07:25:46Z</time>
      </trkpt>
      <trkpt lat="42.927450" lon="-8.173004">
        <ele>354.081</ele>
        <time>2013-05-20T07:25:56Z</time>
      </trkpt>
      <trkpt lat="42.927477" lon="-8.173141">
        <ele>356.092</ele>
        <time>2013-05-20T07:26:03Z</time>
      </trkpt>
      <trkpt lat="42.927492" lon="-8.173214">
        <ele>357.068</ele>
        <time>2013-05-20T07:26:15Z</time>
      </trkpt>
      <trkpt lat="42.927486" lon="-8.173290">
        <ele>359.084</ele>
        <time>2013-05-20T07:26:27Z</time>
      </trkpt>
      <trkpt lat="42.927441" lon="-8.173400">
        <ele>362.077</ele>
        <time>2013-05-20T07:26:36Z</time>
      </trkpt>
      <trkpt lat="42.927420" lon="-8.173526">
        <ele>363.076</ele>
        <time>2013-05-20T07:26:44Z</time>
      </trkpt>
      <trkpt lat="42.927385" lon="-8.173642">
        <ele>364.045</ele>
        <time>2013-05-20T07:26:50Z</time>
      </trkpt>
      <trkpt lat="42.927319" lon="-8.173755">
        <ele>364.038</ele>
        <time>2013-05-20T07:26:54Z</time>
      </trkpt>
      <trkpt lat="42.927258" lon="-8.173851">
        <ele>365.070</ele>
        <time>2013-05-20T07:26:58Z</time>
      </trkpt>
      <trkpt lat="42.927173" lon="-8.173923">
        <ele>365.017</ele>
        <time>2013-05-20T07:27:03Z</time>
      </trkpt>
      <trkpt lat="42.927092" lon="-8.173981">
        <ele>365.007</ele>
        <time>2013-05-20T07:27:09Z</time>
      </trkpt>
      <trkpt lat="42.927007" lon="-8.174028">
        <ele>367.047</ele>
        <time>2013-05-20T07:27:14Z</time>
      </trkpt>
      <trkpt lat="42.926912" lon="-8.174053">
        <ele>366.038</ele>
        <time>2013-05-20T07:27:23Z</time>
      </trkpt>
      <trkpt lat="42.926806" lon="-8.174077">
        <ele>366.014</ele>
        <time>2013-05-20T07:27:28Z</time>
      </trkpt>
      <trkpt lat="42.926719" lon="-8.174130">
        <ele>368.060</ele>
        <time>2013-05-20T07:27:35Z</time>
      </trkpt>
      <trkpt lat="42.926627" lon="-8.174131">
        <ele>367.013</ele>
        <time>2013-05-20T07:27:44Z</time>
      </trkpt>
      <trkpt lat="42.926531" lon="-8.174163">
        <ele>367.092</ele>
        <time>2013-05-20T07:27:51Z</time>
      </trkpt>
      <trkpt lat="42.926441" lon="-8.174212">
        <ele>366.081</ele>
        <time>2013-05-20T07:27:58Z</time>
      </trkpt>
      <trkpt lat="42.926364" lon="-8.174297">
        <ele>368.064</ele>
        <time>2013-05-20T07:28:06Z</time>
      </trkpt>
      <trkpt lat="42.926287" lon="-8.174370">
        <ele>369.006</ele>
        <time>2013-05-20T07:28:12Z</time>
      </trkpt>
      <trkpt lat="42.926284" lon="-8.174497">
        <ele>367.016</ele>
        <time>2013-05-20T07:28:18Z</time>
      </trkpt>
      <trkpt lat="42.926272" lon="-8.174623">
        <ele>366.007</ele>
        <time>2013-05-20T07:28:28Z</time>
      </trkpt>
      <trkpt lat="42.926188" lon="-8.174701">
        <ele>368.060</ele>
        <time>2013-05-20T07:28:34Z</time>
      </trkpt>
      <trkpt lat="42.926142" lon="-8.174816">
        <ele>369.081</ele>
        <time>2013-05-20T07:28:41Z</time>
      </trkpt>
      <trkpt lat="42.926123" lon="-8.174940">
        <ele>369.047</ele>
        <time>2013-05-20T07:28:46Z</time>
      </trkpt>
      <trkpt lat="42.926121" lon="-8.175003">
        <ele>368.023</ele>
        <time>2013-05-20T07:28:56Z</time>
      </trkpt>
      <trkpt lat="42.926085" lon="-8.175049">
        <ele>370.056</ele>
        <time>2013-05-20T07:29:06Z</time>
      </trkpt>
      <trkpt lat="42.926092" lon="-8.175188">
        <ele>370.065</ele>
        <time>2013-05-20T07:29:16Z</time>
      </trkpt>
      <trkpt lat="42.926030" lon="-8.175302">
        <ele>369.024</ele>
        <time>2013-05-20T07:29:19Z</time>
      </trkpt>
      <trkpt lat="42.925941" lon="-8.175410">
        <ele>372.063</ele>
        <time>2013-05-20T07:29:22Z</time>
      </trkpt>
      <trkpt lat="42.925867" lon="-8.175512">
        <ele>370.044</ele>
        <time>2013-05-20T07:29:26Z</time>
      </trkpt>
      <trkpt lat="42.925807" lon="-8.175615">
        <ele>368.018</ele>
        <time>2013-05-20T07:29:31Z</time>
      </trkpt>
      <trkpt lat="42.925781" lon="-8.175743">
        <ele>364.007</ele>
        <time>2013-05-20T07:29:36Z</time>
      </trkpt>
      <trkpt lat="42.925796" lon="-8.175849">
        <ele>364.080</ele>
        <time>2013-05-20T07:29:46Z</time>
      </trkpt>
      <trkpt lat="42.925806" lon="-8.175973">
        <ele>364.041</ele>
        <time>2013-05-20T07:29:54Z</time>
      </trkpt>
      <trkpt lat="42.925734" lon="-8.176059">
        <ele>364.087</ele>
        <time>2013-05-20T07:29:59Z</time>
      </trkpt>
      <trkpt lat="42.925677" lon="-8.176181">
        <ele>364.013</ele>
        <time>2013-05-20T07:30:05Z</time>
      </trkpt>
      <trkpt lat="42.925622" lon="-8.176310">
        <ele>363.096</ele>
        <time>2013-05-20T07:30:10Z</time>
      </trkpt>
      <trkpt lat="42.925575" lon="-8.176415">
        <ele>362.055</ele>
        <time>2013-05-20T07:30:15Z</time>
      </trkpt>
      <trkpt lat="42.925549" lon="-8.176542">
        <ele>361.014</ele>
        <time>2013-05-20T07:30:24Z</time>
      </trkpt>
      <trkpt lat="42.925510" lon="-8.176655">
        <ele>359.031</ele>
        <time>2013-05-20T07:30:32Z</time>
      </trkpt>
      <trkpt lat="42.925442" lon="-8.176745">
        <ele>358.061</ele>
        <time>2013-05-20T07:30:38Z</time>
      </trkpt>
      <trkpt lat="42.925422" lon="-8.176864">
        <ele>357.007</ele>
        <time>2013-05-20T07:30:48Z</time>
      </trkpt>
      <trkpt lat="42.925380" lon="-8.176975">
        <ele>359.007</ele>
        <time>2013-05-20T07:30:55Z</time>
      </trkpt>
      <trkpt lat="42.925344" lon="-8.177097">
        <ele>360.047</ele>
        <time>2013-05-20T07:31:00Z</time>
      </trkpt>
      <trkpt lat="42.925327" lon="-8.177220">
        <ele>359.098</ele>
        <time>2013-05-20T07:31:05Z</time>
      </trkpt>
      <trkpt lat="42.925309" lon="-8.177349">
        <ele>359.064</ele>
        <time>2013-05-20T07:31:12Z</time>
      </trkpt>
      <trkpt lat="42.925272" lon="-8.177472">
        <ele>357.030</ele>
        <time>2013-05-20T07:31:19Z</time>
      </trkpt>
      <trkpt lat="42.925266" lon="-8.177550">
        <ele>356.053</ele>
        <time>2013-05-20T07:31:29Z</time>
      </trkpt>
      <trkpt lat="42.925256" lon="-8.177697">
        <ele>355.042</ele>
        <time>2013-05-20T07:31:38Z</time>
      </trkpt>
      <trkpt lat="42.925243" lon="-8.177829">
        <ele>354.051</ele>
        <time>2013-05-20T07:31:43Z</time>
      </trkpt>
      <trkpt lat="42.925228" lon="-8.177960">
        <ele>354.086</ele>
        <time>2013-05-20T07:31:48Z</time>
      </trkpt>
      <trkpt lat="42.925225" lon="-8.178101">
        <ele>352.060</ele>
        <time>2013-05-20T07:31:54Z</time>
      </trkpt>
      <trkpt lat="42.925241" lon="-8.178225">
        <ele>347.026</ele>
        <time>2013-05-20T07:32:02Z</time>
      </trkpt>
      <trkpt lat="42.925230" lon="-8.178356">
        <ele>347.007</ele>
        <time>2013-05-20T07:32:11Z</time>
      </trkpt>
      <trkpt lat="42.925210" lon="-8.178487">
        <ele>345.012</ele>
        <time>2013-05-20T07:32:19Z</time>
      </trkpt>
      <trkpt lat="42.925226" lon="-8.178618">
        <ele>344.033</ele>
        <time>2013-05-20T07:32:27Z</time>
      </trkpt>
      <trkpt lat="42.925244" lon="-8.178739">
        <ele>341.099</ele>
        <time>2013-05-20T07:32:37Z</time>
      </trkpt>
      <trkpt lat="42.925246" lon="-8.178882">
        <ele>339.075</ele>
        <time>2013-05-20T07:32:44Z</time>
      </trkpt>
      <trkpt lat="42.925260" lon="-8.179023">
        <ele>335.048</ele>
        <time>2013-05-20T07:32:51Z</time>
      </trkpt>
      <trkpt lat="42.925281" lon="-8.179148">
        <ele>336.027</ele>
        <time>2013-05-20T07:32:58Z</time>
      </trkpt>
      <trkpt lat="42.925323" lon="-8.179257">
        <ele>335.026</ele>
        <time>2013-05-20T07:33:05Z</time>
      </trkpt>
      <trkpt lat="42.925340" lon="-8.179394">
        <ele>333.017</ele>
        <time>2013-05-20T07:33:13Z</time>
      </trkpt>
      <trkpt lat="42.925366" lon="-8.179513">
        <ele>333.087</ele>
        <time>2013-05-20T07:33:19Z</time>
      </trkpt>
      <trkpt lat="42.925403" lon="-8.179645">
        <ele>330.015</ele>
        <time>2013-05-20T07:33:26Z</time>
      </trkpt>
      <trkpt lat="42.925459" lon="-8.179760">
        <ele>331.007</ele>
        <time>2013-05-20T07:33:34Z</time>
      </trkpt>
      <trkpt lat="42.925489" lon="-8.179877">
        <ele>329.065</ele>
        <time>2013-05-20T07:33:40Z</time>
      </trkpt>
      <trkpt lat="42.925534" lon="-8.179991">
        <ele>329.096</ele>
        <time>2013-05-20T07:33:50Z</time>
      </trkpt>
      <trkpt lat="42.925571" lon="-8.180084">
        <ele>327.032</ele>
        <time>2013-05-20T07:34:00Z</time>
      </trkpt>
      <trkpt lat="42.925597" lon="-8.180212">
        <ele>326.028</ele>
        <time>2013-05-20T07:34:06Z</time>
      </trkpt>
      <trkpt lat="42.925541" lon="-8.180315">
        <ele>327.061</ele>
        <time>2013-05-20T07:34:15Z</time>
      </trkpt>
      <trkpt lat="42.925440" lon="-8.180310">
        <ele>327.050</ele>
        <time>2013-05-20T07:34:23Z</time>
      </trkpt>
      <trkpt lat="42.925335" lon="-8.180337">
        <ele>327.099</ele>
        <time>2013-05-20T07:34:29Z</time>
      </trkpt>
      <trkpt lat="42.925246" lon="-8.180297">
        <ele>327.049</ele>
        <time>2013-05-20T07:34:34Z</time>
      </trkpt>
      <trkpt lat="42.925188" lon="-8.180266">
        <ele>329.002</ele>
        <time>2013-05-20T07:34:44Z</time>
      </trkpt>
      <trkpt lat="42.925124" lon="-8.180367">
        <ele>328.022</ele>
        <time>2013-05-20T07:34:51Z</time>
      </trkpt>
      <trkpt lat="42.925101" lon="-8.180463">
        <ele>329.007</ele>
        <time>2013-05-20T07:35:01Z</time>
      </trkpt>
      <trkpt lat="42.925011" lon="-8.180508">
        <ele>328.028</ele>
        <time>2013-05-20T07:35:07Z</time>
      </trkpt>
      <trkpt lat="42.924921" lon="-8.180583">
        <ele>327.029</ele>
        <time>2013-05-20T07:35:13Z</time>
      </trkpt>
      <trkpt lat="42.924835" lon="-8.180665">
        <ele>328.065</ele>
        <time>2013-05-20T07:35:18Z</time>
      </trkpt>
      <trkpt lat="42.924776" lon="-8.180780">
        <ele>323.051</ele>
        <time>2013-05-20T07:35:28Z</time>
      </trkpt>
      <trkpt lat="42.924757" lon="-8.180916">
        <ele>325.024</ele>
        <time>2013-05-20T07:35:36Z</time>
      </trkpt>
      <trkpt lat="42.924728" lon="-8.181043">
        <ele>323.043</ele>
        <time>2013-05-20T07:35:43Z</time>
      </trkpt>
      <trkpt lat="42.924690" lon="-8.181175">
        <ele>323.092</ele>
        <time>2013-05-20T07:35:50Z</time>
      </trkpt>
      <trkpt lat="42.924674" lon="-8.181299">
        <ele>323.043</ele>
        <time>2013-05-20T07:36:00Z</time>
      </trkpt>
      <trkpt lat="42.924657" lon="-8.181424">
        <ele>326.064</ele>
        <time>2013-05-20T07:36:05Z</time>
      </trkpt>
      <trkpt lat="42.924626" lon="-8.181544">
        <ele>324.010</ele>
        <time>2013-05-20T07:36:14Z</time>
      </trkpt>
      <trkpt lat="42.924613" lon="-8.181682">
        <ele>324.007</ele>
        <time>2013-05-20T07:36:20Z</time>
      </trkpt>
      <trkpt lat="42.924559" lon="-8.181789">
        <ele>324.048</ele>
        <time>2013-05-20T07:36:29Z</time>
      </trkpt>
      <trkpt lat="42.924544" lon="-8.181916">
        <ele>326.039</ele>
        <time>2013-05-20T07:36:38Z</time>
      </trkpt>
      <trkpt lat="42.924555" lon="-8.182049">
        <ele>327.025</ele>
        <time>2013-05-20T07:36:42Z</time>
      </trkpt>
      <trkpt lat="42.924543" lon="-8.182191">
        <ele>327.021</ele>
        <time>2013-05-20T07:36:48Z</time>
      </trkpt>
      <trkpt lat="42.924495" lon="-8.182297">
        <ele>328.094</ele>
        <time>2013-05-20T07:36:56Z</time>
      </trkpt>
      <trkpt lat="42.924483" lon="-8.182385">
        <ele>326.073</ele>
        <time>2013-05-20T07:37:06Z</time>
      </trkpt>
      <trkpt lat="42.924485" lon="-8.182524">
        <ele>326.062</ele>
        <time>2013-05-20T07:37:13Z</time>
      </trkpt>
      <trkpt lat="42.924447" lon="-8.182614">
        <ele>327.021</ele>
        <time>2013-05-20T07:37:23Z</time>
      </trkpt>
      <trkpt lat="42.924403" lon="-8.182702">
        <ele>327.041</ele>
        <time>2013-05-20T07:37:33Z</time>
      </trkpt>
      <trkpt lat="42.924378" lon="-8.182842">
        <ele>328.005</ele>
        <time>2013-05-20T07:37:43Z</time>
      </trkpt>
      <trkpt lat="42.924370" lon="-8.182970">
        <ele>328.007</ele>
        <time>2013-05-20T07:37:50Z</time>
      </trkpt>
      <trkpt lat="42.924328" lon="-8.183098">
        <ele>329.086</ele>
        <time>2013-05-20T07:37:54Z</time>
      </trkpt>
      <trkpt lat="42.924290" lon="-8.183222">
        <ele>330.037</ele>
        <time>2013-05-20T07:38:04Z</time>
      </trkpt>
      <trkpt lat="42.924273" lon="-8.183327">
        <ele>329.083</ele>
        <time>2013-05-20T07:38:14Z</time>
      </trkpt>
      <trkpt lat="42.924249" lon="-8.183411">
        <ele>331.059</ele>
        <time>2013-05-20T07:38:24Z</time>
      </trkpt>
      <trkpt lat="42.924278" lon="-8.183518">
        <ele>332.062</ele>
        <time>2013-05-20T07:38:34Z</time>
      </trkpt>
      <trkpt lat="42.924278" lon="-8.183646">
        <ele>332.011</ele>
        <time>2013-05-20T07:38:40Z</time>
      </trkpt>
      <trkpt lat="42.924233" lon="-8.183773">
        <ele>333.050</ele>
        <time>2013-05-20T07:38:45Z</time>
      </trkpt>
      <trkpt lat="42.924210" lon="-8.183858">
        <ele>335.052</ele>
        <time>2013-05-20T07:38:55Z</time>
      </trkpt>
      <trkpt lat="42.924180" lon="-8.183971">
        <ele>337.053</ele>
        <time>2013-05-20T07:39:05Z</time>
      </trkpt>
      <trkpt lat="42.924154" lon="-8.184105">
        <ele>338.008</ele>
        <time>2013-05-20T07:39:11Z</time>
      </trkpt>
      <trkpt lat="42.924148" lon="-8.184247">
        <ele>340.007</ele>
        <time>2013-05-20T07:39:16Z</time>
      </trkpt>
      <trkpt lat="42.924135" lon="-8.184374">
        <ele>341.049</ele>
        <time>2013-05-20T07:39:24Z</time>
      </trkpt>
      <trkpt lat="42.924080" lon="-8.184442">
        <ele>341.080</ele>
        <time>2013-05-20T07:39:34Z</time>
      </trkpt>
      <trkpt lat="42.924018" lon="-8.184540">
        <ele>340.066</ele>
        <time>2013-05-20T07:39:40Z</time>
      </trkpt>
      <trkpt lat="42.923949" lon="-8.184621">
        <ele>342.022</ele>
        <time>2013-05-20T07:39:46Z</time>
      </trkpt>
      <trkpt lat="42.923875" lon="-8.184700">
        <ele>342.055</ele>
        <time>2013-05-20T07:39:53Z</time>
      </trkpt>
      <trkpt lat="42.923791" lon="-8.184744">
        <ele>343.034</ele>
        <time>2013-05-20T07:40:01Z</time>
      </trkpt>
      <trkpt lat="42.923694" lon="-8.184748">
        <ele>342.013</ele>
        <time>2013-05-20T07:40:09Z</time>
      </trkpt>
      <trkpt lat="42.923593" lon="-8.184784">
        <ele>344.076</ele>
        <time>2013-05-20T07:40:16Z</time>
      </trkpt>
      <trkpt lat="42.923503" lon="-8.184809">
        <ele>345.090</ele>
        <time>2013-05-20T07:40:23Z</time>
      </trkpt>
      <trkpt lat="42.923404" lon="-8.184851">
        <ele>347.019</ele>
        <time>2013-05-20T07:40:32Z</time>
      </trkpt>
      <trkpt lat="42.923308" lon="-8.184916">
        <ele>347.007</ele>
        <time>2013-05-20T07:40:39Z</time>
      </trkpt>
      <trkpt lat="42.923215" lon="-8.184962">
        <ele>347.081</ele>
        <time>2013-05-20T07:40:45Z</time>
      </trkpt>
      <trkpt lat="42.923123" lon="-8.184968">
        <ele>346.082</ele>
        <time>2013-05-20T07:40:55Z</time>
      </trkpt>
      <trkpt lat="42.923016" lon="-8.184993">
        <ele>347.038</ele>
        <time>2013-05-20T07:41:04Z</time>
      </trkpt>
      <trkpt lat="42.922938" lon="-8.185072">
        <ele>347.074</ele>
        <time>2013-05-20T07:41:09Z</time>
      </trkpt>
      <trkpt lat="42.922842" lon="-8.185041">
        <ele>346.027</ele>
        <time>2013-05-20T07:41:17Z</time>
      </trkpt>
      <trkpt lat="42.922740" lon="-8.185053">
        <ele>346.046</ele>
        <time>2013-05-20T07:41:22Z</time>
      </trkpt>
      <trkpt lat="42.922703" lon="-8.185186">
        <ele>348.055</ele>
        <time>2013-05-20T07:41:28Z</time>
      </trkpt>
      <trkpt lat="42.922675" lon="-8.185315">
        <ele>348.025</ele>
        <time>2013-05-20T07:41:35Z</time>
      </trkpt>
      <trkpt lat="42.922636" lon="-8.185429">
        <ele>348.026</ele>
        <time>2013-05-20T07:41:42Z</time>
      </trkpt>
      <trkpt lat="42.922627" lon="-8.185537">
        <ele>345.008</ele>
        <time>2013-05-20T07:41:58Z</time>
      </trkpt>
      <trkpt lat="42.922641" lon="-8.185667">
        <ele>341.007</ele>
        <time>2013-05-20T07:42:04Z</time>
      </trkpt>
      <trkpt lat="42.922610" lon="-8.185804">
        <ele>336.066</ele>
        <time>2013-05-20T07:42:10Z</time>
      </trkpt>
      <trkpt lat="42.922603" lon="-8.185943">
        <ele>335.067</ele>
        <time>2013-05-20T07:42:17Z</time>
      </trkpt>
      <trkpt lat="42.922592" lon="-8.186070">
        <ele>335.053</ele>
        <time>2013-05-20T07:42:26Z</time>
      </trkpt>
      <trkpt lat="42.922572" lon="-8.186199">
        <ele>335.049</ele>
        <time>2013-05-20T07:42:33Z</time>
      </trkpt>
      <trkpt lat="42.922555" lon="-8.186332">
        <ele>337.032</ele>
        <time>2013-05-20T07:42:42Z</time>
      </trkpt>
      <trkpt lat="42.922518" lon="-8.186462">
        <ele>337.051</ele>
        <time>2013-05-20T07:42:49Z</time>
      </trkpt>
      <trkpt lat="42.922536" lon="-8.186584">
        <ele>340.020</ele>
        <time>2013-05-20T07:42:59Z</time>
      </trkpt>
      <trkpt lat="42.922571" lon="-8.186713">
        <ele>341.087</ele>
        <time>2013-05-20T07:43:05Z</time>
      </trkpt>
      <trkpt lat="42.922595" lon="-8.186843">
        <ele>346.042</ele>
        <time>2013-05-20T07:43:13Z</time>
      </trkpt>
      <trkpt lat="42.922622" lon="-8.186963">
        <ele>345.026</ele>
        <time>2013-05-20T07:43:20Z</time>
      </trkpt>
      <trkpt lat="42.922671" lon="-8.187084">
        <ele>345.007</ele>
        <time>2013-05-20T07:43:30Z</time>
      </trkpt>
      <trkpt lat="42.922724" lon="-8.187193">
        <ele>344.032</ele>
        <time>2013-05-20T07:43:38Z</time>
      </trkpt>
      <trkpt lat="42.922761" lon="-8.187315">
        <ele>345.033</ele>
        <time>2013-05-20T07:43:46Z</time>
      </trkpt>
      <trkpt lat="42.922777" lon="-8.187444">
        <ele>349.029</ele>
        <time>2013-05-20T07:43:54Z</time>
      </trkpt>
      <trkpt lat="42.922775" lon="-8.187571">
        <ele>350.075</ele>
        <time>2013-05-20T07:44:02Z</time>
      </trkpt>
      <trkpt lat="42.922789" lon="-8.187700">
        <ele>351.048</ele>
        <time>2013-05-20T07:44:08Z</time>
      </trkpt>
      <trkpt lat="42.922821" lon="-8.187815">
        <ele>351.097</ele>
        <time>2013-05-20T07:44:18Z</time>
      </trkpt>
      <trkpt lat="42.922875" lon="-8.187884">
        <ele>352.076</ele>
        <time>2013-05-20T07:44:28Z</time>
      </trkpt>
      <trkpt lat="42.922964" lon="-8.187933">
        <ele>354.075</ele>
        <time>2013-05-20T07:44:36Z</time>
      </trkpt>
      <trkpt lat="42.923044" lon="-8.188014">
        <ele>355.028</ele>
        <time>2013-05-20T07:44:44Z</time>
      </trkpt>
      <trkpt lat="42.923147" lon="-8.188127">
        <ele>356.020</ele>
        <time>2013-05-20T07:44:59Z</time>
      </trkpt>
      <trkpt lat="42.923171" lon="-8.188187">
        <ele>356.007</ele>
        <time>2013-05-20T07:45:09Z</time>
      </trkpt>
      <trkpt lat="42.923170" lon="-8.188324">
        <ele>356.091</ele>
        <time>2013-05-20T07:45:13Z</time>
      </trkpt>
      <trkpt lat="42.923176" lon="-8.188414">
        <ele>357.082</ele>
        <time>2013-05-20T07:45:23Z</time>
      </trkpt>
      <trkpt lat="42.923091" lon="-8.188431">
        <ele>359.058</ele>
        <time>2013-05-20T07:45:33Z</time>
      </trkpt>
      <trkpt lat="42.923089" lon="-8.188499">
        <ele>357.064</ele>
        <time>2013-05-20T07:45:43Z</time>
      </trkpt>
      <trkpt lat="42.923134" lon="-8.188566">
        <ele>361.087</ele>
        <time>2013-05-20T07:45:53Z</time>
      </trkpt>
      <trkpt lat="42.923215" lon="-8.188627">
        <ele>363.046</ele>
        <time>2013-05-20T07:46:01Z</time>
      </trkpt>
      <trkpt lat="42.923301" lon="-8.188681">
        <ele>365.065</ele>
        <time>2013-05-20T07:46:09Z</time>
      </trkpt>
      <trkpt lat="42.923395" lon="-8.188738">
        <ele>367.095</ele>
        <time>2013-05-20T07:46:17Z</time>
      </trkpt>
      <trkpt lat="42.923486" lon="-8.188790">
        <ele>368.049</ele>
        <time>2013-05-20T07:46:27Z</time>
      </trkpt>
      <trkpt lat="42.923551" lon="-8.188864">
        <ele>368.023</ele>
        <time>2013-05-20T07:46:37Z</time>
      </trkpt>
      <trkpt lat="42.923650" lon="-8.188879">
        <ele>367.007</ele>
        <time>2013-05-20T07:46:43Z</time>
      </trkpt>
      <trkpt lat="42.923730" lon="-8.188943">
        <ele>367.043</ele>
        <time>2013-05-20T07:46:51Z</time>
      </trkpt>
      <trkpt lat="42.923820" lon="-8.188953">
        <ele>370.034</ele>
        <time>2013-05-20T07:46:56Z</time>
      </trkpt>
      <trkpt lat="42.923910" lon="-8.188990">
        <ele>372.030</ele>
        <time>2013-05-20T07:47:02Z</time>
      </trkpt>
      <trkpt lat="42.923995" lon="-8.189039">
        <ele>373.056</ele>
        <time>2013-05-20T07:47:10Z</time>
      </trkpt>
      <trkpt lat="42.924087" lon="-8.189069">
        <ele>375.069</ele>
        <time>2013-05-20T07:47:17Z</time>
      </trkpt>
      <trkpt lat="42.924177" lon="-8.189114">
        <ele>376.028</ele>
        <time>2013-05-20T07:47:25Z</time>
      </trkpt>
      <trkpt lat="42.924267" lon="-8.189151">
        <ele>377.087</ele>
        <time>2013-05-20T07:47:33Z</time>
      </trkpt>
      <trkpt lat="42.924357" lon="-8.189210">
        <ele>374.033</ele>
        <time>2013-05-20T07:47:43Z</time>
      </trkpt>
      <trkpt lat="42.924449" lon="-8.189261">
        <ele>375.023</ele>
        <time>2013-05-20T07:47:53Z</time>
      </trkpt>
      <trkpt lat="42.924527" lon="-8.189314">
        <ele>375.015</ele>
        <time>2013-05-20T07:48:03Z</time>
      </trkpt>
      <trkpt lat="42.924609" lon="-8.189370">
        <ele>373.007</ele>
        <time>2013-05-20T07:48:09Z</time>
      </trkpt>
      <trkpt lat="42.924695" lon="-8.189426">
        <ele>374.047</ele>
        <time>2013-05-20T07:48:16Z</time>
      </trkpt>
      <trkpt lat="42.924785" lon="-8.189465">
        <ele>375.028</ele>
        <time>2013-05-20T07:48:23Z</time>
      </trkpt>
      <trkpt lat="42.924882" lon="-8.189508">
        <ele>377.054</ele>
        <time>2013-05-20T07:48:30Z</time>
      </trkpt>
      <trkpt lat="42.924983" lon="-8.189533">
        <ele>376.080</ele>
        <time>2013-05-20T07:48:39Z</time>
      </trkpt>
      <trkpt lat="42.925084" lon="-8.189550">
        <ele>373.023</ele>
        <time>2013-05-20T07:48:45Z</time>
      </trkpt>
      <trkpt lat="42.925149" lon="-8.189610">
        <ele>373.082</ele>
        <time>2013-05-20T07:48:55Z</time>
      </trkpt>
      <trkpt lat="42.925234" lon="-8.189652">
        <ele>373.051</ele>
        <time>2013-05-20T07:49:02Z</time>
      </trkpt>
      <trkpt lat="42.925318" lon="-8.189726">
        <ele>374.027</ele>
        <time>2013-05-20T07:49:11Z</time>
      </trkpt>
      <trkpt lat="42.925411" lon="-8.189751">
        <ele>374.068</ele>
        <time>2013-05-20T07:49:19Z</time>
      </trkpt>
      <trkpt lat="42.925500" lon="-8.189799">
        <ele>375.014</ele>
        <time>2013-05-20T07:49:28Z</time>
      </trkpt>
      <trkpt lat="42.925585" lon="-8.189853">
        <ele>372.007</ele>
        <time>2013-05-20T07:49:36Z</time>
      </trkpt>
      <trkpt lat="42.925679" lon="-8.189894">
        <ele>371.036</ele>
        <time>2013-05-20T07:49:43Z</time>
      </trkpt>
      <trkpt lat="42.925773" lon="-8.189928">
        <ele>371.057</ele>
        <time>2013-05-20T07:49:50Z</time>
      </trkpt>
      <trkpt lat="42.925863" lon="-8.189965">
        <ele>370.023</ele>
        <time>2013-05-20T07:49:59Z</time>
      </trkpt>
      <trkpt lat="42.925948" lon="-8.190011">
        <ele>370.069</ele>
        <time>2013-05-20T07:50:05Z</time>
      </trkpt>
      <trkpt lat="42.926019" lon="-8.190097">
        <ele>372.072</ele>
        <time>2013-05-20T07:50:14Z</time>
      </trkpt>
      <trkpt lat="42.926075" lon="-8.190197">
        <ele>376.021</ele>
        <time>2013-05-20T07:50:21Z</time>
      </trkpt>
      <trkpt lat="42.926099" lon="-8.190323">
        <ele>379.020</ele>
        <time>2013-05-20T07:50:27Z</time>
      </trkpt>
      <trkpt lat="42.926125" lon="-8.190451">
        <ele>381.059</ele>
        <time>2013-05-20T07:50:35Z</time>
      </trkpt>
      <trkpt lat="42.926119" lon="-8.190580">
        <ele>379.003</ele>
        <time>2013-05-20T07:50:42Z</time>
      </trkpt>
      <trkpt lat="42.926117" lon="-8.190719">
        <ele>380.023</ele>
        <time>2013-05-20T07:50:51Z</time>
      </trkpt>
      <trkpt lat="42.926102" lon="-8.190854">
        <ele>382.007</ele>
        <time>2013-05-20T07:50:58Z</time>
      </trkpt>
      <trkpt lat="42.926091" lon="-8.190990">
        <ele>384.019</ele>
        <time>2013-05-20T07:51:06Z</time>
      </trkpt>
      <trkpt lat="42.926087" lon="-8.191124">
        <ele>384.070</ele>
        <time>2013-05-20T07:51:14Z</time>
      </trkpt>
      <trkpt lat="42.926085" lon="-8.191261">
        <ele>384.096</ele>
        <time>2013-05-20T07:51:24Z</time>
      </trkpt>
      <trkpt lat="42.926095" lon="-8.191402">
        <ele>384.022</ele>
        <time>2013-05-20T07:51:33Z</time>
      </trkpt>
      <trkpt lat="42.926090" lon="-8.191481">
        <ele>383.035</ele>
        <time>2013-05-20T07:51:43Z</time>
      </trkpt>
      <trkpt lat="42.926101" lon="-8.191580">
        <ele>382.044</ele>
        <time>2013-05-20T07:51:53Z</time>
      </trkpt>
      <trkpt lat="42.926115" lon="-8.191710">
        <ele>381.093</ele>
        <time>2013-05-20T07:52:01Z</time>
      </trkpt>
      <trkpt lat="42.926104" lon="-8.191846">
        <ele>380.096</ele>
        <time>2013-05-20T07:52:08Z</time>
      </trkpt>
      <trkpt lat="42.926095" lon="-8.191985">
        <ele>379.031</ele>
        <time>2013-05-20T07:52:16Z</time>
      </trkpt>
      <trkpt lat="42.926092" lon="-8.192112">
        <ele>378.024</ele>
        <time>2013-05-20T07:52:22Z</time>
      </trkpt>
      <trkpt lat="42.926067" lon="-8.192234">
        <ele>379.007</ele>
        <time>2013-05-20T07:52:27Z</time>
      </trkpt>
      <trkpt lat="42.926064" lon="-8.192361">
        <ele>380.083</ele>
        <time>2013-05-20T07:52:33Z</time>
      </trkpt>
      <trkpt lat="42.926071" lon="-8.192484">
        <ele>379.034</ele>
        <time>2013-05-20T07:52:39Z</time>
      </trkpt>
      <trkpt lat="42.926053" lon="-8.192617">
        <ele>381.030</ele>
        <time>2013-05-20T07:52:47Z</time>
      </trkpt>
      <trkpt lat="42.926091" lon="-8.192729">
        <ele>383.036</ele>
        <time>2013-05-20T07:52:54Z</time>
      </trkpt>
      <trkpt lat="42.926119" lon="-8.192846">
        <ele>384.069</ele>
        <time>2013-05-20T07:53:01Z</time>
      </trkpt>
      <trkpt lat="42.926147" lon="-8.192915">
        <ele>385.038</ele>
        <time>2013-05-20T07:53:17Z</time>
      </trkpt>
      <trkpt lat="42.926179" lon="-8.193033">
        <ele>385.087</ele>
        <time>2013-05-20T07:53:22Z</time>
      </trkpt>
      <trkpt lat="42.926220" lon="-8.193158">
        <ele>386.039</ele>
        <time>2013-05-20T07:53:29Z</time>
      </trkpt>
      <trkpt lat="42.926265" lon="-8.193266">
        <ele>385.001</ele>
        <time>2013-05-20T07:53:34Z</time>
      </trkpt>
      <trkpt lat="42.926290" lon="-8.193399">
        <ele>387.021</ele>
        <time>2013-05-20T07:53:40Z</time>
      </trkpt>
      <trkpt lat="42.926306" lon="-8.193532">
        <ele>388.007</ele>
        <time>2013-05-20T07:53:46Z</time>
      </trkpt>
      <trkpt lat="42.926322" lon="-8.193666">
        <ele>391.097</ele>
        <time>2013-05-20T07:53:56Z</time>
      </trkpt>
      <trkpt lat="42.926327" lon="-8.193799">
        <ele>392.038</ele>
        <time>2013-05-20T07:54:06Z</time>
      </trkpt>
      <trkpt lat="42.926343" lon="-8.193921">
        <ele>389.074</ele>
        <time>2013-05-20T07:54:12Z</time>
      </trkpt>
      <trkpt lat="42.926380" lon="-8.194046">
        <ele>387.040</ele>
        <time>2013-05-20T07:54:19Z</time>
      </trkpt>
      <trkpt lat="42.926431" lon="-8.194149">
        <ele>388.023</ele>
        <time>2013-05-20T07:54:26Z</time>
      </trkpt>
      <trkpt lat="42.926460" lon="-8.194280">
        <ele>387.052</ele>
        <time>2013-05-20T07:54:35Z</time>
      </trkpt>
      <trkpt lat="42.926512" lon="-8.194400">
        <ele>386.061</ele>
        <time>2013-05-20T07:54:42Z</time>
      </trkpt>
      <trkpt lat="42.926490" lon="-8.194526">
        <ele>382.029</ele>
        <time>2013-05-20T07:54:51Z</time>
      </trkpt>
      <trkpt lat="42.926487" lon="-8.194637">
        <ele>384.000</ele>
        <time>2013-05-20T07:55:01Z</time>
      </trkpt>
      <trkpt lat="42.926506" lon="-8.194773">
        <ele>384.020</ele>
        <time>2013-05-20T07:55:08Z</time>
      </trkpt>
      <trkpt lat="42.926538" lon="-8.194894">
        <ele>383.007</ele>
        <time>2013-05-20T07:55:15Z</time>
      </trkpt>
      <trkpt lat="42.926599" lon="-8.195002">
        <ele>387.076</ele>
        <time>2013-05-20T07:55:22Z</time>
      </trkpt>
      <trkpt lat="42.926639" lon="-8.195126">
        <ele>390.077</ele>
        <time>2013-05-20T07:55:29Z</time>
      </trkpt>
      <trkpt lat="42.926632" lon="-8.195277">
        <ele>392.013</ele>
        <time>2013-05-20T07:55:38Z</time>
      </trkpt>
      <trkpt lat="42.926600" lon="-8.195397">
        <ele>396.059</ele>
        <time>2013-05-20T07:55:44Z</time>
      </trkpt>
      <trkpt lat="42.926604" lon="-8.195476">
        <ele>396.072</ele>
        <time>2013-05-20T07:56:01Z</time>
      </trkpt>
      <trkpt lat="42.926590" lon="-8.195608">
        <ele>396.011</ele>
        <time>2013-05-20T07:56:07Z</time>
      </trkpt>
      <trkpt lat="42.926579" lon="-8.195741">
        <ele>396.020</ele>
        <time>2013-05-20T07:56:13Z</time>
      </trkpt>
      <trkpt lat="42.926583" lon="-8.195868">
        <ele>396.035</ele>
        <time>2013-05-20T07:56:20Z</time>
      </trkpt>
      <trkpt lat="42.926567" lon="-8.195990">
        <ele>397.086</ele>
        <time>2013-05-20T07:56:26Z</time>
      </trkpt>
      <trkpt lat="42.926499" lon="-8.196086">
        <ele>397.014</ele>
        <time>2013-05-20T07:56:36Z</time>
      </trkpt>
      <trkpt lat="42.926433" lon="-8.196196">
        <ele>395.007</ele>
        <time>2013-05-20T07:56:44Z</time>
      </trkpt>
      <trkpt lat="42.926376" lon="-8.196292">
        <ele>395.047</ele>
        <time>2013-05-20T07:56:54Z</time>
      </trkpt>
      <trkpt lat="42.926302" lon="-8.196378">
        <ele>395.098</ele>
        <time>2013-05-20T07:57:01Z</time>
      </trkpt>
      <trkpt lat="42.926264" lon="-8.196446">
        <ele>394.064</ele>
        <time>2013-05-20T07:57:11Z</time>
      </trkpt>
      <trkpt lat="42.926259" lon="-8.196527">
        <ele>395.040</ele>
        <time>2013-05-20T07:57:21Z</time>
      </trkpt>
      <trkpt lat="42.926227" lon="-8.196655">
        <ele>392.083</ele>
        <time>2013-05-20T07:57:30Z</time>
      </trkpt>
      <trkpt lat="42.926195" lon="-8.196758">
        <ele>391.062</ele>
        <time>2013-05-20T07:57:40Z</time>
      </trkpt>
      <trkpt lat="42.926129" lon="-8.196851">
        <ele>391.051</ele>
        <time>2013-05-20T07:57:44Z</time>
      </trkpt>
      <trkpt lat="42.926080" lon="-8.196976">
        <ele>391.067</ele>
        <time>2013-05-20T07:57:49Z</time>
      </trkpt>
      <trkpt lat="42.926017" lon="-8.197066">
        <ele>389.081</ele>
        <time>2013-05-20T07:57:53Z</time>
      </trkpt>
      <trkpt lat="42.925993" lon="-8.197165">
        <ele>387.019</ele>
        <time>2013-05-20T07:58:03Z</time>
      </trkpt>
      <trkpt lat="42.925963" lon="-8.197302">
        <ele>386.007</ele>
        <time>2013-05-20T07:58:08Z</time>
      </trkpt>
      <trkpt lat="42.925916" lon="-8.197443">
        <ele>386.010</ele>
        <time>2013-05-20T07:58:12Z</time>
      </trkpt>
      <trkpt lat="42.925859" lon="-8.197577">
        <ele>386.051</ele>
        <time>2013-05-20T07:58:16Z</time>
      </trkpt>
      <trkpt lat="42.925810" lon="-8.197681">
        <ele>386.037</ele>
        <time>2013-05-20T07:58:22Z</time>
      </trkpt>
      <trkpt lat="42.925862" lon="-8.197799">
        <ele>388.043</ele>
        <time>2013-05-20T07:58:30Z</time>
      </trkpt>
      <trkpt lat="42.925899" lon="-8.197924">
        <ele>388.086</ele>
        <time>2013-05-20T07:58:35Z</time>
      </trkpt>
      <trkpt lat="42.926002" lon="-8.197983">
        <ele>386.055</ele>
        <time>2013-05-20T07:58:39Z</time>
      </trkpt>
      <trkpt lat="42.926094" lon="-8.198002">
        <ele>386.014</ele>
        <time>2013-05-20T07:58:45Z</time>
      </trkpt>
      <trkpt lat="42.926087" lon="-8.198073">
        <ele>386.015</ele>
        <time>2013-05-20T07:58:55Z</time>
      </trkpt>
      <trkpt lat="42.926131" lon="-8.198170">
        <ele>384.065</ele>
        <time>2013-05-20T07:59:05Z</time>
      </trkpt>
      <trkpt lat="42.926205" lon="-8.198249">
        <ele>386.011</ele>
        <time>2013-05-20T07:59:15Z</time>
      </trkpt>
      <trkpt lat="42.926288" lon="-8.198318">
        <ele>386.007</ele>
        <time>2013-05-20T07:59:21Z</time>
      </trkpt>
      <trkpt lat="42.926364" lon="-8.198394">
        <ele>385.045</ele>
        <time>2013-05-20T07:59:27Z</time>
      </trkpt>
      <trkpt lat="42.926428" lon="-8.198481">
        <ele>385.086</ele>
        <time>2013-05-20T07:59:34Z</time>
      </trkpt>
      <trkpt lat="42.926496" lon="-8.198535">
        <ele>378.012</ele>
        <time>2013-05-20T07:59:44Z</time>
      </trkpt>
      <trkpt lat="42.926460" lon="-8.198585">
        <ele>374.068</ele>
        <time>2013-05-20T07:59:54Z</time>
      </trkpt>
      <trkpt lat="42.926486" lon="-8.198676">
        <ele>377.061</ele>
        <time>2013-05-20T08:00:04Z</time>
      </trkpt>
      <trkpt lat="42.926566" lon="-8.198765">
        <ele>377.080</ele>
        <time>2013-05-20T08:00:10Z</time>
      </trkpt>
      <trkpt lat="42.926626" lon="-8.198878">
        <ele>379.039</ele>
        <time>2013-05-20T08:00:18Z</time>
      </trkpt>
      <trkpt lat="42.926688" lon="-8.198981">
        <ele>381.087</ele>
        <time>2013-05-20T08:00:25Z</time>
      </trkpt>
      <trkpt lat="42.926760" lon="-8.199056">
        <ele>381.042</ele>
        <time>2013-05-20T08:00:30Z</time>
      </trkpt>
      <trkpt lat="42.926838" lon="-8.199119">
        <ele>379.026</ele>
        <time>2013-05-20T08:00:34Z</time>
      </trkpt>
      <trkpt lat="42.926917" lon="-8.199204">
        <ele>378.007</ele>
        <time>2013-05-20T08:00:39Z</time>
      </trkpt>
      <trkpt lat="42.927007" lon="-8.199278">
        <ele>378.012</ele>
        <time>2013-05-20T08:00:44Z</time>
      </trkpt>
      <trkpt lat="42.927081" lon="-8.199370">
        <ele>377.033</ele>
        <time>2013-05-20T08:00:51Z</time>
      </trkpt>
      <trkpt lat="42.927184" lon="-8.199405">
        <ele>375.079</ele>
        <time>2013-05-20T08:00:58Z</time>
      </trkpt>
      <trkpt lat="42.927234" lon="-8.199509">
        <ele>375.055</ele>
        <time>2013-05-20T08:01:05Z</time>
      </trkpt>
      <trkpt lat="42.927283" lon="-8.199630">
        <ele>374.068</ele>
        <time>2013-05-20T08:01:15Z</time>
      </trkpt>
      <trkpt lat="42.927307" lon="-8.199758">
        <ele>372.017</ele>
        <time>2013-05-20T08:01:24Z</time>
      </trkpt>
      <trkpt lat="42.927338" lon="-8.199889">
        <ele>370.066</ele>
        <time>2013-05-20T08:01:30Z</time>
      </trkpt>
      <trkpt lat="42.927347" lon="-8.200021">
        <ele>368.015</ele>
        <time>2013-05-20T08:01:35Z</time>
      </trkpt>
      <trkpt lat="42.927374" lon="-8.200151">
        <ele>366.065</ele>
        <time>2013-05-20T08:01:41Z</time>
      </trkpt>
      <trkpt lat="42.927397" lon="-8.200285">
        <ele>364.011</ele>
        <time>2013-05-20T08:01:49Z</time>
      </trkpt>
      <trkpt lat="42.927402" lon="-8.200413">
        <ele>362.007</ele>
        <time>2013-05-20T08:01:57Z</time>
      </trkpt>
      <trkpt lat="42.927456" lon="-8.200531">
        <ele>362.035</ele>
        <time>2013-05-20T08:02:04Z</time>
      </trkpt>
      <trkpt lat="42.927525" lon="-8.200612">
        <ele>362.046</ele>
        <time>2013-05-20T08:02:10Z</time>
      </trkpt>
      <trkpt lat="42.927536" lon="-8.200740">
        <ele>360.032</ele>
        <time>2013-05-20T08:02:20Z</time>
      </trkpt>
      <trkpt lat="42.927555" lon="-8.200850">
        <ele>360.088</ele>
        <time>2013-05-20T08:02:30Z</time>
      </trkpt>
      <trkpt lat="42.927640" lon="-8.200922">
        <ele>360.041</ele>
        <time>2013-05-20T08:02:39Z</time>
      </trkpt>
      <trkpt lat="42.927636" lon="-8.201006">
        <ele>360.050</ele>
        <time>2013-05-20T08:02:49Z</time>
      </trkpt>
      <trkpt lat="42.927616" lon="-8.201136">
        <ele>359.029</ele>
        <time>2013-05-20T08:02:56Z</time>
      </trkpt>
      <trkpt lat="42.927606" lon="-8.201264">
        <ele>359.015</ele>
        <time>2013-05-20T08:03:01Z</time>
      </trkpt>
      <trkpt lat="42.927572" lon="-8.201385">
        <ele>358.065</ele>
        <time>2013-05-20T08:03:08Z</time>
      </trkpt>
      <trkpt lat="42.927570" lon="-8.201518">
        <ele>357.011</ele>
        <time>2013-05-20T08:03:15Z</time>
      </trkpt>
      <trkpt lat="42.927600" lon="-8.201629">
        <ele>357.007</ele>
        <time>2013-05-20T08:03:25Z</time>
      </trkpt>
      <trkpt lat="42.927648" lon="-8.201741">
        <ele>357.055</ele>
        <time>2013-05-20T08:03:33Z</time>
      </trkpt>
      <trkpt lat="42.927696" lon="-8.201853">
        <ele>357.076</ele>
        <time>2013-05-20T08:03:38Z</time>
      </trkpt>
      <trkpt lat="42.927691" lon="-8.201985">
        <ele>356.092</ele>
        <time>2013-05-20T08:03:46Z</time>
      </trkpt>
      <trkpt lat="42.927690" lon="-8.202088">
        <ele>356.058</ele>
        <time>2013-05-20T08:03:56Z</time>
      </trkpt>
      <trkpt lat="42.927742" lon="-8.202207">
        <ele>358.081</ele>
        <time>2013-05-20T08:04:04Z</time>
      </trkpt>
      <trkpt lat="42.927807" lon="-8.202305">
        <ele>360.030</ele>
        <time>2013-05-20T08:04:12Z</time>
      </trkpt>
      <trkpt lat="42.927793" lon="-8.202435">
        <ele>363.079</ele>
        <time>2013-05-20T08:04:21Z</time>
      </trkpt>
      <trkpt lat="42.927781" lon="-8.202565">
        <ele>363.078</ele>
        <time>2013-05-20T08:04:31Z</time>
      </trkpt>
      <trkpt lat="42.927789" lon="-8.202641">
        <ele>360.033</ele>
        <time>2013-05-20T08:04:43Z</time>
      </trkpt>
      <trkpt lat="42.927777" lon="-8.202736">
        <ele>362.026</ele>
        <time>2013-05-20T08:04:53Z</time>
      </trkpt>
      <trkpt lat="42.927738" lon="-8.202878">
        <ele>364.007</ele>
        <time>2013-05-20T08:04:57Z</time>
      </trkpt>
      <trkpt lat="42.927715" lon="-8.203028">
        <ele>366.031</ele>
        <time>2013-05-20T08:05:02Z</time>
      </trkpt>
      <trkpt lat="42.927701" lon="-8.203150">
        <ele>367.042</ele>
        <time>2013-05-20T08:05:07Z</time>
      </trkpt>
      <trkpt lat="42.927699" lon="-8.203283">
        <ele>367.038</ele>
        <time>2013-05-20T08:05:16Z</time>
      </trkpt>
      <trkpt lat="42.927662" lon="-8.203395">
        <ele>368.054</ele>
        <time>2013-05-20T08:05:23Z</time>
      </trkpt>
      <trkpt lat="42.927642" lon="-8.203457">
        <ele>370.037</ele>
        <time>2013-05-20T08:05:33Z</time>
      </trkpt>
      <trkpt lat="42.927600" lon="-8.203586">
        <ele>371.086</ele>
        <time>2013-05-20T08:05:42Z</time>
      </trkpt>
      <trkpt lat="42.927560" lon="-8.203725">
        <ele>372.065</ele>
        <time>2013-05-20T08:05:50Z</time>
      </trkpt>
      <trkpt lat="42.927501" lon="-8.203826">
        <ele>375.091</ele>
        <time>2013-05-20T08:05:55Z</time>
      </trkpt>
      <trkpt lat="42.927478" lon="-8.203947">
        <ele>377.081</ele>
        <time>2013-05-20T08:06:02Z</time>
      </trkpt>
      <trkpt lat="42.927438" lon="-8.204071">
        <ele>379.019</ele>
        <time>2013-05-20T08:06:07Z</time>
      </trkpt>
      <trkpt lat="42.927418" lon="-8.204209">
        <ele>379.007</ele>
        <time>2013-05-20T08:06:12Z</time>
      </trkpt>
      <trkpt lat="42.927392" lon="-8.204339">
        <ele>379.033</ele>
        <time>2013-05-20T08:06:22Z</time>
      </trkpt>
      <trkpt lat="42.927356" lon="-8.204455">
        <ele>380.094</ele>
        <time>2013-05-20T08:06:32Z</time>
      </trkpt>
      <trkpt lat="42.927325" lon="-8.204535">
        <ele>380.030</ele>
        <time>2013-05-20T08:06:42Z</time>
      </trkpt>
      <trkpt lat="42.927340" lon="-8.204661">
        <ele>382.056</ele>
        <time>2013-05-20T08:06:49Z</time>
      </trkpt>
      <trkpt lat="42.927343" lon="-8.204788">
        <ele>384.099</ele>
        <time>2013-05-20T08:06:54Z</time>
      </trkpt>
      <trkpt lat="42.927328" lon="-8.204919">
        <ele>383.058</ele>
        <time>2013-05-20T08:07:00Z</time>
      </trkpt>
      <trkpt lat="42.927348" lon="-8.205053">
        <ele>381.027</ele>
        <time>2013-05-20T08:07:07Z</time>
      </trkpt>
      <trkpt lat="42.927351" lon="-8.205190">
        <ele>384.063</ele>
        <time>2013-05-20T08:07:13Z</time>
      </trkpt>
      <trkpt lat="42.927336" lon="-8.205263">
        <ele>381.044</ele>
        <time>2013-05-20T08:07:25Z</time>
      </trkpt>
      <trkpt lat="42.927324" lon="-8.205372">
        <ele>382.018</ele>
        <time>2013-05-20T08:07:35Z</time>
      </trkpt>
      <trkpt lat="42.927339" lon="-8.205507">
        <ele>383.007</ele>
        <time>2013-05-20T08:07:44Z</time>
      </trkpt>
      <trkpt lat="42.927308" lon="-8.205628">
        <ele>383.050</ele>
        <time>2013-05-20T08:07:49Z</time>
      </trkpt>
      <trkpt lat="42.927295" lon="-8.205770">
        <ele>384.071</ele>
        <time>2013-05-20T08:07:55Z</time>
      </trkpt>
      <trkpt lat="42.927313" lon="-8.205901">
        <ele>388.037</ele>
        <time>2013-05-20T08:08:03Z</time>
      </trkpt>
      <trkpt lat="42.927403" lon="-8.205955">
        <ele>389.013</ele>
        <time>2013-05-20T08:08:08Z</time>
      </trkpt>
      <trkpt lat="42.927457" lon="-8.206053">
        <ele>391.076</ele>
        <time>2013-05-20T08:08:18Z</time>
      </trkpt>
      <trkpt lat="42.927497" lon="-8.206168">
        <ele>392.015</ele>
        <time>2013-05-20T08:08:26Z</time>
      </trkpt>
      <trkpt lat="42.927511" lon="-8.206296">
        <ele>392.074</ele>
        <time>2013-05-20T08:08:34Z</time>
      </trkpt>
      <trkpt lat="42.927504" lon="-8.206436">
        <ele>393.091</ele>
        <time>2013-05-20T08:08:41Z</time>
      </trkpt>
      <trkpt lat="42.927491" lon="-8.206571">
        <ele>392.081</ele>
        <time>2013-05-20T08:08:48Z</time>
      </trkpt>
      <trkpt lat="42.927526" lon="-8.206697">
        <ele>394.019</ele>
        <time>2013-05-20T08:08:56Z</time>
      </trkpt>
      <trkpt lat="42.927520" lon="-8.206840">
        <ele>394.007</ele>
        <time>2013-05-20T08:09:02Z</time>
      </trkpt>
      <trkpt lat="42.927512" lon="-8.206970">
        <ele>395.053</ele>
        <time>2013-05-20T08:09:09Z</time>
      </trkpt>
      <trkpt lat="42.927520" lon="-8.207110">
        <ele>395.034</ele>
        <time>2013-05-20T08:09:17Z</time>
      </trkpt>
      <trkpt lat="42.927509" lon="-8.207233">
        <ele>395.010</ele>
        <time>2013-05-20T08:09:23Z</time>
      </trkpt>
      <trkpt lat="42.927478" lon="-8.207355">
        <ele>395.076</ele>
        <time>2013-05-20T08:09:29Z</time>
      </trkpt>
      <trkpt lat="42.927468" lon="-8.207491">
        <ele>395.019</ele>
        <time>2013-05-20T08:09:36Z</time>
      </trkpt>
      <trkpt lat="42.927484" lon="-8.207621">
        <ele>394.048</ele>
        <time>2013-05-20T08:09:46Z</time>
      </trkpt>
      <trkpt lat="42.927502" lon="-8.207734">
        <ele>396.027</ele>
        <time>2013-05-20T08:09:56Z</time>
      </trkpt>
      <trkpt lat="42.927442" lon="-8.207827">
        <ele>397.055</ele>
        <time>2013-05-20T08:10:01Z</time>
      </trkpt>
      <trkpt lat="42.927443" lon="-8.207954">
        <ele>396.007</ele>
        <time>2013-05-20T08:10:07Z</time>
      </trkpt>
      <trkpt lat="42.927481" lon="-8.208063">
        <ele>397.017</ele>
        <time>2013-05-20T08:10:17Z</time>
      </trkpt>
      <trkpt lat="42.927578" lon="-8.208109">
        <ele>401.007</ele>
        <time>2013-05-20T08:10:22Z</time>
      </trkpt>
      <trkpt lat="42.927663" lon="-8.208179">
        <ele>402.069</ele>
        <time>2013-05-20T08:10:28Z</time>
      </trkpt>
      <trkpt lat="42.927717" lon="-8.208288">
        <ele>401.030</ele>
        <time>2013-05-20T08:10:33Z</time>
      </trkpt>
      <trkpt lat="42.927768" lon="-8.208399">
        <ele>408.026</ele>
        <time>2013-05-20T08:10:37Z</time>
      </trkpt>
      <trkpt lat="42.927818" lon="-8.208520">
        <ele>405.062</ele>
        <time>2013-05-20T08:10:44Z</time>
      </trkpt>
      <trkpt lat="42.927878" lon="-8.208627">
        <ele>405.085</ele>
        <time>2013-05-20T08:10:50Z</time>
      </trkpt>
      <trkpt lat="42.927916" lon="-8.208746">
        <ele>407.084</ele>
        <time>2013-05-20T08:10:58Z</time>
      </trkpt>
      <trkpt lat="42.927945" lon="-8.208873">
        <ele>410.063</ele>
        <time>2013-05-20T08:11:06Z</time>
      </trkpt>
      <trkpt lat="42.927973" lon="-8.208924">
        <ele>408.088</ele>
        <time>2013-05-20T08:11:21Z</time>
      </trkpt>
      <trkpt lat="42.928030" lon="-8.209035">
        <ele>408.024</ele>
        <time>2013-05-20T08:11:24Z</time>
      </trkpt>
      <trkpt lat="42.928084" lon="-8.209137">
        <ele>407.026</ele>
        <time>2013-05-20T08:11:29Z</time>
      </trkpt>
      <trkpt lat="42.928129" lon="-8.209236">
        <ele>406.007</ele>
        <time>2013-05-20T08:11:39Z</time>
      </trkpt>
      <trkpt lat="42.928095" lon="-8.209362">
        <ele>406.072</ele>
        <time>2013-05-20T08:11:46Z</time>
      </trkpt>
      <trkpt lat="42.928118" lon="-8.209494">
        <ele>406.043</ele>
        <time>2013-05-20T08:11:54Z</time>
      </trkpt>
      <trkpt lat="42.928168" lon="-8.209598">
        <ele>406.079</ele>
        <time>2013-05-20T08:12:01Z</time>
      </trkpt>
      <trkpt lat="42.928232" lon="-8.209710">
        <ele>406.095</ele>
        <time>2013-05-20T08:12:07Z</time>
      </trkpt>
      <trkpt lat="42.928296" lon="-8.209824">
        <ele>406.098</ele>
        <time>2013-05-20T08:12:13Z</time>
      </trkpt>
      <trkpt lat="42.928373" lon="-8.209902">
        <ele>408.067</ele>
        <time>2013-05-20T08:12:17Z</time>
      </trkpt>
      <trkpt lat="42.928404" lon="-8.210030">
        <ele>409.086</ele>
        <time>2013-05-20T08:12:27Z</time>
      </trkpt>
      <trkpt lat="42.928437" lon="-8.210171">
        <ele>410.076</ele>
        <time>2013-05-20T08:12:36Z</time>
      </trkpt>
      <trkpt lat="42.928498" lon="-8.210274">
        <ele>409.090</ele>
        <time>2013-05-20T08:12:42Z</time>
      </trkpt>
      <trkpt lat="42.928487" lon="-8.210413">
        <ele>409.019</ele>
        <time>2013-05-20T08:12:49Z</time>
      </trkpt>
      <trkpt lat="42.928494" lon="-8.210545">
        <ele>409.007</ele>
        <time>2013-05-20T08:12:55Z</time>
      </trkpt>
      <trkpt lat="42.928537" lon="-8.210669">
        <ele>407.021</ele>
        <time>2013-05-20T08:13:03Z</time>
      </trkpt>
      <trkpt lat="42.928562" lon="-8.210784">
        <ele>408.042</ele>
        <time>2013-05-20T08:13:13Z</time>
      </trkpt>
      <trkpt lat="42.928579" lon="-8.210918">
        <ele>408.068</ele>
        <time>2013-05-20T08:13:22Z</time>
      </trkpt>
      <trkpt lat="42.928580" lon="-8.211043">
        <ele>408.094</ele>
        <time>2013-05-20T08:13:30Z</time>
      </trkpt>
      <trkpt lat="42.928531" lon="-8.211152">
        <ele>409.057</ele>
        <time>2013-05-20T08:13:36Z</time>
      </trkpt>
      <trkpt lat="42.928526" lon="-8.211298">
        <ele>407.016</ele>
        <time>2013-05-20T08:13:42Z</time>
      </trkpt>
      <trkpt lat="42.928574" lon="-8.211416">
        <ele>408.025</ele>
        <time>2013-05-20T08:13:50Z</time>
      </trkpt>
      <trkpt lat="42.928620" lon="-8.211535">
        <ele>407.094</ele>
        <time>2013-05-20T08:13:58Z</time>
      </trkpt>
      <trkpt lat="42.928638" lon="-8.211664">
        <ele>407.057</ele>
        <time>2013-05-20T08:14:05Z</time>
      </trkpt>
      <trkpt lat="42.928655" lon="-8.211787">
        <ele>406.022</ele>
        <time>2013-05-20T08:14:10Z</time>
      </trkpt>
      <trkpt lat="42.928677" lon="-8.211916">
        <ele>406.007</ele>
        <time>2013-05-20T08:14:18Z</time>
      </trkpt>
      <trkpt lat="42.928689" lon="-8.212037">
        <ele>407.033</ele>
        <time>2013-05-20T08:14:28Z</time>
      </trkpt>
      <trkpt lat="42.928669" lon="-8.212165">
        <ele>408.084</ele>
        <time>2013-05-20T08:14:36Z</time>
      </trkpt>
      <trkpt lat="42.928677" lon="-8.212288">
        <ele>409.060</ele>
        <time>2013-05-20T08:14:41Z</time>
      </trkpt>
      <trkpt lat="42.928687" lon="-8.212381">
        <ele>411.056</ele>
        <time>2013-05-20T08:14:51Z</time>
      </trkpt>
      <trkpt lat="42.928712" lon="-8.212518">
        <ele>410.039</ele>
        <time>2013-05-20T08:14:57Z</time>
      </trkpt>
      <trkpt lat="42.928746" lon="-8.212656">
        <ele>410.058</ele>
        <time>2013-05-20T08:15:03Z</time>
      </trkpt>
      <trkpt lat="42.928738" lon="-8.212797">
        <ele>409.067</ele>
        <time>2013-05-20T08:15:11Z</time>
      </trkpt>
      <trkpt lat="42.928729" lon="-8.212931">
        <ele>409.061</ele>
        <time>2013-05-20T08:15:17Z</time>
      </trkpt>
      <trkpt lat="42.928752" lon="-8.213070">
        <ele>409.021</ele>
        <time>2013-05-20T08:15:23Z</time>
      </trkpt>
      <trkpt lat="42.928743" lon="-8.213197">
        <ele>411.013</ele>
        <time>2013-05-20T08:15:31Z</time>
      </trkpt>
      <trkpt lat="42.928744" lon="-8.213321">
        <ele>413.007</ele>
        <time>2013-05-20T08:15:38Z</time>
      </trkpt>
      <trkpt lat="42.928808" lon="-8.213359">
        <ele>408.090</ele>
        <time>2013-05-20T08:15:48Z</time>
      </trkpt>
      <trkpt lat="42.928821" lon="-8.213502">
        <ele>407.041</ele>
        <time>2013-05-20T08:15:54Z</time>
      </trkpt>
      <trkpt lat="42.928850" lon="-8.213622">
        <ele>406.017</ele>
        <time>2013-05-20T08:15:59Z</time>
      </trkpt>
      <trkpt lat="42.928860" lon="-8.213761">
        <ele>406.063</ele>
        <time>2013-05-20T08:16:06Z</time>
      </trkpt>
      <trkpt lat="42.928817" lon="-8.213895">
        <ele>409.056</ele>
        <time>2013-05-20T08:16:11Z</time>
      </trkpt>
      <trkpt lat="42.928787" lon="-8.214015">
        <ele>404.095</ele>
        <time>2013-05-20T08:16:17Z</time>
      </trkpt>
      <trkpt lat="42.928758" lon="-8.214153">
        <ele>409.014</ele>
        <time>2013-05-20T08:16:23Z</time>
      </trkpt>
      <trkpt lat="42.928739" lon="-8.214250">
        <ele>410.067</ele>
        <time>2013-05-20T08:16:33Z</time>
      </trkpt>
      <trkpt lat="42.928697" lon="-8.214295">
        <ele>410.081</ele>
        <time>2013-05-20T08:16:57Z</time>
      </trkpt>
      <trkpt lat="42.928617" lon="-8.214400">
        <ele>411.019</ele>
        <time>2013-05-20T08:17:01Z</time>
      </trkpt>
      <trkpt lat="42.928569" lon="-8.214508">
        <ele>412.007</ele>
        <time>2013-05-20T08:17:05Z</time>
      </trkpt>
      <trkpt lat="42.928502" lon="-8.214634">
        <ele>412.050</ele>
        <time>2013-05-20T08:17:09Z</time>
      </trkpt>
      <trkpt lat="42.928420" lon="-8.214743">
        <ele>410.081</ele>
        <time>2013-05-20T08:17:12Z</time>
      </trkpt>
      <trkpt lat="42.928363" lon="-8.214854">
        <ele>409.027</ele>
        <time>2013-05-20T08:17:17Z</time>
      </trkpt>
      <trkpt lat="42.928325" lon="-8.214977">
        <ele>407.033</ele>
        <time>2013-05-20T08:17:24Z</time>
      </trkpt>
      <trkpt lat="42.928279" lon="-8.215092">
        <ele>405.016</ele>
        <time>2013-05-20T08:17:32Z</time>
      </trkpt>
      <trkpt lat="42.928248" lon="-8.215185">
        <ele>406.025</ele>
        <time>2013-05-20T08:17:42Z</time>
      </trkpt>
      <trkpt lat="42.928192" lon="-8.215301">
        <ele>406.094</ele>
        <time>2013-05-20T08:17:50Z</time>
      </trkpt>
      <trkpt lat="42.928145" lon="-8.215439">
        <ele>406.056</ele>
        <time>2013-05-20T08:17:54Z</time>
      </trkpt>
      <trkpt lat="42.928100" lon="-8.215546">
        <ele>405.059</ele>
        <time>2013-05-20T08:17:59Z</time>
      </trkpt>
      <trkpt lat="42.928059" lon="-8.215654">
        <ele>406.014</ele>
        <time>2013-05-20T08:18:09Z</time>
      </trkpt>
      <trkpt lat="42.928046" lon="-8.215806">
        <ele>407.007</ele>
        <time>2013-05-20T08:18:15Z</time>
      </trkpt>
      <trkpt lat="42.928047" lon="-8.215934">
        <ele>406.029</ele>
        <time>2013-05-20T08:18:23Z</time>
      </trkpt>
      <trkpt lat="42.928033" lon="-8.216066">
        <ele>406.060</ele>
        <time>2013-05-20T08:18:30Z</time>
      </trkpt>
      <trkpt lat="42.928005" lon="-8.216187">
        <ele>401.026</ele>
        <time>2013-05-20T08:18:37Z</time>
      </trkpt>
      <trkpt lat="42.927991" lon="-8.216324">
        <ele>401.032</ele>
        <time>2013-05-20T08:18:45Z</time>
      </trkpt>
      <trkpt lat="42.927968" lon="-8.216456">
        <ele>401.095</ele>
        <time>2013-05-20T08:18:53Z</time>
      </trkpt>
      <trkpt lat="42.927933" lon="-8.216577">
        <ele>403.044</ele>
        <time>2013-05-20T08:19:01Z</time>
      </trkpt>
      <trkpt lat="42.927872" lon="-8.216689">
        <ele>404.013</ele>
        <time>2013-05-20T08:19:05Z</time>
      </trkpt>
      <trkpt lat="42.927801" lon="-8.216777">
        <ele>405.017</ele>
        <time>2013-05-20T08:19:10Z</time>
      </trkpt>
      <trkpt lat="42.927758" lon="-8.216890">
        <ele>405.087</ele>
        <time>2013-05-20T08:19:18Z</time>
      </trkpt>
      <trkpt lat="42.927763" lon="-8.217011">
        <ele>403.015</ele>
        <time>2013-05-20T08:19:28Z</time>
      </trkpt>
      <trkpt lat="42.927716" lon="-8.217139">
        <ele>394.007</ele>
        <time>2013-05-20T08:19:37Z</time>
      </trkpt>
      <trkpt lat="42.927651" lon="-8.217237">
        <ele>396.015</ele>
        <time>2013-05-20T08:19:45Z</time>
      </trkpt>
      <trkpt lat="42.927581" lon="-8.217334">
        <ele>398.096</ele>
        <time>2013-05-20T08:19:52Z</time>
      </trkpt>
      <trkpt lat="42.927515" lon="-8.217425">
        <ele>396.042</ele>
        <time>2013-05-20T08:19:59Z</time>
      </trkpt>
      <trkpt lat="42.927444" lon="-8.217532">
        <ele>397.028</ele>
        <time>2013-05-20T08:20:06Z</time>
      </trkpt>
      <trkpt lat="42.927386" lon="-8.217626">
        <ele>396.051</ele>
        <time>2013-05-20T08:20:12Z</time>
      </trkpt>
      <trkpt lat="42.927296" lon="-8.217710">
        <ele>397.040</ele>
        <time>2013-05-20T08:20:18Z</time>
      </trkpt>
      <trkpt lat="42.927235" lon="-8.217808">
        <ele>396.059</ele>
        <time>2013-05-20T08:20:28Z</time>
      </trkpt>
      <trkpt lat="42.927175" lon="-8.217899">
        <ele>396.094</ele>
        <time>2013-05-20T08:20:38Z</time>
      </trkpt>
      <trkpt lat="42.927120" lon="-8.217999">
        <ele>397.057</ele>
        <time>2013-05-20T08:20:44Z</time>
      </trkpt>
      <trkpt lat="42.927025" lon="-8.218061">
        <ele>396.022</ele>
        <time>2013-05-20T08:20:53Z</time>
      </trkpt>
      <trkpt lat="42.926989" lon="-8.218156">
        <ele>396.007</ele>
        <time>2013-05-20T08:21:03Z</time>
      </trkpt>
      <trkpt lat="42.926926" lon="-8.218256">
        <ele>395.063</ele>
        <time>2013-05-20T08:21:08Z</time>
      </trkpt>
      <trkpt lat="42.926889" lon="-8.218367">
        <ele>394.074</ele>
        <time>2013-05-20T08:21:18Z</time>
      </trkpt>
      <trkpt lat="42.926884" lon="-8.218441">
        <ele>393.010</ele>
        <time>2013-05-20T08:21:28Z</time>
      </trkpt>
      <trkpt lat="42.926807" lon="-8.218543">
        <ele>393.036</ele>
        <time>2013-05-20T08:21:32Z</time>
      </trkpt>
      <trkpt lat="42.926773" lon="-8.218681">
        <ele>394.039</ele>
        <time>2013-05-20T08:21:37Z</time>
      </trkpt>
      <trkpt lat="42.926752" lon="-8.218820">
        <ele>394.078</ele>
        <time>2013-05-20T08:21:44Z</time>
      </trkpt>
      <trkpt lat="42.926722" lon="-8.218947">
        <ele>396.047</ele>
        <time>2013-05-20T08:21:49Z</time>
      </trkpt>
      <trkpt lat="42.926666" lon="-8.219046">
        <ele>395.019</ele>
        <time>2013-05-20T08:21:54Z</time>
      </trkpt>
      <trkpt lat="42.926637" lon="-8.219179">
        <ele>394.009</ele>
        <time>2013-05-20T08:22:00Z</time>
      </trkpt>
      <trkpt lat="42.926632" lon="-8.219310">
        <ele>397.019</ele>
        <time>2013-05-20T08:22:10Z</time>
      </trkpt>
      <trkpt lat="42.926623" lon="-8.219445">
        <ele>397.007</ele>
        <time>2013-05-20T08:22:18Z</time>
      </trkpt>
      <trkpt lat="42.926582" lon="-8.219570">
        <ele>396.075</ele>
        <time>2013-05-20T08:22:24Z</time>
      </trkpt>
      <trkpt lat="42.926538" lon="-8.219695">
        <ele>396.086</ele>
        <time>2013-05-20T08:22:31Z</time>
      </trkpt>
      <trkpt lat="42.926500" lon="-8.219824">
        <ele>398.072</ele>
        <time>2013-05-20T08:22:41Z</time>
      </trkpt>
      <trkpt lat="42.926466" lon="-8.219947">
        <ele>398.038</ele>
        <time>2013-05-20T08:22:49Z</time>
      </trkpt>
      <trkpt lat="42.926445" lon="-8.220067">
        <ele>400.071</ele>
        <time>2013-05-20T08:22:55Z</time>
      </trkpt>
      <trkpt lat="42.926416" lon="-8.220184">
        <ele>400.070</ele>
        <time>2013-05-20T08:23:05Z</time>
      </trkpt>
      <trkpt lat="42.926406" lon="-8.220292">
        <ele>400.059</ele>
        <time>2013-05-20T08:23:15Z</time>
      </trkpt>
      <trkpt lat="42.926381" lon="-8.220423">
        <ele>399.056</ele>
        <time>2013-05-20T08:23:20Z</time>
      </trkpt>
      <trkpt lat="42.926345" lon="-8.220549">
        <ele>398.059</ele>
        <time>2013-05-20T08:23:25Z</time>
      </trkpt>
      <trkpt lat="42.926296" lon="-8.220660">
        <ele>398.014</ele>
        <time>2013-05-20T08:23:29Z</time>
      </trkpt>
      <trkpt lat="42.926247" lon="-8.220775">
        <ele>397.007</ele>
        <time>2013-05-20T08:23:34Z</time>
      </trkpt>
      <trkpt lat="42.926217" lon="-8.220888">
        <ele>398.099</ele>
        <time>2013-05-20T08:23:44Z</time>
      </trkpt>
      <trkpt lat="42.926186" lon="-8.221004">
        <ele>397.070</ele>
        <time>2013-05-20T08:23:51Z</time>
      </trkpt>
      <trkpt lat="42.926172" lon="-8.221135">
        <ele>396.026</ele>
        <time>2013-05-20T08:23:58Z</time>
      </trkpt>
      <trkpt lat="42.926141" lon="-8.221260">
        <ele>394.082</ele>
        <time>2013-05-20T08:24:07Z</time>
      </trkpt>
      <trkpt lat="42.926107" lon="-8.221376">
        <ele>390.095</ele>
        <time>2013-05-20T08:24:15Z</time>
      </trkpt>
      <trkpt lat="42.926080" lon="-8.221465">
        <ele>390.054</ele>
        <time>2013-05-20T08:24:25Z</time>
      </trkpt>
      <trkpt lat="42.926040" lon="-8.221599">
        <ele>390.023</ele>
        <time>2013-05-20T08:24:33Z</time>
      </trkpt>
      <trkpt lat="42.926002" lon="-8.221713">
        <ele>390.021</ele>
        <time>2013-05-20T08:24:37Z</time>
      </trkpt>
      <trkpt lat="42.925950" lon="-8.221835">
        <ele>389.041</ele>
        <time>2013-05-20T08:24:40Z</time>
      </trkpt>
      <trkpt lat="42.925898" lon="-8.221944">
        <ele>389.005</ele>
        <time>2013-05-20T08:24:43Z</time>
      </trkpt>
      <trkpt lat="42.925867" lon="-8.222061">
        <ele>389.007</ele>
        <time>2013-05-20T08:24:48Z</time>
      </trkpt>
      <trkpt lat="42.925904" lon="-8.222177">
        <ele>387.036</ele>
        <time>2013-05-20T08:24:57Z</time>
      </trkpt>
      <trkpt lat="42.925871" lon="-8.222313">
        <ele>388.057</ele>
        <time>2013-05-20T08:25:05Z</time>
      </trkpt>
      <trkpt lat="42.925853" lon="-8.222434">
        <ele>390.043</ele>
        <time>2013-05-20T08:25:11Z</time>
      </trkpt>
      <trkpt lat="42.925866" lon="-8.222558">
        <ele>389.019</ele>
        <time>2013-05-20T08:25:19Z</time>
      </trkpt>
      <trkpt lat="42.925841" lon="-8.222696">
        <ele>388.032</ele>
        <time>2013-05-20T08:25:25Z</time>
      </trkpt>
      <trkpt lat="42.925835" lon="-8.222831">
        <ele>389.081</ele>
        <time>2013-05-20T08:25:32Z</time>
      </trkpt>
      <trkpt lat="42.925844" lon="-8.222960">
        <ele>389.070</ele>
        <time>2013-05-20T08:25:42Z</time>
      </trkpt>
      <trkpt lat="42.925818" lon="-8.223092">
        <ele>391.078</ele>
        <time>2013-05-20T08:25:50Z</time>
      </trkpt>
      <trkpt lat="42.925787" lon="-8.223220">
        <ele>392.033</ele>
        <time>2013-05-20T08:25:56Z</time>
      </trkpt>
      <trkpt lat="42.925738" lon="-8.223327">
        <ele>394.026</ele>
        <time>2013-05-20T08:26:06Z</time>
      </trkpt>
      <trkpt lat="42.925696" lon="-8.223457">
        <ele>396.007</ele>
        <time>2013-05-20T08:26:12Z</time>
      </trkpt>
      <trkpt lat="42.925658" lon="-8.223585">
        <ele>397.071</ele>
        <time>2013-05-20T08:26:19Z</time>
      </trkpt>
      <trkpt lat="42.925634" lon="-8.223678">
        <ele>398.022</ele>
        <time>2013-05-20T08:26:29Z</time>
      </trkpt>
      <trkpt lat="42.925629" lon="-8.223780">
        <ele>398.098</ele>
        <time>2013-05-20T08:26:39Z</time>
      </trkpt>
      <trkpt lat="42.925607" lon="-8.223912">
        <ele>400.024</ele>
        <time>2013-05-20T08:26:48Z</time>
      </trkpt>
      <trkpt lat="42.925554" lon="-8.224026">
        <ele>399.057</ele>
        <time>2013-05-20T08:26:53Z</time>
      </trkpt>
      <trkpt lat="42.925489" lon="-8.224112">
        <ele>398.066</ele>
        <time>2013-05-20T08:26:57Z</time>
      </trkpt>
      <trkpt lat="42.925456" lon="-8.224162">
        <ele>398.075</ele>
        <time>2013-05-20T08:27:07Z</time>
      </trkpt>
      <trkpt lat="42.925400" lon="-8.224280">
        <ele>396.092</ele>
        <time>2013-05-20T08:27:17Z</time>
      </trkpt>
      <trkpt lat="42.925372" lon="-8.224338">
        <ele>396.073</ele>
        <time>2013-05-20T08:27:27Z</time>
      </trkpt>
      <trkpt lat="42.925301" lon="-8.224475">
        <ele>397.020</ele>
        <time>2013-05-20T08:27:31Z</time>
      </trkpt>
      <trkpt lat="42.925239" lon="-8.224602">
        <ele>397.007</ele>
        <time>2013-05-20T08:27:35Z</time>
      </trkpt>
      <trkpt lat="42.925192" lon="-8.224723">
        <ele>394.083</ele>
        <time>2013-05-20T08:27:41Z</time>
      </trkpt>
      <trkpt lat="42.925153" lon="-8.224839">
        <ele>393.014</ele>
        <time>2013-05-20T08:27:46Z</time>
      </trkpt>
      <trkpt lat="42.925087" lon="-8.224932">
        <ele>393.020</ele>
        <time>2013-05-20T08:27:51Z</time>
      </trkpt>
      <trkpt lat="42.925010" lon="-8.225038">
        <ele>393.036</ele>
        <time>2013-05-20T08:27:57Z</time>
      </trkpt>
      <trkpt lat="42.924952" lon="-8.225191">
        <ele>392.099</ele>
        <time>2013-05-20T08:28:01Z</time>
      </trkpt>
      <trkpt lat="42.924949" lon="-8.225264">
        <ele>391.038</ele>
        <time>2013-05-20T08:28:19Z</time>
      </trkpt>
      <trkpt lat="42.924911" lon="-8.225408">
        <ele>387.097</ele>
        <time>2013-05-20T08:28:25Z</time>
      </trkpt>
      <trkpt lat="42.924869" lon="-8.225530">
        <ele>389.055</ele>
        <time>2013-05-20T08:28:27Z</time>
      </trkpt>
      <trkpt lat="42.924824" lon="-8.225656">
        <ele>390.007</ele>
        <time>2013-05-20T08:28:32Z</time>
      </trkpt>
      <trkpt lat="42.924773" lon="-8.225778">
        <ele>391.017</ele>
        <time>2013-05-20T08:28:38Z</time>
      </trkpt>
      <trkpt lat="42.924712" lon="-8.225942">
        <ele>392.007</ele>
        <time>2013-05-20T08:28:44Z</time>
      </trkpt>
      <trkpt lat="42.924659" lon="-8.226050">
        <ele>392.019</ele>
        <time>2013-05-20T08:28:49Z</time>
      </trkpt>
      <trkpt lat="42.924605" lon="-8.226167">
        <ele>392.060</ele>
        <time>2013-05-20T08:28:54Z</time>
      </trkpt>
      <trkpt lat="42.924603" lon="-8.226237">
        <ele>392.046</ele>
        <time>2013-05-20T08:29:05Z</time>
      </trkpt>
      <trkpt lat="42.924562" lon="-8.226354">
        <ele>390.042</ele>
        <time>2013-05-20T08:29:14Z</time>
      </trkpt>
      <trkpt lat="42.924517" lon="-8.226482">
        <ele>391.075</ele>
        <time>2013-05-20T08:29:20Z</time>
      </trkpt>
      <trkpt lat="42.924447" lon="-8.226568">
        <ele>391.044</ele>
        <time>2013-05-20T08:29:26Z</time>
      </trkpt>
      <trkpt lat="42.924351" lon="-8.226610">
        <ele>390.023</ele>
        <time>2013-05-20T08:29:34Z</time>
      </trkpt>
      <trkpt lat="42.924279" lon="-8.226643">
        <ele>388.054</ele>
        <time>2013-05-20T08:29:44Z</time>
      </trkpt>
      <trkpt lat="42.924229" lon="-8.226590">
        <ele>391.056</ele>
        <time>2013-05-20T08:29:54Z</time>
      </trkpt>
      <trkpt lat="42.924164" lon="-8.226656">
        <ele>390.011</ele>
        <time>2013-05-20T08:30:04Z</time>
      </trkpt>
      <trkpt lat="42.924104" lon="-8.226748">
        <ele>390.007</ele>
        <time>2013-05-20T08:30:09Z</time>
      </trkpt>
      <trkpt lat="42.924042" lon="-8.226850">
        <ele>390.049</ele>
        <time>2013-05-20T08:30:14Z</time>
      </trkpt>
      <trkpt lat="42.923972" lon="-8.226970">
        <ele>389.080</ele>
        <time>2013-05-20T08:30:19Z</time>
      </trkpt>
      <trkpt lat="42.923922" lon="-8.227102">
        <ele>389.086</ele>
        <time>2013-05-20T08:30:24Z</time>
      </trkpt>
      <trkpt lat="42.923882" lon="-8.227225">
        <ele>390.042</ele>
        <time>2013-05-20T08:30:29Z</time>
      </trkpt>
      <trkpt lat="42.923844" lon="-8.227338">
        <ele>387.075</ele>
        <time>2013-05-20T08:30:38Z</time>
      </trkpt>
      <trkpt lat="42.923794" lon="-8.227392">
        <ele>389.064</ele>
        <time>2013-05-20T08:30:48Z</time>
      </trkpt>
      <trkpt lat="42.923729" lon="-8.227480">
        <ele>388.043</ele>
        <time>2013-05-20T08:30:52Z</time>
      </trkpt>
      <trkpt lat="42.923671" lon="-8.227577">
        <ele>388.086</ele>
        <time>2013-05-20T08:30:56Z</time>
      </trkpt>
      <trkpt lat="42.923624" lon="-8.227686">
        <ele>387.060</ele>
        <time>2013-05-20T08:31:01Z</time>
      </trkpt>
      <trkpt lat="42.923597" lon="-8.227804">
        <ele>386.026</ele>
        <time>2013-05-20T08:31:09Z</time>
      </trkpt>
      <trkpt lat="42.923552" lon="-8.227936">
        <ele>388.007</ele>
        <time>2013-05-20T08:31:16Z</time>
      </trkpt>
      <trkpt lat="42.923475" lon="-8.228062">
        <ele>389.092</ele>
        <time>2013-05-20T08:31:21Z</time>
      </trkpt>
      <trkpt lat="42.923426" lon="-8.228185">
        <ele>389.033</ele>
        <time>2013-05-20T08:31:26Z</time>
      </trkpt>
      <trkpt lat="42.923376" lon="-8.228287">
        <ele>389.039</ele>
        <time>2013-05-20T08:31:32Z</time>
      </trkpt>
      <trkpt lat="42.923318" lon="-8.228337">
        <ele>388.085</ele>
        <time>2013-05-20T08:31:42Z</time>
      </trkpt>
      <trkpt lat="42.923247" lon="-8.228403">
        <ele>389.088</ele>
        <time>2013-05-20T08:31:52Z</time>
      </trkpt>
      <trkpt lat="42.923164" lon="-8.228491">
        <ele>392.037</ele>
        <time>2013-05-20T08:32:02Z</time>
      </trkpt>
      <trkpt lat="42.923082" lon="-8.228600">
        <ele>393.066</ele>
        <time>2013-05-20T08:32:10Z</time>
      </trkpt>
      <trkpt lat="42.923015" lon="-8.228714">
        <ele>392.046</ele>
        <time>2013-05-20T08:32:14Z</time>
      </trkpt>
      <trkpt lat="42.922941" lon="-8.228798">
        <ele>392.088</ele>
        <time>2013-05-20T08:32:23Z</time>
      </trkpt>
      <trkpt lat="42.922882" lon="-8.228929">
        <ele>394.016</ele>
        <time>2013-05-20T08:32:28Z</time>
      </trkpt>
      <trkpt lat="42.922844" lon="-8.228995">
        <ele>395.007</ele>
        <time>2013-05-20T08:32:38Z</time>
      </trkpt>
      <trkpt lat="42.922816" lon="-8.229116">
        <ele>395.068</ele>
        <time>2013-05-20T08:32:47Z</time>
      </trkpt>
      <trkpt lat="42.922753" lon="-8.229219">
        <ele>400.039</ele>
        <time>2013-05-20T08:32:54Z</time>
      </trkpt>
      <trkpt lat="42.922711" lon="-8.229341">
        <ele>400.035</ele>
        <time>2013-05-20T08:32:59Z</time>
      </trkpt>
      <trkpt lat="42.922657" lon="-8.229455">
        <ele>401.051</ele>
        <time>2013-05-20T08:33:03Z</time>
      </trkpt>
      <trkpt lat="42.922622" lon="-8.229594">
        <ele>401.054</ele>
        <time>2013-05-20T08:33:08Z</time>
      </trkpt>
      <trkpt lat="42.922574" lon="-8.229720">
        <ele>402.043</ele>
        <time>2013-05-20T08:33:13Z</time>
      </trkpt>
      <trkpt lat="42.922584" lon="-8.229800">
        <ele>407.052</ele>
        <time>2013-05-20T08:33:23Z</time>
      </trkpt>
      <trkpt lat="42.922521" lon="-8.229914">
        <ele>406.022</ele>
        <time>2013-05-20T08:33:28Z</time>
      </trkpt>
      <trkpt lat="42.922475" lon="-8.230043">
        <ele>407.062</ele>
        <time>2013-05-20T08:33:34Z</time>
      </trkpt>
      <trkpt lat="42.922380" lon="-8.230100">
        <ele>408.008</ele>
        <time>2013-05-20T08:33:40Z</time>
      </trkpt>
      <trkpt lat="42.922320" lon="-8.230198">
        <ele>407.007</ele>
        <time>2013-05-20T08:33:45Z</time>
      </trkpt>
      <trkpt lat="42.922291" lon="-8.230316">
        <ele>408.016</ele>
        <time>2013-05-20T08:33:52Z</time>
      </trkpt>
      <trkpt lat="42.922282" lon="-8.230457">
        <ele>409.017</ele>
        <time>2013-05-20T08:33:59Z</time>
      </trkpt>
      <trkpt lat="42.922270" lon="-8.230594">
        <ele>410.083</ele>
        <time>2013-05-20T08:34:05Z</time>
      </trkpt>
      <trkpt lat="42.922252" lon="-8.230729">
        <ele>410.069</ele>
        <time>2013-05-20T08:34:13Z</time>
      </trkpt>
      <trkpt lat="42.922180" lon="-8.230829">
        <ele>408.032</ele>
        <time>2013-05-20T08:34:18Z</time>
      </trkpt>
      <trkpt lat="42.922159" lon="-8.230887">
        <ele>407.031</ele>
        <time>2013-05-20T08:34:28Z</time>
      </trkpt>
      <trkpt lat="42.922116" lon="-8.231019">
        <ele>402.040</ele>
        <time>2013-05-20T08:34:38Z</time>
      </trkpt>
      <trkpt lat="42.922087" lon="-8.231150">
        <ele>397.086</ele>
        <time>2013-05-20T08:34:42Z</time>
      </trkpt>
      <trkpt lat="42.922020" lon="-8.231298">
        <ele>397.060</ele>
        <time>2013-05-20T08:34:45Z</time>
      </trkpt>
      <trkpt lat="42.921960" lon="-8.231402">
        <ele>398.026</ele>
        <time>2013-05-20T08:34:49Z</time>
      </trkpt>
      <trkpt lat="42.921948" lon="-8.231479">
        <ele>401.007</ele>
        <time>2013-05-20T08:34:59Z</time>
      </trkpt>
      <trkpt lat="42.921902" lon="-8.231535">
        <ele>399.032</ele>
        <time>2013-05-20T08:35:12Z</time>
      </trkpt>
      <trkpt lat="42.921857" lon="-8.231643">
        <ele>398.053</ele>
        <time>2013-05-20T08:35:16Z</time>
      </trkpt>
      <trkpt lat="42.921803" lon="-8.231788">
        <ele>399.099</ele>
        <time>2013-05-20T08:35:20Z</time>
      </trkpt>
      <trkpt lat="42.921780" lon="-8.231919">
        <ele>399.025</ele>
        <time>2013-05-20T08:35:24Z</time>
      </trkpt>
      <trkpt lat="42.921790" lon="-8.231986">
        <ele>397.068</ele>
        <time>2013-05-20T08:35:37Z</time>
      </trkpt>
      <trkpt lat="42.921752" lon="-8.232046">
        <ele>395.037</ele>
        <time>2013-05-20T08:35:47Z</time>
      </trkpt>
      <trkpt lat="42.921699" lon="-8.232152">
        <ele>394.066</ele>
        <time>2013-05-20T08:35:57Z</time>
      </trkpt>
      <trkpt lat="42.921651" lon="-8.232284">
        <ele>394.028</ele>
        <time>2013-05-20T08:36:03Z</time>
      </trkpt>
      <trkpt lat="42.921598" lon="-8.232405">
        <ele>395.089</ele>
        <time>2013-05-20T08:36:08Z</time>
      </trkpt>
      <trkpt lat="42.921569" lon="-8.232533">
        <ele>393.017</ele>
        <time>2013-05-20T08:36:17Z</time>
      </trkpt>
      <trkpt lat="42.921500" lon="-8.232642">
        <ele>394.007</ele>
        <time>2013-05-20T08:36:24Z</time>
      </trkpt>
      <trkpt lat="42.921434" lon="-8.232761">
        <ele>394.076</ele>
        <time>2013-05-20T08:36:29Z</time>
      </trkpt>
      <trkpt lat="42.921370" lon="-8.232884">
        <ele>394.037</ele>
        <time>2013-05-20T08:36:34Z</time>
      </trkpt>
      <trkpt lat="42.921307" lon="-8.232984">
        <ele>394.073</ele>
        <time>2013-05-20T08:36:38Z</time>
      </trkpt>
      <trkpt lat="42.921250" lon="-8.233104">
        <ele>394.059</ele>
        <time>2013-05-20T08:36:43Z</time>
      </trkpt>
      <trkpt lat="42.921209" lon="-8.233227">
        <ele>394.052</ele>
        <time>2013-05-20T08:36:51Z</time>
      </trkpt>
      <trkpt lat="42.921198" lon="-8.233308">
        <ele>393.031</ele>
        <time>2013-05-20T08:37:02Z</time>
      </trkpt>
      <trkpt lat="42.921138" lon="-8.233437">
        <ele>392.080</ele>
        <time>2013-05-20T08:37:11Z</time>
      </trkpt>
      <trkpt lat="42.921098" lon="-8.233516">
        <ele>392.078</ele>
        <time>2013-05-20T08:37:28Z</time>
      </trkpt>
      <trkpt lat="42.921049" lon="-8.233629">
        <ele>394.033</ele>
        <time>2013-05-20T08:37:32Z</time>
      </trkpt>
      <trkpt lat="42.921007" lon="-8.233758">
        <ele>393.026</ele>
        <time>2013-05-20T08:37:36Z</time>
      </trkpt>
      <trkpt lat="42.920979" lon="-8.233886">
        <ele>393.007</ele>
        <time>2013-05-20T08:37:40Z</time>
      </trkpt>
      <trkpt lat="42.920935" lon="-8.234043">
        <ele>392.031</ele>
        <time>2013-05-20T08:37:44Z</time>
      </trkpt>
      <trkpt lat="42.920891" lon="-8.234151">
        <ele>390.082</ele>
        <time>2013-05-20T08:37:49Z</time>
      </trkpt>
      <trkpt lat="42.920869" lon="-8.234284">
        <ele>390.058</ele>
        <time>2013-05-20T08:37:54Z</time>
      </trkpt>
      <trkpt lat="42.920860" lon="-8.234415">
        <ele>389.054</ele>
        <time>2013-05-20T08:38:00Z</time>
      </trkpt>
      <trkpt lat="42.920884" lon="-8.234536">
        <ele>389.057</ele>
        <time>2013-05-20T08:38:05Z</time>
      </trkpt>
      <trkpt lat="42.920841" lon="-8.234661">
        <ele>388.016</ele>
        <time>2013-05-20T08:38:13Z</time>
      </trkpt>
      <trkpt lat="42.920787" lon="-8.234762">
        <ele>388.075</ele>
        <time>2013-05-20T08:38:23Z</time>
      </trkpt>
      <trkpt lat="42.920723" lon="-8.234863">
        <ele>387.063</ele>
        <time>2013-05-20T08:38:30Z</time>
      </trkpt>
      <trkpt lat="42.920710" lon="-8.235005">
        <ele>387.044</ele>
        <time>2013-05-20T08:38:37Z</time>
      </trkpt>
      <trkpt lat="42.920668" lon="-8.235122">
        <ele>389.018</ele>
        <time>2013-05-20T08:38:44Z</time>
      </trkpt>
      <trkpt lat="42.920614" lon="-8.235232">
        <ele>390.007</ele>
        <time>2013-05-20T08:38:51Z</time>
      </trkpt>
      <trkpt lat="42.920562" lon="-8.235333">
        <ele>390.050</ele>
        <time>2013-05-20T08:38:58Z</time>
      </trkpt>
      <trkpt lat="42.920535" lon="-8.235421">
        <ele>390.081</ele>
        <time>2013-05-20T08:39:08Z</time>
      </trkpt>
      <trkpt lat="42.920508" lon="-8.235541">
        <ele>390.037</ele>
        <time>2013-05-20T08:39:14Z</time>
      </trkpt>
      <trkpt lat="42.920490" lon="-8.235675">
        <ele>389.053</ele>
        <time>2013-05-20T08:39:21Z</time>
      </trkpt>
      <trkpt lat="42.920508" lon="-8.235808">
        <ele>393.036</ele>
        <time>2013-05-20T08:39:27Z</time>
      </trkpt>
      <trkpt lat="42.920486" lon="-8.235942">
        <ele>396.095</ele>
        <time>2013-05-20T08:39:32Z</time>
      </trkpt>
      <trkpt lat="42.920513" lon="-8.236065">
        <ele>398.054</ele>
        <time>2013-05-20T08:39:39Z</time>
      </trkpt>
      <trkpt lat="42.920507" lon="-8.236205">
        <ele>399.013</ele>
        <time>2013-05-20T08:39:45Z</time>
      </trkpt>
      <trkpt lat="42.920477" lon="-8.236323">
        <ele>397.043</ele>
        <time>2013-05-20T08:39:49Z</time>
      </trkpt>
      <trkpt lat="42.920451" lon="-8.236455">
        <ele>396.007</ele>
        <time>2013-05-20T08:39:57Z</time>
      </trkpt>
      <trkpt lat="42.920405" lon="-8.236561">
        <ele>396.007</ele>
        <time>2013-05-20T08:40:04Z</time>
      </trkpt>
      <trkpt lat="42.920380" lon="-8.236697">
        <ele>394.095</ele>
        <time>2013-05-20T08:40:11Z</time>
      </trkpt>
      <trkpt lat="42.920409" lon="-8.236815">
        <ele>391.096</ele>
        <time>2013-05-20T08:40:19Z</time>
      </trkpt>
      <trkpt lat="42.920454" lon="-8.236862">
        <ele>389.052</ele>
        <time>2013-05-20T08:40:29Z</time>
      </trkpt>
      <trkpt lat="42.920415" lon="-8.236978">
        <ele>391.038</ele>
        <time>2013-05-20T08:40:36Z</time>
      </trkpt>
      <trkpt lat="42.920352" lon="-8.237081">
        <ele>389.061</ele>
        <time>2013-05-20T08:40:43Z</time>
      </trkpt>
      <trkpt lat="42.920288" lon="-8.237177">
        <ele>387.010</ele>
        <time>2013-05-20T08:40:50Z</time>
      </trkpt>
      <trkpt lat="42.920214" lon="-8.237261">
        <ele>386.019</ele>
        <time>2013-05-20T08:40:54Z</time>
      </trkpt>
      <trkpt lat="42.920139" lon="-8.237328">
        <ele>384.067</ele>
        <time>2013-05-20T08:41:00Z</time>
      </trkpt>
      <trkpt lat="42.920043" lon="-8.237350">
        <ele>382.081</ele>
        <time>2013-05-20T08:41:10Z</time>
      </trkpt>
      <trkpt lat="42.919968" lon="-8.237412">
        <ele>380.019</ele>
        <time>2013-05-20T08:41:20Z</time>
      </trkpt>
      <trkpt lat="42.919929" lon="-8.237528">
        <ele>374.007</ele>
        <time>2013-05-20T08:41:29Z</time>
      </trkpt>
      <trkpt lat="42.919873" lon="-8.237632">
        <ele>376.060</ele>
        <time>2013-05-20T08:41:38Z</time>
      </trkpt>
      <trkpt lat="42.919841" lon="-8.237683">
        <ele>376.081</ele>
        <time>2013-05-20T08:41:48Z</time>
      </trkpt>
      <trkpt lat="42.919783" lon="-8.237811">
        <ele>375.037</ele>
        <time>2013-05-20T08:41:53Z</time>
      </trkpt>
      <trkpt lat="42.919758" lon="-8.237868">
        <ele>375.013</ele>
        <time>2013-05-20T08:42:03Z</time>
      </trkpt>
      <trkpt lat="42.919709" lon="-8.237994">
        <ele>375.046</ele>
        <time>2013-05-20T08:42:11Z</time>
      </trkpt>
      <trkpt lat="42.919665" lon="-8.238101">
        <ele>376.035</ele>
        <time>2013-05-20T08:42:15Z</time>
      </trkpt>
      <trkpt lat="42.919607" lon="-8.238244">
        <ele>373.024</ele>
        <time>2013-05-20T08:42:21Z</time>
      </trkpt>
      <trkpt lat="42.919574" lon="-8.238304">
        <ele>374.031</ele>
        <time>2013-05-20T08:42:31Z</time>
      </trkpt>
      <trkpt lat="42.919522" lon="-8.238414">
        <ele>373.061</ele>
        <time>2013-05-20T08:42:38Z</time>
      </trkpt>
      <trkpt lat="42.919466" lon="-8.238521">
        <ele>373.007</ele>
        <time>2013-05-20T08:42:41Z</time>
      </trkpt>
      <trkpt lat="42.919403" lon="-8.238628">
        <ele>375.007</ele>
        <time>2013-05-20T08:42:45Z</time>
      </trkpt>
      <trkpt lat="42.919365" lon="-8.238760">
        <ele>375.057</ele>
        <time>2013-05-20T08:42:50Z</time>
      </trkpt>
      <trkpt lat="42.919310" lon="-8.238911">
        <ele>372.038</ele>
        <time>2013-05-20T08:42:55Z</time>
      </trkpt>
      <trkpt lat="42.919238" lon="-8.239028">
        <ele>370.064</ele>
        <time>2013-05-20T08:42:59Z</time>
      </trkpt>
      <trkpt lat="42.919177" lon="-8.239167">
        <ele>368.010</ele>
        <time>2013-05-20T08:43:06Z</time>
      </trkpt>
      <trkpt lat="42.919125" lon="-8.239287">
        <ele>371.023</ele>
        <time>2013-05-20T08:43:13Z</time>
      </trkpt>
      <trkpt lat="42.919074" lon="-8.239397">
        <ele>369.062</ele>
        <time>2013-05-20T08:43:22Z</time>
      </trkpt>
      <trkpt lat="42.919037" lon="-8.239485">
        <ele>370.081</ele>
        <time>2013-05-20T08:43:32Z</time>
      </trkpt>
      <trkpt lat="42.918995" lon="-8.239548">
        <ele>372.026</ele>
        <time>2013-05-20T08:43:50Z</time>
      </trkpt>
      <trkpt lat="42.918904" lon="-8.239635">
        <ele>373.047</ele>
        <time>2013-05-20T08:43:55Z</time>
      </trkpt>
      <trkpt lat="42.918841" lon="-8.239728">
        <ele>373.011</ele>
        <time>2013-05-20T08:44:00Z</time>
      </trkpt>
      <trkpt lat="42.918778" lon="-8.239825">
        <ele>373.007</ele>
        <time>2013-05-20T08:44:07Z</time>
      </trkpt>
      <trkpt lat="42.918694" lon="-8.239881">
        <ele>374.056</ele>
        <time>2013-05-20T08:44:15Z</time>
      </trkpt>
      <trkpt lat="42.918617" lon="-8.239970">
        <ele>372.067</ele>
        <time>2013-05-20T08:44:19Z</time>
      </trkpt>
      <trkpt lat="42.918577" lon="-8.240011">
        <ele>372.023</ele>
        <time>2013-05-20T08:44:29Z</time>
      </trkpt>
      <trkpt lat="42.918493" lon="-8.240102">
        <ele>374.069</ele>
        <time>2013-05-20T08:44:34Z</time>
      </trkpt>
      <trkpt lat="42.918403" lon="-8.240211">
        <ele>373.042</ele>
        <time>2013-05-20T08:44:37Z</time>
      </trkpt>
      <trkpt lat="42.918317" lon="-8.240313">
        <ele>374.021</ele>
        <time>2013-05-20T08:44:40Z</time>
      </trkpt>
      <trkpt lat="42.918245" lon="-8.240415">
        <ele>373.030</ele>
        <time>2013-05-20T08:44:44Z</time>
      </trkpt>
      <trkpt lat="42.918198" lon="-8.240472">
        <ele>373.017</ele>
        <time>2013-05-20T08:44:54Z</time>
      </trkpt>
      <trkpt lat="42.918181" lon="-8.240532">
        <ele>371.087</ele>
        <time>2013-05-20T08:45:07Z</time>
      </trkpt>
      <trkpt lat="42.918130" lon="-8.240651">
        <ele>369.015</ele>
        <time>2013-05-20T08:45:15Z</time>
      </trkpt>
      <trkpt lat="42.918062" lon="-8.240755">
        <ele>368.007</ele>
        <time>2013-05-20T08:45:24Z</time>
      </trkpt>
      <trkpt lat="42.918011" lon="-8.240902">
        <ele>369.075</ele>
        <time>2013-05-20T08:45:32Z</time>
      </trkpt>
      <trkpt lat="42.917976" lon="-8.241033">
        <ele>369.016</ele>
        <time>2013-05-20T08:45:45Z</time>
      </trkpt>
      <trkpt lat="42.917938" lon="-8.241163">
        <ele>369.032</ele>
        <time>2013-05-20T08:45:53Z</time>
      </trkpt>
      <trkpt lat="42.917892" lon="-8.241275">
        <ele>369.068</ele>
        <time>2013-05-20T08:45:58Z</time>
      </trkpt>
      <trkpt lat="42.917874" lon="-8.241396">
        <ele>359.041</ele>
        <time>2013-05-20T08:46:01Z</time>
      </trkpt>
      <trkpt lat="42.917856" lon="-8.241528">
        <ele>353.010</ele>
        <time>2013-05-20T08:46:05Z</time>
      </trkpt>
      <trkpt lat="42.917861" lon="-8.241654">
        <ele>352.099</ele>
        <time>2013-05-20T08:46:10Z</time>
      </trkpt>
      <trkpt lat="42.917860" lon="-8.241795">
        <ele>350.037</ele>
        <time>2013-05-20T08:46:14Z</time>
      </trkpt>
      <trkpt lat="42.917873" lon="-8.241929">
        <ele>346.049</ele>
        <time>2013-05-20T08:46:22Z</time>
      </trkpt>
      <trkpt lat="42.917953" lon="-8.242033">
        <ele>348.013</ele>
        <time>2013-05-20T08:46:28Z</time>
      </trkpt>
      <trkpt lat="42.917991" lon="-8.242067">
        <ele>347.007</ele>
        <time>2013-05-20T08:46:38Z</time>
      </trkpt>
      <trkpt lat="42.918047" lon="-8.242158">
        <ele>340.057</ele>
        <time>2013-05-20T08:46:48Z</time>
      </trkpt>
      <trkpt lat="42.918081" lon="-8.242286">
        <ele>339.018</ele>
        <time>2013-05-20T08:46:53Z</time>
      </trkpt>
      <trkpt lat="42.918110" lon="-8.242423">
        <ele>343.084</ele>
        <time>2013-05-20T08:46:58Z</time>
      </trkpt>
      <trkpt lat="42.918158" lon="-8.242507">
        <ele>340.080</ele>
        <time>2013-05-20T08:47:08Z</time>
      </trkpt>
      <trkpt lat="42.918183" lon="-8.242633">
        <ele>340.063</ele>
        <time>2013-05-20T08:47:15Z</time>
      </trkpt>
      <trkpt lat="42.918196" lon="-8.242753">
        <ele>334.052</ele>
        <time>2013-05-20T08:47:25Z</time>
      </trkpt>
      <trkpt lat="42.918237" lon="-8.242878">
        <ele>335.021</ele>
        <time>2013-05-20T08:47:32Z</time>
      </trkpt>
      <trkpt lat="42.918301" lon="-8.242973">
        <ele>336.092</ele>
        <time>2013-05-20T08:47:37Z</time>
      </trkpt>
      <trkpt lat="42.918359" lon="-8.243077">
        <ele>340.073</ele>
        <time>2013-05-20T08:47:42Z</time>
      </trkpt>
      <trkpt lat="42.918403" lon="-8.243193">
        <ele>335.020</ele>
        <time>2013-05-20T08:47:51Z</time>
      </trkpt>
      <trkpt lat="42.918347" lon="-8.243291">
        <ele>335.007</ele>
        <time>2013-05-20T08:48:00Z</time>
      </trkpt>
      <trkpt lat="42.918257" lon="-8.243358">
        <ele>335.063</ele>
        <time>2013-05-20T08:48:06Z</time>
      </trkpt>
      <trkpt lat="42.918165" lon="-8.243382">
        <ele>335.094</ele>
        <time>2013-05-20T08:48:11Z</time>
      </trkpt>
      <trkpt lat="42.918067" lon="-8.243406">
        <ele>335.030</ele>
        <time>2013-05-20T08:48:17Z</time>
      </trkpt>
      <trkpt lat="42.918020" lon="-8.243377">
        <ele>336.026</ele>
        <time>2013-05-20T08:48:27Z</time>
      </trkpt>
      <trkpt lat="42.917929" lon="-8.243425">
        <ele>337.019</ele>
        <time>2013-05-20T08:48:35Z</time>
      </trkpt>
      <trkpt lat="42.917837" lon="-8.243399">
        <ele>337.028</ele>
        <time>2013-05-20T08:48:40Z</time>
      </trkpt>
      <trkpt lat="42.917794" lon="-8.243508">
        <ele>337.087</ele>
        <time>2013-05-20T08:48:47Z</time>
      </trkpt>
      <trkpt lat="42.917766" lon="-8.243657">
        <ele>337.091</ele>
        <time>2013-05-20T08:48:53Z</time>
      </trkpt>
      <trkpt lat="42.917740" lon="-8.243788">
        <ele>338.081</ele>
        <time>2013-05-20T08:48:58Z</time>
      </trkpt>
      <trkpt lat="42.917717" lon="-8.243941">
        <ele>338.019</ele>
        <time>2013-05-20T08:49:06Z</time>
      </trkpt>
      <trkpt lat="42.917692" lon="-8.244002">
        <ele>336.007</ele>
        <time>2013-05-20T08:49:20Z</time>
      </trkpt>
      <trkpt lat="42.917672" lon="-8.244131">
        <ele>335.023</ele>
        <time>2013-05-20T08:49:24Z</time>
      </trkpt>
      <trkpt lat="42.917661" lon="-8.244259">
        <ele>335.064</ele>
        <time>2013-05-20T08:49:28Z</time>
      </trkpt>
      <trkpt lat="42.917656" lon="-8.244403">
        <ele>337.070</ele>
        <time>2013-05-20T08:49:33Z</time>
      </trkpt>
      <trkpt lat="42.917663" lon="-8.244538">
        <ele>337.096</ele>
        <time>2013-05-20T08:49:39Z</time>
      </trkpt>
      <trkpt lat="42.917670" lon="-8.244636">
        <ele>333.059</ele>
        <time>2013-05-20T08:49:49Z</time>
      </trkpt>
      <trkpt lat="42.917755" lon="-8.244678">
        <ele>336.068</ele>
        <time>2013-05-20T08:49:57Z</time>
      </trkpt>
      <trkpt lat="42.917819" lon="-8.244770">
        <ele>338.087</ele>
        <time>2013-05-20T08:50:03Z</time>
      </trkpt>
      <trkpt lat="42.917875" lon="-8.244889">
        <ele>339.086</ele>
        <time>2013-05-20T08:50:09Z</time>
      </trkpt>
      <trkpt lat="42.917888" lon="-8.244979">
        <ele>338.060</ele>
        <time>2013-05-20T08:50:19Z</time>
      </trkpt>
      <trkpt lat="42.917887" lon="-8.245111">
        <ele>339.026</ele>
        <time>2013-05-20T08:50:29Z</time>
      </trkpt>
      <trkpt lat="42.917830" lon="-8.245221">
        <ele>339.007</ele>
        <time>2013-05-20T08:50:39Z</time>
      </trkpt>
      <trkpt lat="42.917812" lon="-8.245343">
        <ele>337.062</ele>
        <time>2013-05-20T08:50:45Z</time>
      </trkpt>
      <trkpt lat="42.917796" lon="-8.245481">
        <ele>339.033</ele>
        <time>2013-05-20T08:50:51Z</time>
      </trkpt>
      <trkpt lat="42.917788" lon="-8.245611">
        <ele>340.049</ele>
        <time>2013-05-20T08:50:58Z</time>
      </trkpt>
      <trkpt lat="42.917824" lon="-8.245733">
        <ele>341.025</ele>
        <time>2013-05-20T08:51:08Z</time>
      </trkpt>
      <trkpt lat="42.917867" lon="-8.245819">
        <ele>341.028</ele>
        <time>2013-05-20T08:51:18Z</time>
      </trkpt>
      <trkpt lat="42.917905" lon="-8.245955">
        <ele>337.017</ele>
        <time>2013-05-20T08:51:26Z</time>
      </trkpt>
      <trkpt lat="42.917955" lon="-8.246078">
        <ele>338.036</ele>
        <time>2013-05-20T08:51:32Z</time>
      </trkpt>
      <trkpt lat="42.917989" lon="-8.246207">
        <ele>338.046</ele>
        <time>2013-05-20T08:51:39Z</time>
      </trkpt>
      <trkpt lat="42.918005" lon="-8.246342">
        <ele>340.088</ele>
        <time>2013-05-20T08:51:45Z</time>
      </trkpt>
      <trkpt lat="42.918033" lon="-8.246466">
        <ele>341.016</ele>
        <time>2013-05-20T08:51:52Z</time>
      </trkpt>
      <trkpt lat="42.918047" lon="-8.246596">
        <ele>343.007</ele>
        <time>2013-05-20T08:52:00Z</time>
      </trkpt>
      <trkpt lat="42.918045" lon="-8.246720">
        <ele>343.078</ele>
        <time>2013-05-20T08:52:07Z</time>
      </trkpt>
      <trkpt lat="42.918054" lon="-8.246847">
        <ele>341.039</ele>
        <time>2013-05-20T08:52:16Z</time>
      </trkpt>
      <trkpt lat="42.918080" lon="-8.246979">
        <ele>340.065</ele>
        <time>2013-05-20T08:52:26Z</time>
      </trkpt>
      <trkpt lat="42.918115" lon="-8.247104">
        <ele>340.061</ele>
        <time>2013-05-20T08:52:33Z</time>
      </trkpt>
      <trkpt lat="42.918154" lon="-8.247235">
        <ele>340.034</ele>
        <time>2013-05-20T08:52:41Z</time>
      </trkpt>
      <trkpt lat="42.918181" lon="-8.247365">
        <ele>337.083</ele>
        <time>2013-05-20T08:52:49Z</time>
      </trkpt>
      <trkpt lat="42.918213" lon="-8.247490">
        <ele>341.082</ele>
        <time>2013-05-20T08:52:56Z</time>
      </trkpt>
      <trkpt lat="42.918216" lon="-8.247619">
        <ele>345.047</ele>
        <time>2013-05-20T08:53:02Z</time>
      </trkpt>
      <trkpt lat="42.918230" lon="-8.247755">
        <ele>346.029</ele>
        <time>2013-05-20T08:53:10Z</time>
      </trkpt>
      <trkpt lat="42.918214" lon="-8.247897">
        <ele>348.021</ele>
        <time>2013-05-20T08:53:17Z</time>
      </trkpt>
      <trkpt lat="42.918214" lon="-8.248006">
        <ele>349.007</ele>
        <time>2013-05-20T08:53:27Z</time>
      </trkpt>
      <trkpt lat="42.918197" lon="-8.248093">
        <ele>349.078</ele>
        <time>2013-05-20T08:53:40Z</time>
      </trkpt>
      <trkpt lat="42.918248" lon="-8.248218">
        <ele>343.049</ele>
        <time>2013-05-20T08:53:46Z</time>
      </trkpt>
      <trkpt lat="42.918291" lon="-8.248337">
        <ele>345.085</ele>
        <time>2013-05-20T08:53:52Z</time>
      </trkpt>
      <trkpt lat="42.918316" lon="-8.248468">
        <ele>347.071</ele>
        <time>2013-05-20T08:53:58Z</time>
      </trkpt>
      <trkpt lat="42.918340" lon="-8.248591">
        <ele>346.074</ele>
        <time>2013-05-20T08:54:04Z</time>
      </trkpt>
      <trkpt lat="42.918364" lon="-8.248729">
        <ele>348.093</ele>
        <time>2013-05-20T08:54:11Z</time>
      </trkpt>
      <trkpt lat="42.918372" lon="-8.248803">
        <ele>348.032</ele>
        <time>2013-05-20T08:54:23Z</time>
      </trkpt>
      <trkpt lat="42.918406" lon="-8.248926">
        <ele>346.077</ele>
        <time>2013-05-20T08:54:29Z</time>
      </trkpt>
      <trkpt lat="42.918414" lon="-8.249055">
        <ele>346.061</ele>
        <time>2013-05-20T08:54:36Z</time>
      </trkpt>
      <trkpt lat="42.918467" lon="-8.249162">
        <ele>349.027</ele>
        <time>2013-05-20T08:54:43Z</time>
      </trkpt>
      <trkpt lat="42.918479" lon="-8.249288">
        <ele>350.007</ele>
        <time>2013-05-20T08:54:52Z</time>
      </trkpt>
      <trkpt lat="42.918484" lon="-8.249413">
        <ele>349.021</ele>
        <time>2013-05-20T08:54:59Z</time>
      </trkpt>
      <trkpt lat="42.918523" lon="-8.249554">
        <ele>348.092</ele>
        <time>2013-05-20T08:55:07Z</time>
      </trkpt>
      <trkpt lat="42.918569" lon="-8.249677">
        <ele>350.098</ele>
        <time>2013-05-20T08:55:12Z</time>
      </trkpt>
      <trkpt lat="42.918566" lon="-8.249779">
        <ele>353.094</ele>
        <time>2013-05-20T08:55:22Z</time>
      </trkpt>
      <trkpt lat="42.918568" lon="-8.249913">
        <ele>352.097</ele>
        <time>2013-05-20T08:55:28Z</time>
      </trkpt>
      <trkpt lat="42.918568" lon="-8.250037">
        <ele>354.036</ele>
        <time>2013-05-20T08:55:34Z</time>
      </trkpt>
      <trkpt lat="42.918551" lon="-8.250172">
        <ele>356.095</ele>
        <time>2013-05-20T08:55:43Z</time>
      </trkpt>
      <trkpt lat="42.918573" lon="-8.250296">
        <ele>357.082</ele>
        <time>2013-05-20T08:55:51Z</time>
      </trkpt>
      <trkpt lat="42.918588" lon="-8.250435">
        <ele>356.043</ele>
        <time>2013-05-20T08:56:00Z</time>
      </trkpt>
      <trkpt lat="42.918610" lon="-8.250563">
        <ele>355.017</ele>
        <time>2013-05-20T08:56:07Z</time>
      </trkpt>
      <trkpt lat="42.918663" lon="-8.250680">
        <ele>356.007</ele>
        <time>2013-05-20T08:56:14Z</time>
      </trkpt>
      <trkpt lat="42.918714" lon="-8.250801">
        <ele>356.032</ele>
        <time>2013-05-20T08:56:24Z</time>
      </trkpt>
      <trkpt lat="42.918754" lon="-8.250925">
        <ele>357.033</ele>
        <time>2013-05-20T08:56:31Z</time>
      </trkpt>
      <trkpt lat="42.918818" lon="-8.251013">
        <ele>361.019</ele>
        <time>2013-05-20T08:56:35Z</time>
      </trkpt>
      <trkpt lat="42.918895" lon="-8.251103">
        <ele>361.035</ele>
        <time>2013-05-20T08:56:41Z</time>
      </trkpt>
      <trkpt lat="42.918933" lon="-8.251216">
        <ele>362.048</ele>
        <time>2013-05-20T08:56:48Z</time>
      </trkpt>
      <trkpt lat="42.918959" lon="-8.251344">
        <ele>362.097</ele>
        <time>2013-05-20T08:56:58Z</time>
      </trkpt>
      <trkpt lat="42.919007" lon="-8.251462">
        <ele>364.036</ele>
        <time>2013-05-20T08:57:07Z</time>
      </trkpt>
      <trkpt lat="42.919052" lon="-8.251584">
        <ele>363.087</ele>
        <time>2013-05-20T08:57:17Z</time>
      </trkpt>
      <trkpt lat="42.919097" lon="-8.251702">
        <ele>367.042</ele>
        <time>2013-05-20T08:57:25Z</time>
      </trkpt>
      <trkpt lat="42.919169" lon="-8.251795">
        <ele>368.026</ele>
        <time>2013-05-20T08:57:33Z</time>
      </trkpt>
      <trkpt lat="42.919234" lon="-8.251899">
        <ele>368.007</ele>
        <time>2013-05-20T08:57:40Z</time>
      </trkpt>
      <trkpt lat="42.919308" lon="-8.251977">
        <ele>367.042</ele>
        <time>2013-05-20T08:57:46Z</time>
      </trkpt>
      <trkpt lat="42.919335" lon="-8.252031">
        <ele>370.043</ele>
        <time>2013-05-20T08:58:04Z</time>
      </trkpt>
      <trkpt lat="42.919338" lon="-8.252164">
        <ele>376.019</ele>
        <time>2013-05-20T08:58:12Z</time>
      </trkpt>
      <trkpt lat="42.919420" lon="-8.252294">
        <ele>379.085</ele>
        <time>2013-05-20T08:58:15Z</time>
      </trkpt>
      <trkpt lat="42.919481" lon="-8.252405">
        <ele>376.028</ele>
        <time>2013-05-20T08:58:18Z</time>
      </trkpt>
      <trkpt lat="42.919563" lon="-8.252526">
        <ele>377.017</ele>
        <time>2013-05-20T08:58:25Z</time>
      </trkpt>
      <trkpt lat="42.919597" lon="-8.252643">
        <ele>375.016</ele>
        <time>2013-05-20T08:58:32Z</time>
      </trkpt>
      <trkpt lat="42.919621" lon="-8.252714">
        <ele>374.046</ele>
        <time>2013-05-20T08:58:43Z</time>
      </trkpt>
      <trkpt lat="42.919649" lon="-8.252792">
        <ele>375.088</ele>
        <time>2013-05-20T08:58:53Z</time>
      </trkpt>
      <trkpt lat="42.919702" lon="-8.252872">
        <ele>373.016</ele>
        <time>2013-05-20T08:59:03Z</time>
      </trkpt>
      <trkpt lat="42.919797" lon="-8.252913">
        <ele>373.007</ele>
        <time>2013-05-20T08:59:08Z</time>
      </trkpt>
      <trkpt lat="42.919843" lon="-8.252999">
        <ele>373.088</ele>
        <time>2013-05-20T08:59:18Z</time>
      </trkpt>
      <trkpt lat="42.919921" lon="-8.253064">
        <ele>373.059</ele>
        <time>2013-05-20T08:59:26Z</time>
      </trkpt>
      <trkpt lat="42.920026" lon="-8.253067">
        <ele>374.055</ele>
        <time>2013-05-20T08:59:33Z</time>
      </trkpt>
      <trkpt lat="42.920113" lon="-8.253111">
        <ele>374.041</ele>
        <time>2013-05-20T08:59:39Z</time>
      </trkpt>
      <trkpt lat="42.920204" lon="-8.253096">
        <ele>374.074</ele>
        <time>2013-05-20T08:59:42Z</time>
      </trkpt>
      <trkpt lat="42.920304" lon="-8.253090">
        <ele>373.083</ele>
        <time>2013-05-20T08:59:47Z</time>
      </trkpt>
      <trkpt lat="42.920362" lon="-8.253200">
        <ele>375.092</ele>
        <time>2013-05-20T08:59:55Z</time>
      </trkpt>
      <trkpt lat="42.920434" lon="-8.253301">
        <ele>376.063</ele>
        <time>2013-05-20T09:00:02Z</time>
      </trkpt>
      <trkpt lat="42.920530" lon="-8.253377">
        <ele>385.044</ele>
        <time>2013-05-20T09:00:09Z</time>
      </trkpt>
      <trkpt lat="42.920622" lon="-8.253439">
        <ele>385.018</ele>
        <time>2013-05-20T09:00:13Z</time>
      </trkpt>
      <trkpt lat="42.920699" lon="-8.253531">
        <ele>383.007</ele>
        <time>2013-05-20T09:00:22Z</time>
      </trkpt>
      <trkpt lat="42.920760" lon="-8.253624">
        <ele>383.030</ele>
        <time>2013-05-20T09:00:31Z</time>
      </trkpt>
      <trkpt lat="42.920851" lon="-8.253721">
        <ele>389.071</ele>
        <time>2013-05-20T09:00:38Z</time>
      </trkpt>
      <trkpt lat="42.920927" lon="-8.253810">
        <ele>385.067</ele>
        <time>2013-05-20T09:00:45Z</time>
      </trkpt>
      <trkpt lat="42.920991" lon="-8.253913">
        <ele>386.063</ele>
        <time>2013-05-20T09:00:52Z</time>
      </trkpt>
      <trkpt lat="42.921036" lon="-8.254034">
        <ele>386.056</ele>
        <time>2013-05-20T09:01:01Z</time>
      </trkpt>
      <trkpt lat="42.921081" lon="-8.254156">
        <ele>384.095</ele>
        <time>2013-05-20T09:01:09Z</time>
      </trkpt>
      <trkpt lat="42.921140" lon="-8.254275">
        <ele>383.024</ele>
        <time>2013-05-20T09:01:16Z</time>
      </trkpt>
      <trkpt lat="42.921222" lon="-8.254382">
        <ele>390.048</ele>
        <time>2013-05-20T09:01:22Z</time>
      </trkpt>
      <trkpt lat="42.921260" lon="-8.254509">
        <ele>387.061</ele>
        <time>2013-05-20T09:01:31Z</time>
      </trkpt>
      <trkpt lat="42.921330" lon="-8.254596">
        <ele>384.017</ele>
        <time>2013-05-20T09:01:39Z</time>
      </trkpt>
      <trkpt lat="42.921333" lon="-8.254716">
        <ele>385.007</ele>
        <time>2013-05-20T09:01:49Z</time>
      </trkpt>
      <trkpt lat="42.921349" lon="-8.254838">
        <ele>385.068</ele>
        <time>2013-05-20T09:01:56Z</time>
      </trkpt>
      <trkpt lat="42.921415" lon="-8.254943">
        <ele>386.049</ele>
        <time>2013-05-20T09:02:04Z</time>
      </trkpt>
      <trkpt lat="42.921463" lon="-8.255049">
        <ele>385.065</ele>
        <time>2013-05-20T09:02:10Z</time>
      </trkpt>
      <trkpt lat="42.921511" lon="-8.255155">
        <ele>388.061</ele>
        <time>2013-05-20T09:02:16Z</time>
      </trkpt>
      <trkpt lat="42.921534" lon="-8.255280">
        <ele>387.034</ele>
        <time>2013-05-20T09:02:26Z</time>
      </trkpt>
      <trkpt lat="42.921586" lon="-8.255392">
        <ele>387.073</ele>
        <time>2013-05-20T09:02:32Z</time>
      </trkpt>
      <trkpt lat="42.921624" lon="-8.255476">
        <ele>386.032</ele>
        <time>2013-05-20T09:02:42Z</time>
      </trkpt>
      <trkpt lat="42.921658" lon="-8.255603">
        <ele>387.013</ele>
        <time>2013-05-20T09:02:48Z</time>
      </trkpt>
      <trkpt lat="42.921693" lon="-8.255722">
        <ele>385.043</ele>
        <time>2013-05-20T09:02:54Z</time>
      </trkpt>
      <trkpt lat="42.921745" lon="-8.255839">
        <ele>384.007</ele>
        <time>2013-05-20T09:03:02Z</time>
      </trkpt>
      <trkpt lat="42.921794" lon="-8.255951">
        <ele>383.007</ele>
        <time>2013-05-20T09:03:09Z</time>
      </trkpt>
      <trkpt lat="42.921851" lon="-8.256056">
        <ele>382.095</ele>
        <time>2013-05-20T09:03:18Z</time>
      </trkpt>
      <trkpt lat="42.921899" lon="-8.256162">
        <ele>380.046</ele>
        <time>2013-05-20T09:03:24Z</time>
      </trkpt>
      <trkpt lat="42.921965" lon="-8.256268">
        <ele>380.062</ele>
        <time>2013-05-20T09:03:32Z</time>
      </trkpt>
      <trkpt lat="42.922025" lon="-8.256378">
        <ele>382.038</ele>
        <time>2013-05-20T09:03:40Z</time>
      </trkpt>
      <trkpt lat="42.922078" lon="-8.256490">
        <ele>380.041</ele>
        <time>2013-05-20T09:03:48Z</time>
      </trkpt>
      <trkpt lat="42.922138" lon="-8.256590">
        <ele>378.050</ele>
        <time>2013-05-20T09:03:54Z</time>
      </trkpt>
      <trkpt lat="42.922201" lon="-8.256685">
        <ele>379.029</ele>
        <time>2013-05-20T09:03:59Z</time>
      </trkpt>
      <trkpt lat="42.922248" lon="-8.256793">
        <ele>377.034</ele>
        <time>2013-05-20T09:04:07Z</time>
      </trkpt>
      <trkpt lat="42.922254" lon="-8.256918">
        <ele>373.055</ele>
        <time>2013-05-20T09:04:17Z</time>
      </trkpt>
      <trkpt lat="42.922305" lon="-8.257041">
        <ele>373.010</ele>
        <time>2013-05-20T09:04:23Z</time>
      </trkpt>
      <trkpt lat="42.922315" lon="-8.257196">
        <ele>378.007</ele>
        <time>2013-05-20T09:04:28Z</time>
      </trkpt>
      <trkpt lat="42.922315" lon="-8.257325">
        <ele>376.067</ele>
        <time>2013-05-20T09:04:35Z</time>
      </trkpt>
      <trkpt lat="42.922341" lon="-8.257452">
        <ele>378.038</ele>
        <time>2013-05-20T09:04:45Z</time>
      </trkpt>
      <trkpt lat="42.922353" lon="-8.257575">
        <ele>379.074</ele>
        <time>2013-05-20T09:04:51Z</time>
      </trkpt>
      <trkpt lat="42.922397" lon="-8.257695">
        <ele>379.060</ele>
        <time>2013-05-20T09:04:58Z</time>
      </trkpt>
      <trkpt lat="42.922453" lon="-8.257797">
        <ele>380.013</ele>
        <time>2013-05-20T09:05:06Z</time>
      </trkpt>
      <trkpt lat="42.922425" lon="-8.257939">
        <ele>380.082</ele>
        <time>2013-05-20T09:05:13Z</time>
      </trkpt>
      <trkpt lat="42.922414" lon="-8.258065">
        <ele>380.041</ele>
        <time>2013-05-20T09:05:19Z</time>
      </trkpt>
      <trkpt lat="42.922451" lon="-8.258183">
        <ele>382.029</ele>
        <time>2013-05-20T09:05:27Z</time>
      </trkpt>
      <trkpt lat="42.922449" lon="-8.258323">
        <ele>385.000</ele>
        <time>2013-05-20T09:05:34Z</time>
      </trkpt>
      <trkpt lat="42.922430" lon="-8.258450">
        <ele>384.020</ele>
        <time>2013-05-20T09:05:41Z</time>
      </trkpt>
      <trkpt lat="42.922436" lon="-8.258587">
        <ele>383.007</ele>
        <time>2013-05-20T09:05:48Z</time>
      </trkpt>
      <trkpt lat="42.922444" lon="-8.258719">
        <ele>387.056</ele>
        <time>2013-05-20T09:05:58Z</time>
      </trkpt>
      <trkpt lat="42.922380" lon="-8.258789">
        <ele>388.097</ele>
        <time>2013-05-20T09:06:08Z</time>
      </trkpt>
      <trkpt lat="42.922366" lon="-8.258914">
        <ele>387.023</ele>
        <time>2013-05-20T09:06:15Z</time>
      </trkpt>
      <trkpt lat="42.922348" lon="-8.259074">
        <ele>383.049</ele>
        <time>2013-05-20T09:06:22Z</time>
      </trkpt>
      <trkpt lat="42.922314" lon="-8.259194">
        <ele>378.022</ele>
        <time>2013-05-20T09:06:27Z</time>
      </trkpt>
      <trkpt lat="42.922293" lon="-8.259328">
        <ele>373.071</ele>
        <time>2013-05-20T09:06:37Z</time>
      </trkpt>
      <trkpt lat="42.922314" lon="-8.259471">
        <ele>373.010</ele>
        <time>2013-05-20T09:06:43Z</time>
      </trkpt>
      <trkpt lat="42.922304" lon="-8.259594">
        <ele>370.055</ele>
        <time>2013-05-20T09:06:50Z</time>
      </trkpt>
      <trkpt lat="42.922281" lon="-8.259659">
        <ele>370.007</ele>
        <time>2013-05-20T09:07:06Z</time>
      </trkpt>
      <trkpt lat="42.922241" lon="-8.259771">
        <ele>372.017</ele>
        <time>2013-05-20T09:07:10Z</time>
      </trkpt>
      <trkpt lat="42.922216" lon="-8.259906">
        <ele>372.007</ele>
        <time>2013-05-20T09:07:15Z</time>
      </trkpt>
      <trkpt lat="42.922266" lon="-8.260018">
        <ele>373.029</ele>
        <time>2013-05-20T09:07:21Z</time>
      </trkpt>
      <trkpt lat="42.922331" lon="-8.260104">
        <ele>373.010</ele>
        <time>2013-05-20T09:07:26Z</time>
      </trkpt>
      <trkpt lat="42.922391" lon="-8.260208">
        <ele>373.026</ele>
        <time>2013-05-20T09:07:34Z</time>
      </trkpt>
      <trkpt lat="42.922432" lon="-8.260340">
        <ele>372.042</ele>
        <time>2013-05-20T09:07:40Z</time>
      </trkpt>
      <trkpt lat="42.922442" lon="-8.260471">
        <ele>372.095</ele>
        <time>2013-05-20T09:07:47Z</time>
      </trkpt>
      <trkpt lat="42.922444" lon="-8.260607">
        <ele>373.084</ele>
        <time>2013-05-20T09:07:53Z</time>
      </trkpt>
      <trkpt lat="42.922449" lon="-8.260740">
        <ele>374.083</ele>
        <time>2013-05-20T09:08:00Z</time>
      </trkpt>
      <trkpt lat="42.922474" lon="-8.260863">
        <ele>375.053</ele>
        <time>2013-05-20T09:08:06Z</time>
      </trkpt>
      <trkpt lat="42.922482" lon="-8.260987">
        <ele>375.004</ele>
        <time>2013-05-20T09:08:11Z</time>
      </trkpt>
      <trkpt lat="42.922501" lon="-8.261124">
        <ele>375.014</ele>
        <time>2013-05-20T09:08:17Z</time>
      </trkpt>
      <trkpt lat="42.922504" lon="-8.261267">
        <ele>377.007</ele>
        <time>2013-05-20T09:08:24Z</time>
      </trkpt>
      <trkpt lat="42.922503" lon="-8.261392">
        <ele>377.069</ele>
        <time>2013-05-20T09:08:30Z</time>
      </trkpt>
      <trkpt lat="42.922485" lon="-8.261517">
        <ele>378.010</ele>
        <time>2013-05-20T09:08:36Z</time>
      </trkpt>
      <trkpt lat="42.922516" lon="-8.261652">
        <ele>378.036</ele>
        <time>2013-05-20T09:08:45Z</time>
      </trkpt>
      <trkpt lat="42.922568" lon="-8.261728">
        <ele>377.092</ele>
        <time>2013-05-20T09:08:55Z</time>
      </trkpt>
      <trkpt lat="42.922627" lon="-8.261826">
        <ele>375.085</ele>
        <time>2013-05-20T09:09:04Z</time>
      </trkpt>
      <trkpt lat="42.922700" lon="-8.261928">
        <ele>373.034</ele>
        <time>2013-05-20T09:09:09Z</time>
      </trkpt>
      <trkpt lat="42.922734" lon="-8.262059">
        <ele>374.043</ele>
        <time>2013-05-20T09:09:19Z</time>
      </trkpt>
      <trkpt lat="42.922764" lon="-8.262175">
        <ele>373.096</ele>
        <time>2013-05-20T09:09:29Z</time>
      </trkpt>
      <trkpt lat="42.922812" lon="-8.262306">
        <ele>373.031</ele>
        <time>2013-05-20T09:09:34Z</time>
      </trkpt>
      <trkpt lat="42.922850" lon="-8.262348">
        <ele>372.024</ele>
        <time>2013-05-20T09:09:44Z</time>
      </trkpt>
      <trkpt lat="42.922873" lon="-8.262469">
        <ele>370.007</ele>
        <time>2013-05-20T09:09:50Z</time>
      </trkpt>
      <trkpt lat="42.922886" lon="-8.262606">
        <ele>366.023</ele>
        <time>2013-05-20T09:09:58Z</time>
      </trkpt>
      <trkpt lat="42.922915" lon="-8.262752">
        <ele>364.064</ele>
        <time>2013-05-20T09:10:03Z</time>
      </trkpt>
      <trkpt lat="42.922961" lon="-8.262858">
        <ele>363.020</ele>
        <time>2013-05-20T09:10:08Z</time>
      </trkpt>
      <trkpt lat="42.922984" lon="-8.262954">
        <ele>364.086</ele>
        <time>2013-05-20T09:10:18Z</time>
      </trkpt>
      <trkpt lat="42.923026" lon="-8.263077">
        <ele>365.019</ele>
        <time>2013-05-20T09:10:25Z</time>
      </trkpt>
      <trkpt lat="42.923063" lon="-8.263206">
        <ele>363.028</ele>
        <time>2013-05-20T09:10:32Z</time>
      </trkpt>
      <trkpt lat="42.923105" lon="-8.263335">
        <ele>361.027</ele>
        <time>2013-05-20T09:10:38Z</time>
      </trkpt>
      <trkpt lat="42.923154" lon="-8.263449">
        <ele>357.097</ele>
        <time>2013-05-20T09:10:46Z</time>
      </trkpt>
      <trkpt lat="42.923200" lon="-8.263562">
        <ele>354.023</ele>
        <time>2013-05-20T09:10:53Z</time>
      </trkpt>
      <trkpt lat="42.923249" lon="-8.263673">
        <ele>356.025</ele>
        <time>2013-05-20T09:11:00Z</time>
      </trkpt>
      <trkpt lat="42.923277" lon="-8.263790">
        <ele>356.007</ele>
        <time>2013-05-20T09:11:08Z</time>
      </trkpt>
      <trkpt lat="42.923305" lon="-8.263923">
        <ele>356.013</ele>
        <time>2013-05-20T09:11:15Z</time>
      </trkpt>
      <trkpt lat="42.923357" lon="-8.264037">
        <ele>356.034</ele>
        <time>2013-05-20T09:11:22Z</time>
      </trkpt>
      <trkpt lat="42.923393" lon="-8.264163">
        <ele>358.020</ele>
        <time>2013-05-20T09:11:30Z</time>
      </trkpt>
      <trkpt lat="42.923405" lon="-8.264297">
        <ele>360.026</ele>
        <time>2013-05-20T09:11:36Z</time>
      </trkpt>
      <trkpt lat="42.923417" lon="-8.264428">
        <ele>361.099</ele>
        <time>2013-05-20T09:11:42Z</time>
      </trkpt>
      <trkpt lat="42.923450" lon="-8.264552">
        <ele>362.048</ele>
        <time>2013-05-20T09:11:49Z</time>
      </trkpt>
      <trkpt lat="42.923494" lon="-8.264679">
        <ele>365.087</ele>
        <time>2013-05-20T09:11:56Z</time>
      </trkpt>
      <trkpt lat="42.923513" lon="-8.264806">
        <ele>367.055</ele>
        <time>2013-05-20T09:12:03Z</time>
      </trkpt>
      <trkpt lat="42.923558" lon="-8.264915">
        <ele>366.007</ele>
        <time>2013-05-20T09:12:12Z</time>
      </trkpt>
      <trkpt lat="42.923589" lon="-8.264978">
        <ele>366.017</ele>
        <time>2013-05-20T09:12:23Z</time>
      </trkpt>
      <trkpt lat="42.923582" lon="-8.265102">
        <ele>366.007</ele>
        <time>2013-05-20T09:12:28Z</time>
      </trkpt>
      <trkpt lat="42.923566" lon="-8.265224">
        <ele>366.069</ele>
        <time>2013-05-20T09:12:33Z</time>
      </trkpt>
      <trkpt lat="42.923577" lon="-8.265360">
        <ele>367.070</ele>
        <time>2013-05-20T09:12:40Z</time>
      </trkpt>
      <trkpt lat="42.923621" lon="-8.265475">
        <ele>366.016</ele>
        <time>2013-05-20T09:12:47Z</time>
      </trkpt>
      <trkpt lat="42.923674" lon="-8.265600">
        <ele>365.062</ele>
        <time>2013-05-20T09:12:52Z</time>
      </trkpt>
      <trkpt lat="42.923665" lon="-8.265733">
        <ele>365.055</ele>
        <time>2013-05-20T09:12:58Z</time>
      </trkpt>
      <trkpt lat="42.923612" lon="-8.265833">
        <ele>364.014</ele>
        <time>2013-05-20T09:13:03Z</time>
      </trkpt>
      <trkpt lat="42.923615" lon="-8.265962">
        <ele>364.033</ele>
        <time>2013-05-20T09:13:13Z</time>
      </trkpt>
      <trkpt lat="42.923600" lon="-8.266068">
        <ele>362.089</ele>
        <time>2013-05-20T09:13:23Z</time>
      </trkpt>
      <trkpt lat="42.923570" lon="-8.266193">
        <ele>361.006</ele>
        <time>2013-05-20T09:13:30Z</time>
      </trkpt>
      <trkpt lat="42.923525" lon="-8.266324">
        <ele>361.026</ele>
        <time>2013-05-20T09:13:36Z</time>
      </trkpt>
      <trkpt lat="42.923497" lon="-8.266473">
        <ele>363.007</ele>
        <time>2013-05-20T09:13:43Z</time>
      </trkpt>
      <trkpt lat="42.923476" lon="-8.266595">
        <ele>365.022</ele>
        <time>2013-05-20T09:13:49Z</time>
      </trkpt>
      <trkpt lat="42.923491" lon="-8.266719">
        <ele>366.033</ele>
        <time>2013-05-20T09:13:54Z</time>
      </trkpt>
      <trkpt lat="42.923474" lon="-8.266840">
        <ele>367.059</ele>
        <time>2013-05-20T09:14:01Z</time>
      </trkpt>
      <trkpt lat="42.923479" lon="-8.266972">
        <ele>366.025</ele>
        <time>2013-05-20T09:14:10Z</time>
      </trkpt>
      <trkpt lat="42.923512" lon="-8.267088">
        <ele>367.038</ele>
        <time>2013-05-20T09:14:18Z</time>
      </trkpt>
      <trkpt lat="42.923529" lon="-8.267216">
        <ele>368.037</ele>
        <time>2013-05-20T09:14:27Z</time>
      </trkpt>
      <trkpt lat="42.923566" lon="-8.267329">
        <ele>369.066</ele>
        <time>2013-05-20T09:14:33Z</time>
      </trkpt>
      <trkpt lat="42.923629" lon="-8.267434">
        <ele>372.022</ele>
        <time>2013-05-20T09:14:43Z</time>
      </trkpt>
      <trkpt lat="42.923684" lon="-8.267534">
        <ele>371.062</ele>
        <time>2013-05-20T09:14:48Z</time>
      </trkpt>
      <trkpt lat="42.923766" lon="-8.267625">
        <ele>372.008</ele>
        <time>2013-05-20T09:14:54Z</time>
      </trkpt>
      <trkpt lat="42.923832" lon="-8.267711">
        <ele>375.007</ele>
        <time>2013-05-20T09:14:59Z</time>
      </trkpt>
      <trkpt lat="42.923898" lon="-8.267801">
        <ele>376.036</ele>
        <time>2013-05-20T09:15:09Z</time>
      </trkpt>
      <trkpt lat="42.923975" lon="-8.267880">
        <ele>377.087</ele>
        <time>2013-05-20T09:15:18Z</time>
      </trkpt>
      <trkpt lat="42.924040" lon="-8.267976">
        <ele>379.093</ele>
        <time>2013-05-20T09:15:25Z</time>
      </trkpt>
      <trkpt lat="42.924093" lon="-8.268087">
        <ele>379.019</ele>
        <time>2013-05-20T09:15:31Z</time>
      </trkpt>
      <trkpt lat="42.924168" lon="-8.268171">
        <ele>378.042</ele>
        <time>2013-05-20T09:15:37Z</time>
      </trkpt>
      <trkpt lat="42.924253" lon="-8.268220">
        <ele>376.071</ele>
        <time>2013-05-20T09:15:43Z</time>
      </trkpt>
      <trkpt lat="42.924348" lon="-8.268259">
        <ele>378.090</ele>
        <time>2013-05-20T09:15:51Z</time>
      </trkpt>
      <trkpt lat="42.924413" lon="-8.268322">
        <ele>379.078</ele>
        <time>2013-05-20T09:16:01Z</time>
      </trkpt>
      <trkpt lat="42.924432" lon="-8.268449">
        <ele>381.033</ele>
        <time>2013-05-20T09:16:06Z</time>
      </trkpt>
      <trkpt lat="42.924517" lon="-8.268510">
        <ele>381.026</ele>
        <time>2013-05-20T09:16:13Z</time>
      </trkpt>
      <trkpt lat="42.924568" lon="-8.268539">
        <ele>380.007</ele>
        <time>2013-05-20T09:16:23Z</time>
      </trkpt>
      <trkpt lat="42.924620" lon="-8.268641">
        <ele>380.031</ele>
        <time>2013-05-20T09:16:27Z</time>
      </trkpt>
      <trkpt lat="42.924674" lon="-8.268746">
        <ele>381.032</ele>
        <time>2013-05-20T09:16:32Z</time>
      </trkpt>
      <trkpt lat="42.924763" lon="-8.268825">
        <ele>381.018</ele>
        <time>2013-05-20T09:16:38Z</time>
      </trkpt>
      <trkpt lat="42.924837" lon="-8.268915">
        <ele>381.034</ele>
        <time>2013-05-20T09:16:44Z</time>
      </trkpt>
      <trkpt lat="42.924859" lon="-8.269054">
        <ele>381.097</ele>
        <time>2013-05-20T09:16:52Z</time>
      </trkpt>
      <trkpt lat="42.924911" lon="-8.269171">
        <ele>381.066</ele>
        <time>2013-05-20T09:16:59Z</time>
      </trkpt>
      <trkpt lat="42.924943" lon="-8.269287">
        <ele>381.055</ele>
        <time>2013-05-20T09:17:06Z</time>
      </trkpt>
      <trkpt lat="42.924964" lon="-8.269342">
        <ele>381.091</ele>
        <time>2013-05-20T09:17:16Z</time>
      </trkpt>
      <trkpt lat="42.924975" lon="-8.269484">
        <ele>381.081</ele>
        <time>2013-05-20T09:17:24Z</time>
      </trkpt>
      <trkpt lat="42.924990" lon="-8.269629">
        <ele>381.019</ele>
        <time>2013-05-20T09:17:32Z</time>
      </trkpt>
      <trkpt lat="42.925000" lon="-8.269754">
        <ele>381.007</ele>
        <time>2013-05-20T09:17:39Z</time>
      </trkpt>
      <trkpt lat="42.925024" lon="-8.269879">
        <ele>380.033</ele>
        <time>2013-05-20T09:17:47Z</time>
      </trkpt>
      <trkpt lat="42.925049" lon="-8.270010">
        <ele>381.054</ele>
        <time>2013-05-20T09:17:52Z</time>
      </trkpt>
      <trkpt lat="42.925077" lon="-8.270144">
        <ele>380.090</ele>
        <time>2013-05-20T09:17:57Z</time>
      </trkpt>
      <trkpt lat="42.925117" lon="-8.270268">
        <ele>381.016</ele>
        <time>2013-05-20T09:18:03Z</time>
      </trkpt>
      <trkpt lat="42.925136" lon="-8.270390">
        <ele>379.029</ele>
        <time>2013-05-20T09:18:08Z</time>
      </trkpt>
      <trkpt lat="42.925141" lon="-8.270519">
        <ele>380.068</ele>
        <time>2013-05-20T09:18:15Z</time>
      </trkpt>
      <trkpt lat="42.925117" lon="-8.270640">
        <ele>378.027</ele>
        <time>2013-05-20T09:18:22Z</time>
      </trkpt>
      <trkpt lat="42.925160" lon="-8.270751">
        <ele>377.087</ele>
        <time>2013-05-20T09:18:29Z</time>
      </trkpt>
      <trkpt lat="42.925216" lon="-8.270847">
        <ele>376.042</ele>
        <time>2013-05-20T09:18:35Z</time>
      </trkpt>
      <trkpt lat="42.925228" lon="-8.270979">
        <ele>375.026</ele>
        <time>2013-05-20T09:18:44Z</time>
      </trkpt>
      <trkpt lat="42.925227" lon="-8.271127">
        <ele>375.007</ele>
        <time>2013-05-20T09:18:51Z</time>
      </trkpt>
      <trkpt lat="42.925251" lon="-8.271249">
        <ele>373.022</ele>
        <time>2013-05-20T09:18:59Z</time>
      </trkpt>
      <trkpt lat="42.925299" lon="-8.271373">
        <ele>370.093</ele>
        <time>2013-05-20T09:19:08Z</time>
      </trkpt>
      <trkpt lat="42.925323" lon="-8.271508">
        <ele>369.059</ele>
        <time>2013-05-20T09:19:14Z</time>
      </trkpt>
      <trkpt lat="42.925341" lon="-8.271630">
        <ele>370.065</ele>
        <time>2013-05-20T09:19:19Z</time>
      </trkpt>
      <trkpt lat="42.925374" lon="-8.271750">
        <ele>369.038</ele>
        <time>2013-05-20T09:19:28Z</time>
      </trkpt>
      <trkpt lat="42.925400" lon="-8.271871">
        <ele>370.047</ele>
        <time>2013-05-20T09:19:35Z</time>
      </trkpt>
      <trkpt lat="42.925411" lon="-8.271998">
        <ele>371.036</ele>
        <time>2013-05-20T09:19:42Z</time>
      </trkpt>
      <trkpt lat="42.925412" lon="-8.272121">
        <ele>371.045</ele>
        <time>2013-05-20T09:19:51Z</time>
      </trkpt>
      <trkpt lat="42.925439" lon="-8.272240">
        <ele>370.047</ele>
        <time>2013-05-20T09:19:59Z</time>
      </trkpt>
      <trkpt lat="42.925481" lon="-8.272369">
        <ele>371.011</ele>
        <time>2013-05-20T09:20:05Z</time>
      </trkpt>
      <trkpt lat="42.925498" lon="-8.272502">
        <ele>374.007</ele>
        <time>2013-05-20T09:20:11Z</time>
      </trkpt>
      <trkpt lat="42.925521" lon="-8.272637">
        <ele>373.078</ele>
        <time>2013-05-20T09:20:18Z</time>
      </trkpt>
      <trkpt lat="42.925559" lon="-8.272755">
        <ele>375.059</ele>
        <time>2013-05-20T09:20:25Z</time>
      </trkpt>
      <trkpt lat="42.925595" lon="-8.272881">
        <ele>376.035</ele>
        <time>2013-05-20T09:20:31Z</time>
      </trkpt>
      <trkpt lat="42.925635" lon="-8.272993">
        <ele>378.051</ele>
        <time>2013-05-20T09:20:37Z</time>
      </trkpt>
      <trkpt lat="42.925680" lon="-8.273104">
        <ele>383.034</ele>
        <time>2013-05-20T09:20:45Z</time>
      </trkpt>
      <trkpt lat="42.925682" lon="-8.273228">
        <ele>382.013</ele>
        <time>2013-05-20T09:20:55Z</time>
      </trkpt>
      <trkpt lat="42.925697" lon="-8.273357">
        <ele>380.022</ele>
        <time>2013-05-20T09:21:04Z</time>
      </trkpt>
      <trkpt lat="42.925738" lon="-8.273479">
        <ele>379.082</ele>
        <time>2013-05-20T09:21:13Z</time>
      </trkpt>
      <trkpt lat="42.925762" lon="-8.273599">
        <ele>376.043</ele>
        <time>2013-05-20T09:21:18Z</time>
      </trkpt>
      <trkpt lat="42.925795" lon="-8.273716">
        <ele>377.017</ele>
        <time>2013-05-20T09:21:24Z</time>
      </trkpt>
      <trkpt lat="42.925826" lon="-8.273842">
        <ele>377.007</ele>
        <time>2013-05-20T09:21:30Z</time>
      </trkpt>
      <trkpt lat="42.925870" lon="-8.273966">
        <ele>375.082</ele>
        <time>2013-05-20T09:21:37Z</time>
      </trkpt>
      <trkpt lat="42.925939" lon="-8.274064">
        <ele>373.033</ele>
        <time>2013-05-20T09:21:43Z</time>
      </trkpt>
      <trkpt lat="42.925976" lon="-8.274133">
        <ele>374.019</ele>
        <time>2013-05-20T09:21:53Z</time>
      </trkpt>
      <trkpt lat="42.926048" lon="-8.274206">
        <ele>373.095</ele>
        <time>2013-05-20T09:22:03Z</time>
      </trkpt>
      <trkpt lat="42.926109" lon="-8.274323">
        <ele>373.048</ele>
        <time>2013-05-20T09:22:09Z</time>
      </trkpt>
      <trkpt lat="42.926153" lon="-8.274436">
        <ele>371.037</ele>
        <time>2013-05-20T09:22:16Z</time>
      </trkpt>
      <trkpt lat="42.926207" lon="-8.274555">
        <ele>372.036</ele>
        <time>2013-05-20T09:22:22Z</time>
      </trkpt>
      <trkpt lat="42.926246" lon="-8.274676">
        <ele>372.024</ele>
        <time>2013-05-20T09:22:29Z</time>
      </trkpt>
      <trkpt lat="42.926281" lon="-8.274801">
        <ele>372.004</ele>
        <time>2013-05-20T09:22:35Z</time>
      </trkpt>
      <trkpt lat="42.926311" lon="-8.274917">
        <ele>371.014</ele>
        <time>2013-05-20T09:22:41Z</time>
      </trkpt>
      <trkpt lat="42.926349" lon="-8.275045">
        <ele>372.007</ele>
        <time>2013-05-20T09:22:45Z</time>
      </trkpt>
      <trkpt lat="42.926366" lon="-8.275167">
        <ele>371.066</ele>
        <time>2013-05-20T09:22:48Z</time>
      </trkpt>
      <trkpt lat="42.926368" lon="-8.275237">
        <ele>372.047</ele>
        <time>2013-05-20T09:22:59Z</time>
      </trkpt>
      <trkpt lat="42.926398" lon="-8.275355">
        <ele>370.053</ele>
        <time>2013-05-20T09:23:08Z</time>
      </trkpt>
      <trkpt lat="42.926421" lon="-8.275479">
        <ele>370.039</ele>
        <time>2013-05-20T09:23:17Z</time>
      </trkpt>
      <trkpt lat="42.926420" lon="-8.275608">
        <ele>372.032</ele>
        <time>2013-05-20T09:23:24Z</time>
      </trkpt>
      <trkpt lat="42.926441" lon="-8.275746">
        <ele>372.041</ele>
        <time>2013-05-20T09:23:33Z</time>
      </trkpt>
      <trkpt lat="42.926470" lon="-8.275864">
        <ele>372.050</ele>
        <time>2013-05-20T09:23:41Z</time>
      </trkpt>
      <trkpt lat="42.926464" lon="-8.275992">
        <ele>371.045</ele>
        <time>2013-05-20T09:23:49Z</time>
      </trkpt>
      <trkpt lat="42.926498" lon="-8.276113">
        <ele>371.047</ele>
        <time>2013-05-20T09:23:57Z</time>
      </trkpt>
      <trkpt lat="42.926497" lon="-8.276256">
        <ele>372.011</ele>
        <time>2013-05-20T09:24:03Z</time>
      </trkpt>
      <trkpt lat="42.926487" lon="-8.276385">
        <ele>372.007</ele>
        <time>2013-05-20T09:24:10Z</time>
      </trkpt>
      <trkpt lat="42.926488" lon="-8.276517">
        <ele>369.088</ele>
        <time>2013-05-20T09:24:19Z</time>
      </trkpt>
      <trkpt lat="42.926485" lon="-8.276655">
        <ele>372.059</ele>
        <time>2013-05-20T09:24:26Z</time>
      </trkpt>
      <trkpt lat="42.926461" lon="-8.276797">
        <ele>370.045</ele>
        <time>2013-05-20T09:24:33Z</time>
      </trkpt>
      <trkpt lat="42.926416" lon="-8.276910">
        <ele>370.031</ele>
        <time>2013-05-20T09:24:40Z</time>
      </trkpt>
      <trkpt lat="42.926403" lon="-8.277048">
        <ele>370.084</ele>
        <time>2013-05-20T09:24:46Z</time>
      </trkpt>
      <trkpt lat="42.926369" lon="-8.277165">
        <ele>370.073</ele>
        <time>2013-05-20T09:24:53Z</time>
      </trkpt>
      <trkpt lat="42.926384" lon="-8.277255">
        <ele>368.012</ele>
        <time>2013-05-20T09:25:03Z</time>
      </trkpt>
      <trkpt lat="42.926329" lon="-8.277368">
        <ele>368.047</ele>
        <time>2013-05-20T09:25:13Z</time>
      </trkpt>
      <trkpt lat="42.926304" lon="-8.277449">
        <ele>368.029</ele>
        <time>2013-05-20T09:25:23Z</time>
      </trkpt>
      <trkpt lat="42.926304" lon="-8.277517">
        <ele>367.021</ele>
        <time>2013-05-20T09:25:34Z</time>
      </trkpt>
      <trkpt lat="42.926298" lon="-8.277653">
        <ele>366.007</ele>
        <time>2013-05-20T09:25:39Z</time>
      </trkpt>
      <trkpt lat="42.926288" lon="-8.277791">
        <ele>365.088</ele>
        <time>2013-05-20T09:25:44Z</time>
      </trkpt>
      <trkpt lat="42.926295" lon="-8.277926">
        <ele>364.029</ele>
        <time>2013-05-20T09:25:50Z</time>
      </trkpt>
      <trkpt lat="42.926310" lon="-8.278059">
        <ele>361.085</ele>
        <time>2013-05-20T09:25:57Z</time>
      </trkpt>
      <trkpt lat="42.926315" lon="-8.278184">
        <ele>362.021</ele>
        <time>2013-05-20T09:26:03Z</time>
      </trkpt>
      <trkpt lat="42.926331" lon="-8.278324">
        <ele>363.044</ele>
        <time>2013-05-20T09:26:11Z</time>
      </trkpt>
      <trkpt lat="42.926340" lon="-8.278458">
        <ele>364.013</ele>
        <time>2013-05-20T09:26:19Z</time>
      </trkpt>
      <trkpt lat="42.926332" lon="-8.278586">
        <ele>360.072</ele>
        <time>2013-05-20T09:26:25Z</time>
      </trkpt>
      <trkpt lat="42.926388" lon="-8.278679">
        <ele>361.047</ele>
        <time>2013-05-20T09:26:35Z</time>
      </trkpt>
      <trkpt lat="42.926389" lon="-8.278822">
        <ele>360.029</ele>
        <time>2013-05-20T09:26:43Z</time>
      </trkpt>
      <trkpt lat="42.926392" lon="-8.278948">
        <ele>362.021</ele>
        <time>2013-05-20T09:26:48Z</time>
      </trkpt>
      <trkpt lat="42.926392" lon="-8.279077">
        <ele>361.007</ele>
        <time>2013-05-20T09:26:54Z</time>
      </trkpt>
      <trkpt lat="42.926405" lon="-8.279199">
        <ele>362.038</ele>
        <time>2013-05-20T09:27:01Z</time>
      </trkpt>
      <trkpt lat="42.926437" lon="-8.279324">
        <ele>364.019</ele>
        <time>2013-05-20T09:27:09Z</time>
      </trkpt>
      <trkpt lat="42.926447" lon="-8.279453">
        <ele>364.015</ele>
        <time>2013-05-20T09:27:18Z</time>
      </trkpt>
      <trkpt lat="42.926443" lon="-8.279548">
        <ele>360.071</ele>
        <time>2013-05-20T09:27:28Z</time>
      </trkpt>
      <trkpt lat="42.926483" lon="-8.279676">
        <ele>361.044</ele>
        <time>2013-05-20T09:27:37Z</time>
      </trkpt>
      <trkpt lat="42.926479" lon="-8.279810">
        <ele>360.063</ele>
        <time>2013-05-20T09:27:43Z</time>
      </trkpt>
      <trkpt lat="42.926465" lon="-8.279961">
        <ele>362.092</ele>
        <time>2013-05-20T09:27:50Z</time>
      </trkpt>
      <trkpt lat="42.926448" lon="-8.280093">
        <ele>361.046</ele>
        <time>2013-05-20T09:27:56Z</time>
      </trkpt>
      <trkpt lat="42.926449" lon="-8.280216">
        <ele>362.088</ele>
        <time>2013-05-20T09:28:06Z</time>
      </trkpt>
      <trkpt lat="42.926442" lon="-8.280339">
        <ele>361.016</ele>
        <time>2013-05-20T09:28:20Z</time>
      </trkpt>
      <trkpt lat="42.926403" lon="-8.280466">
        <ele>365.007</ele>
        <time>2013-05-20T09:28:25Z</time>
      </trkpt>
      <trkpt lat="42.926370" lon="-8.280585">
        <ele>365.058</ele>
        <time>2013-05-20T09:28:32Z</time>
      </trkpt>
      <trkpt lat="42.926347" lon="-8.280723">
        <ele>364.079</ele>
        <time>2013-05-20T09:28:38Z</time>
      </trkpt>
      <trkpt lat="42.926321" lon="-8.280859">
        <ele>366.095</ele>
        <time>2013-05-20T09:28:43Z</time>
      </trkpt>
      <trkpt lat="42.926305" lon="-8.280983">
        <ele>365.061</ele>
        <time>2013-05-20T09:28:51Z</time>
      </trkpt>
      <trkpt lat="42.926277" lon="-8.281083">
        <ele>364.064</ele>
        <time>2013-05-20T09:29:10Z</time>
      </trkpt>
      <trkpt lat="42.926247" lon="-8.281216">
        <ele>362.083</ele>
        <time>2013-05-20T09:29:16Z</time>
      </trkpt>
      <trkpt lat="42.926213" lon="-8.281353">
        <ele>362.022</ele>
        <time>2013-05-20T09:29:21Z</time>
      </trkpt>
      <trkpt lat="42.926184" lon="-8.281479">
        <ele>361.052</ele>
        <time>2013-05-20T09:29:27Z</time>
      </trkpt>
      <trkpt lat="42.926151" lon="-8.281594">
        <ele>360.053</ele>
        <time>2013-05-20T09:29:34Z</time>
      </trkpt>
      <trkpt lat="42.926132" lon="-8.281719">
        <ele>361.008</ele>
        <time>2013-05-20T09:29:40Z</time>
      </trkpt>
      <trkpt lat="42.926112" lon="-8.281851">
        <ele>359.007</ele>
        <time>2013-05-20T09:29:48Z</time>
      </trkpt>
      <trkpt lat="42.926068" lon="-8.281876">
        <ele>359.079</ele>
        <time>2013-05-20T09:29:58Z</time>
      </trkpt>
      <trkpt lat="42.925997" lon="-8.281960">
        <ele>361.060</ele>
        <time>2013-05-20T09:30:07Z</time>
      </trkpt>
      <trkpt lat="42.925918" lon="-8.282076">
        <ele>361.046</ele>
        <time>2013-05-20T09:30:11Z</time>
      </trkpt>
      <trkpt lat="42.925851" lon="-8.282158">
        <ele>361.022</ele>
        <time>2013-05-20T09:30:15Z</time>
      </trkpt>
      <trkpt lat="42.925820" lon="-8.282242">
        <ele>359.035</ele>
        <time>2013-05-20T09:30:26Z</time>
      </trkpt>
      <trkpt lat="42.925783" lon="-8.282371">
        <ele>359.054</ele>
        <time>2013-05-20T09:30:31Z</time>
      </trkpt>
      <trkpt lat="42.925749" lon="-8.282502">
        <ele>360.083</ele>
        <time>2013-05-20T09:30:36Z</time>
      </trkpt>
      <trkpt lat="42.925695" lon="-8.282608">
        <ele>361.066</ele>
        <time>2013-05-20T09:30:42Z</time>
      </trkpt>
      <trkpt lat="42.925628" lon="-8.282698">
        <ele>365.029</ele>
        <time>2013-05-20T09:30:47Z</time>
      </trkpt>
      <trkpt lat="42.925561" lon="-8.282791">
        <ele>364.021</ele>
        <time>2013-05-20T09:30:54Z</time>
      </trkpt>
      <trkpt lat="42.925475" lon="-8.282888">
        <ele>367.007</ele>
        <time>2013-05-20T09:31:03Z</time>
      </trkpt>
      <trkpt lat="42.925401" lon="-8.282980">
        <ele>368.060</ele>
        <time>2013-05-20T09:31:07Z</time>
      </trkpt>
      <trkpt lat="42.925325" lon="-8.283065">
        <ele>368.091</ele>
        <time>2013-05-20T09:31:12Z</time>
      </trkpt>
      <trkpt lat="42.925264" lon="-8.283173">
        <ele>369.077</ele>
        <time>2013-05-20T09:31:20Z</time>
      </trkpt>
      <trkpt lat="42.925195" lon="-8.283272">
        <ele>371.033</ele>
        <time>2013-05-20T09:31:26Z</time>
      </trkpt>
      <trkpt lat="42.925129" lon="-8.283362">
        <ele>371.096</ele>
        <time>2013-05-20T09:31:32Z</time>
      </trkpt>
      <trkpt lat="42.925082" lon="-8.283364">
        <ele>371.055</ele>
        <time>2013-05-20T09:31:42Z</time>
      </trkpt>
      <trkpt lat="42.925172" lon="-8.283390">
        <ele>369.074</ele>
        <time>2013-05-20T09:31:50Z</time>
      </trkpt>
      <trkpt lat="42.925263" lon="-8.283394">
        <ele>372.066</ele>
        <time>2013-05-20T09:31:59Z</time>
      </trkpt>
      <trkpt lat="42.925338" lon="-8.283429">
        <ele>372.029</ele>
        <time>2013-05-20T09:32:09Z</time>
      </trkpt>
      <trkpt lat="42.925338" lon="-8.283518">
        <ele>374.021</ele>
        <time>2013-05-20T09:32:22Z</time>
      </trkpt>
      <trkpt lat="42.925313" lon="-8.283592">
        <ele>374.007</ele>
        <time>2013-05-20T09:32:32Z</time>
      </trkpt>
      <trkpt lat="42.925313" lon="-8.283592">
        <ele>374.030</ele>
        <time>2013-05-20T09:33:02Z</time>
      </trkpt>
      <trkpt lat="42.925363" lon="-8.283591">
        <ele>376.021</ele>
        <time>2013-05-20T09:47:11Z</time>
      </trkpt>
      <trkpt lat="42.925385" lon="-8.283731">
        <ele>376.067</ele>
        <time>2013-05-20T09:47:19Z</time>
      </trkpt>
      <trkpt lat="42.925367" lon="-8.283854">
        <ele>376.013</ele>
        <time>2013-05-20T09:47:27Z</time>
      </trkpt>
      <trkpt lat="42.925399" lon="-8.283977">
        <ele>379.036</ele>
        <time>2013-05-20T09:47:37Z</time>
      </trkpt>
      <trkpt lat="42.925689" lon="-8.284131">
        <ele>380.045</ele>
        <time>2013-05-20T09:47:41Z</time>
      </trkpt>
      <trkpt lat="42.925633" lon="-8.284254">
        <ele>379.054</ele>
        <time>2013-05-20T09:47:50Z</time>
      </trkpt>
      <trkpt lat="42.925618" lon="-8.284377">
        <ele>380.059</ele>
        <time>2013-05-20T09:47:58Z</time>
      </trkpt>
      <trkpt lat="42.925600" lon="-8.284507">
        <ele>386.003</ele>
        <time>2013-05-20T09:48:06Z</time>
      </trkpt>
      <trkpt lat="42.925639" lon="-8.284658">
        <ele>382.023</ele>
        <time>2013-05-20T09:48:09Z</time>
      </trkpt>
      <trkpt lat="42.925561" lon="-8.284741">
        <ele>381.007</ele>
        <time>2013-05-20T09:48:14Z</time>
      </trkpt>
      <trkpt lat="42.925482" lon="-8.284811">
        <ele>382.019</ele>
        <time>2013-05-20T09:48:19Z</time>
      </trkpt>
      <trkpt lat="42.925450" lon="-8.284870">
        <ele>379.060</ele>
        <time>2013-05-20T09:48:29Z</time>
      </trkpt>
      <trkpt lat="42.925399" lon="-8.284992">
        <ele>379.066</ele>
        <time>2013-05-20T09:48:39Z</time>
      </trkpt>
      <trkpt lat="42.925333" lon="-8.285043">
        <ele>378.032</ele>
        <time>2013-05-20T09:48:49Z</time>
      </trkpt>
      <trkpt lat="42.925368" lon="-8.285122">
        <ele>378.065</ele>
        <time>2013-05-20T09:48:59Z</time>
      </trkpt>
      <trkpt lat="42.925432" lon="-8.285187">
        <ele>379.094</ele>
        <time>2013-05-20T09:49:09Z</time>
      </trkpt>
      <trkpt lat="42.925373" lon="-8.285193">
        <ele>381.083</ele>
        <time>2013-05-20T09:49:39Z</time>
      </trkpt>
      <trkpt lat="42.925339" lon="-8.285324">
        <ele>378.047</ele>
        <time>2013-05-20T09:49:44Z</time>
      </trkpt>
      <trkpt lat="42.925303" lon="-8.285440">
        <ele>377.029</ele>
        <time>2013-05-20T09:49:49Z</time>
      </trkpt>
      <trkpt lat="42.925267" lon="-8.285570">
        <ele>377.021</ele>
        <time>2013-05-20T09:49:53Z</time>
      </trkpt>
      <trkpt lat="42.925241" lon="-8.285691">
        <ele>378.007</ele>
        <time>2013-05-20T09:49:59Z</time>
      </trkpt>
      <trkpt lat="42.925221" lon="-8.285817">
        <ele>382.098</ele>
        <time>2013-05-20T09:50:06Z</time>
      </trkpt>
      <trkpt lat="42.925200" lon="-8.285954">
        <ele>383.069</ele>
        <time>2013-05-20T09:50:13Z</time>
      </trkpt>
      <trkpt lat="42.925172" lon="-8.286082">
        <ele>382.015</ele>
        <time>2013-05-20T09:50:22Z</time>
      </trkpt>
      <trkpt lat="42.925193" lon="-8.286204">
        <ele>383.061</ele>
        <time>2013-05-20T09:50:32Z</time>
      </trkpt>
      <trkpt lat="42.925218" lon="-8.286327">
        <ele>384.064</ele>
        <time>2013-05-20T09:50:39Z</time>
      </trkpt>
      <trkpt lat="42.925222" lon="-8.286450">
        <ele>386.023</ele>
        <time>2013-05-20T09:50:44Z</time>
      </trkpt>
      <trkpt lat="42.925238" lon="-8.286585">
        <ele>385.042</ele>
        <time>2013-05-20T09:50:50Z</time>
      </trkpt>
      <trkpt lat="42.925225" lon="-8.286705">
        <ele>386.062</ele>
        <time>2013-05-20T09:51:00Z</time>
      </trkpt>
      <trkpt lat="42.925188" lon="-8.286819">
        <ele>384.083</ele>
        <time>2013-05-20T09:51:07Z</time>
      </trkpt>
      <trkpt lat="42.925169" lon="-8.286939">
        <ele>380.011</ele>
        <time>2013-05-20T09:51:14Z</time>
      </trkpt>
      <trkpt lat="42.925177" lon="-8.287073">
        <ele>378.007</ele>
        <time>2013-05-20T09:51:24Z</time>
      </trkpt>
      <trkpt lat="42.925161" lon="-8.287207">
        <ele>379.080</ele>
        <time>2013-05-20T09:51:29Z</time>
      </trkpt>
      <trkpt lat="42.925148" lon="-8.287336">
        <ele>380.081</ele>
        <time>2013-05-20T09:51:34Z</time>
      </trkpt>
      <trkpt lat="42.925138" lon="-8.287467">
        <ele>381.057</ele>
        <time>2013-05-20T09:51:41Z</time>
      </trkpt>
      <trkpt lat="42.925086" lon="-8.287587">
        <ele>383.013</ele>
        <time>2013-05-20T09:51:51Z</time>
      </trkpt>
      <trkpt lat="42.925052" lon="-8.287717">
        <ele>383.016</ele>
        <time>2013-05-20T09:51:57Z</time>
      </trkpt>
      <trkpt lat="42.925014" lon="-8.287834">
        <ele>382.075</ele>
        <time>2013-05-20T09:52:03Z</time>
      </trkpt>
      <trkpt lat="42.924990" lon="-8.287966">
        <ele>381.054</ele>
        <time>2013-05-20T09:52:08Z</time>
      </trkpt>
      <trkpt lat="42.924954" lon="-8.288091">
        <ele>381.013</ele>
        <time>2013-05-20T09:52:15Z</time>
      </trkpt>
      <trkpt lat="42.924921" lon="-8.288213">
        <ele>382.043</ele>
        <time>2013-05-20T09:52:22Z</time>
      </trkpt>
      <trkpt lat="42.924890" lon="-8.288347">
        <ele>380.007</ele>
        <time>2013-05-20T09:52:30Z</time>
      </trkpt>
      <trkpt lat="42.924834" lon="-8.288453">
        <ele>383.007</ele>
        <time>2013-05-20T09:52:37Z</time>
      </trkpt>
      <trkpt lat="42.924777" lon="-8.288561">
        <ele>381.085</ele>
        <time>2013-05-20T09:52:45Z</time>
      </trkpt>
      <trkpt lat="42.924718" lon="-8.288678">
        <ele>380.086</ele>
        <time>2013-05-20T09:52:52Z</time>
      </trkpt>
      <trkpt lat="42.924642" lon="-8.288759">
        <ele>380.062</ele>
        <time>2013-05-20T09:52:58Z</time>
      </trkpt>
      <trkpt lat="42.924583" lon="-8.288835">
        <ele>381.098</ele>
        <time>2013-05-20T09:53:08Z</time>
      </trkpt>
      <trkpt lat="42.924570" lon="-8.288968">
        <ele>381.061</ele>
        <time>2013-05-20T09:53:25Z</time>
      </trkpt>
      <trkpt lat="42.924529" lon="-8.289094">
        <ele>386.020</ele>
        <time>2013-05-20T09:53:30Z</time>
      </trkpt>
      <trkpt lat="42.924499" lon="-8.289216">
        <ele>381.079</ele>
        <time>2013-05-20T09:53:35Z</time>
      </trkpt>
      <trkpt lat="42.924469" lon="-8.289356">
        <ele>376.085</ele>
        <time>2013-05-20T09:53:43Z</time>
      </trkpt>
      <trkpt lat="42.924432" lon="-8.289486">
        <ele>379.089</ele>
        <time>2013-05-20T09:53:50Z</time>
      </trkpt>
      <trkpt lat="42.924392" lon="-8.289627">
        <ele>383.017</ele>
        <time>2013-05-20T09:53:55Z</time>
      </trkpt>
      <trkpt lat="42.924341" lon="-8.289763">
        <ele>384.007</ele>
        <time>2013-05-20T09:53:59Z</time>
      </trkpt>
      <trkpt lat="42.924310" lon="-8.289876">
        <ele>381.062</ele>
        <time>2013-05-20T09:54:09Z</time>
      </trkpt>
      <trkpt lat="42.924302" lon="-8.290001">
        <ele>382.023</ele>
        <time>2013-05-20T09:54:19Z</time>
      </trkpt>
      <trkpt lat="42.924270" lon="-8.290120">
        <ele>381.049</ele>
        <time>2013-05-20T09:54:28Z</time>
      </trkpt>
      <trkpt lat="42.924225" lon="-8.290248">
        <ele>383.025</ele>
        <time>2013-05-20T09:54:35Z</time>
      </trkpt>
      <trkpt lat="42.924157" lon="-8.290336">
        <ele>384.068</ele>
        <time>2013-05-20T09:54:41Z</time>
      </trkpt>
      <trkpt lat="42.924062" lon="-8.290364">
        <ele>384.017</ele>
        <time>2013-05-20T09:54:47Z</time>
      </trkpt>
      <trkpt lat="42.923985" lon="-8.290432">
        <ele>383.086</ele>
        <time>2013-05-20T09:54:53Z</time>
      </trkpt>
      <trkpt lat="42.923916" lon="-8.290537">
        <ele>385.074</ele>
        <time>2013-05-20T09:54:59Z</time>
      </trkpt>
      <trkpt lat="42.923851" lon="-8.290637">
        <ele>386.056</ele>
        <time>2013-05-20T09:55:07Z</time>
      </trkpt>
      <trkpt lat="42.923786" lon="-8.290734">
        <ele>387.021</ele>
        <time>2013-05-20T09:55:15Z</time>
      </trkpt>
      <trkpt lat="42.923746" lon="-8.290853">
        <ele>385.007</ele>
        <time>2013-05-20T09:55:23Z</time>
      </trkpt>
      <trkpt lat="42.923700" lon="-8.290978">
        <ele>385.081</ele>
        <time>2013-05-20T09:55:30Z</time>
      </trkpt>
      <trkpt lat="42.923661" lon="-8.291093">
        <ele>386.032</ele>
        <time>2013-05-20T09:55:37Z</time>
      </trkpt>
      <trkpt lat="42.923629" lon="-8.291214">
        <ele>386.078</ele>
        <time>2013-05-20T09:55:43Z</time>
      </trkpt>
      <trkpt lat="42.923562" lon="-8.291280">
        <ele>387.034</ele>
        <time>2013-05-20T09:55:53Z</time>
      </trkpt>
      <trkpt lat="42.923472" lon="-8.291343">
        <ele>388.027</ele>
        <time>2013-05-20T09:56:01Z</time>
      </trkpt>
      <trkpt lat="42.923388" lon="-8.291386">
        <ele>389.056</ele>
        <time>2013-05-20T09:56:07Z</time>
      </trkpt>
      <trkpt lat="42.923295" lon="-8.291432">
        <ele>387.075</ele>
        <time>2013-05-20T09:56:14Z</time>
      </trkpt>
      <trkpt lat="42.923242" lon="-8.291535">
        <ele>385.034</ele>
        <time>2013-05-20T09:56:22Z</time>
      </trkpt>
      <trkpt lat="42.923249" lon="-8.291635">
        <ele>386.055</ele>
        <time>2013-05-20T09:56:32Z</time>
      </trkpt>
      <trkpt lat="42.923250" lon="-8.291764">
        <ele>385.010</ele>
        <time>2013-05-20T09:56:41Z</time>
      </trkpt>
      <trkpt lat="42.923197" lon="-8.291876">
        <ele>386.007</ele>
        <time>2013-05-20T09:56:47Z</time>
      </trkpt>
      <trkpt lat="42.923165" lon="-8.291994">
        <ele>386.097</ele>
        <time>2013-05-20T09:56:54Z</time>
      </trkpt>
      <trkpt lat="42.923158" lon="-8.292127">
        <ele>383.058</ele>
        <time>2013-05-20T09:57:00Z</time>
      </trkpt>
      <trkpt lat="42.923115" lon="-8.292248">
        <ele>383.034</ele>
        <time>2013-05-20T09:57:07Z</time>
      </trkpt>
      <trkpt lat="42.923051" lon="-8.292342">
        <ele>383.020</ele>
        <time>2013-05-20T09:57:12Z</time>
      </trkpt>
      <trkpt lat="42.922984" lon="-8.292440">
        <ele>384.043</ele>
        <time>2013-05-20T09:57:18Z</time>
      </trkpt>
      <trkpt lat="42.922931" lon="-8.292540">
        <ele>386.092</ele>
        <time>2013-05-20T09:57:27Z</time>
      </trkpt>
      <trkpt lat="42.922891" lon="-8.292654">
        <ele>386.061</ele>
        <time>2013-05-20T09:57:32Z</time>
      </trkpt>
      <trkpt lat="42.922800" lon="-8.292735">
        <ele>387.087</ele>
        <time>2013-05-20T09:57:40Z</time>
      </trkpt>
      <trkpt lat="42.922748" lon="-8.292855">
        <ele>388.042</ele>
        <time>2013-05-20T09:57:46Z</time>
      </trkpt>
      <trkpt lat="42.922745" lon="-8.292980">
        <ele>390.026</ele>
        <time>2013-05-20T09:57:51Z</time>
      </trkpt>
      <trkpt lat="42.922730" lon="-8.293108">
        <ele>390.007</ele>
        <time>2013-05-20T09:57:57Z</time>
      </trkpt>
      <trkpt lat="42.922720" lon="-8.293243">
        <ele>395.082</ele>
        <time>2013-05-20T09:58:06Z</time>
      </trkpt>
      <trkpt lat="42.922653" lon="-8.293353">
        <ele>398.063</ele>
        <time>2013-05-20T09:58:11Z</time>
      </trkpt>
      <trkpt lat="42.922587" lon="-8.293443">
        <ele>400.079</ele>
        <time>2013-05-20T09:58:16Z</time>
      </trkpt>
      <trkpt lat="42.922567" lon="-8.293504">
        <ele>399.045</ele>
        <time>2013-05-20T09:58:26Z</time>
      </trkpt>
      <trkpt lat="42.922537" lon="-8.293591">
        <ele>401.078</ele>
        <time>2013-05-20T09:58:36Z</time>
      </trkpt>
      <trkpt lat="42.922458" lon="-8.293743">
        <ele>401.057</ele>
        <time>2013-05-20T09:58:42Z</time>
      </trkpt>
      <trkpt lat="42.922433" lon="-8.293799">
        <ele>401.076</ele>
        <time>2013-05-20T09:58:52Z</time>
      </trkpt>
      <trkpt lat="42.922371" lon="-8.293908">
        <ele>400.073</ele>
        <time>2013-05-20T09:59:00Z</time>
      </trkpt>
      <trkpt lat="42.922306" lon="-8.294015">
        <ele>401.085</ele>
        <time>2013-05-20T09:59:06Z</time>
      </trkpt>
      <trkpt lat="42.922268" lon="-8.294139">
        <ele>399.013</ele>
        <time>2013-05-20T09:59:11Z</time>
      </trkpt>
      <trkpt lat="42.922225" lon="-8.294257">
        <ele>398.007</ele>
        <time>2013-05-20T09:59:16Z</time>
      </trkpt>
      <trkpt lat="42.922182" lon="-8.294368">
        <ele>399.011</ele>
        <time>2013-05-20T09:59:21Z</time>
      </trkpt>
      <trkpt lat="42.922119" lon="-8.294481">
        <ele>399.062</ele>
        <time>2013-05-20T09:59:26Z</time>
      </trkpt>
      <trkpt lat="42.922062" lon="-8.294598">
        <ele>398.078</ele>
        <time>2013-05-20T09:59:33Z</time>
      </trkpt>
      <trkpt lat="42.922007" lon="-8.294698">
        <ele>396.044</ele>
        <time>2013-05-20T09:59:41Z</time>
      </trkpt>
      <trkpt lat="42.921931" lon="-8.294784">
        <ele>399.087</ele>
        <time>2013-05-20T09:59:49Z</time>
      </trkpt>
      <trkpt lat="42.921848" lon="-8.294850">
        <ele>399.036</ele>
        <time>2013-05-20T09:59:55Z</time>
      </trkpt>
      <trkpt lat="42.921789" lon="-8.294947">
        <ele>401.085</ele>
        <time>2013-05-20T10:00:00Z</time>
      </trkpt>
      <trkpt lat="42.921753" lon="-8.295040">
        <ele>401.081</ele>
        <time>2013-05-20T10:00:10Z</time>
      </trkpt>
      <trkpt lat="42.921722" lon="-8.295158">
        <ele>398.061</ele>
        <time>2013-05-20T10:00:20Z</time>
      </trkpt>
      <trkpt lat="42.921652" lon="-8.295261">
        <ele>399.017</ele>
        <time>2013-05-20T10:00:28Z</time>
      </trkpt>
      <trkpt lat="42.921611" lon="-8.295395">
        <ele>400.007</ele>
        <time>2013-05-20T10:00:34Z</time>
      </trkpt>
      <trkpt lat="42.921563" lon="-8.295512">
        <ele>399.052</ele>
        <time>2013-05-20T10:00:40Z</time>
      </trkpt>
      <trkpt lat="42.921549" lon="-8.295599">
        <ele>399.033</ele>
        <time>2013-05-20T10:00:50Z</time>
      </trkpt>
      <trkpt lat="42.921496" lon="-8.295685">
        <ele>398.089</ele>
        <time>2013-05-20T10:01:00Z</time>
      </trkpt>
      <trkpt lat="42.921430" lon="-8.295794">
        <ele>398.065</ele>
        <time>2013-05-20T10:01:08Z</time>
      </trkpt>
      <trkpt lat="42.921383" lon="-8.295902">
        <ele>397.088</ele>
        <time>2013-05-20T10:01:16Z</time>
      </trkpt>
      <trkpt lat="42.921310" lon="-8.295999">
        <ele>398.057</ele>
        <time>2013-05-20T10:01:23Z</time>
      </trkpt>
      <trkpt lat="42.921255" lon="-8.296103">
        <ele>397.096</ele>
        <time>2013-05-20T10:01:31Z</time>
      </trkpt>
      <trkpt lat="42.921205" lon="-8.296217">
        <ele>398.015</ele>
        <time>2013-05-20T10:01:36Z</time>
      </trkpt>
      <trkpt lat="42.921136" lon="-8.296304">
        <ele>396.065</ele>
        <time>2013-05-20T10:01:46Z</time>
      </trkpt>
      <trkpt lat="42.921090" lon="-8.296371">
        <ele>394.011</ele>
        <time>2013-05-20T10:01:56Z</time>
      </trkpt>
      <trkpt lat="42.920999" lon="-8.296445">
        <ele>394.007</ele>
        <time>2013-05-20T10:02:03Z</time>
      </trkpt>
      <trkpt lat="42.920906" lon="-8.296510">
        <ele>393.085</ele>
        <time>2013-05-20T10:02:08Z</time>
      </trkpt>
      <trkpt lat="42.920813" lon="-8.296584">
        <ele>393.056</ele>
        <time>2013-05-20T10:02:14Z</time>
      </trkpt>
      <trkpt lat="42.920744" lon="-8.296680">
        <ele>393.082</ele>
        <time>2013-05-20T10:02:22Z</time>
      </trkpt>
      <trkpt lat="42.920681" lon="-8.296772">
        <ele>393.058</ele>
        <time>2013-05-20T10:02:27Z</time>
      </trkpt>
      <trkpt lat="42.920610" lon="-8.296855">
        <ele>392.021</ele>
        <time>2013-05-20T10:02:33Z</time>
      </trkpt>
      <trkpt lat="42.920572" lon="-8.296968">
        <ele>393.090</ele>
        <time>2013-05-20T10:02:40Z</time>
      </trkpt>
      <trkpt lat="42.920518" lon="-8.297053">
        <ele>393.089</ele>
        <time>2013-05-20T10:02:50Z</time>
      </trkpt>
      <trkpt lat="42.920458" lon="-8.297146">
        <ele>392.066</ele>
        <time>2013-05-20T10:02:58Z</time>
      </trkpt>
      <trkpt lat="42.920418" lon="-8.297245">
        <ele>392.029</ele>
        <time>2013-05-20T10:03:08Z</time>
      </trkpt>
      <trkpt lat="42.920360" lon="-8.297353">
        <ele>391.021</ele>
        <time>2013-05-20T10:03:14Z</time>
      </trkpt>
      <trkpt lat="42.920350" lon="-8.297478">
        <ele>392.007</ele>
        <time>2013-05-20T10:03:23Z</time>
      </trkpt>
      <trkpt lat="42.920330" lon="-8.297606">
        <ele>390.010</ele>
        <time>2013-05-20T10:03:30Z</time>
      </trkpt>
      <trkpt lat="42.920324" lon="-8.297743">
        <ele>391.021</ele>
        <time>2013-05-20T10:03:35Z</time>
      </trkpt>
      <trkpt lat="42.920325" lon="-8.297875">
        <ele>391.037</ele>
        <time>2013-05-20T10:03:41Z</time>
      </trkpt>
      <trkpt lat="42.920305" lon="-8.298010">
        <ele>389.063</ele>
        <time>2013-05-20T10:03:51Z</time>
      </trkpt>
      <trkpt lat="42.920278" lon="-8.298092">
        <ele>389.066</ele>
        <time>2013-05-20T10:04:01Z</time>
      </trkpt>
      <trkpt lat="42.920235" lon="-8.298188">
        <ele>386.085</ele>
        <time>2013-05-20T10:04:21Z</time>
      </trkpt>
      <trkpt lat="42.920192" lon="-8.298298">
        <ele>387.024</ele>
        <time>2013-05-20T10:04:27Z</time>
      </trkpt>
      <trkpt lat="42.920126" lon="-8.298402">
        <ele>386.078</ele>
        <time>2013-05-20T10:04:31Z</time>
      </trkpt>
      <trkpt lat="42.920173" lon="-8.298523">
        <ele>385.033</ele>
        <time>2013-05-20T10:04:41Z</time>
      </trkpt>
      <trkpt lat="42.920179" lon="-8.298650">
        <ele>387.026</ele>
        <time>2013-05-20T10:04:45Z</time>
      </trkpt>
      <trkpt lat="42.920222" lon="-8.298824">
        <ele>384.007</ele>
        <time>2013-05-20T10:04:52Z</time>
      </trkpt>
      <trkpt lat="42.920211" lon="-8.298887">
        <ele>384.071</ele>
        <time>2013-05-20T10:05:05Z</time>
      </trkpt>
      <trkpt lat="42.920113" lon="-8.298968">
        <ele>382.032</ele>
        <time>2013-05-20T10:05:12Z</time>
      </trkpt>
      <trkpt lat="42.920026" lon="-8.299055">
        <ele>382.048</ele>
        <time>2013-05-20T10:05:17Z</time>
      </trkpt>
      <trkpt lat="42.919994" lon="-8.299107">
        <ele>382.014</ele>
        <time>2013-05-20T10:05:27Z</time>
      </trkpt>
      <trkpt lat="42.919958" lon="-8.299159">
        <ele>379.017</ele>
        <time>2013-05-20T10:05:37Z</time>
      </trkpt>
      <trkpt lat="42.919868" lon="-8.299241">
        <ele>374.076</ele>
        <time>2013-05-20T10:05:44Z</time>
      </trkpt>
      <trkpt lat="42.919776" lon="-8.299369">
        <ele>372.055</ele>
        <time>2013-05-20T10:05:52Z</time>
      </trkpt>
      <trkpt lat="42.919697" lon="-8.299458">
        <ele>373.092</ele>
        <time>2013-05-20T10:06:00Z</time>
      </trkpt>
      <trkpt lat="42.919615" lon="-8.299587">
        <ele>372.073</ele>
        <time>2013-05-20T10:06:05Z</time>
      </trkpt>
      <trkpt lat="42.919526" lon="-8.299681">
        <ele>371.020</ele>
        <time>2013-05-20T10:06:15Z</time>
      </trkpt>
      <trkpt lat="42.919457" lon="-8.299776">
        <ele>371.007</ele>
        <time>2013-05-20T10:06:19Z</time>
      </trkpt>
      <trkpt lat="42.919386" lon="-8.299879">
        <ele>373.053</ele>
        <time>2013-05-20T10:06:24Z</time>
      </trkpt>
      <trkpt lat="42.919321" lon="-8.299972">
        <ele>376.024</ele>
        <time>2013-05-20T10:06:30Z</time>
      </trkpt>
      <trkpt lat="42.919265" lon="-8.300092">
        <ele>379.090</ele>
        <time>2013-05-20T10:06:41Z</time>
      </trkpt>
      <trkpt lat="42.919237" lon="-8.300211">
        <ele>381.056</ele>
        <time>2013-05-20T10:06:48Z</time>
      </trkpt>
      <trkpt lat="42.919223" lon="-8.300346">
        <ele>382.069</ele>
        <time>2013-05-20T10:06:55Z</time>
      </trkpt>
      <trkpt lat="42.919203" lon="-8.300451">
        <ele>382.048</ele>
        <time>2013-05-20T10:07:05Z</time>
      </trkpt>
      <trkpt lat="42.919167" lon="-8.300571">
        <ele>382.037</ele>
        <time>2013-05-20T10:07:12Z</time>
      </trkpt>
      <trkpt lat="42.919126" lon="-8.300679">
        <ele>382.084</ele>
        <time>2013-05-20T10:07:26Z</time>
      </trkpt>
      <trkpt lat="42.919082" lon="-8.300760">
        <ele>382.007</ele>
        <time>2013-05-20T10:07:36Z</time>
      </trkpt>
      <trkpt lat="42.919016" lon="-8.300854">
        <ele>379.017</ele>
        <time>2013-05-20T10:07:46Z</time>
      </trkpt>
      <trkpt lat="42.918954" lon="-8.300957">
        <ele>378.007</ele>
        <time>2013-05-20T10:07:50Z</time>
      </trkpt>
      <trkpt lat="42.918908" lon="-8.301067">
        <ele>378.072</ele>
        <time>2013-05-20T10:07:57Z</time>
      </trkpt>
      <trkpt lat="42.918912" lon="-8.301190">
        <ele>378.093</ele>
        <time>2013-05-20T10:08:04Z</time>
      </trkpt>
      <trkpt lat="42.918993" lon="-8.301287">
        <ele>377.019</ele>
        <time>2013-05-20T10:08:13Z</time>
      </trkpt>
      <trkpt lat="42.919020" lon="-8.301418">
        <ele>375.015</ele>
        <time>2013-05-20T10:08:20Z</time>
      </trkpt>
      <trkpt lat="42.919036" lon="-8.301540">
        <ele>374.028</ele>
        <time>2013-05-20T10:08:24Z</time>
      </trkpt>
      <trkpt lat="42.919074" lon="-8.301653">
        <ele>374.057</ele>
        <time>2013-05-20T10:08:29Z</time>
      </trkpt>
      <trkpt lat="42.919085" lon="-8.301778">
        <ele>376.016</ele>
        <time>2013-05-20T10:08:35Z</time>
      </trkpt>
      <trkpt lat="42.919128" lon="-8.301895">
        <ele>376.054</ele>
        <time>2013-05-20T10:08:43Z</time>
      </trkpt>
      <trkpt lat="42.919166" lon="-8.301970">
        <ele>377.056</ele>
        <time>2013-05-20T10:08:53Z</time>
      </trkpt>
      <trkpt lat="42.919200" lon="-8.302070">
        <ele>377.011</ele>
        <time>2013-05-20T10:09:03Z</time>
      </trkpt>
      <trkpt lat="42.919182" lon="-8.302183">
        <ele>380.007</ele>
        <time>2013-05-20T10:09:13Z</time>
      </trkpt>
      <trkpt lat="42.919177" lon="-8.302314">
        <ele>382.069</ele>
        <time>2013-05-20T10:09:23Z</time>
      </trkpt>
      <trkpt lat="42.919186" lon="-8.302452">
        <ele>383.090</ele>
        <time>2013-05-20T10:09:28Z</time>
      </trkpt>
      <trkpt lat="42.919193" lon="-8.302591">
        <ele>381.046</ele>
        <time>2013-05-20T10:09:33Z</time>
      </trkpt>
      <trkpt lat="42.919216" lon="-8.302730">
        <ele>381.062</ele>
        <time>2013-05-20T10:09:39Z</time>
      </trkpt>
      <trkpt lat="42.919258" lon="-8.302842">
        <ele>382.025</ele>
        <time>2013-05-20T10:09:45Z</time>
      </trkpt>
      <trkpt lat="42.919257" lon="-8.302971">
        <ele>382.054</ele>
        <time>2013-05-20T10:09:51Z</time>
      </trkpt>
      <trkpt lat="42.919260" lon="-8.303096">
        <ele>382.093</ele>
        <time>2013-05-20T10:09:57Z</time>
      </trkpt>
      <trkpt lat="42.919293" lon="-8.303232">
        <ele>383.084</ele>
        <time>2013-05-20T10:10:04Z</time>
      </trkpt>
      <trkpt lat="42.919304" lon="-8.303358">
        <ele>385.007</ele>
        <time>2013-05-20T10:10:09Z</time>
      </trkpt>
      <trkpt lat="42.919336" lon="-8.303492">
        <ele>385.017</ele>
        <time>2013-05-20T10:10:18Z</time>
      </trkpt>
      <trkpt lat="42.919324" lon="-8.303617">
        <ele>386.007</ele>
        <time>2013-05-20T10:10:23Z</time>
      </trkpt>
      <trkpt lat="42.919302" lon="-8.303742">
        <ele>383.082</ele>
        <time>2013-05-20T10:10:30Z</time>
      </trkpt>
      <trkpt lat="42.919311" lon="-8.303866">
        <ele>383.053</ele>
        <time>2013-05-20T10:10:40Z</time>
      </trkpt>
      <trkpt lat="42.919259" lon="-8.303973">
        <ele>384.059</ele>
        <time>2013-05-20T10:10:48Z</time>
      </trkpt>
      <trkpt lat="42.919213" lon="-8.304092">
        <ele>385.055</ele>
        <time>2013-05-20T10:10:53Z</time>
      </trkpt>
      <trkpt lat="42.919191" lon="-8.304214">
        <ele>385.038</ele>
        <time>2013-05-20T10:10:58Z</time>
      </trkpt>
      <trkpt lat="42.919169" lon="-8.304351">
        <ele>386.047</ele>
        <time>2013-05-20T10:11:05Z</time>
      </trkpt>
      <trkpt lat="42.919162" lon="-8.304480">
        <ele>386.076</ele>
        <time>2013-05-20T10:11:12Z</time>
      </trkpt>
      <trkpt lat="42.919160" lon="-8.304607">
        <ele>385.025</ele>
        <time>2013-05-20T10:11:19Z</time>
      </trkpt>
      <trkpt lat="42.919127" lon="-8.304728">
        <ele>385.026</ele>
        <time>2013-05-20T10:11:26Z</time>
      </trkpt>
      <trkpt lat="42.919119" lon="-8.304868">
        <ele>386.008</ele>
        <time>2013-05-20T10:11:35Z</time>
      </trkpt>
      <trkpt lat="42.919103" lon="-8.304996">
        <ele>388.007</ele>
        <time>2013-05-20T10:11:43Z</time>
      </trkpt>
      <trkpt lat="42.919043" lon="-8.305062">
        <ele>387.046</ele>
        <time>2013-05-20T10:11:53Z</time>
      </trkpt>
      <trkpt lat="42.918966" lon="-8.305139">
        <ele>385.057</ele>
        <time>2013-05-20T10:12:03Z</time>
      </trkpt>
      <trkpt lat="42.918880" lon="-8.305194">
        <ele>390.073</ele>
        <time>2013-05-20T10:12:07Z</time>
      </trkpt>
      <trkpt lat="42.918873" lon="-8.305269">
        <ele>388.099</ele>
        <time>2013-05-20T10:12:18Z</time>
      </trkpt>
      <trkpt lat="42.918847" lon="-8.305394">
        <ele>392.012</ele>
        <time>2013-05-20T10:12:22Z</time>
      </trkpt>
      <trkpt lat="42.918836" lon="-8.305527">
        <ele>392.021</ele>
        <time>2013-05-20T10:12:26Z</time>
      </trkpt>
      <trkpt lat="42.918902" lon="-8.305618">
        <ele>391.030</ele>
        <time>2013-05-20T10:12:32Z</time>
      </trkpt>
      <trkpt lat="42.918969" lon="-8.305718">
        <ele>390.049</ele>
        <time>2013-05-20T10:12:39Z</time>
      </trkpt>
      <trkpt lat="42.918996" lon="-8.305844">
        <ele>388.002</ele>
        <time>2013-05-20T10:12:47Z</time>
      </trkpt>
      <trkpt lat="42.918986" lon="-8.305976">
        <ele>388.022</ele>
        <time>2013-05-20T10:12:53Z</time>
      </trkpt>
      <trkpt lat="42.918982" lon="-8.306104">
        <ele>385.007</ele>
        <time>2013-05-20T10:13:01Z</time>
      </trkpt>
      <trkpt lat="42.918992" lon="-8.306209">
        <ele>385.048</ele>
        <time>2013-05-20T10:13:15Z</time>
      </trkpt>
      <trkpt lat="42.919020" lon="-8.306343">
        <ele>382.039</ele>
        <time>2013-05-20T10:13:23Z</time>
      </trkpt>
      <trkpt lat="42.919013" lon="-8.306471">
        <ele>381.055</ele>
        <time>2013-05-20T10:13:31Z</time>
      </trkpt>
      <trkpt lat="42.919015" lon="-8.306614">
        <ele>381.041</ele>
        <time>2013-05-20T10:13:38Z</time>
      </trkpt>
      <trkpt lat="42.919004" lon="-8.306755">
        <ele>380.014</ele>
        <time>2013-05-20T10:13:43Z</time>
      </trkpt>
      <trkpt lat="42.918963" lon="-8.306877">
        <ele>381.063</ele>
        <time>2013-05-20T10:13:50Z</time>
      </trkpt>
      <trkpt lat="42.918917" lon="-8.306987">
        <ele>379.072</ele>
        <time>2013-05-20T10:13:57Z</time>
      </trkpt>
      <trkpt lat="42.918876" lon="-8.307111">
        <ele>379.047</ele>
        <time>2013-05-20T10:14:04Z</time>
      </trkpt>
      <trkpt lat="42.918814" lon="-8.307224">
        <ele>379.029</ele>
        <time>2013-05-20T10:14:11Z</time>
      </trkpt>
      <trkpt lat="42.918741" lon="-8.307319">
        <ele>377.021</ele>
        <time>2013-05-20T10:14:19Z</time>
      </trkpt>
      <trkpt lat="42.918673" lon="-8.307428">
        <ele>376.007</ele>
        <time>2013-05-20T10:14:24Z</time>
      </trkpt>
      <trkpt lat="42.918641" lon="-8.307552">
        <ele>375.028</ele>
        <time>2013-05-20T10:14:29Z</time>
      </trkpt>
      <trkpt lat="42.918623" lon="-8.307657">
        <ele>372.019</ele>
        <time>2013-05-20T10:14:39Z</time>
      </trkpt>
      <trkpt lat="42.918544" lon="-8.307717">
        <ele>373.055</ele>
        <time>2013-05-20T10:14:48Z</time>
      </trkpt>
      <trkpt lat="42.918483" lon="-8.307810">
        <ele>373.011</ele>
        <time>2013-05-20T10:14:53Z</time>
      </trkpt>
      <trkpt lat="42.918484" lon="-8.307952">
        <ele>373.084</ele>
        <time>2013-05-20T10:15:01Z</time>
      </trkpt>
      <trkpt lat="42.918467" lon="-8.308076">
        <ele>375.033</ele>
        <time>2013-05-20T10:15:08Z</time>
      </trkpt>
      <trkpt lat="42.918460" lon="-8.308155">
        <ele>372.052</ele>
        <time>2013-05-20T10:15:20Z</time>
      </trkpt>
      <trkpt lat="42.918492" lon="-8.308278">
        <ele>370.019</ele>
        <time>2013-05-20T10:15:28Z</time>
      </trkpt>
      <trkpt lat="42.918499" lon="-8.308419">
        <ele>366.009</ele>
        <time>2013-05-20T10:15:32Z</time>
      </trkpt>
      <trkpt lat="42.918507" lon="-8.308562">
        <ele>365.019</ele>
        <time>2013-05-20T10:15:36Z</time>
      </trkpt>
      <trkpt lat="42.918512" lon="-8.308687">
        <ele>368.007</ele>
        <time>2013-05-20T10:15:41Z</time>
      </trkpt>
      <trkpt lat="42.918494" lon="-8.308811">
        <ele>370.055</ele>
        <time>2013-05-20T10:15:46Z</time>
      </trkpt>
      <trkpt lat="42.918454" lon="-8.308928">
        <ele>373.066</ele>
        <time>2013-05-20T10:15:52Z</time>
      </trkpt>
      <trkpt lat="42.918415" lon="-8.309053">
        <ele>375.022</ele>
        <time>2013-05-20T10:15:59Z</time>
      </trkpt>
      <trkpt lat="42.918379" lon="-8.309175">
        <ele>373.028</ele>
        <time>2013-05-20T10:16:07Z</time>
      </trkpt>
      <trkpt lat="42.918379" lon="-8.309310">
        <ele>373.031</ele>
        <time>2013-05-20T10:16:15Z</time>
      </trkpt>
      <trkpt lat="42.918378" lon="-8.309438">
        <ele>372.050</ele>
        <time>2013-05-20T10:16:21Z</time>
      </trkpt>
      <trkpt lat="42.918394" lon="-8.309562">
        <ele>371.019</ele>
        <time>2013-05-20T10:16:29Z</time>
      </trkpt>
      <trkpt lat="42.918425" lon="-8.309683">
        <ele>371.036</ele>
        <time>2013-05-20T10:16:38Z</time>
      </trkpt>
      <trkpt lat="42.918421" lon="-8.309807">
        <ele>367.017</ele>
        <time>2013-05-20T10:16:47Z</time>
      </trkpt>
      <trkpt lat="42.918408" lon="-8.309943">
        <ele>374.018</ele>
        <time>2013-05-20T10:16:54Z</time>
      </trkpt>
      <trkpt lat="42.918387" lon="-8.310081">
        <ele>374.007</ele>
        <time>2013-05-20T10:17:01Z</time>
      </trkpt>
      <trkpt lat="42.918398" lon="-8.310216">
        <ele>374.067</ele>
        <time>2013-05-20T10:17:09Z</time>
      </trkpt>
      <trkpt lat="42.918386" lon="-8.310346">
        <ele>373.038</ele>
        <time>2013-05-20T10:17:15Z</time>
      </trkpt>
      <trkpt lat="42.918370" lon="-8.310476">
        <ele>372.094</ele>
        <time>2013-05-20T10:17:23Z</time>
      </trkpt>
      <trkpt lat="42.918333" lon="-8.310600">
        <ele>370.080</ele>
        <time>2013-05-20T10:17:31Z</time>
      </trkpt>
      <trkpt lat="42.918248" lon="-8.310659">
        <ele>371.013</ele>
        <time>2013-05-20T10:17:38Z</time>
      </trkpt>
      <trkpt lat="42.918155" lon="-8.310620">
        <ele>368.022</ele>
        <time>2013-05-20T10:17:47Z</time>
      </trkpt>
      <trkpt lat="42.918061" lon="-8.310598">
        <ele>370.021</ele>
        <time>2013-05-20T10:17:55Z</time>
      </trkpt>
      <trkpt lat="42.917962" lon="-8.310563">
        <ele>373.061</ele>
        <time>2013-05-20T10:18:01Z</time>
      </trkpt>
      <trkpt lat="42.917860" lon="-8.310544">
        <ele>374.021</ele>
        <time>2013-05-20T10:18:07Z</time>
      </trkpt>
      <trkpt lat="42.917767" lon="-8.310521">
        <ele>374.013</ele>
        <time>2013-05-20T10:18:13Z</time>
      </trkpt>
      <trkpt lat="42.917678" lon="-8.310487">
        <ele>377.007</ele>
        <time>2013-05-20T10:18:18Z</time>
      </trkpt>
      <trkpt lat="42.917577" lon="-8.310461">
        <ele>376.080</ele>
        <time>2013-05-20T10:18:27Z</time>
      </trkpt>
      <trkpt lat="42.917479" lon="-8.310435">
        <ele>378.011</ele>
        <time>2013-05-20T10:18:32Z</time>
      </trkpt>
      <trkpt lat="42.917446" lon="-8.310550">
        <ele>378.027</ele>
        <time>2013-05-20T10:18:41Z</time>
      </trkpt>
      <trkpt lat="42.917458" lon="-8.310703">
        <ele>378.093</ele>
        <time>2013-05-20T10:18:49Z</time>
      </trkpt>
      <trkpt lat="42.917460" lon="-8.310830">
        <ele>377.056</ele>
        <time>2013-05-20T10:18:54Z</time>
      </trkpt>
      <trkpt lat="42.917461" lon="-8.310970">
        <ele>377.085</ele>
        <time>2013-05-20T10:19:04Z</time>
      </trkpt>
      <trkpt lat="42.917453" lon="-8.311123">
        <ele>376.094</ele>
        <time>2013-05-20T10:19:09Z</time>
      </trkpt>
      <trkpt lat="42.917444" lon="-8.311256">
        <ele>377.099</ele>
        <time>2013-05-20T10:19:17Z</time>
      </trkpt>
      <trkpt lat="42.917430" lon="-8.311395">
        <ele>375.007</ele>
        <time>2013-05-20T10:19:27Z</time>
      </trkpt>
      <trkpt lat="42.917405" lon="-8.311531">
        <ele>378.027</ele>
        <time>2013-05-20T10:19:33Z</time>
      </trkpt>
      <trkpt lat="42.917399" lon="-8.311662">
        <ele>374.007</ele>
        <time>2013-05-20T10:19:43Z</time>
      </trkpt>
      <trkpt lat="42.917376" lon="-8.311782">
        <ele>377.063</ele>
        <time>2013-05-20T10:19:50Z</time>
      </trkpt>
      <trkpt lat="42.917378" lon="-8.311907">
        <ele>374.064</ele>
        <time>2013-05-20T10:19:58Z</time>
      </trkpt>
      <trkpt lat="42.917362" lon="-8.312035">
        <ele>374.050</ele>
        <time>2013-05-20T10:20:05Z</time>
      </trkpt>
      <trkpt lat="42.917363" lon="-8.312164">
        <ele>375.096</ele>
        <time>2013-05-20T10:20:14Z</time>
      </trkpt>
      <trkpt lat="42.917370" lon="-8.312293">
        <ele>375.029</ele>
        <time>2013-05-20T10:20:21Z</time>
      </trkpt>
      <trkpt lat="42.917368" lon="-8.312430">
        <ele>375.078</ele>
        <time>2013-05-20T10:20:30Z</time>
      </trkpt>
      <trkpt lat="42.917338" lon="-8.312592">
        <ele>377.037</ele>
        <time>2013-05-20T10:20:37Z</time>
      </trkpt>
      <trkpt lat="42.917285" lon="-8.312717">
        <ele>381.091</ele>
        <time>2013-05-20T10:20:41Z</time>
      </trkpt>
      <trkpt lat="42.917257" lon="-8.312846">
        <ele>380.081</ele>
        <time>2013-05-20T10:20:47Z</time>
      </trkpt>
      <trkpt lat="42.917262" lon="-8.312984">
        <ele>377.019</ele>
        <time>2013-05-20T10:20:55Z</time>
      </trkpt>
      <trkpt lat="42.917253" lon="-8.313116">
        <ele>378.007</ele>
        <time>2013-05-20T10:21:03Z</time>
      </trkpt>
      <trkpt lat="42.917237" lon="-8.313243">
        <ele>378.063</ele>
        <time>2013-05-20T10:21:10Z</time>
      </trkpt>
      <trkpt lat="42.917226" lon="-8.313395">
        <ele>378.044</ele>
        <time>2013-05-20T10:21:18Z</time>
      </trkpt>
      <trkpt lat="42.917213" lon="-8.313517">
        <ele>378.010</ele>
        <time>2013-05-20T10:21:28Z</time>
      </trkpt>
      <trkpt lat="42.917277" lon="-8.313422">
        <ele>377.056</ele>
        <time>2013-05-20T10:21:38Z</time>
      </trkpt>
      <trkpt lat="42.917261" lon="-8.313549">
        <ele>377.029</ele>
        <time>2013-05-20T10:21:44Z</time>
      </trkpt>
      <trkpt lat="42.917234" lon="-8.313675">
        <ele>378.088</ele>
        <time>2013-05-20T10:21:48Z</time>
      </trkpt>
      <trkpt lat="42.917204" lon="-8.313822">
        <ele>377.027</ele>
        <time>2013-05-20T10:21:53Z</time>
      </trkpt>
      <trkpt lat="42.917180" lon="-8.313945">
        <ele>378.092</ele>
        <time>2013-05-20T10:21:58Z</time>
      </trkpt>
      <trkpt lat="42.917163" lon="-8.314087">
        <ele>378.073</ele>
        <time>2013-05-20T10:22:04Z</time>
      </trkpt>
      <trkpt lat="42.917148" lon="-8.314210">
        <ele>378.020</ele>
        <time>2013-05-20T10:22:10Z</time>
      </trkpt>
      <trkpt lat="42.917120" lon="-8.314342">
        <ele>381.007</ele>
        <time>2013-05-20T10:22:16Z</time>
      </trkpt>
      <trkpt lat="42.917110" lon="-8.314475">
        <ele>381.073</ele>
        <time>2013-05-20T10:22:25Z</time>
      </trkpt>
      <trkpt lat="42.917108" lon="-8.314605">
        <ele>381.064</ele>
        <time>2013-05-20T10:22:32Z</time>
      </trkpt>
      <trkpt lat="42.917088" lon="-8.314742">
        <ele>384.020</ele>
        <time>2013-05-20T10:22:40Z</time>
      </trkpt>
      <trkpt lat="42.917058" lon="-8.314864">
        <ele>384.066</ele>
        <time>2013-05-20T10:22:47Z</time>
      </trkpt>
      <trkpt lat="42.917054" lon="-8.314991">
        <ele>384.079</ele>
        <time>2013-05-20T10:22:55Z</time>
      </trkpt>
      <trkpt lat="42.917041" lon="-8.315117">
        <ele>384.098</ele>
        <time>2013-05-20T10:23:01Z</time>
      </trkpt>
      <trkpt lat="42.917036" lon="-8.315260">
        <ele>388.037</ele>
        <time>2013-05-20T10:23:07Z</time>
      </trkpt>
      <trkpt lat="42.917031" lon="-8.315385">
        <ele>389.046</ele>
        <time>2013-05-20T10:23:11Z</time>
      </trkpt>
      <trkpt lat="42.916977" lon="-8.315497">
        <ele>392.088</ele>
        <time>2013-05-20T10:23:18Z</time>
      </trkpt>
      <trkpt lat="42.916875" lon="-8.315494">
        <ele>401.016</ele>
        <time>2013-05-20T10:23:39Z</time>
      </trkpt>
      <trkpt lat="42.916783" lon="-8.315524">
        <ele>401.007</ele>
        <time>2013-05-20T10:23:43Z</time>
      </trkpt>
      <trkpt lat="42.916770" lon="-8.315658">
        <ele>400.078</ele>
        <time>2013-05-20T10:23:53Z</time>
      </trkpt>
      <trkpt lat="42.916749" lon="-8.315795">
        <ele>399.029</ele>
        <time>2013-05-20T10:24:00Z</time>
      </trkpt>
      <trkpt lat="42.916740" lon="-8.315932">
        <ele>400.035</ele>
        <time>2013-05-20T10:24:07Z</time>
      </trkpt>
      <trkpt lat="42.916728" lon="-8.315999">
        <ele>400.081</ele>
        <time>2013-05-20T10:24:17Z</time>
      </trkpt>
      <trkpt lat="42.916717" lon="-8.316130">
        <ele>399.064</ele>
        <time>2013-05-20T10:24:24Z</time>
      </trkpt>
      <trkpt lat="42.916687" lon="-8.316260">
        <ele>398.023</ele>
        <time>2013-05-20T10:24:34Z</time>
      </trkpt>
      <trkpt lat="42.916669" lon="-8.316389">
        <ele>398.082</ele>
        <time>2013-05-20T10:24:39Z</time>
      </trkpt>
      <trkpt lat="42.916631" lon="-8.316522">
        <ele>401.051</ele>
        <time>2013-05-20T10:24:45Z</time>
      </trkpt>
      <trkpt lat="42.916604" lon="-8.316646">
        <ele>401.001</ele>
        <time>2013-05-20T10:24:50Z</time>
      </trkpt>
      <trkpt lat="42.916583" lon="-8.316776">
        <ele>401.011</ele>
        <time>2013-05-20T10:24:56Z</time>
      </trkpt>
      <trkpt lat="42.916565" lon="-8.316910">
        <ele>402.007</ele>
        <time>2013-05-20T10:25:04Z</time>
      </trkpt>
      <trkpt lat="42.916548" lon="-8.317040">
        <ele>403.059</ele>
        <time>2013-05-20T10:25:12Z</time>
      </trkpt>
      <trkpt lat="42.916535" lon="-8.317173">
        <ele>404.020</ele>
        <time>2013-05-20T10:25:20Z</time>
      </trkpt>
      <trkpt lat="42.916528" lon="-8.317306">
        <ele>406.026</ele>
        <time>2013-05-20T10:25:29Z</time>
      </trkpt>
      <trkpt lat="42.916507" lon="-8.317432">
        <ele>407.062</ele>
        <time>2013-05-20T10:25:35Z</time>
      </trkpt>
      <trkpt lat="42.916482" lon="-8.317564">
        <ele>406.015</ele>
        <time>2013-05-20T10:25:44Z</time>
      </trkpt>
      <trkpt lat="42.916458" lon="-8.317683">
        <ele>403.074</ele>
        <time>2013-05-20T10:25:50Z</time>
      </trkpt>
      <trkpt lat="42.916440" lon="-8.317822">
        <ele>405.063</ele>
        <time>2013-05-20T10:25:57Z</time>
      </trkpt>
      <trkpt lat="42.916407" lon="-8.317948">
        <ele>404.042</ele>
        <time>2013-05-20T10:26:03Z</time>
      </trkpt>
      <trkpt lat="42.916377" lon="-8.318065">
        <ele>404.022</ele>
        <time>2013-05-20T10:26:11Z</time>
      </trkpt>
      <trkpt lat="42.916361" lon="-8.318189">
        <ele>406.014</ele>
        <time>2013-05-20T10:26:18Z</time>
      </trkpt>
      <trkpt lat="42.916350" lon="-8.318309">
        <ele>406.007</ele>
        <time>2013-05-20T10:26:28Z</time>
      </trkpt>
      <trkpt lat="42.916329" lon="-8.318440">
        <ele>408.018</ele>
        <time>2013-05-20T10:26:35Z</time>
      </trkpt>
      <trkpt lat="42.916288" lon="-8.318563">
        <ele>412.029</ele>
        <time>2013-05-20T10:26:41Z</time>
      </trkpt>
      <trkpt lat="42.916228" lon="-8.318683">
        <ele>412.045</ele>
        <time>2013-05-20T10:26:51Z</time>
      </trkpt>
      <trkpt lat="42.916183" lon="-8.318803">
        <ele>411.091</ele>
        <time>2013-05-20T10:26:58Z</time>
      </trkpt>
      <trkpt lat="42.916133" lon="-8.318924">
        <ele>408.094</ele>
        <time>2013-05-20T10:27:07Z</time>
      </trkpt>
      <trkpt lat="42.916091" lon="-8.319043">
        <ele>404.093</ele>
        <time>2013-05-20T10:27:16Z</time>
      </trkpt>
      <trkpt lat="42.916058" lon="-8.319164">
        <ele>403.052</ele>
        <time>2013-05-20T10:27:23Z</time>
      </trkpt>
      <trkpt lat="42.916003" lon="-8.319279">
        <ele>404.049</ele>
        <time>2013-05-20T10:27:31Z</time>
      </trkpt>
      <trkpt lat="42.915970" lon="-8.319394">
        <ele>404.002</ele>
        <time>2013-05-20T10:27:39Z</time>
      </trkpt>
      <trkpt lat="42.915924" lon="-8.319511">
        <ele>406.022</ele>
        <time>2013-05-20T10:27:46Z</time>
      </trkpt>
      <trkpt lat="42.915898" lon="-8.319622">
        <ele>404.007</ele>
        <time>2013-05-20T10:27:56Z</time>
      </trkpt>
      <trkpt lat="42.915870" lon="-8.319673">
        <ele>403.028</ele>
        <time>2013-05-20T10:28:06Z</time>
      </trkpt>
      <trkpt lat="42.915815" lon="-8.319794">
        <ele>403.059</ele>
        <time>2013-05-20T10:28:16Z</time>
      </trkpt>
      <trkpt lat="42.915768" lon="-8.319923">
        <ele>402.065</ele>
        <time>2013-05-20T10:28:21Z</time>
      </trkpt>
      <trkpt lat="42.915743" lon="-8.319996">
        <ele>403.081</ele>
        <time>2013-05-20T10:28:31Z</time>
      </trkpt>
      <trkpt lat="42.915710" lon="-8.320111">
        <ele>403.084</ele>
        <time>2013-05-20T10:28:37Z</time>
      </trkpt>
      <trkpt lat="42.915666" lon="-8.320222">
        <ele>401.023</ele>
        <time>2013-05-20T10:28:43Z</time>
      </trkpt>
      <trkpt lat="42.915628" lon="-8.320357">
        <ele>401.042</ele>
        <time>2013-05-20T10:28:49Z</time>
      </trkpt>
      <trkpt lat="42.915588" lon="-8.320468">
        <ele>405.059</ele>
        <time>2013-05-20T10:28:54Z</time>
      </trkpt>
      <trkpt lat="42.915559" lon="-8.320597">
        <ele>406.003</ele>
        <time>2013-05-20T10:29:00Z</time>
      </trkpt>
      <trkpt lat="42.915512" lon="-8.320721">
        <ele>406.023</ele>
        <time>2013-05-20T10:29:06Z</time>
      </trkpt>
      <trkpt lat="42.915489" lon="-8.320851">
        <ele>406.007</ele>
        <time>2013-05-20T10:29:14Z</time>
      </trkpt>
      <trkpt lat="42.915467" lon="-8.320984">
        <ele>408.049</ele>
        <time>2013-05-20T10:29:23Z</time>
      </trkpt>
      <trkpt lat="42.915459" lon="-8.321067">
        <ele>407.060</ele>
        <time>2013-05-20T10:29:34Z</time>
      </trkpt>
      <trkpt lat="42.915441" lon="-8.321203">
        <ele>406.066</ele>
        <time>2013-05-20T10:29:43Z</time>
      </trkpt>
      <trkpt lat="42.915405" lon="-8.321361">
        <ele>407.082</ele>
        <time>2013-05-20T10:29:47Z</time>
      </trkpt>
      <trkpt lat="42.915366" lon="-8.321491">
        <ele>406.065</ele>
        <time>2013-05-20T10:29:53Z</time>
      </trkpt>
      <trkpt lat="42.915339" lon="-8.321627">
        <ele>407.064</ele>
        <time>2013-05-20T10:30:00Z</time>
      </trkpt>
      <trkpt lat="42.915322" lon="-8.321763">
        <ele>407.013</ele>
        <time>2013-05-20T10:30:08Z</time>
      </trkpt>
      <trkpt lat="42.915312" lon="-8.321898">
        <ele>413.035</ele>
        <time>2013-05-20T10:30:17Z</time>
      </trkpt>
      <trkpt lat="42.915317" lon="-8.322027">
        <ele>414.086</ele>
        <time>2013-05-20T10:30:27Z</time>
      </trkpt>
      <trkpt lat="42.915324" lon="-8.322166">
        <ele>412.014</ele>
        <time>2013-05-20T10:30:35Z</time>
      </trkpt>
      <trkpt lat="42.915372" lon="-8.322273">
        <ele>412.007</ele>
        <time>2013-05-20T10:30:45Z</time>
      </trkpt>
      <trkpt lat="42.915423" lon="-8.322394">
        <ele>410.097</ele>
        <time>2013-05-20T10:30:55Z</time>
      </trkpt>
      <trkpt lat="42.915430" lon="-8.322512">
        <ele>407.098</ele>
        <time>2013-05-20T10:31:05Z</time>
      </trkpt>
      <trkpt lat="42.915410" lon="-8.322634">
        <ele>407.034</ele>
        <time>2013-05-20T10:31:08Z</time>
      </trkpt>
      <trkpt lat="42.915394" lon="-8.322794">
        <ele>408.040</ele>
        <time>2013-05-20T10:31:11Z</time>
      </trkpt>
      <trkpt lat="42.915413" lon="-8.322910">
        <ele>407.073</ele>
        <time>2013-05-20T10:31:21Z</time>
      </trkpt>
      <trkpt lat="42.915472" lon="-8.323012">
        <ele>406.072</ele>
        <time>2013-05-20T10:31:31Z</time>
      </trkpt>
      <trkpt lat="42.915478" lon="-8.323116">
        <ele>404.011</ele>
        <time>2013-05-20T10:31:41Z</time>
      </trkpt>
      <trkpt lat="42.915483" lon="-8.323241">
        <ele>405.031</ele>
        <time>2013-05-20T10:31:49Z</time>
      </trkpt>
      <trkpt lat="42.915499" lon="-8.323342">
        <ele>406.061</ele>
        <time>2013-05-20T10:31:59Z</time>
      </trkpt>
      <trkpt lat="42.915557" lon="-8.323380">
        <ele>406.007</ele>
        <time>2013-05-20T10:32:15Z</time>
      </trkpt>
      <trkpt lat="42.915517" lon="-8.323302">
        <ele>405.007</ele>
        <time>2013-05-20T10:32:25Z</time>
      </trkpt>
      <trkpt lat="42.915340" lon="-8.323231">
        <ele>405.097</ele>
        <time>2013-05-20T10:32:37Z</time>
      </trkpt>
      <trkpt lat="42.915448" lon="-8.323318">
        <ele>404.078</ele>
        <time>2013-05-20T10:32:38Z</time>
      </trkpt>
      <trkpt lat="42.915433" lon="-8.323161">
        <ele>403.014</ele>
        <time>2013-05-20T10:32:43Z</time>
      </trkpt>
      <trkpt lat="42.915478" lon="-8.323156">
        <ele>405.060</ele>
        <time>2013-05-20T10:32:53Z</time>
      </trkpt>
      <trkpt lat="42.915478" lon="-8.323156">
        <ele>405.073</ele>
        <time>2013-05-20T10:33:23Z</time>
      </trkpt>
      <trkpt lat="42.915478" lon="-8.323156">
        <ele>405.012</ele>
        <time>2013-05-20T10:33:53Z</time>
      </trkpt>
      <trkpt lat="42.915478" lon="-8.323156">
        <ele>405.051</ele>
        <time>2013-05-20T10:34:23Z</time>
      </trkpt>
      <trkpt lat="42.915478" lon="-8.323156">
        <ele>405.084</ele>
        <time>2013-05-20T10:34:53Z</time>
      </trkpt>
      <trkpt lat="42.915478" lon="-8.323156">
        <ele>405.007</ele>
        <time>2013-05-20T10:35:23Z</time>
      </trkpt>
      <trkpt lat="42.915484" lon="-8.323248">
        <ele>405.017</ele>
        <time>2013-05-20T10:55:22Z</time>
      </trkpt>
      <trkpt lat="42.915729" lon="-8.323309">
        <ele>440.007</ele>
        <time>2013-05-20T10:55:24Z</time>
      </trkpt>
      <trkpt lat="42.915842" lon="-8.323428">
        <ele>423.072</ele>
        <time>2013-05-20T10:55:26Z</time>
      </trkpt>
      <trkpt lat="42.915937" lon="-8.323457">
        <ele>408.013</ele>
        <time>2013-05-20T10:55:30Z</time>
      </trkpt>
      <trkpt lat="42.916030" lon="-8.323446">
        <ele>411.039</ele>
        <time>2013-05-20T10:55:39Z</time>
      </trkpt>
      <trkpt lat="42.916123" lon="-8.323424">
        <ele>412.055</ele>
        <time>2013-05-20T10:55:47Z</time>
      </trkpt>
      <trkpt lat="42.916222" lon="-8.323394">
        <ele>415.088</ele>
        <time>2013-05-20T10:55:55Z</time>
      </trkpt>
      <trkpt lat="42.916312" lon="-8.323374">
        <ele>416.017</ele>
        <time>2013-05-20T10:56:03Z</time>
      </trkpt>
      <trkpt lat="42.916410" lon="-8.323372">
        <ele>416.086</ele>
        <time>2013-05-20T10:56:12Z</time>
      </trkpt>
      <trkpt lat="42.916504" lon="-8.323391">
        <ele>418.033</ele>
        <time>2013-05-20T10:56:18Z</time>
      </trkpt>
      <trkpt lat="42.916565" lon="-8.323493">
        <ele>417.023</ele>
        <time>2013-05-20T10:56:28Z</time>
      </trkpt>
      <trkpt lat="42.916548" lon="-8.323627">
        <ele>415.015</ele>
        <time>2013-05-20T10:56:35Z</time>
      </trkpt>
      <trkpt lat="42.916532" lon="-8.323763">
        <ele>411.007</ele>
        <time>2013-05-20T10:56:42Z</time>
      </trkpt>
      <trkpt lat="42.916538" lon="-8.323888">
        <ele>412.027</ele>
        <time>2013-05-20T10:56:48Z</time>
      </trkpt>
      <trkpt lat="42.916527" lon="-8.324013">
        <ele>411.098</ele>
        <time>2013-05-20T10:56:56Z</time>
      </trkpt>
      <trkpt lat="42.916522" lon="-8.324149">
        <ele>408.094</ele>
        <time>2013-05-20T10:57:02Z</time>
      </trkpt>
      <trkpt lat="42.916521" lon="-8.324287">
        <ele>409.060</ele>
        <time>2013-05-20T10:57:08Z</time>
      </trkpt>
      <trkpt lat="42.916458" lon="-8.324393">
        <ele>404.053</ele>
        <time>2013-05-20T10:57:16Z</time>
      </trkpt>
      <trkpt lat="42.916437" lon="-8.324513">
        <ele>402.092</ele>
        <time>2013-05-20T10:57:25Z</time>
      </trkpt>
      <trkpt lat="42.916433" lon="-8.324655">
        <ele>402.031</ele>
        <time>2013-05-20T10:57:34Z</time>
      </trkpt>
      <trkpt lat="42.916390" lon="-8.324774">
        <ele>403.085</ele>
        <time>2013-05-20T10:57:43Z</time>
      </trkpt>
      <trkpt lat="42.916384" lon="-8.324901">
        <ele>404.089</ele>
        <time>2013-05-20T10:57:48Z</time>
      </trkpt>
      <trkpt lat="42.916399" lon="-8.325036">
        <ele>410.017</ele>
        <time>2013-05-20T10:57:54Z</time>
      </trkpt>
      <trkpt lat="42.916401" lon="-8.325162">
        <ele>409.007</ele>
        <time>2013-05-20T10:58:01Z</time>
      </trkpt>
      <trkpt lat="42.916378" lon="-8.325293">
        <ele>410.042</ele>
        <time>2013-05-20T10:58:10Z</time>
      </trkpt>
      <trkpt lat="42.916385" lon="-8.325421">
        <ele>416.083</ele>
        <time>2013-05-20T10:58:19Z</time>
      </trkpt>
      <trkpt lat="42.916412" lon="-8.325542">
        <ele>415.079</ele>
        <time>2013-05-20T10:58:25Z</time>
      </trkpt>
      <trkpt lat="42.916433" lon="-8.325675">
        <ele>415.035</ele>
        <time>2013-05-20T10:58:32Z</time>
      </trkpt>
      <trkpt lat="42.916445" lon="-8.325800">
        <ele>414.078</ele>
        <time>2013-05-20T10:58:39Z</time>
      </trkpt>
      <trkpt lat="42.916495" lon="-8.325919">
        <ele>415.047</ele>
        <time>2013-05-20T10:58:48Z</time>
      </trkpt>
      <trkpt lat="42.916490" lon="-8.326044">
        <ele>412.046</ele>
        <time>2013-05-20T10:58:57Z</time>
      </trkpt>
      <trkpt lat="42.916483" lon="-8.326187">
        <ele>411.027</ele>
        <time>2013-05-20T10:59:05Z</time>
      </trkpt>
      <trkpt lat="42.916528" lon="-8.326294">
        <ele>410.068</ele>
        <time>2013-05-20T10:59:10Z</time>
      </trkpt>
      <trkpt lat="42.916543" lon="-8.326425">
        <ele>407.014</ele>
        <time>2013-05-20T10:59:18Z</time>
      </trkpt>
      <trkpt lat="42.916580" lon="-8.326553">
        <ele>407.007</ele>
        <time>2013-05-20T10:59:25Z</time>
      </trkpt>
      <trkpt lat="42.916585" lon="-8.326686">
        <ele>406.016</ele>
        <time>2013-05-20T10:59:32Z</time>
      </trkpt>
      <trkpt lat="42.916601" lon="-8.326819">
        <ele>405.067</ele>
        <time>2013-05-20T10:59:40Z</time>
      </trkpt>
      <trkpt lat="42.916640" lon="-8.326950">
        <ele>400.053</ele>
        <time>2013-05-20T10:59:46Z</time>
      </trkpt>
      <trkpt lat="42.916644" lon="-8.327085">
        <ele>395.019</ele>
        <time>2013-05-20T10:59:53Z</time>
      </trkpt>
      <trkpt lat="42.916675" lon="-8.327212">
        <ele>394.082</ele>
        <time>2013-05-20T11:00:02Z</time>
      </trkpt>
      <trkpt lat="42.916737" lon="-8.327324">
        <ele>394.011</ele>
        <time>2013-05-20T11:00:08Z</time>
      </trkpt>
      <trkpt lat="42.916798" lon="-8.327436">
        <ele>395.040</ele>
        <time>2013-05-20T11:00:13Z</time>
      </trkpt>
      <trkpt lat="42.916867" lon="-8.327527">
        <ele>397.088</ele>
        <time>2013-05-20T11:00:19Z</time>
      </trkpt>
      <trkpt lat="42.916876" lon="-8.327661">
        <ele>396.024</ele>
        <time>2013-05-20T11:00:28Z</time>
      </trkpt>
      <trkpt lat="42.916893" lon="-8.327786">
        <ele>395.026</ele>
        <time>2013-05-20T11:00:36Z</time>
      </trkpt>
      <trkpt lat="42.916932" lon="-8.327917">
        <ele>391.007</ele>
        <time>2013-05-20T11:00:43Z</time>
      </trkpt>
      <trkpt lat="42.916947" lon="-8.328037">
        <ele>391.052</ele>
        <time>2013-05-20T11:00:53Z</time>
      </trkpt>
      <trkpt lat="42.916983" lon="-8.328163">
        <ele>381.013</ele>
        <time>2013-05-20T11:01:03Z</time>
      </trkpt>
      <trkpt lat="42.917030" lon="-8.328289">
        <ele>380.039</ele>
        <time>2013-05-20T11:01:13Z</time>
      </trkpt>
      <trkpt lat="42.917078" lon="-8.328429">
        <ele>386.055</ele>
        <time>2013-05-20T11:01:21Z</time>
      </trkpt>
      <trkpt lat="42.917062" lon="-8.328561">
        <ele>386.098</ele>
        <time>2013-05-20T11:01:29Z</time>
      </trkpt>
      <trkpt lat="42.917097" lon="-8.328687">
        <ele>389.067</ele>
        <time>2013-05-20T11:01:36Z</time>
      </trkpt>
      <trkpt lat="42.917128" lon="-8.328805">
        <ele>388.046</ele>
        <time>2013-05-20T11:01:43Z</time>
      </trkpt>
      <trkpt lat="42.917134" lon="-8.328948">
        <ele>387.046</ele>
        <time>2013-05-20T11:01:50Z</time>
      </trkpt>
      <trkpt lat="42.917203" lon="-8.329038">
        <ele>386.088</ele>
        <time>2013-05-20T11:01:57Z</time>
      </trkpt>
      <trkpt lat="42.917238" lon="-8.329165">
        <ele>382.016</ele>
        <time>2013-05-20T11:02:05Z</time>
      </trkpt>
      <trkpt lat="42.917267" lon="-8.329293">
        <ele>382.007</ele>
        <time>2013-05-20T11:02:13Z</time>
      </trkpt>
      <trkpt lat="42.917275" lon="-8.329420">
        <ele>378.018</ele>
        <time>2013-05-20T11:02:23Z</time>
      </trkpt>
      <trkpt lat="42.917315" lon="-8.329535">
        <ele>377.049</ele>
        <time>2013-05-20T11:02:30Z</time>
      </trkpt>
      <trkpt lat="42.917358" lon="-8.329647">
        <ele>370.025</ele>
        <time>2013-05-20T11:02:37Z</time>
      </trkpt>
      <trkpt lat="42.917389" lon="-8.329767">
        <ele>371.091</ele>
        <time>2013-05-20T11:02:45Z</time>
      </trkpt>
      <trkpt lat="42.917426" lon="-8.329880">
        <ele>370.054</ele>
        <time>2013-05-20T11:02:51Z</time>
      </trkpt>
      <trkpt lat="42.917457" lon="-8.330008">
        <ele>370.083</ele>
        <time>2013-05-20T11:02:57Z</time>
      </trkpt>
      <trkpt lat="42.917483" lon="-8.330138">
        <ele>369.032</ele>
        <time>2013-05-20T11:03:05Z</time>
      </trkpt>
      <trkpt lat="42.917519" lon="-8.330252">
        <ele>368.036</ele>
        <time>2013-05-20T11:03:12Z</time>
      </trkpt>
      <trkpt lat="42.917575" lon="-8.330368">
        <ele>366.017</ele>
        <time>2013-05-20T11:03:19Z</time>
      </trkpt>
      <trkpt lat="42.917568" lon="-8.330479">
        <ele>367.018</ele>
        <time>2013-05-20T11:03:29Z</time>
      </trkpt>
      <trkpt lat="42.917546" lon="-8.330520">
        <ele>367.007</ele>
        <time>2013-05-20T11:03:59Z</time>
      </trkpt>
      <trkpt lat="42.917562" lon="-8.330646">
        <ele>368.017</ele>
        <time>2013-05-20T11:04:07Z</time>
      </trkpt>
      <trkpt lat="42.917591" lon="-8.330772">
        <ele>366.038</ele>
        <time>2013-05-20T11:04:16Z</time>
      </trkpt>
      <trkpt lat="42.917660" lon="-8.330848">
        <ele>365.014</ele>
        <time>2013-05-20T11:04:26Z</time>
      </trkpt>
      <trkpt lat="42.917647" lon="-8.330914">
        <ele>367.080</ele>
        <time>2013-05-20T11:04:36Z</time>
      </trkpt>
      <trkpt lat="42.917619" lon="-8.331024">
        <ele>367.063</ele>
        <time>2013-05-20T11:04:46Z</time>
      </trkpt>
      <trkpt lat="42.917606" lon="-8.331158">
        <ele>368.052</ele>
        <time>2013-05-20T11:04:49Z</time>
      </trkpt>
      <trkpt lat="42.917609" lon="-8.331306">
        <ele>371.081</ele>
        <time>2013-05-20T11:04:53Z</time>
      </trkpt>
      <trkpt lat="42.917627" lon="-8.331447">
        <ele>370.099</ele>
        <time>2013-05-20T11:04:59Z</time>
      </trkpt>
      <trkpt lat="42.917647" lon="-8.331579">
        <ele>369.007</ele>
        <time>2013-05-20T11:05:05Z</time>
      </trkpt>
      <trkpt lat="42.917658" lon="-8.331717">
        <ele>369.027</ele>
        <time>2013-05-20T11:05:12Z</time>
      </trkpt>
      <trkpt lat="42.917600" lon="-8.331834">
        <ele>372.007</ele>
        <time>2013-05-20T11:05:17Z</time>
      </trkpt>
      <trkpt lat="42.917647" lon="-8.331965">
        <ele>372.073</ele>
        <time>2013-05-20T11:05:27Z</time>
      </trkpt>
      <trkpt lat="42.917660" lon="-8.332096">
        <ele>369.074</ele>
        <time>2013-05-20T11:05:36Z</time>
      </trkpt>
      <trkpt lat="42.917662" lon="-8.332241">
        <ele>367.020</ele>
        <time>2013-05-20T11:05:42Z</time>
      </trkpt>
      <trkpt lat="42.917682" lon="-8.332362">
        <ele>363.086</ele>
        <time>2013-05-20T11:05:49Z</time>
      </trkpt>
      <trkpt lat="42.917700" lon="-8.332497">
        <ele>366.019</ele>
        <time>2013-05-20T11:05:56Z</time>
      </trkpt>
      <trkpt lat="42.917731" lon="-8.332623">
        <ele>363.038</ele>
        <time>2013-05-20T11:06:06Z</time>
      </trkpt>
      <trkpt lat="42.917772" lon="-8.332738">
        <ele>362.067</ele>
        <time>2013-05-20T11:06:16Z</time>
      </trkpt>
      <trkpt lat="42.917822" lon="-8.332849">
        <ele>363.055</ele>
        <time>2013-05-20T11:06:25Z</time>
      </trkpt>
      <trkpt lat="42.917837" lon="-8.332983">
        <ele>364.007</ele>
        <time>2013-05-20T11:06:31Z</time>
      </trkpt>
      <trkpt lat="42.917862" lon="-8.333110">
        <ele>365.017</ele>
        <time>2013-05-20T11:06:37Z</time>
      </trkpt>
      <trkpt lat="42.917861" lon="-8.333242">
        <ele>363.007</ele>
        <time>2013-05-20T11:06:45Z</time>
      </trkpt>
      <trkpt lat="42.917893" lon="-8.333366">
        <ele>362.049</ele>
        <time>2013-05-20T11:06:54Z</time>
      </trkpt>
      <trkpt lat="42.917912" lon="-8.333491">
        <ele>362.010</ele>
        <time>2013-05-20T11:07:00Z</time>
      </trkpt>
      <trkpt lat="42.917919" lon="-8.333590">
        <ele>358.036</ele>
        <time>2013-05-20T11:07:10Z</time>
      </trkpt>
      <trkpt lat="42.917958" lon="-8.333718">
        <ele>360.052</ele>
        <time>2013-05-20T11:07:17Z</time>
      </trkpt>
      <trkpt lat="42.917961" lon="-8.333851">
        <ele>362.055</ele>
        <time>2013-05-20T11:07:26Z</time>
      </trkpt>
      <trkpt lat="42.918025" lon="-8.333950">
        <ele>362.044</ele>
        <time>2013-05-20T11:07:32Z</time>
      </trkpt>
      <trkpt lat="42.918111" lon="-8.334006">
        <ele>361.073</ele>
        <time>2013-05-20T11:07:39Z</time>
      </trkpt>
      <trkpt lat="42.918153" lon="-8.334133">
        <ele>362.036</ele>
        <time>2013-05-20T11:07:46Z</time>
      </trkpt>
      <trkpt lat="42.918177" lon="-8.334255">
        <ele>363.017</ele>
        <time>2013-05-20T11:07:54Z</time>
      </trkpt>
      <trkpt lat="42.918179" lon="-8.334396">
        <ele>360.018</ele>
        <time>2013-05-20T11:08:02Z</time>
      </trkpt>
      <trkpt lat="42.918205" lon="-8.334523">
        <ele>360.007</ele>
        <time>2013-05-20T11:08:10Z</time>
      </trkpt>
      <trkpt lat="42.918196" lon="-8.334648">
        <ele>360.037</ele>
        <time>2013-05-20T11:08:17Z</time>
      </trkpt>
      <trkpt lat="42.918207" lon="-8.334788">
        <ele>361.038</ele>
        <time>2013-05-20T11:08:24Z</time>
      </trkpt>
      <trkpt lat="42.918243" lon="-8.334909">
        <ele>360.064</ele>
        <time>2013-05-20T11:08:34Z</time>
      </trkpt>
      <trkpt lat="42.918254" lon="-8.335044">
        <ele>361.010</ele>
        <time>2013-05-20T11:08:43Z</time>
      </trkpt>
      <trkpt lat="42.918278" lon="-8.335179">
        <ele>360.033</ele>
        <time>2013-05-20T11:08:49Z</time>
      </trkpt>
      <trkpt lat="42.918338" lon="-8.335282">
        <ele>358.092</ele>
        <time>2013-05-20T11:08:58Z</time>
      </trkpt>
      <trkpt lat="42.918325" lon="-8.335412">
        <ele>363.041</ele>
        <time>2013-05-20T11:09:03Z</time>
      </trkpt>
      <trkpt lat="42.918321" lon="-8.335543">
        <ele>361.037</ele>
        <time>2013-05-20T11:09:13Z</time>
      </trkpt>
      <trkpt lat="42.918355" lon="-8.335671">
        <ele>360.049</ele>
        <time>2013-05-20T11:09:22Z</time>
      </trkpt>
      <trkpt lat="42.918337" lon="-8.335794">
        <ele>360.013</ele>
        <time>2013-05-20T11:09:29Z</time>
      </trkpt>
      <trkpt lat="42.918318" lon="-8.335891">
        <ele>360.007</ele>
        <time>2013-05-20T11:09:39Z</time>
      </trkpt>
      <trkpt lat="42.918307" lon="-8.336021">
        <ele>358.017</ele>
        <time>2013-05-20T11:09:46Z</time>
      </trkpt>
      <trkpt lat="42.918381" lon="-8.336107">
        <ele>353.058</ele>
        <time>2013-05-20T11:09:53Z</time>
      </trkpt>
      <trkpt lat="42.918400" lon="-8.336252">
        <ele>354.014</ele>
        <time>2013-05-20T11:10:03Z</time>
      </trkpt>
      <trkpt lat="42.918417" lon="-8.336381">
        <ele>349.030</ele>
        <time>2013-05-20T11:10:12Z</time>
      </trkpt>
      <trkpt lat="42.918436" lon="-8.336502">
        <ele>351.023</ele>
        <time>2013-05-20T11:10:20Z</time>
      </trkpt>
      <trkpt lat="42.918451" lon="-8.336628">
        <ele>349.082</ele>
        <time>2013-05-20T11:10:26Z</time>
      </trkpt>
      <trkpt lat="42.918457" lon="-8.336759">
        <ele>352.031</ele>
        <time>2013-05-20T11:10:31Z</time>
      </trkpt>
      <trkpt lat="42.918449" lon="-8.336899">
        <ele>352.084</ele>
        <time>2013-05-20T11:10:38Z</time>
      </trkpt>
      <trkpt lat="42.918429" lon="-8.337028">
        <ele>352.007</ele>
        <time>2013-05-20T11:10:45Z</time>
      </trkpt>
      <trkpt lat="42.918440" lon="-8.337141">
        <ele>351.017</ele>
        <time>2013-05-20T11:10:55Z</time>
      </trkpt>
      <trkpt lat="42.918435" lon="-8.337272">
        <ele>352.007</ele>
        <time>2013-05-20T11:11:02Z</time>
      </trkpt>
      <trkpt lat="42.918401" lon="-8.337359">
        <ele>354.062</ele>
        <time>2013-05-20T11:11:12Z</time>
      </trkpt>
      <trkpt lat="42.918445" lon="-8.337482">
        <ele>353.023</ele>
        <time>2013-05-20T11:11:20Z</time>
      </trkpt>
      <trkpt lat="42.918453" lon="-8.337605">
        <ele>354.029</ele>
        <time>2013-05-20T11:11:28Z</time>
      </trkpt>
      <trkpt lat="42.918458" lon="-8.337740">
        <ele>356.035</ele>
        <time>2013-05-20T11:11:35Z</time>
      </trkpt>
      <trkpt lat="42.918500" lon="-8.337859">
        <ele>358.058</ele>
        <time>2013-05-20T11:11:44Z</time>
      </trkpt>
      <trkpt lat="42.918524" lon="-8.337978">
        <ele>357.077</ele>
        <time>2013-05-20T11:11:53Z</time>
      </trkpt>
      <trkpt lat="42.918529" lon="-8.338116">
        <ele>357.026</ele>
        <time>2013-05-20T11:12:00Z</time>
      </trkpt>
      <trkpt lat="42.918519" lon="-8.338239">
        <ele>354.059</ele>
        <time>2013-05-20T11:12:05Z</time>
      </trkpt>
      <trkpt lat="42.918505" lon="-8.338384">
        <ele>353.003</ele>
        <time>2013-05-20T11:12:13Z</time>
      </trkpt>
      <trkpt lat="42.918499" lon="-8.338518">
        <ele>349.023</ele>
        <time>2013-05-20T11:12:23Z</time>
      </trkpt>
      <trkpt lat="42.918511" lon="-8.338653">
        <ele>349.007</ele>
        <time>2013-05-20T11:12:31Z</time>
      </trkpt>
      <trkpt lat="42.918466" lon="-8.338762">
        <ele>349.019</ele>
        <time>2013-05-20T11:12:40Z</time>
      </trkpt>
      <trkpt lat="42.918446" lon="-8.338887">
        <ele>350.070</ele>
        <time>2013-05-20T11:12:48Z</time>
      </trkpt>
      <trkpt lat="42.918430" lon="-8.339010">
        <ele>345.026</ele>
        <time>2013-05-20T11:12:55Z</time>
      </trkpt>
      <trkpt lat="42.918397" lon="-8.339134">
        <ele>346.032</ele>
        <time>2013-05-20T11:13:02Z</time>
      </trkpt>
      <trkpt lat="42.918357" lon="-8.339254">
        <ele>346.075</ele>
        <time>2013-05-20T11:13:10Z</time>
      </trkpt>
      <trkpt lat="42.918310" lon="-8.339362">
        <ele>347.044</ele>
        <time>2013-05-20T11:13:17Z</time>
      </trkpt>
      <trkpt lat="42.918288" lon="-8.339483">
        <ele>349.033</ele>
        <time>2013-05-20T11:13:24Z</time>
      </trkpt>
      <trkpt lat="42.918245" lon="-8.339598">
        <ele>351.055</ele>
        <time>2013-05-20T11:13:34Z</time>
      </trkpt>
      <trkpt lat="42.918224" lon="-8.339660">
        <ele>352.007</ele>
        <time>2013-05-20T11:13:55Z</time>
      </trkpt>
      <trkpt lat="42.918185" lon="-8.339803">
        <ele>354.017</ele>
        <time>2013-05-20T11:14:00Z</time>
      </trkpt>
      <trkpt lat="42.918169" lon="-8.339930">
        <ele>353.007</ele>
        <time>2013-05-20T11:14:04Z</time>
      </trkpt>
      <trkpt lat="42.918139" lon="-8.340050">
        <ele>354.059</ele>
        <time>2013-05-20T11:14:09Z</time>
      </trkpt>
      <trkpt lat="42.918110" lon="-8.340174">
        <ele>354.090</ele>
        <time>2013-05-20T11:14:18Z</time>
      </trkpt>
      <trkpt lat="42.918099" lon="-8.340301">
        <ele>350.046</ele>
        <time>2013-05-20T11:14:26Z</time>
      </trkpt>
      <trkpt lat="42.918062" lon="-8.340416">
        <ele>348.052</ele>
        <time>2013-05-20T11:14:34Z</time>
      </trkpt>
      <trkpt lat="42.918024" lon="-8.340536">
        <ele>348.085</ele>
        <time>2013-05-20T11:14:43Z</time>
      </trkpt>
      <trkpt lat="42.918000" lon="-8.340666">
        <ele>344.054</ele>
        <time>2013-05-20T11:14:53Z</time>
      </trkpt>
      <trkpt lat="42.917958" lon="-8.340791">
        <ele>347.033</ele>
        <time>2013-05-20T11:15:01Z</time>
      </trkpt>
      <trkpt lat="42.917901" lon="-8.340896">
        <ele>351.046</ele>
        <time>2013-05-20T11:15:09Z</time>
      </trkpt>
      <trkpt lat="42.917887" lon="-8.341026">
        <ele>353.088</ele>
        <time>2013-05-20T11:15:16Z</time>
      </trkpt>
      <trkpt lat="42.917847" lon="-8.341149">
        <ele>354.016</ele>
        <time>2013-05-20T11:15:24Z</time>
      </trkpt>
      <trkpt lat="42.917796" lon="-8.341259">
        <ele>356.007</ele>
        <time>2013-05-20T11:15:32Z</time>
      </trkpt>
      <trkpt lat="42.917768" lon="-8.341387">
        <ele>353.098</ele>
        <time>2013-05-20T11:15:41Z</time>
      </trkpt>
      <trkpt lat="42.917736" lon="-8.341517">
        <ele>352.049</ele>
        <time>2013-05-20T11:15:51Z</time>
      </trkpt>
      <trkpt lat="42.917687" lon="-8.341626">
        <ele>352.065</ele>
        <time>2013-05-20T11:15:58Z</time>
      </trkpt>
      <trkpt lat="42.917615" lon="-8.341723">
        <ele>353.021</ele>
        <time>2013-05-20T11:16:05Z</time>
      </trkpt>
      <trkpt lat="42.917576" lon="-8.341851">
        <ele>353.084</ele>
        <time>2013-05-20T11:16:11Z</time>
      </trkpt>
      <trkpt lat="42.917547" lon="-8.341979">
        <ele>352.023</ele>
        <time>2013-05-20T11:16:18Z</time>
      </trkpt>
      <trkpt lat="42.917501" lon="-8.342087">
        <ele>353.022</ele>
        <time>2013-05-20T11:16:25Z</time>
      </trkpt>
      <trkpt lat="42.917482" lon="-8.342218">
        <ele>351.085</ele>
        <time>2013-05-20T11:16:31Z</time>
      </trkpt>
      <trkpt lat="42.917460" lon="-8.342347">
        <ele>354.089</ele>
        <time>2013-05-20T11:16:37Z</time>
      </trkpt>
      <trkpt lat="42.917431" lon="-8.342460">
        <ele>355.017</ele>
        <time>2013-05-20T11:16:47Z</time>
      </trkpt>
      <trkpt lat="42.917383" lon="-8.342587">
        <ele>353.007</ele>
        <time>2013-05-20T11:16:57Z</time>
      </trkpt>
      <trkpt lat="42.917325" lon="-8.342697">
        <ele>356.072</ele>
        <time>2013-05-20T11:17:07Z</time>
      </trkpt>
      <trkpt lat="42.917269" lon="-8.342801">
        <ele>354.083</ele>
        <time>2013-05-20T11:17:15Z</time>
      </trkpt>
      <trkpt lat="42.917230" lon="-8.342898">
        <ele>355.039</ele>
        <time>2013-05-20T11:17:25Z</time>
      </trkpt>
      <trkpt lat="42.917214" lon="-8.343024">
        <ele>355.085</ele>
        <time>2013-05-20T11:17:33Z</time>
      </trkpt>
      <trkpt lat="42.917156" lon="-8.343141">
        <ele>348.018</ele>
        <time>2013-05-20T11:17:41Z</time>
      </trkpt>
      <trkpt lat="42.917066" lon="-8.343218">
        <ele>342.097</ele>
        <time>2013-05-20T11:17:47Z</time>
      </trkpt>
      <trkpt lat="42.916985" lon="-8.343300">
        <ele>337.036</ele>
        <time>2013-05-20T11:17:55Z</time>
      </trkpt>
      <trkpt lat="42.916888" lon="-8.343321">
        <ele>335.033</ele>
        <time>2013-05-20T11:18:04Z</time>
      </trkpt>
      <trkpt lat="42.916799" lon="-8.343362">
        <ele>333.023</ele>
        <time>2013-05-20T11:18:11Z</time>
      </trkpt>
      <trkpt lat="42.916709" lon="-8.343309">
        <ele>332.015</ele>
        <time>2013-05-20T11:18:18Z</time>
      </trkpt>
      <trkpt lat="42.916638" lon="-8.343222">
        <ele>327.007</ele>
        <time>2013-05-20T11:18:26Z</time>
      </trkpt>
      <trkpt lat="42.916547" lon="-8.343256">
        <ele>325.087</ele>
        <time>2013-05-20T11:18:33Z</time>
      </trkpt>
      <trkpt lat="42.916552" lon="-8.343378">
        <ele>321.018</ele>
        <time>2013-05-20T11:18:41Z</time>
      </trkpt>
      <trkpt lat="42.916608" lon="-8.343498">
        <ele>320.014</ele>
        <time>2013-05-20T11:18:47Z</time>
      </trkpt>
      <trkpt lat="42.916624" lon="-8.343620">
        <ele>319.070</ele>
        <time>2013-05-20T11:18:56Z</time>
      </trkpt>
      <trkpt lat="42.916617" lon="-8.343749">
        <ele>317.093</ele>
        <time>2013-05-20T11:19:04Z</time>
      </trkpt>
      <trkpt lat="42.916573" lon="-8.343847">
        <ele>317.052</ele>
        <time>2013-05-20T11:19:14Z</time>
      </trkpt>
      <trkpt lat="42.916493" lon="-8.343912">
        <ele>316.021</ele>
        <time>2013-05-20T11:19:25Z</time>
      </trkpt>
      <trkpt lat="42.916405" lon="-8.343972">
        <ele>317.051</ele>
        <time>2013-05-20T11:19:31Z</time>
      </trkpt>
      <trkpt lat="42.916339" lon="-8.344058">
        <ele>319.001</ele>
        <time>2013-05-20T11:19:37Z</time>
      </trkpt>
      <trkpt lat="42.916309" lon="-8.344187">
        <ele>321.011</ele>
        <time>2013-05-20T11:19:45Z</time>
      </trkpt>
      <trkpt lat="42.916329" lon="-8.344318">
        <ele>319.007</ele>
        <time>2013-05-20T11:19:53Z</time>
      </trkpt>
      <trkpt lat="42.916336" lon="-8.344446">
        <ele>316.019</ele>
        <time>2013-05-20T11:19:59Z</time>
      </trkpt>
      <trkpt lat="42.916297" lon="-8.344572">
        <ele>317.020</ele>
        <time>2013-05-20T11:20:08Z</time>
      </trkpt>
      <trkpt lat="42.916267" lon="-8.344648">
        <ele>318.076</ele>
        <time>2013-05-20T11:20:18Z</time>
      </trkpt>
      <trkpt lat="42.916210" lon="-8.344751">
        <ele>318.062</ele>
        <time>2013-05-20T11:20:25Z</time>
      </trkpt>
      <trkpt lat="42.916175" lon="-8.344878">
        <ele>320.085</ele>
        <time>2013-05-20T11:20:30Z</time>
      </trkpt>
      <trkpt lat="42.916224" lon="-8.345055">
        <ele>321.094</ele>
        <time>2013-05-20T11:20:31Z</time>
      </trkpt>
      <trkpt lat="42.916187" lon="-8.345102">
        <ele>321.063</ele>
        <time>2013-05-20T11:20:45Z</time>
      </trkpt>
      <trkpt lat="42.916174" lon="-8.345187">
        <ele>312.028</ele>
        <time>2013-05-20T11:20:55Z</time>
      </trkpt>
      <trkpt lat="42.916125" lon="-8.345296">
        <ele>312.089</ele>
        <time>2013-05-20T11:21:07Z</time>
      </trkpt>
      <trkpt lat="42.916177" lon="-8.345403">
        <ele>312.017</ele>
        <time>2013-05-20T11:21:11Z</time>
      </trkpt>
      <trkpt lat="42.916105" lon="-8.345512">
        <ele>311.007</ele>
        <time>2013-05-20T11:21:17Z</time>
      </trkpt>
      <trkpt lat="42.916016" lon="-8.345543">
        <ele>310.046</ele>
        <time>2013-05-20T11:21:20Z</time>
      </trkpt>
      <trkpt lat="42.915940" lon="-8.345624">
        <ele>310.097</ele>
        <time>2013-05-20T11:21:24Z</time>
      </trkpt>
      <trkpt lat="42.915864" lon="-8.345714">
        <ele>311.013</ele>
        <time>2013-05-20T11:21:31Z</time>
      </trkpt>
      <trkpt lat="42.915796" lon="-8.345810">
        <ele>314.049</ele>
        <time>2013-05-20T11:21:40Z</time>
      </trkpt>
      <trkpt lat="42.915744" lon="-8.345934">
        <ele>312.062</ele>
        <time>2013-05-20T11:21:50Z</time>
      </trkpt>
      <trkpt lat="42.915673" lon="-8.346025">
        <ele>311.091</ele>
        <time>2013-05-20T11:21:59Z</time>
      </trkpt>
      <trkpt lat="42.915687" lon="-8.346150">
        <ele>310.010</ele>
        <time>2013-05-20T11:22:07Z</time>
      </trkpt>
      <trkpt lat="42.915680" lon="-8.346273">
        <ele>309.081</ele>
        <time>2013-05-20T11:22:14Z</time>
      </trkpt>
      <trkpt lat="42.915642" lon="-8.346397">
        <ele>306.061</ele>
        <time>2013-05-20T11:22:20Z</time>
      </trkpt>
      <trkpt lat="42.915577" lon="-8.346442">
        <ele>309.017</ele>
        <time>2013-05-20T11:22:30Z</time>
      </trkpt>
      <trkpt lat="42.915531" lon="-8.346558">
        <ele>311.007</ele>
        <time>2013-05-20T11:22:37Z</time>
      </trkpt>
      <trkpt lat="42.915465" lon="-8.346653">
        <ele>313.032</ele>
        <time>2013-05-20T11:22:43Z</time>
      </trkpt>
      <trkpt lat="42.915404" lon="-8.346741">
        <ele>316.063</ele>
        <time>2013-05-20T11:22:53Z</time>
      </trkpt>
      <trkpt lat="42.915384" lon="-8.346862">
        <ele>312.089</ele>
        <time>2013-05-20T11:23:01Z</time>
      </trkpt>
      <trkpt lat="42.915315" lon="-8.346948">
        <ele>313.025</ele>
        <time>2013-05-20T11:23:08Z</time>
      </trkpt>
      <trkpt lat="42.915237" lon="-8.347039">
        <ele>311.028</ele>
        <time>2013-05-20T11:23:17Z</time>
      </trkpt>
      <trkpt lat="42.915171" lon="-8.347121">
        <ele>310.057</ele>
        <time>2013-05-20T11:23:27Z</time>
      </trkpt>
      <trkpt lat="42.915101" lon="-8.347216">
        <ele>311.016</ele>
        <time>2013-05-20T11:23:33Z</time>
      </trkpt>
      <trkpt lat="42.915035" lon="-8.347305">
        <ele>314.072</ele>
        <time>2013-05-20T11:23:41Z</time>
      </trkpt>
      <trkpt lat="42.914966" lon="-8.347392">
        <ele>317.013</ele>
        <time>2013-05-20T11:23:50Z</time>
      </trkpt>
      <trkpt lat="42.914927" lon="-8.347518">
        <ele>318.014</ele>
        <time>2013-05-20T11:24:00Z</time>
      </trkpt>
      <trkpt lat="42.914864" lon="-8.347608">
        <ele>318.007</ele>
        <time>2013-05-20T11:24:08Z</time>
      </trkpt>
      <trkpt lat="42.914796" lon="-8.347698">
        <ele>318.051</ele>
        <time>2013-05-20T11:24:16Z</time>
      </trkpt>
      <trkpt lat="42.914746" lon="-8.347801">
        <ele>314.052</ele>
        <time>2013-05-20T11:24:23Z</time>
      </trkpt>
      <trkpt lat="42.914750" lon="-8.347902">
        <ele>310.038</ele>
        <time>2013-05-20T11:24:33Z</time>
      </trkpt>
      <trkpt lat="42.914750" lon="-8.348030">
        <ele>305.074</ele>
        <time>2013-05-20T11:24:41Z</time>
      </trkpt>
      <trkpt lat="42.914691" lon="-8.348171">
        <ele>305.047</ele>
        <time>2013-05-20T11:24:46Z</time>
      </trkpt>
      <trkpt lat="42.914647" lon="-8.348281">
        <ele>305.026</ele>
        <time>2013-05-20T11:24:54Z</time>
      </trkpt>
      <trkpt lat="42.914613" lon="-8.348404">
        <ele>304.025</ele>
        <time>2013-05-20T11:25:02Z</time>
      </trkpt>
      <trkpt lat="42.914591" lon="-8.348526">
        <ele>304.032</ele>
        <time>2013-05-20T11:25:09Z</time>
      </trkpt>
      <trkpt lat="42.914545" lon="-8.348642">
        <ele>304.092</ele>
        <time>2013-05-20T11:25:19Z</time>
      </trkpt>
      <trkpt lat="42.914513" lon="-8.348761">
        <ele>303.011</ele>
        <time>2013-05-20T11:25:28Z</time>
      </trkpt>
      <trkpt lat="42.914464" lon="-8.348884">
        <ele>302.007</ele>
        <time>2013-05-20T11:25:34Z</time>
      </trkpt>
      <trkpt lat="42.914429" lon="-8.349002">
        <ele>300.037</ele>
        <time>2013-05-20T11:25:43Z</time>
      </trkpt>
      <trkpt lat="42.914388" lon="-8.349128">
        <ele>295.028</ele>
        <time>2013-05-20T11:25:53Z</time>
      </trkpt>
      <trkpt lat="42.914456" lon="-8.349209">
        <ele>298.064</ele>
        <time>2013-05-20T11:26:01Z</time>
      </trkpt>
      <trkpt lat="42.914533" lon="-8.349283">
        <ele>297.090</ele>
        <time>2013-05-20T11:26:09Z</time>
      </trkpt>
      <trkpt lat="42.914620" lon="-8.349336">
        <ele>296.053</ele>
        <time>2013-05-20T11:26:17Z</time>
      </trkpt>
      <trkpt lat="42.914696" lon="-8.349416">
        <ele>293.012</ele>
        <time>2013-05-20T11:26:27Z</time>
      </trkpt>
      <trkpt lat="42.914744" lon="-8.349526">
        <ele>287.061</ele>
        <time>2013-05-20T11:26:36Z</time>
      </trkpt>
      <trkpt lat="42.914709" lon="-8.349657">
        <ele>277.057</ele>
        <time>2013-05-20T11:26:44Z</time>
      </trkpt>
      <trkpt lat="42.914688" lon="-8.349785">
        <ele>277.000</ele>
        <time>2013-05-20T11:26:54Z</time>
      </trkpt>
      <trkpt lat="42.914690" lon="-8.349924">
        <ele>277.020</ele>
        <time>2013-05-20T11:27:01Z</time>
      </trkpt>
      <trkpt lat="42.914724" lon="-8.350059">
        <ele>279.007</ele>
        <time>2013-05-20T11:27:09Z</time>
      </trkpt>
      <trkpt lat="42.914673" lon="-8.350168">
        <ele>278.099</ele>
        <time>2013-05-20T11:27:17Z</time>
      </trkpt>
      <trkpt lat="42.914638" lon="-8.350282">
        <ele>279.010</ele>
        <time>2013-05-20T11:27:27Z</time>
      </trkpt>
      <trkpt lat="42.914594" lon="-8.350410">
        <ele>278.046</ele>
        <time>2013-05-20T11:27:34Z</time>
      </trkpt>
      <trkpt lat="42.914561" lon="-8.350511">
        <ele>279.052</ele>
        <time>2013-05-20T11:27:44Z</time>
      </trkpt>
      <trkpt lat="42.914530" lon="-8.350635">
        <ele>278.015</ele>
        <time>2013-05-20T11:27:51Z</time>
      </trkpt>
      <trkpt lat="42.914522" lon="-8.350759">
        <ele>283.024</ele>
        <time>2013-05-20T11:28:00Z</time>
      </trkpt>
      <trkpt lat="42.914489" lon="-8.350880">
        <ele>284.043</ele>
        <time>2013-05-20T11:28:09Z</time>
      </trkpt>
      <trkpt lat="42.914442" lon="-8.351009">
        <ele>283.077</ele>
        <time>2013-05-20T11:28:18Z</time>
      </trkpt>
      <trkpt lat="42.914390" lon="-8.351129">
        <ele>283.061</ele>
        <time>2013-05-20T11:28:24Z</time>
      </trkpt>
      <trkpt lat="42.914321" lon="-8.351218">
        <ele>278.027</ele>
        <time>2013-05-20T11:28:34Z</time>
      </trkpt>
      <trkpt lat="42.914306" lon="-8.351339">
        <ele>277.007</ele>
        <time>2013-05-20T11:28:40Z</time>
      </trkpt>
      <trkpt lat="42.914253" lon="-8.351468">
        <ele>278.021</ele>
        <time>2013-05-20T11:28:47Z</time>
      </trkpt>
      <trkpt lat="42.914208" lon="-8.351584">
        <ele>279.052</ele>
        <time>2013-05-20T11:28:53Z</time>
      </trkpt>
      <trkpt lat="42.914217" lon="-8.351711">
        <ele>276.088</ele>
        <time>2013-05-20T11:29:02Z</time>
      </trkpt>
      <trkpt lat="42.914137" lon="-8.351777">
        <ele>276.064</ele>
        <time>2013-05-20T11:29:07Z</time>
      </trkpt>
      <trkpt lat="42.914079" lon="-8.351891">
        <ele>281.037</ele>
        <time>2013-05-20T11:29:15Z</time>
      </trkpt>
      <trkpt lat="42.914022" lon="-8.351993">
        <ele>273.046</ele>
        <time>2013-05-20T11:29:25Z</time>
      </trkpt>
      <trkpt lat="42.913991" lon="-8.352116">
        <ele>275.025</ele>
        <time>2013-05-20T11:29:34Z</time>
      </trkpt>
      <trkpt lat="42.913986" lon="-8.352252">
        <ele>275.082</ele>
        <time>2013-05-20T11:29:43Z</time>
      </trkpt>
      <trkpt lat="42.913956" lon="-8.352370">
        <ele>275.043</ele>
        <time>2013-05-20T11:29:50Z</time>
      </trkpt>
      <trkpt lat="42.913891" lon="-8.352456">
        <ele>273.017</ele>
        <time>2013-05-20T11:29:57Z</time>
      </trkpt>
      <trkpt lat="42.913809" lon="-8.352526">
        <ele>274.007</ele>
        <time>2013-05-20T11:30:03Z</time>
      </trkpt>
      <trkpt lat="42.913777" lon="-8.352655">
        <ele>277.052</ele>
        <time>2013-05-20T11:30:12Z</time>
      </trkpt>
      <trkpt lat="42.913734" lon="-8.352766">
        <ele>280.043</ele>
        <time>2013-05-20T11:30:18Z</time>
      </trkpt>
      <trkpt lat="42.913683" lon="-8.352877">
        <ele>278.059</ele>
        <time>2013-05-20T11:30:24Z</time>
      </trkpt>
      <trkpt lat="42.913631" lon="-8.352954">
        <ele>276.085</ele>
        <time>2013-05-20T11:30:34Z</time>
      </trkpt>
      <trkpt lat="42.913568" lon="-8.353031">
        <ele>278.088</ele>
        <time>2013-05-20T11:30:44Z</time>
      </trkpt>
      <trkpt lat="42.913517" lon="-8.353162">
        <ele>278.017</ele>
        <time>2013-05-20T11:30:50Z</time>
      </trkpt>
      <trkpt lat="42.913442" lon="-8.353248">
        <ele>276.076</ele>
        <time>2013-05-20T11:30:58Z</time>
      </trkpt>
      <trkpt lat="42.913353" lon="-8.353280">
        <ele>276.036</ele>
        <time>2013-05-20T11:31:03Z</time>
      </trkpt>
      <trkpt lat="42.913303" lon="-8.353391">
        <ele>278.017</ele>
        <time>2013-05-20T11:31:12Z</time>
      </trkpt>
      <trkpt lat="42.913241" lon="-8.353498">
        <ele>277.018</ele>
        <time>2013-05-20T11:31:18Z</time>
      </trkpt>
      <trkpt lat="42.913155" lon="-8.353499">
        <ele>273.007</ele>
        <time>2013-05-20T11:31:28Z</time>
      </trkpt>
      <trkpt lat="42.913081" lon="-8.353581">
        <ele>274.027</ele>
        <time>2013-05-20T11:31:36Z</time>
      </trkpt>
      <trkpt lat="42.913044" lon="-8.353651">
        <ele>278.018</ele>
        <time>2013-05-20T11:31:47Z</time>
      </trkpt>
      <trkpt lat="42.913007" lon="-8.353767">
        <ele>279.044</ele>
        <time>2013-05-20T11:31:51Z</time>
      </trkpt>
      <trkpt lat="42.912959" lon="-8.353874">
        <ele>277.080</ele>
        <time>2013-05-20T11:31:56Z</time>
      </trkpt>
      <trkpt lat="42.912886" lon="-8.353909">
        <ele>274.063</ele>
        <time>2013-05-20T11:32:06Z</time>
      </trkpt>
      <trkpt lat="42.912823" lon="-8.354008">
        <ele>271.062</ele>
        <time>2013-05-20T11:32:15Z</time>
      </trkpt>
      <trkpt lat="42.912801" lon="-8.354141">
        <ele>271.091</ele>
        <time>2013-05-20T11:32:25Z</time>
      </trkpt>
      <trkpt lat="42.912751" lon="-8.354251">
        <ele>269.086</ele>
        <time>2013-05-20T11:32:33Z</time>
      </trkpt>
      <trkpt lat="42.912682" lon="-8.354344">
        <ele>267.060</ele>
        <time>2013-05-20T11:32:41Z</time>
      </trkpt>
      <trkpt lat="42.912661" lon="-8.354471">
        <ele>265.026</ele>
        <time>2013-05-20T11:32:50Z</time>
      </trkpt>
      <trkpt lat="42.912614" lon="-8.354585">
        <ele>265.007</ele>
        <time>2013-05-20T11:32:58Z</time>
      </trkpt>
      <trkpt lat="42.912640" lon="-8.354727">
        <ele>265.032</ele>
        <time>2013-05-20T11:33:07Z</time>
      </trkpt>
      <trkpt lat="42.912572" lon="-8.354818">
        <ele>264.043</ele>
        <time>2013-05-20T11:33:14Z</time>
      </trkpt>
      <trkpt lat="42.912508" lon="-8.354914">
        <ele>262.059</ele>
        <time>2013-05-20T11:33:22Z</time>
      </trkpt>
      <trkpt lat="42.912493" lon="-8.355041">
        <ele>261.025</ele>
        <time>2013-05-20T11:33:30Z</time>
      </trkpt>
      <trkpt lat="42.912539" lon="-8.355157">
        <ele>263.098</ele>
        <time>2013-05-20T11:33:37Z</time>
      </trkpt>
      <trkpt lat="42.912559" lon="-8.355281">
        <ele>266.097</ele>
        <time>2013-05-20T11:33:44Z</time>
      </trkpt>
      <trkpt lat="42.912563" lon="-8.355412">
        <ele>265.086</ele>
        <time>2013-05-20T11:33:51Z</time>
      </trkpt>
      <trkpt lat="42.912499" lon="-8.355512">
        <ele>266.065</ele>
        <time>2013-05-20T11:34:00Z</time>
      </trkpt>
      <trkpt lat="42.912490" lon="-8.355625">
        <ele>264.068</ele>
        <time>2013-05-20T11:34:10Z</time>
      </trkpt>
      <trkpt lat="42.912495" lon="-8.355765">
        <ele>261.014</ele>
        <time>2013-05-20T11:34:16Z</time>
      </trkpt>
      <trkpt lat="42.912522" lon="-8.355884">
        <ele>261.007</ele>
        <time>2013-05-20T11:34:22Z</time>
      </trkpt>
      <trkpt lat="42.912538" lon="-8.355974">
        <ele>263.070</ele>
        <time>2013-05-20T11:34:32Z</time>
      </trkpt>
      <trkpt lat="42.912519" lon="-8.356104">
        <ele>260.081</ele>
        <time>2013-05-20T11:34:41Z</time>
      </trkpt>
      <trkpt lat="42.912510" lon="-8.356230">
        <ele>260.077</ele>
        <time>2013-05-20T11:34:51Z</time>
      </trkpt>
      <trkpt lat="42.912522" lon="-8.356357">
        <ele>260.083</ele>
        <time>2013-05-20T11:34:58Z</time>
      </trkpt>
      <trkpt lat="42.912521" lon="-8.356490">
        <ele>259.066</ele>
        <time>2013-05-20T11:35:08Z</time>
      </trkpt>
      <trkpt lat="42.912517" lon="-8.356614">
        <ele>258.025</ele>
        <time>2013-05-20T11:35:16Z</time>
      </trkpt>
      <trkpt lat="42.912492" lon="-8.356751">
        <ele>261.074</ele>
        <time>2013-05-20T11:35:23Z</time>
      </trkpt>
      <trkpt lat="42.912463" lon="-8.356885">
        <ele>261.087</ele>
        <time>2013-05-20T11:35:30Z</time>
      </trkpt>
      <trkpt lat="42.912428" lon="-8.356984">
        <ele>262.042</ele>
        <time>2013-05-20T11:35:40Z</time>
      </trkpt>
      <trkpt lat="42.912411" lon="-8.357115">
        <ele>261.026</ele>
        <time>2013-05-20T11:35:50Z</time>
      </trkpt>
      <trkpt lat="42.912440" lon="-8.357239">
        <ele>260.007</ele>
        <time>2013-05-20T11:35:57Z</time>
      </trkpt>
      <trkpt lat="42.912392" lon="-8.357349">
        <ele>259.092</ele>
        <time>2013-05-20T11:36:06Z</time>
      </trkpt>
      <trkpt lat="42.912300" lon="-8.357419">
        <ele>264.073</ele>
        <time>2013-05-20T11:36:14Z</time>
      </trkpt>
      <trkpt lat="42.912219" lon="-8.357509">
        <ele>262.019</ele>
        <time>2013-05-20T11:36:22Z</time>
      </trkpt>
      <trkpt lat="42.912190" lon="-8.357580">
        <ele>264.035</ele>
        <time>2013-05-20T11:36:39Z</time>
      </trkpt>
      <trkpt lat="42.912122" lon="-8.357690">
        <ele>267.048</ele>
        <time>2013-05-20T11:36:46Z</time>
      </trkpt>
      <trkpt lat="42.912033" lon="-8.357752">
        <ele>265.067</ele>
        <time>2013-05-20T11:36:53Z</time>
      </trkpt>
      <trkpt lat="42.911946" lon="-8.357808">
        <ele>265.036</ele>
        <time>2013-05-20T11:37:00Z</time>
      </trkpt>
      <trkpt lat="42.911926" lon="-8.357928">
        <ele>270.028</ele>
        <time>2013-05-20T11:37:06Z</time>
      </trkpt>
      <trkpt lat="42.911910" lon="-8.358028">
        <ele>264.089</ele>
        <time>2013-05-20T11:37:16Z</time>
      </trkpt>
      <trkpt lat="42.911811" lon="-8.358028">
        <ele>262.017</ele>
        <time>2013-05-20T11:37:21Z</time>
      </trkpt>
      <trkpt lat="42.911745" lon="-8.358132">
        <ele>263.007</ele>
        <time>2013-05-20T11:37:28Z</time>
      </trkpt>
      <trkpt lat="42.911704" lon="-8.358237">
        <ele>262.066</ele>
        <time>2013-05-20T11:37:38Z</time>
      </trkpt>
      <trkpt lat="42.911702" lon="-8.358324">
        <ele>263.097</ele>
        <time>2013-05-20T11:37:52Z</time>
      </trkpt>
      <trkpt lat="42.911622" lon="-8.358420">
        <ele>264.063</ele>
        <time>2013-05-20T11:37:58Z</time>
      </trkpt>
      <trkpt lat="42.911548" lon="-8.358502">
        <ele>262.079</ele>
        <time>2013-05-20T11:38:03Z</time>
      </trkpt>
      <trkpt lat="42.911473" lon="-8.358607">
        <ele>264.052</ele>
        <time>2013-05-20T11:38:08Z</time>
      </trkpt>
      <trkpt lat="42.911424" lon="-8.358722">
        <ele>268.021</ele>
        <time>2013-05-20T11:38:15Z</time>
      </trkpt>
      <trkpt lat="42.911367" lon="-8.358833">
        <ele>267.070</ele>
        <time>2013-05-20T11:38:22Z</time>
      </trkpt>
      <trkpt lat="42.911273" lon="-8.358891">
        <ele>259.016</ele>
        <time>2013-05-20T11:38:29Z</time>
      </trkpt>
      <trkpt lat="42.911180" lon="-8.358971">
        <ele>260.076</ele>
        <time>2013-05-20T11:38:35Z</time>
      </trkpt>
      <trkpt lat="42.911112" lon="-8.359057">
        <ele>264.013</ele>
        <time>2013-05-20T11:38:43Z</time>
      </trkpt>
      <trkpt lat="42.911045" lon="-8.359149">
        <ele>261.007</ele>
        <time>2013-05-20T11:38:49Z</time>
      </trkpt>
      <trkpt lat="42.910970" lon="-8.359218">
        <ele>261.015</ele>
        <time>2013-05-20T11:38:58Z</time>
      </trkpt>
      <trkpt lat="42.910914" lon="-8.359335">
        <ele>263.076</ele>
        <time>2013-05-20T11:39:05Z</time>
      </trkpt>
      <trkpt lat="42.910908" lon="-8.359461">
        <ele>264.082</ele>
        <time>2013-05-20T11:39:14Z</time>
      </trkpt>
      <trkpt lat="42.910866" lon="-8.359586">
        <ele>266.068</ele>
        <time>2013-05-20T11:39:23Z</time>
      </trkpt>
      <trkpt lat="42.910851" lon="-8.359713">
        <ele>267.011</ele>
        <time>2013-05-20T11:39:31Z</time>
      </trkpt>
      <trkpt lat="42.910792" lon="-8.359817">
        <ele>268.050</ele>
        <time>2013-05-20T11:39:39Z</time>
      </trkpt>
      <trkpt lat="42.910694" lon="-8.359861">
        <ele>268.029</ele>
        <time>2013-05-20T11:39:45Z</time>
      </trkpt>
      <trkpt lat="42.910653" lon="-8.359992">
        <ele>271.039</ele>
        <time>2013-05-20T11:39:55Z</time>
      </trkpt>
      <trkpt lat="42.910590" lon="-8.360093">
        <ele>273.001</ele>
        <time>2013-05-20T11:40:05Z</time>
      </trkpt>
      <trkpt lat="42.910569" lon="-8.360215">
        <ele>277.021</ele>
        <time>2013-05-20T11:40:11Z</time>
      </trkpt>
      <trkpt lat="42.910539" lon="-8.360322">
        <ele>280.007</ele>
        <time>2013-05-20T11:40:21Z</time>
      </trkpt>
      <trkpt lat="42.910502" lon="-8.360439">
        <ele>279.067</ele>
        <time>2013-05-20T11:40:28Z</time>
      </trkpt>
      <trkpt lat="42.910449" lon="-8.360560">
        <ele>275.038</ele>
        <time>2013-05-20T11:40:35Z</time>
      </trkpt>
      <trkpt lat="42.910397" lon="-8.360661">
        <ele>277.014</ele>
        <time>2013-05-20T11:40:40Z</time>
      </trkpt>
      <trkpt lat="42.910331" lon="-8.360772">
        <ele>276.040</ele>
        <time>2013-05-20T11:40:49Z</time>
      </trkpt>
      <trkpt lat="42.910255" lon="-8.360849">
        <ele>275.033</ele>
        <time>2013-05-20T11:40:57Z</time>
      </trkpt>
      <trkpt lat="42.910210" lon="-8.360943">
        <ele>275.062</ele>
        <time>2013-05-20T11:41:07Z</time>
      </trkpt>
      <trkpt lat="42.910175" lon="-8.361055">
        <ele>278.021</ele>
        <time>2013-05-20T11:41:14Z</time>
      </trkpt>
      <trkpt lat="42.910147" lon="-8.361198">
        <ele>281.076</ele>
        <time>2013-05-20T11:41:23Z</time>
      </trkpt>
      <trkpt lat="42.910117" lon="-8.361327">
        <ele>283.090</ele>
        <time>2013-05-20T11:41:31Z</time>
      </trkpt>
      <trkpt lat="42.910117" lon="-8.361431">
        <ele>287.019</ele>
        <time>2013-05-20T11:41:41Z</time>
      </trkpt>
      <trkpt lat="42.910088" lon="-8.361559">
        <ele>287.007</ele>
        <time>2013-05-20T11:41:51Z</time>
      </trkpt>
      <trkpt lat="42.910086" lon="-8.361683">
        <ele>285.041</ele>
        <time>2013-05-20T11:41:58Z</time>
      </trkpt>
      <trkpt lat="42.910086" lon="-8.361819">
        <ele>283.052</ele>
        <time>2013-05-20T11:42:04Z</time>
      </trkpt>
      <trkpt lat="42.910040" lon="-8.361949">
        <ele>286.048</ele>
        <time>2013-05-20T11:42:13Z</time>
      </trkpt>
      <trkpt lat="42.909972" lon="-8.362045">
        <ele>281.064</ele>
        <time>2013-05-20T11:42:20Z</time>
      </trkpt>
      <trkpt lat="42.909938" lon="-8.362146">
        <ele>287.097</ele>
        <time>2013-05-20T11:42:30Z</time>
      </trkpt>
      <trkpt lat="42.909863" lon="-8.362219">
        <ele>285.076</ele>
        <time>2013-05-20T11:42:37Z</time>
      </trkpt>
      <trkpt lat="42.909822" lon="-8.362331">
        <ele>285.035</ele>
        <time>2013-05-20T11:42:43Z</time>
      </trkpt>
      <trkpt lat="42.909837" lon="-8.362433">
        <ele>284.064</ele>
        <time>2013-05-20T11:42:53Z</time>
      </trkpt>
      <trkpt lat="42.909778" lon="-8.362538">
        <ele>286.006</ele>
        <time>2013-05-20T11:43:00Z</time>
      </trkpt>
      <trkpt lat="42.909733" lon="-8.362646">
        <ele>290.016</ele>
        <time>2013-05-20T11:43:06Z</time>
      </trkpt>
      <trkpt lat="42.909666" lon="-8.362750">
        <ele>291.007</ele>
        <time>2013-05-20T11:43:14Z</time>
      </trkpt>
      <trkpt lat="42.909631" lon="-8.362867">
        <ele>289.020</ele>
        <time>2013-05-20T11:43:20Z</time>
      </trkpt>
      <trkpt lat="42.909571" lon="-8.362978">
        <ele>290.021</ele>
        <time>2013-05-20T11:43:27Z</time>
      </trkpt>
      <trkpt lat="42.909519" lon="-8.363074">
        <ele>293.077</ele>
        <time>2013-05-20T11:43:37Z</time>
      </trkpt>
      <trkpt lat="42.909475" lon="-8.363193">
        <ele>296.043</ele>
        <time>2013-05-20T11:43:45Z</time>
      </trkpt>
      <trkpt lat="42.909432" lon="-8.363311">
        <ele>296.096</ele>
        <time>2013-05-20T11:43:53Z</time>
      </trkpt>
      <trkpt lat="42.909362" lon="-8.363396">
        <ele>295.015</ele>
        <time>2013-05-20T11:44:01Z</time>
      </trkpt>
      <trkpt lat="42.909300" lon="-8.363501">
        <ele>297.054</ele>
        <time>2013-05-20T11:44:07Z</time>
      </trkpt>
      <trkpt lat="42.909233" lon="-8.363594">
        <ele>300.027</ele>
        <time>2013-05-20T11:44:13Z</time>
      </trkpt>
      <trkpt lat="42.909182" lon="-8.363687">
        <ele>302.068</ele>
        <time>2013-05-20T11:44:23Z</time>
      </trkpt>
      <trkpt lat="42.909104" lon="-8.363725">
        <ele>304.014</ele>
        <time>2013-05-20T11:44:33Z</time>
      </trkpt>
      <trkpt lat="42.909015" lon="-8.363698">
        <ele>300.007</ele>
        <time>2013-05-20T11:44:40Z</time>
      </trkpt>
      <trkpt lat="42.908925" lon="-8.363656">
        <ele>299.066</ele>
        <time>2013-05-20T11:44:47Z</time>
      </trkpt>
      <trkpt lat="42.908843" lon="-8.363574">
        <ele>298.097</ele>
        <time>2013-05-20T11:44:55Z</time>
      </trkpt>
      <trkpt lat="42.908782" lon="-8.363458">
        <ele>298.093</ele>
        <time>2013-05-20T11:45:01Z</time>
      </trkpt>
      <trkpt lat="42.908723" lon="-8.363344">
        <ele>297.019</ele>
        <time>2013-05-20T11:45:07Z</time>
      </trkpt>
      <trkpt lat="42.908636" lon="-8.363282">
        <ele>295.062</ele>
        <time>2013-05-20T11:45:17Z</time>
      </trkpt>
      <trkpt lat="42.908546" lon="-8.363296">
        <ele>298.081</ele>
        <time>2013-05-20T11:45:26Z</time>
      </trkpt>
      <trkpt lat="42.908475" lon="-8.363338">
        <ele>304.040</ele>
        <time>2013-05-20T11:45:36Z</time>
      </trkpt>
      <trkpt lat="42.908379" lon="-8.363331">
        <ele>305.096</ele>
        <time>2013-05-20T11:45:43Z</time>
      </trkpt>
      <trkpt lat="42.908295" lon="-8.363386">
        <ele>298.031</ele>
        <time>2013-05-20T11:45:51Z</time>
      </trkpt>
      <trkpt lat="42.908204" lon="-8.363455">
        <ele>296.024</ele>
        <time>2013-05-20T11:46:00Z</time>
      </trkpt>
      <trkpt lat="42.908104" lon="-8.363444">
        <ele>296.007</ele>
        <time>2013-05-20T11:46:05Z</time>
      </trkpt>
      <trkpt lat="42.908014" lon="-8.363474">
        <ele>293.033</ele>
        <time>2013-05-20T11:46:13Z</time>
      </trkpt>
      <trkpt lat="42.907921" lon="-8.363506">
        <ele>293.084</ele>
        <time>2013-05-20T11:46:22Z</time>
      </trkpt>
      <trkpt lat="42.907819" lon="-8.363503">
        <ele>294.050</ele>
        <time>2013-05-20T11:46:30Z</time>
      </trkpt>
      <trkpt lat="42.907726" lon="-8.363556">
        <ele>292.026</ele>
        <time>2013-05-20T11:46:40Z</time>
      </trkpt>
      <trkpt lat="42.907657" lon="-8.363655">
        <ele>296.059</ele>
        <time>2013-05-20T11:46:47Z</time>
      </trkpt>
      <trkpt lat="42.907620" lon="-8.363759">
        <ele>295.058</ele>
        <time>2013-05-20T11:46:57Z</time>
      </trkpt>
      <trkpt lat="42.907579" lon="-8.363889">
        <ele>294.057</ele>
        <time>2013-05-20T11:47:04Z</time>
      </trkpt>
      <trkpt lat="42.907521" lon="-8.363987">
        <ele>294.098</ele>
        <time>2013-05-20T11:47:13Z</time>
      </trkpt>
      <trkpt lat="42.907474" lon="-8.364022">
        <ele>293.015</ele>
        <time>2013-05-20T11:47:24Z</time>
      </trkpt>
      <trkpt lat="42.907484" lon="-8.364145">
        <ele>290.026</ele>
        <time>2013-05-20T11:47:31Z</time>
      </trkpt>
      <trkpt lat="42.907451" lon="-8.364284">
        <ele>293.007</ele>
        <time>2013-05-20T11:47:37Z</time>
      </trkpt>
      <trkpt lat="42.907463" lon="-8.364420">
        <ele>294.043</ele>
        <time>2013-05-20T11:47:42Z</time>
      </trkpt>
      <trkpt lat="42.907484" lon="-8.364537">
        <ele>291.024</ele>
        <time>2013-05-20T11:47:52Z</time>
      </trkpt>
      <trkpt lat="42.907572" lon="-8.364596">
        <ele>288.050</ele>
        <time>2013-05-20T11:47:59Z</time>
      </trkpt>
      <trkpt lat="42.907654" lon="-8.364664">
        <ele>288.026</ele>
        <time>2013-05-20T11:48:06Z</time>
      </trkpt>
      <trkpt lat="42.907718" lon="-8.364761">
        <ele>290.059</ele>
        <time>2013-05-20T11:48:13Z</time>
      </trkpt>
      <trkpt lat="42.907795" lon="-8.364878">
        <ele>292.078</ele>
        <time>2013-05-20T11:48:22Z</time>
      </trkpt>
      <trkpt lat="42.907861" lon="-8.364961">
        <ele>292.087</ele>
        <time>2013-05-20T11:48:31Z</time>
      </trkpt>
      <trkpt lat="42.907926" lon="-8.365041">
        <ele>292.019</ele>
        <time>2013-05-20T11:48:41Z</time>
      </trkpt>
      <trkpt lat="42.908002" lon="-8.365110">
        <ele>292.009</ele>
        <time>2013-05-20T11:48:50Z</time>
      </trkpt>
      <trkpt lat="42.908093" lon="-8.365126">
        <ele>293.019</ele>
        <time>2013-05-20T11:48:55Z</time>
      </trkpt>
      <trkpt lat="42.908179" lon="-8.365185">
        <ele>293.007</ele>
        <time>2013-05-20T11:49:02Z</time>
      </trkpt>
      <trkpt lat="42.908236" lon="-8.365305">
        <ele>293.085</ele>
        <time>2013-05-20T11:49:08Z</time>
      </trkpt>
      <trkpt lat="42.908253" lon="-8.365432">
        <ele>293.036</ele>
        <time>2013-05-20T11:49:15Z</time>
      </trkpt>
      <trkpt lat="42.908285" lon="-8.365518">
        <ele>294.072</ele>
        <time>2013-05-20T11:49:25Z</time>
      </trkpt>
      <trkpt lat="42.908331" lon="-8.365627">
        <ele>292.038</ele>
        <time>2013-05-20T11:49:35Z</time>
      </trkpt>
      <trkpt lat="42.908320" lon="-8.365751">
        <ele>292.011</ele>
        <time>2013-05-20T11:49:42Z</time>
      </trkpt>
      <trkpt lat="42.908252" lon="-8.365790">
        <ele>293.040</ele>
        <time>2013-05-20T11:49:52Z</time>
      </trkpt>
      <trkpt lat="42.908248" lon="-8.365881">
        <ele>297.059</ele>
        <time>2013-05-20T11:50:02Z</time>
      </trkpt>
      <trkpt lat="42.908217" lon="-8.366009">
        <ele>298.027</ele>
        <time>2013-05-20T11:50:08Z</time>
      </trkpt>
      <trkpt lat="42.908245" lon="-8.366132">
        <ele>300.068</ele>
        <time>2013-05-20T11:50:15Z</time>
      </trkpt>
      <trkpt lat="42.908199" lon="-8.366238">
        <ele>298.014</ele>
        <time>2013-05-20T11:50:22Z</time>
      </trkpt>
      <trkpt lat="42.908132" lon="-8.366332">
        <ele>299.007</ele>
        <time>2013-05-20T11:50:27Z</time>
      </trkpt>
      <trkpt lat="42.908069" lon="-8.366440">
        <ele>299.046</ele>
        <time>2013-05-20T11:50:35Z</time>
      </trkpt>
      <trkpt lat="42.908025" lon="-8.366556">
        <ele>302.037</ele>
        <time>2013-05-20T11:50:41Z</time>
      </trkpt>
      <trkpt lat="42.907965" lon="-8.366670">
        <ele>302.073</ele>
        <time>2013-05-20T11:50:49Z</time>
      </trkpt>
      <trkpt lat="42.907931" lon="-8.366779">
        <ele>303.049</ele>
        <time>2013-05-20T11:50:59Z</time>
      </trkpt>
      <trkpt lat="42.907925" lon="-8.366870">
        <ele>305.072</ele>
        <time>2013-05-20T11:51:09Z</time>
      </trkpt>
      <trkpt lat="42.907888" lon="-8.367005">
        <ele>304.041</ele>
        <time>2013-05-20T11:51:17Z</time>
      </trkpt>
      <trkpt lat="42.907823" lon="-8.367114">
        <ele>305.090</ele>
        <time>2013-05-20T11:51:24Z</time>
      </trkpt>
      <trkpt lat="42.907769" lon="-8.367215">
        <ele>304.029</ele>
        <time>2013-05-20T11:51:29Z</time>
      </trkpt>
      <trkpt lat="42.907705" lon="-8.367325">
        <ele>305.000</ele>
        <time>2013-05-20T11:51:36Z</time>
      </trkpt>
      <trkpt lat="42.907642" lon="-8.367435">
        <ele>304.020</ele>
        <time>2013-05-20T11:51:44Z</time>
      </trkpt>
      <trkpt lat="42.907597" lon="-8.367543">
        <ele>302.007</ele>
        <time>2013-05-20T11:51:51Z</time>
      </trkpt>
      <trkpt lat="42.907589" lon="-8.367680">
        <ele>301.056</ele>
        <time>2013-05-20T11:51:59Z</time>
      </trkpt>
      <trkpt lat="42.907518" lon="-8.367761">
        <ele>300.027</ele>
        <time>2013-05-20T11:52:06Z</time>
      </trkpt>
      <trkpt lat="42.907499" lon="-8.367872">
        <ele>298.093</ele>
        <time>2013-05-20T11:52:16Z</time>
      </trkpt>
      <trkpt lat="42.907460" lon="-8.367976">
        <ele>297.079</ele>
        <time>2013-05-20T11:52:26Z</time>
      </trkpt>
      <trkpt lat="42.907482" lon="-8.368106">
        <ele>298.032</ele>
        <time>2013-05-20T11:52:35Z</time>
      </trkpt>
      <trkpt lat="42.907471" lon="-8.368176">
        <ele>300.061</ele>
        <time>2013-05-20T11:52:57Z</time>
      </trkpt>
      <trkpt lat="42.907437" lon="-8.368303">
        <ele>300.080</ele>
        <time>2013-05-20T11:53:03Z</time>
      </trkpt>
      <trkpt lat="42.907404" lon="-8.368425">
        <ele>297.034</ele>
        <time>2013-05-20T11:53:07Z</time>
      </trkpt>
      <trkpt lat="42.907379" lon="-8.368545">
        <ele>298.055</ele>
        <time>2013-05-20T11:53:12Z</time>
      </trkpt>
      <trkpt lat="42.907332" lon="-8.368650">
        <ele>299.010</ele>
        <time>2013-05-20T11:53:17Z</time>
      </trkpt>
      <trkpt lat="42.907289" lon="-8.368768">
        <ele>301.007</ele>
        <time>2013-05-20T11:53:25Z</time>
      </trkpt>
      <trkpt lat="42.907254" lon="-8.368896">
        <ele>301.047</ele>
        <time>2013-05-20T11:53:31Z</time>
      </trkpt>
      <trkpt lat="42.907272" lon="-8.369036">
        <ele>298.058</ele>
        <time>2013-05-20T11:53:41Z</time>
      </trkpt>
      <trkpt lat="42.907228" lon="-8.369157">
        <ele>295.034</ele>
        <time>2013-05-20T11:53:48Z</time>
      </trkpt>
      <trkpt lat="42.907148" lon="-8.369232">
        <ele>296.070</ele>
        <time>2013-05-20T11:53:56Z</time>
      </trkpt>
      <trkpt lat="42.907074" lon="-8.369302">
        <ele>298.013</ele>
        <time>2013-05-20T11:54:03Z</time>
      </trkpt>
      <trkpt lat="42.907018" lon="-8.369401">
        <ele>297.072</ele>
        <time>2013-05-20T11:54:10Z</time>
      </trkpt>
      <trkpt lat="42.906995" lon="-8.369525">
        <ele>296.031</ele>
        <time>2013-05-20T11:54:18Z</time>
      </trkpt>
      <trkpt lat="42.906954" lon="-8.369647">
        <ele>293.054</ele>
        <time>2013-05-20T11:54:26Z</time>
      </trkpt>
      <trkpt lat="42.906925" lon="-8.369767">
        <ele>289.056</ele>
        <time>2013-05-20T11:54:35Z</time>
      </trkpt>
      <trkpt lat="42.906847" lon="-8.369841">
        <ele>289.011</ele>
        <time>2013-05-20T11:54:40Z</time>
      </trkpt>
      <trkpt lat="42.906791" lon="-8.369952">
        <ele>289.007</ele>
        <time>2013-05-20T11:54:49Z</time>
      </trkpt>
      <trkpt lat="42.906810" lon="-8.370088">
        <ele>290.089</ele>
        <time>2013-05-20T11:54:58Z</time>
      </trkpt>
      <trkpt lat="42.906756" lon="-8.370094">
        <ele>284.040</ele>
        <time>2013-05-20T11:55:09Z</time>
      </trkpt>
      <trkpt lat="42.906669" lon="-8.370146">
        <ele>282.046</ele>
        <time>2013-05-20T11:55:14Z</time>
      </trkpt>
      <trkpt lat="42.906587" lon="-8.370208">
        <ele>281.082</ele>
        <time>2013-05-20T11:55:20Z</time>
      </trkpt>
      <trkpt lat="42.906546" lon="-8.370334">
        <ele>283.055</ele>
        <time>2013-05-20T11:55:29Z</time>
      </trkpt>
      <trkpt lat="42.906488" lon="-8.370341">
        <ele>281.034</ele>
        <time>2013-05-20T11:55:39Z</time>
      </trkpt>
      <trkpt lat="42.906411" lon="-8.370357">
        <ele>279.033</ele>
        <time>2013-05-20T11:55:49Z</time>
      </trkpt>
      <trkpt lat="42.906329" lon="-8.370429">
        <ele>277.019</ele>
        <time>2013-05-20T11:55:55Z</time>
      </trkpt>
      <trkpt lat="42.906289" lon="-8.370546">
        <ele>281.009</ele>
        <time>2013-05-20T11:56:02Z</time>
      </trkpt>
      <trkpt lat="42.906284" lon="-8.370670">
        <ele>280.019</ele>
        <time>2013-05-20T11:56:07Z</time>
      </trkpt>
      <trkpt lat="42.906316" lon="-8.370799">
        <ele>280.007</ele>
        <time>2013-05-20T11:56:16Z</time>
      </trkpt>
      <trkpt lat="42.906377" lon="-8.370908">
        <ele>277.085</ele>
        <time>2013-05-20T11:56:24Z</time>
      </trkpt>
      <trkpt lat="42.906450" lon="-8.370989">
        <ele>278.066</ele>
        <time>2013-05-20T11:56:30Z</time>
      </trkpt>
      <trkpt lat="42.906454" lon="-8.371124">
        <ele>273.052</ele>
        <time>2013-05-20T11:56:40Z</time>
      </trkpt>
      <trkpt lat="42.906410" lon="-8.371238">
        <ele>274.078</ele>
        <time>2013-05-20T11:56:49Z</time>
      </trkpt>
      <trkpt lat="42.906324" lon="-8.371295">
        <ele>274.041</ele>
        <time>2013-05-20T11:56:58Z</time>
      </trkpt>
      <trkpt lat="42.906255" lon="-8.371378">
        <ele>272.060</ele>
        <time>2013-05-20T11:57:07Z</time>
      </trkpt>
      <trkpt lat="42.906176" lon="-8.371451">
        <ele>273.059</ele>
        <time>2013-05-20T11:57:16Z</time>
      </trkpt>
      <trkpt lat="42.906125" lon="-8.371554">
        <ele>273.021</ele>
        <time>2013-05-20T11:57:31Z</time>
      </trkpt>
      <trkpt lat="42.906062" lon="-8.371610">
        <ele>274.041</ele>
        <time>2013-05-20T11:57:41Z</time>
      </trkpt>
      <trkpt lat="42.905973" lon="-8.371687">
        <ele>274.005</ele>
        <time>2013-05-20T11:57:47Z</time>
      </trkpt>
      <trkpt lat="42.905896" lon="-8.371767">
        <ele>274.007</ele>
        <time>2013-05-20T11:57:53Z</time>
      </trkpt>
      <trkpt lat="42.905842" lon="-8.371867">
        <ele>273.026</ele>
        <time>2013-05-20T11:57:59Z</time>
      </trkpt>
      <trkpt lat="42.905823" lon="-8.371994">
        <ele>273.047</ele>
        <time>2013-05-20T11:58:07Z</time>
      </trkpt>
      <trkpt lat="42.905866" lon="-8.372112">
        <ele>273.083</ele>
        <time>2013-05-20T11:58:15Z</time>
      </trkpt>
      <trkpt lat="42.905929" lon="-8.372203">
        <ele>271.099</ele>
        <time>2013-05-20T11:58:23Z</time>
      </trkpt>
      <trkpt lat="42.905965" lon="-8.372316">
        <ele>270.052</ele>
        <time>2013-05-20T11:58:30Z</time>
      </trkpt>
      <trkpt lat="42.906037" lon="-8.372408">
        <ele>268.021</ele>
        <time>2013-05-20T11:58:39Z</time>
      </trkpt>
      <trkpt lat="42.906100" lon="-8.372498">
        <ele>268.090</ele>
        <time>2013-05-20T11:58:47Z</time>
      </trkpt>
      <trkpt lat="42.906133" lon="-8.372616">
        <ele>269.094</ele>
        <time>2013-05-20T11:58:54Z</time>
      </trkpt>
      <trkpt lat="42.906116" lon="-8.372746">
        <ele>269.057</ele>
        <time>2013-05-20T11:59:02Z</time>
      </trkpt>
      <trkpt lat="42.906063" lon="-8.372853">
        <ele>270.022</ele>
        <time>2013-05-20T11:59:08Z</time>
      </trkpt>
      <trkpt lat="42.906054" lon="-8.372980">
        <ele>272.007</ele>
        <time>2013-05-20T11:59:15Z</time>
      </trkpt>
      <trkpt lat="42.906058" lon="-8.373111">
        <ele>272.063</ele>
        <time>2013-05-20T11:59:24Z</time>
      </trkpt>
      <trkpt lat="42.906059" lon="-8.373225">
        <ele>275.014</ele>
        <time>2013-05-20T11:59:34Z</time>
      </trkpt>
      <trkpt lat="42.905994" lon="-8.373316">
        <ele>274.070</ele>
        <time>2013-05-20T11:59:40Z</time>
      </trkpt>
      <trkpt lat="42.905934" lon="-8.373423">
        <ele>273.086</ele>
        <time>2013-05-20T11:59:47Z</time>
      </trkpt>
      <trkpt lat="42.905894" lon="-8.373553">
        <ele>274.069</ele>
        <time>2013-05-20T11:59:56Z</time>
      </trkpt>
      <trkpt lat="42.905886" lon="-8.373674">
        <ele>274.058</ele>
        <time>2013-05-20T12:00:06Z</time>
      </trkpt>
      <trkpt lat="42.905844" lon="-8.373788">
        <ele>275.017</ele>
        <time>2013-05-20T12:00:13Z</time>
      </trkpt>
      <trkpt lat="42.905806" lon="-8.373916">
        <ele>274.043</ele>
        <time>2013-05-20T12:00:21Z</time>
      </trkpt>
      <trkpt lat="42.905741" lon="-8.374000">
        <ele>273.064</ele>
        <time>2013-05-20T12:00:31Z</time>
      </trkpt>
      <trkpt lat="42.905679" lon="-8.374096">
        <ele>273.010</ele>
        <time>2013-05-20T12:00:38Z</time>
      </trkpt>
      <trkpt lat="42.905610" lon="-8.374197">
        <ele>272.007</ele>
        <time>2013-05-20T12:00:47Z</time>
      </trkpt>
      <trkpt lat="42.905553" lon="-8.374300">
        <ele>271.068</ele>
        <time>2013-05-20T12:00:56Z</time>
      </trkpt>
      <trkpt lat="42.905515" lon="-8.374413">
        <ele>272.089</ele>
        <time>2013-05-20T12:01:02Z</time>
      </trkpt>
      <trkpt lat="42.905465" lon="-8.374517">
        <ele>272.065</ele>
        <time>2013-05-20T12:01:08Z</time>
      </trkpt>
      <trkpt lat="42.905411" lon="-8.374630">
        <ele>274.051</ele>
        <time>2013-05-20T12:01:18Z</time>
      </trkpt>
      <trkpt lat="42.905336" lon="-8.374716">
        <ele>277.094</ele>
        <time>2013-05-20T12:01:26Z</time>
      </trkpt>
      <trkpt lat="42.905289" lon="-8.374828">
        <ele>280.043</ele>
        <time>2013-05-20T12:01:34Z</time>
      </trkpt>
      <trkpt lat="42.905208" lon="-8.374896">
        <ele>282.072</ele>
        <time>2013-05-20T12:01:42Z</time>
      </trkpt>
      <trkpt lat="42.905108" lon="-8.374947">
        <ele>283.062</ele>
        <time>2013-05-20T12:01:49Z</time>
      </trkpt>
      <trkpt lat="42.905039" lon="-8.375030">
        <ele>283.083</ele>
        <time>2013-05-20T12:01:57Z</time>
      </trkpt>
      <trkpt lat="42.904978" lon="-8.375114">
        <ele>283.011</ele>
        <time>2013-05-20T12:02:07Z</time>
      </trkpt>
      <trkpt lat="42.904909" lon="-8.375195">
        <ele>281.007</ele>
        <time>2013-05-20T12:02:14Z</time>
      </trkpt>
      <trkpt lat="42.904857" lon="-8.375315">
        <ele>282.050</ele>
        <time>2013-05-20T12:02:23Z</time>
      </trkpt>
      <trkpt lat="42.904786" lon="-8.375425">
        <ele>286.071</ele>
        <time>2013-05-20T12:02:32Z</time>
      </trkpt>
      <trkpt lat="42.904725" lon="-8.375515">
        <ele>287.027</ele>
        <time>2013-05-20T12:02:42Z</time>
      </trkpt>
      <trkpt lat="42.904629" lon="-8.375567">
        <ele>288.093</ele>
        <time>2013-05-20T12:02:49Z</time>
      </trkpt>
      <trkpt lat="42.904551" lon="-8.375655">
        <ele>287.086</ele>
        <time>2013-05-20T12:02:55Z</time>
      </trkpt>
      <trkpt lat="42.904494" lon="-8.375739">
        <ele>286.095</ele>
        <time>2013-05-20T12:03:05Z</time>
      </trkpt>
      <trkpt lat="42.904450" lon="-8.375770">
        <ele>286.094</ele>
        <time>2013-05-20T12:03:15Z</time>
      </trkpt>
      <trkpt lat="42.904362" lon="-8.375868">
        <ele>288.058</ele>
        <time>2013-05-20T12:03:22Z</time>
      </trkpt>
      <trkpt lat="42.904292" lon="-8.375977">
        <ele>289.052</ele>
        <time>2013-05-20T12:03:27Z</time>
      </trkpt>
      <trkpt lat="42.904237" lon="-8.376094">
        <ele>289.017</ele>
        <time>2013-05-20T12:03:33Z</time>
      </trkpt>
      <trkpt lat="42.904172" lon="-8.376192">
        <ele>290.007</ele>
        <time>2013-05-20T12:03:41Z</time>
      </trkpt>
      <trkpt lat="42.904124" lon="-8.376297">
        <ele>292.019</ele>
        <time>2013-05-20T12:03:51Z</time>
      </trkpt>
      <trkpt lat="42.904054" lon="-8.376388">
        <ele>292.070</ele>
        <time>2013-05-20T12:03:58Z</time>
      </trkpt>
      <trkpt lat="42.904036" lon="-8.376515">
        <ele>291.046</ele>
        <time>2013-05-20T12:04:05Z</time>
      </trkpt>
      <trkpt lat="42.904027" lon="-8.376654">
        <ele>289.052</ele>
        <time>2013-05-20T12:04:13Z</time>
      </trkpt>
      <trkpt lat="42.904012" lon="-8.376782">
        <ele>290.055</ele>
        <time>2013-05-20T12:04:21Z</time>
      </trkpt>
      <trkpt lat="42.903967" lon="-8.376898">
        <ele>288.084</ele>
        <time>2013-05-20T12:04:28Z</time>
      </trkpt>
      <trkpt lat="42.903939" lon="-8.377023">
        <ele>290.043</ele>
        <time>2013-05-20T12:04:37Z</time>
      </trkpt>
      <trkpt lat="42.903907" lon="-8.377147">
        <ele>291.065</ele>
        <time>2013-05-20T12:04:46Z</time>
      </trkpt>
      <trkpt lat="42.903841" lon="-8.377232">
        <ele>291.068</ele>
        <time>2013-05-20T12:04:53Z</time>
      </trkpt>
      <trkpt lat="42.903787" lon="-8.377332">
        <ele>293.014</ele>
        <time>2013-05-20T12:05:02Z</time>
      </trkpt>
      <trkpt lat="42.903757" lon="-8.377454">
        <ele>290.007</ele>
        <time>2013-05-20T12:05:12Z</time>
      </trkpt>
      <trkpt lat="42.903779" lon="-8.377576">
        <ele>289.070</ele>
        <time>2013-05-20T12:05:21Z</time>
      </trkpt>
      <trkpt lat="42.903764" lon="-8.377710">
        <ele>290.031</ele>
        <time>2013-05-20T12:05:27Z</time>
      </trkpt>
      <trkpt lat="42.903757" lon="-8.377843">
        <ele>289.057</ele>
        <time>2013-05-20T12:05:32Z</time>
      </trkpt>
      <trkpt lat="42.903738" lon="-8.377968">
        <ele>288.073</ele>
        <time>2013-05-20T12:05:40Z</time>
      </trkpt>
      <trkpt lat="42.903763" lon="-8.378094">
        <ele>289.096</ele>
        <time>2013-05-20T12:05:48Z</time>
      </trkpt>
      <trkpt lat="42.903753" lon="-8.378228">
        <ele>292.045</ele>
        <time>2013-05-20T12:05:58Z</time>
      </trkpt>
      <trkpt lat="42.903743" lon="-8.378352">
        <ele>296.064</ele>
        <time>2013-05-20T12:06:07Z</time>
      </trkpt>
      <trkpt lat="42.903707" lon="-8.378474">
        <ele>297.011</ele>
        <time>2013-05-20T12:06:15Z</time>
      </trkpt>
      <trkpt lat="42.903702" lon="-8.378600">
        <ele>297.021</ele>
        <time>2013-05-20T12:06:25Z</time>
      </trkpt>
      <trkpt lat="42.903668" lon="-8.378715">
        <ele>296.003</ele>
        <time>2013-05-20T12:06:32Z</time>
      </trkpt>
      <trkpt lat="42.903674" lon="-8.378846">
        <ele>294.007</ele>
        <time>2013-05-20T12:06:41Z</time>
      </trkpt>
      <trkpt lat="42.903638" lon="-8.378971">
        <ele>297.025</ele>
        <time>2013-05-20T12:06:52Z</time>
      </trkpt>
      <trkpt lat="42.903642" lon="-8.379083">
        <ele>298.076</ele>
        <time>2013-05-20T12:07:02Z</time>
      </trkpt>
      <trkpt lat="42.903612" lon="-8.379229">
        <ele>299.012</ele>
        <time>2013-05-20T12:07:10Z</time>
      </trkpt>
      <trkpt lat="42.903562" lon="-8.379341">
        <ele>298.048</ele>
        <time>2013-05-20T12:07:13Z</time>
      </trkpt>
      <trkpt lat="42.903522" lon="-8.379462">
        <ele>295.051</ele>
        <time>2013-05-20T12:07:19Z</time>
      </trkpt>
      <trkpt lat="42.903534" lon="-8.379548">
        <ele>296.070</ele>
        <time>2013-05-20T12:07:29Z</time>
      </trkpt>
      <trkpt lat="42.903575" lon="-8.379673">
        <ele>294.059</ele>
        <time>2013-05-20T12:07:36Z</time>
      </trkpt>
      <trkpt lat="42.903614" lon="-8.379788">
        <ele>292.068</ele>
        <time>2013-05-20T12:07:42Z</time>
      </trkpt>
      <trkpt lat="42.903616" lon="-8.379915">
        <ele>293.042</ele>
        <time>2013-05-20T12:07:51Z</time>
      </trkpt>
      <trkpt lat="42.903652" lon="-8.379990">
        <ele>294.026</ele>
        <time>2013-05-20T12:08:01Z</time>
      </trkpt>
      <trkpt lat="42.903650" lon="-8.380132">
        <ele>292.007</ele>
        <time>2013-05-20T12:08:10Z</time>
      </trkpt>
      <trkpt lat="42.903673" lon="-8.380251">
        <ele>292.070</ele>
        <time>2013-05-20T12:08:15Z</time>
      </trkpt>
      <trkpt lat="42.903715" lon="-8.380369">
        <ele>290.081</ele>
        <time>2013-05-20T12:08:20Z</time>
      </trkpt>
      <trkpt lat="42.903732" lon="-8.380491">
        <ele>290.087</ele>
        <time>2013-05-20T12:08:27Z</time>
      </trkpt>
      <trkpt lat="42.903730" lon="-8.380624">
        <ele>291.063</ele>
        <time>2013-05-20T12:08:35Z</time>
      </trkpt>
      <trkpt lat="42.903744" lon="-8.380754">
        <ele>293.096</ele>
        <time>2013-05-20T12:08:43Z</time>
      </trkpt>
      <trkpt lat="42.903772" lon="-8.380865">
        <ele>293.035</ele>
        <time>2013-05-20T12:08:53Z</time>
      </trkpt>
      <trkpt lat="42.903774" lon="-8.380993">
        <ele>295.054</ele>
        <time>2013-05-20T12:09:03Z</time>
      </trkpt>
      <trkpt lat="42.903787" lon="-8.381115">
        <ele>299.096</ele>
        <time>2013-05-20T12:09:13Z</time>
      </trkpt>
      <trkpt lat="42.903812" lon="-8.381248">
        <ele>295.031</ele>
        <time>2013-05-20T12:09:23Z</time>
      </trkpt>
      <trkpt lat="42.903773" lon="-8.381388">
        <ele>291.024</ele>
        <time>2013-05-20T12:09:29Z</time>
      </trkpt>
      <trkpt lat="42.903756" lon="-8.381509">
        <ele>290.007</ele>
        <time>2013-05-20T12:09:33Z</time>
      </trkpt>
      <trkpt lat="42.903687" lon="-8.381610">
        <ele>290.023</ele>
        <time>2013-05-20T12:09:38Z</time>
      </trkpt>
      <trkpt lat="42.903605" lon="-8.381684">
        <ele>292.044</ele>
        <time>2013-05-20T12:09:45Z</time>
      </trkpt>
      <trkpt lat="42.903589" lon="-8.381777">
        <ele>288.070</ele>
        <time>2013-05-20T12:09:55Z</time>
      </trkpt>
      <trkpt lat="42.903626" lon="-8.381895">
        <ele>286.096</ele>
        <time>2013-05-20T12:10:03Z</time>
      </trkpt>
      <trkpt lat="42.903664" lon="-8.382012">
        <ele>286.039</ele>
        <time>2013-05-20T12:10:11Z</time>
      </trkpt>
      <trkpt lat="42.903696" lon="-8.382130">
        <ele>284.058</ele>
        <time>2013-05-20T12:10:19Z</time>
      </trkpt>
      <trkpt lat="42.903755" lon="-8.382227">
        <ele>282.067</ele>
        <time>2013-05-20T12:10:26Z</time>
      </trkpt>
      <trkpt lat="42.903803" lon="-8.382338">
        <ele>278.063</ele>
        <time>2013-05-20T12:10:34Z</time>
      </trkpt>
      <trkpt lat="42.903797" lon="-8.382465">
        <ele>279.044</ele>
        <time>2013-05-20T12:10:40Z</time>
      </trkpt>
      <trkpt lat="42.903831" lon="-8.382583">
        <ele>280.018</ele>
        <time>2013-05-20T12:10:46Z</time>
      </trkpt>
      <trkpt lat="42.903869" lon="-8.382696">
        <ele>282.007</ele>
        <time>2013-05-20T12:10:53Z</time>
      </trkpt>
      <trkpt lat="42.903845" lon="-8.382762">
        <ele>287.060</ele>
        <time>2013-05-20T12:11:04Z</time>
      </trkpt>
      <trkpt lat="42.903902" lon="-8.382874">
        <ele>287.011</ele>
        <time>2013-05-20T12:11:13Z</time>
      </trkpt>
      <trkpt lat="42.903961" lon="-8.382986">
        <ele>287.097</ele>
        <time>2013-05-20T12:11:20Z</time>
      </trkpt>
      <trkpt lat="42.904009" lon="-8.383102">
        <ele>289.023</ele>
        <time>2013-05-20T12:11:29Z</time>
      </trkpt>
      <trkpt lat="42.903994" lon="-8.383220">
        <ele>289.056</ele>
        <time>2013-05-20T12:11:39Z</time>
      </trkpt>
      <trkpt lat="42.904045" lon="-8.383336">
        <ele>289.015</ele>
        <time>2013-05-20T12:11:49Z</time>
      </trkpt>
      <trkpt lat="42.904071" lon="-8.383461">
        <ele>287.094</ele>
        <time>2013-05-20T12:11:58Z</time>
      </trkpt>
      <trkpt lat="42.904121" lon="-8.383576">
        <ele>286.024</ele>
        <time>2013-05-20T12:12:06Z</time>
      </trkpt>
      <trkpt lat="42.904144" lon="-8.383690">
        <ele>287.004</ele>
        <time>2013-05-20T12:12:16Z</time>
      </trkpt>
      <trkpt lat="42.904150" lon="-8.383827">
        <ele>287.014</ele>
        <time>2013-05-20T12:12:25Z</time>
      </trkpt>
      <trkpt lat="42.904173" lon="-8.383951">
        <ele>289.007</ele>
        <time>2013-05-20T12:12:31Z</time>
      </trkpt>
      <trkpt lat="42.904183" lon="-8.384050">
        <ele>289.066</ele>
        <time>2013-05-20T12:12:41Z</time>
      </trkpt>
      <trkpt lat="42.904229" lon="-8.384158">
        <ele>292.097</ele>
        <time>2013-05-20T12:12:51Z</time>
      </trkpt>
      <trkpt lat="42.904263" lon="-8.384275">
        <ele>293.073</ele>
        <time>2013-05-20T12:12:58Z</time>
      </trkpt>
      <trkpt lat="42.904316" lon="-8.384383">
        <ele>292.049</ele>
        <time>2013-05-20T12:13:06Z</time>
      </trkpt>
      <trkpt lat="42.904372" lon="-8.384489">
        <ele>291.052</ele>
        <time>2013-05-20T12:13:13Z</time>
      </trkpt>
      <trkpt lat="42.904403" lon="-8.384606">
        <ele>292.031</ele>
        <time>2013-05-20T12:13:20Z</time>
      </trkpt>
      <trkpt lat="42.904462" lon="-8.384721">
        <ele>289.030</ele>
        <time>2013-05-20T12:13:30Z</time>
      </trkpt>
      <trkpt lat="42.904503" lon="-8.384841">
        <ele>288.048</ele>
        <time>2013-05-20T12:13:37Z</time>
      </trkpt>
      <trkpt lat="42.904546" lon="-8.384961">
        <ele>288.061</ele>
        <time>2013-05-20T12:13:44Z</time>
      </trkpt>
      <trkpt lat="42.904605" lon="-8.385063">
        <ele>289.017</ele>
        <time>2013-05-20T12:13:52Z</time>
      </trkpt>
      <trkpt lat="42.904665" lon="-8.385116">
        <ele>287.007</ele>
        <time>2013-05-20T12:14:02Z</time>
      </trkpt>
      <trkpt lat="42.904662" lon="-8.385240">
        <ele>291.018</ele>
        <time>2013-05-20T12:14:09Z</time>
      </trkpt>
      <trkpt lat="42.904705" lon="-8.385352">
        <ele>291.039</ele>
        <time>2013-05-20T12:14:16Z</time>
      </trkpt>
      <trkpt lat="42.904772" lon="-8.385453">
        <ele>289.015</ele>
        <time>2013-05-20T12:14:23Z</time>
      </trkpt>
      <trkpt lat="42.904825" lon="-8.385552">
        <ele>290.061</ele>
        <time>2013-05-20T12:14:33Z</time>
      </trkpt>
      <trkpt lat="42.904835" lon="-8.385687">
        <ele>290.074</ele>
        <time>2013-05-20T12:14:41Z</time>
      </trkpt>
      <trkpt lat="42.904883" lon="-8.385803">
        <ele>290.023</ele>
        <time>2013-05-20T12:14:48Z</time>
      </trkpt>
      <trkpt lat="42.904916" lon="-8.385917">
        <ele>292.062</ele>
        <time>2013-05-20T12:14:56Z</time>
      </trkpt>
      <trkpt lat="42.904900" lon="-8.386052">
        <ele>291.018</ele>
        <time>2013-05-20T12:15:01Z</time>
      </trkpt>
      <trkpt lat="42.904871" lon="-8.386173">
        <ele>292.098</ele>
        <time>2013-05-20T12:15:07Z</time>
      </trkpt>
      <trkpt lat="42.904809" lon="-8.386279">
        <ele>294.017</ele>
        <time>2013-05-20T12:15:16Z</time>
      </trkpt>
      <trkpt lat="42.904724" lon="-8.386327">
        <ele>296.007</ele>
        <time>2013-05-20T12:15:23Z</time>
      </trkpt>
      <trkpt lat="42.904643" lon="-8.386403">
        <ele>297.015</ele>
        <time>2013-05-20T12:15:33Z</time>
      </trkpt>
      <trkpt lat="42.904553" lon="-8.386443">
        <ele>296.086</ele>
        <time>2013-05-20T12:15:41Z</time>
      </trkpt>
      <trkpt lat="42.904485" lon="-8.386528">
        <ele>292.082</ele>
        <time>2013-05-20T12:15:50Z</time>
      </trkpt>
      <trkpt lat="42.904391" lon="-8.386584">
        <ele>291.048</ele>
        <time>2013-05-20T12:15:57Z</time>
      </trkpt>
      <trkpt lat="42.904298" lon="-8.386609">
        <ele>289.061</ele>
        <time>2013-05-20T12:16:04Z</time>
      </trkpt>
      <trkpt lat="42.904208" lon="-8.386638">
        <ele>290.070</ele>
        <time>2013-05-20T12:16:14Z</time>
      </trkpt>
      <trkpt lat="42.904124" lon="-8.386709">
        <ele>292.059</ele>
        <time>2013-05-20T12:16:21Z</time>
      </trkpt>
      <trkpt lat="42.904040" lon="-8.386780">
        <ele>290.042</ele>
        <time>2013-05-20T12:16:28Z</time>
      </trkpt>
      <trkpt lat="42.903948" lon="-8.386825">
        <ele>286.022</ele>
        <time>2013-05-20T12:16:37Z</time>
      </trkpt>
      <trkpt lat="42.903859" lon="-8.386852">
        <ele>287.014</ele>
        <time>2013-05-20T12:16:44Z</time>
      </trkpt>
      <trkpt lat="42.903770" lon="-8.386897">
        <ele>288.007</ele>
        <time>2013-05-20T12:16:51Z</time>
      </trkpt>
      <trkpt lat="42.903682" lon="-8.386938">
        <ele>287.058</ele>
        <time>2013-05-20T12:16:58Z</time>
      </trkpt>
      <trkpt lat="42.903598" lon="-8.386975">
        <ele>283.029</ele>
        <time>2013-05-20T12:17:08Z</time>
      </trkpt>
      <trkpt lat="42.903509" lon="-8.387002">
        <ele>281.065</ele>
        <time>2013-05-20T12:17:15Z</time>
      </trkpt>
      <trkpt lat="42.903417" lon="-8.387035">
        <ele>282.061</ele>
        <time>2013-05-20T12:17:25Z</time>
      </trkpt>
      <trkpt lat="42.903357" lon="-8.387113">
        <ele>283.084</ele>
        <time>2013-05-20T12:17:35Z</time>
      </trkpt>
      <trkpt lat="42.903302" lon="-8.387225">
        <ele>282.033</ele>
        <time>2013-05-20T12:17:42Z</time>
      </trkpt>
      <trkpt lat="42.903312" lon="-8.387360">
        <ele>282.022</ele>
        <time>2013-05-20T12:17:48Z</time>
      </trkpt>
      <trkpt lat="42.903307" lon="-8.387491">
        <ele>282.045</ele>
        <time>2013-05-20T12:17:56Z</time>
      </trkpt>
      <trkpt lat="42.903344" lon="-8.387578">
        <ele>281.047</ele>
        <time>2013-05-20T12:18:06Z</time>
      </trkpt>
      <trkpt lat="42.903376" lon="-8.387695">
        <ele>282.011</ele>
        <time>2013-05-20T12:18:12Z</time>
      </trkpt>
      <trkpt lat="42.903403" lon="-8.387813">
        <ele>281.007</ele>
        <time>2013-05-20T12:18:20Z</time>
      </trkpt>
      <trkpt lat="42.903441" lon="-8.387928">
        <ele>281.098</ele>
        <time>2013-05-20T12:18:30Z</time>
      </trkpt>
      <trkpt lat="42.903477" lon="-8.388042">
        <ele>281.049</ele>
        <time>2013-05-20T12:18:39Z</time>
      </trkpt>
      <trkpt lat="42.903510" lon="-8.388165">
        <ele>279.085</ele>
        <time>2013-05-20T12:18:45Z</time>
      </trkpt>
      <trkpt lat="42.903530" lon="-8.388270">
        <ele>277.011</ele>
        <time>2013-05-20T12:18:55Z</time>
      </trkpt>
      <trkpt lat="42.903607" lon="-8.388401">
        <ele>274.054</ele>
        <time>2013-05-20T12:19:05Z</time>
      </trkpt>
      <trkpt lat="42.903637" lon="-8.388524">
        <ele>273.023</ele>
        <time>2013-05-20T12:19:12Z</time>
      </trkpt>
      <trkpt lat="42.903666" lon="-8.388656">
        <ele>276.042</ele>
        <time>2013-05-20T12:19:20Z</time>
      </trkpt>
      <trkpt lat="42.903706" lon="-8.388767">
        <ele>276.083</ele>
        <time>2013-05-20T12:19:29Z</time>
      </trkpt>
      <trkpt lat="42.903748" lon="-8.388879">
        <ele>273.025</ele>
        <time>2013-05-20T12:19:38Z</time>
      </trkpt>
      <trkpt lat="42.903792" lon="-8.388995">
        <ele>273.017</ele>
        <time>2013-05-20T12:19:47Z</time>
      </trkpt>
      <trkpt lat="42.903842" lon="-8.389104">
        <ele>274.007</ele>
        <time>2013-05-20T12:19:55Z</time>
      </trkpt>
      <trkpt lat="42.903895" lon="-8.389215">
        <ele>274.062</ele>
        <time>2013-05-20T12:20:05Z</time>
      </trkpt>
      <trkpt lat="42.903951" lon="-8.389328">
        <ele>273.023</ele>
        <time>2013-05-20T12:20:15Z</time>
      </trkpt>
      <trkpt lat="42.904023" lon="-8.389424">
        <ele>273.029</ele>
        <time>2013-05-20T12:20:24Z</time>
      </trkpt>
      <trkpt lat="42.904099" lon="-8.389484">
        <ele>270.015</ele>
        <time>2013-05-20T12:20:34Z</time>
      </trkpt>
      <trkpt lat="42.904199" lon="-8.389514">
        <ele>264.078</ele>
        <time>2013-05-20T12:20:41Z</time>
      </trkpt>
      <trkpt lat="42.904250" lon="-8.389633">
        <ele>264.097</ele>
        <time>2013-05-20T12:20:47Z</time>
      </trkpt>
      <trkpt lat="42.904270" lon="-8.389758">
        <ele>262.086</ele>
        <time>2013-05-20T12:20:57Z</time>
      </trkpt>
      <trkpt lat="42.904347" lon="-8.389845">
        <ele>264.067</ele>
        <time>2013-05-20T12:21:03Z</time>
      </trkpt>
      <trkpt lat="42.904394" lon="-8.389957">
        <ele>266.081</ele>
        <time>2013-05-20T12:21:10Z</time>
      </trkpt>
      <trkpt lat="42.904417" lon="-8.390087">
        <ele>265.019</ele>
        <time>2013-05-20T12:21:17Z</time>
      </trkpt>
      <trkpt lat="42.904436" lon="-8.390215">
        <ele>265.007</ele>
        <time>2013-05-20T12:21:25Z</time>
      </trkpt>
      <trkpt lat="42.904443" lon="-8.390284">
        <ele>264.060</ele>
        <time>2013-05-20T12:21:35Z</time>
      </trkpt>
      <trkpt lat="42.904459" lon="-8.390426">
        <ele>260.031</ele>
        <time>2013-05-20T12:21:45Z</time>
      </trkpt>
      <trkpt lat="42.904445" lon="-8.390559">
        <ele>260.037</ele>
        <time>2013-05-20T12:21:51Z</time>
      </trkpt>
      <trkpt lat="42.904457" lon="-8.390682">
        <ele>261.013</ele>
        <time>2013-05-20T12:21:57Z</time>
      </trkpt>
      <trkpt lat="42.904483" lon="-8.390813">
        <ele>260.056</ele>
        <time>2013-05-20T12:22:06Z</time>
      </trkpt>
      <trkpt lat="42.904520" lon="-8.390935">
        <ele>260.025</ele>
        <time>2013-05-20T12:22:12Z</time>
      </trkpt>
      <trkpt lat="42.904548" lon="-8.391057">
        <ele>261.064</ele>
        <time>2013-05-20T12:22:20Z</time>
      </trkpt>
      <trkpt lat="42.904599" lon="-8.391164">
        <ele>262.043</ele>
        <time>2013-05-20T12:22:27Z</time>
      </trkpt>
      <trkpt lat="42.904675" lon="-8.391208">
        <ele>262.064</ele>
        <time>2013-05-20T12:22:37Z</time>
      </trkpt>
      <trkpt lat="42.904769" lon="-8.391196">
        <ele>262.010</ele>
        <time>2013-05-20T12:22:46Z</time>
      </trkpt>
      <trkpt lat="42.904868" lon="-8.391203">
        <ele>261.007</ele>
        <time>2013-05-20T12:22:51Z</time>
      </trkpt>
      <trkpt lat="42.904957" lon="-8.391240">
        <ele>262.018</ele>
        <time>2013-05-20T12:22:57Z</time>
      </trkpt>
      <trkpt lat="42.905011" lon="-8.391346">
        <ele>260.039</ele>
        <time>2013-05-20T12:23:06Z</time>
      </trkpt>
      <trkpt lat="42.905100" lon="-8.391416">
        <ele>260.055</ele>
        <time>2013-05-20T12:23:13Z</time>
      </trkpt>
      <trkpt lat="42.905181" lon="-8.391488">
        <ele>260.081</ele>
        <time>2013-05-20T12:23:18Z</time>
      </trkpt>
      <trkpt lat="42.905209" lon="-8.391543">
        <ele>258.014</ele>
        <time>2013-05-20T12:23:28Z</time>
      </trkpt>
      <trkpt lat="42.905297" lon="-8.391575">
        <ele>259.023</ele>
        <time>2013-05-20T12:23:34Z</time>
      </trkpt>
      <trkpt lat="42.905401" lon="-8.391595">
        <ele>257.012</ele>
        <time>2013-05-20T12:23:40Z</time>
      </trkpt>
      <trkpt lat="42.905498" lon="-8.391638">
        <ele>258.021</ele>
        <time>2013-05-20T12:23:44Z</time>
      </trkpt>
      <trkpt lat="42.905570" lon="-8.391718">
        <ele>258.041</ele>
        <time>2013-05-20T12:23:49Z</time>
      </trkpt>
      <trkpt lat="42.905559" lon="-8.391852">
        <ele>258.005</ele>
        <time>2013-05-20T12:23:54Z</time>
      </trkpt>
      <trkpt lat="42.905538" lon="-8.391975">
        <ele>259.007</ele>
        <time>2013-05-20T12:24:01Z</time>
      </trkpt>
      <trkpt lat="42.905535" lon="-8.392105">
        <ele>257.086</ele>
        <time>2013-05-20T12:24:10Z</time>
      </trkpt>
      <trkpt lat="42.905569" lon="-8.392233">
        <ele>256.047</ele>
        <time>2013-05-20T12:24:18Z</time>
      </trkpt>
      <trkpt lat="42.905585" lon="-8.392359">
        <ele>256.063</ele>
        <time>2013-05-20T12:24:25Z</time>
      </trkpt>
      <trkpt lat="42.905588" lon="-8.392486">
        <ele>258.019</ele>
        <time>2013-05-20T12:24:34Z</time>
      </trkpt>
      <trkpt lat="42.905643" lon="-8.392591">
        <ele>253.052</ele>
        <time>2013-05-20T12:24:42Z</time>
      </trkpt>
      <trkpt lat="42.905665" lon="-8.392714">
        <ele>253.071</ele>
        <time>2013-05-20T12:24:51Z</time>
      </trkpt>
      <trkpt lat="42.905677" lon="-8.392839">
        <ele>252.020</ele>
        <time>2013-05-20T12:24:59Z</time>
      </trkpt>
      <trkpt lat="42.905748" lon="-8.392944">
        <ele>256.034</ele>
        <time>2013-05-20T12:25:07Z</time>
      </trkpt>
      <trkpt lat="42.905814" lon="-8.393055">
        <ele>257.055</ele>
        <time>2013-05-20T12:25:14Z</time>
      </trkpt>
      <trkpt lat="42.905871" lon="-8.393157">
        <ele>254.010</ele>
        <time>2013-05-20T12:25:24Z</time>
      </trkpt>
      <trkpt lat="42.905919" lon="-8.393268">
        <ele>251.007</ele>
        <time>2013-05-20T12:25:33Z</time>
      </trkpt>
      <trkpt lat="42.905927" lon="-8.393395">
        <ele>250.047</ele>
        <time>2013-05-20T12:25:40Z</time>
      </trkpt>
      <trkpt lat="42.905953" lon="-8.393526">
        <ele>251.028</ele>
        <time>2013-05-20T12:25:47Z</time>
      </trkpt>
      <trkpt lat="42.905927" lon="-8.393644">
        <ele>256.094</ele>
        <time>2013-05-20T12:25:55Z</time>
      </trkpt>
      <trkpt lat="42.905931" lon="-8.393754">
        <ele>255.070</ele>
        <time>2013-05-20T12:26:05Z</time>
      </trkpt>
      <trkpt lat="42.905871" lon="-8.393850">
        <ele>255.083</ele>
        <time>2013-05-20T12:26:15Z</time>
      </trkpt>
      <trkpt lat="42.905898" lon="-8.393975">
        <ele>255.042</ele>
        <time>2013-05-20T12:26:19Z</time>
      </trkpt>
      <trkpt lat="42.905945" lon="-8.394102">
        <ele>255.071</ele>
        <time>2013-05-20T12:26:26Z</time>
      </trkpt>
      <trkpt lat="42.905971" lon="-8.394198">
        <ele>253.048</ele>
        <time>2013-05-20T12:26:36Z</time>
      </trkpt>
      <trkpt lat="42.905977" lon="-8.394338">
        <ele>251.061</ele>
        <time>2013-05-20T12:26:42Z</time>
      </trkpt>
      <trkpt lat="42.905970" lon="-8.394409">
        <ele>255.017</ele>
        <time>2013-05-20T12:26:52Z</time>
      </trkpt>
      <trkpt lat="42.905958" lon="-8.394549">
        <ele>257.007</ele>
        <time>2013-05-20T12:27:00Z</time>
      </trkpt>
      <trkpt lat="42.905915" lon="-8.394671">
        <ele>253.068</ele>
        <time>2013-05-20T12:27:09Z</time>
      </trkpt>
      <trkpt lat="42.905862" lon="-8.394770">
        <ele>253.099</ele>
        <time>2013-05-20T12:27:23Z</time>
      </trkpt>
      <trkpt lat="42.905819" lon="-8.394897">
        <ele>255.045</ele>
        <time>2013-05-20T12:27:29Z</time>
      </trkpt>
      <trkpt lat="42.905782" lon="-8.395022">
        <ele>259.081</ele>
        <time>2013-05-20T12:27:36Z</time>
      </trkpt>
      <trkpt lat="42.905757" lon="-8.395144">
        <ele>259.034</ele>
        <time>2013-05-20T12:27:46Z</time>
      </trkpt>
      <trkpt lat="42.905765" lon="-8.395285">
        <ele>259.023</ele>
        <time>2013-05-20T12:27:52Z</time>
      </trkpt>
      <trkpt lat="42.905723" lon="-8.395258">
        <ele>261.082</ele>
        <time>2013-05-20T12:28:05Z</time>
      </trkpt>
      <trkpt lat="42.905723" lon="-8.395258">
        <ele>261.027</ele>
        <time>2013-05-20T12:28:37Z</time>
      </trkpt>
      <trkpt lat="42.905705" lon="-8.395357">
        <ele>266.068</ele>
        <time>2013-05-20T12:28:49Z</time>
      </trkpt>
      <trkpt lat="42.905731" lon="-8.395488">
        <ele>265.014</ele>
        <time>2013-05-20T12:28:54Z</time>
      </trkpt>
      <trkpt lat="42.905711" lon="-8.395610">
        <ele>264.007</ele>
        <time>2013-05-20T12:28:59Z</time>
      </trkpt>
      <trkpt lat="42.905691" lon="-8.395741">
        <ele>264.086</ele>
        <time>2013-05-20T12:29:06Z</time>
      </trkpt>
      <trkpt lat="42.905657" lon="-8.395864">
        <ele>262.017</ele>
        <time>2013-05-20T12:29:12Z</time>
      </trkpt>
      <trkpt lat="42.905628" lon="-8.395995">
        <ele>261.043</ele>
        <time>2013-05-20T12:29:21Z</time>
      </trkpt>
      <trkpt lat="42.905587" lon="-8.396121">
        <ele>261.049</ele>
        <time>2013-05-20T12:29:27Z</time>
      </trkpt>
      <trkpt lat="42.905582" lon="-8.396253">
        <ele>261.042</ele>
        <time>2013-05-20T12:29:35Z</time>
      </trkpt>
      <trkpt lat="42.905620" lon="-8.396332">
        <ele>262.091</ele>
        <time>2013-05-20T12:29:45Z</time>
      </trkpt>
      <trkpt lat="42.905623" lon="-8.396465">
        <ele>264.020</ele>
        <time>2013-05-20T12:29:54Z</time>
      </trkpt>
      <trkpt lat="42.905652" lon="-8.396584">
        <ele>263.085</ele>
        <time>2013-05-20T12:30:00Z</time>
      </trkpt>
      <trkpt lat="42.905606" lon="-8.396695">
        <ele>264.089</ele>
        <time>2013-05-20T12:30:08Z</time>
      </trkpt>
      <trkpt lat="42.905562" lon="-8.396826">
        <ele>265.017</ele>
        <time>2013-05-20T12:30:15Z</time>
      </trkpt>
      <trkpt lat="42.905571" lon="-8.396954">
        <ele>266.007</ele>
        <time>2013-05-20T12:30:22Z</time>
      </trkpt>
      <trkpt lat="42.905558" lon="-8.397079">
        <ele>264.012</ele>
        <time>2013-05-20T12:30:31Z</time>
      </trkpt>
      <trkpt lat="42.905528" lon="-8.397174">
        <ele>266.043</ele>
        <time>2013-05-20T12:30:41Z</time>
      </trkpt>
      <trkpt lat="42.905554" lon="-8.397302">
        <ele>263.059</ele>
        <time>2013-05-20T12:30:51Z</time>
      </trkpt>
      <trkpt lat="42.905537" lon="-8.397427">
        <ele>265.015</ele>
        <time>2013-05-20T12:30:59Z</time>
      </trkpt>
      <trkpt lat="42.905537" lon="-8.397558">
        <ele>265.048</ele>
        <time>2013-05-20T12:31:07Z</time>
      </trkpt>
      <trkpt lat="42.905534" lon="-8.397685">
        <ele>271.057</ele>
        <time>2013-05-20T12:31:15Z</time>
      </trkpt>
      <trkpt lat="42.905564" lon="-8.397745">
        <ele>271.066</ele>
        <time>2013-05-20T12:31:25Z</time>
      </trkpt>
      <trkpt lat="42.905650" lon="-8.397818">
        <ele>273.047</ele>
        <time>2013-05-20T12:31:30Z</time>
      </trkpt>
      <trkpt lat="42.905609" lon="-8.397939">
        <ele>273.029</ele>
        <time>2013-05-20T12:31:38Z</time>
      </trkpt>
      <trkpt lat="42.905565" lon="-8.398045">
        <ele>271.021</ele>
        <time>2013-05-20T12:31:48Z</time>
      </trkpt>
      <trkpt lat="42.905644" lon="-8.398117">
        <ele>272.007</ele>
        <time>2013-05-20T12:31:55Z</time>
      </trkpt>
      <trkpt lat="42.905732" lon="-8.398126">
        <ele>269.028</ele>
        <time>2013-05-20T12:32:05Z</time>
      </trkpt>
      <trkpt lat="42.905820" lon="-8.398190">
        <ele>272.099</ele>
        <time>2013-05-20T12:32:13Z</time>
      </trkpt>
      <trkpt lat="42.905890" lon="-8.398288">
        <ele>272.025</ele>
        <time>2013-05-20T12:32:20Z</time>
      </trkpt>
      <trkpt lat="42.905909" lon="-8.398416">
        <ele>275.061</ele>
        <time>2013-05-20T12:32:29Z</time>
      </trkpt>
      <trkpt lat="42.905964" lon="-8.398510">
        <ele>277.074</ele>
        <time>2013-05-20T12:32:39Z</time>
      </trkpt>
      <trkpt lat="42.906030" lon="-8.398566">
        <ele>281.073</ele>
        <time>2013-05-20T12:32:49Z</time>
      </trkpt>
      <trkpt lat="42.906100" lon="-8.398649">
        <ele>282.052</ele>
        <time>2013-05-20T12:32:55Z</time>
      </trkpt>
      <trkpt lat="42.906194" lon="-8.398720">
        <ele>285.081</ele>
        <time>2013-05-20T12:32:59Z</time>
      </trkpt>
      <trkpt lat="42.906211" lon="-8.398845">
        <ele>285.061</ele>
        <time>2013-05-20T12:33:09Z</time>
      </trkpt>
      <trkpt lat="42.906259" lon="-8.398953">
        <ele>283.017</ele>
        <time>2013-05-20T12:33:17Z</time>
      </trkpt>
      <trkpt lat="42.906319" lon="-8.399058">
        <ele>285.007</ele>
        <time>2013-05-20T12:33:24Z</time>
      </trkpt>
      <trkpt lat="42.906289" lon="-8.399186">
        <ele>285.032</ele>
        <time>2013-05-20T12:33:33Z</time>
      </trkpt>
      <trkpt lat="42.906327" lon="-8.399298">
        <ele>286.093</ele>
        <time>2013-05-20T12:33:42Z</time>
      </trkpt>
      <trkpt lat="42.906368" lon="-8.399417">
        <ele>287.019</ele>
        <time>2013-05-20T12:33:51Z</time>
      </trkpt>
      <trkpt lat="42.906431" lon="-8.399523">
        <ele>287.085</ele>
        <time>2013-05-20T12:33:58Z</time>
      </trkpt>
      <trkpt lat="42.906456" lon="-8.399654">
        <ele>288.088</ele>
        <time>2013-05-20T12:34:06Z</time>
      </trkpt>
      <trkpt lat="42.906432" lon="-8.399778">
        <ele>292.037</ele>
        <time>2013-05-20T12:34:15Z</time>
      </trkpt>
      <trkpt lat="42.906388" lon="-8.399892">
        <ele>292.096</ele>
        <time>2013-05-20T12:34:24Z</time>
      </trkpt>
      <trkpt lat="42.906387" lon="-8.400022">
        <ele>293.036</ele>
        <time>2013-05-20T12:34:30Z</time>
      </trkpt>
      <trkpt lat="42.906341" lon="-8.400135">
        <ele>296.017</ele>
        <time>2013-05-20T12:34:38Z</time>
      </trkpt>
      <trkpt lat="42.906296" lon="-8.400255">
        <ele>298.018</ele>
        <time>2013-05-20T12:34:47Z</time>
      </trkpt>
      <trkpt lat="42.906282" lon="-8.400387">
        <ele>296.007</ele>
        <time>2013-05-20T12:34:54Z</time>
      </trkpt>
      <trkpt lat="42.906248" lon="-8.400506">
        <ele>300.087</ele>
        <time>2013-05-20T12:35:03Z</time>
      </trkpt>
      <trkpt lat="42.906237" lon="-8.400635">
        <ele>300.028</ele>
        <time>2013-05-20T12:35:09Z</time>
      </trkpt>
      <trkpt lat="42.906219" lon="-8.400768">
        <ele>306.084</ele>
        <time>2013-05-20T12:35:17Z</time>
      </trkpt>
      <trkpt lat="42.906179" lon="-8.400892">
        <ele>307.020</ele>
        <time>2013-05-20T12:35:26Z</time>
      </trkpt>
      <trkpt lat="42.906132" lon="-8.401002">
        <ele>305.043</ele>
        <time>2013-05-20T12:35:34Z</time>
      </trkpt>
      <trkpt lat="42.906070" lon="-8.401086">
        <ele>305.052</ele>
        <time>2013-05-20T12:35:44Z</time>
      </trkpt>
      <trkpt lat="42.906075" lon="-8.401226">
        <ele>305.021</ele>
        <time>2013-05-20T12:35:52Z</time>
      </trkpt>
      <trkpt lat="42.906071" lon="-8.401353">
        <ele>305.057</ele>
        <time>2013-05-20T12:35:58Z</time>
      </trkpt>
      <trkpt lat="42.906080" lon="-8.401495">
        <ele>305.000</ele>
        <time>2013-05-20T12:36:04Z</time>
      </trkpt>
      <trkpt lat="42.906070" lon="-8.401620">
        <ele>303.020</ele>
        <time>2013-05-20T12:36:13Z</time>
      </trkpt>
      <trkpt lat="42.906095" lon="-8.401749">
        <ele>303.007</ele>
        <time>2013-05-20T12:36:21Z</time>
      </trkpt>
      <trkpt lat="42.906107" lon="-8.401882">
        <ele>302.069</ele>
        <time>2013-05-20T12:36:30Z</time>
      </trkpt>
      <trkpt lat="42.906152" lon="-8.402001">
        <ele>305.070</ele>
        <time>2013-05-20T12:36:38Z</time>
      </trkpt>
      <trkpt lat="42.906196" lon="-8.402125">
        <ele>307.016</ele>
        <time>2013-05-20T12:36:46Z</time>
      </trkpt>
      <trkpt lat="42.906239" lon="-8.402240">
        <ele>307.022</ele>
        <time>2013-05-20T12:36:53Z</time>
      </trkpt>
      <trkpt lat="42.906228" lon="-8.402366">
        <ele>309.075</ele>
        <time>2013-05-20T12:36:59Z</time>
      </trkpt>
      <trkpt lat="42.906191" lon="-8.402478">
        <ele>309.014</ele>
        <time>2013-05-20T12:37:06Z</time>
      </trkpt>
      <trkpt lat="42.906117" lon="-8.402564">
        <ele>308.013</ele>
        <time>2013-05-20T12:37:15Z</time>
      </trkpt>
      <trkpt lat="42.906053" lon="-8.402626">
        <ele>311.079</ele>
        <time>2013-05-20T12:37:25Z</time>
      </trkpt>
      <trkpt lat="42.905968" lon="-8.402684">
        <ele>312.005</ele>
        <time>2013-05-20T12:37:32Z</time>
      </trkpt>
      <trkpt lat="42.905916" lon="-8.402746">
        <ele>312.025</ele>
        <time>2013-05-20T12:37:42Z</time>
      </trkpt>
      <trkpt lat="42.905890" lon="-8.402880">
        <ele>311.007</ele>
        <time>2013-05-20T12:37:49Z</time>
      </trkpt>
      <trkpt lat="42.905861" lon="-8.403003">
        <ele>313.051</ele>
        <time>2013-05-20T12:37:57Z</time>
      </trkpt>
      <trkpt lat="42.905842" lon="-8.403124">
        <ele>310.042</ele>
        <time>2013-05-20T12:38:07Z</time>
      </trkpt>
      <trkpt lat="42.905806" lon="-8.403238">
        <ele>310.048</ele>
        <time>2013-05-20T12:38:16Z</time>
      </trkpt>
      <trkpt lat="42.905822" lon="-8.403365">
        <ele>312.014</ele>
        <time>2013-05-20T12:38:24Z</time>
      </trkpt>
      <trkpt lat="42.905830" lon="-8.403501">
        <ele>311.047</ele>
        <time>2013-05-20T12:38:31Z</time>
      </trkpt>
      <trkpt lat="42.905807" lon="-8.403625">
        <ele>312.056</ele>
        <time>2013-05-20T12:38:39Z</time>
      </trkpt>
      <trkpt lat="42.905803" lon="-8.403749">
        <ele>314.075</ele>
        <time>2013-05-20T12:38:48Z</time>
      </trkpt>
      <trkpt lat="42.905813" lon="-8.403879">
        <ele>317.018</ele>
        <time>2013-05-20T12:38:55Z</time>
      </trkpt>
      <trkpt lat="42.905810" lon="-8.404018">
        <ele>318.098</ele>
        <time>2013-05-20T12:39:04Z</time>
      </trkpt>
      <trkpt lat="42.905823" lon="-8.404153">
        <ele>318.017</ele>
        <time>2013-05-20T12:39:14Z</time>
      </trkpt>
      <trkpt lat="42.905879" lon="-8.404263">
        <ele>316.007</ele>
        <time>2013-05-20T12:39:23Z</time>
      </trkpt>
      <trkpt lat="42.905925" lon="-8.404384">
        <ele>318.025</ele>
        <time>2013-05-20T12:39:32Z</time>
      </trkpt>
      <trkpt lat="42.905975" lon="-8.404502">
        <ele>320.086</ele>
        <time>2013-05-20T12:39:38Z</time>
      </trkpt>
      <trkpt lat="42.905969" lon="-8.404634">
        <ele>322.052</ele>
        <time>2013-05-20T12:39:48Z</time>
      </trkpt>
      <trkpt lat="42.905939" lon="-8.404775">
        <ele>322.038</ele>
        <time>2013-05-20T12:39:58Z</time>
      </trkpt>
      <trkpt lat="42.905917" lon="-8.404861">
        <ele>322.051</ele>
        <time>2013-05-20T12:40:08Z</time>
      </trkpt>
      <trkpt lat="42.905938" lon="-8.404991">
        <ele>319.050</ele>
        <time>2013-05-20T12:40:15Z</time>
      </trkpt>
      <trkpt lat="42.905958" lon="-8.405110">
        <ele>318.049</ele>
        <time>2013-05-20T12:40:25Z</time>
      </trkpt>
      <trkpt lat="42.905934" lon="-8.405233">
        <ele>317.097</ele>
        <time>2013-05-20T12:40:32Z</time>
      </trkpt>
      <trkpt lat="42.905921" lon="-8.405371">
        <ele>320.023</ele>
        <time>2013-05-20T12:40:41Z</time>
      </trkpt>
      <trkpt lat="42.905919" lon="-8.405494">
        <ele>322.025</ele>
        <time>2013-05-20T12:40:48Z</time>
      </trkpt>
      <trkpt lat="42.905909" lon="-8.405628">
        <ele>324.007</ele>
        <time>2013-05-20T12:40:54Z</time>
      </trkpt>
      <trkpt lat="42.905927" lon="-8.405753">
        <ele>325.093</ele>
        <time>2013-05-20T12:41:01Z</time>
      </trkpt>
      <trkpt lat="42.905937" lon="-8.405852">
        <ele>328.044</ele>
        <time>2013-05-20T12:41:11Z</time>
      </trkpt>
      <trkpt lat="42.905906" lon="-8.405969">
        <ele>328.090</ele>
        <time>2013-05-20T12:41:18Z</time>
      </trkpt>
      <trkpt lat="42.905906" lon="-8.406095">
        <ele>327.056</ele>
        <time>2013-05-20T12:41:25Z</time>
      </trkpt>
      <trkpt lat="42.905906" lon="-8.406222">
        <ele>329.049</ele>
        <time>2013-05-20T12:41:34Z</time>
      </trkpt>
      <trkpt lat="42.905859" lon="-8.406334">
        <ele>332.078</ele>
        <time>2013-05-20T12:41:44Z</time>
      </trkpt>
      <trkpt lat="42.905890" lon="-8.406458">
        <ele>333.037</ele>
        <time>2013-05-20T12:41:49Z</time>
      </trkpt>
      <trkpt lat="42.905916" lon="-8.406583">
        <ele>334.057</ele>
        <time>2013-05-20T12:41:56Z</time>
      </trkpt>
      <trkpt lat="42.905934" lon="-8.406701">
        <ele>333.000</ele>
        <time>2013-05-20T12:42:06Z</time>
      </trkpt>
      <trkpt lat="42.905903" lon="-8.406818">
        <ele>334.020</ele>
        <time>2013-05-20T12:42:16Z</time>
      </trkpt>
      <trkpt lat="42.905866" lon="-8.406938">
        <ele>334.007</ele>
        <time>2013-05-20T12:42:24Z</time>
      </trkpt>
      <trkpt lat="42.905881" lon="-8.407071">
        <ele>334.099</ele>
        <time>2013-05-20T12:42:34Z</time>
      </trkpt>
      <trkpt lat="42.905906" lon="-8.407204">
        <ele>331.040</ele>
        <time>2013-05-20T12:42:44Z</time>
      </trkpt>
      <trkpt lat="42.905944" lon="-8.407329">
        <ele>331.096</ele>
        <time>2013-05-20T12:42:52Z</time>
      </trkpt>
      <trkpt lat="42.905936" lon="-8.407458">
        <ele>331.042</ele>
        <time>2013-05-20T12:43:00Z</time>
      </trkpt>
      <trkpt lat="42.905923" lon="-8.407588">
        <ele>331.035</ele>
        <time>2013-05-20T12:43:08Z</time>
      </trkpt>
      <trkpt lat="42.905903" lon="-8.407715">
        <ele>334.044</ele>
        <time>2013-05-20T12:43:18Z</time>
      </trkpt>
      <trkpt lat="42.905870" lon="-8.407832">
        <ele>335.063</ele>
        <time>2013-05-20T12:43:27Z</time>
      </trkpt>
      <trkpt lat="42.905866" lon="-8.407956">
        <ele>336.037</ele>
        <time>2013-05-20T12:43:35Z</time>
      </trkpt>
      <trkpt lat="42.905844" lon="-8.408092">
        <ele>338.049</ele>
        <time>2013-05-20T12:43:43Z</time>
      </trkpt>
      <trkpt lat="42.905821" lon="-8.408212">
        <ele>337.013</ele>
        <time>2013-05-20T12:43:51Z</time>
      </trkpt>
      <trkpt lat="42.905802" lon="-8.408307">
        <ele>339.007</ele>
        <time>2013-05-20T12:44:01Z</time>
      </trkpt>
      <trkpt lat="42.905780" lon="-8.408443">
        <ele>339.097</ele>
        <time>2013-05-20T12:44:10Z</time>
      </trkpt>
      <trkpt lat="42.905788" lon="-8.408575">
        <ele>339.088</ele>
        <time>2013-05-20T12:44:17Z</time>
      </trkpt>
      <trkpt lat="42.905817" lon="-8.408700">
        <ele>340.024</ele>
        <time>2013-05-20T12:44:24Z</time>
      </trkpt>
      <trkpt lat="42.905875" lon="-8.408805">
        <ele>344.070</ele>
        <time>2013-05-20T12:44:32Z</time>
      </trkpt>
      <trkpt lat="42.905916" lon="-8.408928">
        <ele>346.053</ele>
        <time>2013-05-20T12:44:40Z</time>
      </trkpt>
      <trkpt lat="42.905955" lon="-8.409048">
        <ele>348.092</ele>
        <time>2013-05-20T12:44:47Z</time>
      </trkpt>
      <trkpt lat="42.905966" lon="-8.409173">
        <ele>348.011</ele>
        <time>2013-05-20T12:44:55Z</time>
      </trkpt>
      <trkpt lat="42.906001" lon="-8.409290">
        <ele>349.099</ele>
        <time>2013-05-20T12:45:02Z</time>
      </trkpt>
      <trkpt lat="42.906012" lon="-8.409393">
        <ele>349.007</ele>
        <time>2013-05-20T12:45:12Z</time>
      </trkpt>
      <trkpt lat="42.906081" lon="-8.409469">
        <ele>348.027</ele>
        <time>2013-05-20T12:45:22Z</time>
      </trkpt>
      <trkpt lat="42.906137" lon="-8.409569">
        <ele>349.007</ele>
        <time>2013-05-20T12:45:31Z</time>
      </trkpt>
      <trkpt lat="42.906198" lon="-8.409668">
        <ele>347.073</ele>
        <time>2013-05-20T12:45:38Z</time>
      </trkpt>
      <trkpt lat="42.906224" lon="-8.409794">
        <ele>348.024</ele>
        <time>2013-05-20T12:45:43Z</time>
      </trkpt>
      <trkpt lat="42.906243" lon="-8.409909">
        <ele>349.040</ele>
        <time>2013-05-20T12:45:53Z</time>
      </trkpt>
      <trkpt lat="42.906226" lon="-8.410019">
        <ele>350.076</ele>
        <time>2013-05-20T12:46:03Z</time>
      </trkpt>
      <trkpt lat="42.906268" lon="-8.410131">
        <ele>350.019</ele>
        <time>2013-05-20T12:46:11Z</time>
      </trkpt>
      <trkpt lat="42.906314" lon="-8.410238">
        <ele>350.068</ele>
        <time>2013-05-20T12:46:17Z</time>
      </trkpt>
      <trkpt lat="42.906366" lon="-8.410340">
        <ele>352.057</ele>
        <time>2013-05-20T12:46:26Z</time>
      </trkpt>
      <trkpt lat="42.906444" lon="-8.410425">
        <ele>352.062</ele>
        <time>2013-05-20T12:46:33Z</time>
      </trkpt>
      <trkpt lat="42.906536" lon="-8.410486">
        <ele>355.083</ele>
        <time>2013-05-20T12:46:41Z</time>
      </trkpt>
      <trkpt lat="42.906607" lon="-8.410564">
        <ele>358.011</ele>
        <time>2013-05-20T12:46:48Z</time>
      </trkpt>
      <trkpt lat="42.906678" lon="-8.410655">
        <ele>356.007</ele>
        <time>2013-05-20T12:46:58Z</time>
      </trkpt>
      <trkpt lat="42.906716" lon="-8.410705">
        <ele>356.070</ele>
        <time>2013-05-20T12:47:08Z</time>
      </trkpt>
      <trkpt lat="42.906812" lon="-8.410750">
        <ele>354.051</ele>
        <time>2013-05-20T12:47:16Z</time>
      </trkpt>
      <trkpt lat="42.906879" lon="-8.410808">
        <ele>355.097</ele>
        <time>2013-05-20T12:47:26Z</time>
      </trkpt>
      <trkpt lat="42.906974" lon="-8.410863">
        <ele>353.023</ele>
        <time>2013-05-20T12:47:36Z</time>
      </trkpt>
      <trkpt lat="42.907074" lon="-8.410891">
        <ele>354.076</ele>
        <time>2013-05-20T12:47:43Z</time>
      </trkpt>
      <trkpt lat="42.907158" lon="-8.410961">
        <ele>354.045</ele>
        <time>2013-05-20T12:47:49Z</time>
      </trkpt>
      <trkpt lat="42.907243" lon="-8.411037">
        <ele>360.034</ele>
        <time>2013-05-20T12:47:58Z</time>
      </trkpt>
      <trkpt lat="42.907325" lon="-8.411072">
        <ele>356.078</ele>
        <time>2013-05-20T12:48:08Z</time>
      </trkpt>
      <trkpt lat="42.907359" lon="-8.411188">
        <ele>356.033</ele>
        <time>2013-05-20T12:48:16Z</time>
      </trkpt>
      <trkpt lat="42.907414" lon="-8.411290">
        <ele>359.026</ele>
        <time>2013-05-20T12:48:22Z</time>
      </trkpt>
      <trkpt lat="42.907415" lon="-8.411432">
        <ele>361.007</ele>
        <time>2013-05-20T12:48:30Z</time>
      </trkpt>
      <trkpt lat="42.907483" lon="-8.411523">
        <ele>362.051</ele>
        <time>2013-05-20T12:48:38Z</time>
      </trkpt>
      <trkpt lat="42.907528" lon="-8.411642">
        <ele>363.092</ele>
        <time>2013-05-20T12:48:46Z</time>
      </trkpt>
      <trkpt lat="42.907591" lon="-8.411740">
        <ele>365.048</ele>
        <time>2013-05-20T12:48:56Z</time>
      </trkpt>
      <trkpt lat="42.907649" lon="-8.411866">
        <ele>367.084</ele>
        <time>2013-05-20T12:49:05Z</time>
      </trkpt>
      <trkpt lat="42.907675" lon="-8.412004">
        <ele>366.037</ele>
        <time>2013-05-20T12:49:13Z</time>
      </trkpt>
      <trkpt lat="42.907712" lon="-8.412119">
        <ele>366.026</ele>
        <time>2013-05-20T12:49:20Z</time>
      </trkpt>
      <trkpt lat="42.907758" lon="-8.412237">
        <ele>366.035</ele>
        <time>2013-05-20T12:49:29Z</time>
      </trkpt>
      <trkpt lat="42.907759" lon="-8.412365">
        <ele>366.094</ele>
        <time>2013-05-20T12:49:36Z</time>
      </trkpt>
      <trkpt lat="42.907771" lon="-8.412470">
        <ele>367.057</ele>
        <time>2013-05-20T12:49:46Z</time>
      </trkpt>
      <trkpt lat="42.907791" lon="-8.412601">
        <ele>369.022</ele>
        <time>2013-05-20T12:49:53Z</time>
      </trkpt>
      <trkpt lat="42.907833" lon="-8.412722">
        <ele>369.007</ele>
        <time>2013-05-20T12:49:58Z</time>
      </trkpt>
      <trkpt lat="42.907865" lon="-8.412825">
        <ele>371.093</ele>
        <time>2013-05-20T12:50:08Z</time>
      </trkpt>
      <trkpt lat="42.907879" lon="-8.412947">
        <ele>374.094</ele>
        <time>2013-05-20T12:50:16Z</time>
      </trkpt>
      <trkpt lat="42.907917" lon="-8.413042">
        <ele>367.070</ele>
        <time>2013-05-20T12:50:26Z</time>
      </trkpt>
      <trkpt lat="42.907942" lon="-8.413170">
        <ele>373.026</ele>
        <time>2013-05-20T12:50:35Z</time>
      </trkpt>
      <trkpt lat="42.907982" lon="-8.413290">
        <ele>371.069</ele>
        <time>2013-05-20T12:50:42Z</time>
      </trkpt>
      <trkpt lat="42.907997" lon="-8.413423">
        <ele>371.088</ele>
        <time>2013-05-20T12:50:50Z</time>
      </trkpt>
      <trkpt lat="42.908030" lon="-8.413551">
        <ele>375.037</ele>
        <time>2013-05-20T12:50:57Z</time>
      </trkpt>
      <trkpt lat="42.908057" lon="-8.413672">
        <ele>376.031</ele>
        <time>2013-05-20T12:51:03Z</time>
      </trkpt>
      <trkpt lat="42.908086" lon="-8.413792">
        <ele>375.061</ele>
        <time>2013-05-20T12:51:11Z</time>
      </trkpt>
      <trkpt lat="42.908118" lon="-8.413923">
        <ele>375.007</ele>
        <time>2013-05-20T12:51:20Z</time>
      </trkpt>
      <trkpt lat="42.908196" lon="-8.414017">
        <ele>376.007</ele>
        <time>2013-05-20T12:51:30Z</time>
      </trkpt>
      <trkpt lat="42.908247" lon="-8.414134">
        <ele>375.087</ele>
        <time>2013-05-20T12:51:38Z</time>
      </trkpt>
      <trkpt lat="42.908262" lon="-8.414270">
        <ele>377.018</ele>
        <time>2013-05-20T12:51:48Z</time>
      </trkpt>
      <trkpt lat="42.908259" lon="-8.414401">
        <ele>377.044</ele>
        <time>2013-05-20T12:51:54Z</time>
      </trkpt>
      <trkpt lat="42.908283" lon="-8.414532">
        <ele>379.090</ele>
        <time>2013-05-20T12:52:01Z</time>
      </trkpt>
      <trkpt lat="42.908310" lon="-8.414664">
        <ele>378.053</ele>
        <time>2013-05-20T12:52:11Z</time>
      </trkpt>
      <trkpt lat="42.908365" lon="-8.414778">
        <ele>378.022</ele>
        <time>2013-05-20T12:52:17Z</time>
      </trkpt>
      <trkpt lat="42.908446" lon="-8.414848">
        <ele>379.071</ele>
        <time>2013-05-20T12:52:27Z</time>
      </trkpt>
      <trkpt lat="42.908519" lon="-8.414900">
        <ele>379.084</ele>
        <time>2013-05-20T12:52:37Z</time>
      </trkpt>
      <trkpt lat="42.908595" lon="-8.414860">
        <ele>376.007</ele>
        <time>2013-05-20T12:52:47Z</time>
      </trkpt>
      <trkpt lat="42.908693" lon="-8.414841">
        <ele>377.017</ele>
        <time>2013-05-20T12:52:56Z</time>
      </trkpt>
      <trkpt lat="42.908794" lon="-8.414867">
        <ele>375.007</ele>
        <time>2013-05-20T12:53:02Z</time>
      </trkpt>
      <trkpt lat="42.908920" lon="-8.414830">
        <ele>372.042</ele>
        <time>2013-05-20T12:53:08Z</time>
      </trkpt>
      <trkpt lat="42.908984" lon="-8.414798">
        <ele>370.073</ele>
        <time>2013-05-20T12:53:20Z</time>
      </trkpt>
      <trkpt lat="42.909087" lon="-8.414773">
        <ele>370.049</ele>
        <time>2013-05-20T12:53:24Z</time>
      </trkpt>
      <trkpt lat="42.909183" lon="-8.414743">
        <ele>371.065</ele>
        <time>2013-05-20T12:53:30Z</time>
      </trkpt>
      <trkpt lat="42.909237" lon="-8.414752">
        <ele>370.018</ele>
        <time>2013-05-20T12:53:40Z</time>
      </trkpt>
      <trkpt lat="42.909339" lon="-8.414743">
        <ele>370.027</ele>
        <time>2013-05-20T12:53:47Z</time>
      </trkpt>
      <trkpt lat="42.909387" lon="-8.414718">
        <ele>369.016</ele>
        <time>2013-05-20T12:53:58Z</time>
      </trkpt>
      <trkpt lat="42.909484" lon="-8.414684">
        <ele>376.047</ele>
        <time>2013-05-20T12:54:03Z</time>
      </trkpt>
      <trkpt lat="42.909578" lon="-8.414676">
        <ele>379.029</ele>
        <time>2013-05-20T12:54:05Z</time>
      </trkpt>
      <trkpt lat="42.909670" lon="-8.414662">
        <ele>379.021</ele>
        <time>2013-05-20T12:54:09Z</time>
      </trkpt>
      <trkpt lat="42.909749" lon="-8.414619">
        <ele>380.007</ele>
        <time>2013-05-20T12:54:19Z</time>
      </trkpt>
      <trkpt lat="42.909774" lon="-8.414568">
        <ele>378.088</ele>
        <time>2013-05-20T12:54:34Z</time>
      </trkpt>
      <trkpt lat="42.909876" lon="-8.414559">
        <ele>377.039</ele>
        <time>2013-05-20T12:54:40Z</time>
      </trkpt>
      <trkpt lat="42.909939" lon="-8.414552">
        <ele>378.085</ele>
        <time>2013-05-20T12:54:50Z</time>
      </trkpt>
      <trkpt lat="42.910046" lon="-8.414545">
        <ele>375.051</ele>
        <time>2013-05-20T12:54:57Z</time>
      </trkpt>
      <trkpt lat="42.910150" lon="-8.414522">
        <ele>375.054</ele>
        <time>2013-05-20T12:55:02Z</time>
      </trkpt>
      <trkpt lat="42.910210" lon="-8.414499">
        <ele>373.053</ele>
        <time>2013-05-20T12:55:12Z</time>
      </trkpt>
      <trkpt lat="42.910316" lon="-8.414519">
        <ele>374.082</ele>
        <time>2013-05-20T12:55:18Z</time>
      </trkpt>
      <trkpt lat="42.910415" lon="-8.414529">
        <ele>372.048</ele>
        <time>2013-05-20T12:55:22Z</time>
      </trkpt>
      <trkpt lat="42.910518" lon="-8.414511">
        <ele>370.061</ele>
        <time>2013-05-20T12:55:28Z</time>
      </trkpt>
      <trkpt lat="42.910572" lon="-8.414496">
        <ele>371.017</ele>
        <time>2013-05-20T12:55:38Z</time>
      </trkpt>
      <trkpt lat="42.910672" lon="-8.414487">
        <ele>372.007</ele>
        <time>2013-05-20T12:55:45Z</time>
      </trkpt>
      <trkpt lat="42.910774" lon="-8.414449">
        <ele>373.078</ele>
        <time>2013-05-20T12:55:49Z</time>
      </trkpt>
      <trkpt lat="42.910899" lon="-8.414455">
        <ele>373.059</ele>
        <time>2013-05-20T12:55:59Z</time>
      </trkpt>
      <trkpt lat="42.910945" lon="-8.414454">
        <ele>375.075</ele>
        <time>2013-05-20T12:56:09Z</time>
      </trkpt>
      <trkpt lat="42.911048" lon="-8.414453">
        <ele>374.071</ele>
        <time>2013-05-20T12:56:15Z</time>
      </trkpt>
      <trkpt lat="42.911102" lon="-8.414418">
        <ele>372.034</ele>
        <time>2013-05-20T12:56:25Z</time>
      </trkpt>
      <trkpt lat="42.911200" lon="-8.414354">
        <ele>371.063</ele>
        <time>2013-05-20T12:56:34Z</time>
      </trkpt>
      <trkpt lat="42.911292" lon="-8.414359">
        <ele>370.072</ele>
        <time>2013-05-20T12:56:40Z</time>
      </trkpt>
      <trkpt lat="42.911340" lon="-8.414357">
        <ele>370.038</ele>
        <time>2013-05-20T12:56:50Z</time>
      </trkpt>
      <trkpt lat="42.911464" lon="-8.414333">
        <ele>370.070</ele>
        <time>2013-05-20T12:56:58Z</time>
      </trkpt>
      <trkpt lat="42.911561" lon="-8.414307">
        <ele>373.017</ele>
        <time>2013-05-20T12:57:02Z</time>
      </trkpt>
      <trkpt lat="42.911667" lon="-8.414271">
        <ele>373.007</ele>
        <time>2013-05-20T12:57:12Z</time>
      </trkpt>
      <trkpt lat="42.911732" lon="-8.414269">
        <ele>372.027</ele>
        <time>2013-05-20T12:57:22Z</time>
      </trkpt>
      <trkpt lat="42.911838" lon="-8.414292">
        <ele>371.098</ele>
        <time>2013-05-20T12:57:27Z</time>
      </trkpt>
      <trkpt lat="42.911942" lon="-8.414278">
        <ele>372.014</ele>
        <time>2013-05-20T12:57:31Z</time>
      </trkpt>
      <trkpt lat="42.912037" lon="-8.414271">
        <ele>372.020</ele>
        <time>2013-05-20T12:57:36Z</time>
      </trkpt>
      <trkpt lat="42.912136" lon="-8.414264">
        <ele>371.083</ele>
        <time>2013-05-20T12:57:42Z</time>
      </trkpt>
      <trkpt lat="42.912240" lon="-8.414227">
        <ele>371.092</ele>
        <time>2013-05-20T12:57:49Z</time>
      </trkpt>
      <trkpt lat="42.912346" lon="-8.414198">
        <ele>372.021</ele>
        <time>2013-05-20T12:57:55Z</time>
      </trkpt>
      <trkpt lat="42.912442" lon="-8.414181">
        <ele>372.024</ele>
        <time>2013-05-20T12:58:00Z</time>
      </trkpt>
      <trkpt lat="42.912524" lon="-8.414158">
        <ele>371.004</ele>
        <time>2013-05-20T12:58:10Z</time>
      </trkpt>
      <trkpt lat="42.912633" lon="-8.414136">
        <ele>369.014</ele>
        <time>2013-05-20T12:58:19Z</time>
      </trkpt>
      <trkpt lat="42.912734" lon="-8.414114">
        <ele>369.007</ele>
        <time>2013-05-20T12:58:24Z</time>
      </trkpt>
      <trkpt lat="42.912825" lon="-8.414105">
        <ele>372.026</ele>
        <time>2013-05-20T12:58:31Z</time>
      </trkpt>
      <trkpt lat="42.912932" lon="-8.414118">
        <ele>375.067</ele>
        <time>2013-05-20T12:58:36Z</time>
      </trkpt>
      <trkpt lat="42.913035" lon="-8.414152">
        <ele>376.083</ele>
        <time>2013-05-20T12:58:46Z</time>
      </trkpt>
      <trkpt lat="42.913100" lon="-8.414129">
        <ele>374.079</ele>
        <time>2013-05-20T12:59:02Z</time>
      </trkpt>
      <trkpt lat="42.913176" lon="-8.414107">
        <ele>372.092</ele>
        <time>2013-05-20T12:59:14Z</time>
      </trkpt>
      <trkpt lat="42.913275" lon="-8.414126">
        <ele>371.021</ele>
        <time>2013-05-20T12:59:18Z</time>
      </trkpt>
      <trkpt lat="42.913379" lon="-8.414131">
        <ele>372.080</ele>
        <time>2013-05-20T12:59:23Z</time>
      </trkpt>
      <trkpt lat="42.913481" lon="-8.414109">
        <ele>371.097</ele>
        <time>2013-05-20T12:59:29Z</time>
      </trkpt>
      <trkpt lat="42.913579" lon="-8.414116">
        <ele>370.023</ele>
        <time>2013-05-20T12:59:39Z</time>
      </trkpt>
      <trkpt lat="42.913668" lon="-8.414154">
        <ele>369.025</ele>
        <time>2013-05-20T12:59:46Z</time>
      </trkpt>
      <trkpt lat="42.913743" lon="-8.414247">
        <ele>368.007</ele>
        <time>2013-05-20T12:59:54Z</time>
      </trkpt>
      <trkpt lat="42.913727" lon="-8.414371">
        <ele>360.053</ele>
        <time>2013-05-20T13:00:04Z</time>
      </trkpt>
      <trkpt lat="42.913778" lon="-8.414486">
        <ele>362.024</ele>
        <time>2013-05-20T13:00:11Z</time>
      </trkpt>
      <trkpt lat="42.913822" lon="-8.414607">
        <ele>367.030</ele>
        <time>2013-05-20T13:00:19Z</time>
      </trkpt>
      <trkpt lat="42.913851" lon="-8.414728">
        <ele>371.046</ele>
        <time>2013-05-20T13:00:25Z</time>
      </trkpt>
      <trkpt lat="42.913857" lon="-8.414865">
        <ele>376.099</ele>
        <time>2013-05-20T13:00:32Z</time>
      </trkpt>
      <trkpt lat="42.913856" lon="-8.414991">
        <ele>374.068</ele>
        <time>2013-05-20T13:00:40Z</time>
      </trkpt>
      <trkpt lat="42.913850" lon="-8.415123">
        <ele>370.067</ele>
        <time>2013-05-20T13:00:50Z</time>
      </trkpt>
      <trkpt lat="42.913842" lon="-8.415170">
        <ele>367.012</ele>
        <time>2013-05-20T13:01:20Z</time>
      </trkpt>
      <trkpt lat="42.913842" lon="-8.415170">
        <ele>367.032</ele>
        <time>2013-05-20T13:01:50Z</time>
      </trkpt>
      <trkpt lat="42.913833" lon="-8.415167">
        <ele>366.005</ele>
        <time>2013-05-20T13:02:20Z</time>
      </trkpt>
      <trkpt lat="42.913809" lon="-8.415300">
        <ele>365.007</ele>
        <time>2013-05-20T13:02:26Z</time>
      </trkpt>
      <trkpt lat="42.913805" lon="-8.415438">
        <ele>367.015</ele>
        <time>2013-05-20T13:02:35Z</time>
      </trkpt>
      <trkpt lat="42.913809" lon="-8.415579">
        <ele>367.076</ele>
        <time>2013-05-20T13:02:42Z</time>
      </trkpt>
      <trkpt lat="42.913809" lon="-8.415709">
        <ele>368.082</ele>
        <time>2013-05-20T13:02:48Z</time>
      </trkpt>
      <trkpt lat="42.913851" lon="-8.415834">
        <ele>361.068</ele>
        <time>2013-05-20T13:02:58Z</time>
      </trkpt>
      <trkpt lat="42.913858" lon="-8.415959">
        <ele>362.041</ele>
        <time>2013-05-20T13:03:05Z</time>
      </trkpt>
      <trkpt lat="42.913852" lon="-8.416090">
        <ele>362.010</ele>
        <time>2013-05-20T13:03:13Z</time>
      </trkpt>
      <trkpt lat="42.913843" lon="-8.416224">
        <ele>364.079</ele>
        <time>2013-05-20T13:03:23Z</time>
      </trkpt>
      <trkpt lat="42.913846" lon="-8.416348">
        <ele>364.046</ele>
        <time>2013-05-20T13:03:31Z</time>
      </trkpt>
      <trkpt lat="42.913836" lon="-8.416476">
        <ele>365.088</ele>
        <time>2013-05-20T13:03:39Z</time>
      </trkpt>
      <trkpt lat="42.913832" lon="-8.416608">
        <ele>364.016</ele>
        <time>2013-05-20T13:03:47Z</time>
      </trkpt>
      <trkpt lat="42.913836" lon="-8.416741">
        <ele>370.007</ele>
        <time>2013-05-20T13:03:56Z</time>
      </trkpt>
      <trkpt lat="42.913808" lon="-8.416874">
        <ele>363.038</ele>
        <time>2013-05-20T13:04:05Z</time>
      </trkpt>
      <trkpt lat="42.913826" lon="-8.417017">
        <ele>369.099</ele>
        <time>2013-05-20T13:04:14Z</time>
      </trkpt>
      <trkpt lat="42.913794" lon="-8.417144">
        <ele>367.015</ele>
        <time>2013-05-20T13:04:21Z</time>
      </trkpt>
      <trkpt lat="42.913809" lon="-8.417279">
        <ele>366.081</ele>
        <time>2013-05-20T13:04:28Z</time>
      </trkpt>
      <trkpt lat="42.913788" lon="-8.417409">
        <ele>365.064</ele>
        <time>2013-05-20T13:04:36Z</time>
      </trkpt>
      <trkpt lat="42.913788" lon="-8.417538">
        <ele>365.033</ele>
        <time>2013-05-20T13:04:43Z</time>
      </trkpt>
      <trkpt lat="42.913782" lon="-8.417666">
        <ele>367.032</ele>
        <time>2013-05-20T13:04:53Z</time>
      </trkpt>
      <trkpt lat="42.913824" lon="-8.417781">
        <ele>361.075</ele>
        <time>2013-05-20T13:05:03Z</time>
      </trkpt>
      <trkpt lat="42.913776" lon="-8.417885">
        <ele>360.028</ele>
        <time>2013-05-20T13:05:12Z</time>
      </trkpt>
      <trkpt lat="42.913718" lon="-8.418006">
        <ele>356.020</ele>
        <time>2013-05-20T13:05:18Z</time>
      </trkpt>
      <trkpt lat="42.913650" lon="-8.418088">
        <ele>359.007</ele>
        <time>2013-05-20T13:05:24Z</time>
      </trkpt>
      <trkpt lat="42.913622" lon="-8.418216">
        <ele>361.021</ele>
        <time>2013-05-20T13:05:31Z</time>
      </trkpt>
      <trkpt lat="42.913593" lon="-8.418344">
        <ele>363.062</ele>
        <time>2013-05-20T13:05:37Z</time>
      </trkpt>
      <trkpt lat="42.913592" lon="-8.418469">
        <ele>364.038</ele>
        <time>2013-05-20T13:05:43Z</time>
      </trkpt>
      <trkpt lat="42.913583" lon="-8.418540">
        <ele>350.094</ele>
        <time>2013-05-20T13:05:53Z</time>
      </trkpt>
      <trkpt lat="42.913634" lon="-8.418659">
        <ele>351.017</ele>
        <time>2013-05-20T13:06:00Z</time>
      </trkpt>
      <trkpt lat="42.913669" lon="-8.418769">
        <ele>352.016</ele>
        <time>2013-05-20T13:06:10Z</time>
      </trkpt>
      <trkpt lat="42.913658" lon="-8.418830">
        <ele>353.075</ele>
        <time>2013-05-20T13:06:20Z</time>
      </trkpt>
      <trkpt lat="42.913676" lon="-8.418962">
        <ele>351.032</ele>
        <time>2013-05-20T13:06:27Z</time>
      </trkpt>
      <trkpt lat="42.913666" lon="-8.419087">
        <ele>353.092</ele>
        <time>2013-05-20T13:06:33Z</time>
      </trkpt>
      <trkpt lat="42.913680" lon="-8.419245">
        <ele>349.011</ele>
        <time>2013-05-20T13:06:39Z</time>
      </trkpt>
      <trkpt lat="42.913721" lon="-8.419372">
        <ele>348.007</ele>
        <time>2013-05-20T13:06:45Z</time>
      </trkpt>
      <trkpt lat="42.913705" lon="-8.419499">
        <ele>348.077</ele>
        <time>2013-05-20T13:06:51Z</time>
      </trkpt>
      <trkpt lat="42.913682" lon="-8.419626">
        <ele>348.058</ele>
        <time>2013-05-20T13:06:59Z</time>
      </trkpt>
      <trkpt lat="42.913628" lon="-8.419731">
        <ele>343.044</ele>
        <time>2013-05-20T13:07:08Z</time>
      </trkpt>
      <trkpt lat="42.913653" lon="-8.419859">
        <ele>343.060</ele>
        <time>2013-05-20T13:07:16Z</time>
      </trkpt>
      <trkpt lat="42.913627" lon="-8.419983">
        <ele>345.043</ele>
        <time>2013-05-20T13:07:22Z</time>
      </trkpt>
      <trkpt lat="42.913558" lon="-8.420077">
        <ele>344.032</ele>
        <time>2013-05-20T13:07:30Z</time>
      </trkpt>
      <trkpt lat="42.913500" lon="-8.420161">
        <ele>348.051</ele>
        <time>2013-05-20T13:07:40Z</time>
      </trkpt>
      <trkpt lat="42.913518" lon="-8.420298">
        <ele>347.073</ele>
        <time>2013-05-20T13:07:48Z</time>
      </trkpt>
      <trkpt lat="42.913522" lon="-8.420428">
        <ele>345.085</ele>
        <time>2013-05-20T13:07:55Z</time>
      </trkpt>
      <trkpt lat="42.913540" lon="-8.420558">
        <ele>346.013</ele>
        <time>2013-05-20T13:08:04Z</time>
      </trkpt>
      <trkpt lat="42.913523" lon="-8.420681">
        <ele>345.007</ele>
        <time>2013-05-20T13:08:12Z</time>
      </trkpt>
      <trkpt lat="42.913551" lon="-8.420804">
        <ele>346.031</ele>
        <time>2013-05-20T13:08:18Z</time>
      </trkpt>
      <trkpt lat="42.913519" lon="-8.420923">
        <ele>347.042</ele>
        <time>2013-05-20T13:08:27Z</time>
      </trkpt>
      <trkpt lat="42.913502" lon="-8.421062">
        <ele>344.068</ele>
        <time>2013-05-20T13:08:34Z</time>
      </trkpt>
      <trkpt lat="42.913511" lon="-8.421192">
        <ele>343.084</ele>
        <time>2013-05-20T13:08:43Z</time>
      </trkpt>
      <trkpt lat="42.913505" lon="-8.421323">
        <ele>342.027</ele>
        <time>2013-05-20T13:08:51Z</time>
      </trkpt>
      <trkpt lat="42.913488" lon="-8.421462">
        <ele>343.026</ele>
        <time>2013-05-20T13:08:59Z</time>
      </trkpt>
      <trkpt lat="42.913501" lon="-8.421601">
        <ele>342.065</ele>
        <time>2013-05-20T13:09:05Z</time>
      </trkpt>
      <trkpt lat="42.913498" lon="-8.421732">
        <ele>340.086</ele>
        <time>2013-05-20T13:09:15Z</time>
      </trkpt>
      <trkpt lat="42.913491" lon="-8.421867">
        <ele>340.060</ele>
        <time>2013-05-20T13:09:23Z</time>
      </trkpt>
      <trkpt lat="42.913453" lon="-8.421987">
        <ele>339.026</ele>
        <time>2013-05-20T13:09:33Z</time>
      </trkpt>
      <trkpt lat="42.913401" lon="-8.422071">
        <ele>341.007</ele>
        <time>2013-05-20T13:09:43Z</time>
      </trkpt>
      <trkpt lat="42.913390" lon="-8.422214">
        <ele>339.092</ele>
        <time>2013-05-20T13:09:51Z</time>
      </trkpt>
      <trkpt lat="42.913363" lon="-8.422348">
        <ele>339.073</ele>
        <time>2013-05-20T13:09:57Z</time>
      </trkpt>
      <trkpt lat="42.913313" lon="-8.422464">
        <ele>340.089</ele>
        <time>2013-05-20T13:10:06Z</time>
      </trkpt>
      <trkpt lat="42.913253" lon="-8.422574">
        <ele>339.045</ele>
        <time>2013-05-20T13:10:14Z</time>
      </trkpt>
      <trkpt lat="42.913210" lon="-8.422689">
        <ele>341.018</ele>
        <time>2013-05-20T13:10:24Z</time>
      </trkpt>
      <trkpt lat="42.913138" lon="-8.422766">
        <ele>340.057</ele>
        <time>2013-05-20T13:10:33Z</time>
      </trkpt>
      <trkpt lat="42.913080" lon="-8.422876">
        <ele>338.096</ele>
        <time>2013-05-20T13:10:43Z</time>
      </trkpt>
      <trkpt lat="42.913009" lon="-8.422965">
        <ele>338.032</ele>
        <time>2013-05-20T13:10:50Z</time>
      </trkpt>
      <trkpt lat="42.912936" lon="-8.423046">
        <ele>337.092</ele>
        <time>2013-05-20T13:10:56Z</time>
      </trkpt>
      <trkpt lat="42.912864" lon="-8.423130">
        <ele>336.011</ele>
        <time>2013-05-20T13:11:05Z</time>
      </trkpt>
      <trkpt lat="42.912826" lon="-8.423252">
        <ele>336.007</ele>
        <time>2013-05-20T13:11:12Z</time>
      </trkpt>
      <trkpt lat="42.912745" lon="-8.423325">
        <ele>336.017</ele>
        <time>2013-05-20T13:11:20Z</time>
      </trkpt>
      <trkpt lat="42.912683" lon="-8.423419">
        <ele>336.038</ele>
        <time>2013-05-20T13:11:30Z</time>
      </trkpt>
      <trkpt lat="42.912600" lon="-8.423496">
        <ele>337.014</ele>
        <time>2013-05-20T13:11:40Z</time>
      </trkpt>
      <trkpt lat="42.912519" lon="-8.423572">
        <ele>338.050</ele>
        <time>2013-05-20T13:11:47Z</time>
      </trkpt>
      <trkpt lat="42.912433" lon="-8.423646">
        <ele>336.013</ele>
        <time>2013-05-20T13:11:55Z</time>
      </trkpt>
      <trkpt lat="42.912334" lon="-8.423682">
        <ele>337.022</ele>
        <time>2013-05-20T13:12:01Z</time>
      </trkpt>
      <trkpt lat="42.912248" lon="-8.423739">
        <ele>338.061</ele>
        <time>2013-05-20T13:12:08Z</time>
      </trkpt>
      <trkpt lat="42.912166" lon="-8.423811">
        <ele>339.036</ele>
        <time>2013-05-20T13:12:17Z</time>
      </trkpt>
      <trkpt lat="42.912068" lon="-8.423855">
        <ele>341.017</ele>
        <time>2013-05-20T13:12:23Z</time>
      </trkpt>
      <trkpt lat="42.912009" lon="-8.423903">
        <ele>343.018</ele>
        <time>2013-05-20T13:12:33Z</time>
      </trkpt>
      <trkpt lat="42.911949" lon="-8.423964">
        <ele>339.007</ele>
        <time>2013-05-20T13:12:43Z</time>
      </trkpt>
      <trkpt lat="42.911869" lon="-8.424053">
        <ele>339.087</ele>
        <time>2013-05-20T13:12:53Z</time>
      </trkpt>
      <trkpt lat="42.911797" lon="-8.424093">
        <ele>341.048</ele>
        <time>2013-05-20T13:13:03Z</time>
      </trkpt>
      <trkpt lat="42.911705" lon="-8.424135">
        <ele>345.094</ele>
        <time>2013-05-20T13:13:12Z</time>
      </trkpt>
      <trkpt lat="42.911657" lon="-8.424146">
        <ele>348.050</ele>
        <time>2013-05-20T13:13:22Z</time>
      </trkpt>
      <trkpt lat="42.911554" lon="-8.424152">
        <ele>346.083</ele>
        <time>2013-05-20T13:13:29Z</time>
      </trkpt>
      <trkpt lat="42.911464" lon="-8.424132">
        <ele>343.012</ele>
        <time>2013-05-20T13:13:36Z</time>
      </trkpt>
      <trkpt lat="42.911366" lon="-8.424103">
        <ele>342.021</ele>
        <time>2013-05-20T13:13:44Z</time>
      </trkpt>
      <trkpt lat="42.911271" lon="-8.424108">
        <ele>340.075</ele>
        <time>2013-05-20T13:13:51Z</time>
      </trkpt>
      <trkpt lat="42.911178" lon="-8.424107">
        <ele>341.028</ele>
        <time>2013-05-20T13:13:59Z</time>
      </trkpt>
      <trkpt lat="42.911096" lon="-8.424167">
        <ele>342.020</ele>
        <time>2013-05-20T13:14:09Z</time>
      </trkpt>
      <trkpt lat="42.911029" lon="-8.424266">
        <ele>343.007</ele>
        <time>2013-05-20T13:14:18Z</time>
      </trkpt>
      <trkpt lat="42.910959" lon="-8.424363">
        <ele>343.061</ele>
        <time>2013-05-20T13:14:27Z</time>
      </trkpt>
      <trkpt lat="42.910865" lon="-8.424340">
        <ele>341.032</ele>
        <time>2013-05-20T13:14:35Z</time>
      </trkpt>
      <trkpt lat="42.910771" lon="-8.424309">
        <ele>340.028</ele>
        <time>2013-05-20T13:14:43Z</time>
      </trkpt>
      <trkpt lat="42.910687" lon="-8.424260">
        <ele>342.074</ele>
        <time>2013-05-20T13:14:51Z</time>
      </trkpt>
      <trkpt lat="42.910597" lon="-8.424219">
        <ele>338.047</ele>
        <time>2013-05-20T13:15:00Z</time>
      </trkpt>
      <trkpt lat="42.910498" lon="-8.424185">
        <ele>339.056</ele>
        <time>2013-05-20T13:15:09Z</time>
      </trkpt>
      <trkpt lat="42.910408" lon="-8.424125">
        <ele>338.075</ele>
        <time>2013-05-20T13:15:16Z</time>
      </trkpt>
      <trkpt lat="42.910336" lon="-8.424138">
        <ele>340.083</ele>
        <time>2013-05-20T13:15:26Z</time>
      </trkpt>
      <trkpt lat="42.910238" lon="-8.424105">
        <ele>340.025</ele>
        <time>2013-05-20T13:15:34Z</time>
      </trkpt>
      <trkpt lat="42.910152" lon="-8.424052">
        <ele>339.017</ele>
        <time>2013-05-20T13:15:43Z</time>
      </trkpt>
      <trkpt lat="42.910054" lon="-8.424018">
        <ele>340.007</ele>
        <time>2013-05-20T13:15:51Z</time>
      </trkpt>
      <trkpt lat="42.909969" lon="-8.423964">
        <ele>340.092</ele>
        <time>2013-05-20T13:15:58Z</time>
      </trkpt>
      <trkpt lat="42.909872" lon="-8.423953">
        <ele>338.083</ele>
        <time>2013-05-20T13:16:07Z</time>
      </trkpt>
      <trkpt lat="42.909782" lon="-8.423932">
        <ele>338.069</ele>
        <time>2013-05-20T13:16:14Z</time>
      </trkpt>
      <trkpt lat="42.909699" lon="-8.423872">
        <ele>339.095</ele>
        <time>2013-05-20T13:16:20Z</time>
      </trkpt>
      <trkpt lat="42.909628" lon="-8.423825">
        <ele>338.098</ele>
        <time>2013-05-20T13:16:30Z</time>
      </trkpt>
      <trkpt lat="42.909528" lon="-8.423807">
        <ele>340.067</ele>
        <time>2013-05-20T13:16:38Z</time>
      </trkpt>
      <trkpt lat="42.909433" lon="-8.423788">
        <ele>341.086</ele>
        <time>2013-05-20T13:16:44Z</time>
      </trkpt>
      <trkpt lat="42.909348" lon="-8.423767">
        <ele>342.092</ele>
        <time>2013-05-20T13:16:54Z</time>
      </trkpt>
      <trkpt lat="42.909257" lon="-8.423731">
        <ele>341.073</ele>
        <time>2013-05-20T13:17:03Z</time>
      </trkpt>
      <trkpt lat="42.909168" lon="-8.423698">
        <ele>340.020</ele>
        <time>2013-05-20T13:17:09Z</time>
      </trkpt>
      <trkpt lat="42.909072" lon="-8.423691">
        <ele>337.007</ele>
        <time>2013-05-20T13:17:17Z</time>
      </trkpt>
      <trkpt lat="42.908980" lon="-8.423649">
        <ele>337.083</ele>
        <time>2013-05-20T13:17:24Z</time>
      </trkpt>
      <trkpt lat="42.908883" lon="-8.423597">
        <ele>338.044</ele>
        <time>2013-05-20T13:17:31Z</time>
      </trkpt>
      <trkpt lat="42.908802" lon="-8.423538">
        <ele>341.070</ele>
        <time>2013-05-20T13:17:38Z</time>
      </trkpt>
      <trkpt lat="42.908779" lon="-8.423592">
        <ele>342.016</ele>
        <time>2013-05-20T13:17:48Z</time>
      </trkpt>
      <trkpt lat="42.908804" lon="-8.423719">
        <ele>340.049</ele>
        <time>2013-05-20T13:17:58Z</time>
      </trkpt>
      <trkpt lat="42.908807" lon="-8.423867">
        <ele>339.088</ele>
        <time>2013-05-20T13:18:06Z</time>
      </trkpt>
      <trkpt lat="42.908786" lon="-8.423997">
        <ele>343.017</ele>
        <time>2013-05-20T13:18:09Z</time>
      </trkpt>
      <trkpt lat="42.908776" lon="-8.424154">
        <ele>346.041</ele>
        <time>2013-05-20T13:18:15Z</time>
      </trkpt>
      <trkpt lat="42.908789" lon="-8.424291">
        <ele>343.081</ele>
        <time>2013-05-20T13:18:23Z</time>
      </trkpt>
      <trkpt lat="42.908804" lon="-8.424421">
        <ele>343.009</ele>
        <time>2013-05-20T13:18:32Z</time>
      </trkpt>
      <trkpt lat="42.908816" lon="-8.424553">
        <ele>344.007</ele>
        <time>2013-05-20T13:18:40Z</time>
      </trkpt>
      <trkpt lat="42.908824" lon="-8.424652">
        <ele>344.048</ele>
        <time>2013-05-20T13:18:50Z</time>
      </trkpt>
      <trkpt lat="42.908867" lon="-8.424777">
        <ele>343.069</ele>
        <time>2013-05-20T13:18:57Z</time>
      </trkpt>
      <trkpt lat="42.908894" lon="-8.424907">
        <ele>342.065</ele>
        <time>2013-05-20T13:19:05Z</time>
      </trkpt>
      <trkpt lat="42.908958" lon="-8.425027">
        <ele>339.041</ele>
        <time>2013-05-20T13:19:12Z</time>
      </trkpt>
      <trkpt lat="42.909002" lon="-8.425142">
        <ele>339.074</ele>
        <time>2013-05-20T13:19:20Z</time>
      </trkpt>
      <trkpt lat="42.909036" lon="-8.425248">
        <ele>336.023</ele>
        <time>2013-05-20T13:19:30Z</time>
      </trkpt>
      <trkpt lat="42.909055" lon="-8.425374">
        <ele>339.022</ele>
        <time>2013-05-20T13:19:37Z</time>
      </trkpt>
      <trkpt lat="42.909075" lon="-8.425500">
        <ele>339.047</ele>
        <time>2013-05-20T13:19:44Z</time>
      </trkpt>
      <trkpt lat="42.909052" lon="-8.425623">
        <ele>339.029</ele>
        <time>2013-05-20T13:19:53Z</time>
      </trkpt>
      <trkpt lat="42.908919" lon="-8.425606">
        <ele>325.021</ele>
        <time>2013-05-20T13:57:43Z</time>
      </trkpt>
      <trkpt lat="42.909021" lon="-8.425695">
        <ele>326.007</ele>
        <time>2013-05-20T13:57:49Z</time>
      </trkpt>
      <trkpt lat="42.908974" lon="-8.425714">
        <ele>332.038</ele>
        <time>2013-05-20T13:57:59Z</time>
      </trkpt>
      <trkpt lat="42.909000" lon="-8.425814">
        <ele>331.059</ele>
        <time>2013-05-20T13:58:09Z</time>
      </trkpt>
      <trkpt lat="42.908959" lon="-8.425942">
        <ele>330.065</ele>
        <time>2013-05-20T13:58:19Z</time>
      </trkpt>
      <trkpt lat="42.908909" lon="-8.426045">
        <ele>330.091</ele>
        <time>2013-05-20T13:58:24Z</time>
      </trkpt>
      <trkpt lat="42.908848" lon="-8.426141">
        <ele>329.044</ele>
        <time>2013-05-20T13:58:30Z</time>
      </trkpt>
      <trkpt lat="42.908838" lon="-8.426278">
        <ele>331.073</ele>
        <time>2013-05-20T13:58:39Z</time>
      </trkpt>
      <trkpt lat="42.908789" lon="-8.426300">
        <ele>328.052</ele>
        <time>2013-05-20T13:58:55Z</time>
      </trkpt>
      <trkpt lat="42.908695" lon="-8.426359">
        <ele>328.063</ele>
        <time>2013-05-20T13:58:59Z</time>
      </trkpt>
      <trkpt lat="42.908602" lon="-8.426364">
        <ele>327.044</ele>
        <time>2013-05-20T13:59:05Z</time>
      </trkpt>
      <trkpt lat="42.908541" lon="-8.426320">
        <ele>327.018</ele>
        <time>2013-05-20T13:59:15Z</time>
      </trkpt>
      <trkpt lat="42.908508" lon="-8.426363">
        <ele>327.007</ele>
        <time>2013-05-20T13:59:33Z</time>
      </trkpt>
      <trkpt lat="42.908452" lon="-8.426512">
        <ele>326.030</ele>
        <time>2013-05-20T13:59:39Z</time>
      </trkpt>
      <trkpt lat="42.908438" lon="-8.426575">
        <ele>327.091</ele>
        <time>2013-05-20T13:59:49Z</time>
      </trkpt>
      <trkpt lat="42.908382" lon="-8.426665">
        <ele>330.057</ele>
        <time>2013-05-20T13:59:59Z</time>
      </trkpt>
      <trkpt lat="42.908321" lon="-8.426757">
        <ele>330.073</ele>
        <time>2013-05-20T14:00:06Z</time>
      </trkpt>
      <trkpt lat="42.908321" lon="-8.426757">
        <ele>330.086</ele>
        <time>2013-05-20T14:00:36Z</time>
      </trkpt>
      <trkpt lat="42.908239" lon="-8.426822">
        <ele>333.075</ele>
        <time>2013-05-20T14:00:41Z</time>
      </trkpt>
      <trkpt lat="42.908181" lon="-8.426922">
        <ele>331.034</ele>
        <time>2013-05-20T14:00:49Z</time>
      </trkpt>
      <trkpt lat="42.908117" lon="-8.427019">
        <ele>332.014</ele>
        <time>2013-05-20T14:00:59Z</time>
      </trkpt>
      <trkpt lat="42.908048" lon="-8.427108">
        <ele>334.054</ele>
        <time>2013-05-20T14:01:09Z</time>
      </trkpt>
      <trkpt lat="42.908000" lon="-8.427213">
        <ele>337.009</ele>
        <time>2013-05-20T14:01:19Z</time>
      </trkpt>
      <trkpt lat="42.907952" lon="-8.427298">
        <ele>339.007</ele>
        <time>2013-05-20T14:01:29Z</time>
      </trkpt>
      <trkpt lat="42.907873" lon="-8.427334">
        <ele>341.045</ele>
        <time>2013-05-20T14:01:39Z</time>
      </trkpt>
      <trkpt lat="42.907800" lon="-8.427359">
        <ele>341.086</ele>
        <time>2013-05-20T14:01:49Z</time>
      </trkpt>
      <trkpt lat="42.907720" lon="-8.427393">
        <ele>343.012</ele>
        <time>2013-05-20T14:01:59Z</time>
      </trkpt>
      <trkpt lat="42.907642" lon="-8.427457">
        <ele>344.018</ele>
        <time>2013-05-20T14:02:09Z</time>
      </trkpt>
      <trkpt lat="42.907565" lon="-8.427527">
        <ele>346.081</ele>
        <time>2013-05-20T14:02:16Z</time>
      </trkpt>
      <trkpt lat="42.907500" lon="-8.427617">
        <ele>348.070</ele>
        <time>2013-05-20T14:02:24Z</time>
      </trkpt>
      <trkpt lat="42.907424" lon="-8.427706">
        <ele>350.099</ele>
        <time>2013-05-20T14:02:31Z</time>
      </trkpt>
      <trkpt lat="42.907354" lon="-8.427784">
        <ele>351.029</ele>
        <time>2013-05-20T14:02:38Z</time>
      </trkpt>
      <trkpt lat="42.907283" lon="-8.427816">
        <ele>353.000</ele>
        <time>2013-05-20T14:02:48Z</time>
      </trkpt>
      <trkpt lat="42.907204" lon="-8.427889">
        <ele>353.020</ele>
        <time>2013-05-20T14:02:57Z</time>
      </trkpt>
      <trkpt lat="42.907187" lon="-8.427939">
        <ele>354.007</ele>
        <time>2013-05-20T14:03:27Z</time>
      </trkpt>
      <trkpt lat="42.907121" lon="-8.428045">
        <ele>353.096</ele>
        <time>2013-05-20T14:03:34Z</time>
      </trkpt>
      <trkpt lat="42.907076" lon="-8.428163">
        <ele>351.047</ele>
        <time>2013-05-20T14:03:40Z</time>
      </trkpt>
      <trkpt lat="42.907003" lon="-8.428251">
        <ele>348.043</ele>
        <time>2013-05-20T14:03:49Z</time>
      </trkpt>
      <trkpt lat="42.906966" lon="-8.428381">
        <ele>344.019</ele>
        <time>2013-05-20T14:03:57Z</time>
      </trkpt>
      <trkpt lat="42.906918" lon="-8.428489">
        <ele>343.042</ele>
        <time>2013-05-20T14:04:03Z</time>
      </trkpt>
      <trkpt lat="42.906878" lon="-8.428600">
        <ele>340.061</ele>
        <time>2013-05-20T14:04:11Z</time>
      </trkpt>
      <trkpt lat="42.906818" lon="-8.428707">
        <ele>341.090</ele>
        <time>2013-05-20T14:04:20Z</time>
      </trkpt>
      <trkpt lat="42.906785" lon="-8.428814">
        <ele>338.078</ele>
        <time>2013-05-20T14:04:30Z</time>
      </trkpt>
      <trkpt lat="42.906746" lon="-8.428898">
        <ele>339.033</ele>
        <time>2013-05-20T14:04:40Z</time>
      </trkpt>
      <trkpt lat="42.906702" lon="-8.429020">
        <ele>339.026</ele>
        <time>2013-05-20T14:04:48Z</time>
      </trkpt>
      <trkpt lat="42.906645" lon="-8.429130">
        <ele>338.007</ele>
        <time>2013-05-20T14:04:57Z</time>
      </trkpt>
      <trkpt lat="42.906604" lon="-8.429248">
        <ele>338.071</ele>
        <time>2013-05-20T14:05:06Z</time>
      </trkpt>
      <trkpt lat="42.906536" lon="-8.429337">
        <ele>335.052</ele>
        <time>2013-05-20T14:05:16Z</time>
      </trkpt>
      <trkpt lat="42.906501" lon="-8.429449">
        <ele>333.058</ele>
        <time>2013-05-20T14:05:26Z</time>
      </trkpt>
      <trkpt lat="42.906425" lon="-8.429531">
        <ele>330.024</ele>
        <time>2013-05-20T14:05:35Z</time>
      </trkpt>
      <trkpt lat="42.906348" lon="-8.429619">
        <ele>331.037</ele>
        <time>2013-05-20T14:05:43Z</time>
      </trkpt>
      <trkpt lat="42.906320" lon="-8.429667">
        <ele>330.026</ele>
        <time>2013-05-20T14:05:53Z</time>
      </trkpt>
      <trkpt lat="42.906214" lon="-8.429652">
        <ele>330.025</ele>
        <time>2013-05-20T14:06:02Z</time>
      </trkpt>
      <trkpt lat="42.906127" lon="-8.429616">
        <ele>329.049</ele>
        <time>2013-05-20T14:06:05Z</time>
      </trkpt>
      <trkpt lat="42.906023" lon="-8.429611">
        <ele>329.002</ele>
        <time>2013-05-20T14:06:08Z</time>
      </trkpt>
      <trkpt lat="42.905939" lon="-8.429677">
        <ele>329.022</ele>
        <time>2013-05-20T14:06:12Z</time>
      </trkpt>
      <trkpt lat="42.906037" lon="-8.429937">
        <ele>329.007</ele>
        <time>2013-05-20T14:06:13Z</time>
      </trkpt>
      <trkpt lat="42.906025" lon="-8.430019">
        <ele>334.048</ele>
        <time>2013-05-20T14:06:23Z</time>
      </trkpt>
      <trkpt lat="42.905939" lon="-8.430040">
        <ele>334.019</ele>
        <time>2013-05-20T14:06:33Z</time>
      </trkpt>
      <trkpt lat="42.905857" lon="-8.430103">
        <ele>334.075</ele>
        <time>2013-05-20T14:06:42Z</time>
      </trkpt>
      <trkpt lat="42.905791" lon="-8.430201">
        <ele>334.041</ele>
        <time>2013-05-20T14:06:48Z</time>
      </trkpt>
      <trkpt lat="42.905733" lon="-8.430298">
        <ele>334.074</ele>
        <time>2013-05-20T14:06:56Z</time>
      </trkpt>
      <trkpt lat="42.905671" lon="-8.430407">
        <ele>334.033</ele>
        <time>2013-05-20T14:07:06Z</time>
      </trkpt>
      <trkpt lat="42.905614" lon="-8.430512">
        <ele>333.012</ele>
        <time>2013-05-20T14:07:15Z</time>
      </trkpt>
      <trkpt lat="42.905573" lon="-8.430637">
        <ele>335.027</ele>
        <time>2013-05-20T14:07:24Z</time>
      </trkpt>
      <trkpt lat="42.905520" lon="-8.430756">
        <ele>338.068</ele>
        <time>2013-05-20T14:07:34Z</time>
      </trkpt>
      <trkpt lat="42.905498" lon="-8.430818">
        <ele>341.014</ele>
        <time>2013-05-20T14:07:44Z</time>
      </trkpt>
      <trkpt lat="42.905468" lon="-8.430898">
        <ele>342.007</ele>
        <time>2013-05-20T14:07:54Z</time>
      </trkpt>
      <trkpt lat="42.905410" lon="-8.430993">
        <ele>342.016</ele>
        <time>2013-05-20T14:08:00Z</time>
      </trkpt>
      <trkpt lat="42.905404" lon="-8.431138">
        <ele>342.087</ele>
        <time>2013-05-20T14:08:06Z</time>
      </trkpt>
      <trkpt lat="42.905402" lon="-8.431275">
        <ele>341.023</ele>
        <time>2013-05-20T14:08:12Z</time>
      </trkpt>
      <trkpt lat="42.905421" lon="-8.431398">
        <ele>340.099</ele>
        <time>2013-05-20T14:08:19Z</time>
      </trkpt>
      <trkpt lat="42.905439" lon="-8.431529">
        <ele>341.012</ele>
        <time>2013-05-20T14:08:28Z</time>
      </trkpt>
      <trkpt lat="42.905404" lon="-8.431620">
        <ele>338.011</ele>
        <time>2013-05-20T14:08:38Z</time>
      </trkpt>
      <trkpt lat="42.905351" lon="-8.431687">
        <ele>336.060</ele>
        <time>2013-05-20T14:08:48Z</time>
      </trkpt>
      <trkpt lat="42.905280" lon="-8.431790">
        <ele>335.036</ele>
        <time>2013-05-20T14:08:54Z</time>
      </trkpt>
      <trkpt lat="42.905208" lon="-8.431897">
        <ele>336.017</ele>
        <time>2013-05-20T14:09:00Z</time>
      </trkpt>
      <trkpt lat="42.905169" lon="-8.432008">
        <ele>334.018</ele>
        <time>2013-05-20T14:09:05Z</time>
      </trkpt>
      <trkpt lat="42.905113" lon="-8.432129">
        <ele>333.007</ele>
        <time>2013-05-20T14:09:15Z</time>
      </trkpt>
      <trkpt lat="42.905083" lon="-8.432216">
        <ele>335.077</ele>
        <time>2013-05-20T14:09:25Z</time>
      </trkpt>
      <trkpt lat="42.905065" lon="-8.432278">
        <ele>337.048</ele>
        <time>2013-05-20T14:09:45Z</time>
      </trkpt>
      <trkpt lat="42.905034" lon="-8.432326">
        <ele>335.024</ele>
        <time>2013-05-20T14:10:15Z</time>
      </trkpt>
      <trkpt lat="42.904952" lon="-8.432418">
        <ele>334.090</ele>
        <time>2013-05-20T14:10:21Z</time>
      </trkpt>
      <trkpt lat="42.904879" lon="-8.432511">
        <ele>340.013</ele>
        <time>2013-05-20T14:10:30Z</time>
      </trkpt>
      <trkpt lat="42.904792" lon="-8.432600">
        <ele>341.052</ele>
        <time>2013-05-20T14:10:38Z</time>
      </trkpt>
      <trkpt lat="42.904725" lon="-8.432682">
        <ele>340.081</ele>
        <time>2013-05-20T14:10:44Z</time>
      </trkpt>
      <trkpt lat="42.904664" lon="-8.432772">
        <ele>344.087</ele>
        <time>2013-05-20T14:10:51Z</time>
      </trkpt>
      <trkpt lat="42.904617" lon="-8.432874">
        <ele>343.042</ele>
        <time>2013-05-20T14:11:01Z</time>
      </trkpt>
      <trkpt lat="42.904562" lon="-8.432977">
        <ele>341.026</ele>
        <time>2013-05-20T14:11:08Z</time>
      </trkpt>
      <trkpt lat="42.904511" lon="-8.433092">
        <ele>339.007</ele>
        <time>2013-05-20T14:11:14Z</time>
      </trkpt>
      <trkpt lat="42.904486" lon="-8.433217">
        <ele>338.072</ele>
        <time>2013-05-20T14:11:21Z</time>
      </trkpt>
      <trkpt lat="42.904434" lon="-8.433358">
        <ele>337.063</ele>
        <time>2013-05-20T14:11:27Z</time>
      </trkpt>
      <trkpt lat="42.904374" lon="-8.433450">
        <ele>337.099</ele>
        <time>2013-05-20T14:11:31Z</time>
      </trkpt>
      <trkpt lat="42.904310" lon="-8.433469">
        <ele>332.025</ele>
        <time>2013-05-20T14:11:41Z</time>
      </trkpt>
      <trkpt lat="42.904360" lon="-8.433561">
        <ele>331.058</ele>
        <time>2013-05-20T14:11:51Z</time>
      </trkpt>
      <trkpt lat="42.904356" lon="-8.433632">
        <ele>329.057</ele>
        <time>2013-05-20T14:12:01Z</time>
      </trkpt>
      <trkpt lat="42.904351" lon="-8.433731">
        <ele>328.066</ele>
        <time>2013-05-20T14:12:11Z</time>
      </trkpt>
      <trkpt lat="42.904340" lon="-8.433870">
        <ele>327.068</ele>
        <time>2013-05-20T14:12:16Z</time>
      </trkpt>
      <trkpt lat="42.904313" lon="-8.434007">
        <ele>324.042</ele>
        <time>2013-05-20T14:12:22Z</time>
      </trkpt>
      <trkpt lat="42.904283" lon="-8.434123">
        <ele>323.026</ele>
        <time>2013-05-20T14:12:28Z</time>
      </trkpt>
      <trkpt lat="42.904226" lon="-8.434241">
        <ele>320.007</ele>
        <time>2013-05-20T14:12:33Z</time>
      </trkpt>
      <trkpt lat="42.904175" lon="-8.434378">
        <ele>320.050</ele>
        <time>2013-05-20T14:12:40Z</time>
      </trkpt>
      <trkpt lat="42.904169" lon="-8.434518">
        <ele>321.041</ele>
        <time>2013-05-20T14:12:44Z</time>
      </trkpt>
      <trkpt lat="42.904122" lon="-8.434631">
        <ele>320.027</ele>
        <time>2013-05-20T14:12:53Z</time>
      </trkpt>
      <trkpt lat="42.904111" lon="-8.434762">
        <ele>324.013</ele>
        <time>2013-05-20T14:13:01Z</time>
      </trkpt>
      <trkpt lat="42.904137" lon="-8.434884">
        <ele>327.026</ele>
        <time>2013-05-20T14:13:10Z</time>
      </trkpt>
      <trkpt lat="42.904118" lon="-8.435012">
        <ele>321.035</ele>
        <time>2013-05-20T14:13:18Z</time>
      </trkpt>
      <trkpt lat="42.904137" lon="-8.435140">
        <ele>320.084</ele>
        <time>2013-05-20T14:13:27Z</time>
      </trkpt>
      <trkpt lat="42.904053" lon="-8.435205">
        <ele>321.044</ele>
        <time>2013-05-20T14:13:36Z</time>
      </trkpt>
      <trkpt lat="42.904013" lon="-8.435327">
        <ele>322.005</ele>
        <time>2013-05-20T14:13:45Z</time>
      </trkpt>
      <trkpt lat="42.903945" lon="-8.435420">
        <ele>323.015</ele>
        <time>2013-05-20T14:13:54Z</time>
      </trkpt>
      <trkpt lat="42.903887" lon="-8.435515">
        <ele>323.007</ele>
        <time>2013-05-20T14:14:01Z</time>
      </trkpt>
      <trkpt lat="42.903808" lon="-8.435578">
        <ele>323.048</ele>
        <time>2013-05-20T14:14:08Z</time>
      </trkpt>
      <trkpt lat="42.903736" lon="-8.435668">
        <ele>324.069</ele>
        <time>2013-05-20T14:14:16Z</time>
      </trkpt>
      <trkpt lat="42.903664" lon="-8.435766">
        <ele>322.065</ele>
        <time>2013-05-20T14:14:24Z</time>
      </trkpt>
      <trkpt lat="42.903598" lon="-8.435866">
        <ele>321.031</ele>
        <time>2013-05-20T14:14:32Z</time>
      </trkpt>
      <trkpt lat="42.903541" lon="-8.435967">
        <ele>321.044</ele>
        <time>2013-05-20T14:14:39Z</time>
      </trkpt>
      <trkpt lat="42.903485" lon="-8.436076">
        <ele>320.023</ele>
        <time>2013-05-20T14:14:47Z</time>
      </trkpt>
      <trkpt lat="42.903428" lon="-8.436183">
        <ele>320.032</ele>
        <time>2013-05-20T14:14:55Z</time>
      </trkpt>
      <trkpt lat="42.903346" lon="-8.436273">
        <ele>321.078</ele>
        <time>2013-05-20T14:15:03Z</time>
      </trkpt>
      <trkpt lat="42.903281" lon="-8.436364">
        <ele>317.033</ele>
        <time>2013-05-20T14:15:12Z</time>
      </trkpt>
      <trkpt lat="42.903214" lon="-8.436447">
        <ele>318.026</ele>
        <time>2013-05-20T14:15:18Z</time>
      </trkpt>
      <trkpt lat="42.903148" lon="-8.436539">
        <ele>314.007</ele>
        <time>2013-05-20T14:15:25Z</time>
      </trkpt>
      <trkpt lat="42.903084" lon="-8.436630">
        <ele>319.061</ele>
        <time>2013-05-20T14:15:32Z</time>
      </trkpt>
      <trkpt lat="42.903038" lon="-8.436746">
        <ele>318.072</ele>
        <time>2013-05-20T14:15:40Z</time>
      </trkpt>
      <trkpt lat="42.902966" lon="-8.436836">
        <ele>314.098</ele>
        <time>2013-05-20T14:15:49Z</time>
      </trkpt>
      <trkpt lat="42.902885" lon="-8.436906">
        <ele>318.014</ele>
        <time>2013-05-20T14:15:58Z</time>
      </trkpt>
      <trkpt lat="42.902842" lon="-8.437021">
        <ele>316.087</ele>
        <time>2013-05-20T14:16:08Z</time>
      </trkpt>
      <trkpt lat="42.902785" lon="-8.437121">
        <ele>314.086</ele>
        <time>2013-05-20T14:16:15Z</time>
      </trkpt>
      <trkpt lat="42.902706" lon="-8.437206">
        <ele>313.065</ele>
        <time>2013-05-20T14:16:24Z</time>
      </trkpt>
      <trkpt lat="42.902645" lon="-8.437301">
        <ele>313.025</ele>
        <time>2013-05-20T14:16:30Z</time>
      </trkpt>
      <trkpt lat="42.902604" lon="-8.437368">
        <ele>315.026</ele>
        <time>2013-05-20T14:16:46Z</time>
      </trkpt>
      <trkpt lat="42.902543" lon="-8.437439">
        <ele>314.008</ele>
        <time>2013-05-20T14:16:56Z</time>
      </trkpt>
      <trkpt lat="42.902475" lon="-8.437536">
        <ele>317.007</ele>
        <time>2013-05-20T14:17:02Z</time>
      </trkpt>
      <trkpt lat="42.902385" lon="-8.437634">
        <ele>317.066</ele>
        <time>2013-05-20T14:17:07Z</time>
      </trkpt>
      <trkpt lat="42.902347" lon="-8.437727">
        <ele>318.047</ele>
        <time>2013-05-20T14:17:17Z</time>
      </trkpt>
      <trkpt lat="42.902311" lon="-8.437844">
        <ele>318.043</ele>
        <time>2013-05-20T14:17:22Z</time>
      </trkpt>
      <trkpt lat="42.902247" lon="-8.437987">
        <ele>318.059</ele>
        <time>2013-05-20T14:17:31Z</time>
      </trkpt>
      <trkpt lat="42.902197" lon="-8.438062">
        <ele>317.082</ele>
        <time>2013-05-20T14:17:41Z</time>
      </trkpt>
      <trkpt lat="42.902143" lon="-8.438180">
        <ele>319.071</ele>
        <time>2013-05-20T14:17:45Z</time>
      </trkpt>
      <trkpt lat="42.902080" lon="-8.438290">
        <ele>318.080</ele>
        <time>2013-05-20T14:17:49Z</time>
      </trkpt>
      <trkpt lat="42.902016" lon="-8.438389">
        <ele>315.046</ele>
        <time>2013-05-20T14:17:54Z</time>
      </trkpt>
      <trkpt lat="42.901997" lon="-8.438475">
        <ele>313.088</ele>
        <time>2013-05-20T14:18:05Z</time>
      </trkpt>
      <trkpt lat="42.901956" lon="-8.438617">
        <ele>313.016</ele>
        <time>2013-05-20T14:18:11Z</time>
      </trkpt>
      <trkpt lat="42.901939" lon="-8.438746">
        <ele>313.007</ele>
        <time>2013-05-20T14:18:16Z</time>
      </trkpt>
      <trkpt lat="42.901963" lon="-8.438872">
        <ele>310.068</ele>
        <time>2013-05-20T14:18:26Z</time>
      </trkpt>
      <trkpt lat="42.901951" lon="-8.438995">
        <ele>308.049</ele>
        <time>2013-05-20T14:18:33Z</time>
      </trkpt>
      <trkpt lat="42.901945" lon="-8.439118">
        <ele>310.015</ele>
        <time>2013-05-20T14:18:40Z</time>
      </trkpt>
      <trkpt lat="42.901950" lon="-8.439247">
        <ele>310.081</ele>
        <time>2013-05-20T14:18:49Z</time>
      </trkpt>
      <trkpt lat="42.901909" lon="-8.439357">
        <ele>311.074</ele>
        <time>2013-05-20T14:18:56Z</time>
      </trkpt>
      <trkpt lat="42.901890" lon="-8.439488">
        <ele>311.063</ele>
        <time>2013-05-20T14:19:04Z</time>
      </trkpt>
      <trkpt lat="42.901871" lon="-8.439618">
        <ele>311.032</ele>
        <time>2013-05-20T14:19:13Z</time>
      </trkpt>
      <trkpt lat="42.901863" lon="-8.439719">
        <ele>310.027</ele>
        <time>2013-05-20T14:19:23Z</time>
      </trkpt>
      <trkpt lat="42.901850" lon="-8.439834">
        <ele>314.068</ele>
        <time>2013-05-20T14:19:33Z</time>
      </trkpt>
      <trkpt lat="42.901846" lon="-8.439963">
        <ele>313.014</ele>
        <time>2013-05-20T14:19:40Z</time>
      </trkpt>
      <trkpt lat="42.901816" lon="-8.440083">
        <ele>317.007</ele>
        <time>2013-05-20T14:19:49Z</time>
      </trkpt>
      <trkpt lat="42.901865" lon="-8.440193">
        <ele>317.086</ele>
        <time>2013-05-20T14:19:58Z</time>
      </trkpt>
      <trkpt lat="42.901917" lon="-8.440294">
        <ele>317.057</ele>
        <time>2013-05-20T14:20:07Z</time>
      </trkpt>
      <trkpt lat="42.901861" lon="-8.440422">
        <ele>317.043</ele>
        <time>2013-05-20T14:20:14Z</time>
      </trkpt>
      <trkpt lat="42.901808" lon="-8.440547">
        <ele>316.069</ele>
        <time>2013-05-20T14:20:22Z</time>
      </trkpt>
      <trkpt lat="42.901768" lon="-8.440680">
        <ele>319.022</ele>
        <time>2013-05-20T14:20:31Z</time>
      </trkpt>
      <trkpt lat="42.901740" lon="-8.440823">
        <ele>321.041</ele>
        <time>2013-05-20T14:20:39Z</time>
      </trkpt>
      <trkpt lat="42.901717" lon="-8.440950">
        <ele>320.040</ele>
        <time>2013-05-20T14:20:44Z</time>
      </trkpt>
      <trkpt lat="42.901669" lon="-8.441067">
        <ele>319.068</ele>
        <time>2013-05-20T14:20:54Z</time>
      </trkpt>
      <trkpt lat="42.901649" lon="-8.441166">
        <ele>319.042</ele>
        <time>2013-05-20T14:21:04Z</time>
      </trkpt>
      <trkpt lat="42.901634" lon="-8.441300">
        <ele>316.026</ele>
        <time>2013-05-20T14:21:13Z</time>
      </trkpt>
      <trkpt lat="42.901596" lon="-8.441423">
        <ele>307.007</ele>
        <time>2013-05-20T14:21:20Z</time>
      </trkpt>
      <trkpt lat="42.901620" lon="-8.441525">
        <ele>304.050</ele>
        <time>2013-05-20T14:21:30Z</time>
      </trkpt>
      <trkpt lat="42.901675" lon="-8.441637">
        <ele>306.051</ele>
        <time>2013-05-20T14:21:35Z</time>
      </trkpt>
      <trkpt lat="42.901663" lon="-8.441769">
        <ele>304.047</ele>
        <time>2013-05-20T14:21:43Z</time>
      </trkpt>
      <trkpt lat="42.901624" lon="-8.441886">
        <ele>305.053</ele>
        <time>2013-05-20T14:21:49Z</time>
      </trkpt>
      <trkpt lat="42.901592" lon="-8.442005">
        <ele>306.066</ele>
        <time>2013-05-20T14:21:57Z</time>
      </trkpt>
      <trkpt lat="42.901620" lon="-8.442122">
        <ele>305.085</ele>
        <time>2013-05-20T14:22:03Z</time>
      </trkpt>
      <trkpt lat="42.901608" lon="-8.442251">
        <ele>306.074</ele>
        <time>2013-05-20T14:22:12Z</time>
      </trkpt>
      <trkpt lat="42.901538" lon="-8.442360">
        <ele>300.033</ele>
        <time>2013-05-20T14:22:17Z</time>
      </trkpt>
      <trkpt lat="42.901494" lon="-8.442479">
        <ele>301.023</ele>
        <time>2013-05-20T14:22:27Z</time>
      </trkpt>
      <trkpt lat="42.901502" lon="-8.442603">
        <ele>301.015</ele>
        <time>2013-05-20T14:22:32Z</time>
      </trkpt>
      <trkpt lat="42.901413" lon="-8.442673">
        <ele>301.007</ele>
        <time>2013-05-20T14:22:38Z</time>
      </trkpt>
      <trkpt lat="42.901353" lon="-8.442784">
        <ele>300.047</ele>
        <time>2013-05-20T14:22:46Z</time>
      </trkpt>
      <trkpt lat="42.901295" lon="-8.442906">
        <ele>299.028</ele>
        <time>2013-05-20T14:22:56Z</time>
      </trkpt>
      <trkpt lat="42.901225" lon="-8.442996">
        <ele>300.084</ele>
        <time>2013-05-20T14:23:02Z</time>
      </trkpt>
      <trkpt lat="42.901173" lon="-8.443106">
        <ele>302.070</ele>
        <time>2013-05-20T14:23:09Z</time>
      </trkpt>
      <trkpt lat="42.901136" lon="-8.443233">
        <ele>302.093</ele>
        <time>2013-05-20T14:23:19Z</time>
      </trkpt>
      <trkpt lat="42.901089" lon="-8.443359">
        <ele>303.032</ele>
        <time>2013-05-20T14:23:26Z</time>
      </trkpt>
      <trkpt lat="42.901041" lon="-8.443479">
        <ele>303.091</ele>
        <time>2013-05-20T14:23:33Z</time>
      </trkpt>
      <trkpt lat="42.900992" lon="-8.443597">
        <ele>301.057</ele>
        <time>2013-05-20T14:23:40Z</time>
      </trkpt>
      <trkpt lat="42.900946" lon="-8.443723">
        <ele>298.000</ele>
        <time>2013-05-20T14:23:48Z</time>
      </trkpt>
      <trkpt lat="42.900929" lon="-8.443852">
        <ele>296.020</ele>
        <time>2013-05-20T14:23:58Z</time>
      </trkpt>
      <trkpt lat="42.900963" lon="-8.443979">
        <ele>306.007</ele>
        <time>2013-05-20T14:24:06Z</time>
      </trkpt>
      <trkpt lat="42.900916" lon="-8.444086">
        <ele>303.019</ele>
        <time>2013-05-20T14:24:15Z</time>
      </trkpt>
      <trkpt lat="42.900861" lon="-8.444202">
        <ele>303.070</ele>
        <time>2013-05-20T14:24:20Z</time>
      </trkpt>
      <trkpt lat="42.900821" lon="-8.444325">
        <ele>304.086</ele>
        <time>2013-05-20T14:24:26Z</time>
      </trkpt>
      <trkpt lat="42.900791" lon="-8.444432">
        <ele>304.072</ele>
        <time>2013-05-20T14:24:36Z</time>
      </trkpt>
      <trkpt lat="42.900795" lon="-8.444568">
        <ele>306.085</ele>
        <time>2013-05-20T14:24:46Z</time>
      </trkpt>
      <trkpt lat="42.900755" lon="-8.444689">
        <ele>304.074</ele>
        <time>2013-05-20T14:24:51Z</time>
      </trkpt>
      <trkpt lat="42.900716" lon="-8.444806">
        <ele>304.023</ele>
        <time>2013-05-20T14:24:56Z</time>
      </trkpt>
      <trkpt lat="42.900676" lon="-8.444934">
        <ele>299.079</ele>
        <time>2013-05-20T14:25:02Z</time>
      </trkpt>
      <trkpt lat="42.900664" lon="-8.445053">
        <ele>295.005</ele>
        <time>2013-05-20T14:25:12Z</time>
      </trkpt>
      <trkpt lat="42.900632" lon="-8.445179">
        <ele>298.025</ele>
        <time>2013-05-20T14:25:18Z</time>
      </trkpt>
      <trkpt lat="42.900659" lon="-8.445252">
        <ele>297.007</ele>
        <time>2013-05-20T14:25:32Z</time>
      </trkpt>
      <trkpt lat="42.900655" lon="-8.445384">
        <ele>296.081</ele>
        <time>2013-05-20T14:25:38Z</time>
      </trkpt>
      <trkpt lat="42.900639" lon="-8.445519">
        <ele>295.022</ele>
        <time>2013-05-20T14:25:44Z</time>
      </trkpt>
      <trkpt lat="42.900600" lon="-8.445631">
        <ele>295.028</ele>
        <time>2013-05-20T14:25:51Z</time>
      </trkpt>
      <trkpt lat="42.900601" lon="-8.445786">
        <ele>296.054</ele>
        <time>2013-05-20T14:26:01Z</time>
      </trkpt>
      <trkpt lat="42.900574" lon="-8.445929">
        <ele>297.037</ele>
        <time>2013-05-20T14:26:09Z</time>
      </trkpt>
      <trkpt lat="42.900509" lon="-8.446043">
        <ele>297.016</ele>
        <time>2013-05-20T14:26:16Z</time>
      </trkpt>
      <trkpt lat="42.900475" lon="-8.446108">
        <ele>294.095</ele>
        <time>2013-05-20T14:26:26Z</time>
      </trkpt>
      <trkpt lat="42.900465" lon="-8.446230">
        <ele>295.028</ele>
        <time>2013-05-20T14:26:36Z</time>
      </trkpt>
      <trkpt lat="42.900420" lon="-8.446347">
        <ele>296.089</ele>
        <time>2013-05-20T14:26:41Z</time>
      </trkpt>
      <trkpt lat="42.900380" lon="-8.446462">
        <ele>297.017</ele>
        <time>2013-05-20T14:26:46Z</time>
      </trkpt>
      <trkpt lat="42.900338" lon="-8.446586">
        <ele>296.007</ele>
        <time>2013-05-20T14:26:52Z</time>
      </trkpt>
      <trkpt lat="42.900295" lon="-8.446701">
        <ele>283.036</ele>
        <time>2013-05-20T14:26:59Z</time>
      </trkpt>
      <trkpt lat="42.900218" lon="-8.446769">
        <ele>288.087</ele>
        <time>2013-05-20T14:27:06Z</time>
      </trkpt>
      <trkpt lat="42.900138" lon="-8.446837">
        <ele>290.093</ele>
        <time>2013-05-20T14:27:12Z</time>
      </trkpt>
      <trkpt lat="42.900038" lon="-8.446842">
        <ele>292.049</ele>
        <time>2013-05-20T14:27:21Z</time>
      </trkpt>
      <trkpt lat="42.899946" lon="-8.446867">
        <ele>295.012</ele>
        <time>2013-05-20T14:27:29Z</time>
      </trkpt>
      <trkpt lat="42.899877" lon="-8.446882">
        <ele>293.011</ele>
        <time>2013-05-20T14:27:39Z</time>
      </trkpt>
      <trkpt lat="42.899831" lon="-8.446824">
        <ele>293.090</ele>
        <time>2013-05-20T14:28:00Z</time>
      </trkpt>
      <trkpt lat="42.899791" lon="-8.446696">
        <ele>293.017</ele>
        <time>2013-05-20T14:28:05Z</time>
      </trkpt>
      <trkpt lat="42.899733" lon="-8.446600">
        <ele>294.087</ele>
        <time>2013-05-20T14:28:11Z</time>
      </trkpt>
      <trkpt lat="42.899736" lon="-8.446587">
        <ele>295.015</ele>
        <time>2013-05-20T14:28:41Z</time>
      </trkpt>
      <trkpt lat="42.899662" lon="-8.446537">
        <ele>296.007</ele>
        <time>2013-05-20T14:28:51Z</time>
      </trkpt>
      <trkpt lat="42.899595" lon="-8.446446">
        <ele>297.055</ele>
        <time>2013-05-20T14:28:55Z</time>
      </trkpt>
      <trkpt lat="42.899530" lon="-8.446331">
        <ele>296.076</ele>
        <time>2013-05-20T14:29:00Z</time>
      </trkpt>
      <trkpt lat="42.899493" lon="-8.446218">
        <ele>294.082</ele>
        <time>2013-05-20T14:29:06Z</time>
      </trkpt>
      <trkpt lat="42.899457" lon="-8.446109">
        <ele>298.048</ele>
        <time>2013-05-20T14:29:16Z</time>
      </trkpt>
      <trkpt lat="42.899421" lon="-8.445979">
        <ele>299.041</ele>
        <time>2013-05-20T14:29:22Z</time>
      </trkpt>
      <trkpt lat="42.899424" lon="-8.445864">
        <ele>301.050</ele>
        <time>2013-05-20T14:29:32Z</time>
      </trkpt>
      <trkpt lat="42.899389" lon="-8.445750">
        <ele>301.099</ele>
        <time>2013-05-20T14:29:40Z</time>
      </trkpt>
      <trkpt lat="42.899389" lon="-8.445614">
        <ele>301.098</ele>
        <time>2013-05-20T14:29:46Z</time>
      </trkpt>
      <trkpt lat="42.899419" lon="-8.445494">
        <ele>302.015</ele>
        <time>2013-05-20T14:29:54Z</time>
      </trkpt>
      <trkpt lat="42.899390" lon="-8.445354">
        <ele>304.026</ele>
        <time>2013-05-20T14:30:04Z</time>
      </trkpt>
      <trkpt lat="42.899355" lon="-8.445239">
        <ele>304.007</ele>
        <time>2013-05-20T14:30:09Z</time>
      </trkpt>
      <trkpt lat="42.899316" lon="-8.445162">
        <ele>305.023</ele>
        <time>2013-05-20T14:30:19Z</time>
      </trkpt>
      <trkpt lat="42.899258" lon="-8.445120">
        <ele>303.074</ele>
        <time>2013-05-20T14:30:47Z</time>
      </trkpt>
      <trkpt lat="42.899196" lon="-8.445008">
        <ele>308.070</ele>
        <time>2013-05-20T14:30:55Z</time>
      </trkpt>
      <trkpt lat="42.899173" lon="-8.444878">
        <ele>308.086</ele>
        <time>2013-05-20T14:31:00Z</time>
      </trkpt>
      <trkpt lat="42.899181" lon="-8.444882">
        <ele>304.039</ele>
        <time>2013-05-20T14:31:30Z</time>
      </trkpt>
      <trkpt lat="42.899181" lon="-8.444882">
        <ele>304.068</ele>
        <time>2013-05-20T14:32:00Z</time>
      </trkpt>
      <trkpt lat="42.899136" lon="-8.444870">
        <ele>304.047</ele>
        <time>2013-05-20T14:32:26Z</time>
      </trkpt>
      <trkpt lat="42.899049" lon="-8.444802">
        <ele>307.035</ele>
        <time>2013-05-20T14:32:32Z</time>
      </trkpt>
      <trkpt lat="42.898993" lon="-8.444694">
        <ele>303.086</ele>
        <time>2013-05-20T14:32:41Z</time>
      </trkpt>
      <trkpt lat="42.898897" lon="-8.444719">
        <ele>300.014</ele>
        <time>2013-05-20T14:32:49Z</time>
      </trkpt>
      <trkpt lat="42.898798" lon="-8.444695">
        <ele>298.007</ele>
        <time>2013-05-20T14:32:54Z</time>
      </trkpt>
      <trkpt lat="42.898708" lon="-8.444674">
        <ele>301.087</ele>
        <time>2013-05-20T14:33:01Z</time>
      </trkpt>
      <trkpt lat="42.898621" lon="-8.444603">
        <ele>299.098</ele>
        <time>2013-05-20T14:33:10Z</time>
      </trkpt>
      <trkpt lat="42.898530" lon="-8.444536">
        <ele>301.064</ele>
        <time>2013-05-20T14:33:17Z</time>
      </trkpt>
      <trkpt lat="42.898477" lon="-8.444429">
        <ele>300.050</ele>
        <time>2013-05-20T14:33:25Z</time>
      </trkpt>
      <trkpt lat="42.898492" lon="-8.444355">
        <ele>298.023</ele>
        <time>2013-05-20T14:33:35Z</time>
      </trkpt>
      <trkpt lat="42.898466" lon="-8.444296">
        <ele>300.092</ele>
        <time>2013-05-20T14:33:52Z</time>
      </trkpt>
      <trkpt lat="42.898387" lon="-8.444212">
        <ele>297.021</ele>
        <time>2013-05-20T14:33:56Z</time>
      </trkpt>
      <trkpt lat="42.898339" lon="-8.444339">
        <ele>294.059</ele>
        <time>2013-05-20T14:34:06Z</time>
      </trkpt>
      <trkpt lat="42.898294" lon="-8.444459">
        <ele>291.003</ele>
        <time>2013-05-20T14:34:14Z</time>
      </trkpt>
      <trkpt lat="42.898209" lon="-8.444478">
        <ele>302.023</ele>
        <time>2013-05-20T14:34:24Z</time>
      </trkpt>
      <trkpt lat="42.898158" lon="-8.444593">
        <ele>300.007</ele>
        <time>2013-05-20T14:34:30Z</time>
      </trkpt>
      <trkpt lat="42.898167" lon="-8.444716">
        <ele>295.089</ele>
        <time>2013-05-20T14:34:36Z</time>
      </trkpt>
      <trkpt lat="42.898177" lon="-8.444854">
        <ele>293.020</ele>
        <time>2013-05-20T14:34:44Z</time>
      </trkpt>
      <trkpt lat="42.898129" lon="-8.444970">
        <ele>295.056</ele>
        <time>2013-05-20T14:34:49Z</time>
      </trkpt>
      <trkpt lat="42.898070" lon="-8.445083">
        <ele>294.042</ele>
        <time>2013-05-20T14:34:55Z</time>
      </trkpt>
      <trkpt lat="42.898037" lon="-8.445209">
        <ele>294.055</ele>
        <time>2013-05-20T14:35:02Z</time>
      </trkpt>
      <trkpt lat="42.897985" lon="-8.445320">
        <ele>290.094</ele>
        <time>2013-05-20T14:35:08Z</time>
      </trkpt>
      <trkpt lat="42.897924" lon="-8.445423">
        <ele>291.013</ele>
        <time>2013-05-20T14:35:17Z</time>
      </trkpt>
      <trkpt lat="42.897843" lon="-8.445506">
        <ele>288.081</ele>
        <time>2013-05-20T14:35:26Z</time>
      </trkpt>
      <trkpt lat="42.897772" lon="-8.445605">
        <ele>286.061</ele>
        <time>2013-05-20T14:35:33Z</time>
      </trkpt>
      <trkpt lat="42.897704" lon="-8.445678">
        <ele>288.017</ele>
        <time>2013-05-20T14:35:43Z</time>
      </trkpt>
      <trkpt lat="42.897678" lon="-8.445748">
        <ele>290.007</ele>
        <time>2013-05-20T14:35:53Z</time>
      </trkpt>
      <trkpt lat="42.897643" lon="-8.445874">
        <ele>291.022</ele>
        <time>2013-05-20T14:35:59Z</time>
      </trkpt>
      <trkpt lat="42.897590" lon="-8.445993">
        <ele>291.013</ele>
        <time>2013-05-20T14:36:08Z</time>
      </trkpt>
      <trkpt lat="42.897528" lon="-8.446087">
        <ele>293.069</ele>
        <time>2013-05-20T14:36:15Z</time>
      </trkpt>
      <trkpt lat="42.897507" lon="-8.446211">
        <ele>295.045</ele>
        <time>2013-05-20T14:36:22Z</time>
      </trkpt>
      <trkpt lat="42.897489" lon="-8.446331">
        <ele>296.068</ele>
        <time>2013-05-20T14:36:32Z</time>
      </trkpt>
      <trkpt lat="42.897430" lon="-8.446474">
        <ele>295.067</ele>
        <time>2013-05-20T14:36:41Z</time>
      </trkpt>
      <trkpt lat="42.897377" lon="-8.446594">
        <ele>297.016</ele>
        <time>2013-05-20T14:36:50Z</time>
      </trkpt>
      <trkpt lat="42.897320" lon="-8.446698">
        <ele>300.051</ele>
        <time>2013-05-20T14:36:56Z</time>
      </trkpt>
      <trkpt lat="42.897266" lon="-8.446809">
        <ele>302.001</ele>
        <time>2013-05-20T14:37:05Z</time>
      </trkpt>
      <trkpt lat="42.897242" lon="-8.446870">
        <ele>302.011</ele>
        <time>2013-05-20T14:37:16Z</time>
      </trkpt>
      <trkpt lat="42.897242" lon="-8.446870">
        <ele>302.007</ele>
        <time>2013-05-20T14:37:45Z</time>
      </trkpt>
      <trkpt lat="42.897242" lon="-8.446870">
        <ele>302.029</ele>
        <time>2013-05-20T14:38:15Z</time>
      </trkpt>
      <trkpt lat="42.897242" lon="-8.446870">
        <ele>302.030</ele>
        <time>2013-05-20T14:38:45Z</time>
      </trkpt>
      <trkpt lat="42.897261" lon="-8.446872">
        <ele>307.066</ele>
        <time>2013-05-20T14:39:15Z</time>
      </trkpt>
      <trkpt lat="42.897251" lon="-8.447000">
        <ele>313.062</ele>
        <time>2013-05-20T14:39:23Z</time>
      </trkpt>
      <trkpt lat="42.897220" lon="-8.447124">
        <ele>312.035</ele>
        <time>2013-05-20T14:39:32Z</time>
      </trkpt>
      <trkpt lat="42.897211" lon="-8.447252">
        <ele>310.024</ele>
        <time>2013-05-20T14:39:42Z</time>
      </trkpt>
      <trkpt lat="42.897221" lon="-8.447325">
        <ele>309.063</ele>
        <time>2013-05-20T14:39:52Z</time>
      </trkpt>
      <trkpt lat="42.897152" lon="-8.447418">
        <ele>312.097</ele>
        <time>2013-05-20T14:39:58Z</time>
      </trkpt>
      <trkpt lat="42.897076" lon="-8.447473">
        <ele>313.023</ele>
        <time>2013-05-20T14:40:08Z</time>
      </trkpt>
      <trkpt lat="42.897018" lon="-8.447460">
        <ele>312.025</ele>
        <time>2013-05-20T14:40:26Z</time>
      </trkpt>
      <trkpt lat="42.896917" lon="-8.447489">
        <ele>312.007</ele>
        <time>2013-05-20T14:40:30Z</time>
      </trkpt>
      <trkpt lat="42.896825" lon="-8.447503">
        <ele>312.043</ele>
        <time>2013-05-20T14:40:34Z</time>
      </trkpt>
      <trkpt lat="42.896722" lon="-8.447505">
        <ele>314.054</ele>
        <time>2013-05-20T14:40:41Z</time>
      </trkpt>
      <trkpt lat="42.896631" lon="-8.447548">
        <ele>317.050</ele>
        <time>2013-05-20T14:40:46Z</time>
      </trkpt>
      <trkpt lat="42.896543" lon="-8.447581">
        <ele>316.016</ele>
        <time>2013-05-20T14:40:50Z</time>
      </trkpt>
      <trkpt lat="42.896465" lon="-8.447648">
        <ele>319.059</ele>
        <time>2013-05-20T14:40:55Z</time>
      </trkpt>
      <trkpt lat="42.896368" lon="-8.447640">
        <ele>322.098</ele>
        <time>2013-05-20T14:41:05Z</time>
      </trkpt>
      <trkpt lat="42.896287" lon="-8.447590">
        <ele>323.077</ele>
        <time>2013-05-20T14:41:15Z</time>
      </trkpt>
      <trkpt lat="42.896229" lon="-8.447559">
        <ele>327.077</ele>
        <time>2013-05-20T14:41:25Z</time>
      </trkpt>
      <trkpt lat="42.896140" lon="-8.447616">
        <ele>328.061</ele>
        <time>2013-05-20T14:41:32Z</time>
      </trkpt>
      <trkpt lat="42.896034" lon="-8.447617">
        <ele>325.027</ele>
        <time>2013-05-20T14:41:40Z</time>
      </trkpt>
      <trkpt lat="42.895931" lon="-8.447604">
        <ele>325.007</ele>
        <time>2013-05-20T14:41:45Z</time>
      </trkpt>
      <trkpt lat="42.895841" lon="-8.447647">
        <ele>327.081</ele>
        <time>2013-05-20T14:41:51Z</time>
      </trkpt>
      <trkpt lat="42.895772" lon="-8.447734">
        <ele>325.022</ele>
        <time>2013-05-20T14:41:59Z</time>
      </trkpt>
      <trkpt lat="42.895692" lon="-8.447772">
        <ele>326.048</ele>
        <time>2013-05-20T14:42:09Z</time>
      </trkpt>
      <trkpt lat="42.895597" lon="-8.447811">
        <ele>327.044</ele>
        <time>2013-05-20T14:42:15Z</time>
      </trkpt>
      <trkpt lat="42.895497" lon="-8.447813">
        <ele>321.087</ele>
        <time>2013-05-20T14:42:24Z</time>
      </trkpt>
      <trkpt lat="42.895396" lon="-8.447839">
        <ele>321.086</ele>
        <time>2013-05-20T14:42:31Z</time>
      </trkpt>
      <trkpt lat="42.895297" lon="-8.447813">
        <ele>323.075</ele>
        <time>2013-05-20T14:42:38Z</time>
      </trkpt>
      <trkpt lat="42.895195" lon="-8.447818">
        <ele>324.097</ele>
        <time>2013-05-20T14:42:47Z</time>
      </trkpt>
      <trkpt lat="42.895102" lon="-8.447799">
        <ele>325.023</ele>
        <time>2013-05-20T14:42:57Z</time>
      </trkpt>
      <trkpt lat="42.895024" lon="-8.447730">
        <ele>327.025</ele>
        <time>2013-05-20T14:43:04Z</time>
      </trkpt>
      <trkpt lat="42.895013" lon="-8.447628">
        <ele>326.007</ele>
        <time>2013-05-20T14:43:14Z</time>
      </trkpt>
      <trkpt lat="42.894946" lon="-8.447527">
        <ele>329.083</ele>
        <time>2013-05-20T14:43:21Z</time>
      </trkpt>
      <trkpt lat="42.894875" lon="-8.447440">
        <ele>331.024</ele>
        <time>2013-05-20T14:43:27Z</time>
      </trkpt>
      <trkpt lat="42.894835" lon="-8.447348">
        <ele>332.050</ele>
        <time>2013-05-20T14:43:37Z</time>
      </trkpt>
      <trkpt lat="42.894783" lon="-8.447247">
        <ele>331.096</ele>
        <time>2013-05-20T14:43:44Z</time>
      </trkpt>
      <trkpt lat="42.894701" lon="-8.447178">
        <ele>330.059</ele>
        <time>2013-05-20T14:43:50Z</time>
      </trkpt>
      <trkpt lat="42.894612" lon="-8.447145">
        <ele>332.098</ele>
        <time>2013-05-20T14:44:00Z</time>
      </trkpt>
      <trkpt lat="42.894518" lon="-8.447136">
        <ele>325.077</ele>
        <time>2013-05-20T14:44:10Z</time>
      </trkpt>
      <trkpt lat="42.894429" lon="-8.447148">
        <ele>323.012</ele>
        <time>2013-05-20T14:44:20Z</time>
      </trkpt>
      <trkpt lat="42.894341" lon="-8.447206">
        <ele>322.032</ele>
        <time>2013-05-20T14:44:29Z</time>
      </trkpt>
      <trkpt lat="42.894250" lon="-8.447234">
        <ele>331.005</ele>
        <time>2013-05-20T14:44:39Z</time>
      </trkpt>
      <trkpt lat="42.894195" lon="-8.447344">
        <ele>332.007</ele>
        <time>2013-05-20T14:44:47Z</time>
      </trkpt>
      <trkpt lat="42.894159" lon="-8.447459">
        <ele>328.025</ele>
        <time>2013-05-20T14:44:55Z</time>
      </trkpt>
      <trkpt lat="42.894093" lon="-8.447550">
        <ele>330.046</ele>
        <time>2013-05-20T14:45:03Z</time>
      </trkpt>
      <trkpt lat="42.894055" lon="-8.447669">
        <ele>335.032</ele>
        <time>2013-05-20T14:45:10Z</time>
      </trkpt>
      <trkpt lat="42.894006" lon="-8.447778">
        <ele>340.058</ele>
        <time>2013-05-20T14:45:20Z</time>
      </trkpt>
      <trkpt lat="42.893929" lon="-8.447845">
        <ele>343.041</ele>
        <time>2013-05-20T14:45:27Z</time>
      </trkpt>
      <trkpt lat="42.893825" lon="-8.447847">
        <ele>342.080</ele>
        <time>2013-05-20T14:45:36Z</time>
      </trkpt>
      <trkpt lat="42.893733" lon="-8.447918">
        <ele>339.039</ele>
        <time>2013-05-20T14:45:45Z</time>
      </trkpt>
      <trkpt lat="42.893675" lon="-8.447948">
        <ele>343.022</ele>
        <time>2013-05-20T14:45:55Z</time>
      </trkpt>
      <trkpt lat="42.893603" lon="-8.447939">
        <ele>336.062</ele>
        <time>2013-05-20T14:46:05Z</time>
      </trkpt>
      <trkpt lat="42.893532" lon="-8.448018">
        <ele>337.008</ele>
        <time>2013-05-20T14:46:13Z</time>
      </trkpt>
      <trkpt lat="42.893451" lon="-8.448063">
        <ele>338.007</ele>
        <time>2013-05-20T14:46:23Z</time>
      </trkpt>
      <trkpt lat="42.893363" lon="-8.448104">
        <ele>338.096</ele>
        <time>2013-05-20T14:46:31Z</time>
      </trkpt>
      <trkpt lat="42.893293" lon="-8.448189">
        <ele>341.067</ele>
        <time>2013-05-20T14:46:37Z</time>
      </trkpt>
      <trkpt lat="42.893208" lon="-8.448285">
        <ele>346.063</ele>
        <time>2013-05-20T14:46:43Z</time>
      </trkpt>
      <trkpt lat="42.893152" lon="-8.448403">
        <ele>346.089</ele>
        <time>2013-05-20T14:46:47Z</time>
      </trkpt>
      <trkpt lat="42.893110" lon="-8.448519">
        <ele>347.052</ele>
        <time>2013-05-20T14:46:54Z</time>
      </trkpt>
      <trkpt lat="42.893031" lon="-8.448589">
        <ele>351.011</ele>
        <time>2013-05-20T14:47:00Z</time>
      </trkpt>
      <trkpt lat="42.892980" lon="-8.448597">
        <ele>346.040</ele>
        <time>2013-05-20T14:47:10Z</time>
      </trkpt>
      <trkpt lat="42.892910" lon="-8.448683">
        <ele>346.061</ele>
        <time>2013-05-20T14:47:19Z</time>
      </trkpt>
      <trkpt lat="42.892842" lon="-8.448768">
        <ele>346.021</ele>
        <time>2013-05-20T14:47:27Z</time>
      </trkpt>
      <trkpt lat="42.892778" lon="-8.448856">
        <ele>343.013</ele>
        <time>2013-05-20T14:47:36Z</time>
      </trkpt>
      <trkpt lat="42.892689" lon="-8.448823">
        <ele>342.007</ele>
        <time>2013-05-20T14:47:42Z</time>
      </trkpt>
      <trkpt lat="42.892624" lon="-8.448937">
        <ele>341.010</ele>
        <time>2013-05-20T14:47:52Z</time>
      </trkpt>
      <trkpt lat="42.892554" lon="-8.449021">
        <ele>339.011</ele>
        <time>2013-05-20T14:47:59Z</time>
      </trkpt>
      <trkpt lat="42.892490" lon="-8.449121">
        <ele>339.047</ele>
        <time>2013-05-20T14:48:05Z</time>
      </trkpt>
      <trkpt lat="42.892490" lon="-8.449258">
        <ele>341.023</ele>
        <time>2013-05-20T14:48:13Z</time>
      </trkpt>
      <trkpt lat="42.892440" lon="-8.449327">
        <ele>338.046</ele>
        <time>2013-05-20T14:48:23Z</time>
      </trkpt>
      <trkpt lat="42.892386" lon="-8.449381">
        <ele>341.055</ele>
        <time>2013-05-20T14:48:36Z</time>
      </trkpt>
      <trkpt lat="42.892347" lon="-8.449504">
        <ele>340.054</ele>
        <time>2013-05-20T14:48:46Z</time>
      </trkpt>
      <trkpt lat="42.892319" lon="-8.449562">
        <ele>341.027</ele>
        <time>2013-05-20T14:49:05Z</time>
      </trkpt>
      <trkpt lat="42.892240" lon="-8.449634">
        <ele>339.068</ele>
        <time>2013-05-20T14:49:15Z</time>
      </trkpt>
      <trkpt lat="42.892166" lon="-8.449720">
        <ele>342.014</ele>
        <time>2013-05-20T14:49:21Z</time>
      </trkpt>
      <trkpt lat="42.892055" lon="-8.449780">
        <ele>346.007</ele>
        <time>2013-05-20T14:49:32Z</time>
      </trkpt>
      <trkpt lat="42.891962" lon="-8.449798">
        <ele>343.046</ele>
        <time>2013-05-20T14:49:41Z</time>
      </trkpt>
      <trkpt lat="42.891876" lon="-8.449817">
        <ele>353.057</ele>
        <time>2013-05-20T14:49:51Z</time>
      </trkpt>
      <trkpt lat="42.891768" lon="-8.449822">
        <ele>355.083</ele>
        <time>2013-05-20T14:49:59Z</time>
      </trkpt>
      <trkpt lat="42.891677" lon="-8.449826">
        <ele>356.099</ele>
        <time>2013-05-20T14:50:02Z</time>
      </trkpt>
      <trkpt lat="42.891579" lon="-8.449801">
        <ele>357.032</ele>
        <time>2013-05-20T14:50:07Z</time>
      </trkpt>
      <trkpt lat="42.891555" lon="-8.449719">
        <ele>355.011</ele>
        <time>2013-05-20T14:50:17Z</time>
      </trkpt>
      <trkpt lat="42.891530" lon="-8.449785">
        <ele>353.090</ele>
        <time>2013-05-20T14:50:28Z</time>
      </trkpt>
      <trkpt lat="42.891513" lon="-8.449918">
        <ele>350.064</ele>
        <time>2013-05-20T14:50:36Z</time>
      </trkpt>
      <trkpt lat="42.891490" lon="-8.450045">
        <ele>348.006</ele>
        <time>2013-05-20T14:50:43Z</time>
      </trkpt>
      <trkpt lat="42.891480" lon="-8.450168">
        <ele>347.016</ele>
        <time>2013-05-20T14:50:51Z</time>
      </trkpt>
      <trkpt lat="42.891466" lon="-8.450298">
        <ele>345.007</ele>
        <time>2013-05-20T14:50:59Z</time>
      </trkpt>
      <trkpt lat="42.891423" lon="-8.450417">
        <ele>345.070</ele>
        <time>2013-05-20T14:51:05Z</time>
      </trkpt>
      <trkpt lat="42.891445" lon="-8.450545">
        <ele>346.061</ele>
        <time>2013-05-20T14:51:14Z</time>
      </trkpt>
      <trkpt lat="42.891470" lon="-8.450674">
        <ele>345.067</ele>
        <time>2013-05-20T14:51:22Z</time>
      </trkpt>
      <trkpt lat="42.891442" lon="-8.450773">
        <ele>344.083</ele>
        <time>2013-05-20T14:51:32Z</time>
      </trkpt>
      <trkpt lat="42.891455" lon="-8.450906">
        <ele>343.036</ele>
        <time>2013-05-20T14:51:41Z</time>
      </trkpt>
      <trkpt lat="42.891442" lon="-8.451044">
        <ele>344.045</ele>
        <time>2013-05-20T14:51:50Z</time>
      </trkpt>
      <trkpt lat="42.891438" lon="-8.451178">
        <ele>344.094</ele>
        <time>2013-05-20T14:51:58Z</time>
      </trkpt>
      <trkpt lat="42.891433" lon="-8.451314">
        <ele>343.057</ele>
        <time>2013-05-20T14:52:06Z</time>
      </trkpt>
      <trkpt lat="42.891418" lon="-8.451440">
        <ele>345.000</ele>
        <time>2013-05-20T14:52:13Z</time>
      </trkpt>
      <trkpt lat="42.891419" lon="-8.451572">
        <ele>345.020</ele>
        <time>2013-05-20T14:52:21Z</time>
      </trkpt>
      <trkpt lat="42.891425" lon="-8.451695">
        <ele>344.007</ele>
        <time>2013-05-20T14:52:29Z</time>
      </trkpt>
      <trkpt lat="42.891410" lon="-8.451829">
        <ele>344.049</ele>
        <time>2013-05-20T14:52:38Z</time>
      </trkpt>
      <trkpt lat="42.891405" lon="-8.451953">
        <ele>344.040</ele>
        <time>2013-05-20T14:52:47Z</time>
      </trkpt>
      <trkpt lat="42.891397" lon="-8.452083">
        <ele>344.026</ele>
        <time>2013-05-20T14:52:56Z</time>
      </trkpt>
      <trkpt lat="42.891365" lon="-8.452204">
        <ele>343.012</ele>
        <time>2013-05-20T14:53:04Z</time>
      </trkpt>
      <trkpt lat="42.891348" lon="-8.452339">
        <ele>344.015</ele>
        <time>2013-05-20T14:53:12Z</time>
      </trkpt>
      <trkpt lat="42.891333" lon="-8.452463">
        <ele>346.044</ele>
        <time>2013-05-20T14:53:19Z</time>
      </trkpt>
      <trkpt lat="42.891307" lon="-8.452592">
        <ele>346.033</ele>
        <time>2013-05-20T14:53:28Z</time>
      </trkpt>
      <trkpt lat="42.891269" lon="-8.452698">
        <ele>350.027</ele>
        <time>2013-05-20T14:53:38Z</time>
      </trkpt>
      <trkpt lat="42.891192" lon="-8.452790">
        <ele>352.068</ele>
        <time>2013-05-20T14:53:47Z</time>
      </trkpt>
      <trkpt lat="42.891109" lon="-8.452873">
        <ele>350.014</ele>
        <time>2013-05-20T14:53:55Z</time>
      </trkpt>
      <trkpt lat="42.891057" lon="-8.452931">
        <ele>353.007</ele>
        <time>2013-05-20T14:54:05Z</time>
      </trkpt>
      <trkpt lat="42.891003" lon="-8.453044">
        <ele>357.086</ele>
        <time>2013-05-20T14:54:11Z</time>
      </trkpt>
      <trkpt lat="42.890965" lon="-8.453183">
        <ele>359.087</ele>
        <time>2013-05-20T14:54:19Z</time>
      </trkpt>
      <trkpt lat="42.890912" lon="-8.453307">
        <ele>359.053</ele>
        <time>2013-05-20T14:54:26Z</time>
      </trkpt>
      <trkpt lat="42.890933" lon="-8.453363">
        <ele>356.019</ele>
        <time>2013-05-20T14:54:38Z</time>
      </trkpt>
      <trkpt lat="42.890932" lon="-8.453488">
        <ele>353.052</ele>
        <time>2013-05-20T14:54:46Z</time>
      </trkpt>
      <trkpt lat="42.890939" lon="-8.453622">
        <ele>352.021</ele>
        <time>2013-05-20T14:54:53Z</time>
      </trkpt>
      <trkpt lat="42.890912" lon="-8.453701">
        <ele>354.040</ele>
        <time>2013-05-20T14:55:03Z</time>
      </trkpt>
      <trkpt lat="42.890920" lon="-8.453793">
        <ele>354.065</ele>
        <time>2013-05-20T14:55:13Z</time>
      </trkpt>
      <trkpt lat="42.890923" lon="-8.453918">
        <ele>357.068</ele>
        <time>2013-05-20T14:55:23Z</time>
      </trkpt>
      <trkpt lat="42.890914" lon="-8.454055">
        <ele>357.014</ele>
        <time>2013-05-20T14:55:29Z</time>
      </trkpt>
      <trkpt lat="42.890907" lon="-8.454199">
        <ele>359.007</ele>
        <time>2013-05-20T14:55:35Z</time>
      </trkpt>
      <trkpt lat="42.890883" lon="-8.454323">
        <ele>359.020</ele>
        <time>2013-05-20T14:55:42Z</time>
      </trkpt>
      <trkpt lat="42.890885" lon="-8.454447">
        <ele>360.031</ele>
        <time>2013-05-20T14:55:51Z</time>
      </trkpt>
      <trkpt lat="42.890865" lon="-8.454571">
        <ele>359.067</ele>
        <time>2013-05-20T14:55:58Z</time>
      </trkpt>
      <trkpt lat="42.890835" lon="-8.454696">
        <ele>360.063</ele>
        <time>2013-05-20T14:56:05Z</time>
      </trkpt>
      <trkpt lat="42.890779" lon="-8.454803">
        <ele>363.026</ele>
        <time>2013-05-20T14:56:13Z</time>
      </trkpt>
      <trkpt lat="42.890728" lon="-8.454934">
        <ele>369.055</ele>
        <time>2013-05-20T14:56:22Z</time>
      </trkpt>
      <trkpt lat="42.890668" lon="-8.455042">
        <ele>368.034</ele>
        <time>2013-05-20T14:56:28Z</time>
      </trkpt>
      <trkpt lat="42.890603" lon="-8.455147">
        <ele>372.044</ele>
        <time>2013-05-20T14:56:37Z</time>
      </trkpt>
      <trkpt lat="42.890545" lon="-8.455256">
        <ele>371.005</ele>
        <time>2013-05-20T14:56:44Z</time>
      </trkpt>
      <trkpt lat="42.890496" lon="-8.455355">
        <ele>369.015</ele>
        <time>2013-05-20T14:56:54Z</time>
      </trkpt>
      <trkpt lat="42.890499" lon="-8.455489">
        <ele>368.007</ele>
        <time>2013-05-20T14:57:04Z</time>
      </trkpt>
      <trkpt lat="42.890420" lon="-8.455571">
        <ele>367.068</ele>
        <time>2013-05-20T14:57:12Z</time>
      </trkpt>
      <trkpt lat="42.890355" lon="-8.455650">
        <ele>366.079</ele>
        <time>2013-05-20T14:57:22Z</time>
      </trkpt>
      <trkpt lat="42.890296" lon="-8.455701">
        <ele>361.055</ele>
        <time>2013-05-20T14:57:32Z</time>
      </trkpt>
      <trkpt lat="42.890250" lon="-8.455814">
        <ele>361.031</ele>
        <time>2013-05-20T14:57:39Z</time>
      </trkpt>
      <trkpt lat="42.890238" lon="-8.455946">
        <ele>364.054</ele>
        <time>2013-05-20T14:57:46Z</time>
      </trkpt>
      <trkpt lat="42.890212" lon="-8.456077">
        <ele>363.033</ele>
        <time>2013-05-20T14:57:53Z</time>
      </trkpt>
      <trkpt lat="42.890163" lon="-8.456191">
        <ele>362.012</ele>
        <time>2013-05-20T14:57:59Z</time>
      </trkpt>
      <trkpt lat="42.890088" lon="-8.456260">
        <ele>364.051</ele>
        <time>2013-05-20T14:58:04Z</time>
      </trkpt>
      <trkpt lat="42.890132" lon="-8.456395">
        <ele>361.001</ele>
        <time>2013-05-20T14:58:10Z</time>
      </trkpt>
      <trkpt lat="42.890179" lon="-8.456514">
        <ele>364.011</ele>
        <time>2013-05-20T14:58:18Z</time>
      </trkpt>
      <trkpt lat="42.890128" lon="-8.456618">
        <ele>365.007</ele>
        <time>2013-05-20T14:58:27Z</time>
      </trkpt>
      <trkpt lat="42.890125" lon="-8.456752">
        <ele>364.079</ele>
        <time>2013-05-20T14:58:34Z</time>
      </trkpt>
      <trkpt lat="42.890111" lon="-8.456851">
        <ele>363.040</ele>
        <time>2013-05-20T14:58:44Z</time>
      </trkpt>
      <trkpt lat="42.890077" lon="-8.456969">
        <ele>363.086</ele>
        <time>2013-05-20T14:58:52Z</time>
      </trkpt>
      <trkpt lat="42.890091" lon="-8.457096">
        <ele>364.072</ele>
        <time>2013-05-20T14:59:00Z</time>
      </trkpt>
      <trkpt lat="42.890097" lon="-8.457225">
        <ele>366.095</ele>
        <time>2013-05-20T14:59:09Z</time>
      </trkpt>
      <trkpt lat="42.890104" lon="-8.457357">
        <ele>365.044</ele>
        <time>2013-05-20T14:59:17Z</time>
      </trkpt>
      <trkpt lat="42.890126" lon="-8.457486">
        <ele>367.013</ele>
        <time>2013-05-20T14:59:25Z</time>
      </trkpt>
      <trkpt lat="42.890152" lon="-8.457613">
        <ele>366.021</ele>
        <time>2013-05-20T14:59:32Z</time>
      </trkpt>
      <trkpt lat="42.890194" lon="-8.457743">
        <ele>370.041</ele>
        <time>2013-05-20T14:59:41Z</time>
      </trkpt>
      <trkpt lat="42.890212" lon="-8.457866">
        <ele>370.005</ele>
        <time>2013-05-20T14:59:50Z</time>
      </trkpt>
      <trkpt lat="42.890242" lon="-8.457986">
        <ele>368.007</ele>
        <time>2013-05-20T14:59:57Z</time>
      </trkpt>
      <trkpt lat="42.890259" lon="-8.458112">
        <ele>367.066</ele>
        <time>2013-05-20T15:00:07Z</time>
      </trkpt>
      <trkpt lat="42.890260" lon="-8.458239">
        <ele>366.077</ele>
        <time>2013-05-20T15:00:17Z</time>
      </trkpt>
      <trkpt lat="42.890304" lon="-8.458366">
        <ele>368.013</ele>
        <time>2013-05-20T15:00:26Z</time>
      </trkpt>
      <trkpt lat="42.890358" lon="-8.458485">
        <ele>370.089</ele>
        <time>2013-05-20T15:00:34Z</time>
      </trkpt>
      <trkpt lat="42.890364" lon="-8.458606">
        <ele>370.092</ele>
        <time>2013-05-20T15:00:44Z</time>
      </trkpt>
      <trkpt lat="42.890365" lon="-8.458736">
        <ele>368.071</ele>
        <time>2013-05-20T15:00:52Z</time>
      </trkpt>
      <trkpt lat="42.890382" lon="-8.458857">
        <ele>368.010</ele>
        <time>2013-05-20T15:00:59Z</time>
      </trkpt>
      <trkpt lat="42.890421" lon="-8.458987">
        <ele>368.025</ele>
        <time>2013-05-20T15:01:09Z</time>
      </trkpt>
      <trkpt lat="42.890456" lon="-8.459112">
        <ele>371.026</ele>
        <time>2013-05-20T15:01:19Z</time>
      </trkpt>
      <trkpt lat="42.890431" lon="-8.459233">
        <ele>366.008</ele>
        <time>2013-05-20T15:01:27Z</time>
      </trkpt>
      <trkpt lat="42.890458" lon="-8.459356">
        <ele>368.007</ele>
        <time>2013-05-20T15:01:36Z</time>
      </trkpt>
      <trkpt lat="42.890523" lon="-8.459469">
        <ele>370.056</ele>
        <time>2013-05-20T15:01:44Z</time>
      </trkpt>
      <trkpt lat="42.890584" lon="-8.459568">
        <ele>372.057</ele>
        <time>2013-05-20T15:01:50Z</time>
      </trkpt>
      <trkpt lat="42.890571" lon="-8.459697">
        <ele>370.083</ele>
        <time>2013-05-20T15:01:59Z</time>
      </trkpt>
      <trkpt lat="42.890572" lon="-8.459820">
        <ele>371.089</ele>
        <time>2013-05-20T15:02:06Z</time>
      </trkpt>
      <trkpt lat="42.890563" lon="-8.459948">
        <ele>371.022</ele>
        <time>2013-05-20T15:02:14Z</time>
      </trkpt>
      <trkpt lat="42.890567" lon="-8.460069">
        <ele>372.091</ele>
        <time>2013-05-20T15:02:24Z</time>
      </trkpt>
      <trkpt lat="42.890570" lon="-8.460230">
        <ele>376.040</ele>
        <time>2013-05-20T15:02:37Z</time>
      </trkpt>
      <trkpt lat="42.890559" lon="-8.460306">
        <ele>377.012</ele>
        <time>2013-05-20T15:02:47Z</time>
      </trkpt>
      <trkpt lat="42.890553" lon="-8.460391">
        <ele>379.032</ele>
        <time>2013-05-20T15:02:57Z</time>
      </trkpt>
      <trkpt lat="42.890500" lon="-8.460499">
        <ele>382.005</ele>
        <time>2013-05-20T15:03:06Z</time>
      </trkpt>
      <trkpt lat="42.890451" lon="-8.460610">
        <ele>381.007</ele>
        <time>2013-05-20T15:03:10Z</time>
      </trkpt>
      <trkpt lat="42.890472" lon="-8.460731">
        <ele>381.035</ele>
        <time>2013-05-20T15:03:16Z</time>
      </trkpt>
      <trkpt lat="42.890527" lon="-8.460707">
        <ele>381.056</ele>
        <time>2013-05-20T15:03:26Z</time>
      </trkpt>
      <trkpt lat="42.890487" lon="-8.460683">
        <ele>384.082</ele>
        <time>2013-05-20T15:03:56Z</time>
      </trkpt>
      <trkpt lat="42.890463" lon="-8.460741">
        <ele>384.068</ele>
        <time>2013-05-20T15:04:14Z</time>
      </trkpt>
      <trkpt lat="42.890438" lon="-8.460879">
        <ele>388.061</ele>
        <time>2013-05-20T15:04:20Z</time>
      </trkpt>
      <trkpt lat="42.890424" lon="-8.461004">
        <ele>391.060</ele>
        <time>2013-05-20T15:04:25Z</time>
      </trkpt>
      <trkpt lat="42.890404" lon="-8.461136">
        <ele>393.089</ele>
        <time>2013-05-20T15:04:33Z</time>
      </trkpt>
      <trkpt lat="42.890375" lon="-8.461260">
        <ele>389.038</ele>
        <time>2013-05-20T15:04:43Z</time>
      </trkpt>
      <trkpt lat="42.890340" lon="-8.461381">
        <ele>388.070</ele>
        <time>2013-05-20T15:04:54Z</time>
      </trkpt>
      <trkpt lat="42.890303" lon="-8.461503">
        <ele>385.017</ele>
        <time>2013-05-20T15:05:01Z</time>
      </trkpt>
      <trkpt lat="42.890344" lon="-8.461598">
        <ele>385.007</ele>
        <time>2013-05-20T15:05:11Z</time>
      </trkpt>
      <trkpt lat="42.890394" lon="-8.461714">
        <ele>384.067</ele>
        <time>2013-05-20T15:05:20Z</time>
      </trkpt>
      <trkpt lat="42.890394" lon="-8.461851">
        <ele>384.038</ele>
        <time>2013-05-20T15:05:26Z</time>
      </trkpt>
      <trkpt lat="42.890357" lon="-8.461982">
        <ele>383.024</ele>
        <time>2013-05-20T15:05:33Z</time>
      </trkpt>
      <trkpt lat="42.890345" lon="-8.462105">
        <ele>382.020</ele>
        <time>2013-05-20T15:05:39Z</time>
      </trkpt>
      <trkpt lat="42.890318" lon="-8.462244">
        <ele>379.083</ele>
        <time>2013-05-20T15:05:47Z</time>
      </trkpt>
      <trkpt lat="42.890331" lon="-8.462371">
        <ele>380.042</ele>
        <time>2013-05-20T15:05:54Z</time>
      </trkpt>
      <trkpt lat="42.890355" lon="-8.462509">
        <ele>381.071</ele>
        <time>2013-05-20T15:06:04Z</time>
      </trkpt>
      <trkpt lat="42.890345" lon="-8.462645">
        <ele>379.055</ele>
        <time>2013-05-20T15:06:13Z</time>
      </trkpt>
      <trkpt lat="42.890358" lon="-8.462734">
        <ele>381.007</ele>
        <time>2013-05-20T15:06:23Z</time>
      </trkpt>
      <trkpt lat="42.890345" lon="-8.462859">
        <ele>379.017</ele>
        <time>2013-05-20T15:06:29Z</time>
      </trkpt>
      <trkpt lat="42.890324" lon="-8.462957">
        <ele>380.007</ele>
        <time>2013-05-20T15:06:39Z</time>
      </trkpt>
      <trkpt lat="42.890327" lon="-8.463088">
        <ele>380.029</ele>
        <time>2013-05-20T15:06:48Z</time>
      </trkpt>
      <trkpt lat="42.890334" lon="-8.463214">
        <ele>379.060</ele>
        <time>2013-05-20T15:06:54Z</time>
      </trkpt>
      <trkpt lat="42.890341" lon="-8.463356">
        <ele>381.096</ele>
        <time>2013-05-20T15:07:01Z</time>
      </trkpt>
      <trkpt lat="42.890388" lon="-8.463470">
        <ele>385.082</ele>
        <time>2013-05-20T15:07:06Z</time>
      </trkpt>
      <trkpt lat="42.890368" lon="-8.463603">
        <ele>384.055</ele>
        <time>2013-05-20T15:07:14Z</time>
      </trkpt>
      <trkpt lat="42.890364" lon="-8.463736">
        <ele>380.054</ele>
        <time>2013-05-20T15:07:22Z</time>
      </trkpt>
      <trkpt lat="42.890345" lon="-8.463856">
        <ele>379.093</ele>
        <time>2013-05-20T15:07:32Z</time>
      </trkpt>
      <trkpt lat="42.890389" lon="-8.463969">
        <ele>379.016</ele>
        <time>2013-05-20T15:07:39Z</time>
      </trkpt>
      <trkpt lat="42.890425" lon="-8.464093">
        <ele>381.076</ele>
        <time>2013-05-20T15:07:48Z</time>
      </trkpt>
      <trkpt lat="42.890465" lon="-8.464209">
        <ele>381.013</ele>
        <time>2013-05-20T15:07:54Z</time>
      </trkpt>
      <trkpt lat="42.890520" lon="-8.464339">
        <ele>380.007</ele>
        <time>2013-05-20T15:08:01Z</time>
      </trkpt>
      <trkpt lat="42.890579" lon="-8.464454">
        <ele>383.075</ele>
        <time>2013-05-20T15:08:06Z</time>
      </trkpt>
      <trkpt lat="42.890589" lon="-8.464589">
        <ele>387.096</ele>
        <time>2013-05-20T15:08:14Z</time>
      </trkpt>
      <trkpt lat="42.890598" lon="-8.464683">
        <ele>388.012</ele>
        <time>2013-05-20T15:08:24Z</time>
      </trkpt>
      <trkpt lat="42.890615" lon="-8.464811">
        <ele>389.058</ele>
        <time>2013-05-20T15:08:32Z</time>
      </trkpt>
      <trkpt lat="42.890613" lon="-8.464950">
        <ele>390.051</ele>
        <time>2013-05-20T15:08:42Z</time>
      </trkpt>
      <trkpt lat="42.890642" lon="-8.465073">
        <ele>389.060</ele>
        <time>2013-05-20T15:08:49Z</time>
      </trkpt>
      <trkpt lat="42.890660" lon="-8.465197">
        <ele>390.049</ele>
        <time>2013-05-20T15:08:57Z</time>
      </trkpt>
      <trkpt lat="42.890693" lon="-8.465319">
        <ele>391.048</ele>
        <time>2013-05-20T15:09:03Z</time>
      </trkpt>
      <trkpt lat="42.890742" lon="-8.465429">
        <ele>390.061</ele>
        <time>2013-05-20T15:09:10Z</time>
      </trkpt>
      <trkpt lat="42.890760" lon="-8.465570">
        <ele>389.017</ele>
        <time>2013-05-20T15:09:19Z</time>
      </trkpt>
      <trkpt lat="42.890751" lon="-8.465703">
        <ele>387.007</ele>
        <time>2013-05-20T15:09:27Z</time>
      </trkpt>
      <trkpt lat="42.890746" lon="-8.465841">
        <ele>387.068</ele>
        <time>2013-05-20T15:09:34Z</time>
      </trkpt>
      <trkpt lat="42.890748" lon="-8.465970">
        <ele>384.099</ele>
        <time>2013-05-20T15:09:41Z</time>
      </trkpt>
      <trkpt lat="42.890748" lon="-8.466094">
        <ele>385.085</ele>
        <time>2013-05-20T15:09:50Z</time>
      </trkpt>
      <trkpt lat="42.890775" lon="-8.466214">
        <ele>384.021</ele>
        <time>2013-05-20T15:10:00Z</time>
      </trkpt>
      <trkpt lat="42.890801" lon="-8.466338">
        <ele>384.054</ele>
        <time>2013-05-20T15:10:06Z</time>
      </trkpt>
      <trkpt lat="42.890814" lon="-8.466468">
        <ele>384.033</ele>
        <time>2013-05-20T15:10:13Z</time>
      </trkpt>
      <trkpt lat="42.890847" lon="-8.466592">
        <ele>385.042</ele>
        <time>2013-05-20T15:10:23Z</time>
      </trkpt>
      <trkpt lat="42.890864" lon="-8.466714">
        <ele>388.092</ele>
        <time>2013-05-20T15:10:32Z</time>
      </trkpt>
      <trkpt lat="42.890864" lon="-8.466842">
        <ele>389.073</ele>
        <time>2013-05-20T15:10:41Z</time>
      </trkpt>
      <trkpt lat="42.890874" lon="-8.466976">
        <ele>387.020</ele>
        <time>2013-05-20T15:10:47Z</time>
      </trkpt>
      <trkpt lat="42.890898" lon="-8.467112">
        <ele>383.007</ele>
        <time>2013-05-20T15:10:55Z</time>
      </trkpt>
      <trkpt lat="42.890942" lon="-8.467227">
        <ele>387.043</ele>
        <time>2013-05-20T15:11:01Z</time>
      </trkpt>
      <trkpt lat="42.890976" lon="-8.467343">
        <ele>388.064</ele>
        <time>2013-05-20T15:11:10Z</time>
      </trkpt>
      <trkpt lat="42.890949" lon="-8.467470">
        <ele>386.010</ele>
        <time>2013-05-20T15:11:19Z</time>
      </trkpt>
      <trkpt lat="42.890924" lon="-8.467592">
        <ele>384.086</ele>
        <time>2013-05-20T15:11:24Z</time>
      </trkpt>
      <trkpt lat="42.890955" lon="-8.467724">
        <ele>382.029</ele>
        <time>2013-05-20T15:11:33Z</time>
      </trkpt>
      <trkpt lat="42.890957" lon="-8.467856">
        <ele>384.058</ele>
        <time>2013-05-20T15:11:41Z</time>
      </trkpt>
      <trkpt lat="42.890982" lon="-8.467987">
        <ele>383.017</ele>
        <time>2013-05-20T15:11:48Z</time>
      </trkpt>
      <trkpt lat="42.891003" lon="-8.468081">
        <ele>384.056</ele>
        <time>2013-05-20T15:11:58Z</time>
      </trkpt>
      <trkpt lat="42.891022" lon="-8.468221">
        <ele>387.059</ele>
        <time>2013-05-20T15:12:08Z</time>
      </trkpt>
      <trkpt lat="42.891052" lon="-8.468347">
        <ele>390.014</ele>
        <time>2013-05-20T15:12:15Z</time>
      </trkpt>
      <trkpt lat="42.891068" lon="-8.468473">
        <ele>385.007</ele>
        <time>2013-05-20T15:12:22Z</time>
      </trkpt>
      <trkpt lat="42.891121" lon="-8.468586">
        <ele>385.049</ele>
        <time>2013-05-20T15:12:28Z</time>
      </trkpt>
      <trkpt lat="42.891152" lon="-8.468706">
        <ele>390.090</ele>
        <time>2013-05-20T15:12:34Z</time>
      </trkpt>
      <trkpt lat="42.891212" lon="-8.468819">
        <ele>394.086</ele>
        <time>2013-05-20T15:12:38Z</time>
      </trkpt>
      <trkpt lat="42.891240" lon="-8.468949">
        <ele>392.072</ele>
        <time>2013-05-20T15:12:48Z</time>
      </trkpt>
      <trkpt lat="42.891252" lon="-8.469053">
        <ele>390.065</ele>
        <time>2013-05-20T15:12:58Z</time>
      </trkpt>
      <trkpt lat="42.891281" lon="-8.469186">
        <ele>388.064</ele>
        <time>2013-05-20T15:13:07Z</time>
      </trkpt>
      <trkpt lat="42.891297" lon="-8.469321">
        <ele>388.083</ele>
        <time>2013-05-20T15:13:15Z</time>
      </trkpt>
      <trkpt lat="42.891311" lon="-8.469459">
        <ele>391.041</ele>
        <time>2013-05-20T15:13:23Z</time>
      </trkpt>
      <trkpt lat="42.891343" lon="-8.469590">
        <ele>394.081</ele>
        <time>2013-05-20T15:13:32Z</time>
      </trkpt>
      <trkpt lat="42.891413" lon="-8.469697">
        <ele>395.009</ele>
        <time>2013-05-20T15:13:37Z</time>
      </trkpt>
      <trkpt lat="42.891443" lon="-8.469817">
        <ele>394.007</ele>
        <time>2013-05-20T15:13:44Z</time>
      </trkpt>
      <trkpt lat="42.891408" lon="-8.469951">
        <ele>395.038</ele>
        <time>2013-05-20T15:13:53Z</time>
      </trkpt>
      <trkpt lat="42.891420" lon="-8.470081">
        <ele>394.059</ele>
        <time>2013-05-20T15:14:00Z</time>
      </trkpt>
      <trkpt lat="42.891442" lon="-8.470213">
        <ele>393.095</ele>
        <time>2013-05-20T15:14:08Z</time>
      </trkpt>
      <trkpt lat="42.891457" lon="-8.470341">
        <ele>395.021</ele>
        <time>2013-05-20T15:14:16Z</time>
      </trkpt>
      <trkpt lat="42.891489" lon="-8.470457">
        <ele>399.054</ele>
        <time>2013-05-20T15:14:24Z</time>
      </trkpt>
      <trkpt lat="42.891448" lon="-8.470569">
        <ele>396.033</ele>
        <time>2013-05-20T15:14:34Z</time>
      </trkpt>
      <trkpt lat="42.891417" lon="-8.470704">
        <ele>396.082</ele>
        <time>2013-05-20T15:14:42Z</time>
      </trkpt>
      <trkpt lat="42.891419" lon="-8.470831">
        <ele>392.083</ele>
        <time>2013-05-20T15:14:50Z</time>
      </trkpt>
      <trkpt lat="42.891419" lon="-8.470968">
        <ele>386.025</ele>
        <time>2013-05-20T15:14:59Z</time>
      </trkpt>
      <trkpt lat="42.891464" lon="-8.471085">
        <ele>387.017</ele>
        <time>2013-05-20T15:15:08Z</time>
      </trkpt>
      <trkpt lat="42.891460" lon="-8.471212">
        <ele>384.007</ele>
        <time>2013-05-20T15:15:15Z</time>
      </trkpt>
      <trkpt lat="42.891510" lon="-8.471336">
        <ele>385.062</ele>
        <time>2013-05-20T15:15:22Z</time>
      </trkpt>
      <trkpt lat="42.891519" lon="-8.471466">
        <ele>382.083</ele>
        <time>2013-05-20T15:15:31Z</time>
      </trkpt>
      <trkpt lat="42.891504" lon="-8.471603">
        <ele>382.099</ele>
        <time>2013-05-20T15:15:39Z</time>
      </trkpt>
      <trkpt lat="42.891567" lon="-8.471711">
        <ele>384.055</ele>
        <time>2013-05-20T15:15:46Z</time>
      </trkpt>
      <trkpt lat="42.891583" lon="-8.471839">
        <ele>385.098</ele>
        <time>2013-05-20T15:15:54Z</time>
      </trkpt>
      <trkpt lat="42.891613" lon="-8.471968">
        <ele>382.037</ele>
        <time>2013-05-20T15:16:02Z</time>
      </trkpt>
      <trkpt lat="42.891609" lon="-8.472129">
        <ele>378.096</ele>
        <time>2013-05-20T15:16:14Z</time>
      </trkpt>
      <trkpt lat="42.891621" lon="-8.472254">
        <ele>373.029</ele>
        <time>2013-05-20T15:16:22Z</time>
      </trkpt>
      <trkpt lat="42.891643" lon="-8.472381">
        <ele>379.000</ele>
        <time>2013-05-20T15:16:30Z</time>
      </trkpt>
      <trkpt lat="42.891665" lon="-8.472512">
        <ele>380.020</ele>
        <time>2013-05-20T15:16:39Z</time>
      </trkpt>
      <trkpt lat="42.891664" lon="-8.472642">
        <ele>384.007</ele>
        <time>2013-05-20T15:16:46Z</time>
      </trkpt>
      <trkpt lat="42.891700" lon="-8.472790">
        <ele>384.056</ele>
        <time>2013-05-20T15:16:55Z</time>
      </trkpt>
      <trkpt lat="42.891717" lon="-8.472923">
        <ele>384.077</ele>
        <time>2013-05-20T15:17:02Z</time>
      </trkpt>
      <trkpt lat="42.891703" lon="-8.473011">
        <ele>383.073</ele>
        <time>2013-05-20T15:17:12Z</time>
      </trkpt>
      <trkpt lat="42.891719" lon="-8.473151">
        <ele>383.039</ele>
        <time>2013-05-20T15:17:17Z</time>
      </trkpt>
      <trkpt lat="42.891736" lon="-8.473281">
        <ele>383.032</ele>
        <time>2013-05-20T15:17:23Z</time>
      </trkpt>
      <trkpt lat="42.891735" lon="-8.473409">
        <ele>384.051</ele>
        <time>2013-05-20T15:17:29Z</time>
      </trkpt>
      <trkpt lat="42.891736" lon="-8.473539">
        <ele>382.020</ele>
        <time>2013-05-20T15:17:36Z</time>
      </trkpt>
      <trkpt lat="42.891759" lon="-8.473625">
        <ele>378.055</ele>
        <time>2013-05-20T15:17:46Z</time>
      </trkpt>
      <trkpt lat="42.891771" lon="-8.473753">
        <ele>383.007</ele>
        <time>2013-05-20T15:17:51Z</time>
      </trkpt>
      <trkpt lat="42.891785" lon="-8.473880">
        <ele>382.017</ele>
        <time>2013-05-20T15:17:59Z</time>
      </trkpt>
      <trkpt lat="42.891835" lon="-8.474006">
        <ele>375.007</ele>
        <time>2013-05-20T15:18:09Z</time>
      </trkpt>
      <trkpt lat="42.891794" lon="-8.474124">
        <ele>375.079</ele>
        <time>2013-05-20T15:18:14Z</time>
      </trkpt>
      <trkpt lat="42.891839" lon="-8.474253">
        <ele>374.070</ele>
        <time>2013-05-20T15:18:24Z</time>
      </trkpt>
      <trkpt lat="42.891864" lon="-8.474385">
        <ele>376.026</ele>
        <time>2013-05-20T15:18:32Z</time>
      </trkpt>
      <trkpt lat="42.891902" lon="-8.474509">
        <ele>374.072</ele>
        <time>2013-05-20T15:18:41Z</time>
      </trkpt>
      <trkpt lat="42.891920" lon="-8.474630">
        <ele>378.075</ele>
        <time>2013-05-20T15:18:49Z</time>
      </trkpt>
      <trkpt lat="42.891919" lon="-8.474757">
        <ele>380.024</ele>
        <time>2013-05-20T15:18:55Z</time>
      </trkpt>
      <trkpt lat="42.891926" lon="-8.474882">
        <ele>378.013</ele>
        <time>2013-05-20T15:19:03Z</time>
      </trkpt>
      <trkpt lat="42.891948" lon="-8.475011">
        <ele>377.052</ele>
        <time>2013-05-20T15:19:12Z</time>
      </trkpt>
      <trkpt lat="42.891966" lon="-8.475137">
        <ele>377.053</ele>
        <time>2013-05-20T15:19:19Z</time>
      </trkpt>
      <trkpt lat="42.891994" lon="-8.475272">
        <ele>380.008</ele>
        <time>2013-05-20T15:19:25Z</time>
      </trkpt>
      <trkpt lat="42.892012" lon="-8.475401">
        <ele>379.007</ele>
        <time>2013-05-20T15:19:31Z</time>
      </trkpt>
      <trkpt lat="42.892029" lon="-8.475523">
        <ele>380.029</ele>
        <time>2013-05-20T15:19:38Z</time>
      </trkpt>
      <trkpt lat="42.892054" lon="-8.475645">
        <ele>381.080</ele>
        <time>2013-05-20T15:19:48Z</time>
      </trkpt>
      <trkpt lat="42.892072" lon="-8.475770">
        <ele>380.096</ele>
        <time>2013-05-20T15:19:56Z</time>
      </trkpt>
      <trkpt lat="42.892105" lon="-8.475891">
        <ele>379.032</ele>
        <time>2013-05-20T15:20:03Z</time>
      </trkpt>
      <trkpt lat="42.892090" lon="-8.476026">
        <ele>377.095</ele>
        <time>2013-05-20T15:20:12Z</time>
      </trkpt>
      <trkpt lat="42.892087" lon="-8.476145">
        <ele>370.024</ele>
        <time>2013-05-20T15:20:22Z</time>
      </trkpt>
      <trkpt lat="42.892119" lon="-8.476263">
        <ele>375.023</ele>
        <time>2013-05-20T15:20:28Z</time>
      </trkpt>
      <trkpt lat="42.892131" lon="-8.476388">
        <ele>376.019</ele>
        <time>2013-05-20T15:20:33Z</time>
      </trkpt>
      <trkpt lat="42.892197" lon="-8.476489">
        <ele>374.009</ele>
        <time>2013-05-20T15:20:40Z</time>
      </trkpt>
      <trkpt lat="42.892206" lon="-8.476581">
        <ele>378.019</ele>
        <time>2013-05-20T15:20:50Z</time>
      </trkpt>
      <trkpt lat="42.892176" lon="-8.476525">
        <ele>376.007</ele>
        <time>2013-05-20T15:21:00Z</time>
      </trkpt>
      <trkpt lat="42.892086" lon="-8.476466">
        <ele>383.045</ele>
        <time>2013-05-20T15:21:09Z</time>
      </trkpt>
      <trkpt lat="42.892004" lon="-8.476430">
        <ele>385.086</ele>
        <time>2013-05-20T15:21:19Z</time>
      </trkpt>
      <trkpt lat="42.891910" lon="-8.476406">
        <ele>384.082</ele>
        <time>2013-05-20T15:21:26Z</time>
      </trkpt>
      <trkpt lat="42.891819" lon="-8.476370">
        <ele>383.028</ele>
        <time>2013-05-20T15:21:35Z</time>
      </trkpt>
      <trkpt lat="42.891728" lon="-8.476388">
        <ele>375.081</ele>
        <time>2013-05-20T15:21:40Z</time>
      </trkpt>
      <trkpt lat="42.891634" lon="-8.476349">
        <ele>374.060</ele>
        <time>2013-05-20T15:21:48Z</time>
      </trkpt>
      <trkpt lat="42.891537" lon="-8.476316">
        <ele>377.069</ele>
        <time>2013-05-20T15:21:56Z</time>
      </trkpt>
      <trkpt lat="42.891445" lon="-8.476345">
        <ele>382.012</ele>
        <time>2013-05-20T15:22:03Z</time>
      </trkpt>
      <trkpt lat="42.891362" lon="-8.476302">
        <ele>382.032</ele>
        <time>2013-05-20T15:22:13Z</time>
      </trkpt>
      <trkpt lat="42.891259" lon="-8.476305">
        <ele>383.005</ele>
        <time>2013-05-20T15:22:18Z</time>
      </trkpt>
      <trkpt lat="42.891174" lon="-8.476234">
        <ele>383.007</ele>
        <time>2013-05-20T15:22:27Z</time>
      </trkpt>
      <trkpt lat="42.891076" lon="-8.476205">
        <ele>383.045</ele>
        <time>2013-05-20T15:22:36Z</time>
      </trkpt>
      <trkpt lat="42.891001" lon="-8.476170">
        <ele>382.056</ele>
        <time>2013-05-20T15:22:46Z</time>
      </trkpt>
      <trkpt lat="42.890907" lon="-8.476180">
        <ele>387.012</ele>
        <time>2013-05-20T15:22:54Z</time>
      </trkpt>
      <trkpt lat="42.890812" lon="-8.476178">
        <ele>386.088</ele>
        <time>2013-05-20T15:23:00Z</time>
      </trkpt>
      <trkpt lat="42.890720" lon="-8.476195">
        <ele>389.081</ele>
        <time>2013-05-20T15:23:06Z</time>
      </trkpt>
      <trkpt lat="42.890617" lon="-8.476214">
        <ele>382.010</ele>
        <time>2013-05-20T15:23:12Z</time>
      </trkpt>
      <trkpt lat="42.890536" lon="-8.476219">
        <ele>382.069</ele>
        <time>2013-05-20T15:23:22Z</time>
      </trkpt>
      <trkpt lat="42.890480" lon="-8.476319">
        <ele>381.067</ele>
        <time>2013-05-20T15:23:32Z</time>
      </trkpt>
      <trkpt lat="42.890485" lon="-8.476415">
        <ele>378.081</ele>
        <time>2013-05-20T15:23:42Z</time>
      </trkpt>
      <trkpt lat="42.890460" lon="-8.476547">
        <ele>377.019</ele>
        <time>2013-05-20T15:23:48Z</time>
      </trkpt>
      <trkpt lat="42.890478" lon="-8.476686">
        <ele>379.007</ele>
        <time>2013-05-20T15:23:55Z</time>
      </trkpt>
      <trkpt lat="42.890496" lon="-8.476816">
        <ele>378.020</ele>
        <time>2013-05-20T15:24:01Z</time>
      </trkpt>
      <trkpt lat="42.890491" lon="-8.476959">
        <ele>376.051</ele>
        <time>2013-05-20T15:24:11Z</time>
      </trkpt>
      <trkpt lat="42.890495" lon="-8.477095">
        <ele>373.017</ele>
        <time>2013-05-20T15:24:19Z</time>
      </trkpt>
      <trkpt lat="42.890514" lon="-8.477235">
        <ele>376.033</ele>
        <time>2013-05-20T15:24:27Z</time>
      </trkpt>
      <trkpt lat="42.890517" lon="-8.477364">
        <ele>374.096</ele>
        <time>2013-05-20T15:24:34Z</time>
      </trkpt>
      <trkpt lat="42.890520" lon="-8.477512">
        <ele>369.075</ele>
        <time>2013-05-20T15:24:43Z</time>
      </trkpt>
      <trkpt lat="42.890519" lon="-8.477643">
        <ele>369.074</ele>
        <time>2013-05-20T15:24:50Z</time>
      </trkpt>
      <trkpt lat="42.890520" lon="-8.477783">
        <ele>373.051</ele>
        <time>2013-05-20T15:24:58Z</time>
      </trkpt>
      <trkpt lat="42.890509" lon="-8.477916">
        <ele>369.001</ele>
        <time>2013-05-20T15:25:06Z</time>
      </trkpt>
      <trkpt lat="42.890521" lon="-8.478055">
        <ele>371.011</ele>
        <time>2013-05-20T15:25:16Z</time>
      </trkpt>
      <trkpt lat="42.890512" lon="-8.478188">
        <ele>368.007</ele>
        <time>2013-05-20T15:25:23Z</time>
      </trkpt>
      <trkpt lat="42.890518" lon="-8.478325">
        <ele>368.029</ele>
        <time>2013-05-20T15:25:33Z</time>
      </trkpt>
      <trkpt lat="42.890498" lon="-8.478459">
        <ele>367.060</ele>
        <time>2013-05-20T15:25:42Z</time>
      </trkpt>
      <trkpt lat="42.890526" lon="-8.478586">
        <ele>367.056</ele>
        <time>2013-05-20T15:25:50Z</time>
      </trkpt>
      <trkpt lat="42.890533" lon="-8.478701">
        <ele>360.032</ele>
        <time>2013-05-20T15:26:00Z</time>
      </trkpt>
      <trkpt lat="42.890510" lon="-8.478820">
        <ele>361.085</ele>
        <time>2013-05-20T15:26:06Z</time>
      </trkpt>
      <trkpt lat="42.890520" lon="-8.478953">
        <ele>361.064</ele>
        <time>2013-05-20T15:26:12Z</time>
      </trkpt>
      <trkpt lat="42.890533" lon="-8.479080">
        <ele>363.023</ele>
        <time>2013-05-20T15:26:19Z</time>
      </trkpt>
      <trkpt lat="42.890538" lon="-8.479211">
        <ele>356.014</ele>
        <time>2013-05-20T15:26:29Z</time>
      </trkpt>
      <trkpt lat="42.890537" lon="-8.479341">
        <ele>355.054</ele>
        <time>2013-05-20T15:26:38Z</time>
      </trkpt>
      <trkpt lat="42.890538" lon="-8.479471">
        <ele>357.009</ele>
        <time>2013-05-20T15:26:45Z</time>
      </trkpt>
      <trkpt lat="42.890550" lon="-8.479603">
        <ele>358.007</ele>
        <time>2013-05-20T15:26:53Z</time>
      </trkpt>
      <trkpt lat="42.890557" lon="-8.479737">
        <ele>360.075</ele>
        <time>2013-05-20T15:27:03Z</time>
      </trkpt>
      <trkpt lat="42.890539" lon="-8.479867">
        <ele>361.036</ele>
        <time>2013-05-20T15:27:09Z</time>
      </trkpt>
      <trkpt lat="42.890571" lon="-8.479992">
        <ele>363.012</ele>
        <time>2013-05-20T15:27:15Z</time>
      </trkpt>
      <trkpt lat="42.890559" lon="-8.480125">
        <ele>363.018</ele>
        <time>2013-05-20T15:27:22Z</time>
      </trkpt>
      <trkpt lat="42.890535" lon="-8.480265">
        <ele>366.071</ele>
        <time>2013-05-20T15:27:31Z</time>
      </trkpt>
      <trkpt lat="42.890528" lon="-8.480395">
        <ele>363.090</ele>
        <time>2013-05-20T15:27:41Z</time>
      </trkpt>
      <trkpt lat="42.890536" lon="-8.480531">
        <ele>369.059</ele>
        <time>2013-05-20T15:27:49Z</time>
      </trkpt>
      <trkpt lat="42.890553" lon="-8.480660">
        <ele>371.078</ele>
        <time>2013-05-20T15:27:56Z</time>
      </trkpt>
      <trkpt lat="42.890565" lon="-8.480786">
        <ele>374.033</ele>
        <time>2013-05-20T15:28:04Z</time>
      </trkpt>
      <trkpt lat="42.890570" lon="-8.480911">
        <ele>372.026</ele>
        <time>2013-05-20T15:28:11Z</time>
      </trkpt>
      <trkpt lat="42.890585" lon="-8.481042">
        <ele>375.007</ele>
        <time>2013-05-20T15:28:21Z</time>
      </trkpt>
      <trkpt lat="42.890582" lon="-8.481165">
        <ele>373.061</ele>
        <time>2013-05-20T15:28:28Z</time>
      </trkpt>
      <trkpt lat="42.890589" lon="-8.481292">
        <ele>376.042</ele>
        <time>2013-05-20T15:28:38Z</time>
      </trkpt>
      <trkpt lat="42.890597" lon="-8.481422">
        <ele>375.088</ele>
        <time>2013-05-20T15:28:46Z</time>
      </trkpt>
      <trkpt lat="42.890633" lon="-8.481554">
        <ele>373.084</ele>
        <time>2013-05-20T15:28:53Z</time>
      </trkpt>
      <trkpt lat="42.890617" lon="-8.481688">
        <ele>371.087</ele>
        <time>2013-05-20T15:29:01Z</time>
      </trkpt>
      <trkpt lat="42.890616" lon="-8.481827">
        <ele>373.096</ele>
        <time>2013-05-20T15:29:08Z</time>
      </trkpt>
      <trkpt lat="42.890619" lon="-8.481952">
        <ele>373.025</ele>
        <time>2013-05-20T15:29:13Z</time>
      </trkpt>
      <trkpt lat="42.890630" lon="-8.482080">
        <ele>376.012</ele>
        <time>2013-05-20T15:29:19Z</time>
      </trkpt>
      <trkpt lat="42.890640" lon="-8.482215">
        <ele>372.032</ele>
        <time>2013-05-20T15:29:29Z</time>
      </trkpt>
      <trkpt lat="42.890633" lon="-8.482340">
        <ele>373.005</ele>
        <time>2013-05-20T15:29:37Z</time>
      </trkpt>
      <trkpt lat="42.890631" lon="-8.482471">
        <ele>374.007</ele>
        <time>2013-05-20T15:29:44Z</time>
      </trkpt>
      <trkpt lat="42.890634" lon="-8.482577">
        <ele>371.045</ele>
        <time>2013-05-20T15:29:54Z</time>
      </trkpt>
      <trkpt lat="42.890627" lon="-8.482718">
        <ele>371.016</ele>
        <time>2013-05-20T15:30:01Z</time>
      </trkpt>
      <trkpt lat="42.890613" lon="-8.482852">
        <ele>372.052</ele>
        <time>2013-05-20T15:30:07Z</time>
      </trkpt>
      <trkpt lat="42.890621" lon="-8.482979">
        <ele>373.038</ele>
        <time>2013-05-20T15:30:13Z</time>
      </trkpt>
      <trkpt lat="42.890631" lon="-8.483109">
        <ele>376.011</ele>
        <time>2013-05-20T15:30:21Z</time>
      </trkpt>
      <trkpt lat="42.890629" lon="-8.483215">
        <ele>370.030</ele>
        <time>2013-05-20T15:30:31Z</time>
      </trkpt>
      <trkpt lat="42.890634" lon="-8.483347">
        <ele>369.049</ele>
        <time>2013-05-20T15:30:40Z</time>
      </trkpt>
      <trkpt lat="42.890640" lon="-8.483478">
        <ele>372.026</ele>
        <time>2013-05-20T15:30:47Z</time>
      </trkpt>
      <trkpt lat="42.890641" lon="-8.483586">
        <ele>372.047</ele>
        <time>2013-05-20T15:30:57Z</time>
      </trkpt>
      <trkpt lat="42.890660" lon="-8.483713">
        <ele>374.011</ele>
        <time>2013-05-20T15:31:06Z</time>
      </trkpt>
      <trkpt lat="42.890671" lon="-8.483843">
        <ele>374.007</ele>
        <time>2013-05-20T15:31:15Z</time>
      </trkpt>
      <trkpt lat="42.890677" lon="-8.483977">
        <ele>375.056</ele>
        <time>2013-05-20T15:31:23Z</time>
      </trkpt>
      <trkpt lat="42.890689" lon="-8.484118">
        <ele>377.067</ele>
        <time>2013-05-20T15:31:29Z</time>
      </trkpt>
      <trkpt lat="42.890707" lon="-8.484357">
        <ele>381.083</ele>
        <time>2013-05-20T15:31:39Z</time>
      </trkpt>
      <trkpt lat="42.890703" lon="-8.484485">
        <ele>383.029</ele>
        <time>2013-05-20T15:31:45Z</time>
      </trkpt>
      <trkpt lat="42.890698" lon="-8.484622">
        <ele>384.022</ele>
        <time>2013-05-20T15:31:53Z</time>
      </trkpt>
      <trkpt lat="42.890666" lon="-8.484673">
        <ele>378.031</ele>
        <time>2013-05-20T15:32:03Z</time>
      </trkpt>
      <trkpt lat="42.890669" lon="-8.484811">
        <ele>379.040</ele>
        <time>2013-05-20T15:32:08Z</time>
      </trkpt>
      <trkpt lat="42.890622" lon="-8.484918">
        <ele>381.099</ele>
        <time>2013-05-20T15:32:13Z</time>
      </trkpt>
      <trkpt lat="42.890635" lon="-8.485050">
        <ele>381.007</ele>
        <time>2013-05-20T15:32:20Z</time>
      </trkpt>
      <trkpt lat="42.890681" lon="-8.485174">
        <ele>377.027</ele>
        <time>2013-05-20T15:32:27Z</time>
      </trkpt>
      <trkpt lat="42.890696" lon="-8.485295">
        <ele>376.007</ele>
        <time>2013-05-20T15:32:34Z</time>
      </trkpt>
      <trkpt lat="42.890697" lon="-8.485421">
        <ele>378.043</ele>
        <time>2013-05-20T15:32:40Z</time>
      </trkpt>
      <trkpt lat="42.890687" lon="-8.485553">
        <ele>378.014</ele>
        <time>2013-05-20T15:32:50Z</time>
      </trkpt>
      <trkpt lat="42.890672" lon="-8.485689">
        <ele>377.050</ele>
        <time>2013-05-20T15:32:57Z</time>
      </trkpt>
      <trkpt lat="42.890694" lon="-8.485817">
        <ele>381.046</ele>
        <time>2013-05-20T15:33:02Z</time>
      </trkpt>
      <trkpt lat="42.890712" lon="-8.485919">
        <ele>381.089</ele>
        <time>2013-05-20T15:33:12Z</time>
      </trkpt>
      <trkpt lat="42.890733" lon="-8.485861">
        <ele>381.088</ele>
        <time>2013-05-20T15:33:22Z</time>
      </trkpt>
      <trkpt lat="42.890706" lon="-8.485927">
        <ele>378.067</ele>
        <time>2013-05-20T15:33:33Z</time>
      </trkpt>
      <trkpt lat="42.890630" lon="-8.486000">
        <ele>381.027</ele>
        <time>2013-05-20T15:33:40Z</time>
      </trkpt>
      <trkpt lat="42.890551" lon="-8.486058">
        <ele>381.068</ele>
        <time>2013-05-20T15:33:47Z</time>
      </trkpt>
      <trkpt lat="42.890548" lon="-8.486199">
        <ele>381.014</ele>
        <time>2013-05-20T15:33:53Z</time>
      </trkpt>
      <trkpt lat="42.890566" lon="-8.486320">
        <ele>379.007</ele>
        <time>2013-05-20T15:34:02Z</time>
      </trkpt>
      <trkpt lat="42.890613" lon="-8.486433">
        <ele>377.066</ele>
        <time>2013-05-20T15:34:11Z</time>
      </trkpt>
      <trkpt lat="42.890622" lon="-8.486561">
        <ele>371.017</ele>
        <time>2013-05-20T15:34:16Z</time>
      </trkpt>
      <trkpt lat="42.890651" lon="-8.486661">
        <ele>362.073</ele>
        <time>2013-05-20T15:34:26Z</time>
      </trkpt>
      <trkpt lat="42.890682" lon="-8.486789">
        <ele>365.049</ele>
        <time>2013-05-20T15:34:33Z</time>
      </trkpt>
      <trkpt lat="42.890686" lon="-8.486916">
        <ele>368.042</ele>
        <time>2013-05-20T15:34:40Z</time>
      </trkpt>
      <trkpt lat="42.890724" lon="-8.487039">
        <ele>370.041</ele>
        <time>2013-05-20T15:34:47Z</time>
      </trkpt>
      <trkpt lat="42.890766" lon="-8.487147">
        <ele>367.010</ele>
        <time>2013-05-20T15:34:57Z</time>
      </trkpt>
      <trkpt lat="42.890786" lon="-8.487273">
        <ele>367.051</ele>
        <time>2013-05-20T15:35:06Z</time>
      </trkpt>
      <trkpt lat="42.890850" lon="-8.487282">
        <ele>361.001</ele>
        <time>2013-05-20T15:35:16Z</time>
      </trkpt>
      <trkpt lat="42.890900" lon="-8.487345">
        <ele>359.011</ele>
        <time>2013-05-20T15:35:28Z</time>
      </trkpt>
      <trkpt lat="42.890994" lon="-8.487307">
        <ele>358.007</ele>
        <time>2013-05-20T15:35:38Z</time>
      </trkpt>
      <trkpt lat="42.891089" lon="-8.487262">
        <ele>358.049</ele>
        <time>2013-05-20T15:35:46Z</time>
      </trkpt>
      <trkpt lat="42.891175" lon="-8.487307">
        <ele>360.030</ele>
        <time>2013-05-20T15:35:56Z</time>
      </trkpt>
      <trkpt lat="42.891254" lon="-8.487401">
        <ele>360.026</ele>
        <time>2013-05-20T15:36:02Z</time>
      </trkpt>
      <trkpt lat="42.891327" lon="-8.487501">
        <ele>356.022</ele>
        <time>2013-05-20T15:36:08Z</time>
      </trkpt>
      <trkpt lat="42.891362" lon="-8.487627">
        <ele>353.095</ele>
        <time>2013-05-20T15:36:15Z</time>
      </trkpt>
      <trkpt lat="42.891411" lon="-8.487744">
        <ele>357.084</ele>
        <time>2013-05-20T15:36:22Z</time>
      </trkpt>
      <trkpt lat="42.891429" lon="-8.487870">
        <ele>358.093</ele>
        <time>2013-05-20T15:36:27Z</time>
      </trkpt>
      <trkpt lat="42.891435" lon="-8.487998">
        <ele>360.026</ele>
        <time>2013-05-20T15:36:34Z</time>
      </trkpt>
      <trkpt lat="42.891426" lon="-8.488125">
        <ele>358.047</ele>
        <time>2013-05-20T15:36:42Z</time>
      </trkpt>
      <trkpt lat="42.891385" lon="-8.488262">
        <ele>355.011</ele>
        <time>2013-05-20T15:36:50Z</time>
      </trkpt>
      <trkpt lat="42.891376" lon="-8.488381">
        <ele>357.007</ele>
        <time>2013-05-20T15:37:00Z</time>
      </trkpt>
      <trkpt lat="42.891403" lon="-8.488510">
        <ele>358.046</ele>
        <time>2013-05-20T15:37:08Z</time>
      </trkpt>
      <trkpt lat="42.891397" lon="-8.488648">
        <ele>360.037</ele>
        <time>2013-05-20T15:37:15Z</time>
      </trkpt>
      <trkpt lat="42.891371" lon="-8.488772">
        <ele>360.093</ele>
        <time>2013-05-20T15:37:24Z</time>
      </trkpt>
      <trkpt lat="42.891325" lon="-8.488884">
        <ele>357.019</ele>
        <time>2013-05-20T15:37:33Z</time>
      </trkpt>
      <trkpt lat="42.891291" lon="-8.489004">
        <ele>359.042</ele>
        <time>2013-05-20T15:37:38Z</time>
      </trkpt>
      <trkpt lat="42.891261" lon="-8.489126">
        <ele>361.031</ele>
        <time>2013-05-20T15:37:43Z</time>
      </trkpt>
      <trkpt lat="42.891214" lon="-8.489237">
        <ele>359.090</ele>
        <time>2013-05-20T15:37:50Z</time>
      </trkpt>
      <trkpt lat="42.891181" lon="-8.489369">
        <ele>361.087</ele>
        <time>2013-05-20T15:37:59Z</time>
      </trkpt>
      <trkpt lat="42.891143" lon="-8.489504">
        <ele>365.042</ele>
        <time>2013-05-20T15:38:07Z</time>
      </trkpt>
      <trkpt lat="42.891090" lon="-8.489608">
        <ele>365.026</ele>
        <time>2013-05-20T15:38:16Z</time>
      </trkpt>
      <trkpt lat="42.891076" lon="-8.489694">
        <ele>361.007</ele>
        <time>2013-05-20T15:38:33Z</time>
      </trkpt>
      <trkpt lat="42.891040" lon="-8.489822">
        <ele>361.092</ele>
        <time>2013-05-20T15:38:38Z</time>
      </trkpt>
      <trkpt lat="42.891014" lon="-8.489961">
        <ele>362.043</ele>
        <time>2013-05-20T15:38:43Z</time>
      </trkpt>
      <trkpt lat="42.890957" lon="-8.490076">
        <ele>365.039</ele>
        <time>2013-05-20T15:38:48Z</time>
      </trkpt>
      <trkpt lat="42.890936" lon="-8.490216">
        <ele>369.055</ele>
        <time>2013-05-20T15:38:55Z</time>
      </trkpt>
      <trkpt lat="42.890908" lon="-8.490333">
        <ele>370.058</ele>
        <time>2013-05-20T15:39:00Z</time>
      </trkpt>
      <trkpt lat="42.890901" lon="-8.490398">
        <ele>368.057</ele>
        <time>2013-05-20T15:39:10Z</time>
      </trkpt>
      <trkpt lat="42.890874" lon="-8.490526">
        <ele>363.036</ele>
        <time>2013-05-20T15:39:19Z</time>
      </trkpt>
      <trkpt lat="42.890854" lon="-8.490661">
        <ele>364.028</ele>
        <time>2013-05-20T15:39:27Z</time>
      </trkpt>
      <trkpt lat="42.890853" lon="-8.490794">
        <ele>363.089</ele>
        <time>2013-05-20T15:39:36Z</time>
      </trkpt>
      <trkpt lat="42.890855" lon="-8.490918">
        <ele>366.017</ele>
        <time>2013-05-20T15:39:41Z</time>
      </trkpt>
      <trkpt lat="42.890826" lon="-8.491043">
        <ele>369.007</ele>
        <time>2013-05-20T15:39:49Z</time>
      </trkpt>
      <trkpt lat="42.890790" lon="-8.491093">
        <ele>363.036</ele>
        <time>2013-05-20T15:40:03Z</time>
      </trkpt>
      <trkpt lat="42.890758" lon="-8.491204">
        <ele>362.057</ele>
        <time>2013-05-20T15:40:13Z</time>
      </trkpt>
      <trkpt lat="42.890686" lon="-8.491312">
        <ele>364.063</ele>
        <time>2013-05-20T15:40:19Z</time>
      </trkpt>
      <trkpt lat="42.890662" lon="-8.491434">
        <ele>366.019</ele>
        <time>2013-05-20T15:40:24Z</time>
      </trkpt>
      <trkpt lat="42.890630" lon="-8.491558">
        <ele>366.032</ele>
        <time>2013-05-20T15:40:32Z</time>
      </trkpt>
      <trkpt lat="42.890612" lon="-8.491683">
        <ele>366.031</ele>
        <time>2013-05-20T15:40:41Z</time>
      </trkpt>
      <trkpt lat="42.890572" lon="-8.491799">
        <ele>364.090</ele>
        <time>2013-05-20T15:40:49Z</time>
      </trkpt>
      <trkpt lat="42.890508" lon="-8.491895">
        <ele>363.051</ele>
        <time>2013-05-20T15:40:56Z</time>
      </trkpt>
      <trkpt lat="42.890442" lon="-8.492004">
        <ele>363.001</ele>
        <time>2013-05-20T15:41:03Z</time>
      </trkpt>
      <trkpt lat="42.890415" lon="-8.492096">
        <ele>363.011</ele>
        <time>2013-05-20T15:41:13Z</time>
      </trkpt>
      <trkpt lat="42.890360" lon="-8.492211">
        <ele>362.007</ele>
        <time>2013-05-20T15:41:20Z</time>
      </trkpt>
      <trkpt lat="42.890286" lon="-8.492311">
        <ele>358.089</ele>
        <time>2013-05-20T15:41:30Z</time>
      </trkpt>
      <trkpt lat="42.890234" lon="-8.492417">
        <ele>357.050</ele>
        <time>2013-05-20T15:41:38Z</time>
      </trkpt>
      <trkpt lat="42.890202" lon="-8.492533">
        <ele>363.066</ele>
        <time>2013-05-20T15:41:45Z</time>
      </trkpt>
      <trkpt lat="42.890159" lon="-8.492647">
        <ele>362.042</ele>
        <time>2013-05-20T15:41:52Z</time>
      </trkpt>
      <trkpt lat="42.890120" lon="-8.492759">
        <ele>365.095</ele>
        <time>2013-05-20T15:42:02Z</time>
      </trkpt>
      <trkpt lat="42.890085" lon="-8.492874">
        <ele>362.044</ele>
        <time>2013-05-20T15:42:09Z</time>
      </trkpt>
      <trkpt lat="42.890066" lon="-8.493012">
        <ele>363.043</ele>
        <time>2013-05-20T15:42:19Z</time>
      </trkpt>
      <trkpt lat="42.890017" lon="-8.493122">
        <ele>363.078</ele>
        <time>2013-05-20T15:42:26Z</time>
      </trkpt>
      <trkpt lat="42.889979" lon="-8.493236">
        <ele>364.033</ele>
        <time>2013-05-20T15:42:31Z</time>
      </trkpt>
      <trkpt lat="42.889962" lon="-8.493363">
        <ele>367.026</ele>
        <time>2013-05-20T15:42:41Z</time>
      </trkpt>
      <trkpt lat="42.889912" lon="-8.493483">
        <ele>364.007</ele>
        <time>2013-05-20T15:42:49Z</time>
      </trkpt>
      <trkpt lat="42.889846" lon="-8.493579">
        <ele>365.051</ele>
        <time>2013-05-20T15:42:56Z</time>
      </trkpt>
      <trkpt lat="42.889804" lon="-8.493688">
        <ele>365.082</ele>
        <time>2013-05-20T15:43:02Z</time>
      </trkpt>
      <trkpt lat="42.889773" lon="-8.493814">
        <ele>363.038</ele>
        <time>2013-05-20T15:43:11Z</time>
      </trkpt>
      <trkpt lat="42.889730" lon="-8.493934">
        <ele>363.084</ele>
        <time>2013-05-20T15:43:21Z</time>
      </trkpt>
      <trkpt lat="42.889655" lon="-8.494009">
        <ele>361.087</ele>
        <time>2013-05-20T15:43:28Z</time>
      </trkpt>
      <trkpt lat="42.889581" lon="-8.493994">
        <ele>361.026</ele>
        <time>2013-05-20T15:43:38Z</time>
      </trkpt>
      <trkpt lat="42.889502" lon="-8.493934">
        <ele>367.025</ele>
        <time>2013-05-20T15:43:45Z</time>
      </trkpt>
      <trkpt lat="42.889420" lon="-8.493876">
        <ele>368.091</ele>
        <time>2013-05-20T15:43:55Z</time>
      </trkpt>
      <trkpt lat="42.889361" lon="-8.493837">
        <ele>370.081</ele>
        <time>2013-05-20T15:44:05Z</time>
      </trkpt>
      <trkpt lat="42.889319" lon="-8.493876">
        <ele>375.019</ele>
        <time>2013-05-20T15:44:15Z</time>
      </trkpt>
      <trkpt lat="42.889273" lon="-8.493871">
        <ele>389.007</ele>
        <time>2013-05-20T15:44:29Z</time>
      </trkpt>
      <trkpt lat="42.889212" lon="-8.493845">
        <ele>391.043</ele>
        <time>2013-05-20T15:44:52Z</time>
      </trkpt>
      <trkpt lat="42.889170" lon="-8.493806">
        <ele>391.044</ele>
        <time>2013-05-20T15:45:02Z</time>
      </trkpt>
      <trkpt lat="42.889119" lon="-8.493806">
        <ele>392.030</ele>
        <time>2013-05-20T15:45:16Z</time>
      </trkpt>
      <trkpt lat="42.889167" lon="-8.493782">
        <ele>380.056</ele>
        <time>2013-05-20T15:45:34Z</time>
      </trkpt>
      <trkpt lat="42.889203" lon="-8.493896">
        <ele>377.089</ele>
        <time>2013-05-20T15:45:44Z</time>
      </trkpt>
      <trkpt lat="42.889192" lon="-8.494002">
        <ele>380.018</ele>
        <time>2013-05-20T15:45:54Z</time>
      </trkpt>
      <trkpt lat="42.889148" lon="-8.494119">
        <ele>377.037</ele>
        <time>2013-05-20T15:46:04Z</time>
      </trkpt>
      <trkpt lat="42.889064" lon="-8.494177">
        <ele>373.077</ele>
        <time>2013-05-20T15:46:14Z</time>
      </trkpt>
      <trkpt lat="42.889000" lon="-8.494152">
        <ele>369.061</ele>
        <time>2013-05-20T15:46:24Z</time>
      </trkpt>
      <trkpt lat="42.888901" lon="-8.494133">
        <ele>371.027</ele>
        <time>2013-05-20T15:46:32Z</time>
      </trkpt>
      <trkpt lat="42.888805" lon="-8.494129">
        <ele>373.007</ele>
        <time>2013-05-20T15:46:42Z</time>
      </trkpt>
      <trkpt lat="42.888750" lon="-8.494134">
        <ele>373.011</ele>
        <time>2013-05-20T15:46:56Z</time>
      </trkpt>
      <trkpt lat="42.888743" lon="-8.494153">
        <ele>371.052</ele>
        <time>2013-05-20T15:47:26Z</time>
      </trkpt>
      <trkpt lat="42.888838" lon="-8.494202">
        <ele>371.048</ele>
        <time>2013-05-20T15:47:32Z</time>
      </trkpt>
      <trkpt lat="42.888933" lon="-8.494264">
        <ele>372.064</ele>
        <time>2013-05-20T15:47:38Z</time>
      </trkpt>
      <trkpt lat="42.889030" lon="-8.494258">
        <ele>368.097</ele>
        <time>2013-05-20T15:47:48Z</time>
      </trkpt>
      <trkpt lat="42.889076" lon="-8.494224">
        <ele>369.016</ele>
        <time>2013-05-20T15:47:58Z</time>
      </trkpt>
      <trkpt lat="42.889137" lon="-8.494214">
        <ele>367.085</ele>
        <time>2013-05-20T15:48:18Z</time>
      </trkpt>
      <trkpt lat="42.889236" lon="-8.494216">
        <ele>365.092</ele>
        <time>2013-05-20T15:48:24Z</time>
      </trkpt>
      <trkpt lat="42.889336" lon="-8.494237">
        <ele>364.073</ele>
        <time>2013-05-20T15:48:30Z</time>
      </trkpt>
      <trkpt lat="42.889427" lon="-8.494221">
        <ele>365.020</ele>
        <time>2013-05-20T15:48:37Z</time>
      </trkpt>
      <trkpt lat="42.889528" lon="-8.494227">
        <ele>366.007</ele>
        <time>2013-05-20T15:48:47Z</time>
      </trkpt>
      <trkpt lat="42.889580" lon="-8.494264">
        <ele>366.093</ele>
        <time>2013-05-20T15:48:57Z</time>
      </trkpt>
      <trkpt lat="42.889580" lon="-8.494264">
        <ele>366.054</ele>
        <time>2013-05-20T15:49:27Z</time>
      </trkpt>
      <trkpt lat="42.889580" lon="-8.494264">
        <ele>366.050</ele>
        <time>2013-05-20T15:49:57Z</time>
      </trkpt>
      <trkpt lat="42.889580" lon="-8.494264">
        <ele>366.096</ele>
        <time>2013-05-20T15:50:27Z</time>
      </trkpt>
      <trkpt lat="42.889580" lon="-8.494264">
        <ele>366.089</ele>
        <time>2013-05-20T15:50:57Z</time>
      </trkpt>
      <trkpt lat="42.889580" lon="-8.494264">
        <ele>366.058</ele>
        <time>2013-05-20T15:51:27Z</time>
      </trkpt>
      <trkpt lat="42.889580" lon="-8.494264">
        <ele>366.067</ele>
        <time>2013-05-20T15:51:57Z</time>
      </trkpt>
      <trkpt lat="42.889580" lon="-8.494264">
        <ele>366.098</ele>
        <time>2013-05-20T15:52:27Z</time>
      </trkpt>
      <trkpt lat="42.889580" lon="-8.494264">
        <ele>366.015</ele>
        <time>2013-05-20T15:52:57Z</time>
      </trkpt>
      <trkpt lat="42.889580" lon="-8.494264">
        <ele>366.026</ele>
        <time>2013-05-20T15:53:27Z</time>
      </trkpt>
      <trkpt lat="42.889580" lon="-8.494264">
        <ele>366.007</ele>
        <time>2013-05-20T15:53:57Z</time>
      </trkpt>
      <trkpt lat="42.889580" lon="-8.494264">
        <ele>366.073</ele>
        <time>2013-05-20T15:54:27Z</time>
      </trkpt>
      <trkpt lat="42.889580" lon="-8.494264">
        <ele>366.054</ele>
        <time>2013-05-20T15:54:57Z</time>
      </trkpt>
      <trkpt lat="42.889580" lon="-8.494264">
        <ele>366.090</ele>
        <time>2013-05-20T15:55:27Z</time>
      </trkpt>
      <trkpt lat="42.889580" lon="-8.494264">
        <ele>366.046</ele>
        <time>2013-05-20T15:55:57Z</time>
      </trkpt>
      <trkpt lat="42.889580" lon="-8.494264">
        <ele>366.029</ele>
        <time>2013-05-20T15:56:27Z</time>
      </trkpt>
      <trkpt lat="42.889581" lon="-8.494215">
        <ele>366.048</ele>
        <time>2013-05-20T15:56:57Z</time>
      </trkpt>
      <trkpt lat="42.889623" lon="-8.494247">
        <ele>365.087</ele>
        <time>2013-05-20T15:57:07Z</time>
      </trkpt>
      <trkpt lat="42.889673" lon="-8.494276">
        <ele>368.089</ele>
        <time>2013-05-20T15:57:17Z</time>
      </trkpt>
      <trkpt lat="42.889657" lon="-8.494405">
        <ele>369.006</ele>
        <time>2013-05-20T15:57:26Z</time>
      </trkpt>
      <trkpt lat="42.889597" lon="-8.494481">
        <ele>372.026</ele>
        <time>2013-05-20T15:57:36Z</time>
      </trkpt>
      <trkpt lat="42.889571" lon="-8.494605">
        <ele>372.007</ele>
        <time>2013-05-20T15:57:45Z</time>
      </trkpt>
      <trkpt lat="42.889515" lon="-8.494721">
        <ele>375.062</ele>
        <time>2013-05-20T15:57:54Z</time>
      </trkpt>
      <trkpt lat="42.889449" lon="-8.494833">
        <ele>369.043</ele>
        <time>2013-05-20T15:58:04Z</time>
      </trkpt>
      <trkpt lat="42.889387" lon="-8.494943">
        <ele>368.029</ele>
        <time>2013-05-20T15:58:13Z</time>
      </trkpt>
      <trkpt lat="42.889343" lon="-8.495055">
        <ele>367.035</ele>
        <time>2013-05-20T15:58:21Z</time>
      </trkpt>
      <trkpt lat="42.889304" lon="-8.495173">
        <ele>368.048</ele>
        <time>2013-05-20T15:58:28Z</time>
      </trkpt>
      <trkpt lat="42.889251" lon="-8.495286">
        <ele>367.037</ele>
        <time>2013-05-20T15:58:36Z</time>
      </trkpt>
      <trkpt lat="42.889214" lon="-8.495418">
        <ele>367.066</ele>
        <time>2013-05-20T15:58:45Z</time>
      </trkpt>
      <trkpt lat="42.889157" lon="-8.495527">
        <ele>366.015</ele>
        <time>2013-05-20T15:58:52Z</time>
      </trkpt>
      <trkpt lat="42.889124" lon="-8.495647">
        <ele>365.065</ele>
        <time>2013-05-20T15:58:59Z</time>
      </trkpt>
      <trkpt lat="42.889067" lon="-8.495756">
        <ele>363.011</ele>
        <time>2013-05-20T15:59:08Z</time>
      </trkpt>
      <trkpt lat="42.889027" lon="-8.495882">
        <ele>366.007</ele>
        <time>2013-05-20T15:59:15Z</time>
      </trkpt>
      <trkpt lat="42.888991" lon="-8.496015">
        <ele>366.075</ele>
        <time>2013-05-20T15:59:24Z</time>
      </trkpt>
      <trkpt lat="42.888957" lon="-8.496145">
        <ele>367.056</ele>
        <time>2013-05-20T15:59:33Z</time>
      </trkpt>
      <trkpt lat="42.888912" lon="-8.496267">
        <ele>368.032</ele>
        <time>2013-05-20T15:59:40Z</time>
      </trkpt>
      <trkpt lat="42.888865" lon="-8.496384">
        <ele>365.058</ele>
        <time>2013-05-20T15:59:49Z</time>
      </trkpt>
      <trkpt lat="42.888804" lon="-8.496483">
        <ele>363.091</ele>
        <time>2013-05-20T15:59:59Z</time>
      </trkpt>
      <trkpt lat="42.888819" lon="-8.496614">
        <ele>368.050</ele>
        <time>2013-05-20T16:00:07Z</time>
      </trkpt>
      <trkpt lat="42.888781" lon="-8.496728">
        <ele>367.099</ele>
        <time>2013-05-20T16:00:17Z</time>
      </trkpt>
      <trkpt lat="42.888705" lon="-8.496796">
        <ele>366.082</ele>
        <time>2013-05-20T16:00:24Z</time>
      </trkpt>
      <trkpt lat="42.888672" lon="-8.496931">
        <ele>365.043</ele>
        <time>2013-05-20T16:00:30Z</time>
      </trkpt>
      <trkpt lat="42.888618" lon="-8.497041">
        <ele>363.017</ele>
        <time>2013-05-20T16:00:39Z</time>
      </trkpt>
      <trkpt lat="42.888580" lon="-8.497222">
        <ele>363.007</ele>
        <time>2013-05-20T16:00:46Z</time>
      </trkpt>
      <trkpt lat="42.888530" lon="-8.497333">
        <ele>365.062</ele>
        <time>2013-05-20T16:00:51Z</time>
      </trkpt>
      <trkpt lat="42.888502" lon="-8.497430">
        <ele>359.063</ele>
        <time>2013-05-20T16:01:01Z</time>
      </trkpt>
      <trkpt lat="42.888452" lon="-8.497542">
        <ele>359.079</ele>
        <time>2013-05-20T16:01:09Z</time>
      </trkpt>
      <trkpt lat="42.888390" lon="-8.497651">
        <ele>366.065</ele>
        <time>2013-05-20T16:01:19Z</time>
      </trkpt>
      <trkpt lat="42.888394" lon="-8.497780">
        <ele>362.058</ele>
        <time>2013-05-20T16:01:28Z</time>
      </trkpt>
      <trkpt lat="42.888369" lon="-8.497905">
        <ele>360.087</ele>
        <time>2013-05-20T16:01:35Z</time>
      </trkpt>
      <trkpt lat="42.888307" lon="-8.498006">
        <ele>356.086</ele>
        <time>2013-05-20T16:01:44Z</time>
      </trkpt>
      <trkpt lat="42.888258" lon="-8.498116">
        <ele>352.094</ele>
        <time>2013-05-20T16:01:51Z</time>
      </trkpt>
      <trkpt lat="42.888261" lon="-8.498242">
        <ele>352.057</ele>
        <time>2013-05-20T16:02:00Z</time>
      </trkpt>
      <trkpt lat="42.888235" lon="-8.498372">
        <ele>351.022</ele>
        <time>2013-05-20T16:02:07Z</time>
      </trkpt>
      <trkpt lat="42.888216" lon="-8.498495">
        <ele>350.007</ele>
        <time>2013-05-20T16:02:13Z</time>
      </trkpt>
      <trkpt lat="42.888199" lon="-8.498586">
        <ele>345.073</ele>
        <time>2013-05-20T16:02:24Z</time>
      </trkpt>
      <trkpt lat="42.888155" lon="-8.498707">
        <ele>348.094</ele>
        <time>2013-05-20T16:02:32Z</time>
      </trkpt>
      <trkpt lat="42.888101" lon="-8.498818">
        <ele>338.070</ele>
        <time>2013-05-20T16:02:42Z</time>
      </trkpt>
      <trkpt lat="42.888063" lon="-8.498948">
        <ele>340.026</ele>
        <time>2013-05-20T16:02:48Z</time>
      </trkpt>
      <trkpt lat="42.888046" lon="-8.499085">
        <ele>340.019</ele>
        <time>2013-05-20T16:02:55Z</time>
      </trkpt>
      <trkpt lat="42.888014" lon="-8.499209">
        <ele>339.028</ele>
        <time>2013-05-20T16:03:04Z</time>
      </trkpt>
      <trkpt lat="42.887962" lon="-8.499329">
        <ele>337.057</ele>
        <time>2013-05-20T16:03:14Z</time>
      </trkpt>
      <trkpt lat="42.887918" lon="-8.499452">
        <ele>335.012</ele>
        <time>2013-05-20T16:03:22Z</time>
      </trkpt>
      <trkpt lat="42.887865" lon="-8.499552">
        <ele>334.032</ele>
        <time>2013-05-20T16:03:31Z</time>
      </trkpt>
      <trkpt lat="42.887860" lon="-8.499690">
        <ele>332.005</ele>
        <time>2013-05-20T16:03:38Z</time>
      </trkpt>
      <trkpt lat="42.887821" lon="-8.499816">
        <ele>329.007</ele>
        <time>2013-05-20T16:03:44Z</time>
      </trkpt>
      <trkpt lat="42.887791" lon="-8.499939">
        <ele>332.045</ele>
        <time>2013-05-20T16:03:54Z</time>
      </trkpt>
      <trkpt lat="42.887785" lon="-8.500023">
        <ele>332.026</ele>
        <time>2013-05-20T16:04:04Z</time>
      </trkpt>
      <trkpt lat="42.887764" lon="-8.500109">
        <ele>322.062</ele>
        <time>2013-05-20T16:04:14Z</time>
      </trkpt>
      <trkpt lat="42.887797" lon="-8.500238">
        <ele>319.088</ele>
        <time>2013-05-20T16:04:22Z</time>
      </trkpt>
      <trkpt lat="42.887795" lon="-8.500380">
        <ele>320.051</ele>
        <time>2013-05-20T16:04:27Z</time>
      </trkpt>
      <trkpt lat="42.887823" lon="-8.500483">
        <ele>320.050</ele>
        <time>2013-05-20T16:04:37Z</time>
      </trkpt>
      <trkpt lat="42.887871" lon="-8.500592">
        <ele>322.029</ele>
        <time>2013-05-20T16:04:43Z</time>
      </trkpt>
      <trkpt lat="42.887881" lon="-8.500685">
        <ele>324.038</ele>
        <time>2013-05-20T16:04:53Z</time>
      </trkpt>
      <trkpt lat="42.887920" lon="-8.500796">
        <ele>324.070</ele>
        <time>2013-05-20T16:05:01Z</time>
      </trkpt>
      <trkpt lat="42.887976" lon="-8.500930">
        <ele>325.017</ele>
        <time>2013-05-20T16:05:06Z</time>
      </trkpt>
      <trkpt lat="42.887951" lon="-8.501057">
        <ele>324.007</ele>
        <time>2013-05-20T16:05:13Z</time>
      </trkpt>
      <trkpt lat="42.887925" lon="-8.501192">
        <ele>324.017</ele>
        <time>2013-05-20T16:05:21Z</time>
      </trkpt>
      <trkpt lat="42.887950" lon="-8.501330">
        <ele>324.068</ele>
        <time>2013-05-20T16:05:27Z</time>
      </trkpt>
      <trkpt lat="42.887993" lon="-8.501449">
        <ele>322.034</ele>
        <time>2013-05-20T16:05:35Z</time>
      </trkpt>
      <trkpt lat="42.887990" lon="-8.501586">
        <ele>320.020</ele>
        <time>2013-05-20T16:05:42Z</time>
      </trkpt>
      <trkpt lat="42.888041" lon="-8.501700">
        <ele>321.023</ele>
        <time>2013-05-20T16:05:49Z</time>
      </trkpt>
      <trkpt lat="42.888040" lon="-8.501827">
        <ele>318.052</ele>
        <time>2013-05-20T16:05:56Z</time>
      </trkpt>
      <trkpt lat="42.887966" lon="-8.501907">
        <ele>316.031</ele>
        <time>2013-05-20T16:06:05Z</time>
      </trkpt>
      <trkpt lat="42.887914" lon="-8.502022">
        <ele>315.054</ele>
        <time>2013-05-20T16:06:13Z</time>
      </trkpt>
      <trkpt lat="42.887890" lon="-8.502163">
        <ele>318.056</ele>
        <time>2013-05-20T16:06:19Z</time>
      </trkpt>
      <trkpt lat="42.887852" lon="-8.502277">
        <ele>316.011</ele>
        <time>2013-05-20T16:06:26Z</time>
      </trkpt>
      <trkpt lat="42.887825" lon="-8.502365">
        <ele>312.007</ele>
        <time>2013-05-20T16:06:36Z</time>
      </trkpt>
      <trkpt lat="42.887790" lon="-8.502495">
        <ele>316.059</ele>
        <time>2013-05-20T16:06:46Z</time>
      </trkpt>
      <trkpt lat="42.887761" lon="-8.502545">
        <ele>317.050</ele>
        <time>2013-05-20T16:06:56Z</time>
      </trkpt>
      <trkpt lat="42.887712" lon="-8.502655">
        <ele>315.066</ele>
        <time>2013-05-20T16:07:03Z</time>
      </trkpt>
      <trkpt lat="42.887680" lon="-8.502773">
        <ele>313.092</ele>
        <time>2013-05-20T16:07:10Z</time>
      </trkpt>
      <trkpt lat="42.887679" lon="-8.502901">
        <ele>312.075</ele>
        <time>2013-05-20T16:07:17Z</time>
      </trkpt>
      <trkpt lat="42.887629" lon="-8.503005">
        <ele>312.084</ele>
        <time>2013-05-20T16:07:23Z</time>
      </trkpt>
      <trkpt lat="42.887615" lon="-8.503141">
        <ele>314.033</ele>
        <time>2013-05-20T16:07:29Z</time>
      </trkpt>
      <trkpt lat="42.887531" lon="-8.503188">
        <ele>311.012</ele>
        <time>2013-05-20T16:07:38Z</time>
      </trkpt>
      <trkpt lat="42.887546" lon="-8.503283">
        <ele>311.032</ele>
        <time>2013-05-20T16:07:48Z</time>
      </trkpt>
      <trkpt lat="42.887564" lon="-8.503276">
        <ele>312.005</ele>
        <time>2013-05-20T16:08:18Z</time>
      </trkpt>
      <trkpt lat="42.887515" lon="-8.503291">
        <ele>309.007</ele>
        <time>2013-05-20T16:08:28Z</time>
      </trkpt>
      <trkpt lat="42.887494" lon="-8.503355">
        <ele>309.025</ele>
        <time>2013-05-20T16:08:46Z</time>
      </trkpt>
      <trkpt lat="42.887479" lon="-8.503486">
        <ele>310.046</ele>
        <time>2013-05-20T16:08:54Z</time>
      </trkpt>
      <trkpt lat="42.887483" lon="-8.503595">
        <ele>312.062</ele>
        <time>2013-05-20T16:09:04Z</time>
      </trkpt>
      <trkpt lat="42.887470" lon="-8.503730">
        <ele>310.098</ele>
        <time>2013-05-20T16:09:10Z</time>
      </trkpt>
      <trkpt lat="42.887446" lon="-8.503851">
        <ele>312.021</ele>
        <time>2013-05-20T16:09:17Z</time>
      </trkpt>
      <trkpt lat="42.887448" lon="-8.503983">
        <ele>314.060</ele>
        <time>2013-05-20T16:09:23Z</time>
      </trkpt>
      <trkpt lat="42.887445" lon="-8.504106">
        <ele>313.029</ele>
        <time>2013-05-20T16:09:29Z</time>
      </trkpt>
      <trkpt lat="42.887371" lon="-8.504192">
        <ele>312.079</ele>
        <time>2013-05-20T16:09:38Z</time>
      </trkpt>
      <trkpt lat="42.887312" lon="-8.504306">
        <ele>307.005</ele>
        <time>2013-05-20T16:09:47Z</time>
      </trkpt>
      <trkpt lat="42.887300" lon="-8.504404">
        <ele>299.025</ele>
        <time>2013-05-20T16:09:57Z</time>
      </trkpt>
      <trkpt lat="42.887202" lon="-8.504427">
        <ele>301.007</ele>
        <time>2013-05-20T16:10:07Z</time>
      </trkpt>
      <trkpt lat="42.887190" lon="-8.504427">
        <ele>302.091</ele>
        <time>2013-05-20T16:10:37Z</time>
      </trkpt>
      <trkpt lat="42.887188" lon="-8.504527">
        <ele>303.062</ele>
        <time>2013-05-20T16:10:47Z</time>
      </trkpt>
      <trkpt lat="42.887105" lon="-8.504522">
        <ele>293.018</ele>
        <time>2013-05-20T16:10:57Z</time>
      </trkpt>
      <trkpt lat="42.887057" lon="-8.504639">
        <ele>297.074</ele>
        <time>2013-05-20T16:11:05Z</time>
      </trkpt>
      <trkpt lat="42.886995" lon="-8.504755">
        <ele>304.027</ele>
        <time>2013-05-20T16:11:14Z</time>
      </trkpt>
      <trkpt lat="42.886925" lon="-8.504868">
        <ele>305.036</ele>
        <time>2013-05-20T16:11:24Z</time>
      </trkpt>
      <trkpt lat="42.886893" lon="-8.504987">
        <ele>307.075</ele>
        <time>2013-05-20T16:11:28Z</time>
      </trkpt>
      <trkpt lat="42.886855" lon="-8.505061">
        <ele>305.019</ele>
        <time>2013-05-20T16:11:38Z</time>
      </trkpt>
      <trkpt lat="42.886845" lon="-8.505142">
        <ele>303.009</ele>
        <time>2013-05-20T16:11:58Z</time>
      </trkpt>
      <trkpt lat="42.886816" lon="-8.505274">
        <ele>302.019</ele>
        <time>2013-05-20T16:12:06Z</time>
      </trkpt>
      <trkpt lat="42.886815" lon="-8.505384">
        <ele>296.007</ele>
        <time>2013-05-20T16:12:16Z</time>
      </trkpt>
      <trkpt lat="42.886793" lon="-8.505509">
        <ele>297.025</ele>
        <time>2013-05-20T16:12:22Z</time>
      </trkpt>
      <trkpt lat="42.886771" lon="-8.505568">
        <ele>297.036</ele>
        <time>2013-05-20T16:12:37Z</time>
      </trkpt>
      <trkpt lat="42.886748" lon="-8.505700">
        <ele>292.012</ele>
        <time>2013-05-20T16:12:46Z</time>
      </trkpt>
      <trkpt lat="42.886742" lon="-8.505833">
        <ele>289.028</ele>
        <time>2013-05-20T16:12:56Z</time>
      </trkpt>
      <trkpt lat="42.886736" lon="-8.505963">
        <ele>287.081</ele>
        <time>2013-05-20T16:13:05Z</time>
      </trkpt>
      <trkpt lat="42.886711" lon="-8.506099">
        <ele>286.060</ele>
        <time>2013-05-20T16:13:12Z</time>
      </trkpt>
      <trkpt lat="42.886682" lon="-8.506222">
        <ele>286.039</ele>
        <time>2013-05-20T16:13:19Z</time>
      </trkpt>
      <trkpt lat="42.886678" lon="-8.506352">
        <ele>284.052</ele>
        <time>2013-05-20T16:13:28Z</time>
      </trkpt>
      <trkpt lat="42.886642" lon="-8.506479">
        <ele>282.053</ele>
        <time>2013-05-20T16:13:36Z</time>
      </trkpt>
      <trkpt lat="42.886636" lon="-8.506609">
        <ele>284.008</ele>
        <time>2013-05-20T16:13:42Z</time>
      </trkpt>
      <trkpt lat="42.886627" lon="-8.506746">
        <ele>286.007</ele>
        <time>2013-05-20T16:13:50Z</time>
      </trkpt>
      <trkpt lat="42.886646" lon="-8.506860">
        <ele>282.069</ele>
        <time>2013-05-20T16:14:00Z</time>
      </trkpt>
      <trkpt lat="42.886621" lon="-8.506996">
        <ele>280.010</ele>
        <time>2013-05-20T16:14:08Z</time>
      </trkpt>
      <trkpt lat="42.886627" lon="-8.507081">
        <ele>277.036</ele>
        <time>2013-05-20T16:14:18Z</time>
      </trkpt>
      <trkpt lat="42.886608" lon="-8.507206">
        <ele>282.022</ele>
        <time>2013-05-20T16:14:25Z</time>
      </trkpt>
      <trkpt lat="42.886604" lon="-8.507342">
        <ele>281.045</ele>
        <time>2013-05-20T16:14:31Z</time>
      </trkpt>
      <trkpt lat="42.886589" lon="-8.507481">
        <ele>279.034</ele>
        <time>2013-05-20T16:14:39Z</time>
      </trkpt>
      <trkpt lat="42.886588" lon="-8.507617">
        <ele>276.093</ele>
        <time>2013-05-20T16:14:48Z</time>
      </trkpt>
      <trkpt lat="42.886596" lon="-8.507755">
        <ele>273.026</ele>
        <time>2013-05-20T16:14:56Z</time>
      </trkpt>
      <trkpt lat="42.886594" lon="-8.507889">
        <ele>272.047</ele>
        <time>2013-05-20T16:15:05Z</time>
      </trkpt>
      <trkpt lat="42.886594" lon="-8.508022">
        <ele>273.011</ele>
        <time>2013-05-20T16:15:13Z</time>
      </trkpt>
      <trkpt lat="42.886553" lon="-8.508138">
        <ele>272.007</ele>
        <time>2013-05-20T16:15:22Z</time>
      </trkpt>
      <trkpt lat="42.886569" lon="-8.508274">
        <ele>273.066</ele>
        <time>2013-05-20T16:15:29Z</time>
      </trkpt>
      <trkpt lat="42.886548" lon="-8.508395">
        <ele>274.037</ele>
        <time>2013-05-20T16:15:39Z</time>
      </trkpt>
      <trkpt lat="42.886543" lon="-8.508514">
        <ele>274.043</ele>
        <time>2013-05-20T16:15:49Z</time>
      </trkpt>
      <trkpt lat="42.886561" lon="-8.508646">
        <ele>274.049</ele>
        <time>2013-05-20T16:15:55Z</time>
      </trkpt>
      <trkpt lat="42.886566" lon="-8.508773">
        <ele>277.032</ele>
        <time>2013-05-20T16:16:02Z</time>
      </trkpt>
      <trkpt lat="42.886533" lon="-8.508894">
        <ele>276.031</ele>
        <time>2013-05-20T16:16:11Z</time>
      </trkpt>
      <trkpt lat="42.886515" lon="-8.509023">
        <ele>276.080</ele>
        <time>2013-05-20T16:16:18Z</time>
      </trkpt>
      <trkpt lat="42.886470" lon="-8.509030">
        <ele>277.041</ele>
        <time>2013-05-20T16:16:30Z</time>
      </trkpt>
      <trkpt lat="42.886485" lon="-8.509094">
        <ele>276.081</ele>
        <time>2013-05-20T16:16:40Z</time>
      </trkpt>
      <trkpt lat="42.886493" lon="-8.509159">
        <ele>276.009</ele>
        <time>2013-05-20T16:17:05Z</time>
      </trkpt>
      <trkpt lat="42.886494" lon="-8.509293">
        <ele>279.007</ele>
        <time>2013-05-20T16:17:13Z</time>
      </trkpt>
      <trkpt lat="42.886480" lon="-8.509355">
        <ele>281.038</ele>
        <time>2013-05-20T16:17:31Z</time>
      </trkpt>
      <trkpt lat="42.886516" lon="-8.509309">
        <ele>276.019</ele>
        <time>2013-05-20T16:17:53Z</time>
      </trkpt>
      <trkpt lat="42.886523" lon="-8.509340">
        <ele>276.025</ele>
        <time>2013-05-20T16:18:23Z</time>
      </trkpt>
      <trkpt lat="42.886518" lon="-8.509481">
        <ele>268.051</ele>
        <time>2013-05-20T16:18:30Z</time>
      </trkpt>
      <trkpt lat="42.886524" lon="-8.509610">
        <ele>273.064</ele>
        <time>2013-05-20T16:18:37Z</time>
      </trkpt>
      <trkpt lat="42.886507" lon="-8.509755">
        <ele>273.053</ele>
        <time>2013-05-20T16:18:44Z</time>
      </trkpt>
      <trkpt lat="42.886544" lon="-8.509869">
        <ele>274.032</ele>
        <time>2013-05-20T16:18:50Z</time>
      </trkpt>
      <trkpt lat="42.886541" lon="-8.509994">
        <ele>275.075</ele>
        <time>2013-05-20T16:18:57Z</time>
      </trkpt>
      <trkpt lat="42.886470" lon="-8.510078">
        <ele>275.028</ele>
        <time>2013-05-20T16:19:04Z</time>
      </trkpt>
      <trkpt lat="42.886455" lon="-8.510163">
        <ele>278.020</ele>
        <time>2013-05-20T16:19:14Z</time>
      </trkpt>
      <trkpt lat="42.886385" lon="-8.510250">
        <ele>275.007</ele>
        <time>2013-05-20T16:19:22Z</time>
      </trkpt>
      <trkpt lat="42.886319" lon="-8.510344">
        <ele>274.031</ele>
        <time>2013-05-20T16:19:30Z</time>
      </trkpt>
      <trkpt lat="42.886250" lon="-8.510428">
        <ele>277.022</ele>
        <time>2013-05-20T16:19:37Z</time>
      </trkpt>
      <trkpt lat="42.886235" lon="-8.510561">
        <ele>282.048</ele>
        <time>2013-05-20T16:19:43Z</time>
      </trkpt>
      <trkpt lat="42.886226" lon="-8.510687">
        <ele>285.034</ele>
        <time>2013-05-20T16:19:51Z</time>
      </trkpt>
      <trkpt lat="42.886243" lon="-8.510750">
        <ele>285.087</ele>
        <time>2013-05-20T16:20:01Z</time>
      </trkpt>
      <trkpt lat="42.886214" lon="-8.510878">
        <ele>281.056</ele>
        <time>2013-05-20T16:20:09Z</time>
      </trkpt>
      <trkpt lat="42.886276" lon="-8.510993">
        <ele>279.025</ele>
        <time>2013-05-20T16:20:18Z</time>
      </trkpt>
      <trkpt lat="42.886338" lon="-8.511095">
        <ele>281.075</ele>
        <time>2013-05-20T16:20:26Z</time>
      </trkpt>
      <trkpt lat="42.886373" lon="-8.511226">
        <ele>281.028</ele>
        <time>2013-05-20T16:20:35Z</time>
      </trkpt>
      <trkpt lat="42.886408" lon="-8.511342">
        <ele>282.020</ele>
        <time>2013-05-20T16:20:41Z</time>
      </trkpt>
      <trkpt lat="42.886452" lon="-8.511465">
        <ele>282.007</ele>
        <time>2013-05-20T16:20:48Z</time>
      </trkpt>
      <trkpt lat="42.886437" lon="-8.511598">
        <ele>279.021</ele>
        <time>2013-05-20T16:20:54Z</time>
      </trkpt>
      <trkpt lat="42.886449" lon="-8.511735">
        <ele>279.042</ele>
        <time>2013-05-20T16:21:01Z</time>
      </trkpt>
      <trkpt lat="42.886452" lon="-8.511861">
        <ele>280.058</ele>
        <time>2013-05-20T16:21:08Z</time>
      </trkpt>
      <trkpt lat="42.886448" lon="-8.512000">
        <ele>281.034</ele>
        <time>2013-05-20T16:21:17Z</time>
      </trkpt>
      <trkpt lat="42.886427" lon="-8.512124">
        <ele>279.047</ele>
        <time>2013-05-20T16:21:24Z</time>
      </trkpt>
      <trkpt lat="42.886459" lon="-8.512244">
        <ele>280.016</ele>
        <time>2013-05-20T16:21:29Z</time>
      </trkpt>
      <trkpt lat="42.886442" lon="-8.512371">
        <ele>277.045</ele>
        <time>2013-05-20T16:21:37Z</time>
      </trkpt>
      <trkpt lat="42.886424" lon="-8.512486">
        <ele>280.043</ele>
        <time>2013-05-20T16:21:47Z</time>
      </trkpt>
      <trkpt lat="42.886409" lon="-8.512622">
        <ele>276.064</ele>
        <time>2013-05-20T16:21:55Z</time>
      </trkpt>
      <trkpt lat="42.886414" lon="-8.512753">
        <ele>277.010</ele>
        <time>2013-05-20T16:22:02Z</time>
      </trkpt>
      <trkpt lat="42.886373" lon="-8.512874">
        <ele>279.007</ele>
        <time>2013-05-20T16:22:11Z</time>
      </trkpt>
      <trkpt lat="42.886359" lon="-8.513008">
        <ele>283.068</ele>
        <time>2013-05-20T16:22:21Z</time>
      </trkpt>
      <trkpt lat="42.886361" lon="-8.513144">
        <ele>283.089</ele>
        <time>2013-05-20T16:22:29Z</time>
      </trkpt>
      <trkpt lat="42.886362" lon="-8.513277">
        <ele>282.045</ele>
        <time>2013-05-20T16:22:33Z</time>
      </trkpt>
      <trkpt lat="42.886371" lon="-8.513400">
        <ele>282.031</ele>
        <time>2013-05-20T16:22:42Z</time>
      </trkpt>
      <trkpt lat="42.886366" lon="-8.513530">
        <ele>280.014</ele>
        <time>2013-05-20T16:22:50Z</time>
      </trkpt>
      <trkpt lat="42.886331" lon="-8.513650">
        <ele>279.033</ele>
        <time>2013-05-20T16:22:59Z</time>
      </trkpt>
      <trkpt lat="42.886348" lon="-8.513781">
        <ele>280.092</ele>
        <time>2013-05-20T16:23:06Z</time>
      </trkpt>
      <trkpt lat="42.886340" lon="-8.513924">
        <ele>280.059</ele>
        <time>2013-05-20T16:23:14Z</time>
      </trkpt>
      <trkpt lat="42.886328" lon="-8.514054">
        <ele>278.003</ele>
        <time>2013-05-20T16:23:22Z</time>
      </trkpt>
      <trkpt lat="42.886336" lon="-8.514196">
        <ele>279.023</ele>
        <time>2013-05-20T16:23:29Z</time>
      </trkpt>
      <trkpt lat="42.886327" lon="-8.514326">
        <ele>282.007</ele>
        <time>2013-05-20T16:23:37Z</time>
      </trkpt>
      <trkpt lat="42.886341" lon="-8.514456">
        <ele>281.019</ele>
        <time>2013-05-20T16:23:45Z</time>
      </trkpt>
      <trkpt lat="42.886340" lon="-8.514587">
        <ele>284.050</ele>
        <time>2013-05-20T16:23:54Z</time>
      </trkpt>
      <trkpt lat="42.886347" lon="-8.514726">
        <ele>283.086</ele>
        <time>2013-05-20T16:24:01Z</time>
      </trkpt>
      <trkpt lat="42.886322" lon="-8.514850">
        <ele>283.042</ele>
        <time>2013-05-20T16:24:10Z</time>
      </trkpt>
      <trkpt lat="42.886311" lon="-8.514976">
        <ele>287.025</ele>
        <time>2013-05-20T16:24:17Z</time>
      </trkpt>
      <trkpt lat="42.886310" lon="-8.515106">
        <ele>287.034</ele>
        <time>2013-05-20T16:24:25Z</time>
      </trkpt>
      <trkpt lat="42.886324" lon="-8.515229">
        <ele>290.033</ele>
        <time>2013-05-20T16:24:31Z</time>
      </trkpt>
      <trkpt lat="42.886330" lon="-8.515357">
        <ele>291.029</ele>
        <time>2013-05-20T16:24:39Z</time>
      </trkpt>
      <trkpt lat="42.886335" lon="-8.515490">
        <ele>289.000</ele>
        <time>2013-05-20T16:24:48Z</time>
      </trkpt>
      <trkpt lat="42.886319" lon="-8.515615">
        <ele>291.020</ele>
        <time>2013-05-20T16:24:56Z</time>
      </trkpt>
      <trkpt lat="42.886320" lon="-8.515740">
        <ele>291.007</ele>
        <time>2013-05-20T16:25:04Z</time>
      </trkpt>
      <trkpt lat="42.886329" lon="-8.515867">
        <ele>291.076</ele>
        <time>2013-05-20T16:25:11Z</time>
      </trkpt>
      <trkpt lat="42.886333" lon="-8.516001">
        <ele>293.047</ele>
        <time>2013-05-20T16:25:18Z</time>
      </trkpt>
      <trkpt lat="42.886360" lon="-8.516128">
        <ele>295.063</ele>
        <time>2013-05-20T16:25:23Z</time>
      </trkpt>
      <trkpt lat="42.886376" lon="-8.516261">
        <ele>292.049</ele>
        <time>2013-05-20T16:25:33Z</time>
      </trkpt>
      <trkpt lat="42.886372" lon="-8.516387">
        <ele>294.022</ele>
        <time>2013-05-20T16:25:40Z</time>
      </trkpt>
      <trkpt lat="42.886386" lon="-8.516510">
        <ele>296.081</ele>
        <time>2013-05-20T16:25:48Z</time>
      </trkpt>
      <trkpt lat="42.886348" lon="-8.516632">
        <ele>298.010</ele>
        <time>2013-05-20T16:25:56Z</time>
      </trkpt>
      <trkpt lat="42.886351" lon="-8.516759">
        <ele>294.084</ele>
        <time>2013-05-20T16:26:06Z</time>
      </trkpt>
      <trkpt lat="42.886346" lon="-8.516845">
        <ele>297.007</ele>
        <time>2013-05-20T16:26:16Z</time>
      </trkpt>
      <trkpt lat="42.886324" lon="-8.516901">
        <ele>294.017</ele>
        <time>2013-05-20T16:26:26Z</time>
      </trkpt>
      <trkpt lat="42.886315" lon="-8.517027">
        <ele>296.007</ele>
        <time>2013-05-20T16:26:30Z</time>
      </trkpt>
      <trkpt lat="42.886329" lon="-8.517155">
        <ele>298.022</ele>
        <time>2013-05-20T16:26:35Z</time>
      </trkpt>
      <trkpt lat="42.886398" lon="-8.517241">
        <ele>296.053</ele>
        <time>2013-05-20T16:26:42Z</time>
      </trkpt>
      <trkpt lat="42.886477" lon="-8.517303">
        <ele>300.089</ele>
        <time>2013-05-20T16:26:47Z</time>
      </trkpt>
      <trkpt lat="42.886498" lon="-8.517437">
        <ele>300.095</ele>
        <time>2013-05-20T16:26:55Z</time>
      </trkpt>
      <trkpt lat="42.886506" lon="-8.517563">
        <ele>294.088</ele>
        <time>2013-05-20T16:27:01Z</time>
      </trkpt>
      <trkpt lat="42.886501" lon="-8.517692">
        <ele>293.077</ele>
        <time>2013-05-20T16:27:07Z</time>
      </trkpt>
      <trkpt lat="42.886505" lon="-8.517816">
        <ele>297.096</ele>
        <time>2013-05-20T16:27:14Z</time>
      </trkpt>
      <trkpt lat="42.886546" lon="-8.517930">
        <ele>301.017</ele>
        <time>2013-05-20T16:27:21Z</time>
      </trkpt>
      <trkpt lat="42.886587" lon="-8.518049">
        <ele>302.087</ele>
        <time>2013-05-20T16:27:29Z</time>
      </trkpt>
      <trkpt lat="42.886608" lon="-8.518157">
        <ele>305.015</ele>
        <time>2013-05-20T16:27:39Z</time>
      </trkpt>
      <trkpt lat="42.886669" lon="-8.518252">
        <ele>307.007</ele>
        <time>2013-05-20T16:27:47Z</time>
      </trkpt>
      <trkpt lat="42.886697" lon="-8.518380">
        <ele>305.065</ele>
        <time>2013-05-20T16:27:54Z</time>
      </trkpt>
      <trkpt lat="42.886715" lon="-8.518512">
        <ele>306.016</ele>
        <time>2013-05-20T16:28:00Z</time>
      </trkpt>
      <trkpt lat="42.886757" lon="-8.518644">
        <ele>305.052</ele>
        <time>2013-05-20T16:28:08Z</time>
      </trkpt>
      <trkpt lat="42.886790" lon="-8.518772">
        <ele>305.018</ele>
        <time>2013-05-20T16:28:14Z</time>
      </trkpt>
      <trkpt lat="42.886740" lon="-8.518893">
        <ele>303.011</ele>
        <time>2013-05-20T16:28:21Z</time>
      </trkpt>
      <trkpt lat="42.886723" lon="-8.519017">
        <ele>304.010</ele>
        <time>2013-05-20T16:28:28Z</time>
      </trkpt>
      <trkpt lat="42.886710" lon="-8.519146">
        <ele>303.019</ele>
        <time>2013-05-20T16:28:37Z</time>
      </trkpt>
      <trkpt lat="42.886714" lon="-8.519277">
        <ele>305.098</ele>
        <time>2013-05-20T16:28:45Z</time>
      </trkpt>
      <trkpt lat="42.886755" lon="-8.519400">
        <ele>302.015</ele>
        <time>2013-05-20T16:28:53Z</time>
      </trkpt>
      <trkpt lat="42.886764" lon="-8.519528">
        <ele>299.026</ele>
        <time>2013-05-20T16:29:00Z</time>
      </trkpt>
      <trkpt lat="42.886756" lon="-8.519655">
        <ele>302.007</ele>
        <time>2013-05-20T16:29:10Z</time>
      </trkpt>
      <trkpt lat="42.886723" lon="-8.519772">
        <ele>303.023</ele>
        <time>2013-05-20T16:29:16Z</time>
      </trkpt>
      <trkpt lat="42.886739" lon="-8.519896">
        <ele>303.064</ele>
        <time>2013-05-20T16:29:22Z</time>
      </trkpt>
      <trkpt lat="42.886755" lon="-8.520020">
        <ele>301.020</ele>
        <time>2013-05-20T16:29:30Z</time>
      </trkpt>
      <trkpt lat="42.886729" lon="-8.520108">
        <ele>302.066</ele>
        <time>2013-05-20T16:29:40Z</time>
      </trkpt>
      <trkpt lat="42.886770" lon="-8.520242">
        <ele>300.069</ele>
        <time>2013-05-20T16:29:49Z</time>
      </trkpt>
      <trkpt lat="42.886849" lon="-8.520315">
        <ele>299.028</ele>
        <time>2013-05-20T16:29:54Z</time>
      </trkpt>
      <trkpt lat="42.886890" lon="-8.520443">
        <ele>299.077</ele>
        <time>2013-05-20T16:30:01Z</time>
      </trkpt>
      <trkpt lat="42.886869" lon="-8.520567">
        <ele>298.021</ele>
        <time>2013-05-20T16:30:09Z</time>
      </trkpt>
      <trkpt lat="42.886889" lon="-8.520696">
        <ele>295.041</ele>
        <time>2013-05-20T16:30:17Z</time>
      </trkpt>
      <trkpt lat="42.886943" lon="-8.520807">
        <ele>300.005</ele>
        <time>2013-05-20T16:30:24Z</time>
      </trkpt>
      <trkpt lat="42.886978" lon="-8.520929">
        <ele>304.007</ele>
        <time>2013-05-20T16:30:31Z</time>
      </trkpt>
      <trkpt lat="42.887022" lon="-8.521042">
        <ele>303.036</ele>
        <time>2013-05-20T16:30:37Z</time>
      </trkpt>
      <trkpt lat="42.887012" lon="-8.521177">
        <ele>298.067</ele>
        <time>2013-05-20T16:30:45Z</time>
      </trkpt>
      <trkpt lat="42.887029" lon="-8.521315">
        <ele>300.053</ele>
        <time>2013-05-20T16:30:53Z</time>
      </trkpt>
      <trkpt lat="42.887056" lon="-8.521433">
        <ele>298.049</ele>
        <time>2013-05-20T16:31:00Z</time>
      </trkpt>
      <trkpt lat="42.887079" lon="-8.521563">
        <ele>297.082</ele>
        <time>2013-05-20T16:31:09Z</time>
      </trkpt>
      <trkpt lat="42.887134" lon="-8.521670">
        <ele>300.011</ele>
        <time>2013-05-20T16:31:16Z</time>
      </trkpt>
      <trkpt lat="42.887240" lon="-8.521734">
        <ele>299.040</ele>
        <time>2013-05-20T16:31:21Z</time>
      </trkpt>
      <trkpt lat="42.887309" lon="-8.521818">
        <ele>300.068</ele>
        <time>2013-05-20T16:31:27Z</time>
      </trkpt>
      <trkpt lat="42.887273" lon="-8.521951">
        <ele>300.042</ele>
        <time>2013-05-20T16:31:35Z</time>
      </trkpt>
      <trkpt lat="42.887290" lon="-8.522089">
        <ele>302.026</ele>
        <time>2013-05-20T16:31:45Z</time>
      </trkpt>
      <trkpt lat="42.887342" lon="-8.522207">
        <ele>302.007</ele>
        <time>2013-05-20T16:31:51Z</time>
      </trkpt>
      <trkpt lat="42.887283" lon="-8.522316">
        <ele>301.010</ele>
        <time>2013-05-20T16:31:57Z</time>
      </trkpt>
      <trkpt lat="42.887306" lon="-8.522445">
        <ele>303.091</ele>
        <time>2013-05-20T16:32:05Z</time>
      </trkpt>
      <trkpt lat="42.887368" lon="-8.522555">
        <ele>304.037</ele>
        <time>2013-05-20T16:32:12Z</time>
      </trkpt>
      <trkpt lat="42.887441" lon="-8.522638">
        <ele>303.073</ele>
        <time>2013-05-20T16:32:20Z</time>
      </trkpt>
      <trkpt lat="42.887513" lon="-8.522721">
        <ele>303.026</ele>
        <time>2013-05-20T16:32:30Z</time>
      </trkpt>
      <trkpt lat="42.887550" lon="-8.522825">
        <ele>304.065</ele>
        <time>2013-05-20T16:32:40Z</time>
      </trkpt>
      <trkpt lat="42.887563" lon="-8.522963">
        <ele>306.084</ele>
        <time>2013-05-20T16:32:49Z</time>
      </trkpt>
      <trkpt lat="42.887564" lon="-8.523108">
        <ele>308.071</ele>
        <time>2013-05-20T16:32:55Z</time>
      </trkpt>
      <trkpt lat="42.887543" lon="-8.523243">
        <ele>303.041</ele>
        <time>2013-05-20T16:32:59Z</time>
      </trkpt>
      <trkpt lat="42.887488" lon="-8.523396">
        <ele>304.015</ele>
        <time>2013-05-20T16:33:02Z</time>
      </trkpt>
      <trkpt lat="42.887446" lon="-8.523510">
        <ele>303.007</ele>
        <time>2013-05-20T16:33:05Z</time>
      </trkpt>
      <trkpt lat="42.887390" lon="-8.523613">
        <ele>302.051</ele>
        <time>2013-05-20T16:33:08Z</time>
      </trkpt>
      <trkpt lat="42.887315" lon="-8.523696">
        <ele>304.052</ele>
        <time>2013-05-20T16:33:12Z</time>
      </trkpt>
      <trkpt lat="42.887263" lon="-8.523801">
        <ele>301.048</ele>
        <time>2013-05-20T16:33:17Z</time>
      </trkpt>
      <trkpt lat="42.887303" lon="-8.523860">
        <ele>302.054</ele>
        <time>2013-05-20T16:33:27Z</time>
      </trkpt>
      <trkpt lat="42.887322" lon="-8.523963">
        <ele>296.087</ele>
        <time>2013-05-20T16:33:37Z</time>
      </trkpt>
      <trkpt lat="42.887314" lon="-8.524026">
        <ele>294.076</ele>
        <time>2013-05-20T16:33:47Z</time>
      </trkpt>
      <trkpt lat="42.887321" lon="-8.524090">
        <ele>294.095</ele>
        <time>2013-05-20T16:33:57Z</time>
      </trkpt>
      <trkpt lat="42.887327" lon="-8.524235">
        <ele>293.052</ele>
        <time>2013-05-20T16:34:01Z</time>
      </trkpt>
      <trkpt lat="42.887344" lon="-8.524374">
        <ele>291.053</ele>
        <time>2013-05-20T16:34:06Z</time>
      </trkpt>
      <trkpt lat="42.887436" lon="-8.524672">
        <ele>289.008</ele>
        <time>2013-05-20T16:34:11Z</time>
      </trkpt>
      <trkpt lat="42.887346" lon="-8.524683">
        <ele>290.007</ele>
        <time>2013-05-20T16:34:17Z</time>
      </trkpt>
      <trkpt lat="42.887323" lon="-8.524818">
        <ele>291.099</ele>
        <time>2013-05-20T16:34:23Z</time>
      </trkpt>
      <trkpt lat="42.887325" lon="-8.524947">
        <ele>290.090</ele>
        <time>2013-05-20T16:34:32Z</time>
      </trkpt>
      <trkpt lat="42.887311" lon="-8.525073">
        <ele>292.036</ele>
        <time>2013-05-20T16:34:41Z</time>
      </trkpt>
      <trkpt lat="42.887306" lon="-8.525202">
        <ele>291.052</ele>
        <time>2013-05-20T16:34:47Z</time>
      </trkpt>
      <trkpt lat="42.887324" lon="-8.525317">
        <ele>290.095</ele>
        <time>2013-05-20T16:34:57Z</time>
      </trkpt>
      <trkpt lat="42.887309" lon="-8.525460">
        <ele>291.094</ele>
        <time>2013-05-20T16:35:03Z</time>
      </trkpt>
      <trkpt lat="42.887293" lon="-8.525584">
        <ele>294.023</ele>
        <time>2013-05-20T16:35:13Z</time>
      </trkpt>
      <trkpt lat="42.887249" lon="-8.525691">
        <ele>295.027</ele>
        <time>2013-05-20T16:35:20Z</time>
      </trkpt>
      <trkpt lat="42.887196" lon="-8.525812">
        <ele>295.068</ele>
        <time>2013-05-20T16:35:26Z</time>
      </trkpt>
      <trkpt lat="42.887151" lon="-8.525931">
        <ele>294.014</ele>
        <time>2013-05-20T16:35:33Z</time>
      </trkpt>
      <trkpt lat="42.887084" lon="-8.526027">
        <ele>293.007</ele>
        <time>2013-05-20T16:35:41Z</time>
      </trkpt>
      <trkpt lat="42.887031" lon="-8.526142">
        <ele>293.016</ele>
        <time>2013-05-20T16:35:50Z</time>
      </trkpt>
      <trkpt lat="42.886989" lon="-8.526270">
        <ele>296.027</ele>
        <time>2013-05-20T16:35:59Z</time>
      </trkpt>
      <trkpt lat="42.886969" lon="-8.526416">
        <ele>295.013</ele>
        <time>2013-05-20T16:36:07Z</time>
      </trkpt>
      <trkpt lat="42.886900" lon="-8.526490">
        <ele>287.029</ele>
        <time>2013-05-20T16:36:17Z</time>
      </trkpt>
      <trkpt lat="42.886830" lon="-8.526575">
        <ele>286.092</ele>
        <time>2013-05-20T16:36:25Z</time>
      </trkpt>
      <trkpt lat="42.886784" lon="-8.526692">
        <ele>288.041</ele>
        <time>2013-05-20T16:36:30Z</time>
      </trkpt>
      <trkpt lat="42.886759" lon="-8.526820">
        <ele>290.030</ele>
        <time>2013-05-20T16:36:34Z</time>
      </trkpt>
      <trkpt lat="42.886708" lon="-8.526804">
        <ele>289.046</ele>
        <time>2013-05-20T16:36:52Z</time>
      </trkpt>
      <trkpt lat="42.886646" lon="-8.526908">
        <ele>288.088</ele>
        <time>2013-05-20T16:37:02Z</time>
      </trkpt>
      <trkpt lat="42.886623" lon="-8.526990">
        <ele>289.016</ele>
        <time>2013-05-20T16:37:12Z</time>
      </trkpt>
      <trkpt lat="42.886557" lon="-8.527091">
        <ele>289.007</ele>
        <time>2013-05-20T16:37:20Z</time>
      </trkpt>
      <trkpt lat="42.886467" lon="-8.527065">
        <ele>287.058</ele>
        <time>2013-05-20T16:37:26Z</time>
      </trkpt>
      <trkpt lat="42.886369" lon="-8.527045">
        <ele>289.049</ele>
        <time>2013-05-20T16:37:32Z</time>
      </trkpt>
      <trkpt lat="42.886313" lon="-8.527055">
        <ele>282.095</ele>
        <time>2013-05-20T16:38:01Z</time>
      </trkpt>
      <trkpt lat="42.886268" lon="-8.527154">
        <ele>288.071</ele>
        <time>2013-05-20T16:38:11Z</time>
      </trkpt>
      <trkpt lat="42.886287" lon="-8.527285">
        <ele>286.094</ele>
        <time>2013-05-20T16:38:19Z</time>
      </trkpt>
      <trkpt lat="42.886309" lon="-8.527408">
        <ele>287.073</ele>
        <time>2013-05-20T16:38:24Z</time>
      </trkpt>
      <trkpt lat="42.886333" lon="-8.527532">
        <ele>283.012</ele>
        <time>2013-05-20T16:38:34Z</time>
      </trkpt>
      <trkpt lat="42.886305" lon="-8.527665">
        <ele>282.089</ele>
        <time>2013-05-20T16:38:44Z</time>
      </trkpt>
      <trkpt lat="42.886294" lon="-8.527798">
        <ele>284.006</ele>
        <time>2013-05-20T16:38:51Z</time>
      </trkpt>
      <trkpt lat="42.886265" lon="-8.527933">
        <ele>284.026</ele>
        <time>2013-05-20T16:38:59Z</time>
      </trkpt>
      <trkpt lat="42.886225" lon="-8.528059">
        <ele>288.007</ele>
        <time>2013-05-20T16:39:05Z</time>
      </trkpt>
      <trkpt lat="42.886270" lon="-8.528170">
        <ele>283.012</ele>
        <time>2013-05-20T16:39:15Z</time>
      </trkpt>
      <trkpt lat="42.886224" lon="-8.528276">
        <ele>284.053</ele>
        <time>2013-05-20T16:39:22Z</time>
      </trkpt>
      <trkpt lat="42.886220" lon="-8.528404">
        <ele>287.099</ele>
        <time>2013-05-20T16:39:28Z</time>
      </trkpt>
      <trkpt lat="42.886203" lon="-8.528531">
        <ele>291.095</ele>
        <time>2013-05-20T16:39:36Z</time>
      </trkpt>
      <trkpt lat="42.886186" lon="-8.528669">
        <ele>290.068</ele>
        <time>2013-05-20T16:39:43Z</time>
      </trkpt>
      <trkpt lat="42.886196" lon="-8.528818">
        <ele>289.077</ele>
        <time>2013-05-20T16:39:52Z</time>
      </trkpt>
      <trkpt lat="42.886160" lon="-8.528953">
        <ele>292.026</ele>
        <time>2013-05-20T16:39:56Z</time>
      </trkpt>
      <trkpt lat="42.886104" lon="-8.529056">
        <ele>293.062</ele>
        <time>2013-05-20T16:40:00Z</time>
      </trkpt>
      <trkpt lat="42.886118" lon="-8.529181">
        <ele>298.083</ele>
        <time>2013-05-20T16:40:06Z</time>
      </trkpt>
      <trkpt lat="42.886148" lon="-8.529233">
        <ele>295.011</ele>
        <time>2013-05-20T16:40:18Z</time>
      </trkpt>
      <trkpt lat="42.886196" lon="-8.529326">
        <ele>291.007</ele>
        <time>2013-05-20T16:40:34Z</time>
      </trkpt>
      <trkpt lat="42.886150" lon="-8.529450">
        <ele>290.030</ele>
        <time>2013-05-20T16:40:40Z</time>
      </trkpt>
      <trkpt lat="42.886108" lon="-8.529568">
        <ele>292.021</ele>
        <time>2013-05-20T16:40:47Z</time>
      </trkpt>
      <trkpt lat="42.886100" lon="-8.529698">
        <ele>293.087</ele>
        <time>2013-05-20T16:40:55Z</time>
      </trkpt>
      <trkpt lat="42.886062" lon="-8.529824">
        <ele>291.033</ele>
        <time>2013-05-20T16:41:03Z</time>
      </trkpt>
      <trkpt lat="42.886053" lon="-8.529970">
        <ele>291.016</ele>
        <time>2013-05-20T16:41:11Z</time>
      </trkpt>
      <trkpt lat="42.886019" lon="-8.530096">
        <ele>292.045</ele>
        <time>2013-05-20T16:41:17Z</time>
      </trkpt>
      <trkpt lat="42.885981" lon="-8.530239">
        <ele>292.094</ele>
        <time>2013-05-20T16:41:25Z</time>
      </trkpt>
      <trkpt lat="42.885979" lon="-8.530367">
        <ele>293.027</ele>
        <time>2013-05-20T16:41:29Z</time>
      </trkpt>
      <trkpt lat="42.885910" lon="-8.530453">
        <ele>291.068</ele>
        <time>2013-05-20T16:41:39Z</time>
      </trkpt>
      <trkpt lat="42.885854" lon="-8.530517">
        <ele>291.014</ele>
        <time>2013-05-20T16:41:49Z</time>
      </trkpt>
      <trkpt lat="42.885789" lon="-8.530609">
        <ele>289.007</ele>
        <time>2013-05-20T16:41:55Z</time>
      </trkpt>
      <trkpt lat="42.885711" lon="-8.530701">
        <ele>288.026</ele>
        <time>2013-05-20T16:42:04Z</time>
      </trkpt>
      <trkpt lat="42.885646" lon="-8.530802">
        <ele>287.077</ele>
        <time>2013-05-20T16:42:12Z</time>
      </trkpt>
      <trkpt lat="42.885563" lon="-8.530873">
        <ele>285.043</ele>
        <time>2013-05-20T16:42:20Z</time>
      </trkpt>
      <trkpt lat="42.885483" lon="-8.530946">
        <ele>282.039</ele>
        <time>2013-05-20T16:42:29Z</time>
      </trkpt>
      <trkpt lat="42.885439" lon="-8.531066">
        <ele>284.012</ele>
        <time>2013-05-20T16:42:36Z</time>
      </trkpt>
      <trkpt lat="42.885379" lon="-8.531165">
        <ele>282.071</ele>
        <time>2013-05-20T16:42:44Z</time>
      </trkpt>
      <trkpt lat="42.885307" lon="-8.531254">
        <ele>284.040</ele>
        <time>2013-05-20T16:42:54Z</time>
      </trkpt>
      <trkpt lat="42.885232" lon="-8.531335">
        <ele>283.017</ele>
        <time>2013-05-20T16:43:04Z</time>
      </trkpt>
      <trkpt lat="42.885197" lon="-8.531464">
        <ele>282.087</ele>
        <time>2013-05-20T16:43:13Z</time>
      </trkpt>
      <trkpt lat="42.885148" lon="-8.531580">
        <ele>280.015</ele>
        <time>2013-05-20T16:43:22Z</time>
      </trkpt>
      <trkpt lat="42.885096" lon="-8.531696">
        <ele>280.007</ele>
        <time>2013-05-20T16:43:32Z</time>
      </trkpt>
      <trkpt lat="42.885075" lon="-8.531822">
        <ele>280.035</ele>
        <time>2013-05-20T16:43:39Z</time>
      </trkpt>
      <trkpt lat="42.885080" lon="-8.531957">
        <ele>280.046</ele>
        <time>2013-05-20T16:43:47Z</time>
      </trkpt>
      <trkpt lat="42.885114" lon="-8.532055">
        <ele>282.072</ele>
        <time>2013-05-20T16:43:57Z</time>
      </trkpt>
      <trkpt lat="42.885169" lon="-8.532164">
        <ele>282.018</ele>
        <time>2013-05-20T16:44:03Z</time>
      </trkpt>
      <trkpt lat="42.885228" lon="-8.532267">
        <ele>283.021</ele>
        <time>2013-05-20T16:44:10Z</time>
      </trkpt>
      <trkpt lat="42.885261" lon="-8.532388">
        <ele>288.090</ele>
        <time>2013-05-20T16:44:17Z</time>
      </trkpt>
      <trkpt lat="42.885322" lon="-8.532494">
        <ele>291.069</ele>
        <time>2013-05-20T16:44:24Z</time>
      </trkpt>
      <trkpt lat="42.885363" lon="-8.532530">
        <ele>292.065</ele>
        <time>2013-05-20T16:44:34Z</time>
      </trkpt>
      <trkpt lat="42.885377" lon="-8.532678">
        <ele>290.068</ele>
        <time>2013-05-20T16:44:44Z</time>
      </trkpt>
      <trkpt lat="42.885387" lon="-8.532823">
        <ele>287.014</ele>
        <time>2013-05-20T16:44:48Z</time>
      </trkpt>
      <trkpt lat="42.885390" lon="-8.532946">
        <ele>288.007</ele>
        <time>2013-05-20T16:44:52Z</time>
      </trkpt>
      <trkpt lat="42.885339" lon="-8.533056">
        <ele>291.080</ele>
        <time>2013-05-20T16:44:58Z</time>
      </trkpt>
      <trkpt lat="42.885266" lon="-8.533151">
        <ele>289.031</ele>
        <time>2013-05-20T16:45:04Z</time>
      </trkpt>
      <trkpt lat="42.885206" lon="-8.533254">
        <ele>288.057</ele>
        <time>2013-05-20T16:45:09Z</time>
      </trkpt>
      <trkpt lat="42.885131" lon="-8.533348">
        <ele>286.093</ele>
        <time>2013-05-20T16:45:16Z</time>
      </trkpt>
      <trkpt lat="42.885022" lon="-8.533393">
        <ele>295.076</ele>
        <time>2013-05-20T16:45:21Z</time>
      </trkpt>
      <trkpt lat="42.884928" lon="-8.533449">
        <ele>291.015</ele>
        <time>2013-05-20T16:45:26Z</time>
      </trkpt>
      <trkpt lat="42.884839" lon="-8.533495">
        <ele>282.034</ele>
        <time>2013-05-20T16:45:33Z</time>
      </trkpt>
      <trkpt lat="42.884739" lon="-8.533492">
        <ele>278.087</ele>
        <time>2013-05-20T16:45:39Z</time>
      </trkpt>
      <trkpt lat="42.884662" lon="-8.533385">
        <ele>279.042</ele>
        <time>2013-05-20T16:45:46Z</time>
      </trkpt>
      <trkpt lat="42.884602" lon="-8.533289">
        <ele>277.026</ele>
        <time>2013-05-20T16:45:55Z</time>
      </trkpt>
      <trkpt lat="42.884506" lon="-8.533243">
        <ele>276.007</ele>
        <time>2013-05-20T16:46:02Z</time>
      </trkpt>
      <trkpt lat="42.884429" lon="-8.533173">
        <ele>275.032</ele>
        <time>2013-05-20T16:46:10Z</time>
      </trkpt>
      <trkpt lat="42.884359" lon="-8.533081">
        <ele>273.083</ele>
        <time>2013-05-20T16:46:18Z</time>
      </trkpt>
      <trkpt lat="42.884397" lon="-8.533026">
        <ele>270.079</ele>
        <time>2013-05-20T16:46:37Z</time>
      </trkpt>
      <trkpt lat="42.884302" lon="-8.533047">
        <ele>273.055</ele>
        <time>2013-05-20T16:46:42Z</time>
      </trkpt>
      <trkpt lat="42.884226" lon="-8.533116">
        <ele>271.048</ele>
        <time>2013-05-20T16:46:45Z</time>
      </trkpt>
      <trkpt lat="42.884179" lon="-8.533231">
        <ele>272.067</ele>
        <time>2013-05-20T16:46:50Z</time>
      </trkpt>
      <trkpt lat="42.884206" lon="-8.533348">
        <ele>272.026</ele>
        <time>2013-05-20T16:46:59Z</time>
      </trkpt>
      <trkpt lat="42.884205" lon="-8.533493">
        <ele>273.076</ele>
        <time>2013-05-20T16:47:06Z</time>
      </trkpt>
      <trkpt lat="42.884225" lon="-8.533619">
        <ele>275.090</ele>
        <time>2013-05-20T16:47:14Z</time>
      </trkpt>
      <trkpt lat="42.884285" lon="-8.533690">
        <ele>274.019</ele>
        <time>2013-05-20T16:47:24Z</time>
      </trkpt>
      <trkpt lat="42.884377" lon="-8.533709">
        <ele>275.007</ele>
        <time>2013-05-20T16:47:33Z</time>
      </trkpt>
      <trkpt lat="42.884409" lon="-8.533784">
        <ele>277.021</ele>
        <time>2013-05-20T16:47:43Z</time>
      </trkpt>
      <trkpt lat="42.884359" lon="-8.533888">
        <ele>281.042</ele>
        <time>2013-05-20T16:47:51Z</time>
      </trkpt>
      <trkpt lat="42.884286" lon="-8.533978">
        <ele>286.088</ele>
        <time>2013-05-20T16:47:58Z</time>
      </trkpt>
      <trkpt lat="42.884198" lon="-8.534062">
        <ele>288.064</ele>
        <time>2013-05-20T16:48:05Z</time>
      </trkpt>
      <trkpt lat="42.884119" lon="-8.534140">
        <ele>289.057</ele>
        <time>2013-05-20T16:48:12Z</time>
      </trkpt>
      <trkpt lat="42.884047" lon="-8.534234">
        <ele>294.096</ele>
        <time>2013-05-20T16:48:19Z</time>
      </trkpt>
      <trkpt lat="42.884005" lon="-8.534266">
        <ele>295.075</ele>
        <time>2013-05-20T16:48:29Z</time>
      </trkpt>
      <trkpt lat="42.883907" lon="-8.534237">
        <ele>296.087</ele>
        <time>2013-05-20T16:48:37Z</time>
      </trkpt>
      <trkpt lat="42.883811" lon="-8.534258">
        <ele>294.042</ele>
        <time>2013-05-20T16:48:42Z</time>
      </trkpt>
      <trkpt lat="42.883717" lon="-8.534240">
        <ele>291.026</ele>
        <time>2013-05-20T16:48:47Z</time>
      </trkpt>
      <trkpt lat="42.883661" lon="-8.534202">
        <ele>291.007</ele>
        <time>2013-05-20T16:48:57Z</time>
      </trkpt>
      <trkpt lat="42.883627" lon="-8.534080">
        <ele>289.072</ele>
        <time>2013-05-20T16:49:04Z</time>
      </trkpt>
      <trkpt lat="42.883528" lon="-8.534115">
        <ele>293.013</ele>
        <time>2013-05-20T16:49:10Z</time>
      </trkpt>
      <trkpt lat="42.883435" lon="-8.534177">
        <ele>293.089</ele>
        <time>2013-05-20T16:49:15Z</time>
      </trkpt>
      <trkpt lat="42.883342" lon="-8.534182">
        <ele>292.015</ele>
        <time>2013-05-20T16:49:21Z</time>
      </trkpt>
      <trkpt lat="42.883259" lon="-8.534243">
        <ele>294.088</ele>
        <time>2013-05-20T16:49:28Z</time>
      </trkpt>
      <trkpt lat="42.883176" lon="-8.534293">
        <ele>295.027</ele>
        <time>2013-05-20T16:49:33Z</time>
      </trkpt>
      <trkpt lat="42.883091" lon="-8.534372">
        <ele>298.036</ele>
        <time>2013-05-20T16:49:39Z</time>
      </trkpt>
      <trkpt lat="42.882992" lon="-8.534422">
        <ele>297.016</ele>
        <time>2013-05-20T16:49:48Z</time>
      </trkpt>
      <trkpt lat="42.882895" lon="-8.534440">
        <ele>297.076</ele>
        <time>2013-05-20T16:49:56Z</time>
      </trkpt>
      <trkpt lat="42.882793" lon="-8.534478">
        <ele>298.013</ele>
        <time>2013-05-20T16:50:03Z</time>
      </trkpt>
      <trkpt lat="42.882697" lon="-8.534517">
        <ele>298.007</ele>
        <time>2013-05-20T16:50:09Z</time>
      </trkpt>
      <trkpt lat="42.882650" lon="-8.534498">
        <ele>300.075</ele>
        <time>2013-05-20T16:50:25Z</time>
      </trkpt>
      <trkpt lat="42.882563" lon="-8.534524">
        <ele>303.056</ele>
        <time>2013-05-20T16:50:35Z</time>
      </trkpt>
      <trkpt lat="42.882457" lon="-8.534541">
        <ele>304.012</ele>
        <time>2013-05-20T16:50:42Z</time>
      </trkpt>
      <trkpt lat="42.882357" lon="-8.534547">
        <ele>304.078</ele>
        <time>2013-05-20T16:50:49Z</time>
      </trkpt>
      <trkpt lat="42.882259" lon="-8.534586">
        <ele>304.081</ele>
        <time>2013-05-20T16:50:59Z</time>
      </trkpt>
      <trkpt lat="42.882167" lon="-8.534643">
        <ele>304.070</ele>
        <time>2013-05-20T16:51:04Z</time>
      </trkpt>
      <trkpt lat="42.882072" lon="-8.534661">
        <ele>305.069</ele>
        <time>2013-05-20T16:51:08Z</time>
      </trkpt>
      <trkpt lat="42.881992" lon="-8.534742">
        <ele>307.089</ele>
        <time>2013-05-20T16:51:13Z</time>
      </trkpt>
      <trkpt lat="42.881929" lon="-8.534849">
        <ele>307.006</ele>
        <time>2013-05-20T16:51:19Z</time>
      </trkpt>
      <trkpt lat="42.881863" lon="-8.534911">
        <ele>307.026</ele>
        <time>2013-05-20T16:51:29Z</time>
      </trkpt>
      <trkpt lat="42.881773" lon="-8.534923">
        <ele>307.007</ele>
        <time>2013-05-20T16:51:38Z</time>
      </trkpt>
      <trkpt lat="42.881683" lon="-8.534938">
        <ele>309.042</ele>
        <time>2013-05-20T16:51:45Z</time>
      </trkpt>
      <trkpt lat="42.881614" lon="-8.535017">
        <ele>316.063</ele>
        <time>2013-05-20T16:51:52Z</time>
      </trkpt>
      <trkpt lat="42.881662" lon="-8.535135">
        <ele>314.039</ele>
        <time>2013-05-20T16:51:57Z</time>
      </trkpt>
      <trkpt lat="42.881697" lon="-8.535283">
        <ele>299.055</ele>
        <time>2013-05-20T16:52:03Z</time>
      </trkpt>
      <trkpt lat="42.881747" lon="-8.535400">
        <ele>290.048</ele>
        <time>2013-05-20T16:52:09Z</time>
      </trkpt>
      <trkpt lat="42.881759" lon="-8.535522">
        <ele>289.027</ele>
        <time>2013-05-20T16:52:17Z</time>
      </trkpt>
      <trkpt lat="42.881784" lon="-8.535648">
        <ele>286.086</ele>
        <time>2013-05-20T16:52:27Z</time>
      </trkpt>
      <trkpt lat="42.881737" lon="-8.535763">
        <ele>285.055</ele>
        <time>2013-05-20T16:52:34Z</time>
      </trkpt>
      <trkpt lat="42.881703" lon="-8.535883">
        <ele>284.007</ele>
        <time>2013-05-20T16:52:43Z</time>
      </trkpt>
      <trkpt lat="42.881648" lon="-8.535978">
        <ele>284.017</ele>
        <time>2013-05-20T16:52:53Z</time>
      </trkpt>
      <trkpt lat="42.881632" lon="-8.536100">
        <ele>286.007</ele>
        <time>2013-05-20T16:52:59Z</time>
      </trkpt>
      <trkpt lat="42.881623" lon="-8.536225">
        <ele>287.049</ele>
        <time>2013-05-20T16:53:07Z</time>
      </trkpt>
      <trkpt lat="42.881612" lon="-8.536357">
        <ele>288.010</ele>
        <time>2013-05-20T16:53:13Z</time>
      </trkpt>
      <trkpt lat="42.881582" lon="-8.536482">
        <ele>283.086</ele>
        <time>2013-05-20T16:53:20Z</time>
      </trkpt>
      <trkpt lat="42.881584" lon="-8.536404">
        <ele>278.042</ele>
        <time>2013-05-20T16:53:35Z</time>
      </trkpt>
      <trkpt lat="42.881571" lon="-8.536495">
        <ele>281.055</ele>
        <time>2013-05-20T16:53:45Z</time>
      </trkpt>
      <trkpt lat="42.881509" lon="-8.536595">
        <ele>280.064</ele>
        <time>2013-05-20T16:53:54Z</time>
      </trkpt>
      <trkpt lat="42.881497" lon="-8.536685">
        <ele>279.033</ele>
        <time>2013-05-20T16:54:04Z</time>
      </trkpt>
      <trkpt lat="42.881442" lon="-8.536735">
        <ele>279.092</ele>
        <time>2013-05-20T16:54:24Z</time>
      </trkpt>
      <trkpt lat="42.881444" lon="-8.536868">
        <ele>279.073</ele>
        <time>2013-05-20T16:54:28Z</time>
      </trkpt>
      <trkpt lat="42.881434" lon="-8.537002">
        <ele>280.020</ele>
        <time>2013-05-20T16:54:32Z</time>
      </trkpt>
      <trkpt lat="42.881408" lon="-8.537121">
        <ele>282.007</ele>
        <time>2013-05-20T16:54:37Z</time>
      </trkpt>
      <trkpt lat="42.881353" lon="-8.537209">
        <ele>282.013</ele>
        <time>2013-05-20T16:54:47Z</time>
      </trkpt>
      <trkpt lat="42.881329" lon="-8.537342">
        <ele>281.084</ele>
        <time>2013-05-20T16:54:56Z</time>
      </trkpt>
      <trkpt lat="42.881324" lon="-8.537475">
        <ele>282.090</ele>
        <time>2013-05-20T16:55:02Z</time>
      </trkpt>
      <trkpt lat="42.881322" lon="-8.537546">
        <ele>282.066</ele>
        <time>2013-05-20T16:55:13Z</time>
      </trkpt>
      <trkpt lat="42.881323" lon="-8.537684">
        <ele>281.059</ele>
        <time>2013-05-20T16:55:18Z</time>
      </trkpt>
      <trkpt lat="42.881309" lon="-8.537829">
        <ele>282.088</ele>
        <time>2013-05-20T16:55:22Z</time>
      </trkpt>
      <trkpt lat="42.881304" lon="-8.537932">
        <ele>280.067</ele>
        <time>2013-05-20T16:55:32Z</time>
      </trkpt>
      <trkpt lat="42.881255" lon="-8.537997">
        <ele>278.093</ele>
        <time>2013-05-20T16:55:42Z</time>
      </trkpt>
      <trkpt lat="42.881273" lon="-8.538135">
        <ele>277.065</ele>
        <time>2013-05-20T16:55:50Z</time>
      </trkpt>
      <trkpt lat="42.881273" lon="-8.538270">
        <ele>277.021</ele>
        <time>2013-05-20T16:55:59Z</time>
      </trkpt>
      <trkpt lat="42.881320" lon="-8.538292">
        <ele>277.007</ele>
        <time>2013-05-20T16:56:09Z</time>
      </trkpt>
      <trkpt lat="42.881336" lon="-8.538375">
        <ele>277.023</ele>
        <time>2013-05-20T16:56:19Z</time>
      </trkpt>
      <trkpt lat="42.881373" lon="-8.538504">
        <ele>277.084</ele>
        <time>2013-05-20T16:56:24Z</time>
      </trkpt>
      <trkpt lat="42.881460" lon="-8.538585">
        <ele>275.030</ele>
        <time>2013-05-20T16:56:30Z</time>
      </trkpt>
      <trkpt lat="42.881478" lon="-8.538720">
        <ele>275.046</ele>
        <time>2013-05-20T16:56:36Z</time>
      </trkpt>
      <trkpt lat="42.881541" lon="-8.538817">
        <ele>273.059</ele>
        <time>2013-05-20T16:56:43Z</time>
      </trkpt>
      <trkpt lat="42.881509" lon="-8.538942">
        <ele>272.088</ele>
        <time>2013-05-20T16:56:51Z</time>
      </trkpt>
      <trkpt lat="42.881520" lon="-8.539075">
        <ele>273.037</ele>
        <time>2013-05-20T16:56:59Z</time>
      </trkpt>
      <trkpt lat="42.881577" lon="-8.539174">
        <ele>274.094</ele>
        <time>2013-05-20T16:57:05Z</time>
      </trkpt>
      <trkpt lat="42.881679" lon="-8.539203">
        <ele>275.057</ele>
        <time>2013-05-20T16:57:11Z</time>
      </trkpt>
      <trkpt lat="42.881758" lon="-8.539268">
        <ele>273.022</ele>
        <time>2013-05-20T16:57:17Z</time>
      </trkpt>
      <trkpt lat="42.881805" lon="-8.539381">
        <ele>271.007</ele>
        <time>2013-05-20T16:57:26Z</time>
      </trkpt>
      <trkpt lat="42.881733" lon="-8.539457">
        <ele>274.023</ele>
        <time>2013-05-20T16:57:33Z</time>
      </trkpt>
      <trkpt lat="42.881801" lon="-8.539562">
        <ele>280.094</ele>
        <time>2013-05-20T16:57:39Z</time>
      </trkpt>
      <trkpt lat="42.881879" lon="-8.539602">
        <ele>278.090</ele>
        <time>2013-05-20T16:57:49Z</time>
      </trkpt>
      <trkpt lat="42.881924" lon="-8.539729">
        <ele>283.016</ele>
        <time>2013-05-20T16:57:58Z</time>
      </trkpt>
      <trkpt lat="42.881962" lon="-8.539863">
        <ele>283.049</ele>
        <time>2013-05-20T16:58:02Z</time>
      </trkpt>
      <trkpt lat="42.881968" lon="-8.539987">
        <ele>281.078</ele>
        <time>2013-05-20T16:58:11Z</time>
      </trkpt>
      <trkpt lat="42.881946" lon="-8.540120">
        <ele>279.077</ele>
        <time>2013-05-20T16:58:20Z</time>
      </trkpt>
      <trkpt lat="42.881949" lon="-8.540255">
        <ele>276.066</ele>
        <time>2013-05-20T16:58:28Z</time>
      </trkpt>
      <trkpt lat="42.881931" lon="-8.540378">
        <ele>279.029</ele>
        <time>2013-05-20T16:58:36Z</time>
      </trkpt>
      <trkpt lat="42.881914" lon="-8.540515">
        <ele>278.021</ele>
        <time>2013-05-20T16:58:44Z</time>
      </trkpt>
      <trkpt lat="42.881893" lon="-8.540583">
        <ele>278.007</ele>
        <time>2013-05-20T16:58:57Z</time>
      </trkpt>
      <trkpt lat="42.881860" lon="-8.540706">
        <ele>278.060</ele>
        <time>2013-05-20T16:59:06Z</time>
      </trkpt>
      <trkpt lat="42.881820" lon="-8.540821">
        <ele>279.051</ele>
        <time>2013-05-20T16:59:14Z</time>
      </trkpt>
      <trkpt lat="42.881852" lon="-8.540943">
        <ele>278.097</ele>
        <time>2013-05-20T16:59:21Z</time>
      </trkpt>
      <trkpt lat="42.881845" lon="-8.541072">
        <ele>278.043</ele>
        <time>2013-05-20T16:59:29Z</time>
      </trkpt>
      <trkpt lat="42.881783" lon="-8.541175">
        <ele>278.056</ele>
        <time>2013-05-20T16:59:36Z</time>
      </trkpt>
      <trkpt lat="42.881759" lon="-8.541298">
        <ele>277.075</ele>
        <time>2013-05-20T16:59:45Z</time>
      </trkpt>
      <trkpt lat="42.881729" lon="-8.541420">
        <ele>277.074</ele>
        <time>2013-05-20T16:59:54Z</time>
      </trkpt>
      <trkpt lat="42.881667" lon="-8.541523">
        <ele>279.049</ele>
        <time>2013-05-20T17:00:02Z</time>
      </trkpt>
      <trkpt lat="42.881682" lon="-8.541624">
        <ele>281.002</ele>
        <time>2013-05-20T17:00:30Z</time>
      </trkpt>
      <trkpt lat="42.881625" lon="-8.541713">
        <ele>283.022</ele>
        <time>2013-05-20T17:00:40Z</time>
      </trkpt>
      <trkpt lat="42.881625" lon="-8.541777">
        <ele>285.007</ele>
        <time>2013-05-20T17:00:50Z</time>
      </trkpt>
      <trkpt lat="42.881623" lon="-8.541562">
        <ele>282.818</ele>
        <time>2013-05-20T17:01:55Z</time>
      </trkpt>
      <trkpt lat="42.881648" lon="-8.541593">
        <ele>279.089</ele>
        <time>2013-05-20T17:02:30Z</time>
      </trkpt>
      <trkpt lat="42.881621" lon="-8.541733">
        <ele>277.275</ele>
        <time>2013-05-20T17:02:46Z</time>
      </trkpt>
      <trkpt lat="42.881597" lon="-8.541892">
        <ele>276.051</ele>
        <time>2013-05-20T17:02:56Z</time>
      </trkpt>
      <trkpt lat="42.881546" lon="-8.541896">
        <ele>274.474</ele>
        <time>2013-05-20T17:03:10Z</time>
      </trkpt>
      <trkpt lat="42.881540" lon="-8.541991">
        <ele>273.543</ele>
        <time>2013-05-20T17:03:23Z</time>
      </trkpt>
      <trkpt lat="42.881171" lon="-8.541986">
        <ele>242.042</ele>
        <time>2013-05-20T17:03:40Z</time>
      </trkpt>
      <trkpt lat="42.881373" lon="-8.542040">
        <ele>249.091</ele>
        <time>2013-05-20T17:03:43Z</time>
      </trkpt>
      <trkpt lat="42.881465" lon="-8.541983">
        <ele>280.081</ele>
        <time>2013-05-20T17:03:50Z</time>
      </trkpt>
      <trkpt lat="42.881502" lon="-8.541872">
        <ele>282.019</ele>
        <time>2013-05-20T17:04:00Z</time>
      </trkpt>
      <trkpt lat="42.881537" lon="-8.541912">
        <ele>283.007</ele>
        <time>2013-05-20T17:04:15Z</time>
      </trkpt>
      <trkpt lat="42.881602" lon="-8.542025">
        <ele>280.013</ele>
        <time>2013-05-20T17:04:22Z</time>
      </trkpt>
      <trkpt lat="42.881581" lon="-8.542155">
        <ele>284.084</ele>
        <time>2013-05-20T17:04:32Z</time>
      </trkpt>
      <trkpt lat="42.881489" lon="-8.542216">
        <ele>286.060</ele>
        <time>2013-05-20T17:04:37Z</time>
      </trkpt>
      <trkpt lat="42.881417" lon="-8.542308">
        <ele>288.026</ele>
        <time>2013-05-20T17:04:42Z</time>
      </trkpt>
      <trkpt lat="42.881372" lon="-8.542339">
        <ele>290.089</ele>
        <time>2013-05-20T17:04:52Z</time>
      </trkpt>
      <trkpt lat="42.881344" lon="-8.542389">
        <ele>290.058</ele>
        <time>2013-05-20T17:05:08Z</time>
      </trkpt>
      <trkpt lat="42.881311" lon="-8.542507">
        <ele>290.017</ele>
        <time>2013-05-20T17:05:15Z</time>
      </trkpt>
      <trkpt lat="42.881252" lon="-8.542616">
        <ele>289.034</ele>
        <time>2013-05-20T17:05:21Z</time>
      </trkpt>
      <trkpt lat="42.881231" lon="-8.542746">
        <ele>287.055</ele>
        <time>2013-05-20T17:05:28Z</time>
      </trkpt>
      <trkpt lat="42.881244" lon="-8.542849">
        <ele>281.010</ele>
        <time>2013-05-20T17:05:38Z</time>
      </trkpt>
      <trkpt lat="42.881296" lon="-8.542942">
        <ele>281.007</ele>
        <time>2013-05-20T17:05:48Z</time>
      </trkpt>
      <trkpt lat="42.881285" lon="-8.543066">
        <ele>279.087</ele>
        <time>2013-05-20T17:05:55Z</time>
      </trkpt>
      <trkpt lat="42.881253" lon="-8.543189">
        <ele>278.058</ele>
        <time>2013-05-20T17:06:01Z</time>
      </trkpt>
      <trkpt lat="42.881267" lon="-8.543325">
        <ele>276.024</ele>
        <time>2013-05-20T17:06:09Z</time>
      </trkpt>
      <trkpt lat="42.881249" lon="-8.543455">
        <ele>277.070</ele>
        <time>2013-05-20T17:06:16Z</time>
      </trkpt>
      <trkpt lat="42.881230" lon="-8.543594">
        <ele>276.023</ele>
        <time>2013-05-20T17:06:21Z</time>
      </trkpt>
      <trkpt lat="42.881266" lon="-8.543697">
        <ele>277.032</ele>
        <time>2013-05-20T17:06:31Z</time>
      </trkpt>
      <trkpt lat="42.881271" lon="-8.543825">
        <ele>279.031</ele>
        <time>2013-05-20T17:06:39Z</time>
      </trkpt>
      <trkpt lat="42.881314" lon="-8.543907">
        <ele>278.098</ele>
        <time>2013-05-20T17:06:49Z</time>
      </trkpt>
      <trkpt lat="42.881284" lon="-8.543961">
        <ele>284.015</ele>
        <time>2013-05-20T17:07:03Z</time>
      </trkpt>
      <trkpt lat="42.881344" lon="-8.544068">
        <ele>285.026</ele>
        <time>2013-05-20T17:07:13Z</time>
      </trkpt>
      <trkpt lat="42.881323" lon="-8.544123">
        <ele>282.007</ele>
        <time>2013-05-20T17:07:23Z</time>
      </trkpt>
      <trkpt lat="42.881283" lon="-8.544161">
        <ele>278.013</ele>
        <time>2013-05-20T17:07:40Z</time>
      </trkpt>
      <trkpt lat="42.881234" lon="-8.544192">
        <ele>276.084</ele>
        <time>2013-05-20T17:07:50Z</time>
      </trkpt>
      <trkpt lat="42.881171" lon="-8.544241">
        <ele>274.010</ele>
        <time>2013-05-20T17:08:00Z</time>
      </trkpt>
      <trkpt lat="42.881173" lon="-8.544163">
        <ele>275.096</ele>
        <time>2013-05-20T17:08:10Z</time>
      </trkpt>
      <trkpt lat="42.881157" lon="-8.544234">
        <ele>279.049</ele>
        <time>2013-05-20T17:08:29Z</time>
      </trkpt>
      <trkpt lat="42.881180" lon="-8.544347">
        <ele>282.098</ele>
        <time>2013-05-20T17:08:39Z</time>
      </trkpt>
      <trkpt lat="42.881217" lon="-8.544374">
        <ele>283.097</ele>
        <time>2013-05-20T17:09:09Z</time>
      </trkpt>
      <trkpt lat="42.881224" lon="-8.544365">
        <ele>290.087</ele>
        <time>2013-05-20T17:09:39Z</time>
      </trkpt>
      <trkpt lat="42.881266" lon="-8.544408">
        <ele>294.042</ele>
        <time>2013-05-20T17:10:09Z</time>
      </trkpt>
      <trkpt lat="42.881301" lon="-8.544522">
        <ele>300.026</ele>
        <time>2013-05-20T17:10:18Z</time>
      </trkpt>
      <trkpt lat="42.881312" lon="-8.544646">
        <ele>299.007</ele>
        <time>2013-05-20T17:10:24Z</time>
      </trkpt>
      <trkpt lat="42.881276" lon="-8.544735">
        <ele>299.092</ele>
        <time>2013-05-20T17:10:34Z</time>
      </trkpt>
      <trkpt lat="42.881202" lon="-8.544709">
        <ele>299.033</ele>
        <time>2013-05-20T17:10:44Z</time>
      </trkpt>
      <trkpt lat="42.881155" lon="-8.544692">
        <ele>302.069</ele>
        <time>2013-05-20T17:10:56Z</time>
      </trkpt>
      <trkpt lat="42.881160" lon="-8.544630">
        <ele>297.035</ele>
        <time>2013-05-20T17:11:12Z</time>
      </trkpt>
      <trkpt lat="42.881117" lon="-8.544666">
        <ele>292.098</ele>
        <time>2013-05-20T17:11:25Z</time>
      </trkpt>
      <trkpt lat="42.881096" lon="-8.544783">
        <ele>288.087</ele>
        <time>2013-05-20T17:11:35Z</time>
      </trkpt>
      <trkpt lat="42.881104" lon="-8.544851">
        <ele>285.096</ele>
        <time>2013-05-20T17:11:45Z</time>
      </trkpt>
      <trkpt lat="42.881084" lon="-8.544907">
        <ele>283.015</ele>
        <time>2013-05-20T17:12:00Z</time>
      </trkpt>
      <trkpt lat="42.881058" lon="-8.544979">
        <ele>280.065</ele>
        <time>2013-05-20T17:12:12Z</time>
      </trkpt>
      <trkpt lat="42.881046" lon="-8.545116">
        <ele>279.011</ele>
        <time>2013-05-20T17:12:15Z</time>
      </trkpt>
      <trkpt lat="42.880989" lon="-8.545258">
        <ele>276.007</ele>
        <time>2013-05-20T17:12:19Z</time>
      </trkpt>
      <trkpt lat="42.880926" lon="-8.545365">
        <ele>275.035</ele>
        <time>2013-05-20T17:12:23Z</time>
      </trkpt>
      <trkpt lat="42.880852" lon="-8.545449">
        <ele>274.046</ele>
        <time>2013-05-20T17:12:28Z</time>
      </trkpt>
      <trkpt lat="42.880790" lon="-8.545565">
        <ele>276.072</ele>
        <time>2013-05-20T17:12:34Z</time>
      </trkpt>
      <trkpt lat="42.880725" lon="-8.545658">
        <ele>275.038</ele>
        <time>2013-05-20T17:12:42Z</time>
      </trkpt>
      <trkpt lat="42.880700" lon="-8.545789">
        <ele>266.081</ele>
        <time>2013-05-20T17:12:52Z</time>
      </trkpt>
      <trkpt lat="42.880673" lon="-8.545852">
        <ele>262.010</ele>
        <time>2013-05-20T17:13:02Z</time>
      </trkpt>
      <trkpt lat="42.880658" lon="-8.545968">
        <ele>263.069</ele>
        <time>2013-05-20T17:13:12Z</time>
      </trkpt>
      <trkpt lat="42.880599" lon="-8.546026">
        <ele>270.068</ele>
        <time>2013-05-20T17:13:29Z</time>
      </trkpt>
      <trkpt lat="42.880607" lon="-8.546063">
        <ele>269.042</ele>
        <time>2013-05-20T17:13:59Z</time>
      </trkpt>
      <trkpt lat="42.880609" lon="-8.546066">
        <ele>269.026</ele>
        <time>2013-05-20T17:14:29Z</time>
      </trkpt>
      <trkpt lat="42.880601" lon="-8.546090">
        <ele>269.007</ele>
        <time>2013-05-20T17:14:59Z</time>
      </trkpt>
      <trkpt lat="42.880693" lon="-8.546095">
        <ele>267.090</ele>
        <time>2013-05-20T17:15:08Z</time>
      </trkpt>
      <trkpt lat="42.880785" lon="-8.546112">
        <ele>266.021</ele>
        <time>2013-05-20T17:15:16Z</time>
      </trkpt>
      <trkpt lat="42.880849" lon="-8.546198">
        <ele>266.087</ele>
        <time>2013-05-20T17:15:26Z</time>
      </trkpt>
      <trkpt lat="42.880897" lon="-8.546195">
        <ele>267.023</ele>
        <time>2013-05-20T17:15:36Z</time>
      </trkpt>
      <trkpt lat="42.880829" lon="-8.546229">
        <ele>266.026</ele>
        <time>2013-05-20T17:15:46Z</time>
      </trkpt>
      <trkpt lat="42.880873" lon="-8.546198">
        <ele>269.075</ele>
        <time>2013-05-20T17:16:11Z</time>
      </trkpt>
      <trkpt lat="42.880932" lon="-8.546217">
        <ele>269.074</ele>
        <time>2013-05-20T17:16:21Z</time>
      </trkpt>
      <trkpt lat="42.880899" lon="-8.546222">
        <ele>268.033</ele>
        <time>2013-05-20T17:16:51Z</time>
      </trkpt>
      <trkpt lat="42.880894" lon="-8.546151">
        <ele>267.023</ele>
        <time>2013-05-20T17:17:01Z</time>
      </trkpt>
      <trkpt lat="42.880912" lon="-8.546086">
        <ele>267.015</ele>
        <time>2013-05-20T17:17:20Z</time>
      </trkpt>
      <trkpt lat="42.880865" lon="-8.546043">
        <ele>267.007</ele>
        <time>2013-05-20T17:17:34Z</time>
      </trkpt>
      <trkpt lat="42.880932" lon="-8.546073">
        <ele>269.067</ele>
        <time>2013-05-20T17:17:44Z</time>
      </trkpt>
      <trkpt lat="42.880846" lon="-8.546064">
        <ele>268.058</ele>
        <time>2013-05-20T17:17:54Z</time>
      </trkpt>
      <trkpt lat="42.880782" lon="-8.546055">
        <ele>268.014</ele>
        <time>2013-05-20T17:18:04Z</time>
      </trkpt>
      <trkpt lat="42.880805" lon="-8.546121">
        <ele>268.030</ele>
        <time>2013-05-20T17:18:14Z</time>
      </trkpt>
      <trkpt lat="42.880754" lon="-8.546099">
        <ele>270.073</ele>
        <time>2013-05-20T17:18:27Z</time>
      </trkpt>
      <trkpt lat="42.880801" lon="-8.546088">
        <ele>270.062</ele>
        <time>2013-05-20T17:18:39Z</time>
      </trkpt>
      <trkpt lat="42.880838" lon="-8.546135">
        <ele>270.041</ele>
        <time>2013-05-20T17:18:52Z</time>
      </trkpt>
      <trkpt lat="42.880777" lon="-8.546128">
        <ele>272.098</ele>
        <time>2013-05-20T17:19:02Z</time>
      </trkpt>
      <trkpt lat="42.880741" lon="-8.546206">
        <ele>276.015</ele>
        <time>2013-05-20T17:19:12Z</time>
      </trkpt>
      <trkpt lat="42.880791" lon="-8.546196">
        <ele>276.026</ele>
        <time>2013-05-20T17:19:31Z</time>
      </trkpt>
      <trkpt lat="42.880726" lon="-8.546203">
        <ele>272.007</ele>
        <time>2013-05-20T17:20:01Z</time>
      </trkpt>
      <trkpt lat="42.880676" lon="-8.546215">
        <ele>271.063</ele>
        <time>2013-05-20T17:20:11Z</time>
      </trkpt>
      <trkpt lat="42.880781" lon="-8.546211">
        <ele>272.094</ele>
        <time>2013-05-20T17:20:19Z</time>
      </trkpt>
      <trkpt lat="42.880847" lon="-8.546170">
        <ele>272.070</ele>
        <time>2013-05-20T17:20:29Z</time>
      </trkpt>
      <trkpt lat="42.880853" lon="-8.546192">
        <ele>271.076</ele>
        <time>2013-05-20T17:20:59Z</time>
      </trkpt>
      <trkpt lat="42.880802" lon="-8.546195">
        <ele>271.029</ele>
        <time>2013-05-20T17:21:09Z</time>
      </trkpt>
      <trkpt lat="42.880718" lon="-8.546189">
        <ele>270.068</ele>
        <time>2013-05-20T17:21:19Z</time>
      </trkpt>
      <trkpt lat="42.880771" lon="-8.546183">
        <ele>271.057</ele>
        <time>2013-05-20T17:21:35Z</time>
      </trkpt>
      <trkpt lat="42.880807" lon="-8.546128">
        <ele>265.046</ele>
        <time>2013-05-20T17:22:03Z</time>
      </trkpt>
      <trkpt lat="42.880865" lon="-8.546128">
        <ele>265.088</ele>
        <time>2013-05-20T17:22:16Z</time>
      </trkpt>
      <trkpt lat="42.880910" lon="-8.546188">
        <ele>265.016</ele>
        <time>2013-05-20T17:22:26Z</time>
      </trkpt>
      <trkpt lat="42.880857" lon="-8.546218">
        <ele>264.007</ele>
        <time>2013-05-20T17:22:36Z</time>
      </trkpt>
      <trkpt lat="42.880929" lon="-8.546229">
        <ele>263.028</ele>
        <time>2013-05-20T17:22:46Z</time>
      </trkpt>
      <trkpt lat="42.881001" lon="-8.546196">
        <ele>262.099</ele>
        <time>2013-05-20T17:22:56Z</time>
      </trkpt>
      <trkpt lat="42.880945" lon="-8.546183">
        <ele>265.085</ele>
        <time>2013-05-20T17:23:16Z</time>
      </trkpt>
      <trkpt lat="42.880853" lon="-8.546181">
        <ele>266.051</ele>
        <time>2013-05-20T17:23:24Z</time>
      </trkpt>
      <trkpt lat="42.880797" lon="-8.546196">
        <ele>269.094</ele>
        <time>2013-05-20T17:23:34Z</time>
      </trkpt>
      <trkpt lat="42.880768" lon="-8.546148">
        <ele>268.033</ele>
        <time>2013-05-20T17:24:02Z</time>
      </trkpt>
      <trkpt lat="42.880804" lon="-8.546101">
        <ele>264.082</ele>
        <time>2013-05-20T17:24:15Z</time>
      </trkpt>
      <trkpt lat="42.880855" lon="-8.546105">
        <ele>257.031</ele>
        <time>2013-05-20T17:24:38Z</time>
      </trkpt>
      <trkpt lat="42.880835" lon="-8.546102">
        <ele>255.061</ele>
        <time>2013-05-20T17:25:08Z</time>
      </trkpt>
      <trkpt lat="42.880784" lon="-8.546085">
        <ele>256.007</ele>
        <time>2013-05-20T17:25:19Z</time>
      </trkpt>
      <trkpt lat="42.880728" lon="-8.546056">
        <ele>256.007</ele>
        <time>2013-05-20T17:25:29Z</time>
      </trkpt>
      <trkpt lat="42.880682" lon="-8.546040">
        <ele>257.017</ele>
        <time>2013-05-20T17:25:39Z</time>
      </trkpt>
      <trkpt lat="42.880672" lon="-8.545930">
        <ele>270.088</ele>
        <time>2013-05-20T17:25:52Z</time>
      </trkpt>
      <trkpt lat="42.880615" lon="-8.545867">
        <ele>283.064</ele>
        <time>2013-05-20T17:26:02Z</time>
      </trkpt>
      <trkpt lat="42.880608" lon="-8.545728">
        <ele>295.090</ele>
        <time>2013-05-20T17:26:07Z</time>
      </trkpt>
      <trkpt lat="42.880575" lon="-8.545679">
        <ele>322.043</ele>
        <time>2013-05-20T17:26:29Z</time>
      </trkpt>
      <trkpt lat="42.880549" lon="-8.545618">
        <ele>331.042</ele>
        <time>2013-05-20T17:26:59Z</time>
      </trkpt>
      <trkpt lat="42.880540" lon="-8.545575">
        <ele>332.081</ele>
        <time>2013-05-20T17:27:29Z</time>
      </trkpt>
      <trkpt lat="42.880537" lon="-8.545439">
        <ele>339.076</ele>
        <time>2013-05-20T17:27:38Z</time>
      </trkpt>
      <trkpt lat="42.880533" lon="-8.545486">
        <ele>340.090</ele>
        <time>2013-05-20T17:28:10Z</time>
      </trkpt>
      <trkpt lat="42.880482" lon="-8.545604">
        <ele>347.019</ele>
        <time>2013-05-20T17:28:18Z</time>
      </trkpt>
      <trkpt lat="42.880396" lon="-8.545689">
        <ele>343.007</ele>
        <time>2013-05-20T17:28:22Z</time>
      </trkpt>
      <trkpt lat="42.880310" lon="-8.545734">
        <ele>340.091</ele>
        <time>2013-05-20T17:28:28Z</time>
      </trkpt>
      <trkpt lat="42.880276" lon="-8.545782">
        <ele>334.042</ele>
        <time>2013-05-20T17:28:48Z</time>
      </trkpt>
      <trkpt lat="42.880281" lon="-8.545714">
        <ele>330.018</ele>
        <time>2013-05-20T17:29:06Z</time>
      </trkpt>
      <trkpt lat="42.880333" lon="-8.545609">
        <ele>330.034</ele>
        <time>2013-05-20T17:29:16Z</time>
      </trkpt>
      <trkpt lat="42.880314" lon="-8.545670">
        <ele>329.027</ele>
        <time>2013-05-20T17:29:26Z</time>
      </trkpt>
      <trkpt lat="42.880331" lon="-8.545647">
        <ele>330.066</ele>
        <time>2013-05-20T17:29:58Z</time>
      </trkpt>
    </trkseg>
  </trk>
</gpx>
